<?xml version="1.0" encoding="UTF-8" standalone="no" ?>
<gpx xmlns="http://www.topografix.com/GPX/1/1" xmlns:xsi="http://www.w3.org/2001/XMLSchema-instance" xsi:schemaLocation="http://www.topografix.com/GPX/1/1 http://www.topografix.com/GPX/1/1/gpx.xsd" version="1.1" creator="VisuGPX - https://www.visugpx.com">
  <metadata>
    <name>2018-04-14 Bike ride-Ambérieux-Rancé O 36k</name>
    <desc><![CDATA[2018-04-14 Bike ride-Ambérieux-Rancé O 36k]]></desc>
  </metadata>
  <wpt lat="45.92454" lon="4.73715">
    <ele>174</ele>
    <name><![CDATA[2018-04-14 10:40 (Start)]]></name>
  </wpt>
  <wpt lat="45.92461" lon="4.73711">
    <ele>174</ele>
    <name><![CDATA[2018-04-14 10:40 (End)]]></name>
  </wpt>
  <trk>
    <name><![CDATA[2018-04-14 10:40]]></name>
    <trkseg>
      <trkpt lat="45.92454" lon="4.73715">
        <ele>174</ele>
        <time>2018-04-14T08:40:06.833Z</time>
      </trkpt>
      <trkpt lat="45.92454" lon="4.73712">
        <ele>174</ele>
        <time>2018-04-14T08:40:07.307Z</time>
      </trkpt>
      <trkpt lat="45.92455" lon="4.73712">
        <ele>174</ele>
        <time>2018-04-14T08:40:08.301Z</time>
      </trkpt>
      <trkpt lat="45.92454" lon="4.7371">
        <ele>174</ele>
        <time>2018-04-14T08:40:18.416Z</time>
      </trkpt>
      <trkpt lat="45.92454" lon="4.7371">
        <ele>174</ele>
        <time>2018-04-14T08:40:14Z</time>
      </trkpt>
      <trkpt lat="45.92454" lon="4.7371">
        <ele>174</ele>
        <time>2018-04-14T08:40:15Z</time>
      </trkpt>
      <trkpt lat="45.92454" lon="4.7371">
        <ele>174</ele>
        <time>2018-04-14T08:40:16Z</time>
      </trkpt>
      <trkpt lat="45.92454" lon="4.7371">
        <ele>174</ele>
        <time>2018-04-14T08:40:19Z</time>
      </trkpt>
      <trkpt lat="45.92454" lon="4.73711">
        <ele>174</ele>
        <time>2018-04-14T08:40:20Z</time>
      </trkpt>
      <trkpt lat="45.92461" lon="4.73705">
        <ele>174</ele>
        <time>2018-04-14T08:40:27Z</time>
      </trkpt>
      <trkpt lat="45.92462" lon="4.73703">
        <ele>174</ele>
        <time>2018-04-14T08:40:28Z</time>
      </trkpt>
      <trkpt lat="45.92464" lon="4.73692">
        <ele>174</ele>
        <time>2018-04-14T08:40:31Z</time>
      </trkpt>
      <trkpt lat="45.92464" lon="4.73688">
        <ele>174</ele>
        <time>2018-04-14T08:40:32Z</time>
      </trkpt>
      <trkpt lat="45.92464" lon="4.73676">
        <ele>174</ele>
        <time>2018-04-14T08:40:33Z</time>
      </trkpt>
      <trkpt lat="45.92465" lon="4.73673">
        <ele>174</ele>
        <time>2018-04-14T08:40:34Z</time>
      </trkpt>
      <trkpt lat="45.92465" lon="4.73661">
        <ele>174</ele>
        <time>2018-04-14T08:40:36Z</time>
      </trkpt>
      <trkpt lat="45.92465" lon="4.73656">
        <ele>174</ele>
        <time>2018-04-14T08:40:37Z</time>
      </trkpt>
      <trkpt lat="45.92467" lon="4.73649">
        <ele>174</ele>
        <time>2018-04-14T08:40:39Z</time>
      </trkpt>
      <trkpt lat="45.92471" lon="4.73644">
        <ele>174</ele>
        <time>2018-04-14T08:40:40Z</time>
      </trkpt>
      <trkpt lat="45.92479" lon="4.73641">
        <ele>174</ele>
        <time>2018-04-14T08:40:42Z</time>
      </trkpt>
      <trkpt lat="45.92484" lon="4.73641">
        <ele>174</ele>
        <time>2018-04-14T08:40:43Z</time>
      </trkpt>
      <trkpt lat="45.92488" lon="4.73641">
        <ele>174</ele>
        <time>2018-04-14T08:40:44Z</time>
      </trkpt>
      <trkpt lat="45.92493" lon="4.73641">
        <ele>174</ele>
        <time>2018-04-14T08:40:45Z</time>
      </trkpt>
      <trkpt lat="45.92497" lon="4.73642">
        <ele>174</ele>
        <time>2018-04-14T08:40:46Z</time>
      </trkpt>
      <trkpt lat="45.92502" lon="4.73643">
        <ele>174</ele>
        <time>2018-04-14T08:40:47Z</time>
      </trkpt>
      <trkpt lat="45.92507" lon="4.73645">
        <ele>174</ele>
        <time>2018-04-14T08:40:48Z</time>
      </trkpt>
      <trkpt lat="45.92512" lon="4.73645">
        <ele>174</ele>
        <time>2018-04-14T08:40:49Z</time>
      </trkpt>
      <trkpt lat="45.92517" lon="4.73646">
        <ele>174</ele>
        <time>2018-04-14T08:40:50Z</time>
      </trkpt>
      <trkpt lat="45.92523" lon="4.73645">
        <ele>173</ele>
        <time>2018-04-14T08:40:51Z</time>
      </trkpt>
      <trkpt lat="45.92528" lon="4.73645">
        <ele>173</ele>
        <time>2018-04-14T08:40:52Z</time>
      </trkpt>
      <trkpt lat="45.92532" lon="4.73644">
        <ele>173</ele>
        <time>2018-04-14T08:40:53Z</time>
      </trkpt>
      <trkpt lat="45.92537" lon="4.73643">
        <ele>173</ele>
        <time>2018-04-14T08:40:54Z</time>
      </trkpt>
      <trkpt lat="45.92542" lon="4.73642">
        <ele>173</ele>
        <time>2018-04-14T08:40:55Z</time>
      </trkpt>
      <trkpt lat="45.92547" lon="4.73641">
        <ele>173</ele>
        <time>2018-04-14T08:40:56Z</time>
      </trkpt>
      <trkpt lat="45.92552" lon="4.73638">
        <ele>173</ele>
        <time>2018-04-14T08:40:57Z</time>
      </trkpt>
      <trkpt lat="45.92557" lon="4.73637">
        <ele>173</ele>
        <time>2018-04-14T08:40:58Z</time>
      </trkpt>
      <trkpt lat="45.92563" lon="4.73634">
        <ele>173</ele>
        <time>2018-04-14T08:40:59Z</time>
      </trkpt>
      <trkpt lat="45.92568" lon="4.73631">
        <ele>173</ele>
        <time>2018-04-14T08:41:00Z</time>
      </trkpt>
      <trkpt lat="45.92573" lon="4.7363">
        <ele>173</ele>
        <time>2018-04-14T08:41:01Z</time>
      </trkpt>
      <trkpt lat="45.92578" lon="4.7363">
        <ele>173</ele>
        <time>2018-04-14T08:41:02Z</time>
      </trkpt>
      <trkpt lat="45.92584" lon="4.73627">
        <ele>172</ele>
        <time>2018-04-14T08:41:03Z</time>
      </trkpt>
      <trkpt lat="45.92588" lon="4.73628">
        <ele>172</ele>
        <time>2018-04-14T08:41:04Z</time>
      </trkpt>
      <trkpt lat="45.92594" lon="4.73629">
        <ele>172</ele>
        <time>2018-04-14T08:41:05Z</time>
      </trkpt>
      <trkpt lat="45.92599" lon="4.7363">
        <ele>172</ele>
        <time>2018-04-14T08:41:06Z</time>
      </trkpt>
      <trkpt lat="45.92605" lon="4.73631">
        <ele>173</ele>
        <time>2018-04-14T08:41:07Z</time>
      </trkpt>
      <trkpt lat="45.92611" lon="4.73633">
        <ele>173</ele>
        <time>2018-04-14T08:41:08Z</time>
      </trkpt>
      <trkpt lat="45.92616" lon="4.73635">
        <ele>173</ele>
        <time>2018-04-14T08:41:09Z</time>
      </trkpt>
      <trkpt lat="45.9262" lon="4.73643">
        <ele>173</ele>
        <time>2018-04-14T08:41:10Z</time>
      </trkpt>
      <trkpt lat="45.92622" lon="4.7365">
        <ele>173</ele>
        <time>2018-04-14T08:41:11Z</time>
      </trkpt>
      <trkpt lat="45.92627" lon="4.73656">
        <ele>173</ele>
        <time>2018-04-14T08:41:12Z</time>
      </trkpt>
      <trkpt lat="45.92629" lon="4.73663">
        <ele>173</ele>
        <time>2018-04-14T08:41:13Z</time>
      </trkpt>
      <trkpt lat="45.92632" lon="4.73669">
        <ele>173</ele>
        <time>2018-04-14T08:41:14Z</time>
      </trkpt>
      <trkpt lat="45.92635" lon="4.73676">
        <ele>173</ele>
        <time>2018-04-14T08:41:15Z</time>
      </trkpt>
      <trkpt lat="45.92639" lon="4.73682">
        <ele>173</ele>
        <time>2018-04-14T08:41:16Z</time>
      </trkpt>
      <trkpt lat="45.92642" lon="4.73687">
        <ele>173</ele>
        <time>2018-04-14T08:41:17Z</time>
      </trkpt>
      <trkpt lat="45.92647" lon="4.73693">
        <ele>173</ele>
        <time>2018-04-14T08:41:18Z</time>
      </trkpt>
      <trkpt lat="45.92652" lon="4.73698">
        <ele>173</ele>
        <time>2018-04-14T08:41:19Z</time>
      </trkpt>
      <trkpt lat="45.92657" lon="4.73701">
        <ele>173</ele>
        <time>2018-04-14T08:41:20Z</time>
      </trkpt>
      <trkpt lat="45.92661" lon="4.73705">
        <ele>173</ele>
        <time>2018-04-14T08:41:21Z</time>
      </trkpt>
      <trkpt lat="45.92666" lon="4.73708">
        <ele>173</ele>
        <time>2018-04-14T08:41:22Z</time>
      </trkpt>
      <trkpt lat="45.92672" lon="4.7371">
        <ele>174</ele>
        <time>2018-04-14T08:41:23Z</time>
      </trkpt>
      <trkpt lat="45.92678" lon="4.73713">
        <ele>173</ele>
        <time>2018-04-14T08:41:24Z</time>
      </trkpt>
      <trkpt lat="45.92683" lon="4.73715">
        <ele>173</ele>
        <time>2018-04-14T08:41:25Z</time>
      </trkpt>
      <trkpt lat="45.92688" lon="4.73716">
        <ele>173</ele>
        <time>2018-04-14T08:41:26Z</time>
      </trkpt>
      <trkpt lat="45.92694" lon="4.73716">
        <ele>173</ele>
        <time>2018-04-14T08:41:27Z</time>
      </trkpt>
      <trkpt lat="45.927" lon="4.73717">
        <ele>173</ele>
        <time>2018-04-14T08:41:28Z</time>
      </trkpt>
      <trkpt lat="45.92706" lon="4.73718">
        <ele>173</ele>
        <time>2018-04-14T08:41:29Z</time>
      </trkpt>
      <trkpt lat="45.92711" lon="4.73719">
        <ele>173</ele>
        <time>2018-04-14T08:41:30Z</time>
      </trkpt>
      <trkpt lat="45.92716" lon="4.73721">
        <ele>173</ele>
        <time>2018-04-14T08:41:31Z</time>
      </trkpt>
      <trkpt lat="45.9272" lon="4.73724">
        <ele>173</ele>
        <time>2018-04-14T08:41:32Z</time>
      </trkpt>
      <trkpt lat="45.92726" lon="4.73725">
        <ele>173</ele>
        <time>2018-04-14T08:41:33Z</time>
      </trkpt>
      <trkpt lat="45.92731" lon="4.73725">
        <ele>173</ele>
        <time>2018-04-14T08:41:34Z</time>
      </trkpt>
      <trkpt lat="45.92737" lon="4.73723">
        <ele>173</ele>
        <time>2018-04-14T08:41:35Z</time>
      </trkpt>
      <trkpt lat="45.92742" lon="4.73722">
        <ele>173</ele>
        <time>2018-04-14T08:41:36Z</time>
      </trkpt>
      <trkpt lat="45.92747" lon="4.73724">
        <ele>173</ele>
        <time>2018-04-14T08:41:37Z</time>
      </trkpt>
      <trkpt lat="45.92755" lon="4.73728">
        <ele>172</ele>
        <time>2018-04-14T08:41:39Z</time>
      </trkpt>
      <trkpt lat="45.92759" lon="4.7373">
        <ele>172</ele>
        <time>2018-04-14T08:41:40Z</time>
      </trkpt>
      <trkpt lat="45.92767" lon="4.73731">
        <ele>172</ele>
        <time>2018-04-14T08:41:42Z</time>
      </trkpt>
      <trkpt lat="45.92771" lon="4.73733">
        <ele>172</ele>
        <time>2018-04-14T08:41:43Z</time>
      </trkpt>
      <trkpt lat="45.92776" lon="4.73741">
        <ele>172</ele>
        <time>2018-04-14T08:41:47Z</time>
      </trkpt>
      <trkpt lat="45.92778" lon="4.73745">
        <ele>172</ele>
        <time>2018-04-14T08:41:48Z</time>
      </trkpt>
      <trkpt lat="45.92784" lon="4.73752">
        <ele>173</ele>
        <time>2018-04-14T08:41:51Z</time>
      </trkpt>
      <trkpt lat="45.92786" lon="4.73754">
        <ele>173</ele>
        <time>2018-04-14T08:41:52Z</time>
      </trkpt>
      <trkpt lat="45.92795" lon="4.73755">
        <ele>173</ele>
        <time>2018-04-14T08:41:56Z</time>
      </trkpt>
      <trkpt lat="45.92796" lon="4.73754">
        <ele>173</ele>
        <time>2018-04-14T08:41:57Z</time>
      </trkpt>
      <trkpt lat="45.928" lon="4.73751">
        <ele>173</ele>
        <time>2018-04-14T08:42:03Z</time>
      </trkpt>
      <trkpt lat="45.928" lon="4.73751">
        <ele>173</ele>
        <time>2018-04-14T08:42:04Z</time>
      </trkpt>
      <trkpt lat="45.928" lon="4.73749">
        <ele>172</ele>
        <time>2018-04-14T08:42:22Z</time>
      </trkpt>
      <trkpt lat="45.928" lon="4.73749">
        <ele>172</ele>
        <time>2018-04-14T08:42:23Z</time>
      </trkpt>
      <trkpt lat="45.92801" lon="4.7376">
        <ele>173</ele>
        <time>2018-04-14T08:43:30Z</time>
      </trkpt>
      <trkpt lat="45.92803" lon="4.73762">
        <ele>173</ele>
        <time>2018-04-14T08:43:31Z</time>
      </trkpt>
      <trkpt lat="45.9281" lon="4.73769">
        <ele>173</ele>
        <time>2018-04-14T08:43:32Z</time>
      </trkpt>
      <trkpt lat="45.92814" lon="4.73771">
        <ele>173</ele>
        <time>2018-04-14T08:43:33Z</time>
      </trkpt>
      <trkpt lat="45.92817" lon="4.73773">
        <ele>173</ele>
        <time>2018-04-14T08:43:34Z</time>
      </trkpt>
      <trkpt lat="45.92823" lon="4.73775">
        <ele>173</ele>
        <time>2018-04-14T08:43:35Z</time>
      </trkpt>
      <trkpt lat="45.92827" lon="4.73779">
        <ele>173</ele>
        <time>2018-04-14T08:43:36Z</time>
      </trkpt>
      <trkpt lat="45.92831" lon="4.73783">
        <ele>173</ele>
        <time>2018-04-14T08:43:37Z</time>
      </trkpt>
      <trkpt lat="45.92835" lon="4.73786">
        <ele>173</ele>
        <time>2018-04-14T08:43:38Z</time>
      </trkpt>
      <trkpt lat="45.92838" lon="4.7379">
        <ele>173</ele>
        <time>2018-04-14T08:43:39Z</time>
      </trkpt>
      <trkpt lat="45.92843" lon="4.73794">
        <ele>173</ele>
        <time>2018-04-14T08:43:40Z</time>
      </trkpt>
      <trkpt lat="45.92847" lon="4.73798">
        <ele>173</ele>
        <time>2018-04-14T08:43:41Z</time>
      </trkpt>
      <trkpt lat="45.9285" lon="4.73804">
        <ele>173</ele>
        <time>2018-04-14T08:43:42Z</time>
      </trkpt>
      <trkpt lat="45.92853" lon="4.73809">
        <ele>173</ele>
        <time>2018-04-14T08:43:43Z</time>
      </trkpt>
      <trkpt lat="45.92854" lon="4.73817">
        <ele>173</ele>
        <time>2018-04-14T08:43:44Z</time>
      </trkpt>
      <trkpt lat="45.92856" lon="4.73825">
        <ele>173</ele>
        <time>2018-04-14T08:43:45Z</time>
      </trkpt>
      <trkpt lat="45.92858" lon="4.73832">
        <ele>173</ele>
        <time>2018-04-14T08:43:46Z</time>
      </trkpt>
      <trkpt lat="45.9286" lon="4.73839">
        <ele>173</ele>
        <time>2018-04-14T08:43:47Z</time>
      </trkpt>
      <trkpt lat="45.92863" lon="4.73846">
        <ele>173</ele>
        <time>2018-04-14T08:43:48Z</time>
      </trkpt>
      <trkpt lat="45.92864" lon="4.73854">
        <ele>173</ele>
        <time>2018-04-14T08:43:49Z</time>
      </trkpt>
      <trkpt lat="45.92867" lon="4.73862">
        <ele>173</ele>
        <time>2018-04-14T08:43:50Z</time>
      </trkpt>
      <trkpt lat="45.92869" lon="4.73869">
        <ele>173</ele>
        <time>2018-04-14T08:43:51Z</time>
      </trkpt>
      <trkpt lat="45.92871" lon="4.73877">
        <ele>173</ele>
        <time>2018-04-14T08:43:52Z</time>
      </trkpt>
      <trkpt lat="45.92873" lon="4.73886">
        <ele>173</ele>
        <time>2018-04-14T08:43:53Z</time>
      </trkpt>
      <trkpt lat="45.92875" lon="4.73894">
        <ele>173</ele>
        <time>2018-04-14T08:43:54Z</time>
      </trkpt>
      <trkpt lat="45.92874" lon="4.73902">
        <ele>173</ele>
        <time>2018-04-14T08:43:55Z</time>
      </trkpt>
      <trkpt lat="45.92875" lon="4.73911">
        <ele>173</ele>
        <time>2018-04-14T08:43:56Z</time>
      </trkpt>
      <trkpt lat="45.92875" lon="4.73919">
        <ele>173</ele>
        <time>2018-04-14T08:43:57Z</time>
      </trkpt>
      <trkpt lat="45.92875" lon="4.73927">
        <ele>172</ele>
        <time>2018-04-14T08:43:58Z</time>
      </trkpt>
      <trkpt lat="45.92876" lon="4.73934">
        <ele>172</ele>
        <time>2018-04-14T08:43:59Z</time>
      </trkpt>
      <trkpt lat="45.92876" lon="4.73942">
        <ele>172</ele>
        <time>2018-04-14T08:44:00Z</time>
      </trkpt>
      <trkpt lat="45.92877" lon="4.73951">
        <ele>172</ele>
        <time>2018-04-14T08:44:01Z</time>
      </trkpt>
      <trkpt lat="45.92876" lon="4.73957">
        <ele>172</ele>
        <time>2018-04-14T08:44:02Z</time>
      </trkpt>
      <trkpt lat="45.92876" lon="4.73965">
        <ele>172</ele>
        <time>2018-04-14T08:44:03Z</time>
      </trkpt>
      <trkpt lat="45.92874" lon="4.73976">
        <ele>173</ele>
        <time>2018-04-14T08:44:05Z</time>
      </trkpt>
      <trkpt lat="45.92876" lon="4.73992">
        <ele>172</ele>
        <time>2018-04-14T08:44:06Z</time>
      </trkpt>
      <trkpt lat="45.92874" lon="4.73998">
        <ele>173</ele>
        <time>2018-04-14T08:44:07Z</time>
      </trkpt>
      <trkpt lat="45.92871" lon="4.74003">
        <ele>172</ele>
        <time>2018-04-14T08:44:08Z</time>
      </trkpt>
      <trkpt lat="45.92869" lon="4.74009">
        <ele>172</ele>
        <time>2018-04-14T08:44:09Z</time>
      </trkpt>
      <trkpt lat="45.92868" lon="4.74016">
        <ele>172</ele>
        <time>2018-04-14T08:44:10Z</time>
      </trkpt>
      <trkpt lat="45.92867" lon="4.74023">
        <ele>172</ele>
        <time>2018-04-14T08:44:11Z</time>
      </trkpt>
      <trkpt lat="45.92868" lon="4.74032">
        <ele>172</ele>
        <time>2018-04-14T08:44:12Z</time>
      </trkpt>
      <trkpt lat="45.92867" lon="4.74039">
        <ele>172</ele>
        <time>2018-04-14T08:44:13Z</time>
      </trkpt>
      <trkpt lat="45.92864" lon="4.74044">
        <ele>172</ele>
        <time>2018-04-14T08:44:14Z</time>
      </trkpt>
      <trkpt lat="45.9286" lon="4.7405">
        <ele>172</ele>
        <time>2018-04-14T08:44:15Z</time>
      </trkpt>
      <trkpt lat="45.92857" lon="4.74057">
        <ele>172</ele>
        <time>2018-04-14T08:44:16Z</time>
      </trkpt>
      <trkpt lat="45.92853" lon="4.74062">
        <ele>172</ele>
        <time>2018-04-14T08:44:17Z</time>
      </trkpt>
      <trkpt lat="45.92849" lon="4.74068">
        <ele>172</ele>
        <time>2018-04-14T08:44:18Z</time>
      </trkpt>
      <trkpt lat="45.92843" lon="4.74072">
        <ele>172</ele>
        <time>2018-04-14T08:44:19Z</time>
      </trkpt>
      <trkpt lat="45.92839" lon="4.74078">
        <ele>171</ele>
        <time>2018-04-14T08:44:20Z</time>
      </trkpt>
      <trkpt lat="45.92836" lon="4.74084">
        <ele>171</ele>
        <time>2018-04-14T08:44:21Z</time>
      </trkpt>
      <trkpt lat="45.92833" lon="4.74091">
        <ele>171</ele>
        <time>2018-04-14T08:44:22Z</time>
      </trkpt>
      <trkpt lat="45.92829" lon="4.74096">
        <ele>171</ele>
        <time>2018-04-14T08:44:23Z</time>
      </trkpt>
      <trkpt lat="45.92825" lon="4.741">
        <ele>171</ele>
        <time>2018-04-14T08:44:24Z</time>
      </trkpt>
      <trkpt lat="45.9282" lon="4.74104">
        <ele>171</ele>
        <time>2018-04-14T08:44:25Z</time>
      </trkpt>
      <trkpt lat="45.92817" lon="4.7411">
        <ele>172</ele>
        <time>2018-04-14T08:44:26Z</time>
      </trkpt>
      <trkpt lat="45.92812" lon="4.74115">
        <ele>172</ele>
        <time>2018-04-14T08:44:27Z</time>
      </trkpt>
      <trkpt lat="45.92807" lon="4.74119">
        <ele>172</ele>
        <time>2018-04-14T08:44:28Z</time>
      </trkpt>
      <trkpt lat="45.92802" lon="4.74125">
        <ele>172</ele>
        <time>2018-04-14T08:44:29Z</time>
      </trkpt>
      <trkpt lat="45.92797" lon="4.74129">
        <ele>172</ele>
        <time>2018-04-14T08:44:30Z</time>
      </trkpt>
      <trkpt lat="45.92792" lon="4.74133">
        <ele>172</ele>
        <time>2018-04-14T08:44:31Z</time>
      </trkpt>
      <trkpt lat="45.92787" lon="4.74137">
        <ele>172</ele>
        <time>2018-04-14T08:44:32Z</time>
      </trkpt>
      <trkpt lat="45.92784" lon="4.74142">
        <ele>172</ele>
        <time>2018-04-14T08:44:33Z</time>
      </trkpt>
      <trkpt lat="45.92781" lon="4.74148">
        <ele>172</ele>
        <time>2018-04-14T08:44:34Z</time>
      </trkpt>
      <trkpt lat="45.92777" lon="4.74153">
        <ele>172</ele>
        <time>2018-04-14T08:44:35Z</time>
      </trkpt>
      <trkpt lat="45.92771" lon="4.74156">
        <ele>172</ele>
        <time>2018-04-14T08:44:36Z</time>
      </trkpt>
      <trkpt lat="45.92767" lon="4.7416">
        <ele>172</ele>
        <time>2018-04-14T08:44:37Z</time>
      </trkpt>
      <trkpt lat="45.92763" lon="4.74167">
        <ele>172</ele>
        <time>2018-04-14T08:44:38Z</time>
      </trkpt>
      <trkpt lat="45.9276" lon="4.74173">
        <ele>172</ele>
        <time>2018-04-14T08:44:39Z</time>
      </trkpt>
      <trkpt lat="45.92755" lon="4.74178">
        <ele>172</ele>
        <time>2018-04-14T08:44:40Z</time>
      </trkpt>
      <trkpt lat="45.92751" lon="4.74182">
        <ele>172</ele>
        <time>2018-04-14T08:44:41Z</time>
      </trkpt>
      <trkpt lat="45.92747" lon="4.74186">
        <ele>172</ele>
        <time>2018-04-14T08:44:42Z</time>
      </trkpt>
      <trkpt lat="45.92742" lon="4.7419">
        <ele>172</ele>
        <time>2018-04-14T08:44:43Z</time>
      </trkpt>
      <trkpt lat="45.92738" lon="4.74196">
        <ele>171</ele>
        <time>2018-04-14T08:44:44Z</time>
      </trkpt>
      <trkpt lat="45.92734" lon="4.74201">
        <ele>171</ele>
        <time>2018-04-14T08:44:45Z</time>
      </trkpt>
      <trkpt lat="45.9273" lon="4.74206">
        <ele>171</ele>
        <time>2018-04-14T08:44:46Z</time>
      </trkpt>
      <trkpt lat="45.92727" lon="4.74214">
        <ele>171</ele>
        <time>2018-04-14T08:44:47Z</time>
      </trkpt>
      <trkpt lat="45.92722" lon="4.74219">
        <ele>171</ele>
        <time>2018-04-14T08:44:48Z</time>
      </trkpt>
      <trkpt lat="45.92719" lon="4.74225">
        <ele>171</ele>
        <time>2018-04-14T08:44:49Z</time>
      </trkpt>
      <trkpt lat="45.92715" lon="4.74229">
        <ele>171</ele>
        <time>2018-04-14T08:44:50Z</time>
      </trkpt>
      <trkpt lat="45.92711" lon="4.74235">
        <ele>171</ele>
        <time>2018-04-14T08:44:51Z</time>
      </trkpt>
      <trkpt lat="45.92709" lon="4.74242">
        <ele>171</ele>
        <time>2018-04-14T08:44:52Z</time>
      </trkpt>
      <trkpt lat="45.92705" lon="4.74247">
        <ele>171</ele>
        <time>2018-04-14T08:44:53Z</time>
      </trkpt>
      <trkpt lat="45.92701" lon="4.74253">
        <ele>171</ele>
        <time>2018-04-14T08:44:54Z</time>
      </trkpt>
      <trkpt lat="45.92697" lon="4.74261">
        <ele>171</ele>
        <time>2018-04-14T08:44:55Z</time>
      </trkpt>
      <trkpt lat="45.92694" lon="4.74267">
        <ele>171</ele>
        <time>2018-04-14T08:44:56Z</time>
      </trkpt>
      <trkpt lat="45.9269" lon="4.74274">
        <ele>171</ele>
        <time>2018-04-14T08:44:57Z</time>
      </trkpt>
      <trkpt lat="45.92686" lon="4.7428">
        <ele>171</ele>
        <time>2018-04-14T08:44:58Z</time>
      </trkpt>
      <trkpt lat="45.92682" lon="4.74286">
        <ele>171</ele>
        <time>2018-04-14T08:44:59Z</time>
      </trkpt>
      <trkpt lat="45.92679" lon="4.74293">
        <ele>171</ele>
        <time>2018-04-14T08:45:00Z</time>
      </trkpt>
      <trkpt lat="45.92675" lon="4.74299">
        <ele>171</ele>
        <time>2018-04-14T08:45:01Z</time>
      </trkpt>
      <trkpt lat="45.92672" lon="4.74305">
        <ele>171</ele>
        <time>2018-04-14T08:45:02Z</time>
      </trkpt>
      <trkpt lat="45.92668" lon="4.74311">
        <ele>171</ele>
        <time>2018-04-14T08:45:03Z</time>
      </trkpt>
      <trkpt lat="45.92664" lon="4.74318">
        <ele>171</ele>
        <time>2018-04-14T08:45:04Z</time>
      </trkpt>
      <trkpt lat="45.9266" lon="4.74325">
        <ele>171</ele>
        <time>2018-04-14T08:45:05Z</time>
      </trkpt>
      <trkpt lat="45.92657" lon="4.74331">
        <ele>171</ele>
        <time>2018-04-14T08:45:06Z</time>
      </trkpt>
      <trkpt lat="45.92653" lon="4.74337">
        <ele>171</ele>
        <time>2018-04-14T08:45:07Z</time>
      </trkpt>
      <trkpt lat="45.9265" lon="4.74343">
        <ele>171</ele>
        <time>2018-04-14T08:45:08Z</time>
      </trkpt>
      <trkpt lat="45.92647" lon="4.74349">
        <ele>171</ele>
        <time>2018-04-14T08:45:09Z</time>
      </trkpt>
      <trkpt lat="45.92643" lon="4.74355">
        <ele>171</ele>
        <time>2018-04-14T08:45:10Z</time>
      </trkpt>
      <trkpt lat="45.9264" lon="4.74362">
        <ele>171</ele>
        <time>2018-04-14T08:45:11Z</time>
      </trkpt>
      <trkpt lat="45.92636" lon="4.74368">
        <ele>171</ele>
        <time>2018-04-14T08:45:12Z</time>
      </trkpt>
      <trkpt lat="45.92633" lon="4.74375">
        <ele>171</ele>
        <time>2018-04-14T08:45:13Z</time>
      </trkpt>
      <trkpt lat="45.92629" lon="4.74382">
        <ele>170</ele>
        <time>2018-04-14T08:45:14Z</time>
      </trkpt>
      <trkpt lat="45.92625" lon="4.74388">
        <ele>170</ele>
        <time>2018-04-14T08:45:15Z</time>
      </trkpt>
      <trkpt lat="45.92621" lon="4.74395">
        <ele>170</ele>
        <time>2018-04-14T08:45:16Z</time>
      </trkpt>
      <trkpt lat="45.92617" lon="4.74403">
        <ele>170</ele>
        <time>2018-04-14T08:45:17Z</time>
      </trkpt>
      <trkpt lat="45.92614" lon="4.74409">
        <ele>170</ele>
        <time>2018-04-14T08:45:18Z</time>
      </trkpt>
      <trkpt lat="45.9261" lon="4.74416">
        <ele>170</ele>
        <time>2018-04-14T08:45:19Z</time>
      </trkpt>
      <trkpt lat="45.92607" lon="4.74423">
        <ele>170</ele>
        <time>2018-04-14T08:45:20Z</time>
      </trkpt>
      <trkpt lat="45.92603" lon="4.7443">
        <ele>170</ele>
        <time>2018-04-14T08:45:21Z</time>
      </trkpt>
      <trkpt lat="45.92599" lon="4.74437">
        <ele>170</ele>
        <time>2018-04-14T08:45:22Z</time>
      </trkpt>
      <trkpt lat="45.92595" lon="4.74443">
        <ele>170</ele>
        <time>2018-04-14T08:45:23Z</time>
      </trkpt>
      <trkpt lat="45.92592" lon="4.74452">
        <ele>170</ele>
        <time>2018-04-14T08:45:24Z</time>
      </trkpt>
      <trkpt lat="45.92587" lon="4.74457">
        <ele>170</ele>
        <time>2018-04-14T08:45:25Z</time>
      </trkpt>
      <trkpt lat="45.92583" lon="4.74464">
        <ele>170</ele>
        <time>2018-04-14T08:45:26Z</time>
      </trkpt>
      <trkpt lat="45.9258" lon="4.7447">
        <ele>170</ele>
        <time>2018-04-14T08:45:27Z</time>
      </trkpt>
      <trkpt lat="45.92576" lon="4.74475">
        <ele>170</ele>
        <time>2018-04-14T08:45:28Z</time>
      </trkpt>
      <trkpt lat="45.92572" lon="4.74481">
        <ele>170</ele>
        <time>2018-04-14T08:45:29Z</time>
      </trkpt>
      <trkpt lat="45.92568" lon="4.74487">
        <ele>170</ele>
        <time>2018-04-14T08:45:30Z</time>
      </trkpt>
      <trkpt lat="45.92564" lon="4.74494">
        <ele>170</ele>
        <time>2018-04-14T08:45:31Z</time>
      </trkpt>
      <trkpt lat="45.92561" lon="4.74501">
        <ele>170</ele>
        <time>2018-04-14T08:45:32Z</time>
      </trkpt>
      <trkpt lat="45.92557" lon="4.74508">
        <ele>170</ele>
        <time>2018-04-14T08:45:33Z</time>
      </trkpt>
      <trkpt lat="45.92554" lon="4.74514">
        <ele>170</ele>
        <time>2018-04-14T08:45:34Z</time>
      </trkpt>
      <trkpt lat="45.92551" lon="4.7452">
        <ele>170</ele>
        <time>2018-04-14T08:45:35Z</time>
      </trkpt>
      <trkpt lat="45.92547" lon="4.74527">
        <ele>170</ele>
        <time>2018-04-14T08:45:36Z</time>
      </trkpt>
      <trkpt lat="45.92543" lon="4.74533">
        <ele>170</ele>
        <time>2018-04-14T08:45:37Z</time>
      </trkpt>
      <trkpt lat="45.92539" lon="4.7454">
        <ele>171</ele>
        <time>2018-04-14T08:45:38Z</time>
      </trkpt>
      <trkpt lat="45.92535" lon="4.74546">
        <ele>171</ele>
        <time>2018-04-14T08:45:39Z</time>
      </trkpt>
      <trkpt lat="45.92531" lon="4.74552">
        <ele>171</ele>
        <time>2018-04-14T08:45:40Z</time>
      </trkpt>
      <trkpt lat="45.92527" lon="4.74558">
        <ele>171</ele>
        <time>2018-04-14T08:45:41Z</time>
      </trkpt>
      <trkpt lat="45.92523" lon="4.74564">
        <ele>171</ele>
        <time>2018-04-14T08:45:42Z</time>
      </trkpt>
      <trkpt lat="45.92519" lon="4.7457">
        <ele>171</ele>
        <time>2018-04-14T08:45:43Z</time>
      </trkpt>
      <trkpt lat="45.92514" lon="4.74575">
        <ele>171</ele>
        <time>2018-04-14T08:45:44Z</time>
      </trkpt>
      <trkpt lat="45.9251" lon="4.7458">
        <ele>171</ele>
        <time>2018-04-14T08:45:45Z</time>
      </trkpt>
      <trkpt lat="45.92506" lon="4.74585">
        <ele>171</ele>
        <time>2018-04-14T08:45:46Z</time>
      </trkpt>
      <trkpt lat="45.92501" lon="4.7459">
        <ele>171</ele>
        <time>2018-04-14T08:45:47Z</time>
      </trkpt>
      <trkpt lat="45.92497" lon="4.74594">
        <ele>171</ele>
        <time>2018-04-14T08:45:48Z</time>
      </trkpt>
      <trkpt lat="45.92492" lon="4.746">
        <ele>171</ele>
        <time>2018-04-14T08:45:49Z</time>
      </trkpt>
      <trkpt lat="45.92488" lon="4.74604">
        <ele>171</ele>
        <time>2018-04-14T08:45:50Z</time>
      </trkpt>
      <trkpt lat="45.92483" lon="4.74609">
        <ele>171</ele>
        <time>2018-04-14T08:45:51Z</time>
      </trkpt>
      <trkpt lat="45.92479" lon="4.74615">
        <ele>171</ele>
        <time>2018-04-14T08:45:52Z</time>
      </trkpt>
      <trkpt lat="45.92474" lon="4.7462">
        <ele>171</ele>
        <time>2018-04-14T08:45:53Z</time>
      </trkpt>
      <trkpt lat="45.9247" lon="4.74626">
        <ele>171</ele>
        <time>2018-04-14T08:45:54Z</time>
      </trkpt>
      <trkpt lat="45.92467" lon="4.74633">
        <ele>171</ele>
        <time>2018-04-14T08:45:55Z</time>
      </trkpt>
      <trkpt lat="45.92463" lon="4.74639">
        <ele>171</ele>
        <time>2018-04-14T08:45:56Z</time>
      </trkpt>
      <trkpt lat="45.92459" lon="4.74646">
        <ele>171</ele>
        <time>2018-04-14T08:45:57Z</time>
      </trkpt>
      <trkpt lat="45.92455" lon="4.74652">
        <ele>171</ele>
        <time>2018-04-14T08:45:58Z</time>
      </trkpt>
      <trkpt lat="45.92451" lon="4.74661">
        <ele>171</ele>
        <time>2018-04-14T08:45:59Z</time>
      </trkpt>
      <trkpt lat="45.92446" lon="4.74667">
        <ele>171</ele>
        <time>2018-04-14T08:46:00Z</time>
      </trkpt>
      <trkpt lat="45.92443" lon="4.74671">
        <ele>171</ele>
        <time>2018-04-14T08:46:01Z</time>
      </trkpt>
      <trkpt lat="45.92441" lon="4.74678">
        <ele>171</ele>
        <time>2018-04-14T08:46:02Z</time>
      </trkpt>
      <trkpt lat="45.92438" lon="4.74687">
        <ele>171</ele>
        <time>2018-04-14T08:46:03Z</time>
      </trkpt>
      <trkpt lat="45.92435" lon="4.74693">
        <ele>171</ele>
        <time>2018-04-14T08:46:04Z</time>
      </trkpt>
      <trkpt lat="45.92432" lon="4.74698">
        <ele>171</ele>
        <time>2018-04-14T08:46:05Z</time>
      </trkpt>
      <trkpt lat="45.92429" lon="4.74706">
        <ele>171</ele>
        <time>2018-04-14T08:46:06Z</time>
      </trkpt>
      <trkpt lat="45.92426" lon="4.74712">
        <ele>171</ele>
        <time>2018-04-14T08:46:07Z</time>
      </trkpt>
      <trkpt lat="45.92423" lon="4.74719">
        <ele>171</ele>
        <time>2018-04-14T08:46:08Z</time>
      </trkpt>
      <trkpt lat="45.92421" lon="4.74727">
        <ele>171</ele>
        <time>2018-04-14T08:46:09Z</time>
      </trkpt>
      <trkpt lat="45.92418" lon="4.74734">
        <ele>171</ele>
        <time>2018-04-14T08:46:10Z</time>
      </trkpt>
      <trkpt lat="45.92414" lon="4.74742">
        <ele>172</ele>
        <time>2018-04-14T08:46:11Z</time>
      </trkpt>
      <trkpt lat="45.92412" lon="4.74749">
        <ele>172</ele>
        <time>2018-04-14T08:46:12Z</time>
      </trkpt>
      <trkpt lat="45.9241" lon="4.74756">
        <ele>172</ele>
        <time>2018-04-14T08:46:13Z</time>
      </trkpt>
      <trkpt lat="45.92408" lon="4.74764">
        <ele>172</ele>
        <time>2018-04-14T08:46:14Z</time>
      </trkpt>
      <trkpt lat="45.92406" lon="4.74771">
        <ele>171</ele>
        <time>2018-04-14T08:46:15Z</time>
      </trkpt>
      <trkpt lat="45.92404" lon="4.7478">
        <ele>171</ele>
        <time>2018-04-14T08:46:16Z</time>
      </trkpt>
      <trkpt lat="45.92402" lon="4.74788">
        <ele>171</ele>
        <time>2018-04-14T08:46:17Z</time>
      </trkpt>
      <trkpt lat="45.924" lon="4.74796">
        <ele>171</ele>
        <time>2018-04-14T08:46:18Z</time>
      </trkpt>
      <trkpt lat="45.92398" lon="4.74804">
        <ele>171</ele>
        <time>2018-04-14T08:46:19Z</time>
      </trkpt>
      <trkpt lat="45.92397" lon="4.74814">
        <ele>171</ele>
        <time>2018-04-14T08:46:20Z</time>
      </trkpt>
      <trkpt lat="45.92395" lon="4.74822">
        <ele>171</ele>
        <time>2018-04-14T08:46:21Z</time>
      </trkpt>
      <trkpt lat="45.92392" lon="4.7483">
        <ele>171</ele>
        <time>2018-04-14T08:46:22Z</time>
      </trkpt>
      <trkpt lat="45.9239" lon="4.74838">
        <ele>171</ele>
        <time>2018-04-14T08:46:23Z</time>
      </trkpt>
      <trkpt lat="45.92388" lon="4.74846">
        <ele>171</ele>
        <time>2018-04-14T08:46:24Z</time>
      </trkpt>
      <trkpt lat="45.92385" lon="4.74853">
        <ele>171</ele>
        <time>2018-04-14T08:46:25Z</time>
      </trkpt>
      <trkpt lat="45.92383" lon="4.74862">
        <ele>171</ele>
        <time>2018-04-14T08:46:26Z</time>
      </trkpt>
      <trkpt lat="45.92381" lon="4.7487">
        <ele>171</ele>
        <time>2018-04-14T08:46:27Z</time>
      </trkpt>
      <trkpt lat="45.92377" lon="4.74878">
        <ele>171</ele>
        <time>2018-04-14T08:46:28Z</time>
      </trkpt>
      <trkpt lat="45.92374" lon="4.74886">
        <ele>171</ele>
        <time>2018-04-14T08:46:29Z</time>
      </trkpt>
      <trkpt lat="45.9237" lon="4.74893">
        <ele>171</ele>
        <time>2018-04-14T08:46:30Z</time>
      </trkpt>
      <trkpt lat="45.92367" lon="4.74902">
        <ele>171</ele>
        <time>2018-04-14T08:46:31Z</time>
      </trkpt>
      <trkpt lat="45.92364" lon="4.7491">
        <ele>171</ele>
        <time>2018-04-14T08:46:32Z</time>
      </trkpt>
      <trkpt lat="45.92361" lon="4.74917">
        <ele>170</ele>
        <time>2018-04-14T08:46:33Z</time>
      </trkpt>
      <trkpt lat="45.92358" lon="4.74925">
        <ele>170</ele>
        <time>2018-04-14T08:46:34Z</time>
      </trkpt>
      <trkpt lat="45.92355" lon="4.74932">
        <ele>170</ele>
        <time>2018-04-14T08:46:35Z</time>
      </trkpt>
      <trkpt lat="45.92353" lon="4.7494">
        <ele>170</ele>
        <time>2018-04-14T08:46:36Z</time>
      </trkpt>
      <trkpt lat="45.9235" lon="4.74947">
        <ele>170</ele>
        <time>2018-04-14T08:46:37Z</time>
      </trkpt>
      <trkpt lat="45.92347" lon="4.74955">
        <ele>170</ele>
        <time>2018-04-14T08:46:38Z</time>
      </trkpt>
      <trkpt lat="45.92344" lon="4.74962">
        <ele>170</ele>
        <time>2018-04-14T08:46:39Z</time>
      </trkpt>
      <trkpt lat="45.92341" lon="4.7497">
        <ele>170</ele>
        <time>2018-04-14T08:46:40Z</time>
      </trkpt>
      <trkpt lat="45.92339" lon="4.74977">
        <ele>170</ele>
        <time>2018-04-14T08:46:41Z</time>
      </trkpt>
      <trkpt lat="45.92336" lon="4.74984">
        <ele>170</ele>
        <time>2018-04-14T08:46:42Z</time>
      </trkpt>
      <trkpt lat="45.92333" lon="4.74991">
        <ele>170</ele>
        <time>2018-04-14T08:46:43Z</time>
      </trkpt>
      <trkpt lat="45.9233" lon="4.74998">
        <ele>170</ele>
        <time>2018-04-14T08:46:44Z</time>
      </trkpt>
      <trkpt lat="45.92325" lon="4.75004">
        <ele>171</ele>
        <time>2018-04-14T08:46:45Z</time>
      </trkpt>
      <trkpt lat="45.92321" lon="4.7501">
        <ele>171</ele>
        <time>2018-04-14T08:46:46Z</time>
      </trkpt>
      <trkpt lat="45.92318" lon="4.75018">
        <ele>171</ele>
        <time>2018-04-14T08:46:47Z</time>
      </trkpt>
      <trkpt lat="45.92315" lon="4.75025">
        <ele>171</ele>
        <time>2018-04-14T08:46:48Z</time>
      </trkpt>
      <trkpt lat="45.92311" lon="4.75032">
        <ele>171</ele>
        <time>2018-04-14T08:46:49Z</time>
      </trkpt>
      <trkpt lat="45.92307" lon="4.75039">
        <ele>172</ele>
        <time>2018-04-14T08:46:50Z</time>
      </trkpt>
      <trkpt lat="45.92304" lon="4.75046">
        <ele>172</ele>
        <time>2018-04-14T08:46:51Z</time>
      </trkpt>
      <trkpt lat="45.923" lon="4.75053">
        <ele>172</ele>
        <time>2018-04-14T08:46:52Z</time>
      </trkpt>
      <trkpt lat="45.92296" lon="4.75058">
        <ele>172</ele>
        <time>2018-04-14T08:46:53Z</time>
      </trkpt>
      <trkpt lat="45.92293" lon="4.75064">
        <ele>172</ele>
        <time>2018-04-14T08:46:54Z</time>
      </trkpt>
      <trkpt lat="45.92289" lon="4.75069">
        <ele>172</ele>
        <time>2018-04-14T08:46:55Z</time>
      </trkpt>
      <trkpt lat="45.92285" lon="4.75074">
        <ele>172</ele>
        <time>2018-04-14T08:46:56Z</time>
      </trkpt>
      <trkpt lat="45.9228" lon="4.7508">
        <ele>172</ele>
        <time>2018-04-14T08:46:57Z</time>
      </trkpt>
      <trkpt lat="45.92275" lon="4.75085">
        <ele>173</ele>
        <time>2018-04-14T08:46:58Z</time>
      </trkpt>
      <trkpt lat="45.92272" lon="4.7509">
        <ele>173</ele>
        <time>2018-04-14T08:46:59Z</time>
      </trkpt>
      <trkpt lat="45.92268" lon="4.75095">
        <ele>173</ele>
        <time>2018-04-14T08:47:00Z</time>
      </trkpt>
      <trkpt lat="45.92263" lon="4.75101">
        <ele>173</ele>
        <time>2018-04-14T08:47:01Z</time>
      </trkpt>
      <trkpt lat="45.92258" lon="4.75102">
        <ele>173</ele>
        <time>2018-04-14T08:47:02Z</time>
      </trkpt>
      <trkpt lat="45.92253" lon="4.75107">
        <ele>174</ele>
        <time>2018-04-14T08:47:03Z</time>
      </trkpt>
      <trkpt lat="45.92248" lon="4.7511">
        <ele>174</ele>
        <time>2018-04-14T08:47:04Z</time>
      </trkpt>
      <trkpt lat="45.92244" lon="4.75115">
        <ele>174</ele>
        <time>2018-04-14T08:47:05Z</time>
      </trkpt>
      <trkpt lat="45.9224" lon="4.75119">
        <ele>174</ele>
        <time>2018-04-14T08:47:06Z</time>
      </trkpt>
      <trkpt lat="45.92236" lon="4.75121">
        <ele>174</ele>
        <time>2018-04-14T08:47:07Z</time>
      </trkpt>
      <trkpt lat="45.92233" lon="4.75127">
        <ele>174</ele>
        <time>2018-04-14T08:47:08Z</time>
      </trkpt>
      <trkpt lat="45.92229" lon="4.75133">
        <ele>174</ele>
        <time>2018-04-14T08:47:09Z</time>
      </trkpt>
      <trkpt lat="45.92226" lon="4.75139">
        <ele>174</ele>
        <time>2018-04-14T08:47:10Z</time>
      </trkpt>
      <trkpt lat="45.92223" lon="4.75145">
        <ele>174</ele>
        <time>2018-04-14T08:47:11Z</time>
      </trkpt>
      <trkpt lat="45.9222" lon="4.75151">
        <ele>174</ele>
        <time>2018-04-14T08:47:12Z</time>
      </trkpt>
      <trkpt lat="45.92218" lon="4.75157">
        <ele>174</ele>
        <time>2018-04-14T08:47:13Z</time>
      </trkpt>
      <trkpt lat="45.92215" lon="4.75163">
        <ele>174</ele>
        <time>2018-04-14T08:47:14Z</time>
      </trkpt>
      <trkpt lat="45.92213" lon="4.75169">
        <ele>175</ele>
        <time>2018-04-14T08:47:15Z</time>
      </trkpt>
      <trkpt lat="45.9221" lon="4.75175">
        <ele>175</ele>
        <time>2018-04-14T08:47:16Z</time>
      </trkpt>
      <trkpt lat="45.92209" lon="4.75183">
        <ele>175</ele>
        <time>2018-04-14T08:47:17Z</time>
      </trkpt>
      <trkpt lat="45.92208" lon="4.75189">
        <ele>175</ele>
        <time>2018-04-14T08:47:18Z</time>
      </trkpt>
      <trkpt lat="45.92207" lon="4.75196">
        <ele>175</ele>
        <time>2018-04-14T08:47:19Z</time>
      </trkpt>
      <trkpt lat="45.92205" lon="4.75203">
        <ele>175</ele>
        <time>2018-04-14T08:47:20Z</time>
      </trkpt>
      <trkpt lat="45.92204" lon="4.75209">
        <ele>175</ele>
        <time>2018-04-14T08:47:21Z</time>
      </trkpt>
      <trkpt lat="45.92204" lon="4.75215">
        <ele>175</ele>
        <time>2018-04-14T08:47:22Z</time>
      </trkpt>
      <trkpt lat="45.92203" lon="4.75228">
        <ele>175</ele>
        <time>2018-04-14T08:47:24Z</time>
      </trkpt>
      <trkpt lat="45.92203" lon="4.75235">
        <ele>175</ele>
        <time>2018-04-14T08:47:25Z</time>
      </trkpt>
      <trkpt lat="45.92203" lon="4.75246">
        <ele>175</ele>
        <time>2018-04-14T08:47:27Z</time>
      </trkpt>
      <trkpt lat="45.92203" lon="4.75252">
        <ele>175</ele>
        <time>2018-04-14T08:47:28Z</time>
      </trkpt>
      <trkpt lat="45.92201" lon="4.75265">
        <ele>176</ele>
        <time>2018-04-14T08:47:30Z</time>
      </trkpt>
      <trkpt lat="45.92202" lon="4.7527">
        <ele>176</ele>
        <time>2018-04-14T08:47:31Z</time>
      </trkpt>
      <trkpt lat="45.92202" lon="4.75283">
        <ele>176</ele>
        <time>2018-04-14T08:47:33Z</time>
      </trkpt>
      <trkpt lat="45.92202" lon="4.75288">
        <ele>176</ele>
        <time>2018-04-14T08:47:34Z</time>
      </trkpt>
      <trkpt lat="45.92202" lon="4.75301">
        <ele>176</ele>
        <time>2018-04-14T08:47:36Z</time>
      </trkpt>
      <trkpt lat="45.92201" lon="4.75306">
        <ele>176</ele>
        <time>2018-04-14T08:47:37Z</time>
      </trkpt>
      <trkpt lat="45.922" lon="4.75318">
        <ele>176</ele>
        <time>2018-04-14T08:47:39Z</time>
      </trkpt>
      <trkpt lat="45.92199" lon="4.75324">
        <ele>176</ele>
        <time>2018-04-14T08:47:40Z</time>
      </trkpt>
      <trkpt lat="45.92196" lon="4.75335">
        <ele>177</ele>
        <time>2018-04-14T08:47:42Z</time>
      </trkpt>
      <trkpt lat="45.92195" lon="4.75342">
        <ele>177</ele>
        <time>2018-04-14T08:47:43Z</time>
      </trkpt>
      <trkpt lat="45.92191" lon="4.75352">
        <ele>177</ele>
        <time>2018-04-14T08:47:45Z</time>
      </trkpt>
      <trkpt lat="45.92188" lon="4.75359">
        <ele>177</ele>
        <time>2018-04-14T08:47:46Z</time>
      </trkpt>
      <trkpt lat="45.92187" lon="4.75365">
        <ele>177</ele>
        <time>2018-04-14T08:47:47Z</time>
      </trkpt>
      <trkpt lat="45.92185" lon="4.7537">
        <ele>177</ele>
        <time>2018-04-14T08:47:48Z</time>
      </trkpt>
      <trkpt lat="45.92182" lon="4.75376">
        <ele>177</ele>
        <time>2018-04-14T08:47:49Z</time>
      </trkpt>
      <trkpt lat="45.9218" lon="4.75384">
        <ele>177</ele>
        <time>2018-04-14T08:47:50Z</time>
      </trkpt>
      <trkpt lat="45.92178" lon="4.7539">
        <ele>177</ele>
        <time>2018-04-14T08:47:51Z</time>
      </trkpt>
      <trkpt lat="45.92176" lon="4.75401">
        <ele>177</ele>
        <time>2018-04-14T08:47:52Z</time>
      </trkpt>
      <trkpt lat="45.92173" lon="4.75407">
        <ele>177</ele>
        <time>2018-04-14T08:47:53Z</time>
      </trkpt>
      <trkpt lat="45.92171" lon="4.75414">
        <ele>178</ele>
        <time>2018-04-14T08:47:54Z</time>
      </trkpt>
      <trkpt lat="45.92168" lon="4.75421">
        <ele>178</ele>
        <time>2018-04-14T08:47:55Z</time>
      </trkpt>
      <trkpt lat="45.92167" lon="4.75428">
        <ele>177</ele>
        <time>2018-04-14T08:47:56Z</time>
      </trkpt>
      <trkpt lat="45.92163" lon="4.75434">
        <ele>177</ele>
        <time>2018-04-14T08:47:57Z</time>
      </trkpt>
      <trkpt lat="45.92161" lon="4.75442">
        <ele>177</ele>
        <time>2018-04-14T08:47:58Z</time>
      </trkpt>
      <trkpt lat="45.92159" lon="4.75448">
        <ele>176</ele>
        <time>2018-04-14T08:47:59Z</time>
      </trkpt>
      <trkpt lat="45.92157" lon="4.75454">
        <ele>176</ele>
        <time>2018-04-14T08:48:00Z</time>
      </trkpt>
      <trkpt lat="45.92155" lon="4.75462">
        <ele>176</ele>
        <time>2018-04-14T08:48:01Z</time>
      </trkpt>
      <trkpt lat="45.92152" lon="4.75469">
        <ele>176</ele>
        <time>2018-04-14T08:48:02Z</time>
      </trkpt>
      <trkpt lat="45.9215" lon="4.75477">
        <ele>176</ele>
        <time>2018-04-14T08:48:03Z</time>
      </trkpt>
      <trkpt lat="45.92147" lon="4.75485">
        <ele>176</ele>
        <time>2018-04-14T08:48:04Z</time>
      </trkpt>
      <trkpt lat="45.92144" lon="4.7549">
        <ele>176</ele>
        <time>2018-04-14T08:48:05Z</time>
      </trkpt>
      <trkpt lat="45.92141" lon="4.75497">
        <ele>175</ele>
        <time>2018-04-14T08:48:06Z</time>
      </trkpt>
      <trkpt lat="45.92138" lon="4.75504">
        <ele>174</ele>
        <time>2018-04-14T08:48:07Z</time>
      </trkpt>
      <trkpt lat="45.92134" lon="4.75512">
        <ele>174</ele>
        <time>2018-04-14T08:48:08Z</time>
      </trkpt>
      <trkpt lat="45.92131" lon="4.75518">
        <ele>174</ele>
        <time>2018-04-14T08:48:09Z</time>
      </trkpt>
      <trkpt lat="45.92128" lon="4.75525">
        <ele>174</ele>
        <time>2018-04-14T08:48:10Z</time>
      </trkpt>
      <trkpt lat="45.92125" lon="4.75531">
        <ele>174</ele>
        <time>2018-04-14T08:48:11Z</time>
      </trkpt>
      <trkpt lat="45.92121" lon="4.75537">
        <ele>174</ele>
        <time>2018-04-14T08:48:12Z</time>
      </trkpt>
      <trkpt lat="45.92118" lon="4.75544">
        <ele>174</ele>
        <time>2018-04-14T08:48:13Z</time>
      </trkpt>
      <trkpt lat="45.92115" lon="4.75549">
        <ele>174</ele>
        <time>2018-04-14T08:48:14Z</time>
      </trkpt>
      <trkpt lat="45.92112" lon="4.75555">
        <ele>174</ele>
        <time>2018-04-14T08:48:15Z</time>
      </trkpt>
      <trkpt lat="45.92108" lon="4.7556">
        <ele>174</ele>
        <time>2018-04-14T08:48:16Z</time>
      </trkpt>
      <trkpt lat="45.92107" lon="4.75567">
        <ele>174</ele>
        <time>2018-04-14T08:48:17Z</time>
      </trkpt>
      <trkpt lat="45.92106" lon="4.75572">
        <ele>174</ele>
        <time>2018-04-14T08:48:18Z</time>
      </trkpt>
      <trkpt lat="45.92106" lon="4.75585">
        <ele>174</ele>
        <time>2018-04-14T08:48:20Z</time>
      </trkpt>
      <trkpt lat="45.92109" lon="4.7559">
        <ele>174</ele>
        <time>2018-04-14T08:48:21Z</time>
      </trkpt>
      <trkpt lat="45.92114" lon="4.75595">
        <ele>174</ele>
        <time>2018-04-14T08:48:22Z</time>
      </trkpt>
      <trkpt lat="45.92118" lon="4.75598">
        <ele>174</ele>
        <time>2018-04-14T08:48:23Z</time>
      </trkpt>
      <trkpt lat="45.92122" lon="4.75602">
        <ele>174</ele>
        <time>2018-04-14T08:48:24Z</time>
      </trkpt>
      <trkpt lat="45.92126" lon="4.75606">
        <ele>174</ele>
        <time>2018-04-14T08:48:25Z</time>
      </trkpt>
      <trkpt lat="45.92131" lon="4.7561">
        <ele>174</ele>
        <time>2018-04-14T08:48:26Z</time>
      </trkpt>
      <trkpt lat="45.92135" lon="4.75614">
        <ele>174</ele>
        <time>2018-04-14T08:48:27Z</time>
      </trkpt>
      <trkpt lat="45.92139" lon="4.75618">
        <ele>174</ele>
        <time>2018-04-14T08:48:28Z</time>
      </trkpt>
      <trkpt lat="45.92144" lon="4.75622">
        <ele>174</ele>
        <time>2018-04-14T08:48:29Z</time>
      </trkpt>
      <trkpt lat="45.92148" lon="4.75626">
        <ele>174</ele>
        <time>2018-04-14T08:48:30Z</time>
      </trkpt>
      <trkpt lat="45.92153" lon="4.75631">
        <ele>174</ele>
        <time>2018-04-14T08:48:31Z</time>
      </trkpt>
      <trkpt lat="45.92157" lon="4.75636">
        <ele>174</ele>
        <time>2018-04-14T08:48:32Z</time>
      </trkpt>
      <trkpt lat="45.92162" lon="4.75641">
        <ele>174</ele>
        <time>2018-04-14T08:48:33Z</time>
      </trkpt>
      <trkpt lat="45.92167" lon="4.75646">
        <ele>174</ele>
        <time>2018-04-14T08:48:34Z</time>
      </trkpt>
      <trkpt lat="45.92172" lon="4.75651">
        <ele>174</ele>
        <time>2018-04-14T08:48:35Z</time>
      </trkpt>
      <trkpt lat="45.92176" lon="4.75657">
        <ele>174</ele>
        <time>2018-04-14T08:48:36Z</time>
      </trkpt>
      <trkpt lat="45.92182" lon="4.75663">
        <ele>174</ele>
        <time>2018-04-14T08:48:37Z</time>
      </trkpt>
      <trkpt lat="45.92187" lon="4.75668">
        <ele>174</ele>
        <time>2018-04-14T08:48:38Z</time>
      </trkpt>
      <trkpt lat="45.92192" lon="4.75672">
        <ele>174</ele>
        <time>2018-04-14T08:48:39Z</time>
      </trkpt>
      <trkpt lat="45.92197" lon="4.75677">
        <ele>174</ele>
        <time>2018-04-14T08:48:40Z</time>
      </trkpt>
      <trkpt lat="45.92202" lon="4.75684">
        <ele>174</ele>
        <time>2018-04-14T08:48:41Z</time>
      </trkpt>
      <trkpt lat="45.92208" lon="4.75688">
        <ele>174</ele>
        <time>2018-04-14T08:48:42Z</time>
      </trkpt>
      <trkpt lat="45.92213" lon="4.75692">
        <ele>174</ele>
        <time>2018-04-14T08:48:43Z</time>
      </trkpt>
      <trkpt lat="45.92217" lon="4.75696">
        <ele>174</ele>
        <time>2018-04-14T08:48:44Z</time>
      </trkpt>
      <trkpt lat="45.92221" lon="4.75701">
        <ele>174</ele>
        <time>2018-04-14T08:48:45Z</time>
      </trkpt>
      <trkpt lat="45.92225" lon="4.75706">
        <ele>174</ele>
        <time>2018-04-14T08:48:46Z</time>
      </trkpt>
      <trkpt lat="45.92229" lon="4.75711">
        <ele>174</ele>
        <time>2018-04-14T08:48:47Z</time>
      </trkpt>
      <trkpt lat="45.92232" lon="4.75717">
        <ele>174</ele>
        <time>2018-04-14T08:48:48Z</time>
      </trkpt>
      <trkpt lat="45.92235" lon="4.75725">
        <ele>174</ele>
        <time>2018-04-14T08:48:49Z</time>
      </trkpt>
      <trkpt lat="45.92238" lon="4.75731">
        <ele>174</ele>
        <time>2018-04-14T08:48:50Z</time>
      </trkpt>
      <trkpt lat="45.9224" lon="4.75738">
        <ele>174</ele>
        <time>2018-04-14T08:48:51Z</time>
      </trkpt>
      <trkpt lat="45.92242" lon="4.75745">
        <ele>174</ele>
        <time>2018-04-14T08:48:52Z</time>
      </trkpt>
      <trkpt lat="45.92244" lon="4.75751">
        <ele>174</ele>
        <time>2018-04-14T08:48:53Z</time>
      </trkpt>
      <trkpt lat="45.92245" lon="4.75758">
        <ele>174</ele>
        <time>2018-04-14T08:48:54Z</time>
      </trkpt>
      <trkpt lat="45.92246" lon="4.75765">
        <ele>174</ele>
        <time>2018-04-14T08:48:55Z</time>
      </trkpt>
      <trkpt lat="45.92247" lon="4.75772">
        <ele>174</ele>
        <time>2018-04-14T08:48:56Z</time>
      </trkpt>
      <trkpt lat="45.92249" lon="4.75779">
        <ele>173</ele>
        <time>2018-04-14T08:48:57Z</time>
      </trkpt>
      <trkpt lat="45.9225" lon="4.75786">
        <ele>174</ele>
        <time>2018-04-14T08:48:58Z</time>
      </trkpt>
      <trkpt lat="45.92252" lon="4.75793">
        <ele>174</ele>
        <time>2018-04-14T08:48:59Z</time>
      </trkpt>
      <trkpt lat="45.92253" lon="4.758">
        <ele>174</ele>
        <time>2018-04-14T08:49:00Z</time>
      </trkpt>
      <trkpt lat="45.92255" lon="4.75807">
        <ele>174</ele>
        <time>2018-04-14T08:49:01Z</time>
      </trkpt>
      <trkpt lat="45.92258" lon="4.75814">
        <ele>174</ele>
        <time>2018-04-14T08:49:02Z</time>
      </trkpt>
      <trkpt lat="45.92261" lon="4.75821">
        <ele>174</ele>
        <time>2018-04-14T08:49:03Z</time>
      </trkpt>
      <trkpt lat="45.92265" lon="4.75827">
        <ele>174</ele>
        <time>2018-04-14T08:49:04Z</time>
      </trkpt>
      <trkpt lat="45.9227" lon="4.75832">
        <ele>174</ele>
        <time>2018-04-14T08:49:05Z</time>
      </trkpt>
      <trkpt lat="45.92276" lon="4.75839">
        <ele>173</ele>
        <time>2018-04-14T08:49:06Z</time>
      </trkpt>
      <trkpt lat="45.92282" lon="4.75844">
        <ele>173</ele>
        <time>2018-04-14T08:49:07Z</time>
      </trkpt>
      <trkpt lat="45.92287" lon="4.75848">
        <ele>173</ele>
        <time>2018-04-14T08:49:08Z</time>
      </trkpt>
      <trkpt lat="45.92292" lon="4.7585">
        <ele>173</ele>
        <time>2018-04-14T08:49:09Z</time>
      </trkpt>
      <trkpt lat="45.92298" lon="4.75853">
        <ele>173</ele>
        <time>2018-04-14T08:49:10Z</time>
      </trkpt>
      <trkpt lat="45.92304" lon="4.75856">
        <ele>173</ele>
        <time>2018-04-14T08:49:11Z</time>
      </trkpt>
      <trkpt lat="45.92309" lon="4.75859">
        <ele>173</ele>
        <time>2018-04-14T08:49:12Z</time>
      </trkpt>
      <trkpt lat="45.92315" lon="4.75862">
        <ele>173</ele>
        <time>2018-04-14T08:49:13Z</time>
      </trkpt>
      <trkpt lat="45.92321" lon="4.75865">
        <ele>173</ele>
        <time>2018-04-14T08:49:14Z</time>
      </trkpt>
      <trkpt lat="45.92327" lon="4.75868">
        <ele>173</ele>
        <time>2018-04-14T08:49:15Z</time>
      </trkpt>
      <trkpt lat="45.92333" lon="4.75872">
        <ele>173</ele>
        <time>2018-04-14T08:49:16Z</time>
      </trkpt>
      <trkpt lat="45.92338" lon="4.75875">
        <ele>173</ele>
        <time>2018-04-14T08:49:17Z</time>
      </trkpt>
      <trkpt lat="45.92344" lon="4.75878">
        <ele>173</ele>
        <time>2018-04-14T08:49:18Z</time>
      </trkpt>
      <trkpt lat="45.9235" lon="4.75882">
        <ele>173</ele>
        <time>2018-04-14T08:49:19Z</time>
      </trkpt>
      <trkpt lat="45.92356" lon="4.75887">
        <ele>173</ele>
        <time>2018-04-14T08:49:20Z</time>
      </trkpt>
      <trkpt lat="45.92362" lon="4.75891">
        <ele>173</ele>
        <time>2018-04-14T08:49:21Z</time>
      </trkpt>
      <trkpt lat="45.92367" lon="4.75895">
        <ele>173</ele>
        <time>2018-04-14T08:49:22Z</time>
      </trkpt>
      <trkpt lat="45.92374" lon="4.75898">
        <ele>173</ele>
        <time>2018-04-14T08:49:23Z</time>
      </trkpt>
      <trkpt lat="45.9238" lon="4.75901">
        <ele>173</ele>
        <time>2018-04-14T08:49:24Z</time>
      </trkpt>
      <trkpt lat="45.92385" lon="4.75905">
        <ele>173</ele>
        <time>2018-04-14T08:49:25Z</time>
      </trkpt>
      <trkpt lat="45.9239" lon="4.75909">
        <ele>173</ele>
        <time>2018-04-14T08:49:26Z</time>
      </trkpt>
      <trkpt lat="45.92395" lon="4.75913">
        <ele>173</ele>
        <time>2018-04-14T08:49:27Z</time>
      </trkpt>
      <trkpt lat="45.924" lon="4.75917">
        <ele>172</ele>
        <time>2018-04-14T08:49:28Z</time>
      </trkpt>
      <trkpt lat="45.92405" lon="4.75921">
        <ele>172</ele>
        <time>2018-04-14T08:49:29Z</time>
      </trkpt>
      <trkpt lat="45.9241" lon="4.75925">
        <ele>172</ele>
        <time>2018-04-14T08:49:30Z</time>
      </trkpt>
      <trkpt lat="45.92415" lon="4.75928">
        <ele>172</ele>
        <time>2018-04-14T08:49:31Z</time>
      </trkpt>
      <trkpt lat="45.92419" lon="4.75931">
        <ele>172</ele>
        <time>2018-04-14T08:49:32Z</time>
      </trkpt>
      <trkpt lat="45.92423" lon="4.75935">
        <ele>172</ele>
        <time>2018-04-14T08:49:33Z</time>
      </trkpt>
      <trkpt lat="45.92427" lon="4.75938">
        <ele>172</ele>
        <time>2018-04-14T08:49:34Z</time>
      </trkpt>
      <trkpt lat="45.92432" lon="4.75941">
        <ele>172</ele>
        <time>2018-04-14T08:49:35Z</time>
      </trkpt>
      <trkpt lat="45.92439" lon="4.75947">
        <ele>172</ele>
        <time>2018-04-14T08:49:37Z</time>
      </trkpt>
      <trkpt lat="45.92443" lon="4.7595">
        <ele>172</ele>
        <time>2018-04-14T08:49:38Z</time>
      </trkpt>
      <trkpt lat="45.9245" lon="4.75956">
        <ele>172</ele>
        <time>2018-04-14T08:49:41Z</time>
      </trkpt>
      <trkpt lat="45.92456" lon="4.7596">
        <ele>172</ele>
        <time>2018-04-14T08:49:42Z</time>
      </trkpt>
      <trkpt lat="45.92462" lon="4.75965">
        <ele>172</ele>
        <time>2018-04-14T08:49:44Z</time>
      </trkpt>
      <trkpt lat="45.92466" lon="4.75969">
        <ele>172</ele>
        <time>2018-04-14T08:49:45Z</time>
      </trkpt>
      <trkpt lat="45.92474" lon="4.75976">
        <ele>172</ele>
        <time>2018-04-14T08:49:47Z</time>
      </trkpt>
      <trkpt lat="45.92477" lon="4.75978">
        <ele>172</ele>
        <time>2018-04-14T08:49:48Z</time>
      </trkpt>
      <trkpt lat="45.92486" lon="4.75984">
        <ele>172</ele>
        <time>2018-04-14T08:49:50Z</time>
      </trkpt>
      <trkpt lat="45.9249" lon="4.75987">
        <ele>172</ele>
        <time>2018-04-14T08:49:51Z</time>
      </trkpt>
      <trkpt lat="45.92494" lon="4.7599">
        <ele>172</ele>
        <time>2018-04-14T08:49:52Z</time>
      </trkpt>
      <trkpt lat="45.92498" lon="4.75993">
        <ele>172</ele>
        <time>2018-04-14T08:49:53Z</time>
      </trkpt>
      <trkpt lat="45.92502" lon="4.75995">
        <ele>172</ele>
        <time>2018-04-14T08:49:54Z</time>
      </trkpt>
      <trkpt lat="45.92508" lon="4.76002">
        <ele>172</ele>
        <time>2018-04-14T08:49:55Z</time>
      </trkpt>
      <trkpt lat="45.92512" lon="4.76006">
        <ele>172</ele>
        <time>2018-04-14T08:49:56Z</time>
      </trkpt>
      <trkpt lat="45.92516" lon="4.76009">
        <ele>172</ele>
        <time>2018-04-14T08:49:57Z</time>
      </trkpt>
      <trkpt lat="45.92524" lon="4.76014">
        <ele>172</ele>
        <time>2018-04-14T08:49:59Z</time>
      </trkpt>
      <trkpt lat="45.92527" lon="4.76015">
        <ele>172</ele>
        <time>2018-04-14T08:50:00Z</time>
      </trkpt>
      <trkpt lat="45.92531" lon="4.76018">
        <ele>172</ele>
        <time>2018-04-14T08:50:01Z</time>
      </trkpt>
      <trkpt lat="45.92536" lon="4.76021">
        <ele>172</ele>
        <time>2018-04-14T08:50:02Z</time>
      </trkpt>
      <trkpt lat="45.92543" lon="4.76026">
        <ele>172</ele>
        <time>2018-04-14T08:50:04Z</time>
      </trkpt>
      <trkpt lat="45.92547" lon="4.76028">
        <ele>172</ele>
        <time>2018-04-14T08:50:05Z</time>
      </trkpt>
      <trkpt lat="45.92551" lon="4.76031">
        <ele>172</ele>
        <time>2018-04-14T08:50:06Z</time>
      </trkpt>
      <trkpt lat="45.92556" lon="4.76034">
        <ele>172</ele>
        <time>2018-04-14T08:50:07Z</time>
      </trkpt>
      <trkpt lat="45.92561" lon="4.76037">
        <ele>172</ele>
        <time>2018-04-14T08:50:08Z</time>
      </trkpt>
      <trkpt lat="45.92565" lon="4.76041">
        <ele>172</ele>
        <time>2018-04-14T08:50:09Z</time>
      </trkpt>
      <trkpt lat="45.9257" lon="4.76044">
        <ele>171</ele>
        <time>2018-04-14T08:50:10Z</time>
      </trkpt>
      <trkpt lat="45.92574" lon="4.76049">
        <ele>171</ele>
        <time>2018-04-14T08:50:11Z</time>
      </trkpt>
      <trkpt lat="45.92579" lon="4.76052">
        <ele>171</ele>
        <time>2018-04-14T08:50:12Z</time>
      </trkpt>
      <trkpt lat="45.92584" lon="4.76055">
        <ele>171</ele>
        <time>2018-04-14T08:50:13Z</time>
      </trkpt>
      <trkpt lat="45.92589" lon="4.76059">
        <ele>171</ele>
        <time>2018-04-14T08:50:14Z</time>
      </trkpt>
      <trkpt lat="45.92594" lon="4.76062">
        <ele>171</ele>
        <time>2018-04-14T08:50:15Z</time>
      </trkpt>
      <trkpt lat="45.92599" lon="4.76066">
        <ele>171</ele>
        <time>2018-04-14T08:50:16Z</time>
      </trkpt>
      <trkpt lat="45.92605" lon="4.7607">
        <ele>171</ele>
        <time>2018-04-14T08:50:17Z</time>
      </trkpt>
      <trkpt lat="45.9261" lon="4.76074">
        <ele>171</ele>
        <time>2018-04-14T08:50:18Z</time>
      </trkpt>
      <trkpt lat="45.92615" lon="4.76077">
        <ele>171</ele>
        <time>2018-04-14T08:50:19Z</time>
      </trkpt>
      <trkpt lat="45.92621" lon="4.76082">
        <ele>171</ele>
        <time>2018-04-14T08:50:20Z</time>
      </trkpt>
      <trkpt lat="45.92627" lon="4.76086">
        <ele>170</ele>
        <time>2018-04-14T08:50:21Z</time>
      </trkpt>
      <trkpt lat="45.92633" lon="4.7609">
        <ele>170</ele>
        <time>2018-04-14T08:50:22Z</time>
      </trkpt>
      <trkpt lat="45.9264" lon="4.76094">
        <ele>170</ele>
        <time>2018-04-14T08:50:23Z</time>
      </trkpt>
      <trkpt lat="45.92646" lon="4.76098">
        <ele>170</ele>
        <time>2018-04-14T08:50:24Z</time>
      </trkpt>
      <trkpt lat="45.92653" lon="4.76102">
        <ele>170</ele>
        <time>2018-04-14T08:50:25Z</time>
      </trkpt>
      <trkpt lat="45.92659" lon="4.76107">
        <ele>170</ele>
        <time>2018-04-14T08:50:26Z</time>
      </trkpt>
      <trkpt lat="45.92666" lon="4.76111">
        <ele>170</ele>
        <time>2018-04-14T08:50:27Z</time>
      </trkpt>
      <trkpt lat="45.92673" lon="4.76115">
        <ele>169</ele>
        <time>2018-04-14T08:50:28Z</time>
      </trkpt>
      <trkpt lat="45.9268" lon="4.7612">
        <ele>169</ele>
        <time>2018-04-14T08:50:29Z</time>
      </trkpt>
      <trkpt lat="45.92687" lon="4.76124">
        <ele>169</ele>
        <time>2018-04-14T08:50:30Z</time>
      </trkpt>
      <trkpt lat="45.92694" lon="4.76129">
        <ele>169</ele>
        <time>2018-04-14T08:50:31Z</time>
      </trkpt>
      <trkpt lat="45.927" lon="4.76134">
        <ele>169</ele>
        <time>2018-04-14T08:50:32Z</time>
      </trkpt>
      <trkpt lat="45.92708" lon="4.76139">
        <ele>169</ele>
        <time>2018-04-14T08:50:33Z</time>
      </trkpt>
      <trkpt lat="45.92715" lon="4.76143">
        <ele>168</ele>
        <time>2018-04-14T08:50:34Z</time>
      </trkpt>
      <trkpt lat="45.92722" lon="4.76149">
        <ele>168</ele>
        <time>2018-04-14T08:50:35Z</time>
      </trkpt>
      <trkpt lat="45.92729" lon="4.76155">
        <ele>168</ele>
        <time>2018-04-14T08:50:36Z</time>
      </trkpt>
      <trkpt lat="45.92736" lon="4.76159">
        <ele>168</ele>
        <time>2018-04-14T08:50:37Z</time>
      </trkpt>
      <trkpt lat="45.92742" lon="4.76164">
        <ele>167</ele>
        <time>2018-04-14T08:50:38Z</time>
      </trkpt>
      <trkpt lat="45.92747" lon="4.76168">
        <ele>167</ele>
        <time>2018-04-14T08:50:39Z</time>
      </trkpt>
      <trkpt lat="45.92753" lon="4.76174">
        <ele>167</ele>
        <time>2018-04-14T08:50:40Z</time>
      </trkpt>
      <trkpt lat="45.92759" lon="4.76177">
        <ele>167</ele>
        <time>2018-04-14T08:50:41Z</time>
      </trkpt>
      <trkpt lat="45.92766" lon="4.76182">
        <ele>167</ele>
        <time>2018-04-14T08:50:42Z</time>
      </trkpt>
      <trkpt lat="45.92772" lon="4.76187">
        <ele>167</ele>
        <time>2018-04-14T08:50:43Z</time>
      </trkpt>
      <trkpt lat="45.92777" lon="4.76192">
        <ele>168</ele>
        <time>2018-04-14T08:50:44Z</time>
      </trkpt>
      <trkpt lat="45.92783" lon="4.76197">
        <ele>168</ele>
        <time>2018-04-14T08:50:45Z</time>
      </trkpt>
      <trkpt lat="45.92788" lon="4.76201">
        <ele>168</ele>
        <time>2018-04-14T08:50:46Z</time>
      </trkpt>
      <trkpt lat="45.92793" lon="4.76206">
        <ele>168</ele>
        <time>2018-04-14T08:50:47Z</time>
      </trkpt>
      <trkpt lat="45.92799" lon="4.76214">
        <ele>168</ele>
        <time>2018-04-14T08:50:48Z</time>
      </trkpt>
      <trkpt lat="45.92802" lon="4.76218">
        <ele>168</ele>
        <time>2018-04-14T08:50:49Z</time>
      </trkpt>
      <trkpt lat="45.9281" lon="4.76227">
        <ele>168</ele>
        <time>2018-04-14T08:50:50Z</time>
      </trkpt>
      <trkpt lat="45.92815" lon="4.76232">
        <ele>168</ele>
        <time>2018-04-14T08:50:51Z</time>
      </trkpt>
      <trkpt lat="45.9282" lon="4.76238">
        <ele>168</ele>
        <time>2018-04-14T08:50:52Z</time>
      </trkpt>
      <trkpt lat="45.92826" lon="4.76242">
        <ele>169</ele>
        <time>2018-04-14T08:50:53Z</time>
      </trkpt>
      <trkpt lat="45.92831" lon="4.76247">
        <ele>169</ele>
        <time>2018-04-14T08:50:54Z</time>
      </trkpt>
      <trkpt lat="45.92837" lon="4.76252">
        <ele>169</ele>
        <time>2018-04-14T08:50:55Z</time>
      </trkpt>
      <trkpt lat="45.9284" lon="4.76255">
        <ele>169</ele>
        <time>2018-04-14T08:50:56Z</time>
      </trkpt>
      <trkpt lat="45.92844" lon="4.7626">
        <ele>169</ele>
        <time>2018-04-14T08:50:57Z</time>
      </trkpt>
      <trkpt lat="45.92849" lon="4.76265">
        <ele>169</ele>
        <time>2018-04-14T08:50:58Z</time>
      </trkpt>
      <trkpt lat="45.92856" lon="4.76272">
        <ele>169</ele>
        <time>2018-04-14T08:51:00Z</time>
      </trkpt>
      <trkpt lat="45.92863" lon="4.76278">
        <ele>169</ele>
        <time>2018-04-14T08:51:01Z</time>
      </trkpt>
      <trkpt lat="45.92867" lon="4.76284">
        <ele>169</ele>
        <time>2018-04-14T08:51:02Z</time>
      </trkpt>
      <trkpt lat="45.92871" lon="4.76288">
        <ele>169</ele>
        <time>2018-04-14T08:51:03Z</time>
      </trkpt>
      <trkpt lat="45.92876" lon="4.76293">
        <ele>169</ele>
        <time>2018-04-14T08:51:04Z</time>
      </trkpt>
      <trkpt lat="45.92881" lon="4.76298">
        <ele>169</ele>
        <time>2018-04-14T08:51:05Z</time>
      </trkpt>
      <trkpt lat="45.92885" lon="4.76303">
        <ele>169</ele>
        <time>2018-04-14T08:51:06Z</time>
      </trkpt>
      <trkpt lat="45.92889" lon="4.76306">
        <ele>169</ele>
        <time>2018-04-14T08:51:07Z</time>
      </trkpt>
      <trkpt lat="45.92893" lon="4.76312">
        <ele>169</ele>
        <time>2018-04-14T08:51:08Z</time>
      </trkpt>
      <trkpt lat="45.92899" lon="4.76316">
        <ele>169</ele>
        <time>2018-04-14T08:51:09Z</time>
      </trkpt>
      <trkpt lat="45.92903" lon="4.7632">
        <ele>169</ele>
        <time>2018-04-14T08:51:10Z</time>
      </trkpt>
      <trkpt lat="45.92908" lon="4.76324">
        <ele>169</ele>
        <time>2018-04-14T08:51:11Z</time>
      </trkpt>
      <trkpt lat="45.92912" lon="4.76328">
        <ele>169</ele>
        <time>2018-04-14T08:51:12Z</time>
      </trkpt>
      <trkpt lat="45.92916" lon="4.76332">
        <ele>169</ele>
        <time>2018-04-14T08:51:13Z</time>
      </trkpt>
      <trkpt lat="45.92922" lon="4.76337">
        <ele>169</ele>
        <time>2018-04-14T08:51:14Z</time>
      </trkpt>
      <trkpt lat="45.92926" lon="4.76341">
        <ele>169</ele>
        <time>2018-04-14T08:51:15Z</time>
      </trkpt>
      <trkpt lat="45.9293" lon="4.76345">
        <ele>169</ele>
        <time>2018-04-14T08:51:16Z</time>
      </trkpt>
      <trkpt lat="45.92935" lon="4.7635">
        <ele>169</ele>
        <time>2018-04-14T08:51:17Z</time>
      </trkpt>
      <trkpt lat="45.92939" lon="4.76354">
        <ele>169</ele>
        <time>2018-04-14T08:51:18Z</time>
      </trkpt>
      <trkpt lat="45.92943" lon="4.76358">
        <ele>169</ele>
        <time>2018-04-14T08:51:19Z</time>
      </trkpt>
      <trkpt lat="45.92948" lon="4.76363">
        <ele>169</ele>
        <time>2018-04-14T08:51:20Z</time>
      </trkpt>
      <trkpt lat="45.92952" lon="4.76367">
        <ele>169</ele>
        <time>2018-04-14T08:51:21Z</time>
      </trkpt>
      <trkpt lat="45.92956" lon="4.76372">
        <ele>169</ele>
        <time>2018-04-14T08:51:22Z</time>
      </trkpt>
      <trkpt lat="45.9296" lon="4.76376">
        <ele>169</ele>
        <time>2018-04-14T08:51:23Z</time>
      </trkpt>
      <trkpt lat="45.92964" lon="4.76381">
        <ele>169</ele>
        <time>2018-04-14T08:51:24Z</time>
      </trkpt>
      <trkpt lat="45.92969" lon="4.76385">
        <ele>169</ele>
        <time>2018-04-14T08:51:25Z</time>
      </trkpt>
      <trkpt lat="45.92975" lon="4.7639">
        <ele>169</ele>
        <time>2018-04-14T08:51:26Z</time>
      </trkpt>
      <trkpt lat="45.92979" lon="4.76394">
        <ele>169</ele>
        <time>2018-04-14T08:51:27Z</time>
      </trkpt>
      <trkpt lat="45.92983" lon="4.76398">
        <ele>169</ele>
        <time>2018-04-14T08:51:28Z</time>
      </trkpt>
      <trkpt lat="45.92986" lon="4.76402">
        <ele>169</ele>
        <time>2018-04-14T08:51:29Z</time>
      </trkpt>
      <trkpt lat="45.9299" lon="4.76406">
        <ele>169</ele>
        <time>2018-04-14T08:51:30Z</time>
      </trkpt>
      <trkpt lat="45.92997" lon="4.76416">
        <ele>169</ele>
        <time>2018-04-14T08:51:31Z</time>
      </trkpt>
      <trkpt lat="45.93001" lon="4.76422">
        <ele>169</ele>
        <time>2018-04-14T08:51:32Z</time>
      </trkpt>
      <trkpt lat="45.93005" lon="4.76427">
        <ele>169</ele>
        <time>2018-04-14T08:51:33Z</time>
      </trkpt>
      <trkpt lat="45.9301" lon="4.76429">
        <ele>169</ele>
        <time>2018-04-14T08:51:34Z</time>
      </trkpt>
      <trkpt lat="45.93014" lon="4.76434">
        <ele>169</ele>
        <time>2018-04-14T08:51:35Z</time>
      </trkpt>
      <trkpt lat="45.9302" lon="4.76441">
        <ele>169</ele>
        <time>2018-04-14T08:51:36Z</time>
      </trkpt>
      <trkpt lat="45.93024" lon="4.76445">
        <ele>169</ele>
        <time>2018-04-14T08:51:37Z</time>
      </trkpt>
      <trkpt lat="45.93029" lon="4.76448">
        <ele>169</ele>
        <time>2018-04-14T08:51:38Z</time>
      </trkpt>
      <trkpt lat="45.93034" lon="4.76452">
        <ele>169</ele>
        <time>2018-04-14T08:51:39Z</time>
      </trkpt>
      <trkpt lat="45.93039" lon="4.76457">
        <ele>169</ele>
        <time>2018-04-14T08:51:40Z</time>
      </trkpt>
      <trkpt lat="45.93043" lon="4.76462">
        <ele>169</ele>
        <time>2018-04-14T08:51:41Z</time>
      </trkpt>
      <trkpt lat="45.93049" lon="4.76467">
        <ele>169</ele>
        <time>2018-04-14T08:51:42Z</time>
      </trkpt>
      <trkpt lat="45.93054" lon="4.76472">
        <ele>169</ele>
        <time>2018-04-14T08:51:43Z</time>
      </trkpt>
      <trkpt lat="45.93057" lon="4.76473">
        <ele>169</ele>
        <time>2018-04-14T08:51:44Z</time>
      </trkpt>
      <trkpt lat="45.93063" lon="4.76478">
        <ele>169</ele>
        <time>2018-04-14T08:51:45Z</time>
      </trkpt>
      <trkpt lat="45.93069" lon="4.76482">
        <ele>169</ele>
        <time>2018-04-14T08:51:46Z</time>
      </trkpt>
      <trkpt lat="45.93074" lon="4.76487">
        <ele>169</ele>
        <time>2018-04-14T08:51:47Z</time>
      </trkpt>
      <trkpt lat="45.93079" lon="4.76492">
        <ele>170</ele>
        <time>2018-04-14T08:51:48Z</time>
      </trkpt>
      <trkpt lat="45.93084" lon="4.76497">
        <ele>170</ele>
        <time>2018-04-14T08:51:49Z</time>
      </trkpt>
      <trkpt lat="45.93089" lon="4.76502">
        <ele>170</ele>
        <time>2018-04-14T08:51:50Z</time>
      </trkpt>
      <trkpt lat="45.93094" lon="4.76506">
        <ele>170</ele>
        <time>2018-04-14T08:51:51Z</time>
      </trkpt>
      <trkpt lat="45.93098" lon="4.76511">
        <ele>170</ele>
        <time>2018-04-14T08:51:52Z</time>
      </trkpt>
      <trkpt lat="45.93104" lon="4.76516">
        <ele>170</ele>
        <time>2018-04-14T08:51:53Z</time>
      </trkpt>
      <trkpt lat="45.93108" lon="4.76521">
        <ele>170</ele>
        <time>2018-04-14T08:51:54Z</time>
      </trkpt>
      <trkpt lat="45.93112" lon="4.76525">
        <ele>170</ele>
        <time>2018-04-14T08:51:55Z</time>
      </trkpt>
      <trkpt lat="45.93117" lon="4.76531">
        <ele>170</ele>
        <time>2018-04-14T08:51:56Z</time>
      </trkpt>
      <trkpt lat="45.93122" lon="4.76536">
        <ele>170</ele>
        <time>2018-04-14T08:51:57Z</time>
      </trkpt>
      <trkpt lat="45.93127" lon="4.7654">
        <ele>170</ele>
        <time>2018-04-14T08:51:58Z</time>
      </trkpt>
      <trkpt lat="45.93132" lon="4.76545">
        <ele>170</ele>
        <time>2018-04-14T08:51:59Z</time>
      </trkpt>
      <trkpt lat="45.93137" lon="4.7655">
        <ele>170</ele>
        <time>2018-04-14T08:52:00Z</time>
      </trkpt>
      <trkpt lat="45.93142" lon="4.76553">
        <ele>170</ele>
        <time>2018-04-14T08:52:01Z</time>
      </trkpt>
      <trkpt lat="45.93147" lon="4.76558">
        <ele>170</ele>
        <time>2018-04-14T08:52:02Z</time>
      </trkpt>
      <trkpt lat="45.93152" lon="4.76562">
        <ele>170</ele>
        <time>2018-04-14T08:52:03Z</time>
      </trkpt>
      <trkpt lat="45.93158" lon="4.76569">
        <ele>170</ele>
        <time>2018-04-14T08:52:04Z</time>
      </trkpt>
      <trkpt lat="45.93162" lon="4.76574">
        <ele>171</ele>
        <time>2018-04-14T08:52:05Z</time>
      </trkpt>
      <trkpt lat="45.93166" lon="4.76579">
        <ele>171</ele>
        <time>2018-04-14T08:52:06Z</time>
      </trkpt>
      <trkpt lat="45.93171" lon="4.76584">
        <ele>171</ele>
        <time>2018-04-14T08:52:07Z</time>
      </trkpt>
      <trkpt lat="45.93176" lon="4.76588">
        <ele>171</ele>
        <time>2018-04-14T08:52:08Z</time>
      </trkpt>
      <trkpt lat="45.93179" lon="4.76592">
        <ele>171</ele>
        <time>2018-04-14T08:52:09Z</time>
      </trkpt>
      <trkpt lat="45.93184" lon="4.76596">
        <ele>171</ele>
        <time>2018-04-14T08:52:10Z</time>
      </trkpt>
      <trkpt lat="45.93189" lon="4.76601">
        <ele>171</ele>
        <time>2018-04-14T08:52:11Z</time>
      </trkpt>
      <trkpt lat="45.93195" lon="4.76605">
        <ele>170</ele>
        <time>2018-04-14T08:52:12Z</time>
      </trkpt>
      <trkpt lat="45.93199" lon="4.76608">
        <ele>170</ele>
        <time>2018-04-14T08:52:13Z</time>
      </trkpt>
      <trkpt lat="45.93204" lon="4.76613">
        <ele>170</ele>
        <time>2018-04-14T08:52:14Z</time>
      </trkpt>
      <trkpt lat="45.93208" lon="4.76617">
        <ele>170</ele>
        <time>2018-04-14T08:52:15Z</time>
      </trkpt>
      <trkpt lat="45.93212" lon="4.76621">
        <ele>170</ele>
        <time>2018-04-14T08:52:16Z</time>
      </trkpt>
      <trkpt lat="45.93217" lon="4.76626">
        <ele>170</ele>
        <time>2018-04-14T08:52:17Z</time>
      </trkpt>
      <trkpt lat="45.93224" lon="4.7663">
        <ele>170</ele>
        <time>2018-04-14T08:52:19Z</time>
      </trkpt>
      <trkpt lat="45.93228" lon="4.76634">
        <ele>171</ele>
        <time>2018-04-14T08:52:20Z</time>
      </trkpt>
      <trkpt lat="45.93233" lon="4.76639">
        <ele>171</ele>
        <time>2018-04-14T08:52:21Z</time>
      </trkpt>
      <trkpt lat="45.93237" lon="4.76643">
        <ele>171</ele>
        <time>2018-04-14T08:52:22Z</time>
      </trkpt>
      <trkpt lat="45.9324" lon="4.76647">
        <ele>171</ele>
        <time>2018-04-14T08:52:23Z</time>
      </trkpt>
      <trkpt lat="45.93244" lon="4.76653">
        <ele>171</ele>
        <time>2018-04-14T08:52:24Z</time>
      </trkpt>
      <trkpt lat="45.9325" lon="4.76657">
        <ele>171</ele>
        <time>2018-04-14T08:52:25Z</time>
      </trkpt>
      <trkpt lat="45.93256" lon="4.76664">
        <ele>171</ele>
        <time>2018-04-14T08:52:26Z</time>
      </trkpt>
      <trkpt lat="45.93261" lon="4.76668">
        <ele>172</ele>
        <time>2018-04-14T08:52:27Z</time>
      </trkpt>
      <trkpt lat="45.93266" lon="4.76673">
        <ele>172</ele>
        <time>2018-04-14T08:52:28Z</time>
      </trkpt>
      <trkpt lat="45.9327" lon="4.76677">
        <ele>172</ele>
        <time>2018-04-14T08:52:29Z</time>
      </trkpt>
      <trkpt lat="45.93275" lon="4.76681">
        <ele>172</ele>
        <time>2018-04-14T08:52:30Z</time>
      </trkpt>
      <trkpt lat="45.93279" lon="4.76685">
        <ele>172</ele>
        <time>2018-04-14T08:52:31Z</time>
      </trkpt>
      <trkpt lat="45.93282" lon="4.76689">
        <ele>172</ele>
        <time>2018-04-14T08:52:32Z</time>
      </trkpt>
      <trkpt lat="45.93286" lon="4.76691">
        <ele>172</ele>
        <time>2018-04-14T08:52:33Z</time>
      </trkpt>
      <trkpt lat="45.9329" lon="4.76695">
        <ele>172</ele>
        <time>2018-04-14T08:52:34Z</time>
      </trkpt>
      <trkpt lat="45.93294" lon="4.76699">
        <ele>172</ele>
        <time>2018-04-14T08:52:35Z</time>
      </trkpt>
      <trkpt lat="45.93299" lon="4.76708">
        <ele>172</ele>
        <time>2018-04-14T08:52:36Z</time>
      </trkpt>
      <trkpt lat="45.93303" lon="4.76711">
        <ele>172</ele>
        <time>2018-04-14T08:52:37Z</time>
      </trkpt>
      <trkpt lat="45.93308" lon="4.76715">
        <ele>172</ele>
        <time>2018-04-14T08:52:38Z</time>
      </trkpt>
      <trkpt lat="45.93312" lon="4.76719">
        <ele>172</ele>
        <time>2018-04-14T08:52:39Z</time>
      </trkpt>
      <trkpt lat="45.93316" lon="4.76724">
        <ele>172</ele>
        <time>2018-04-14T08:52:40Z</time>
      </trkpt>
      <trkpt lat="45.93321" lon="4.76728">
        <ele>172</ele>
        <time>2018-04-14T08:52:41Z</time>
      </trkpt>
      <trkpt lat="45.93325" lon="4.76731">
        <ele>172</ele>
        <time>2018-04-14T08:52:42Z</time>
      </trkpt>
      <trkpt lat="45.9333" lon="4.76738">
        <ele>172</ele>
        <time>2018-04-14T08:52:43Z</time>
      </trkpt>
      <trkpt lat="45.93335" lon="4.76743">
        <ele>173</ele>
        <time>2018-04-14T08:52:44Z</time>
      </trkpt>
      <trkpt lat="45.93339" lon="4.76747">
        <ele>173</ele>
        <time>2018-04-14T08:52:45Z</time>
      </trkpt>
      <trkpt lat="45.93343" lon="4.76751">
        <ele>173</ele>
        <time>2018-04-14T08:52:46Z</time>
      </trkpt>
      <trkpt lat="45.93351" lon="4.76759">
        <ele>172</ele>
        <time>2018-04-14T08:52:47Z</time>
      </trkpt>
      <trkpt lat="45.93356" lon="4.76763">
        <ele>172</ele>
        <time>2018-04-14T08:52:48Z</time>
      </trkpt>
      <trkpt lat="45.93361" lon="4.76768">
        <ele>172</ele>
        <time>2018-04-14T08:52:49Z</time>
      </trkpt>
      <trkpt lat="45.93364" lon="4.76773">
        <ele>172</ele>
        <time>2018-04-14T08:52:50Z</time>
      </trkpt>
      <trkpt lat="45.93369" lon="4.76778">
        <ele>172</ele>
        <time>2018-04-14T08:52:51Z</time>
      </trkpt>
      <trkpt lat="45.93374" lon="4.76783">
        <ele>172</ele>
        <time>2018-04-14T08:52:52Z</time>
      </trkpt>
      <trkpt lat="45.93379" lon="4.76787">
        <ele>172</ele>
        <time>2018-04-14T08:52:53Z</time>
      </trkpt>
      <trkpt lat="45.93383" lon="4.76792">
        <ele>172</ele>
        <time>2018-04-14T08:52:54Z</time>
      </trkpt>
      <trkpt lat="45.93387" lon="4.76797">
        <ele>172</ele>
        <time>2018-04-14T08:52:55Z</time>
      </trkpt>
      <trkpt lat="45.93391" lon="4.76802">
        <ele>172</ele>
        <time>2018-04-14T08:52:56Z</time>
      </trkpt>
      <trkpt lat="45.93395" lon="4.76807">
        <ele>172</ele>
        <time>2018-04-14T08:52:57Z</time>
      </trkpt>
      <trkpt lat="45.93399" lon="4.76813">
        <ele>172</ele>
        <time>2018-04-14T08:52:58Z</time>
      </trkpt>
      <trkpt lat="45.93403" lon="4.76819">
        <ele>172</ele>
        <time>2018-04-14T08:52:59Z</time>
      </trkpt>
      <trkpt lat="45.93406" lon="4.76825">
        <ele>172</ele>
        <time>2018-04-14T08:53:00Z</time>
      </trkpt>
      <trkpt lat="45.9341" lon="4.7683">
        <ele>172</ele>
        <time>2018-04-14T08:53:01Z</time>
      </trkpt>
      <trkpt lat="45.93413" lon="4.76837">
        <ele>172</ele>
        <time>2018-04-14T08:53:02Z</time>
      </trkpt>
      <trkpt lat="45.93416" lon="4.76843">
        <ele>172</ele>
        <time>2018-04-14T08:53:03Z</time>
      </trkpt>
      <trkpt lat="45.93419" lon="4.76849">
        <ele>171</ele>
        <time>2018-04-14T08:53:04Z</time>
      </trkpt>
      <trkpt lat="45.93421" lon="4.76855">
        <ele>171</ele>
        <time>2018-04-14T08:53:05Z</time>
      </trkpt>
      <trkpt lat="45.93424" lon="4.76862">
        <ele>171</ele>
        <time>2018-04-14T08:53:06Z</time>
      </trkpt>
      <trkpt lat="45.93428" lon="4.76869">
        <ele>171</ele>
        <time>2018-04-14T08:53:07Z</time>
      </trkpt>
      <trkpt lat="45.93432" lon="4.76879">
        <ele>171</ele>
        <time>2018-04-14T08:53:09Z</time>
      </trkpt>
      <trkpt lat="45.93434" lon="4.76886">
        <ele>171</ele>
        <time>2018-04-14T08:53:10Z</time>
      </trkpt>
      <trkpt lat="45.93436" lon="4.76894">
        <ele>171</ele>
        <time>2018-04-14T08:53:11Z</time>
      </trkpt>
      <trkpt lat="45.93438" lon="4.76901">
        <ele>171</ele>
        <time>2018-04-14T08:53:12Z</time>
      </trkpt>
      <trkpt lat="45.9344" lon="4.76908">
        <ele>170</ele>
        <time>2018-04-14T08:53:13Z</time>
      </trkpt>
      <trkpt lat="45.93442" lon="4.76916">
        <ele>170</ele>
        <time>2018-04-14T08:53:14Z</time>
      </trkpt>
      <trkpt lat="45.93444" lon="4.76924">
        <ele>170</ele>
        <time>2018-04-14T08:53:15Z</time>
      </trkpt>
      <trkpt lat="45.93444" lon="4.76929">
        <ele>170</ele>
        <time>2018-04-14T08:53:16Z</time>
      </trkpt>
      <trkpt lat="45.93446" lon="4.76937">
        <ele>170</ele>
        <time>2018-04-14T08:53:17Z</time>
      </trkpt>
      <trkpt lat="45.93447" lon="4.76945">
        <ele>170</ele>
        <time>2018-04-14T08:53:18Z</time>
      </trkpt>
      <trkpt lat="45.93448" lon="4.76952">
        <ele>170</ele>
        <time>2018-04-14T08:53:19Z</time>
      </trkpt>
      <trkpt lat="45.93449" lon="4.76959">
        <ele>170</ele>
        <time>2018-04-14T08:53:20Z</time>
      </trkpt>
      <trkpt lat="45.9345" lon="4.76966">
        <ele>170</ele>
        <time>2018-04-14T08:53:21Z</time>
      </trkpt>
      <trkpt lat="45.93451" lon="4.76974">
        <ele>170</ele>
        <time>2018-04-14T08:53:22Z</time>
      </trkpt>
      <trkpt lat="45.93453" lon="4.76981">
        <ele>170</ele>
        <time>2018-04-14T08:53:23Z</time>
      </trkpt>
      <trkpt lat="45.93454" lon="4.76989">
        <ele>170</ele>
        <time>2018-04-14T08:53:24Z</time>
      </trkpt>
      <trkpt lat="45.93455" lon="4.76996">
        <ele>170</ele>
        <time>2018-04-14T08:53:25Z</time>
      </trkpt>
      <trkpt lat="45.93456" lon="4.77006">
        <ele>170</ele>
        <time>2018-04-14T08:53:26Z</time>
      </trkpt>
      <trkpt lat="45.93457" lon="4.77013">
        <ele>170</ele>
        <time>2018-04-14T08:53:27Z</time>
      </trkpt>
      <trkpt lat="45.93459" lon="4.77022">
        <ele>170</ele>
        <time>2018-04-14T08:53:28Z</time>
      </trkpt>
      <trkpt lat="45.93461" lon="4.7703">
        <ele>170</ele>
        <time>2018-04-14T08:53:29Z</time>
      </trkpt>
      <trkpt lat="45.93463" lon="4.77037">
        <ele>170</ele>
        <time>2018-04-14T08:53:30Z</time>
      </trkpt>
      <trkpt lat="45.93464" lon="4.77045">
        <ele>170</ele>
        <time>2018-04-14T08:53:31Z</time>
      </trkpt>
      <trkpt lat="45.93465" lon="4.77053">
        <ele>170</ele>
        <time>2018-04-14T08:53:32Z</time>
      </trkpt>
      <trkpt lat="45.93467" lon="4.77062">
        <ele>170</ele>
        <time>2018-04-14T08:53:33Z</time>
      </trkpt>
      <trkpt lat="45.93468" lon="4.7707">
        <ele>170</ele>
        <time>2018-04-14T08:53:34Z</time>
      </trkpt>
      <trkpt lat="45.93469" lon="4.77079">
        <ele>170</ele>
        <time>2018-04-14T08:53:35Z</time>
      </trkpt>
      <trkpt lat="45.9347" lon="4.77086">
        <ele>170</ele>
        <time>2018-04-14T08:53:36Z</time>
      </trkpt>
      <trkpt lat="45.93471" lon="4.77094">
        <ele>169</ele>
        <time>2018-04-14T08:53:37Z</time>
      </trkpt>
      <trkpt lat="45.93473" lon="4.77103">
        <ele>169</ele>
        <time>2018-04-14T08:53:38Z</time>
      </trkpt>
      <trkpt lat="45.93474" lon="4.77111">
        <ele>169</ele>
        <time>2018-04-14T08:53:39Z</time>
      </trkpt>
      <trkpt lat="45.93476" lon="4.77119">
        <ele>169</ele>
        <time>2018-04-14T08:53:40Z</time>
      </trkpt>
      <trkpt lat="45.93477" lon="4.77127">
        <ele>169</ele>
        <time>2018-04-14T08:53:41Z</time>
      </trkpt>
      <trkpt lat="45.93479" lon="4.77135">
        <ele>169</ele>
        <time>2018-04-14T08:53:42Z</time>
      </trkpt>
      <trkpt lat="45.9348" lon="4.77143">
        <ele>169</ele>
        <time>2018-04-14T08:53:43Z</time>
      </trkpt>
      <trkpt lat="45.93482" lon="4.7715">
        <ele>169</ele>
        <time>2018-04-14T08:53:44Z</time>
      </trkpt>
      <trkpt lat="45.93483" lon="4.77158">
        <ele>169</ele>
        <time>2018-04-14T08:53:45Z</time>
      </trkpt>
      <trkpt lat="45.93485" lon="4.77164">
        <ele>169</ele>
        <time>2018-04-14T08:53:46Z</time>
      </trkpt>
      <trkpt lat="45.93487" lon="4.77172">
        <ele>169</ele>
        <time>2018-04-14T08:53:47Z</time>
      </trkpt>
      <trkpt lat="45.93488" lon="4.77179">
        <ele>169</ele>
        <time>2018-04-14T08:53:48Z</time>
      </trkpt>
      <trkpt lat="45.9349" lon="4.77186">
        <ele>169</ele>
        <time>2018-04-14T08:53:49Z</time>
      </trkpt>
      <trkpt lat="45.93491" lon="4.77192">
        <ele>169</ele>
        <time>2018-04-14T08:53:50Z</time>
      </trkpt>
      <trkpt lat="45.93491" lon="4.77199">
        <ele>169</ele>
        <time>2018-04-14T08:53:51Z</time>
      </trkpt>
      <trkpt lat="45.93493" lon="4.77205">
        <ele>169</ele>
        <time>2018-04-14T08:53:52Z</time>
      </trkpt>
      <trkpt lat="45.93495" lon="4.77213">
        <ele>169</ele>
        <time>2018-04-14T08:53:53Z</time>
      </trkpt>
      <trkpt lat="45.93497" lon="4.7722">
        <ele>169</ele>
        <time>2018-04-14T08:53:54Z</time>
      </trkpt>
      <trkpt lat="45.93499" lon="4.77228">
        <ele>170</ele>
        <time>2018-04-14T08:53:55Z</time>
      </trkpt>
      <trkpt lat="45.93501" lon="4.77234">
        <ele>169</ele>
        <time>2018-04-14T08:53:56Z</time>
      </trkpt>
      <trkpt lat="45.93502" lon="4.77242">
        <ele>170</ele>
        <time>2018-04-14T08:53:57Z</time>
      </trkpt>
      <trkpt lat="45.93504" lon="4.77249">
        <ele>170</ele>
        <time>2018-04-14T08:53:58Z</time>
      </trkpt>
      <trkpt lat="45.93505" lon="4.77257">
        <ele>170</ele>
        <time>2018-04-14T08:53:59Z</time>
      </trkpt>
      <trkpt lat="45.93506" lon="4.77265">
        <ele>170</ele>
        <time>2018-04-14T08:54:00Z</time>
      </trkpt>
      <trkpt lat="45.93508" lon="4.7727">
        <ele>170</ele>
        <time>2018-04-14T08:54:01Z</time>
      </trkpt>
      <trkpt lat="45.93509" lon="4.77278">
        <ele>170</ele>
        <time>2018-04-14T08:54:02Z</time>
      </trkpt>
      <trkpt lat="45.93511" lon="4.77286">
        <ele>170</ele>
        <time>2018-04-14T08:54:03Z</time>
      </trkpt>
      <trkpt lat="45.93514" lon="4.77294">
        <ele>170</ele>
        <time>2018-04-14T08:54:04Z</time>
      </trkpt>
      <trkpt lat="45.93515" lon="4.77301">
        <ele>170</ele>
        <time>2018-04-14T08:54:05Z</time>
      </trkpt>
      <trkpt lat="45.93517" lon="4.77308">
        <ele>170</ele>
        <time>2018-04-14T08:54:06Z</time>
      </trkpt>
      <trkpt lat="45.93518" lon="4.77316">
        <ele>170</ele>
        <time>2018-04-14T08:54:07Z</time>
      </trkpt>
      <trkpt lat="45.9352" lon="4.77323">
        <ele>170</ele>
        <time>2018-04-14T08:54:08Z</time>
      </trkpt>
      <trkpt lat="45.93521" lon="4.77331">
        <ele>170</ele>
        <time>2018-04-14T08:54:09Z</time>
      </trkpt>
      <trkpt lat="45.93524" lon="4.7734">
        <ele>170</ele>
        <time>2018-04-14T08:54:10Z</time>
      </trkpt>
      <trkpt lat="45.93526" lon="4.77348">
        <ele>170</ele>
        <time>2018-04-14T08:54:11Z</time>
      </trkpt>
      <trkpt lat="45.93528" lon="4.77357">
        <ele>170</ele>
        <time>2018-04-14T08:54:12Z</time>
      </trkpt>
      <trkpt lat="45.93529" lon="4.77365">
        <ele>170</ele>
        <time>2018-04-14T08:54:13Z</time>
      </trkpt>
      <trkpt lat="45.9353" lon="4.77372">
        <ele>170</ele>
        <time>2018-04-14T08:54:14Z</time>
      </trkpt>
      <trkpt lat="45.93533" lon="4.7738">
        <ele>170</ele>
        <time>2018-04-14T08:54:15Z</time>
      </trkpt>
      <trkpt lat="45.93534" lon="4.77386">
        <ele>170</ele>
        <time>2018-04-14T08:54:16Z</time>
      </trkpt>
      <trkpt lat="45.93536" lon="4.77397">
        <ele>170</ele>
        <time>2018-04-14T08:54:17Z</time>
      </trkpt>
      <trkpt lat="45.93537" lon="4.77404">
        <ele>170</ele>
        <time>2018-04-14T08:54:18Z</time>
      </trkpt>
      <trkpt lat="45.93539" lon="4.77411">
        <ele>170</ele>
        <time>2018-04-14T08:54:19Z</time>
      </trkpt>
      <trkpt lat="45.9354" lon="4.77419">
        <ele>170</ele>
        <time>2018-04-14T08:54:20Z</time>
      </trkpt>
      <trkpt lat="45.93543" lon="4.77431">
        <ele>169</ele>
        <time>2018-04-14T08:54:21Z</time>
      </trkpt>
      <trkpt lat="45.93545" lon="4.77441">
        <ele>169</ele>
        <time>2018-04-14T08:54:22Z</time>
      </trkpt>
      <trkpt lat="45.93548" lon="4.77448">
        <ele>169</ele>
        <time>2018-04-14T08:54:23Z</time>
      </trkpt>
      <trkpt lat="45.9355" lon="4.77455">
        <ele>169</ele>
        <time>2018-04-14T08:54:24Z</time>
      </trkpt>
      <trkpt lat="45.93554" lon="4.77467">
        <ele>169</ele>
        <time>2018-04-14T08:54:25Z</time>
      </trkpt>
      <trkpt lat="45.93555" lon="4.77474">
        <ele>169</ele>
        <time>2018-04-14T08:54:26Z</time>
      </trkpt>
      <trkpt lat="45.93557" lon="4.77482">
        <ele>169</ele>
        <time>2018-04-14T08:54:27Z</time>
      </trkpt>
      <trkpt lat="45.93559" lon="4.77491">
        <ele>169</ele>
        <time>2018-04-14T08:54:28Z</time>
      </trkpt>
      <trkpt lat="45.9356" lon="4.775">
        <ele>169</ele>
        <time>2018-04-14T08:54:29Z</time>
      </trkpt>
      <trkpt lat="45.93562" lon="4.77508">
        <ele>169</ele>
        <time>2018-04-14T08:54:30Z</time>
      </trkpt>
      <trkpt lat="45.93564" lon="4.77516">
        <ele>169</ele>
        <time>2018-04-14T08:54:31Z</time>
      </trkpt>
      <trkpt lat="45.93566" lon="4.77523">
        <ele>169</ele>
        <time>2018-04-14T08:54:32Z</time>
      </trkpt>
      <trkpt lat="45.93569" lon="4.77532">
        <ele>169</ele>
        <time>2018-04-14T08:54:33Z</time>
      </trkpt>
      <trkpt lat="45.9357" lon="4.7754">
        <ele>169</ele>
        <time>2018-04-14T08:54:34Z</time>
      </trkpt>
      <trkpt lat="45.93572" lon="4.77548">
        <ele>169</ele>
        <time>2018-04-14T08:54:35Z</time>
      </trkpt>
      <trkpt lat="45.93575" lon="4.77559">
        <ele>169</ele>
        <time>2018-04-14T08:54:36Z</time>
      </trkpt>
      <trkpt lat="45.93577" lon="4.77566">
        <ele>169</ele>
        <time>2018-04-14T08:54:37Z</time>
      </trkpt>
      <trkpt lat="45.93579" lon="4.77572">
        <ele>170</ele>
        <time>2018-04-14T08:54:38Z</time>
      </trkpt>
      <trkpt lat="45.93582" lon="4.77579">
        <ele>170</ele>
        <time>2018-04-14T08:54:39Z</time>
      </trkpt>
      <trkpt lat="45.93584" lon="4.77587">
        <ele>170</ele>
        <time>2018-04-14T08:54:40Z</time>
      </trkpt>
      <trkpt lat="45.93587" lon="4.77594">
        <ele>170</ele>
        <time>2018-04-14T08:54:41Z</time>
      </trkpt>
      <trkpt lat="45.9359" lon="4.77602">
        <ele>170</ele>
        <time>2018-04-14T08:54:42Z</time>
      </trkpt>
      <trkpt lat="45.93591" lon="4.77608">
        <ele>170</ele>
        <time>2018-04-14T08:54:43Z</time>
      </trkpt>
      <trkpt lat="45.93595" lon="4.77614">
        <ele>170</ele>
        <time>2018-04-14T08:54:44Z</time>
      </trkpt>
      <trkpt lat="45.93597" lon="4.77621">
        <ele>170</ele>
        <time>2018-04-14T08:54:45Z</time>
      </trkpt>
      <trkpt lat="45.936" lon="4.77628">
        <ele>169</ele>
        <time>2018-04-14T08:54:46Z</time>
      </trkpt>
      <trkpt lat="45.93602" lon="4.77635">
        <ele>169</ele>
        <time>2018-04-14T08:54:47Z</time>
      </trkpt>
      <trkpt lat="45.93606" lon="4.77641">
        <ele>169</ele>
        <time>2018-04-14T08:54:48Z</time>
      </trkpt>
      <trkpt lat="45.93608" lon="4.77648">
        <ele>169</ele>
        <time>2018-04-14T08:54:49Z</time>
      </trkpt>
      <trkpt lat="45.93613" lon="4.77657">
        <ele>169</ele>
        <time>2018-04-14T08:54:50Z</time>
      </trkpt>
      <trkpt lat="45.93616" lon="4.77666">
        <ele>169</ele>
        <time>2018-04-14T08:54:51Z</time>
      </trkpt>
      <trkpt lat="45.93621" lon="4.77676">
        <ele>169</ele>
        <time>2018-04-14T08:54:53Z</time>
      </trkpt>
      <trkpt lat="45.93624" lon="4.77682">
        <ele>169</ele>
        <time>2018-04-14T08:54:54Z</time>
      </trkpt>
      <trkpt lat="45.93626" lon="4.77687">
        <ele>169</ele>
        <time>2018-04-14T08:54:55Z</time>
      </trkpt>
      <trkpt lat="45.93629" lon="4.77693">
        <ele>169</ele>
        <time>2018-04-14T08:54:56Z</time>
      </trkpt>
      <trkpt lat="45.93632" lon="4.77698">
        <ele>169</ele>
        <time>2018-04-14T08:54:57Z</time>
      </trkpt>
      <trkpt lat="45.93635" lon="4.77703">
        <ele>170</ele>
        <time>2018-04-14T08:54:58Z</time>
      </trkpt>
      <trkpt lat="45.9364" lon="4.77713">
        <ele>170</ele>
        <time>2018-04-14T08:55:00Z</time>
      </trkpt>
      <trkpt lat="45.93641" lon="4.77718">
        <ele>170</ele>
        <time>2018-04-14T08:55:01Z</time>
      </trkpt>
      <trkpt lat="45.93644" lon="4.77724">
        <ele>170</ele>
        <time>2018-04-14T08:55:02Z</time>
      </trkpt>
      <trkpt lat="45.93647" lon="4.77728">
        <ele>170</ele>
        <time>2018-04-14T08:55:03Z</time>
      </trkpt>
      <trkpt lat="45.93652" lon="4.77736">
        <ele>170</ele>
        <time>2018-04-14T08:55:05Z</time>
      </trkpt>
      <trkpt lat="45.93655" lon="4.77741">
        <ele>170</ele>
        <time>2018-04-14T08:55:06Z</time>
      </trkpt>
      <trkpt lat="45.9366" lon="4.77749">
        <ele>171</ele>
        <time>2018-04-14T08:55:08Z</time>
      </trkpt>
      <trkpt lat="45.93663" lon="4.77753">
        <ele>171</ele>
        <time>2018-04-14T08:55:09Z</time>
      </trkpt>
      <trkpt lat="45.93668" lon="4.77762">
        <ele>170</ele>
        <time>2018-04-14T08:55:11Z</time>
      </trkpt>
      <trkpt lat="45.93671" lon="4.77766">
        <ele>170</ele>
        <time>2018-04-14T08:55:12Z</time>
      </trkpt>
      <trkpt lat="45.93674" lon="4.77771">
        <ele>170</ele>
        <time>2018-04-14T08:55:13Z</time>
      </trkpt>
      <trkpt lat="45.93677" lon="4.77776">
        <ele>170</ele>
        <time>2018-04-14T08:55:14Z</time>
      </trkpt>
      <trkpt lat="45.9368" lon="4.77779">
        <ele>170</ele>
        <time>2018-04-14T08:55:15Z</time>
      </trkpt>
      <trkpt lat="45.93684" lon="4.77784">
        <ele>170</ele>
        <time>2018-04-14T08:55:16Z</time>
      </trkpt>
      <trkpt lat="45.93688" lon="4.77789">
        <ele>170</ele>
        <time>2018-04-14T08:55:17Z</time>
      </trkpt>
      <trkpt lat="45.93691" lon="4.77794">
        <ele>169</ele>
        <time>2018-04-14T08:55:18Z</time>
      </trkpt>
      <trkpt lat="45.93694" lon="4.77799">
        <ele>169</ele>
        <time>2018-04-14T08:55:19Z</time>
      </trkpt>
      <trkpt lat="45.93698" lon="4.77805">
        <ele>169</ele>
        <time>2018-04-14T08:55:20Z</time>
      </trkpt>
      <trkpt lat="45.93704" lon="4.77813">
        <ele>169</ele>
        <time>2018-04-14T08:55:22Z</time>
      </trkpt>
      <trkpt lat="45.93708" lon="4.77818">
        <ele>169</ele>
        <time>2018-04-14T08:55:23Z</time>
      </trkpt>
      <trkpt lat="45.93711" lon="4.77822">
        <ele>169</ele>
        <time>2018-04-14T08:55:24Z</time>
      </trkpt>
      <trkpt lat="45.93716" lon="4.77829">
        <ele>169</ele>
        <time>2018-04-14T08:55:25Z</time>
      </trkpt>
      <trkpt lat="45.93722" lon="4.77836">
        <ele>167</ele>
        <time>2018-04-14T08:55:27Z</time>
      </trkpt>
      <trkpt lat="45.93726" lon="4.7784">
        <ele>167</ele>
        <time>2018-04-14T08:55:28Z</time>
      </trkpt>
      <trkpt lat="45.93731" lon="4.77848">
        <ele>167</ele>
        <time>2018-04-14T08:55:30Z</time>
      </trkpt>
      <trkpt lat="45.93733" lon="4.77852">
        <ele>167</ele>
        <time>2018-04-14T08:55:31Z</time>
      </trkpt>
      <trkpt lat="45.93737" lon="4.77856">
        <ele>167</ele>
        <time>2018-04-14T08:55:32Z</time>
      </trkpt>
      <trkpt lat="45.9374" lon="4.7786">
        <ele>167</ele>
        <time>2018-04-14T08:55:33Z</time>
      </trkpt>
      <trkpt lat="45.93745" lon="4.77867">
        <ele>167</ele>
        <time>2018-04-14T08:55:34Z</time>
      </trkpt>
      <trkpt lat="45.93748" lon="4.7787">
        <ele>167</ele>
        <time>2018-04-14T08:55:35Z</time>
      </trkpt>
      <trkpt lat="45.93754" lon="4.77878">
        <ele>166</ele>
        <time>2018-04-14T08:55:37Z</time>
      </trkpt>
      <trkpt lat="45.93757" lon="4.77883">
        <ele>166</ele>
        <time>2018-04-14T08:55:38Z</time>
      </trkpt>
      <trkpt lat="45.93763" lon="4.77891">
        <ele>166</ele>
        <time>2018-04-14T08:55:40Z</time>
      </trkpt>
      <trkpt lat="45.93767" lon="4.77895">
        <ele>166</ele>
        <time>2018-04-14T08:55:41Z</time>
      </trkpt>
      <trkpt lat="45.9377" lon="4.77899">
        <ele>166</ele>
        <time>2018-04-14T08:55:42Z</time>
      </trkpt>
      <trkpt lat="45.93773" lon="4.77904">
        <ele>166</ele>
        <time>2018-04-14T08:55:43Z</time>
      </trkpt>
      <trkpt lat="45.9378" lon="4.77912">
        <ele>166</ele>
        <time>2018-04-14T08:55:45Z</time>
      </trkpt>
      <trkpt lat="45.93783" lon="4.77916">
        <ele>166</ele>
        <time>2018-04-14T08:55:46Z</time>
      </trkpt>
      <trkpt lat="45.93789" lon="4.77924">
        <ele>168</ele>
        <time>2018-04-14T08:55:48Z</time>
      </trkpt>
      <trkpt lat="45.93792" lon="4.77928">
        <ele>168</ele>
        <time>2018-04-14T08:55:49Z</time>
      </trkpt>
      <trkpt lat="45.93795" lon="4.77933">
        <ele>168</ele>
        <time>2018-04-14T08:55:50Z</time>
      </trkpt>
      <trkpt lat="45.93799" lon="4.77938">
        <ele>169</ele>
        <time>2018-04-14T08:55:51Z</time>
      </trkpt>
      <trkpt lat="45.93802" lon="4.77942">
        <ele>169</ele>
        <time>2018-04-14T08:55:52Z</time>
      </trkpt>
      <trkpt lat="45.93806" lon="4.77947">
        <ele>169</ele>
        <time>2018-04-14T08:55:53Z</time>
      </trkpt>
      <trkpt lat="45.9381" lon="4.77953">
        <ele>170</ele>
        <time>2018-04-14T08:55:54Z</time>
      </trkpt>
      <trkpt lat="45.93814" lon="4.77957">
        <ele>170</ele>
        <time>2018-04-14T08:55:55Z</time>
      </trkpt>
      <trkpt lat="45.93818" lon="4.77962">
        <ele>171</ele>
        <time>2018-04-14T08:55:56Z</time>
      </trkpt>
      <trkpt lat="45.93822" lon="4.77967">
        <ele>171</ele>
        <time>2018-04-14T08:55:57Z</time>
      </trkpt>
      <trkpt lat="45.93826" lon="4.77973">
        <ele>172</ele>
        <time>2018-04-14T08:55:58Z</time>
      </trkpt>
      <trkpt lat="45.9383" lon="4.77979">
        <ele>173</ele>
        <time>2018-04-14T08:55:59Z</time>
      </trkpt>
      <trkpt lat="45.93834" lon="4.77985">
        <ele>178</ele>
        <time>2018-04-14T08:56:00Z</time>
      </trkpt>
      <trkpt lat="45.93837" lon="4.77991">
        <ele>179</ele>
        <time>2018-04-14T08:56:01Z</time>
      </trkpt>
      <trkpt lat="45.93839" lon="4.77997">
        <ele>179</ele>
        <time>2018-04-14T08:56:02Z</time>
      </trkpt>
      <trkpt lat="45.93841" lon="4.78005">
        <ele>180</ele>
        <time>2018-04-14T08:56:03Z</time>
      </trkpt>
      <trkpt lat="45.93842" lon="4.78014">
        <ele>181</ele>
        <time>2018-04-14T08:56:04Z</time>
      </trkpt>
      <trkpt lat="45.93844" lon="4.78023">
        <ele>182</ele>
        <time>2018-04-14T08:56:05Z</time>
      </trkpt>
      <trkpt lat="45.93844" lon="4.78031">
        <ele>182</ele>
        <time>2018-04-14T08:56:06Z</time>
      </trkpt>
      <trkpt lat="45.93846" lon="4.78038">
        <ele>182</ele>
        <time>2018-04-14T08:56:07Z</time>
      </trkpt>
      <trkpt lat="45.93847" lon="4.78051">
        <ele>183</ele>
        <time>2018-04-14T08:56:09Z</time>
      </trkpt>
      <trkpt lat="45.93847" lon="4.78057">
        <ele>182</ele>
        <time>2018-04-14T08:56:10Z</time>
      </trkpt>
      <trkpt lat="45.93844" lon="4.78067">
        <ele>182</ele>
        <time>2018-04-14T08:56:12Z</time>
      </trkpt>
      <trkpt lat="45.93843" lon="4.78073">
        <ele>182</ele>
        <time>2018-04-14T08:56:13Z</time>
      </trkpt>
      <trkpt lat="45.93842" lon="4.78086">
        <ele>182</ele>
        <time>2018-04-14T08:56:15Z</time>
      </trkpt>
      <trkpt lat="45.93841" lon="4.78091">
        <ele>182</ele>
        <time>2018-04-14T08:56:16Z</time>
      </trkpt>
      <trkpt lat="45.93839" lon="4.78097">
        <ele>183</ele>
        <time>2018-04-14T08:56:17Z</time>
      </trkpt>
      <trkpt lat="45.93837" lon="4.78104">
        <ele>183</ele>
        <time>2018-04-14T08:56:18Z</time>
      </trkpt>
      <trkpt lat="45.93836" lon="4.78111">
        <ele>184</ele>
        <time>2018-04-14T08:56:19Z</time>
      </trkpt>
      <trkpt lat="45.93834" lon="4.78118">
        <ele>184</ele>
        <time>2018-04-14T08:56:20Z</time>
      </trkpt>
      <trkpt lat="45.93829" lon="4.78125">
        <ele>180</ele>
        <time>2018-04-14T08:56:22Z</time>
      </trkpt>
      <trkpt lat="45.93828" lon="4.78132">
        <ele>180</ele>
        <time>2018-04-14T08:56:23Z</time>
      </trkpt>
      <trkpt lat="45.93825" lon="4.78143">
        <ele>180</ele>
        <time>2018-04-14T08:56:25Z</time>
      </trkpt>
      <trkpt lat="45.93823" lon="4.7815">
        <ele>180</ele>
        <time>2018-04-14T08:56:26Z</time>
      </trkpt>
      <trkpt lat="45.93821" lon="4.78156">
        <ele>180</ele>
        <time>2018-04-14T08:56:27Z</time>
      </trkpt>
      <trkpt lat="45.93819" lon="4.78166">
        <ele>181</ele>
        <time>2018-04-14T08:56:28Z</time>
      </trkpt>
      <trkpt lat="45.93817" lon="4.78173">
        <ele>182</ele>
        <time>2018-04-14T08:56:29Z</time>
      </trkpt>
      <trkpt lat="45.93816" lon="4.78179">
        <ele>182</ele>
        <time>2018-04-14T08:56:30Z</time>
      </trkpt>
      <trkpt lat="45.93813" lon="4.78189">
        <ele>182</ele>
        <time>2018-04-14T08:56:32Z</time>
      </trkpt>
      <trkpt lat="45.93812" lon="4.78196">
        <ele>182</ele>
        <time>2018-04-14T08:56:33Z</time>
      </trkpt>
      <trkpt lat="45.9381" lon="4.78203">
        <ele>182</ele>
        <time>2018-04-14T08:56:34Z</time>
      </trkpt>
      <trkpt lat="45.93809" lon="4.78209">
        <ele>182</ele>
        <time>2018-04-14T08:56:35Z</time>
      </trkpt>
      <trkpt lat="45.93806" lon="4.78215">
        <ele>182</ele>
        <time>2018-04-14T08:56:36Z</time>
      </trkpt>
      <trkpt lat="45.93805" lon="4.78221">
        <ele>182</ele>
        <time>2018-04-14T08:56:37Z</time>
      </trkpt>
      <trkpt lat="45.93801" lon="4.78229">
        <ele>182</ele>
        <time>2018-04-14T08:56:39Z</time>
      </trkpt>
      <trkpt lat="45.93798" lon="4.78235">
        <ele>182</ele>
        <time>2018-04-14T08:56:40Z</time>
      </trkpt>
      <trkpt lat="45.93795" lon="4.78241">
        <ele>182</ele>
        <time>2018-04-14T08:56:41Z</time>
      </trkpt>
      <trkpt lat="45.93795" lon="4.78247">
        <ele>182</ele>
        <time>2018-04-14T08:56:42Z</time>
      </trkpt>
      <trkpt lat="45.93793" lon="4.78256">
        <ele>183</ele>
        <time>2018-04-14T08:56:43Z</time>
      </trkpt>
      <trkpt lat="45.93793" lon="4.78262">
        <ele>183</ele>
        <time>2018-04-14T08:56:44Z</time>
      </trkpt>
      <trkpt lat="45.93791" lon="4.78268">
        <ele>183</ele>
        <time>2018-04-14T08:56:45Z</time>
      </trkpt>
      <trkpt lat="45.93787" lon="4.78275">
        <ele>183</ele>
        <time>2018-04-14T08:56:46Z</time>
      </trkpt>
      <trkpt lat="45.93785" lon="4.78281">
        <ele>183</ele>
        <time>2018-04-14T08:56:47Z</time>
      </trkpt>
      <trkpt lat="45.93783" lon="4.78287">
        <ele>183</ele>
        <time>2018-04-14T08:56:48Z</time>
      </trkpt>
      <trkpt lat="45.93783" lon="4.783">
        <ele>183</ele>
        <time>2018-04-14T08:56:50Z</time>
      </trkpt>
      <trkpt lat="45.93781" lon="4.78308">
        <ele>183</ele>
        <time>2018-04-14T08:56:51Z</time>
      </trkpt>
      <trkpt lat="45.93777" lon="4.78319">
        <ele>183</ele>
        <time>2018-04-14T08:56:53Z</time>
      </trkpt>
      <trkpt lat="45.93777" lon="4.78329">
        <ele>183</ele>
        <time>2018-04-14T08:56:54Z</time>
      </trkpt>
      <trkpt lat="45.93775" lon="4.78336">
        <ele>183</ele>
        <time>2018-04-14T08:56:55Z</time>
      </trkpt>
      <trkpt lat="45.93772" lon="4.78342">
        <ele>183</ele>
        <time>2018-04-14T08:56:56Z</time>
      </trkpt>
      <trkpt lat="45.9377" lon="4.78348">
        <ele>183</ele>
        <time>2018-04-14T08:56:57Z</time>
      </trkpt>
      <trkpt lat="45.93768" lon="4.78354">
        <ele>183</ele>
        <time>2018-04-14T08:56:58Z</time>
      </trkpt>
      <trkpt lat="45.93766" lon="4.78361">
        <ele>183</ele>
        <time>2018-04-14T08:56:59Z</time>
      </trkpt>
      <trkpt lat="45.93764" lon="4.78367">
        <ele>183</ele>
        <time>2018-04-14T08:57:00Z</time>
      </trkpt>
      <trkpt lat="45.93763" lon="4.78374">
        <ele>183</ele>
        <time>2018-04-14T08:57:01Z</time>
      </trkpt>
      <trkpt lat="45.93761" lon="4.78381">
        <ele>183</ele>
        <time>2018-04-14T08:57:02Z</time>
      </trkpt>
      <trkpt lat="45.93759" lon="4.78388">
        <ele>183</ele>
        <time>2018-04-14T08:57:03Z</time>
      </trkpt>
      <trkpt lat="45.93757" lon="4.78396">
        <ele>183</ele>
        <time>2018-04-14T08:57:04Z</time>
      </trkpt>
      <trkpt lat="45.93756" lon="4.78404">
        <ele>182</ele>
        <time>2018-04-14T08:57:05Z</time>
      </trkpt>
      <trkpt lat="45.93754" lon="4.7841">
        <ele>182</ele>
        <time>2018-04-14T08:57:06Z</time>
      </trkpt>
      <trkpt lat="45.93751" lon="4.78418">
        <ele>181</ele>
        <time>2018-04-14T08:57:07Z</time>
      </trkpt>
      <trkpt lat="45.9375" lon="4.78426">
        <ele>181</ele>
        <time>2018-04-14T08:57:08Z</time>
      </trkpt>
      <trkpt lat="45.93748" lon="4.78433">
        <ele>180</ele>
        <time>2018-04-14T08:57:09Z</time>
      </trkpt>
      <trkpt lat="45.93746" lon="4.78441">
        <ele>180</ele>
        <time>2018-04-14T08:57:10Z</time>
      </trkpt>
      <trkpt lat="45.93744" lon="4.78449">
        <ele>180</ele>
        <time>2018-04-14T08:57:11Z</time>
      </trkpt>
      <trkpt lat="45.93742" lon="4.78456">
        <ele>180</ele>
        <time>2018-04-14T08:57:12Z</time>
      </trkpt>
      <trkpt lat="45.93739" lon="4.78464">
        <ele>180</ele>
        <time>2018-04-14T08:57:13Z</time>
      </trkpt>
      <trkpt lat="45.93737" lon="4.78471">
        <ele>180</ele>
        <time>2018-04-14T08:57:14Z</time>
      </trkpt>
      <trkpt lat="45.9373" lon="4.78468">
        <ele>180</ele>
        <time>2018-04-14T08:57:15Z</time>
      </trkpt>
      <trkpt lat="45.93728" lon="4.78476">
        <ele>180</ele>
        <time>2018-04-14T08:57:16Z</time>
      </trkpt>
      <trkpt lat="45.93725" lon="4.78488">
        <ele>180</ele>
        <time>2018-04-14T08:57:17Z</time>
      </trkpt>
      <trkpt lat="45.93722" lon="4.78496">
        <ele>180</ele>
        <time>2018-04-14T08:57:18Z</time>
      </trkpt>
      <trkpt lat="45.9372" lon="4.78503">
        <ele>179</ele>
        <time>2018-04-14T08:57:19Z</time>
      </trkpt>
      <trkpt lat="45.93718" lon="4.78511">
        <ele>179</ele>
        <time>2018-04-14T08:57:20Z</time>
      </trkpt>
      <trkpt lat="45.93716" lon="4.78519">
        <ele>178</ele>
        <time>2018-04-14T08:57:21Z</time>
      </trkpt>
      <trkpt lat="45.93714" lon="4.78527">
        <ele>178</ele>
        <time>2018-04-14T08:57:22Z</time>
      </trkpt>
      <trkpt lat="45.93711" lon="4.78535">
        <ele>178</ele>
        <time>2018-04-14T08:57:23Z</time>
      </trkpt>
      <trkpt lat="45.9371" lon="4.78544">
        <ele>178</ele>
        <time>2018-04-14T08:57:24Z</time>
      </trkpt>
      <trkpt lat="45.93708" lon="4.78554">
        <ele>178</ele>
        <time>2018-04-14T08:57:25Z</time>
      </trkpt>
      <trkpt lat="45.93705" lon="4.78562">
        <ele>177</ele>
        <time>2018-04-14T08:57:26Z</time>
      </trkpt>
      <trkpt lat="45.93702" lon="4.78569">
        <ele>177</ele>
        <time>2018-04-14T08:57:27Z</time>
      </trkpt>
      <trkpt lat="45.937" lon="4.78577">
        <ele>177</ele>
        <time>2018-04-14T08:57:28Z</time>
      </trkpt>
      <trkpt lat="45.93698" lon="4.78584">
        <ele>176</ele>
        <time>2018-04-14T08:57:29Z</time>
      </trkpt>
      <trkpt lat="45.93696" lon="4.7859">
        <ele>176</ele>
        <time>2018-04-14T08:57:30Z</time>
      </trkpt>
      <trkpt lat="45.93694" lon="4.78597">
        <ele>176</ele>
        <time>2018-04-14T08:57:31Z</time>
      </trkpt>
      <trkpt lat="45.93693" lon="4.78605">
        <ele>176</ele>
        <time>2018-04-14T08:57:32Z</time>
      </trkpt>
      <trkpt lat="45.93692" lon="4.78612">
        <ele>176</ele>
        <time>2018-04-14T08:57:33Z</time>
      </trkpt>
      <trkpt lat="45.93694" lon="4.78618">
        <ele>176</ele>
        <time>2018-04-14T08:57:34Z</time>
      </trkpt>
      <trkpt lat="45.93697" lon="4.78623">
        <ele>176</ele>
        <time>2018-04-14T08:57:35Z</time>
      </trkpt>
      <trkpt lat="45.93702" lon="4.78627">
        <ele>176</ele>
        <time>2018-04-14T08:57:36Z</time>
      </trkpt>
      <trkpt lat="45.93707" lon="4.78629">
        <ele>176</ele>
        <time>2018-04-14T08:57:37Z</time>
      </trkpt>
      <trkpt lat="45.93715" lon="4.78626">
        <ele>176</ele>
        <time>2018-04-14T08:57:39Z</time>
      </trkpt>
      <trkpt lat="45.93719" lon="4.78626">
        <ele>177</ele>
        <time>2018-04-14T08:57:40Z</time>
      </trkpt>
      <trkpt lat="45.93724" lon="4.78627">
        <ele>177</ele>
        <time>2018-04-14T08:57:41Z</time>
      </trkpt>
      <trkpt lat="45.93728" lon="4.78628">
        <ele>177</ele>
        <time>2018-04-14T08:57:42Z</time>
      </trkpt>
      <trkpt lat="45.93736" lon="4.78627">
        <ele>177</ele>
        <time>2018-04-14T08:57:45Z</time>
      </trkpt>
      <trkpt lat="45.93739" lon="4.78626">
        <ele>177</ele>
        <time>2018-04-14T08:57:46Z</time>
      </trkpt>
      <trkpt lat="45.93747" lon="4.78623">
        <ele>177</ele>
        <time>2018-04-14T08:57:47Z</time>
      </trkpt>
      <trkpt lat="45.93749" lon="4.78622">
        <ele>177</ele>
        <time>2018-04-14T08:57:48Z</time>
      </trkpt>
      <trkpt lat="45.93757" lon="4.7862">
        <ele>181</ele>
        <time>2018-04-14T08:57:50Z</time>
      </trkpt>
      <trkpt lat="45.93759" lon="4.78619">
        <ele>181</ele>
        <time>2018-04-14T08:57:51Z</time>
      </trkpt>
      <trkpt lat="45.93765" lon="4.78618">
        <ele>181</ele>
        <time>2018-04-14T08:57:54Z</time>
      </trkpt>
      <trkpt lat="45.93769" lon="4.78617">
        <ele>181</ele>
        <time>2018-04-14T08:57:55Z</time>
      </trkpt>
      <trkpt lat="45.93775" lon="4.78615">
        <ele>181</ele>
        <time>2018-04-14T08:57:57Z</time>
      </trkpt>
      <trkpt lat="45.93778" lon="4.78614">
        <ele>181</ele>
        <time>2018-04-14T08:57:58Z</time>
      </trkpt>
      <trkpt lat="45.93787" lon="4.78612">
        <ele>182</ele>
        <time>2018-04-14T08:58:01Z</time>
      </trkpt>
      <trkpt lat="45.93796" lon="4.78609">
        <ele>182</ele>
        <time>2018-04-14T08:58:02Z</time>
      </trkpt>
      <trkpt lat="45.93804" lon="4.78608">
        <ele>183</ele>
        <time>2018-04-14T08:58:04Z</time>
      </trkpt>
      <trkpt lat="45.93808" lon="4.78606">
        <ele>183</ele>
        <time>2018-04-14T08:58:05Z</time>
      </trkpt>
      <trkpt lat="45.93816" lon="4.78605">
        <ele>183</ele>
        <time>2018-04-14T08:58:09Z</time>
      </trkpt>
      <trkpt lat="45.93819" lon="4.78605">
        <ele>184</ele>
        <time>2018-04-14T08:58:10Z</time>
      </trkpt>
      <trkpt lat="45.93826" lon="4.78602">
        <ele>184</ele>
        <time>2018-04-14T08:58:13Z</time>
      </trkpt>
      <trkpt lat="45.93829" lon="4.78602">
        <ele>184</ele>
        <time>2018-04-14T08:58:14Z</time>
      </trkpt>
      <trkpt lat="45.93836" lon="4.786">
        <ele>187</ele>
        <time>2018-04-14T08:58:17Z</time>
      </trkpt>
      <trkpt lat="45.93839" lon="4.78599">
        <ele>187</ele>
        <time>2018-04-14T08:58:18Z</time>
      </trkpt>
      <trkpt lat="45.93846" lon="4.78595">
        <ele>188</ele>
        <time>2018-04-14T08:58:21Z</time>
      </trkpt>
      <trkpt lat="45.93849" lon="4.78594">
        <ele>188</ele>
        <time>2018-04-14T08:58:22Z</time>
      </trkpt>
      <trkpt lat="45.93857" lon="4.78593">
        <ele>188</ele>
        <time>2018-04-14T08:58:26Z</time>
      </trkpt>
      <trkpt lat="45.93859" lon="4.78592">
        <ele>188</ele>
        <time>2018-04-14T08:58:27Z</time>
      </trkpt>
      <trkpt lat="45.93866" lon="4.78593">
        <ele>188</ele>
        <time>2018-04-14T08:58:31Z</time>
      </trkpt>
      <trkpt lat="45.93868" lon="4.78593">
        <ele>188</ele>
        <time>2018-04-14T08:58:32Z</time>
      </trkpt>
      <trkpt lat="45.93876" lon="4.7859">
        <ele>189</ele>
        <time>2018-04-14T08:58:36Z</time>
      </trkpt>
      <trkpt lat="45.93878" lon="4.78589">
        <ele>189</ele>
        <time>2018-04-14T08:58:37Z</time>
      </trkpt>
      <trkpt lat="45.93885" lon="4.78585">
        <ele>190</ele>
        <time>2018-04-14T08:58:41Z</time>
      </trkpt>
      <trkpt lat="45.93887" lon="4.78585">
        <ele>190</ele>
        <time>2018-04-14T08:58:42Z</time>
      </trkpt>
      <trkpt lat="45.93895" lon="4.78583">
        <ele>192</ele>
        <time>2018-04-14T08:58:47Z</time>
      </trkpt>
      <trkpt lat="45.93897" lon="4.78583">
        <ele>192</ele>
        <time>2018-04-14T08:58:48Z</time>
      </trkpt>
      <trkpt lat="45.93906" lon="4.78582">
        <ele>192</ele>
        <time>2018-04-14T08:58:54Z</time>
      </trkpt>
      <trkpt lat="45.93907" lon="4.78581">
        <ele>192</ele>
        <time>2018-04-14T08:58:55Z</time>
      </trkpt>
      <trkpt lat="45.93915" lon="4.7858">
        <ele>193</ele>
        <time>2018-04-14T08:59:00Z</time>
      </trkpt>
      <trkpt lat="45.93916" lon="4.78578">
        <ele>193</ele>
        <time>2018-04-14T08:59:01Z</time>
      </trkpt>
      <trkpt lat="45.93924" lon="4.78575">
        <ele>195</ele>
        <time>2018-04-14T08:59:07Z</time>
      </trkpt>
      <trkpt lat="45.93926" lon="4.78576">
        <ele>195</ele>
        <time>2018-04-14T08:59:08Z</time>
      </trkpt>
      <trkpt lat="45.9393" lon="4.78585">
        <ele>195</ele>
        <time>2018-04-14T08:59:13Z</time>
      </trkpt>
      <trkpt lat="45.9393" lon="4.78589">
        <ele>195</ele>
        <time>2018-04-14T08:59:14Z</time>
      </trkpt>
      <trkpt lat="45.9393" lon="4.78601">
        <ele>195</ele>
        <time>2018-04-14T08:59:17Z</time>
      </trkpt>
      <trkpt lat="45.9393" lon="4.78606">
        <ele>195</ele>
        <time>2018-04-14T08:59:18Z</time>
      </trkpt>
      <trkpt lat="45.9393" lon="4.78615">
        <ele>195</ele>
        <time>2018-04-14T08:59:20Z</time>
      </trkpt>
      <trkpt lat="45.9393" lon="4.78619">
        <ele>195</ele>
        <time>2018-04-14T08:59:21Z</time>
      </trkpt>
      <trkpt lat="45.9393" lon="4.78632">
        <ele>195</ele>
        <time>2018-04-14T08:59:24Z</time>
      </trkpt>
      <trkpt lat="45.9393" lon="4.78636">
        <ele>195</ele>
        <time>2018-04-14T08:59:25Z</time>
      </trkpt>
      <trkpt lat="45.9393" lon="4.7864">
        <ele>195</ele>
        <time>2018-04-14T08:59:26Z</time>
      </trkpt>
      <trkpt lat="45.93931" lon="4.78652">
        <ele>194</ele>
        <time>2018-04-14T08:59:27Z</time>
      </trkpt>
      <trkpt lat="45.93931" lon="4.78663">
        <ele>193</ele>
        <time>2018-04-14T08:59:29Z</time>
      </trkpt>
      <trkpt lat="45.93931" lon="4.78669">
        <ele>192</ele>
        <time>2018-04-14T08:59:30Z</time>
      </trkpt>
      <trkpt lat="45.9393" lon="4.78681">
        <ele>193</ele>
        <time>2018-04-14T08:59:32Z</time>
      </trkpt>
      <trkpt lat="45.93931" lon="4.78687">
        <ele>193</ele>
        <time>2018-04-14T08:59:33Z</time>
      </trkpt>
      <trkpt lat="45.93932" lon="4.78699">
        <ele>194</ele>
        <time>2018-04-14T08:59:35Z</time>
      </trkpt>
      <trkpt lat="45.93932" lon="4.78705">
        <ele>194</ele>
        <time>2018-04-14T08:59:36Z</time>
      </trkpt>
      <trkpt lat="45.93932" lon="4.78717">
        <ele>194</ele>
        <time>2018-04-14T08:59:38Z</time>
      </trkpt>
      <trkpt lat="45.93932" lon="4.78723">
        <ele>193</ele>
        <time>2018-04-14T08:59:39Z</time>
      </trkpt>
      <trkpt lat="45.93931" lon="4.78735">
        <ele>193</ele>
        <time>2018-04-14T08:59:41Z</time>
      </trkpt>
      <trkpt lat="45.93931" lon="4.78741">
        <ele>193</ele>
        <time>2018-04-14T08:59:42Z</time>
      </trkpt>
      <trkpt lat="45.93931" lon="4.78753">
        <ele>192</ele>
        <time>2018-04-14T08:59:44Z</time>
      </trkpt>
      <trkpt lat="45.93931" lon="4.7876">
        <ele>193</ele>
        <time>2018-04-14T08:59:45Z</time>
      </trkpt>
      <trkpt lat="45.93931" lon="4.78772">
        <ele>193</ele>
        <time>2018-04-14T08:59:47Z</time>
      </trkpt>
      <trkpt lat="45.93931" lon="4.78778">
        <ele>193</ele>
        <time>2018-04-14T08:59:48Z</time>
      </trkpt>
      <trkpt lat="45.93931" lon="4.78785">
        <ele>194</ele>
        <time>2018-04-14T08:59:49Z</time>
      </trkpt>
      <trkpt lat="45.93931" lon="4.78792">
        <ele>194</ele>
        <time>2018-04-14T08:59:50Z</time>
      </trkpt>
      <trkpt lat="45.93931" lon="4.78804">
        <ele>194</ele>
        <time>2018-04-14T08:59:52Z</time>
      </trkpt>
      <trkpt lat="45.93932" lon="4.78811">
        <ele>193</ele>
        <time>2018-04-14T08:59:53Z</time>
      </trkpt>
      <trkpt lat="45.93932" lon="4.78818">
        <ele>193</ele>
        <time>2018-04-14T08:59:54Z</time>
      </trkpt>
      <trkpt lat="45.93932" lon="4.78825">
        <ele>193</ele>
        <time>2018-04-14T08:59:55Z</time>
      </trkpt>
      <trkpt lat="45.93933" lon="4.78833">
        <ele>193</ele>
        <time>2018-04-14T08:59:56Z</time>
      </trkpt>
      <trkpt lat="45.93933" lon="4.78839">
        <ele>193</ele>
        <time>2018-04-14T08:59:57Z</time>
      </trkpt>
      <trkpt lat="45.93934" lon="4.7885">
        <ele>193</ele>
        <time>2018-04-14T08:59:59Z</time>
      </trkpt>
      <trkpt lat="45.93934" lon="4.78856">
        <ele>193</ele>
        <time>2018-04-14T09:00:00Z</time>
      </trkpt>
      <trkpt lat="45.93934" lon="4.78867">
        <ele>193</ele>
        <time>2018-04-14T09:00:02Z</time>
      </trkpt>
      <trkpt lat="45.93934" lon="4.78873">
        <ele>193</ele>
        <time>2018-04-14T09:00:03Z</time>
      </trkpt>
      <trkpt lat="45.93935" lon="4.78883">
        <ele>193</ele>
        <time>2018-04-14T09:00:05Z</time>
      </trkpt>
      <trkpt lat="45.93935" lon="4.78886">
        <ele>193</ele>
        <time>2018-04-14T09:00:06Z</time>
      </trkpt>
      <trkpt lat="45.93934" lon="4.78898">
        <ele>193</ele>
        <time>2018-04-14T09:00:09Z</time>
      </trkpt>
      <trkpt lat="45.93934" lon="4.78902">
        <ele>193</ele>
        <time>2018-04-14T09:00:10Z</time>
      </trkpt>
      <trkpt lat="45.93935" lon="4.78915">
        <ele>192</ele>
        <time>2018-04-14T09:00:11Z</time>
      </trkpt>
      <trkpt lat="45.93935" lon="4.78925">
        <ele>193</ele>
        <time>2018-04-14T09:00:13Z</time>
      </trkpt>
      <trkpt lat="45.93935" lon="4.7893">
        <ele>193</ele>
        <time>2018-04-14T09:00:14Z</time>
      </trkpt>
      <trkpt lat="45.93936" lon="4.78941">
        <ele>193</ele>
        <time>2018-04-14T09:00:16Z</time>
      </trkpt>
      <trkpt lat="45.93936" lon="4.78947">
        <ele>193</ele>
        <time>2018-04-14T09:00:17Z</time>
      </trkpt>
      <trkpt lat="45.93936" lon="4.78957">
        <ele>194</ele>
        <time>2018-04-14T09:00:19Z</time>
      </trkpt>
      <trkpt lat="45.93936" lon="4.7896">
        <ele>194</ele>
        <time>2018-04-14T09:00:20Z</time>
      </trkpt>
      <trkpt lat="45.93937" lon="4.78972">
        <ele>194</ele>
        <time>2018-04-14T09:00:22Z</time>
      </trkpt>
      <trkpt lat="45.93938" lon="4.78977">
        <ele>193</ele>
        <time>2018-04-14T09:00:23Z</time>
      </trkpt>
      <trkpt lat="45.93939" lon="4.78987">
        <ele>193</ele>
        <time>2018-04-14T09:00:25Z</time>
      </trkpt>
      <trkpt lat="45.93939" lon="4.78992">
        <ele>193</ele>
        <time>2018-04-14T09:00:26Z</time>
      </trkpt>
      <trkpt lat="45.93938" lon="4.79005">
        <ele>194</ele>
        <time>2018-04-14T09:00:29Z</time>
      </trkpt>
      <trkpt lat="45.93938" lon="4.79013">
        <ele>194</ele>
        <time>2018-04-14T09:00:30Z</time>
      </trkpt>
      <trkpt lat="45.93939" lon="4.79024">
        <ele>195</ele>
        <time>2018-04-14T09:00:32Z</time>
      </trkpt>
      <trkpt lat="45.93939" lon="4.79029">
        <ele>195</ele>
        <time>2018-04-14T09:00:33Z</time>
      </trkpt>
      <trkpt lat="45.93939" lon="4.7904">
        <ele>195</ele>
        <time>2018-04-14T09:00:35Z</time>
      </trkpt>
      <trkpt lat="45.93939" lon="4.79043">
        <ele>195</ele>
        <time>2018-04-14T09:00:36Z</time>
      </trkpt>
      <trkpt lat="45.93939" lon="4.7905">
        <ele>195</ele>
        <time>2018-04-14T09:00:37Z</time>
      </trkpt>
      <trkpt lat="45.93939" lon="4.79056">
        <ele>195</ele>
        <time>2018-04-14T09:00:38Z</time>
      </trkpt>
      <trkpt lat="45.93939" lon="4.79067">
        <ele>195</ele>
        <time>2018-04-14T09:00:40Z</time>
      </trkpt>
      <trkpt lat="45.93939" lon="4.79069">
        <ele>195</ele>
        <time>2018-04-14T09:00:41Z</time>
      </trkpt>
      <trkpt lat="45.9394" lon="4.79082">
        <ele>195</ele>
        <time>2018-04-14T09:00:43Z</time>
      </trkpt>
      <trkpt lat="45.9394" lon="4.79087">
        <ele>195</ele>
        <time>2018-04-14T09:00:44Z</time>
      </trkpt>
      <trkpt lat="45.93941" lon="4.79098">
        <ele>196</ele>
        <time>2018-04-14T09:00:47Z</time>
      </trkpt>
      <trkpt lat="45.93941" lon="4.79102">
        <ele>196</ele>
        <time>2018-04-14T09:00:48Z</time>
      </trkpt>
      <trkpt lat="45.93941" lon="4.79112">
        <ele>196</ele>
        <time>2018-04-14T09:00:49Z</time>
      </trkpt>
      <trkpt lat="45.93942" lon="4.79118">
        <ele>196</ele>
        <time>2018-04-14T09:00:50Z</time>
      </trkpt>
      <trkpt lat="45.93942" lon="4.79128">
        <ele>196</ele>
        <time>2018-04-14T09:00:52Z</time>
      </trkpt>
      <trkpt lat="45.93943" lon="4.79133">
        <ele>196</ele>
        <time>2018-04-14T09:00:53Z</time>
      </trkpt>
      <trkpt lat="45.93944" lon="4.79143">
        <ele>196</ele>
        <time>2018-04-14T09:00:55Z</time>
      </trkpt>
      <trkpt lat="45.93944" lon="4.79149">
        <ele>196</ele>
        <time>2018-04-14T09:00:56Z</time>
      </trkpt>
      <trkpt lat="45.93945" lon="4.7916">
        <ele>196</ele>
        <time>2018-04-14T09:00:58Z</time>
      </trkpt>
      <trkpt lat="45.93945" lon="4.79166">
        <ele>196</ele>
        <time>2018-04-14T09:00:59Z</time>
      </trkpt>
      <trkpt lat="45.93945" lon="4.79178">
        <ele>196</ele>
        <time>2018-04-14T09:01:01Z</time>
      </trkpt>
      <trkpt lat="45.93944" lon="4.79183">
        <ele>196</ele>
        <time>2018-04-14T09:01:02Z</time>
      </trkpt>
      <trkpt lat="45.93945" lon="4.79191">
        <ele>196</ele>
        <time>2018-04-14T09:01:03Z</time>
      </trkpt>
      <trkpt lat="45.93945" lon="4.79198">
        <ele>197</ele>
        <time>2018-04-14T09:01:04Z</time>
      </trkpt>
      <trkpt lat="45.93945" lon="4.79209">
        <ele>197</ele>
        <time>2018-04-14T09:01:06Z</time>
      </trkpt>
      <trkpt lat="45.93945" lon="4.79215">
        <ele>197</ele>
        <time>2018-04-14T09:01:07Z</time>
      </trkpt>
      <trkpt lat="45.93945" lon="4.79221">
        <ele>197</ele>
        <time>2018-04-14T09:01:08Z</time>
      </trkpt>
      <trkpt lat="45.93945" lon="4.79229">
        <ele>196</ele>
        <time>2018-04-14T09:01:09Z</time>
      </trkpt>
      <trkpt lat="45.93946" lon="4.7924">
        <ele>196</ele>
        <time>2018-04-14T09:01:11Z</time>
      </trkpt>
      <trkpt lat="45.93946" lon="4.79247">
        <ele>196</ele>
        <time>2018-04-14T09:01:12Z</time>
      </trkpt>
      <trkpt lat="45.93946" lon="4.79258">
        <ele>197</ele>
        <time>2018-04-14T09:01:14Z</time>
      </trkpt>
      <trkpt lat="45.93945" lon="4.79265">
        <ele>197</ele>
        <time>2018-04-14T09:01:15Z</time>
      </trkpt>
      <trkpt lat="45.93946" lon="4.79277">
        <ele>198</ele>
        <time>2018-04-14T09:01:17Z</time>
      </trkpt>
      <trkpt lat="45.93946" lon="4.79283">
        <ele>198</ele>
        <time>2018-04-14T09:01:18Z</time>
      </trkpt>
      <trkpt lat="45.93946" lon="4.79295">
        <ele>198</ele>
        <time>2018-04-14T09:01:20Z</time>
      </trkpt>
      <trkpt lat="45.93946" lon="4.79301">
        <ele>198</ele>
        <time>2018-04-14T09:01:21Z</time>
      </trkpt>
      <trkpt lat="45.93947" lon="4.79313">
        <ele>198</ele>
        <time>2018-04-14T09:01:23Z</time>
      </trkpt>
      <trkpt lat="45.93947" lon="4.79319">
        <ele>198</ele>
        <time>2018-04-14T09:01:24Z</time>
      </trkpt>
      <trkpt lat="45.93948" lon="4.79325">
        <ele>198</ele>
        <time>2018-04-14T09:01:25Z</time>
      </trkpt>
      <trkpt lat="45.93948" lon="4.79333">
        <ele>198</ele>
        <time>2018-04-14T09:01:26Z</time>
      </trkpt>
      <trkpt lat="45.93948" lon="4.79344">
        <ele>200</ele>
        <time>2018-04-14T09:01:28Z</time>
      </trkpt>
      <trkpt lat="45.93947" lon="4.7935">
        <ele>200</ele>
        <time>2018-04-14T09:01:29Z</time>
      </trkpt>
      <trkpt lat="45.93947" lon="4.7936">
        <ele>200</ele>
        <time>2018-04-14T09:01:31Z</time>
      </trkpt>
      <trkpt lat="45.93947" lon="4.79365">
        <ele>200</ele>
        <time>2018-04-14T09:01:32Z</time>
      </trkpt>
      <trkpt lat="45.93948" lon="4.79376">
        <ele>200</ele>
        <time>2018-04-14T09:01:34Z</time>
      </trkpt>
      <trkpt lat="45.93948" lon="4.79378">
        <ele>201</ele>
        <time>2018-04-14T09:01:35Z</time>
      </trkpt>
      <trkpt lat="45.93948" lon="4.79382">
        <ele>201</ele>
        <time>2018-04-14T09:01:36Z</time>
      </trkpt>
      <trkpt lat="45.93948" lon="4.79391">
        <ele>201</ele>
        <time>2018-04-14T09:01:37Z</time>
      </trkpt>
      <trkpt lat="45.93948" lon="4.79403">
        <ele>201</ele>
        <time>2018-04-14T09:01:41Z</time>
      </trkpt>
      <trkpt lat="45.93947" lon="4.79407">
        <ele>200</ele>
        <time>2018-04-14T09:01:42Z</time>
      </trkpt>
      <trkpt lat="45.93947" lon="4.79415">
        <ele>200</ele>
        <time>2018-04-14T09:01:44Z</time>
      </trkpt>
      <trkpt lat="45.93946" lon="4.79427">
        <ele>201</ele>
        <time>2018-04-14T09:01:45Z</time>
      </trkpt>
      <trkpt lat="45.93946" lon="4.79433">
        <ele>202</ele>
        <time>2018-04-14T09:01:47Z</time>
      </trkpt>
      <trkpt lat="45.93945" lon="4.79442">
        <ele>202</ele>
        <time>2018-04-14T09:01:48Z</time>
      </trkpt>
      <trkpt lat="45.93945" lon="4.79453">
        <ele>202</ele>
        <time>2018-04-14T09:01:50Z</time>
      </trkpt>
      <trkpt lat="45.93945" lon="4.79459">
        <ele>202</ele>
        <time>2018-04-14T09:01:51Z</time>
      </trkpt>
      <trkpt lat="45.93945" lon="4.79469">
        <ele>202</ele>
        <time>2018-04-14T09:01:53Z</time>
      </trkpt>
      <trkpt lat="45.93945" lon="4.79475">
        <ele>202</ele>
        <time>2018-04-14T09:01:54Z</time>
      </trkpt>
      <trkpt lat="45.93946" lon="4.79487">
        <ele>202</ele>
        <time>2018-04-14T09:01:56Z</time>
      </trkpt>
      <trkpt lat="45.93946" lon="4.79489">
        <ele>202</ele>
        <time>2018-04-14T09:01:57Z</time>
      </trkpt>
      <trkpt lat="45.93947" lon="4.79499">
        <ele>202</ele>
        <time>2018-04-14T09:02:00Z</time>
      </trkpt>
      <trkpt lat="45.93947" lon="4.79502">
        <ele>203</ele>
        <time>2018-04-14T09:02:01Z</time>
      </trkpt>
      <trkpt lat="45.93948" lon="4.7951">
        <ele>203</ele>
        <time>2018-04-14T09:02:03Z</time>
      </trkpt>
      <trkpt lat="45.93949" lon="4.79516">
        <ele>204</ele>
        <time>2018-04-14T09:02:04Z</time>
      </trkpt>
      <trkpt lat="45.9395" lon="4.7953">
        <ele>204</ele>
        <time>2018-04-14T09:02:05Z</time>
      </trkpt>
      <trkpt lat="45.9395" lon="4.79543">
        <ele>204</ele>
        <time>2018-04-14T09:02:09Z</time>
      </trkpt>
      <trkpt lat="45.9395" lon="4.79547">
        <ele>205</ele>
        <time>2018-04-14T09:02:10Z</time>
      </trkpt>
      <trkpt lat="45.93951" lon="4.79555">
        <ele>205</ele>
        <time>2018-04-14T09:02:12Z</time>
      </trkpt>
      <trkpt lat="45.93951" lon="4.7956">
        <ele>205</ele>
        <time>2018-04-14T09:02:13Z</time>
      </trkpt>
      <trkpt lat="45.93952" lon="4.79569">
        <ele>205</ele>
        <time>2018-04-14T09:02:15Z</time>
      </trkpt>
      <trkpt lat="45.93953" lon="4.79574">
        <ele>205</ele>
        <time>2018-04-14T09:02:16Z</time>
      </trkpt>
      <trkpt lat="45.93954" lon="4.79584">
        <ele>206</ele>
        <time>2018-04-14T09:02:18Z</time>
      </trkpt>
      <trkpt lat="45.93954" lon="4.79588">
        <ele>206</ele>
        <time>2018-04-14T09:02:19Z</time>
      </trkpt>
      <trkpt lat="45.93954" lon="4.79597">
        <ele>206</ele>
        <time>2018-04-14T09:02:21Z</time>
      </trkpt>
      <trkpt lat="45.93955" lon="4.79601">
        <ele>206</ele>
        <time>2018-04-14T09:02:22Z</time>
      </trkpt>
      <trkpt lat="45.93955" lon="4.7961">
        <ele>206</ele>
        <time>2018-04-14T09:02:24Z</time>
      </trkpt>
      <trkpt lat="45.93956" lon="4.79615">
        <ele>207</ele>
        <time>2018-04-14T09:02:25Z</time>
      </trkpt>
      <trkpt lat="45.93956" lon="4.79625">
        <ele>207</ele>
        <time>2018-04-14T09:02:27Z</time>
      </trkpt>
      <trkpt lat="45.93957" lon="4.79629">
        <ele>207</ele>
        <time>2018-04-14T09:02:28Z</time>
      </trkpt>
      <trkpt lat="45.93958" lon="4.79644">
        <ele>207</ele>
        <time>2018-04-14T09:02:29Z</time>
      </trkpt>
      <trkpt lat="45.93959" lon="4.79654">
        <ele>207</ele>
        <time>2018-04-14T09:02:32Z</time>
      </trkpt>
      <trkpt lat="45.93959" lon="4.79658">
        <ele>207</ele>
        <time>2018-04-14T09:02:33Z</time>
      </trkpt>
      <trkpt lat="45.9396" lon="4.79666">
        <ele>207</ele>
        <time>2018-04-14T09:02:35Z</time>
      </trkpt>
      <trkpt lat="45.9396" lon="4.79671">
        <ele>207</ele>
        <time>2018-04-14T09:02:36Z</time>
      </trkpt>
      <trkpt lat="45.93961" lon="4.79679">
        <ele>207</ele>
        <time>2018-04-14T09:02:38Z</time>
      </trkpt>
      <trkpt lat="45.93961" lon="4.79684">
        <ele>207</ele>
        <time>2018-04-14T09:02:39Z</time>
      </trkpt>
      <trkpt lat="45.93962" lon="4.79693">
        <ele>207</ele>
        <time>2018-04-14T09:02:41Z</time>
      </trkpt>
      <trkpt lat="45.93963" lon="4.79698">
        <ele>207</ele>
        <time>2018-04-14T09:02:42Z</time>
      </trkpt>
      <trkpt lat="45.93965" lon="4.79713">
        <ele>206</ele>
        <time>2018-04-14T09:02:43Z</time>
      </trkpt>
      <trkpt lat="45.93966" lon="4.7972">
        <ele>206</ele>
        <time>2018-04-14T09:02:45Z</time>
      </trkpt>
      <trkpt lat="45.93967" lon="4.7973">
        <ele>206</ele>
        <time>2018-04-14T09:02:46Z</time>
      </trkpt>
      <trkpt lat="45.93968" lon="4.79741">
        <ele>206</ele>
        <time>2018-04-14T09:02:48Z</time>
      </trkpt>
      <trkpt lat="45.93969" lon="4.79747">
        <ele>206</ele>
        <time>2018-04-14T09:02:49Z</time>
      </trkpt>
      <trkpt lat="45.9397" lon="4.79758">
        <ele>206</ele>
        <time>2018-04-14T09:02:51Z</time>
      </trkpt>
      <trkpt lat="45.9397" lon="4.79763">
        <ele>206</ele>
        <time>2018-04-14T09:02:52Z</time>
      </trkpt>
      <trkpt lat="45.9397" lon="4.79774">
        <ele>206</ele>
        <time>2018-04-14T09:02:54Z</time>
      </trkpt>
      <trkpt lat="45.9397" lon="4.79781">
        <ele>206</ele>
        <time>2018-04-14T09:02:55Z</time>
      </trkpt>
      <trkpt lat="45.93969" lon="4.79793">
        <ele>206</ele>
        <time>2018-04-14T09:02:57Z</time>
      </trkpt>
      <trkpt lat="45.93968" lon="4.79798">
        <ele>206</ele>
        <time>2018-04-14T09:02:58Z</time>
      </trkpt>
      <trkpt lat="45.93966" lon="4.7981">
        <ele>206</ele>
        <time>2018-04-14T09:03:00Z</time>
      </trkpt>
      <trkpt lat="45.93965" lon="4.79815">
        <ele>206</ele>
        <time>2018-04-14T09:03:01Z</time>
      </trkpt>
      <trkpt lat="45.93963" lon="4.79827">
        <ele>206</ele>
        <time>2018-04-14T09:03:03Z</time>
      </trkpt>
      <trkpt lat="45.93963" lon="4.79832">
        <ele>206</ele>
        <time>2018-04-14T09:03:04Z</time>
      </trkpt>
      <trkpt lat="45.93961" lon="4.79844">
        <ele>206</ele>
        <time>2018-04-14T09:03:06Z</time>
      </trkpt>
      <trkpt lat="45.9396" lon="4.7985">
        <ele>206</ele>
        <time>2018-04-14T09:03:07Z</time>
      </trkpt>
      <trkpt lat="45.93959" lon="4.79858">
        <ele>206</ele>
        <time>2018-04-14T09:03:08Z</time>
      </trkpt>
      <trkpt lat="45.93958" lon="4.79865">
        <ele>206</ele>
        <time>2018-04-14T09:03:09Z</time>
      </trkpt>
      <trkpt lat="45.93955" lon="4.79876">
        <ele>206</ele>
        <time>2018-04-14T09:03:11Z</time>
      </trkpt>
      <trkpt lat="45.93954" lon="4.79882">
        <ele>206</ele>
        <time>2018-04-14T09:03:12Z</time>
      </trkpt>
      <trkpt lat="45.93954" lon="4.79888">
        <ele>205</ele>
        <time>2018-04-14T09:03:13Z</time>
      </trkpt>
      <trkpt lat="45.93953" lon="4.79895">
        <ele>205</ele>
        <time>2018-04-14T09:03:14Z</time>
      </trkpt>
      <trkpt lat="45.93953" lon="4.79906">
        <ele>205</ele>
        <time>2018-04-14T09:03:16Z</time>
      </trkpt>
      <trkpt lat="45.93952" lon="4.79911">
        <ele>205</ele>
        <time>2018-04-14T09:03:17Z</time>
      </trkpt>
      <trkpt lat="45.93949" lon="4.79919">
        <ele>205</ele>
        <time>2018-04-14T09:03:19Z</time>
      </trkpt>
      <trkpt lat="45.93948" lon="4.79925">
        <ele>205</ele>
        <time>2018-04-14T09:03:20Z</time>
      </trkpt>
      <trkpt lat="45.93946" lon="4.79937">
        <ele>205</ele>
        <time>2018-04-14T09:03:22Z</time>
      </trkpt>
      <trkpt lat="45.93945" lon="4.79945">
        <ele>205</ele>
        <time>2018-04-14T09:03:23Z</time>
      </trkpt>
      <trkpt lat="45.93944" lon="4.79953">
        <ele>205</ele>
        <time>2018-04-14T09:03:24Z</time>
      </trkpt>
      <trkpt lat="45.93943" lon="4.79959">
        <ele>205</ele>
        <time>2018-04-14T09:03:25Z</time>
      </trkpt>
      <trkpt lat="45.93941" lon="4.7997">
        <ele>205</ele>
        <time>2018-04-14T09:03:27Z</time>
      </trkpt>
      <trkpt lat="45.9394" lon="4.79975">
        <ele>204</ele>
        <time>2018-04-14T09:03:28Z</time>
      </trkpt>
      <trkpt lat="45.93939" lon="4.79985">
        <ele>204</ele>
        <time>2018-04-14T09:03:30Z</time>
      </trkpt>
      <trkpt lat="45.93938" lon="4.79991">
        <ele>204</ele>
        <time>2018-04-14T09:03:31Z</time>
      </trkpt>
      <trkpt lat="45.93936" lon="4.80003">
        <ele>205</ele>
        <time>2018-04-14T09:03:33Z</time>
      </trkpt>
      <trkpt lat="45.93936" lon="4.8001">
        <ele>205</ele>
        <time>2018-04-14T09:03:34Z</time>
      </trkpt>
      <trkpt lat="45.93934" lon="4.80022">
        <ele>206</ele>
        <time>2018-04-14T09:03:36Z</time>
      </trkpt>
      <trkpt lat="45.93934" lon="4.80028">
        <ele>206</ele>
        <time>2018-04-14T09:03:37Z</time>
      </trkpt>
      <trkpt lat="45.93933" lon="4.80041">
        <ele>207</ele>
        <time>2018-04-14T09:03:39Z</time>
      </trkpt>
      <trkpt lat="45.93932" lon="4.80047">
        <ele>207</ele>
        <time>2018-04-14T09:03:40Z</time>
      </trkpt>
      <trkpt lat="45.93932" lon="4.80059">
        <ele>207</ele>
        <time>2018-04-14T09:03:42Z</time>
      </trkpt>
      <trkpt lat="45.93934" lon="4.80064">
        <ele>207</ele>
        <time>2018-04-14T09:03:43Z</time>
      </trkpt>
      <trkpt lat="45.93934" lon="4.80071">
        <ele>207</ele>
        <time>2018-04-14T09:03:44Z</time>
      </trkpt>
      <trkpt lat="45.93935" lon="4.80077">
        <ele>207</ele>
        <time>2018-04-14T09:03:45Z</time>
      </trkpt>
      <trkpt lat="45.93936" lon="4.80084">
        <ele>208</ele>
        <time>2018-04-14T09:03:46Z</time>
      </trkpt>
      <trkpt lat="45.93936" lon="4.80092">
        <ele>208</ele>
        <time>2018-04-14T09:03:47Z</time>
      </trkpt>
      <trkpt lat="45.93937" lon="4.80098">
        <ele>208</ele>
        <time>2018-04-14T09:03:48Z</time>
      </trkpt>
      <trkpt lat="45.93938" lon="4.80105">
        <ele>208</ele>
        <time>2018-04-14T09:03:49Z</time>
      </trkpt>
      <trkpt lat="45.9394" lon="4.80117">
        <ele>208</ele>
        <time>2018-04-14T09:03:51Z</time>
      </trkpt>
      <trkpt lat="45.93941" lon="4.80124">
        <ele>209</ele>
        <time>2018-04-14T09:03:52Z</time>
      </trkpt>
      <trkpt lat="45.93943" lon="4.80137">
        <ele>208</ele>
        <time>2018-04-14T09:03:53Z</time>
      </trkpt>
      <trkpt lat="45.93943" lon="4.80143">
        <ele>208</ele>
        <time>2018-04-14T09:03:54Z</time>
      </trkpt>
      <trkpt lat="45.93943" lon="4.8015">
        <ele>208</ele>
        <time>2018-04-14T09:03:55Z</time>
      </trkpt>
      <trkpt lat="45.93945" lon="4.80162">
        <ele>208</ele>
        <time>2018-04-14T09:03:57Z</time>
      </trkpt>
      <trkpt lat="45.93946" lon="4.80167">
        <ele>206</ele>
        <time>2018-04-14T09:03:58Z</time>
      </trkpt>
      <trkpt lat="45.93947" lon="4.80174">
        <ele>206</ele>
        <time>2018-04-14T09:03:59Z</time>
      </trkpt>
      <trkpt lat="45.93949" lon="4.80181">
        <ele>206</ele>
        <time>2018-04-14T09:04:00Z</time>
      </trkpt>
      <trkpt lat="45.9395" lon="4.80187">
        <ele>206</ele>
        <time>2018-04-14T09:04:01Z</time>
      </trkpt>
      <trkpt lat="45.93952" lon="4.80193">
        <ele>206</ele>
        <time>2018-04-14T09:04:02Z</time>
      </trkpt>
      <trkpt lat="45.93954" lon="4.80204">
        <ele>205</ele>
        <time>2018-04-14T09:04:04Z</time>
      </trkpt>
      <trkpt lat="45.93956" lon="4.80211">
        <ele>205</ele>
        <time>2018-04-14T09:04:05Z</time>
      </trkpt>
      <trkpt lat="45.93959" lon="4.80221">
        <ele>205</ele>
        <time>2018-04-14T09:04:07Z</time>
      </trkpt>
      <trkpt lat="45.9396" lon="4.80226">
        <ele>205</ele>
        <time>2018-04-14T09:04:08Z</time>
      </trkpt>
      <trkpt lat="45.93962" lon="4.80232">
        <ele>205</ele>
        <time>2018-04-14T09:04:09Z</time>
      </trkpt>
      <trkpt lat="45.93964" lon="4.80239">
        <ele>204</ele>
        <time>2018-04-14T09:04:10Z</time>
      </trkpt>
      <trkpt lat="45.93966" lon="4.8025">
        <ele>202</ele>
        <time>2018-04-14T09:04:12Z</time>
      </trkpt>
      <trkpt lat="45.93968" lon="4.80256">
        <ele>202</ele>
        <time>2018-04-14T09:04:13Z</time>
      </trkpt>
      <trkpt lat="45.9397" lon="4.80262">
        <ele>202</ele>
        <time>2018-04-14T09:04:14Z</time>
      </trkpt>
      <trkpt lat="45.93972" lon="4.80268">
        <ele>202</ele>
        <time>2018-04-14T09:04:15Z</time>
      </trkpt>
      <trkpt lat="45.93974" lon="4.80279">
        <ele>203</ele>
        <time>2018-04-14T09:04:17Z</time>
      </trkpt>
      <trkpt lat="45.93976" lon="4.80284">
        <ele>203</ele>
        <time>2018-04-14T09:04:18Z</time>
      </trkpt>
      <trkpt lat="45.93979" lon="4.80295">
        <ele>203</ele>
        <time>2018-04-14T09:04:21Z</time>
      </trkpt>
      <trkpt lat="45.9398" lon="4.80298">
        <ele>203</ele>
        <time>2018-04-14T09:04:22Z</time>
      </trkpt>
      <trkpt lat="45.93983" lon="4.80308">
        <ele>203</ele>
        <time>2018-04-14T09:04:25Z</time>
      </trkpt>
      <trkpt lat="45.93984" lon="4.80312">
        <ele>203</ele>
        <time>2018-04-14T09:04:26Z</time>
      </trkpt>
      <trkpt lat="45.93987" lon="4.80323">
        <ele>204</ele>
        <time>2018-04-14T09:04:29Z</time>
      </trkpt>
      <trkpt lat="45.93988" lon="4.80327">
        <ele>204</ele>
        <time>2018-04-14T09:04:30Z</time>
      </trkpt>
      <trkpt lat="45.93991" lon="4.80339">
        <ele>206</ele>
        <time>2018-04-14T09:04:33Z</time>
      </trkpt>
      <trkpt lat="45.93992" lon="4.80343">
        <ele>206</ele>
        <time>2018-04-14T09:04:34Z</time>
      </trkpt>
      <trkpt lat="45.93995" lon="4.80353">
        <ele>206</ele>
        <time>2018-04-14T09:04:37Z</time>
      </trkpt>
      <trkpt lat="45.93996" lon="4.80357">
        <ele>206</ele>
        <time>2018-04-14T09:04:38Z</time>
      </trkpt>
      <trkpt lat="45.93998" lon="4.80366">
        <ele>207</ele>
        <time>2018-04-14T09:04:41Z</time>
      </trkpt>
      <trkpt lat="45.93999" lon="4.80369">
        <ele>207</ele>
        <time>2018-04-14T09:04:42Z</time>
      </trkpt>
      <trkpt lat="45.94001" lon="4.80378">
        <ele>216</ele>
        <time>2018-04-14T09:04:45Z</time>
      </trkpt>
      <trkpt lat="45.94002" lon="4.80381">
        <ele>216</ele>
        <time>2018-04-14T09:04:46Z</time>
      </trkpt>
      <trkpt lat="45.94004" lon="4.80392">
        <ele>217</ele>
        <time>2018-04-14T09:04:49Z</time>
      </trkpt>
      <trkpt lat="45.94005" lon="4.80395">
        <ele>217</ele>
        <time>2018-04-14T09:04:50Z</time>
      </trkpt>
      <trkpt lat="45.94008" lon="4.80404">
        <ele>217</ele>
        <time>2018-04-14T09:04:53Z</time>
      </trkpt>
      <trkpt lat="45.94009" lon="4.80407">
        <ele>217</ele>
        <time>2018-04-14T09:04:54Z</time>
      </trkpt>
      <trkpt lat="45.94011" lon="4.80417">
        <ele>219</ele>
        <time>2018-04-14T09:04:59Z</time>
      </trkpt>
      <trkpt lat="45.94012" lon="4.80419">
        <ele>220</ele>
        <time>2018-04-14T09:05:00Z</time>
      </trkpt>
      <trkpt lat="45.94014" lon="4.80429">
        <ele>221</ele>
        <time>2018-04-14T09:05:04Z</time>
      </trkpt>
      <trkpt lat="45.94015" lon="4.80432">
        <ele>221</ele>
        <time>2018-04-14T09:05:05Z</time>
      </trkpt>
      <trkpt lat="45.94016" lon="4.80443">
        <ele>222</ele>
        <time>2018-04-14T09:05:08Z</time>
      </trkpt>
      <trkpt lat="45.94017" lon="4.80447">
        <ele>223</ele>
        <time>2018-04-14T09:05:09Z</time>
      </trkpt>
      <trkpt lat="45.94018" lon="4.80459">
        <ele>223</ele>
        <time>2018-04-14T09:05:13Z</time>
      </trkpt>
      <trkpt lat="45.94019" lon="4.80462">
        <ele>223</ele>
        <time>2018-04-14T09:05:14Z</time>
      </trkpt>
      <trkpt lat="45.94019" lon="4.80472">
        <ele>223</ele>
        <time>2018-04-14T09:05:17Z</time>
      </trkpt>
      <trkpt lat="45.9402" lon="4.80475">
        <ele>223</ele>
        <time>2018-04-14T09:05:18Z</time>
      </trkpt>
      <trkpt lat="45.9402" lon="4.80488">
        <ele>223</ele>
        <time>2018-04-14T09:05:23Z</time>
      </trkpt>
      <trkpt lat="45.9402" lon="4.8049">
        <ele>223</ele>
        <time>2018-04-14T09:05:24Z</time>
      </trkpt>
      <trkpt lat="45.94017" lon="4.80501">
        <ele>223</ele>
        <time>2018-04-14T09:05:29Z</time>
      </trkpt>
      <trkpt lat="45.94017" lon="4.80504">
        <ele>223</ele>
        <time>2018-04-14T09:05:30Z</time>
      </trkpt>
      <trkpt lat="45.94016" lon="4.80515">
        <ele>223</ele>
        <time>2018-04-14T09:05:34Z</time>
      </trkpt>
      <trkpt lat="45.94016" lon="4.80518">
        <ele>223</ele>
        <time>2018-04-14T09:05:35Z</time>
      </trkpt>
      <trkpt lat="45.94015" lon="4.80531">
        <ele>224</ele>
        <time>2018-04-14T09:05:39Z</time>
      </trkpt>
      <trkpt lat="45.94015" lon="4.80534">
        <ele>224</ele>
        <time>2018-04-14T09:05:40Z</time>
      </trkpt>
      <trkpt lat="45.94015" lon="4.80544">
        <ele>224</ele>
        <time>2018-04-14T09:05:43Z</time>
      </trkpt>
      <trkpt lat="45.94015" lon="4.80547">
        <ele>224</ele>
        <time>2018-04-14T09:05:44Z</time>
      </trkpt>
      <trkpt lat="45.94015" lon="4.80557">
        <ele>224</ele>
        <time>2018-04-14T09:05:47Z</time>
      </trkpt>
      <trkpt lat="45.94016" lon="4.8056">
        <ele>224</ele>
        <time>2018-04-14T09:05:48Z</time>
      </trkpt>
      <trkpt lat="45.94016" lon="4.8057">
        <ele>223</ele>
        <time>2018-04-14T09:05:51Z</time>
      </trkpt>
      <trkpt lat="45.94016" lon="4.80574">
        <ele>222</ele>
        <time>2018-04-14T09:05:52Z</time>
      </trkpt>
      <trkpt lat="45.94016" lon="4.80584">
        <ele>222</ele>
        <time>2018-04-14T09:05:55Z</time>
      </trkpt>
      <trkpt lat="45.94017" lon="4.80587">
        <ele>222</ele>
        <time>2018-04-14T09:05:56Z</time>
      </trkpt>
      <trkpt lat="45.94018" lon="4.80597">
        <ele>223</ele>
        <time>2018-04-14T09:05:59Z</time>
      </trkpt>
      <trkpt lat="45.94019" lon="4.806">
        <ele>223</ele>
        <time>2018-04-14T09:06:00Z</time>
      </trkpt>
      <trkpt lat="45.94021" lon="4.80611">
        <ele>224</ele>
        <time>2018-04-14T09:06:03Z</time>
      </trkpt>
      <trkpt lat="45.94022" lon="4.80615">
        <ele>224</ele>
        <time>2018-04-14T09:06:04Z</time>
      </trkpt>
      <trkpt lat="45.94023" lon="4.80626">
        <ele>225</ele>
        <time>2018-04-14T09:06:07Z</time>
      </trkpt>
      <trkpt lat="45.94024" lon="4.8063">
        <ele>225</ele>
        <time>2018-04-14T09:06:08Z</time>
      </trkpt>
      <trkpt lat="45.94025" lon="4.80642">
        <ele>224</ele>
        <time>2018-04-14T09:06:11Z</time>
      </trkpt>
      <trkpt lat="45.94025" lon="4.80645">
        <ele>224</ele>
        <time>2018-04-14T09:06:12Z</time>
      </trkpt>
      <trkpt lat="45.94027" lon="4.80657">
        <ele>224</ele>
        <time>2018-04-14T09:06:15Z</time>
      </trkpt>
      <trkpt lat="45.94028" lon="4.80662">
        <ele>224</ele>
        <time>2018-04-14T09:06:16Z</time>
      </trkpt>
      <trkpt lat="45.9403" lon="4.80673">
        <ele>224</ele>
        <time>2018-04-14T09:06:19Z</time>
      </trkpt>
      <trkpt lat="45.9403" lon="4.80676">
        <ele>225</ele>
        <time>2018-04-14T09:06:20Z</time>
      </trkpt>
      <trkpt lat="45.94032" lon="4.80687">
        <ele>225</ele>
        <time>2018-04-14T09:06:23Z</time>
      </trkpt>
      <trkpt lat="45.94032" lon="4.8069">
        <ele>225</ele>
        <time>2018-04-14T09:06:24Z</time>
      </trkpt>
      <trkpt lat="45.94035" lon="4.80702">
        <ele>226</ele>
        <time>2018-04-14T09:06:27Z</time>
      </trkpt>
      <trkpt lat="45.94035" lon="4.80705">
        <ele>226</ele>
        <time>2018-04-14T09:06:28Z</time>
      </trkpt>
      <trkpt lat="45.94038" lon="4.80714">
        <ele>226</ele>
        <time>2018-04-14T09:06:31Z</time>
      </trkpt>
      <trkpt lat="45.94038" lon="4.80718">
        <ele>226</ele>
        <time>2018-04-14T09:06:32Z</time>
      </trkpt>
      <trkpt lat="45.94039" lon="4.80728">
        <ele>227</ele>
        <time>2018-04-14T09:06:35Z</time>
      </trkpt>
      <trkpt lat="45.9404" lon="4.80733">
        <ele>227</ele>
        <time>2018-04-14T09:06:36Z</time>
      </trkpt>
      <trkpt lat="45.94042" lon="4.80741">
        <ele>227</ele>
        <time>2018-04-14T09:06:38Z</time>
      </trkpt>
      <trkpt lat="45.94043" lon="4.80746">
        <ele>227</ele>
        <time>2018-04-14T09:06:39Z</time>
      </trkpt>
      <trkpt lat="45.94044" lon="4.80758">
        <ele>228</ele>
        <time>2018-04-14T09:06:42Z</time>
      </trkpt>
      <trkpt lat="45.94045" lon="4.80762">
        <ele>228</ele>
        <time>2018-04-14T09:06:43Z</time>
      </trkpt>
      <trkpt lat="45.94047" lon="4.80774">
        <ele>229</ele>
        <time>2018-04-14T09:06:46Z</time>
      </trkpt>
      <trkpt lat="45.94047" lon="4.80777">
        <ele>229</ele>
        <time>2018-04-14T09:06:47Z</time>
      </trkpt>
      <trkpt lat="45.94048" lon="4.80788">
        <ele>229</ele>
        <time>2018-04-14T09:06:50Z</time>
      </trkpt>
      <trkpt lat="45.94048" lon="4.80791">
        <ele>229</ele>
        <time>2018-04-14T09:06:51Z</time>
      </trkpt>
      <trkpt lat="45.94049" lon="4.80802">
        <ele>229</ele>
        <time>2018-04-14T09:06:54Z</time>
      </trkpt>
      <trkpt lat="45.94049" lon="4.80806">
        <ele>229</ele>
        <time>2018-04-14T09:06:55Z</time>
      </trkpt>
      <trkpt lat="45.9405" lon="4.80818">
        <ele>230</ele>
        <time>2018-04-14T09:06:58Z</time>
      </trkpt>
      <trkpt lat="45.94051" lon="4.80822">
        <ele>230</ele>
        <time>2018-04-14T09:06:59Z</time>
      </trkpt>
      <trkpt lat="45.94052" lon="4.80834">
        <ele>231</ele>
        <time>2018-04-14T09:07:02Z</time>
      </trkpt>
      <trkpt lat="45.94052" lon="4.80838">
        <ele>231</ele>
        <time>2018-04-14T09:07:03Z</time>
      </trkpt>
      <trkpt lat="45.94053" lon="4.80848">
        <ele>231</ele>
        <time>2018-04-14T09:07:06Z</time>
      </trkpt>
      <trkpt lat="45.94053" lon="4.80852">
        <ele>230</ele>
        <time>2018-04-14T09:07:07Z</time>
      </trkpt>
      <trkpt lat="45.94054" lon="4.80864">
        <ele>230</ele>
        <time>2018-04-14T09:07:11Z</time>
      </trkpt>
      <trkpt lat="45.94054" lon="4.80867">
        <ele>230</ele>
        <time>2018-04-14T09:07:12Z</time>
      </trkpt>
      <trkpt lat="45.94055" lon="4.80877">
        <ele>230</ele>
        <time>2018-04-14T09:07:15Z</time>
      </trkpt>
      <trkpt lat="45.94056" lon="4.80881">
        <ele>230</ele>
        <time>2018-04-14T09:07:16Z</time>
      </trkpt>
      <trkpt lat="45.94057" lon="4.80891">
        <ele>231</ele>
        <time>2018-04-14T09:07:19Z</time>
      </trkpt>
      <trkpt lat="45.94057" lon="4.80894">
        <ele>231</ele>
        <time>2018-04-14T09:07:20Z</time>
      </trkpt>
      <trkpt lat="45.94059" lon="4.80905">
        <ele>232</ele>
        <time>2018-04-14T09:07:23Z</time>
      </trkpt>
      <trkpt lat="45.94059" lon="4.80908">
        <ele>232</ele>
        <time>2018-04-14T09:07:24Z</time>
      </trkpt>
      <trkpt lat="45.94061" lon="4.80918">
        <ele>233</ele>
        <time>2018-04-14T09:07:27Z</time>
      </trkpt>
      <trkpt lat="45.94062" lon="4.80921">
        <ele>233</ele>
        <time>2018-04-14T09:07:28Z</time>
      </trkpt>
      <trkpt lat="45.94063" lon="4.80931">
        <ele>233</ele>
        <time>2018-04-14T09:07:31Z</time>
      </trkpt>
      <trkpt lat="45.94064" lon="4.80934">
        <ele>233</ele>
        <time>2018-04-14T09:07:32Z</time>
      </trkpt>
      <trkpt lat="45.94066" lon="4.80945">
        <ele>232</ele>
        <time>2018-04-14T09:07:35Z</time>
      </trkpt>
      <trkpt lat="45.94066" lon="4.80949">
        <ele>232</ele>
        <time>2018-04-14T09:07:36Z</time>
      </trkpt>
      <trkpt lat="45.94067" lon="4.8096">
        <ele>232</ele>
        <time>2018-04-14T09:07:39Z</time>
      </trkpt>
      <trkpt lat="45.94068" lon="4.80963">
        <ele>232</ele>
        <time>2018-04-14T09:07:40Z</time>
      </trkpt>
      <trkpt lat="45.9407" lon="4.80975">
        <ele>233</ele>
        <time>2018-04-14T09:07:43Z</time>
      </trkpt>
      <trkpt lat="45.9407" lon="4.80978">
        <ele>234</ele>
        <time>2018-04-14T09:07:44Z</time>
      </trkpt>
      <trkpt lat="45.94072" lon="4.80987">
        <ele>235</ele>
        <time>2018-04-14T09:07:47Z</time>
      </trkpt>
      <trkpt lat="45.94072" lon="4.80991">
        <ele>235</ele>
        <time>2018-04-14T09:07:48Z</time>
      </trkpt>
      <trkpt lat="45.94074" lon="4.81003">
        <ele>237</ele>
        <time>2018-04-14T09:07:52Z</time>
      </trkpt>
      <trkpt lat="45.94075" lon="4.81006">
        <ele>237</ele>
        <time>2018-04-14T09:07:53Z</time>
      </trkpt>
      <trkpt lat="45.94077" lon="4.81015">
        <ele>235</ele>
        <time>2018-04-14T09:07:56Z</time>
      </trkpt>
      <trkpt lat="45.94077" lon="4.81018">
        <ele>235</ele>
        <time>2018-04-14T09:07:57Z</time>
      </trkpt>
      <trkpt lat="45.9408" lon="4.81031">
        <ele>234</ele>
        <time>2018-04-14T09:08:01Z</time>
      </trkpt>
      <trkpt lat="45.94081" lon="4.81034">
        <ele>234</ele>
        <time>2018-04-14T09:08:02Z</time>
      </trkpt>
      <trkpt lat="45.94084" lon="4.81043">
        <ele>243</ele>
        <time>2018-04-14T09:08:05Z</time>
      </trkpt>
      <trkpt lat="45.94085" lon="4.81047">
        <ele>243</ele>
        <time>2018-04-14T09:08:06Z</time>
      </trkpt>
      <trkpt lat="45.94089" lon="4.81056">
        <ele>243</ele>
        <time>2018-04-14T09:08:09Z</time>
      </trkpt>
      <trkpt lat="45.9409" lon="4.81059">
        <ele>243</ele>
        <time>2018-04-14T09:08:10Z</time>
      </trkpt>
      <trkpt lat="45.94093" lon="4.81069">
        <ele>242</ele>
        <time>2018-04-14T09:08:13Z</time>
      </trkpt>
      <trkpt lat="45.94094" lon="4.81072">
        <ele>241</ele>
        <time>2018-04-14T09:08:14Z</time>
      </trkpt>
      <trkpt lat="45.94098" lon="4.81082">
        <ele>241</ele>
        <time>2018-04-14T09:08:18Z</time>
      </trkpt>
      <trkpt lat="45.941" lon="4.81084">
        <ele>240</ele>
        <time>2018-04-14T09:08:19Z</time>
      </trkpt>
      <trkpt lat="45.94105" lon="4.81094">
        <ele>241</ele>
        <time>2018-04-14T09:08:23Z</time>
      </trkpt>
      <trkpt lat="45.94106" lon="4.81097">
        <ele>241</ele>
        <time>2018-04-14T09:08:24Z</time>
      </trkpt>
      <trkpt lat="45.94111" lon="4.81106">
        <ele>242</ele>
        <time>2018-04-14T09:08:28Z</time>
      </trkpt>
      <trkpt lat="45.94112" lon="4.81109">
        <ele>242</ele>
        <time>2018-04-14T09:08:29Z</time>
      </trkpt>
      <trkpt lat="45.94117" lon="4.81118">
        <ele>243</ele>
        <time>2018-04-14T09:08:33Z</time>
      </trkpt>
      <trkpt lat="45.94118" lon="4.8112">
        <ele>243</ele>
        <time>2018-04-14T09:08:34Z</time>
      </trkpt>
      <trkpt lat="45.94124" lon="4.81127">
        <ele>243</ele>
        <time>2018-04-14T09:08:37Z</time>
      </trkpt>
      <trkpt lat="45.94125" lon="4.8113">
        <ele>243</ele>
        <time>2018-04-14T09:08:38Z</time>
      </trkpt>
      <trkpt lat="45.94129" lon="4.81138">
        <ele>243</ele>
        <time>2018-04-14T09:08:41Z</time>
      </trkpt>
      <trkpt lat="45.94131" lon="4.81141">
        <ele>243</ele>
        <time>2018-04-14T09:08:42Z</time>
      </trkpt>
      <trkpt lat="45.94135" lon="4.81148">
        <ele>244</ele>
        <time>2018-04-14T09:08:45Z</time>
      </trkpt>
      <trkpt lat="45.94137" lon="4.81151">
        <ele>244</ele>
        <time>2018-04-14T09:08:46Z</time>
      </trkpt>
      <trkpt lat="45.94141" lon="4.8116">
        <ele>244</ele>
        <time>2018-04-14T09:08:49Z</time>
      </trkpt>
      <trkpt lat="45.94142" lon="4.81163">
        <ele>245</ele>
        <time>2018-04-14T09:08:50Z</time>
      </trkpt>
      <trkpt lat="45.94145" lon="4.81173">
        <ele>244</ele>
        <time>2018-04-14T09:08:53Z</time>
      </trkpt>
      <trkpt lat="45.94146" lon="4.81176">
        <ele>245</ele>
        <time>2018-04-14T09:08:54Z</time>
      </trkpt>
      <trkpt lat="45.94149" lon="4.81185">
        <ele>244</ele>
        <time>2018-04-14T09:08:57Z</time>
      </trkpt>
      <trkpt lat="45.9415" lon="4.81189">
        <ele>244</ele>
        <time>2018-04-14T09:08:58Z</time>
      </trkpt>
      <trkpt lat="45.94153" lon="4.81199">
        <ele>244</ele>
        <time>2018-04-14T09:09:01Z</time>
      </trkpt>
      <trkpt lat="45.94154" lon="4.81202">
        <ele>244</ele>
        <time>2018-04-14T09:09:02Z</time>
      </trkpt>
      <trkpt lat="45.94157" lon="4.81212">
        <ele>245</ele>
        <time>2018-04-14T09:09:05Z</time>
      </trkpt>
      <trkpt lat="45.94158" lon="4.81215">
        <ele>245</ele>
        <time>2018-04-14T09:09:06Z</time>
      </trkpt>
      <trkpt lat="45.94161" lon="4.81225">
        <ele>246</ele>
        <time>2018-04-14T09:09:10Z</time>
      </trkpt>
      <trkpt lat="45.94161" lon="4.81228">
        <ele>246</ele>
        <time>2018-04-14T09:09:11Z</time>
      </trkpt>
      <trkpt lat="45.94164" lon="4.81239">
        <ele>247</ele>
        <time>2018-04-14T09:09:16Z</time>
      </trkpt>
      <trkpt lat="45.94164" lon="4.81241">
        <ele>248</ele>
        <time>2018-04-14T09:09:17Z</time>
      </trkpt>
      <trkpt lat="45.94166" lon="4.81251">
        <ele>250</ele>
        <time>2018-04-14T09:09:21Z</time>
      </trkpt>
      <trkpt lat="45.94167" lon="4.81253">
        <ele>251</ele>
        <time>2018-04-14T09:09:22Z</time>
      </trkpt>
      <trkpt lat="45.94169" lon="4.81265">
        <ele>253</ele>
        <time>2018-04-14T09:09:26Z</time>
      </trkpt>
      <trkpt lat="45.9417" lon="4.81267">
        <ele>254</ele>
        <time>2018-04-14T09:09:27Z</time>
      </trkpt>
      <trkpt lat="45.94171" lon="4.81279">
        <ele>255</ele>
        <time>2018-04-14T09:09:32Z</time>
      </trkpt>
      <trkpt lat="45.94171" lon="4.81282">
        <ele>255</ele>
        <time>2018-04-14T09:09:33Z</time>
      </trkpt>
      <trkpt lat="45.9417" lon="4.81294">
        <ele>255</ele>
        <time>2018-04-14T09:09:38Z</time>
      </trkpt>
      <trkpt lat="45.9417" lon="4.81296">
        <ele>255</ele>
        <time>2018-04-14T09:09:39Z</time>
      </trkpt>
      <trkpt lat="45.94171" lon="4.81308">
        <ele>255</ele>
        <time>2018-04-14T09:09:44Z</time>
      </trkpt>
      <trkpt lat="45.94171" lon="4.8131">
        <ele>255</ele>
        <time>2018-04-14T09:09:45Z</time>
      </trkpt>
      <trkpt lat="45.9417" lon="4.81322">
        <ele>254</ele>
        <time>2018-04-14T09:09:52Z</time>
      </trkpt>
      <trkpt lat="45.9417" lon="4.81325">
        <ele>254</ele>
        <time>2018-04-14T09:09:53Z</time>
      </trkpt>
      <trkpt lat="45.94169" lon="4.81338">
        <ele>253</ele>
        <time>2018-04-14T09:09:58Z</time>
      </trkpt>
      <trkpt lat="45.94168" lon="4.8134">
        <ele>254</ele>
        <time>2018-04-14T09:09:59Z</time>
      </trkpt>
      <trkpt lat="45.94165" lon="4.8135">
        <ele>251</ele>
        <time>2018-04-14T09:10:02Z</time>
      </trkpt>
      <trkpt lat="45.94164" lon="4.81354">
        <ele>251</ele>
        <time>2018-04-14T09:10:03Z</time>
      </trkpt>
      <trkpt lat="45.94164" lon="4.81365">
        <ele>251</ele>
        <time>2018-04-14T09:10:06Z</time>
      </trkpt>
      <trkpt lat="45.94164" lon="4.81369">
        <ele>251</ele>
        <time>2018-04-14T09:10:07Z</time>
      </trkpt>
      <trkpt lat="45.94163" lon="4.81379">
        <ele>251</ele>
        <time>2018-04-14T09:10:10Z</time>
      </trkpt>
      <trkpt lat="45.94162" lon="4.81383">
        <ele>251</ele>
        <time>2018-04-14T09:10:11Z</time>
      </trkpt>
      <trkpt lat="45.9416" lon="4.81395">
        <ele>252</ele>
        <time>2018-04-14T09:10:14Z</time>
      </trkpt>
      <trkpt lat="45.9416" lon="4.81399">
        <ele>252</ele>
        <time>2018-04-14T09:10:15Z</time>
      </trkpt>
      <trkpt lat="45.94157" lon="4.81408">
        <ele>253</ele>
        <time>2018-04-14T09:10:18Z</time>
      </trkpt>
      <trkpt lat="45.94155" lon="4.81412">
        <ele>253</ele>
        <time>2018-04-14T09:10:19Z</time>
      </trkpt>
      <trkpt lat="45.94151" lon="4.81423">
        <ele>256</ele>
        <time>2018-04-14T09:10:23Z</time>
      </trkpt>
      <trkpt lat="45.94151" lon="4.81425">
        <ele>256</ele>
        <time>2018-04-14T09:10:24Z</time>
      </trkpt>
      <trkpt lat="45.9415" lon="4.81434">
        <ele>256</ele>
        <time>2018-04-14T09:10:27Z</time>
      </trkpt>
      <trkpt lat="45.94151" lon="4.81438">
        <ele>256</ele>
        <time>2018-04-14T09:10:28Z</time>
      </trkpt>
      <trkpt lat="45.94152" lon="4.8145">
        <ele>257</ele>
        <time>2018-04-14T09:10:31Z</time>
      </trkpt>
      <trkpt lat="45.94152" lon="4.81454">
        <ele>257</ele>
        <time>2018-04-14T09:10:32Z</time>
      </trkpt>
      <trkpt lat="45.94153" lon="4.81466">
        <ele>258</ele>
        <time>2018-04-14T09:10:36Z</time>
      </trkpt>
      <trkpt lat="45.94153" lon="4.81469">
        <ele>258</ele>
        <time>2018-04-14T09:10:37Z</time>
      </trkpt>
      <trkpt lat="45.94153" lon="4.81481">
        <ele>259</ele>
        <time>2018-04-14T09:10:41Z</time>
      </trkpt>
      <trkpt lat="45.94153" lon="4.81483">
        <ele>259</ele>
        <time>2018-04-14T09:10:42Z</time>
      </trkpt>
      <trkpt lat="45.94153" lon="4.81496">
        <ele>260</ele>
        <time>2018-04-14T09:10:46Z</time>
      </trkpt>
      <trkpt lat="45.94153" lon="4.81499">
        <ele>260</ele>
        <time>2018-04-14T09:10:47Z</time>
      </trkpt>
      <trkpt lat="45.94152" lon="4.81512">
        <ele>263</ele>
        <time>2018-04-14T09:10:51Z</time>
      </trkpt>
      <trkpt lat="45.94152" lon="4.81515">
        <ele>263</ele>
        <time>2018-04-14T09:10:52Z</time>
      </trkpt>
      <trkpt lat="45.94153" lon="4.81527">
        <ele>263</ele>
        <time>2018-04-14T09:10:56Z</time>
      </trkpt>
      <trkpt lat="45.94153" lon="4.8153">
        <ele>264</ele>
        <time>2018-04-14T09:10:57Z</time>
      </trkpt>
      <trkpt lat="45.94154" lon="4.81541">
        <ele>264</ele>
        <time>2018-04-14T09:11:00Z</time>
      </trkpt>
      <trkpt lat="45.94154" lon="4.81545">
        <ele>264</ele>
        <time>2018-04-14T09:11:01Z</time>
      </trkpt>
      <trkpt lat="45.94156" lon="4.81557">
        <ele>265</ele>
        <time>2018-04-14T09:11:04Z</time>
      </trkpt>
      <trkpt lat="45.94157" lon="4.81561">
        <ele>265</ele>
        <time>2018-04-14T09:11:05Z</time>
      </trkpt>
      <trkpt lat="45.94158" lon="4.81573">
        <ele>266</ele>
        <time>2018-04-14T09:11:08Z</time>
      </trkpt>
      <trkpt lat="45.94159" lon="4.81577">
        <ele>266</ele>
        <time>2018-04-14T09:11:09Z</time>
      </trkpt>
      <trkpt lat="45.94161" lon="4.81589">
        <ele>267</ele>
        <time>2018-04-14T09:11:12Z</time>
      </trkpt>
      <trkpt lat="45.94162" lon="4.81593">
        <ele>267</ele>
        <time>2018-04-14T09:11:13Z</time>
      </trkpt>
      <trkpt lat="45.94164" lon="4.81601">
        <ele>267</ele>
        <time>2018-04-14T09:11:15Z</time>
      </trkpt>
      <trkpt lat="45.94165" lon="4.81605">
        <ele>267</ele>
        <time>2018-04-14T09:11:16Z</time>
      </trkpt>
      <trkpt lat="45.94168" lon="4.81617">
        <ele>267</ele>
        <time>2018-04-14T09:11:19Z</time>
      </trkpt>
      <trkpt lat="45.94168" lon="4.81621">
        <ele>267</ele>
        <time>2018-04-14T09:11:20Z</time>
      </trkpt>
      <trkpt lat="45.9417" lon="4.81633">
        <ele>268</ele>
        <time>2018-04-14T09:11:23Z</time>
      </trkpt>
      <trkpt lat="45.94171" lon="4.81637">
        <ele>268</ele>
        <time>2018-04-14T09:11:24Z</time>
      </trkpt>
      <trkpt lat="45.94172" lon="4.81649">
        <ele>268</ele>
        <time>2018-04-14T09:11:27Z</time>
      </trkpt>
      <trkpt lat="45.94173" lon="4.81653">
        <ele>268</ele>
        <time>2018-04-14T09:11:28Z</time>
      </trkpt>
      <trkpt lat="45.94174" lon="4.81664">
        <ele>268</ele>
        <time>2018-04-14T09:11:31Z</time>
      </trkpt>
      <trkpt lat="45.94175" lon="4.81668">
        <ele>268</ele>
        <time>2018-04-14T09:11:32Z</time>
      </trkpt>
      <trkpt lat="45.94178" lon="4.81679">
        <ele>268</ele>
        <time>2018-04-14T09:11:35Z</time>
      </trkpt>
      <trkpt lat="45.94179" lon="4.81683">
        <ele>268</ele>
        <time>2018-04-14T09:11:36Z</time>
      </trkpt>
      <trkpt lat="45.94182" lon="4.81694">
        <ele>267</ele>
        <time>2018-04-14T09:11:39Z</time>
      </trkpt>
      <trkpt lat="45.94182" lon="4.81698">
        <ele>267</ele>
        <time>2018-04-14T09:11:40Z</time>
      </trkpt>
      <trkpt lat="45.94182" lon="4.81707">
        <ele>267</ele>
        <time>2018-04-14T09:11:42Z</time>
      </trkpt>
      <trkpt lat="45.94182" lon="4.8172">
        <ele>267</ele>
        <time>2018-04-14T09:11:43Z</time>
      </trkpt>
      <trkpt lat="45.94184" lon="4.81732">
        <ele>267</ele>
        <time>2018-04-14T09:11:46Z</time>
      </trkpt>
      <trkpt lat="45.94185" lon="4.81736">
        <ele>267</ele>
        <time>2018-04-14T09:11:47Z</time>
      </trkpt>
      <trkpt lat="45.9419" lon="4.81746">
        <ele>267</ele>
        <time>2018-04-14T09:11:50Z</time>
      </trkpt>
      <trkpt lat="45.94191" lon="4.8175">
        <ele>266</ele>
        <time>2018-04-14T09:11:51Z</time>
      </trkpt>
      <trkpt lat="45.94192" lon="4.81755">
        <ele>266</ele>
        <time>2018-04-14T09:11:52Z</time>
      </trkpt>
      <trkpt lat="45.94195" lon="4.81768">
        <ele>266</ele>
        <time>2018-04-14T09:11:53Z</time>
      </trkpt>
      <trkpt lat="45.94194" lon="4.81779">
        <ele>266</ele>
        <time>2018-04-14T09:11:56Z</time>
      </trkpt>
      <trkpt lat="45.94194" lon="4.81783">
        <ele>266</ele>
        <time>2018-04-14T09:11:57Z</time>
      </trkpt>
      <trkpt lat="45.94195" lon="4.81795">
        <ele>266</ele>
        <time>2018-04-14T09:12:00Z</time>
      </trkpt>
      <trkpt lat="45.94195" lon="4.81799">
        <ele>266</ele>
        <time>2018-04-14T09:12:01Z</time>
      </trkpt>
      <trkpt lat="45.94197" lon="4.81811">
        <ele>266</ele>
        <time>2018-04-14T09:12:04Z</time>
      </trkpt>
      <trkpt lat="45.94197" lon="4.81816">
        <ele>266</ele>
        <time>2018-04-14T09:12:05Z</time>
      </trkpt>
      <trkpt lat="45.94199" lon="4.81826">
        <ele>266</ele>
        <time>2018-04-14T09:12:07Z</time>
      </trkpt>
      <trkpt lat="45.94201" lon="4.81832">
        <ele>266</ele>
        <time>2018-04-14T09:12:08Z</time>
      </trkpt>
      <trkpt lat="45.94202" lon="4.81838">
        <ele>266</ele>
        <time>2018-04-14T09:12:09Z</time>
      </trkpt>
      <trkpt lat="45.94205" lon="4.81855">
        <ele>266</ele>
        <time>2018-04-14T09:12:10Z</time>
      </trkpt>
      <trkpt lat="45.94206" lon="4.81865">
        <ele>265</ele>
        <time>2018-04-14T09:12:12Z</time>
      </trkpt>
      <trkpt lat="45.94207" lon="4.81869">
        <ele>265</ele>
        <time>2018-04-14T09:12:13Z</time>
      </trkpt>
      <trkpt lat="45.94208" lon="4.81877">
        <ele>265</ele>
        <time>2018-04-14T09:12:15Z</time>
      </trkpt>
      <trkpt lat="45.9421" lon="4.81889">
        <ele>265</ele>
        <time>2018-04-14T09:12:16Z</time>
      </trkpt>
      <trkpt lat="45.94212" lon="4.81899">
        <ele>265</ele>
        <time>2018-04-14T09:12:18Z</time>
      </trkpt>
      <trkpt lat="45.94212" lon="4.81902">
        <ele>265</ele>
        <time>2018-04-14T09:12:19Z</time>
      </trkpt>
      <trkpt lat="45.94214" lon="4.8191">
        <ele>265</ele>
        <time>2018-04-14T09:12:20Z</time>
      </trkpt>
      <trkpt lat="45.94215" lon="4.81915">
        <ele>265</ele>
        <time>2018-04-14T09:12:21Z</time>
      </trkpt>
      <trkpt lat="45.94217" lon="4.81927">
        <ele>264</ele>
        <time>2018-04-14T09:12:23Z</time>
      </trkpt>
      <trkpt lat="45.94219" lon="4.81933">
        <ele>264</ele>
        <time>2018-04-14T09:12:24Z</time>
      </trkpt>
      <trkpt lat="45.9422" lon="4.81942">
        <ele>264</ele>
        <time>2018-04-14T09:12:26Z</time>
      </trkpt>
      <trkpt lat="45.94222" lon="4.81949">
        <ele>264</ele>
        <time>2018-04-14T09:12:27Z</time>
      </trkpt>
      <trkpt lat="45.94222" lon="4.81954">
        <ele>264</ele>
        <time>2018-04-14T09:12:29Z</time>
      </trkpt>
      <trkpt lat="45.94223" lon="4.81963">
        <ele>264</ele>
        <time>2018-04-14T09:12:30Z</time>
      </trkpt>
      <trkpt lat="45.94225" lon="4.81974">
        <ele>264</ele>
        <time>2018-04-14T09:12:32Z</time>
      </trkpt>
      <trkpt lat="45.94227" lon="4.81979">
        <ele>264</ele>
        <time>2018-04-14T09:12:33Z</time>
      </trkpt>
      <trkpt lat="45.94229" lon="4.8199">
        <ele>263</ele>
        <time>2018-04-14T09:12:35Z</time>
      </trkpt>
      <trkpt lat="45.9423" lon="4.81996">
        <ele>263</ele>
        <time>2018-04-14T09:12:36Z</time>
      </trkpt>
      <trkpt lat="45.94233" lon="4.82007">
        <ele>263</ele>
        <time>2018-04-14T09:12:38Z</time>
      </trkpt>
      <trkpt lat="45.94234" lon="4.82013">
        <ele>263</ele>
        <time>2018-04-14T09:12:39Z</time>
      </trkpt>
      <trkpt lat="45.94236" lon="4.8202">
        <ele>263</ele>
        <time>2018-04-14T09:12:40Z</time>
      </trkpt>
      <trkpt lat="45.94237" lon="4.82026">
        <ele>263</ele>
        <time>2018-04-14T09:12:41Z</time>
      </trkpt>
      <trkpt lat="45.94238" lon="4.82037">
        <ele>263</ele>
        <time>2018-04-14T09:12:43Z</time>
      </trkpt>
      <trkpt lat="45.94239" lon="4.82044">
        <ele>263</ele>
        <time>2018-04-14T09:12:44Z</time>
      </trkpt>
      <trkpt lat="45.94241" lon="4.8205">
        <ele>263</ele>
        <time>2018-04-14T09:12:45Z</time>
      </trkpt>
      <trkpt lat="45.94243" lon="4.8206">
        <ele>263</ele>
        <time>2018-04-14T09:12:46Z</time>
      </trkpt>
      <trkpt lat="45.94243" lon="4.82067">
        <ele>263</ele>
        <time>2018-04-14T09:12:47Z</time>
      </trkpt>
      <trkpt lat="45.94245" lon="4.82074">
        <ele>263</ele>
        <time>2018-04-14T09:12:48Z</time>
      </trkpt>
      <trkpt lat="45.94247" lon="4.82081">
        <ele>262</ele>
        <time>2018-04-14T09:12:49Z</time>
      </trkpt>
      <trkpt lat="45.94249" lon="4.82088">
        <ele>262</ele>
        <time>2018-04-14T09:12:50Z</time>
      </trkpt>
      <trkpt lat="45.9425" lon="4.82094">
        <ele>263</ele>
        <time>2018-04-14T09:12:51Z</time>
      </trkpt>
      <trkpt lat="45.94251" lon="4.82101">
        <ele>262</ele>
        <time>2018-04-14T09:12:52Z</time>
      </trkpt>
      <trkpt lat="45.94251" lon="4.82108">
        <ele>262</ele>
        <time>2018-04-14T09:12:53Z</time>
      </trkpt>
      <trkpt lat="45.94251" lon="4.82114">
        <ele>263</ele>
        <time>2018-04-14T09:12:54Z</time>
      </trkpt>
      <trkpt lat="45.94253" lon="4.8212">
        <ele>263</ele>
        <time>2018-04-14T09:12:55Z</time>
      </trkpt>
      <trkpt lat="45.94254" lon="4.82127">
        <ele>263</ele>
        <time>2018-04-14T09:12:56Z</time>
      </trkpt>
      <trkpt lat="45.94255" lon="4.82133">
        <ele>263</ele>
        <time>2018-04-14T09:12:57Z</time>
      </trkpt>
      <trkpt lat="45.94256" lon="4.8214">
        <ele>263</ele>
        <time>2018-04-14T09:12:58Z</time>
      </trkpt>
      <trkpt lat="45.94259" lon="4.82151">
        <ele>263</ele>
        <time>2018-04-14T09:13:00Z</time>
      </trkpt>
      <trkpt lat="45.94259" lon="4.82158">
        <ele>263</ele>
        <time>2018-04-14T09:13:01Z</time>
      </trkpt>
      <trkpt lat="45.94264" lon="4.82168">
        <ele>263</ele>
        <time>2018-04-14T09:13:03Z</time>
      </trkpt>
      <trkpt lat="45.94265" lon="4.82174">
        <ele>263</ele>
        <time>2018-04-14T09:13:04Z</time>
      </trkpt>
      <trkpt lat="45.94266" lon="4.82182">
        <ele>264</ele>
        <time>2018-04-14T09:13:05Z</time>
      </trkpt>
      <trkpt lat="45.94267" lon="4.82188">
        <ele>264</ele>
        <time>2018-04-14T09:13:06Z</time>
      </trkpt>
      <trkpt lat="45.94267" lon="4.82195">
        <ele>264</ele>
        <time>2018-04-14T09:13:07Z</time>
      </trkpt>
      <trkpt lat="45.94267" lon="4.82202">
        <ele>264</ele>
        <time>2018-04-14T09:13:08Z</time>
      </trkpt>
      <trkpt lat="45.94269" lon="4.82213">
        <ele>264</ele>
        <time>2018-04-14T09:13:10Z</time>
      </trkpt>
      <trkpt lat="45.94269" lon="4.82219">
        <ele>264</ele>
        <time>2018-04-14T09:13:11Z</time>
      </trkpt>
      <trkpt lat="45.9427" lon="4.8223">
        <ele>264</ele>
        <time>2018-04-14T09:13:13Z</time>
      </trkpt>
      <trkpt lat="45.9427" lon="4.82236">
        <ele>264</ele>
        <time>2018-04-14T09:13:14Z</time>
      </trkpt>
      <trkpt lat="45.94272" lon="4.82248">
        <ele>264</ele>
        <time>2018-04-14T09:13:16Z</time>
      </trkpt>
      <trkpt lat="45.94273" lon="4.82254">
        <ele>265</ele>
        <time>2018-04-14T09:13:17Z</time>
      </trkpt>
      <trkpt lat="45.94273" lon="4.82265">
        <ele>265</ele>
        <time>2018-04-14T09:13:19Z</time>
      </trkpt>
      <trkpt lat="45.94273" lon="4.82271">
        <ele>265</ele>
        <time>2018-04-14T09:13:20Z</time>
      </trkpt>
      <trkpt lat="45.94273" lon="4.82278">
        <ele>265</ele>
        <time>2018-04-14T09:13:21Z</time>
      </trkpt>
      <trkpt lat="45.94274" lon="4.82288">
        <ele>265</ele>
        <time>2018-04-14T09:13:22Z</time>
      </trkpt>
      <trkpt lat="45.94275" lon="4.82295">
        <ele>265</ele>
        <time>2018-04-14T09:13:23Z</time>
      </trkpt>
      <trkpt lat="45.94276" lon="4.82303">
        <ele>265</ele>
        <time>2018-04-14T09:13:24Z</time>
      </trkpt>
      <trkpt lat="45.94276" lon="4.82311">
        <ele>265</ele>
        <time>2018-04-14T09:13:25Z</time>
      </trkpt>
      <trkpt lat="45.94277" lon="4.82318">
        <ele>265</ele>
        <time>2018-04-14T09:13:26Z</time>
      </trkpt>
      <trkpt lat="45.94277" lon="4.82325">
        <ele>265</ele>
        <time>2018-04-14T09:13:27Z</time>
      </trkpt>
      <trkpt lat="45.94277" lon="4.82331">
        <ele>265</ele>
        <time>2018-04-14T09:13:28Z</time>
      </trkpt>
      <trkpt lat="45.94278" lon="4.82342">
        <ele>264</ele>
        <time>2018-04-14T09:13:29Z</time>
      </trkpt>
      <trkpt lat="45.94278" lon="4.82348">
        <ele>264</ele>
        <time>2018-04-14T09:13:30Z</time>
      </trkpt>
      <trkpt lat="45.94279" lon="4.82359">
        <ele>264</ele>
        <time>2018-04-14T09:13:32Z</time>
      </trkpt>
      <trkpt lat="45.94279" lon="4.82366">
        <ele>264</ele>
        <time>2018-04-14T09:13:33Z</time>
      </trkpt>
      <trkpt lat="45.94279" lon="4.82378">
        <ele>264</ele>
        <time>2018-04-14T09:13:35Z</time>
      </trkpt>
      <trkpt lat="45.94279" lon="4.82384">
        <ele>264</ele>
        <time>2018-04-14T09:13:36Z</time>
      </trkpt>
      <trkpt lat="45.94279" lon="4.82396">
        <ele>264</ele>
        <time>2018-04-14T09:13:38Z</time>
      </trkpt>
      <trkpt lat="45.94279" lon="4.82402">
        <ele>264</ele>
        <time>2018-04-14T09:13:39Z</time>
      </trkpt>
      <trkpt lat="45.9428" lon="4.82411">
        <ele>264</ele>
        <time>2018-04-14T09:13:41Z</time>
      </trkpt>
      <trkpt lat="45.9428" lon="4.82419">
        <ele>264</ele>
        <time>2018-04-14T09:13:42Z</time>
      </trkpt>
      <trkpt lat="45.94281" lon="4.8243">
        <ele>264</ele>
        <time>2018-04-14T09:13:44Z</time>
      </trkpt>
      <trkpt lat="45.94281" lon="4.82436">
        <ele>264</ele>
        <time>2018-04-14T09:13:45Z</time>
      </trkpt>
      <trkpt lat="45.94281" lon="4.82447">
        <ele>264</ele>
        <time>2018-04-14T09:13:47Z</time>
      </trkpt>
      <trkpt lat="45.94282" lon="4.82453">
        <ele>264</ele>
        <time>2018-04-14T09:13:48Z</time>
      </trkpt>
      <trkpt lat="45.94282" lon="4.82464">
        <ele>264</ele>
        <time>2018-04-14T09:13:50Z</time>
      </trkpt>
      <trkpt lat="45.94283" lon="4.8247">
        <ele>264</ele>
        <time>2018-04-14T09:13:51Z</time>
      </trkpt>
      <trkpt lat="45.94283" lon="4.82483">
        <ele>264</ele>
        <time>2018-04-14T09:13:53Z</time>
      </trkpt>
      <trkpt lat="45.94284" lon="4.82489">
        <ele>264</ele>
        <time>2018-04-14T09:13:54Z</time>
      </trkpt>
      <trkpt lat="45.94284" lon="4.82501">
        <ele>264</ele>
        <time>2018-04-14T09:13:56Z</time>
      </trkpt>
      <trkpt lat="45.94284" lon="4.82507">
        <ele>264</ele>
        <time>2018-04-14T09:13:57Z</time>
      </trkpt>
      <trkpt lat="45.94284" lon="4.82518">
        <ele>264</ele>
        <time>2018-04-14T09:13:59Z</time>
      </trkpt>
      <trkpt lat="45.94284" lon="4.82524">
        <ele>264</ele>
        <time>2018-04-14T09:14:00Z</time>
      </trkpt>
      <trkpt lat="45.94284" lon="4.82535">
        <ele>264</ele>
        <time>2018-04-14T09:14:02Z</time>
      </trkpt>
      <trkpt lat="45.94284" lon="4.82538">
        <ele>264</ele>
        <time>2018-04-14T09:14:03Z</time>
      </trkpt>
      <trkpt lat="45.94283" lon="4.82545">
        <ele>264</ele>
        <time>2018-04-14T09:14:05Z</time>
      </trkpt>
      <trkpt lat="45.94283" lon="4.82555">
        <ele>264</ele>
        <time>2018-04-14T09:14:06Z</time>
      </trkpt>
      <trkpt lat="45.94283" lon="4.82565">
        <ele>265</ele>
        <time>2018-04-14T09:14:08Z</time>
      </trkpt>
      <trkpt lat="45.94283" lon="4.82571">
        <ele>265</ele>
        <time>2018-04-14T09:14:09Z</time>
      </trkpt>
      <trkpt lat="45.94283" lon="4.82583">
        <ele>265</ele>
        <time>2018-04-14T09:14:11Z</time>
      </trkpt>
      <trkpt lat="45.94284" lon="4.82589">
        <ele>265</ele>
        <time>2018-04-14T09:14:12Z</time>
      </trkpt>
      <trkpt lat="45.94284" lon="4.82601">
        <ele>265</ele>
        <time>2018-04-14T09:14:14Z</time>
      </trkpt>
      <trkpt lat="45.94284" lon="4.82606">
        <ele>265</ele>
        <time>2018-04-14T09:14:15Z</time>
      </trkpt>
      <trkpt lat="45.94284" lon="4.82618">
        <ele>265</ele>
        <time>2018-04-14T09:14:17Z</time>
      </trkpt>
      <trkpt lat="45.94283" lon="4.82624">
        <ele>265</ele>
        <time>2018-04-14T09:14:18Z</time>
      </trkpt>
      <trkpt lat="45.94283" lon="4.82636">
        <ele>265</ele>
        <time>2018-04-14T09:14:20Z</time>
      </trkpt>
      <trkpt lat="45.94283" lon="4.82642">
        <ele>265</ele>
        <time>2018-04-14T09:14:21Z</time>
      </trkpt>
      <trkpt lat="45.94283" lon="4.82654">
        <ele>265</ele>
        <time>2018-04-14T09:14:23Z</time>
      </trkpt>
      <trkpt lat="45.94283" lon="4.8266">
        <ele>265</ele>
        <time>2018-04-14T09:14:24Z</time>
      </trkpt>
      <trkpt lat="45.94284" lon="4.82671">
        <ele>265</ele>
        <time>2018-04-14T09:14:26Z</time>
      </trkpt>
      <trkpt lat="45.94284" lon="4.82677">
        <ele>265</ele>
        <time>2018-04-14T09:14:27Z</time>
      </trkpt>
      <trkpt lat="45.94286" lon="4.82686">
        <ele>265</ele>
        <time>2018-04-14T09:14:28Z</time>
      </trkpt>
      <trkpt lat="45.94286" lon="4.82692">
        <ele>265</ele>
        <time>2018-04-14T09:14:29Z</time>
      </trkpt>
      <trkpt lat="45.94286" lon="4.827">
        <ele>265</ele>
        <time>2018-04-14T09:14:30Z</time>
      </trkpt>
      <trkpt lat="45.94285" lon="4.82705">
        <ele>265</ele>
        <time>2018-04-14T09:14:31Z</time>
      </trkpt>
      <trkpt lat="45.94285" lon="4.82718">
        <ele>265</ele>
        <time>2018-04-14T09:14:33Z</time>
      </trkpt>
      <trkpt lat="45.94284" lon="4.82724">
        <ele>265</ele>
        <time>2018-04-14T09:14:34Z</time>
      </trkpt>
      <trkpt lat="45.94284" lon="4.82731">
        <ele>265</ele>
        <time>2018-04-14T09:14:35Z</time>
      </trkpt>
      <trkpt lat="45.94285" lon="4.82738">
        <ele>265</ele>
        <time>2018-04-14T09:14:36Z</time>
      </trkpt>
      <trkpt lat="45.94286" lon="4.8275">
        <ele>265</ele>
        <time>2018-04-14T09:14:38Z</time>
      </trkpt>
      <trkpt lat="45.94285" lon="4.82756">
        <ele>265</ele>
        <time>2018-04-14T09:14:39Z</time>
      </trkpt>
      <trkpt lat="45.94286" lon="4.82767">
        <ele>265</ele>
        <time>2018-04-14T09:14:41Z</time>
      </trkpt>
      <trkpt lat="45.94286" lon="4.82773">
        <ele>265</ele>
        <time>2018-04-14T09:14:42Z</time>
      </trkpt>
      <trkpt lat="45.94286" lon="4.82785">
        <ele>265</ele>
        <time>2018-04-14T09:14:44Z</time>
      </trkpt>
      <trkpt lat="45.94285" lon="4.82791">
        <ele>265</ele>
        <time>2018-04-14T09:14:45Z</time>
      </trkpt>
      <trkpt lat="45.94285" lon="4.82803">
        <ele>265</ele>
        <time>2018-04-14T09:14:47Z</time>
      </trkpt>
      <trkpt lat="45.94285" lon="4.82809">
        <ele>265</ele>
        <time>2018-04-14T09:14:48Z</time>
      </trkpt>
      <trkpt lat="45.94285" lon="4.82821">
        <ele>265</ele>
        <time>2018-04-14T09:14:50Z</time>
      </trkpt>
      <trkpt lat="45.94286" lon="4.82827">
        <ele>265</ele>
        <time>2018-04-14T09:14:51Z</time>
      </trkpt>
      <trkpt lat="45.94286" lon="4.82834">
        <ele>265</ele>
        <time>2018-04-14T09:14:52Z</time>
      </trkpt>
      <trkpt lat="45.94286" lon="4.82841">
        <ele>265</ele>
        <time>2018-04-14T09:14:53Z</time>
      </trkpt>
      <trkpt lat="45.94285" lon="4.82853">
        <ele>265</ele>
        <time>2018-04-14T09:14:55Z</time>
      </trkpt>
      <trkpt lat="45.94284" lon="4.82858">
        <ele>265</ele>
        <time>2018-04-14T09:14:56Z</time>
      </trkpt>
      <trkpt lat="45.94283" lon="4.82869">
        <ele>265</ele>
        <time>2018-04-14T09:14:58Z</time>
      </trkpt>
      <trkpt lat="45.94283" lon="4.82872">
        <ele>265</ele>
        <time>2018-04-14T09:14:59Z</time>
      </trkpt>
      <trkpt lat="45.94282" lon="4.82883">
        <ele>265</ele>
        <time>2018-04-14T09:15:02Z</time>
      </trkpt>
      <trkpt lat="45.94282" lon="4.82895">
        <ele>265</ele>
        <time>2018-04-14T09:15:03Z</time>
      </trkpt>
      <trkpt lat="45.94281" lon="4.82906">
        <ele>265</ele>
        <time>2018-04-14T09:15:05Z</time>
      </trkpt>
      <trkpt lat="45.94281" lon="4.82912">
        <ele>265</ele>
        <time>2018-04-14T09:15:06Z</time>
      </trkpt>
      <trkpt lat="45.94281" lon="4.82923">
        <ele>265</ele>
        <time>2018-04-14T09:15:08Z</time>
      </trkpt>
      <trkpt lat="45.94281" lon="4.82928">
        <ele>265</ele>
        <time>2018-04-14T09:15:09Z</time>
      </trkpt>
      <trkpt lat="45.9428" lon="4.82941">
        <ele>265</ele>
        <time>2018-04-14T09:15:11Z</time>
      </trkpt>
      <trkpt lat="45.94281" lon="4.82947">
        <ele>265</ele>
        <time>2018-04-14T09:15:12Z</time>
      </trkpt>
      <trkpt lat="45.94282" lon="4.82956">
        <ele>265</ele>
        <time>2018-04-14T09:15:13Z</time>
      </trkpt>
      <trkpt lat="45.94282" lon="4.82962">
        <ele>265</ele>
        <time>2018-04-14T09:15:14Z</time>
      </trkpt>
      <trkpt lat="45.94285" lon="4.82969">
        <ele>265</ele>
        <time>2018-04-14T09:15:15Z</time>
      </trkpt>
      <trkpt lat="45.94286" lon="4.82976">
        <ele>265</ele>
        <time>2018-04-14T09:15:16Z</time>
      </trkpt>
      <trkpt lat="45.94288" lon="4.82982">
        <ele>265</ele>
        <time>2018-04-14T09:15:17Z</time>
      </trkpt>
      <trkpt lat="45.9429" lon="4.82989">
        <ele>265</ele>
        <time>2018-04-14T09:15:18Z</time>
      </trkpt>
      <trkpt lat="45.94292" lon="4.82997">
        <ele>265</ele>
        <time>2018-04-14T09:15:19Z</time>
      </trkpt>
      <trkpt lat="45.94292" lon="4.83004">
        <ele>266</ele>
        <time>2018-04-14T09:15:20Z</time>
      </trkpt>
      <trkpt lat="45.94293" lon="4.83016">
        <ele>266</ele>
        <time>2018-04-14T09:15:22Z</time>
      </trkpt>
      <trkpt lat="45.94293" lon="4.83021">
        <ele>266</ele>
        <time>2018-04-14T09:15:23Z</time>
      </trkpt>
      <trkpt lat="45.94295" lon="4.8303">
        <ele>266</ele>
        <time>2018-04-14T09:15:24Z</time>
      </trkpt>
      <trkpt lat="45.94299" lon="4.8304">
        <ele>266</ele>
        <time>2018-04-14T09:15:25Z</time>
      </trkpt>
      <trkpt lat="45.94301" lon="4.83051">
        <ele>266</ele>
        <time>2018-04-14T09:15:27Z</time>
      </trkpt>
      <trkpt lat="45.94302" lon="4.83057">
        <ele>266</ele>
        <time>2018-04-14T09:15:28Z</time>
      </trkpt>
      <trkpt lat="45.94305" lon="4.83069">
        <ele>266</ele>
        <time>2018-04-14T09:15:30Z</time>
      </trkpt>
      <trkpt lat="45.94306" lon="4.83075">
        <ele>266</ele>
        <time>2018-04-14T09:15:31Z</time>
      </trkpt>
      <trkpt lat="45.94308" lon="4.83081">
        <ele>266</ele>
        <time>2018-04-14T09:15:32Z</time>
      </trkpt>
      <trkpt lat="45.94309" lon="4.83088">
        <ele>266</ele>
        <time>2018-04-14T09:15:33Z</time>
      </trkpt>
      <trkpt lat="45.94312" lon="4.83095">
        <ele>266</ele>
        <time>2018-04-14T09:15:34Z</time>
      </trkpt>
      <trkpt lat="45.94313" lon="4.83101">
        <ele>266</ele>
        <time>2018-04-14T09:15:35Z</time>
      </trkpt>
      <trkpt lat="45.94316" lon="4.83107">
        <ele>266</ele>
        <time>2018-04-14T09:15:36Z</time>
      </trkpt>
      <trkpt lat="45.94319" lon="4.83113">
        <ele>266</ele>
        <time>2018-04-14T09:15:37Z</time>
      </trkpt>
      <trkpt lat="45.94321" lon="4.83119">
        <ele>266</ele>
        <time>2018-04-14T09:15:38Z</time>
      </trkpt>
      <trkpt lat="45.94323" lon="4.83124">
        <ele>266</ele>
        <time>2018-04-14T09:15:39Z</time>
      </trkpt>
      <trkpt lat="45.94325" lon="4.83129">
        <ele>266</ele>
        <time>2018-04-14T09:15:40Z</time>
      </trkpt>
      <trkpt lat="45.94328" lon="4.83136">
        <ele>266</ele>
        <time>2018-04-14T09:15:41Z</time>
      </trkpt>
      <trkpt lat="45.94331" lon="4.83143">
        <ele>266</ele>
        <time>2018-04-14T09:15:42Z</time>
      </trkpt>
      <trkpt lat="45.94333" lon="4.8315">
        <ele>266</ele>
        <time>2018-04-14T09:15:43Z</time>
      </trkpt>
      <trkpt lat="45.94336" lon="4.83161">
        <ele>266</ele>
        <time>2018-04-14T09:15:45Z</time>
      </trkpt>
      <trkpt lat="45.94339" lon="4.8317">
        <ele>266</ele>
        <time>2018-04-14T09:15:46Z</time>
      </trkpt>
      <trkpt lat="45.94341" lon="4.83177">
        <ele>266</ele>
        <time>2018-04-14T09:15:47Z</time>
      </trkpt>
      <trkpt lat="45.94343" lon="4.83184">
        <ele>266</ele>
        <time>2018-04-14T09:15:48Z</time>
      </trkpt>
      <trkpt lat="45.94345" lon="4.83189">
        <ele>266</ele>
        <time>2018-04-14T09:15:49Z</time>
      </trkpt>
      <trkpt lat="45.94348" lon="4.83195">
        <ele>266</ele>
        <time>2018-04-14T09:15:50Z</time>
      </trkpt>
      <trkpt lat="45.9435" lon="4.83202">
        <ele>266</ele>
        <time>2018-04-14T09:15:51Z</time>
      </trkpt>
      <trkpt lat="45.94353" lon="4.83207">
        <ele>266</ele>
        <time>2018-04-14T09:15:52Z</time>
      </trkpt>
      <trkpt lat="45.94356" lon="4.83215">
        <ele>266</ele>
        <time>2018-04-14T09:15:53Z</time>
      </trkpt>
      <trkpt lat="45.94359" lon="4.83222">
        <ele>266</ele>
        <time>2018-04-14T09:15:54Z</time>
      </trkpt>
      <trkpt lat="45.94361" lon="4.83228">
        <ele>266</ele>
        <time>2018-04-14T09:15:55Z</time>
      </trkpt>
      <trkpt lat="45.94363" lon="4.83234">
        <ele>266</ele>
        <time>2018-04-14T09:15:56Z</time>
      </trkpt>
      <trkpt lat="45.94365" lon="4.83241">
        <ele>265</ele>
        <time>2018-04-14T09:15:57Z</time>
      </trkpt>
      <trkpt lat="45.94367" lon="4.83247">
        <ele>265</ele>
        <time>2018-04-14T09:15:58Z</time>
      </trkpt>
      <trkpt lat="45.9437" lon="4.83254">
        <ele>265</ele>
        <time>2018-04-14T09:15:59Z</time>
      </trkpt>
      <trkpt lat="45.94373" lon="4.83262">
        <ele>264</ele>
        <time>2018-04-14T09:16:00Z</time>
      </trkpt>
      <trkpt lat="45.94375" lon="4.83267">
        <ele>264</ele>
        <time>2018-04-14T09:16:01Z</time>
      </trkpt>
      <trkpt lat="45.94377" lon="4.83274">
        <ele>264</ele>
        <time>2018-04-14T09:16:02Z</time>
      </trkpt>
      <trkpt lat="45.94379" lon="4.8328">
        <ele>264</ele>
        <time>2018-04-14T09:16:03Z</time>
      </trkpt>
      <trkpt lat="45.94381" lon="4.83287">
        <ele>264</ele>
        <time>2018-04-14T09:16:04Z</time>
      </trkpt>
      <trkpt lat="45.94385" lon="4.83293">
        <ele>264</ele>
        <time>2018-04-14T09:16:05Z</time>
      </trkpt>
      <trkpt lat="45.94387" lon="4.83299">
        <ele>264</ele>
        <time>2018-04-14T09:16:06Z</time>
      </trkpt>
      <trkpt lat="45.94389" lon="4.83306">
        <ele>264</ele>
        <time>2018-04-14T09:16:07Z</time>
      </trkpt>
      <trkpt lat="45.94391" lon="4.83312">
        <ele>264</ele>
        <time>2018-04-14T09:16:08Z</time>
      </trkpt>
      <trkpt lat="45.94394" lon="4.83318">
        <ele>264</ele>
        <time>2018-04-14T09:16:09Z</time>
      </trkpt>
      <trkpt lat="45.94396" lon="4.83324">
        <ele>264</ele>
        <time>2018-04-14T09:16:10Z</time>
      </trkpt>
      <trkpt lat="45.94398" lon="4.83331">
        <ele>264</ele>
        <time>2018-04-14T09:16:11Z</time>
      </trkpt>
      <trkpt lat="45.94401" lon="4.83337">
        <ele>263</ele>
        <time>2018-04-14T09:16:12Z</time>
      </trkpt>
      <trkpt lat="45.94403" lon="4.83342">
        <ele>263</ele>
        <time>2018-04-14T09:16:13Z</time>
      </trkpt>
      <trkpt lat="45.94406" lon="4.8335">
        <ele>263</ele>
        <time>2018-04-14T09:16:14Z</time>
      </trkpt>
      <trkpt lat="45.94409" lon="4.83356">
        <ele>263</ele>
        <time>2018-04-14T09:16:15Z</time>
      </trkpt>
      <trkpt lat="45.94411" lon="4.83363">
        <ele>264</ele>
        <time>2018-04-14T09:16:16Z</time>
      </trkpt>
      <trkpt lat="45.94414" lon="4.83369">
        <ele>264</ele>
        <time>2018-04-14T09:16:17Z</time>
      </trkpt>
      <trkpt lat="45.94416" lon="4.83374">
        <ele>264</ele>
        <time>2018-04-14T09:16:18Z</time>
      </trkpt>
      <trkpt lat="45.9442" lon="4.83385">
        <ele>264</ele>
        <time>2018-04-14T09:16:20Z</time>
      </trkpt>
      <trkpt lat="45.94423" lon="4.83391">
        <ele>264</ele>
        <time>2018-04-14T09:16:21Z</time>
      </trkpt>
      <trkpt lat="45.94425" lon="4.83397">
        <ele>264</ele>
        <time>2018-04-14T09:16:22Z</time>
      </trkpt>
      <trkpt lat="45.94428" lon="4.83403">
        <ele>264</ele>
        <time>2018-04-14T09:16:23Z</time>
      </trkpt>
      <trkpt lat="45.94431" lon="4.83409">
        <ele>264</ele>
        <time>2018-04-14T09:16:24Z</time>
      </trkpt>
      <trkpt lat="45.94433" lon="4.83414">
        <ele>264</ele>
        <time>2018-04-14T09:16:25Z</time>
      </trkpt>
      <trkpt lat="45.94435" lon="4.8342">
        <ele>264</ele>
        <time>2018-04-14T09:16:26Z</time>
      </trkpt>
      <trkpt lat="45.94438" lon="4.83426">
        <ele>264</ele>
        <time>2018-04-14T09:16:27Z</time>
      </trkpt>
      <trkpt lat="45.94441" lon="4.83432">
        <ele>263</ele>
        <time>2018-04-14T09:16:28Z</time>
      </trkpt>
      <trkpt lat="45.94444" lon="4.83439">
        <ele>263</ele>
        <time>2018-04-14T09:16:29Z</time>
      </trkpt>
      <trkpt lat="45.94448" lon="4.83444">
        <ele>263</ele>
        <time>2018-04-14T09:16:30Z</time>
      </trkpt>
      <trkpt lat="45.94452" lon="4.8345">
        <ele>263</ele>
        <time>2018-04-14T09:16:31Z</time>
      </trkpt>
      <trkpt lat="45.94454" lon="4.83455">
        <ele>263</ele>
        <time>2018-04-14T09:16:32Z</time>
      </trkpt>
      <trkpt lat="45.94457" lon="4.83461">
        <ele>263</ele>
        <time>2018-04-14T09:16:33Z</time>
      </trkpt>
      <trkpt lat="45.94461" lon="4.83469">
        <ele>263</ele>
        <time>2018-04-14T09:16:34Z</time>
      </trkpt>
      <trkpt lat="45.94464" lon="4.83475">
        <ele>263</ele>
        <time>2018-04-14T09:16:35Z</time>
      </trkpt>
      <trkpt lat="45.94467" lon="4.8348">
        <ele>263</ele>
        <time>2018-04-14T09:16:36Z</time>
      </trkpt>
      <trkpt lat="45.9447" lon="4.83486">
        <ele>263</ele>
        <time>2018-04-14T09:16:37Z</time>
      </trkpt>
      <trkpt lat="45.94474" lon="4.83492">
        <ele>263</ele>
        <time>2018-04-14T09:16:38Z</time>
      </trkpt>
      <trkpt lat="45.94478" lon="4.83498">
        <ele>263</ele>
        <time>2018-04-14T09:16:39Z</time>
      </trkpt>
      <trkpt lat="45.94481" lon="4.83503">
        <ele>262</ele>
        <time>2018-04-14T09:16:40Z</time>
      </trkpt>
      <trkpt lat="45.94485" lon="4.83508">
        <ele>262</ele>
        <time>2018-04-14T09:16:41Z</time>
      </trkpt>
      <trkpt lat="45.94488" lon="4.83513">
        <ele>262</ele>
        <time>2018-04-14T09:16:42Z</time>
      </trkpt>
      <trkpt lat="45.94492" lon="4.83518">
        <ele>262</ele>
        <time>2018-04-14T09:16:43Z</time>
      </trkpt>
      <trkpt lat="45.94495" lon="4.83524">
        <ele>262</ele>
        <time>2018-04-14T09:16:44Z</time>
      </trkpt>
      <trkpt lat="45.94499" lon="4.83529">
        <ele>262</ele>
        <time>2018-04-14T09:16:45Z</time>
      </trkpt>
      <trkpt lat="45.94501" lon="4.83534">
        <ele>262</ele>
        <time>2018-04-14T09:16:46Z</time>
      </trkpt>
      <trkpt lat="45.94504" lon="4.8354">
        <ele>262</ele>
        <time>2018-04-14T09:16:47Z</time>
      </trkpt>
      <trkpt lat="45.94507" lon="4.83546">
        <ele>261</ele>
        <time>2018-04-14T09:16:48Z</time>
      </trkpt>
      <trkpt lat="45.94511" lon="4.83552">
        <ele>261</ele>
        <time>2018-04-14T09:16:49Z</time>
      </trkpt>
      <trkpt lat="45.94513" lon="4.83558">
        <ele>261</ele>
        <time>2018-04-14T09:16:50Z</time>
      </trkpt>
      <trkpt lat="45.94516" lon="4.83563">
        <ele>261</ele>
        <time>2018-04-14T09:16:51Z</time>
      </trkpt>
      <trkpt lat="45.94519" lon="4.8357">
        <ele>261</ele>
        <time>2018-04-14T09:16:52Z</time>
      </trkpt>
      <trkpt lat="45.94522" lon="4.83576">
        <ele>261</ele>
        <time>2018-04-14T09:16:53Z</time>
      </trkpt>
      <trkpt lat="45.94526" lon="4.83587">
        <ele>261</ele>
        <time>2018-04-14T09:16:55Z</time>
      </trkpt>
      <trkpt lat="45.94528" lon="4.83593">
        <ele>261</ele>
        <time>2018-04-14T09:16:56Z</time>
      </trkpt>
      <trkpt lat="45.94531" lon="4.836">
        <ele>261</ele>
        <time>2018-04-14T09:16:57Z</time>
      </trkpt>
      <trkpt lat="45.94533" lon="4.83607">
        <ele>261</ele>
        <time>2018-04-14T09:16:58Z</time>
      </trkpt>
      <trkpt lat="45.94534" lon="4.83614">
        <ele>261</ele>
        <time>2018-04-14T09:16:59Z</time>
      </trkpt>
      <trkpt lat="45.94534" lon="4.83621">
        <ele>261</ele>
        <time>2018-04-14T09:17:00Z</time>
      </trkpt>
      <trkpt lat="45.94535" lon="4.83628">
        <ele>261</ele>
        <time>2018-04-14T09:17:01Z</time>
      </trkpt>
      <trkpt lat="45.94537" lon="4.83635">
        <ele>261</ele>
        <time>2018-04-14T09:17:02Z</time>
      </trkpt>
      <trkpt lat="45.94538" lon="4.83642">
        <ele>261</ele>
        <time>2018-04-14T09:17:03Z</time>
      </trkpt>
      <trkpt lat="45.94538" lon="4.83649">
        <ele>261</ele>
        <time>2018-04-14T09:17:04Z</time>
      </trkpt>
      <trkpt lat="45.9454" lon="4.83656">
        <ele>261</ele>
        <time>2018-04-14T09:17:05Z</time>
      </trkpt>
      <trkpt lat="45.94542" lon="4.83665">
        <ele>261</ele>
        <time>2018-04-14T09:17:06Z</time>
      </trkpt>
      <trkpt lat="45.94544" lon="4.83673">
        <ele>262</ele>
        <time>2018-04-14T09:17:07Z</time>
      </trkpt>
      <trkpt lat="45.94545" lon="4.83681">
        <ele>262</ele>
        <time>2018-04-14T09:17:08Z</time>
      </trkpt>
      <trkpt lat="45.94547" lon="4.83688">
        <ele>262</ele>
        <time>2018-04-14T09:17:09Z</time>
      </trkpt>
      <trkpt lat="45.94549" lon="4.83694">
        <ele>262</ele>
        <time>2018-04-14T09:17:10Z</time>
      </trkpt>
      <trkpt lat="45.9455" lon="4.83707">
        <ele>262</ele>
        <time>2018-04-14T09:17:12Z</time>
      </trkpt>
      <trkpt lat="45.9455" lon="4.83713">
        <ele>262</ele>
        <time>2018-04-14T09:17:13Z</time>
      </trkpt>
      <trkpt lat="45.94551" lon="4.83721">
        <ele>262</ele>
        <time>2018-04-14T09:17:14Z</time>
      </trkpt>
      <trkpt lat="45.94551" lon="4.83727">
        <ele>262</ele>
        <time>2018-04-14T09:17:15Z</time>
      </trkpt>
      <trkpt lat="45.94552" lon="4.83738">
        <ele>262</ele>
        <time>2018-04-14T09:17:17Z</time>
      </trkpt>
      <trkpt lat="45.94553" lon="4.83746">
        <ele>262</ele>
        <time>2018-04-14T09:17:18Z</time>
      </trkpt>
      <trkpt lat="45.94555" lon="4.83753">
        <ele>263</ele>
        <time>2018-04-14T09:17:19Z</time>
      </trkpt>
      <trkpt lat="45.94557" lon="4.8376">
        <ele>263</ele>
        <time>2018-04-14T09:17:20Z</time>
      </trkpt>
      <trkpt lat="45.94558" lon="4.83767">
        <ele>263</ele>
        <time>2018-04-14T09:17:21Z</time>
      </trkpt>
      <trkpt lat="45.94559" lon="4.83774">
        <ele>264</ele>
        <time>2018-04-14T09:17:22Z</time>
      </trkpt>
      <trkpt lat="45.9456" lon="4.83781">
        <ele>264</ele>
        <time>2018-04-14T09:17:23Z</time>
      </trkpt>
      <trkpt lat="45.9456" lon="4.83788">
        <ele>264</ele>
        <time>2018-04-14T09:17:24Z</time>
      </trkpt>
      <trkpt lat="45.94561" lon="4.83796">
        <ele>264</ele>
        <time>2018-04-14T09:17:25Z</time>
      </trkpt>
      <trkpt lat="45.94561" lon="4.83804">
        <ele>264</ele>
        <time>2018-04-14T09:17:26Z</time>
      </trkpt>
      <trkpt lat="45.94564" lon="4.83811">
        <ele>264</ele>
        <time>2018-04-14T09:17:27Z</time>
      </trkpt>
      <trkpt lat="45.94564" lon="4.83817">
        <ele>264</ele>
        <time>2018-04-14T09:17:28Z</time>
      </trkpt>
      <trkpt lat="45.94566" lon="4.83826">
        <ele>265</ele>
        <time>2018-04-14T09:17:29Z</time>
      </trkpt>
      <trkpt lat="45.94567" lon="4.83832">
        <ele>265</ele>
        <time>2018-04-14T09:17:30Z</time>
      </trkpt>
      <trkpt lat="45.94567" lon="4.83845">
        <ele>266</ele>
        <time>2018-04-14T09:17:32Z</time>
      </trkpt>
      <trkpt lat="45.94567" lon="4.8385">
        <ele>266</ele>
        <time>2018-04-14T09:17:33Z</time>
      </trkpt>
      <trkpt lat="45.94567" lon="4.8386">
        <ele>267</ele>
        <time>2018-04-14T09:17:35Z</time>
      </trkpt>
      <trkpt lat="45.94568" lon="4.83866">
        <ele>267</ele>
        <time>2018-04-14T09:17:36Z</time>
      </trkpt>
      <trkpt lat="45.9457" lon="4.83876">
        <ele>267</ele>
        <time>2018-04-14T09:17:38Z</time>
      </trkpt>
      <trkpt lat="45.94571" lon="4.83882">
        <ele>267</ele>
        <time>2018-04-14T09:17:39Z</time>
      </trkpt>
      <trkpt lat="45.94572" lon="4.83889">
        <ele>267</ele>
        <time>2018-04-14T09:17:40Z</time>
      </trkpt>
      <trkpt lat="45.94571" lon="4.83895">
        <ele>267</ele>
        <time>2018-04-14T09:17:41Z</time>
      </trkpt>
      <trkpt lat="45.94574" lon="4.83906">
        <ele>268</ele>
        <time>2018-04-14T09:17:43Z</time>
      </trkpt>
      <trkpt lat="45.94575" lon="4.83911">
        <ele>268</ele>
        <time>2018-04-14T09:17:44Z</time>
      </trkpt>
      <trkpt lat="45.94576" lon="4.83921">
        <ele>268</ele>
        <time>2018-04-14T09:17:46Z</time>
      </trkpt>
      <trkpt lat="45.94577" lon="4.83927">
        <ele>268</ele>
        <time>2018-04-14T09:17:47Z</time>
      </trkpt>
      <trkpt lat="45.94579" lon="4.83938">
        <ele>269</ele>
        <time>2018-04-14T09:17:49Z</time>
      </trkpt>
      <trkpt lat="45.9458" lon="4.83943">
        <ele>269</ele>
        <time>2018-04-14T09:17:50Z</time>
      </trkpt>
      <trkpt lat="45.94582" lon="4.83955">
        <ele>269</ele>
        <time>2018-04-14T09:17:52Z</time>
      </trkpt>
      <trkpt lat="45.94583" lon="4.83961">
        <ele>269</ele>
        <time>2018-04-14T09:17:53Z</time>
      </trkpt>
      <trkpt lat="45.94586" lon="4.83973">
        <ele>268</ele>
        <time>2018-04-14T09:17:55Z</time>
      </trkpt>
      <trkpt lat="45.94588" lon="4.83978">
        <ele>268</ele>
        <time>2018-04-14T09:17:56Z</time>
      </trkpt>
      <trkpt lat="45.9459" lon="4.83989">
        <ele>269</ele>
        <time>2018-04-14T09:17:58Z</time>
      </trkpt>
      <trkpt lat="45.94591" lon="4.83995">
        <ele>269</ele>
        <time>2018-04-14T09:17:59Z</time>
      </trkpt>
      <trkpt lat="45.94593" lon="4.84005">
        <ele>269</ele>
        <time>2018-04-14T09:18:02Z</time>
      </trkpt>
      <trkpt lat="45.94593" lon="4.84009">
        <ele>269</ele>
        <time>2018-04-14T09:18:03Z</time>
      </trkpt>
      <trkpt lat="45.94595" lon="4.84019">
        <ele>269</ele>
        <time>2018-04-14T09:18:04Z</time>
      </trkpt>
      <trkpt lat="45.94596" lon="4.84024">
        <ele>269</ele>
        <time>2018-04-14T09:18:05Z</time>
      </trkpt>
      <trkpt lat="45.94597" lon="4.84034">
        <ele>269</ele>
        <time>2018-04-14T09:18:07Z</time>
      </trkpt>
      <trkpt lat="45.94597" lon="4.8404">
        <ele>269</ele>
        <time>2018-04-14T09:18:08Z</time>
      </trkpt>
      <trkpt lat="45.94596" lon="4.8405">
        <ele>269</ele>
        <time>2018-04-14T09:18:10Z</time>
      </trkpt>
      <trkpt lat="45.94597" lon="4.84056">
        <ele>269</ele>
        <time>2018-04-14T09:18:11Z</time>
      </trkpt>
      <trkpt lat="45.94599" lon="4.84068">
        <ele>269</ele>
        <time>2018-04-14T09:18:13Z</time>
      </trkpt>
      <trkpt lat="45.946" lon="4.84074">
        <ele>269</ele>
        <time>2018-04-14T09:18:14Z</time>
      </trkpt>
      <trkpt lat="45.94601" lon="4.84084">
        <ele>269</ele>
        <time>2018-04-14T09:18:16Z</time>
      </trkpt>
      <trkpt lat="45.94601" lon="4.84088">
        <ele>269</ele>
        <time>2018-04-14T09:18:17Z</time>
      </trkpt>
      <trkpt lat="45.94605" lon="4.84098">
        <ele>269</ele>
        <time>2018-04-14T09:18:18Z</time>
      </trkpt>
      <trkpt lat="45.94606" lon="4.84103">
        <ele>269</ele>
        <time>2018-04-14T09:18:19Z</time>
      </trkpt>
      <trkpt lat="45.94608" lon="4.84114">
        <ele>269</ele>
        <time>2018-04-14T09:18:21Z</time>
      </trkpt>
      <trkpt lat="45.94609" lon="4.8412">
        <ele>269</ele>
        <time>2018-04-14T09:18:22Z</time>
      </trkpt>
      <trkpt lat="45.94611" lon="4.84132">
        <ele>269</ele>
        <time>2018-04-14T09:18:24Z</time>
      </trkpt>
      <trkpt lat="45.94611" lon="4.84138">
        <ele>269</ele>
        <time>2018-04-14T09:18:25Z</time>
      </trkpt>
      <trkpt lat="45.94612" lon="4.84149">
        <ele>269</ele>
        <time>2018-04-14T09:18:27Z</time>
      </trkpt>
      <trkpt lat="45.94614" lon="4.84155">
        <ele>269</ele>
        <time>2018-04-14T09:18:28Z</time>
      </trkpt>
      <trkpt lat="45.94616" lon="4.84166">
        <ele>269</ele>
        <time>2018-04-14T09:18:30Z</time>
      </trkpt>
      <trkpt lat="45.94617" lon="4.84172">
        <ele>269</ele>
        <time>2018-04-14T09:18:31Z</time>
      </trkpt>
      <trkpt lat="45.94617" lon="4.84184">
        <ele>269</ele>
        <time>2018-04-14T09:18:33Z</time>
      </trkpt>
      <trkpt lat="45.9462" lon="4.84192">
        <ele>269</ele>
        <time>2018-04-14T09:18:34Z</time>
      </trkpt>
      <trkpt lat="45.94622" lon="4.84205">
        <ele>269</ele>
        <time>2018-04-14T09:18:36Z</time>
      </trkpt>
      <trkpt lat="45.94623" lon="4.84211">
        <ele>269</ele>
        <time>2018-04-14T09:18:37Z</time>
      </trkpt>
      <trkpt lat="45.94624" lon="4.84223">
        <ele>269</ele>
        <time>2018-04-14T09:18:39Z</time>
      </trkpt>
      <trkpt lat="45.94624" lon="4.8423">
        <ele>269</ele>
        <time>2018-04-14T09:18:40Z</time>
      </trkpt>
      <trkpt lat="45.94625" lon="4.84236">
        <ele>269</ele>
        <time>2018-04-14T09:18:41Z</time>
      </trkpt>
      <trkpt lat="45.94626" lon="4.84243">
        <ele>269</ele>
        <time>2018-04-14T09:18:42Z</time>
      </trkpt>
      <trkpt lat="45.94627" lon="4.84254">
        <ele>269</ele>
        <time>2018-04-14T09:18:44Z</time>
      </trkpt>
      <trkpt lat="45.94628" lon="4.84259">
        <ele>269</ele>
        <time>2018-04-14T09:18:45Z</time>
      </trkpt>
      <trkpt lat="45.94629" lon="4.8427">
        <ele>269</ele>
        <time>2018-04-14T09:18:47Z</time>
      </trkpt>
      <trkpt lat="45.9463" lon="4.84275">
        <ele>269</ele>
        <time>2018-04-14T09:18:48Z</time>
      </trkpt>
      <trkpt lat="45.94632" lon="4.84286">
        <ele>269</ele>
        <time>2018-04-14T09:18:50Z</time>
      </trkpt>
      <trkpt lat="45.94633" lon="4.84291">
        <ele>269</ele>
        <time>2018-04-14T09:18:51Z</time>
      </trkpt>
      <trkpt lat="45.94634" lon="4.84302">
        <ele>269</ele>
        <time>2018-04-14T09:18:53Z</time>
      </trkpt>
      <trkpt lat="45.94635" lon="4.84307">
        <ele>269</ele>
        <time>2018-04-14T09:18:54Z</time>
      </trkpt>
      <trkpt lat="45.94637" lon="4.84318">
        <ele>269</ele>
        <time>2018-04-14T09:18:56Z</time>
      </trkpt>
      <trkpt lat="45.94638" lon="4.84324">
        <ele>269</ele>
        <time>2018-04-14T09:18:57Z</time>
      </trkpt>
      <trkpt lat="45.94641" lon="4.84332">
        <ele>268</ele>
        <time>2018-04-14T09:18:58Z</time>
      </trkpt>
      <trkpt lat="45.9464" lon="4.84338">
        <ele>268</ele>
        <time>2018-04-14T09:18:59Z</time>
      </trkpt>
      <trkpt lat="45.9464" lon="4.84345">
        <ele>268</ele>
        <time>2018-04-14T09:19:00Z</time>
      </trkpt>
      <trkpt lat="45.94641" lon="4.84351">
        <ele>268</ele>
        <time>2018-04-14T09:19:01Z</time>
      </trkpt>
      <trkpt lat="45.94643" lon="4.84363">
        <ele>268</ele>
        <time>2018-04-14T09:19:03Z</time>
      </trkpt>
      <trkpt lat="45.94643" lon="4.84369">
        <ele>268</ele>
        <time>2018-04-14T09:19:04Z</time>
      </trkpt>
      <trkpt lat="45.94645" lon="4.8438">
        <ele>268</ele>
        <time>2018-04-14T09:19:06Z</time>
      </trkpt>
      <trkpt lat="45.94646" lon="4.84385">
        <ele>268</ele>
        <time>2018-04-14T09:19:07Z</time>
      </trkpt>
      <trkpt lat="45.94647" lon="4.84397">
        <ele>268</ele>
        <time>2018-04-14T09:19:09Z</time>
      </trkpt>
      <trkpt lat="45.94648" lon="4.84403">
        <ele>268</ele>
        <time>2018-04-14T09:19:10Z</time>
      </trkpt>
      <trkpt lat="45.9465" lon="4.84414">
        <ele>268</ele>
        <time>2018-04-14T09:19:12Z</time>
      </trkpt>
      <trkpt lat="45.94651" lon="4.8442">
        <ele>268</ele>
        <time>2018-04-14T09:19:13Z</time>
      </trkpt>
      <trkpt lat="45.94651" lon="4.84431">
        <ele>268</ele>
        <time>2018-04-14T09:19:15Z</time>
      </trkpt>
      <trkpt lat="45.94652" lon="4.84437">
        <ele>268</ele>
        <time>2018-04-14T09:19:16Z</time>
      </trkpt>
      <trkpt lat="45.94652" lon="4.84449">
        <ele>268</ele>
        <time>2018-04-14T09:19:18Z</time>
      </trkpt>
      <trkpt lat="45.94653" lon="4.84455">
        <ele>268</ele>
        <time>2018-04-14T09:19:19Z</time>
      </trkpt>
      <trkpt lat="45.94654" lon="4.84467">
        <ele>268</ele>
        <time>2018-04-14T09:19:21Z</time>
      </trkpt>
      <trkpt lat="45.94654" lon="4.84473">
        <ele>268</ele>
        <time>2018-04-14T09:19:22Z</time>
      </trkpt>
      <trkpt lat="45.94656" lon="4.84479">
        <ele>268</ele>
        <time>2018-04-14T09:19:23Z</time>
      </trkpt>
      <trkpt lat="45.94656" lon="4.84486">
        <ele>268</ele>
        <time>2018-04-14T09:19:24Z</time>
      </trkpt>
      <trkpt lat="45.94656" lon="4.84498">
        <ele>268</ele>
        <time>2018-04-14T09:19:26Z</time>
      </trkpt>
      <trkpt lat="45.94654" lon="4.84506">
        <ele>268</ele>
        <time>2018-04-14T09:19:27Z</time>
      </trkpt>
      <trkpt lat="45.94656" lon="4.84512">
        <ele>268</ele>
        <time>2018-04-14T09:19:28Z</time>
      </trkpt>
      <trkpt lat="45.94657" lon="4.8452">
        <ele>268</ele>
        <time>2018-04-14T09:19:29Z</time>
      </trkpt>
      <trkpt lat="45.94658" lon="4.84532">
        <ele>268</ele>
        <time>2018-04-14T09:19:31Z</time>
      </trkpt>
      <trkpt lat="45.94657" lon="4.84538">
        <ele>268</ele>
        <time>2018-04-14T09:19:32Z</time>
      </trkpt>
      <trkpt lat="45.94658" lon="4.84546">
        <ele>268</ele>
        <time>2018-04-14T09:19:33Z</time>
      </trkpt>
      <trkpt lat="45.94659" lon="4.84553">
        <ele>268</ele>
        <time>2018-04-14T09:19:34Z</time>
      </trkpt>
      <trkpt lat="45.94659" lon="4.84559">
        <ele>268</ele>
        <time>2018-04-14T09:19:35Z</time>
      </trkpt>
      <trkpt lat="45.94662" lon="4.84565">
        <ele>268</ele>
        <time>2018-04-14T09:19:36Z</time>
      </trkpt>
      <trkpt lat="45.94662" lon="4.84572">
        <ele>268</ele>
        <time>2018-04-14T09:19:37Z</time>
      </trkpt>
      <trkpt lat="45.9466" lon="4.84579">
        <ele>268</ele>
        <time>2018-04-14T09:19:38Z</time>
      </trkpt>
      <trkpt lat="45.94659" lon="4.84591">
        <ele>268</ele>
        <time>2018-04-14T09:19:40Z</time>
      </trkpt>
      <trkpt lat="45.94659" lon="4.84598">
        <ele>268</ele>
        <time>2018-04-14T09:19:41Z</time>
      </trkpt>
      <trkpt lat="45.9466" lon="4.84603">
        <ele>268</ele>
        <time>2018-04-14T09:19:42Z</time>
      </trkpt>
      <trkpt lat="45.9466" lon="4.84611">
        <ele>268</ele>
        <time>2018-04-14T09:19:43Z</time>
      </trkpt>
      <trkpt lat="45.94661" lon="4.84623">
        <ele>268</ele>
        <time>2018-04-14T09:19:45Z</time>
      </trkpt>
      <trkpt lat="45.94661" lon="4.8463">
        <ele>268</ele>
        <time>2018-04-14T09:19:46Z</time>
      </trkpt>
      <trkpt lat="45.94661" lon="4.84636">
        <ele>268</ele>
        <time>2018-04-14T09:19:47Z</time>
      </trkpt>
      <trkpt lat="45.94662" lon="4.84643">
        <ele>268</ele>
        <time>2018-04-14T09:19:48Z</time>
      </trkpt>
      <trkpt lat="45.94663" lon="4.8465">
        <ele>269</ele>
        <time>2018-04-14T09:19:49Z</time>
      </trkpt>
      <trkpt lat="45.94663" lon="4.84659">
        <ele>269</ele>
        <time>2018-04-14T09:19:50Z</time>
      </trkpt>
      <trkpt lat="45.94662" lon="4.84666">
        <ele>269</ele>
        <time>2018-04-14T09:19:51Z</time>
      </trkpt>
      <trkpt lat="45.94663" lon="4.84673">
        <ele>269</ele>
        <time>2018-04-14T09:19:52Z</time>
      </trkpt>
      <trkpt lat="45.94662" lon="4.84682">
        <ele>269</ele>
        <time>2018-04-14T09:19:53Z</time>
      </trkpt>
      <trkpt lat="45.94662" lon="4.84689">
        <ele>269</ele>
        <time>2018-04-14T09:19:54Z</time>
      </trkpt>
      <trkpt lat="45.94662" lon="4.84697">
        <ele>269</ele>
        <time>2018-04-14T09:19:55Z</time>
      </trkpt>
      <trkpt lat="45.94661" lon="4.84705">
        <ele>269</ele>
        <time>2018-04-14T09:19:56Z</time>
      </trkpt>
      <trkpt lat="45.9466" lon="4.84711">
        <ele>269</ele>
        <time>2018-04-14T09:19:57Z</time>
      </trkpt>
      <trkpt lat="45.9466" lon="4.84718">
        <ele>269</ele>
        <time>2018-04-14T09:19:58Z</time>
      </trkpt>
      <trkpt lat="45.9466" lon="4.8473">
        <ele>269</ele>
        <time>2018-04-14T09:20:00Z</time>
      </trkpt>
      <trkpt lat="45.94662" lon="4.84734">
        <ele>269</ele>
        <time>2018-04-14T09:20:01Z</time>
      </trkpt>
      <trkpt lat="45.94664" lon="4.84747">
        <ele>269</ele>
        <time>2018-04-14T09:20:03Z</time>
      </trkpt>
      <trkpt lat="45.94664" lon="4.84753">
        <ele>269</ele>
        <time>2018-04-14T09:20:04Z</time>
      </trkpt>
      <trkpt lat="45.94667" lon="4.84765">
        <ele>269</ele>
        <time>2018-04-14T09:20:06Z</time>
      </trkpt>
      <trkpt lat="45.94668" lon="4.84772">
        <ele>269</ele>
        <time>2018-04-14T09:20:07Z</time>
      </trkpt>
      <trkpt lat="45.94668" lon="4.84779">
        <ele>269</ele>
        <time>2018-04-14T09:20:08Z</time>
      </trkpt>
      <trkpt lat="45.94668" lon="4.84786">
        <ele>269</ele>
        <time>2018-04-14T09:20:09Z</time>
      </trkpt>
      <trkpt lat="45.9467" lon="4.84793">
        <ele>268</ele>
        <time>2018-04-14T09:20:10Z</time>
      </trkpt>
      <trkpt lat="45.94671" lon="4.848">
        <ele>268</ele>
        <time>2018-04-14T09:20:11Z</time>
      </trkpt>
      <trkpt lat="45.94671" lon="4.84806">
        <ele>268</ele>
        <time>2018-04-14T09:20:12Z</time>
      </trkpt>
      <trkpt lat="45.94667" lon="4.84812">
        <ele>268</ele>
        <time>2018-04-14T09:20:13Z</time>
      </trkpt>
      <trkpt lat="45.9467" lon="4.84823">
        <ele>268</ele>
        <time>2018-04-14T09:20:15Z</time>
      </trkpt>
      <trkpt lat="45.94671" lon="4.8483">
        <ele>268</ele>
        <time>2018-04-14T09:20:16Z</time>
      </trkpt>
      <trkpt lat="45.94672" lon="4.84836">
        <ele>268</ele>
        <time>2018-04-14T09:20:17Z</time>
      </trkpt>
      <trkpt lat="45.94673" lon="4.84842">
        <ele>268</ele>
        <time>2018-04-14T09:20:18Z</time>
      </trkpt>
      <trkpt lat="45.94673" lon="4.84849">
        <ele>268</ele>
        <time>2018-04-14T09:20:19Z</time>
      </trkpt>
      <trkpt lat="45.94673" lon="4.84856">
        <ele>268</ele>
        <time>2018-04-14T09:20:20Z</time>
      </trkpt>
      <trkpt lat="45.94675" lon="4.84864">
        <ele>268</ele>
        <time>2018-04-14T09:20:21Z</time>
      </trkpt>
      <trkpt lat="45.94677" lon="4.84871">
        <ele>268</ele>
        <time>2018-04-14T09:20:22Z</time>
      </trkpt>
      <trkpt lat="45.94678" lon="4.84884">
        <ele>268</ele>
        <time>2018-04-14T09:20:24Z</time>
      </trkpt>
      <trkpt lat="45.9468" lon="4.84892">
        <ele>268</ele>
        <time>2018-04-14T09:20:25Z</time>
      </trkpt>
      <trkpt lat="45.9468" lon="4.84899">
        <ele>269</ele>
        <time>2018-04-14T09:20:26Z</time>
      </trkpt>
      <trkpt lat="45.94682" lon="4.84906">
        <ele>269</ele>
        <time>2018-04-14T09:20:27Z</time>
      </trkpt>
      <trkpt lat="45.94683" lon="4.84918">
        <ele>269</ele>
        <time>2018-04-14T09:20:29Z</time>
      </trkpt>
      <trkpt lat="45.94684" lon="4.84924">
        <ele>269</ele>
        <time>2018-04-14T09:20:30Z</time>
      </trkpt>
      <trkpt lat="45.94685" lon="4.8493">
        <ele>269</ele>
        <time>2018-04-14T09:20:31Z</time>
      </trkpt>
      <trkpt lat="45.94686" lon="4.84937">
        <ele>269</ele>
        <time>2018-04-14T09:20:32Z</time>
      </trkpt>
      <trkpt lat="45.94687" lon="4.84948">
        <ele>269</ele>
        <time>2018-04-14T09:20:34Z</time>
      </trkpt>
      <trkpt lat="45.94689" lon="4.84954">
        <ele>269</ele>
        <time>2018-04-14T09:20:35Z</time>
      </trkpt>
      <trkpt lat="45.94691" lon="4.84962">
        <ele>269</ele>
        <time>2018-04-14T09:20:36Z</time>
      </trkpt>
      <trkpt lat="45.94692" lon="4.84968">
        <ele>269</ele>
        <time>2018-04-14T09:20:37Z</time>
      </trkpt>
      <trkpt lat="45.94693" lon="4.84975">
        <ele>269</ele>
        <time>2018-04-14T09:20:38Z</time>
      </trkpt>
      <trkpt lat="45.94694" lon="4.84982">
        <ele>269</ele>
        <time>2018-04-14T09:20:39Z</time>
      </trkpt>
      <trkpt lat="45.94696" lon="4.84988">
        <ele>269</ele>
        <time>2018-04-14T09:20:40Z</time>
      </trkpt>
      <trkpt lat="45.94697" lon="4.84997">
        <ele>269</ele>
        <time>2018-04-14T09:20:41Z</time>
      </trkpt>
      <trkpt lat="45.94698" lon="4.85005">
        <ele>269</ele>
        <time>2018-04-14T09:20:42Z</time>
      </trkpt>
      <trkpt lat="45.94699" lon="4.85012">
        <ele>269</ele>
        <time>2018-04-14T09:20:43Z</time>
      </trkpt>
      <trkpt lat="45.94699" lon="4.85019">
        <ele>269</ele>
        <time>2018-04-14T09:20:44Z</time>
      </trkpt>
      <trkpt lat="45.947" lon="4.85027">
        <ele>269</ele>
        <time>2018-04-14T09:20:45Z</time>
      </trkpt>
      <trkpt lat="45.94702" lon="4.85034">
        <ele>269</ele>
        <time>2018-04-14T09:20:46Z</time>
      </trkpt>
      <trkpt lat="45.94701" lon="4.85041">
        <ele>269</ele>
        <time>2018-04-14T09:20:47Z</time>
      </trkpt>
      <trkpt lat="45.94701" lon="4.85049">
        <ele>269</ele>
        <time>2018-04-14T09:20:48Z</time>
      </trkpt>
      <trkpt lat="45.947" lon="4.85055">
        <ele>269</ele>
        <time>2018-04-14T09:20:49Z</time>
      </trkpt>
      <trkpt lat="45.94702" lon="4.85067">
        <ele>269</ele>
        <time>2018-04-14T09:20:51Z</time>
      </trkpt>
      <trkpt lat="45.94703" lon="4.85074">
        <ele>269</ele>
        <time>2018-04-14T09:20:52Z</time>
      </trkpt>
      <trkpt lat="45.94704" lon="4.85085">
        <ele>269</ele>
        <time>2018-04-14T09:20:54Z</time>
      </trkpt>
      <trkpt lat="45.94705" lon="4.85092">
        <ele>269</ele>
        <time>2018-04-14T09:20:55Z</time>
      </trkpt>
      <trkpt lat="45.94705" lon="4.85098">
        <ele>269</ele>
        <time>2018-04-14T09:20:56Z</time>
      </trkpt>
      <trkpt lat="45.94707" lon="4.85106">
        <ele>269</ele>
        <time>2018-04-14T09:20:57Z</time>
      </trkpt>
      <trkpt lat="45.94708" lon="4.85113">
        <ele>269</ele>
        <time>2018-04-14T09:20:58Z</time>
      </trkpt>
      <trkpt lat="45.94708" lon="4.85119">
        <ele>269</ele>
        <time>2018-04-14T09:20:59Z</time>
      </trkpt>
      <trkpt lat="45.9471" lon="4.85126">
        <ele>269</ele>
        <time>2018-04-14T09:21:00Z</time>
      </trkpt>
      <trkpt lat="45.94711" lon="4.85131">
        <ele>269</ele>
        <time>2018-04-14T09:21:01Z</time>
      </trkpt>
      <trkpt lat="45.94712" lon="4.85143">
        <ele>269</ele>
        <time>2018-04-14T09:21:03Z</time>
      </trkpt>
      <trkpt lat="45.94712" lon="4.85149">
        <ele>269</ele>
        <time>2018-04-14T09:21:04Z</time>
      </trkpt>
      <trkpt lat="45.94708" lon="4.8516">
        <ele>269</ele>
        <time>2018-04-14T09:21:06Z</time>
      </trkpt>
      <trkpt lat="45.94709" lon="4.85165">
        <ele>269</ele>
        <time>2018-04-14T09:21:07Z</time>
      </trkpt>
      <trkpt lat="45.94709" lon="4.85176">
        <ele>269</ele>
        <time>2018-04-14T09:21:09Z</time>
      </trkpt>
      <trkpt lat="45.9471" lon="4.85183">
        <ele>269</ele>
        <time>2018-04-14T09:21:10Z</time>
      </trkpt>
      <trkpt lat="45.94711" lon="4.85194">
        <ele>269</ele>
        <time>2018-04-14T09:21:12Z</time>
      </trkpt>
      <trkpt lat="45.94712" lon="4.852">
        <ele>269</ele>
        <time>2018-04-14T09:21:13Z</time>
      </trkpt>
      <trkpt lat="45.94713" lon="4.85205">
        <ele>269</ele>
        <time>2018-04-14T09:21:14Z</time>
      </trkpt>
      <trkpt lat="45.94716" lon="4.85213">
        <ele>269</ele>
        <time>2018-04-14T09:21:15Z</time>
      </trkpt>
      <trkpt lat="45.94717" lon="4.85219">
        <ele>269</ele>
        <time>2018-04-14T09:21:16Z</time>
      </trkpt>
      <trkpt lat="45.94718" lon="4.85226">
        <ele>269</ele>
        <time>2018-04-14T09:21:17Z</time>
      </trkpt>
      <trkpt lat="45.94718" lon="4.85233">
        <ele>269</ele>
        <time>2018-04-14T09:21:18Z</time>
      </trkpt>
      <trkpt lat="45.94719" lon="4.8524">
        <ele>269</ele>
        <time>2018-04-14T09:21:19Z</time>
      </trkpt>
      <trkpt lat="45.9472" lon="4.85246">
        <ele>269</ele>
        <time>2018-04-14T09:21:20Z</time>
      </trkpt>
      <trkpt lat="45.9472" lon="4.85253">
        <ele>269</ele>
        <time>2018-04-14T09:21:21Z</time>
      </trkpt>
      <trkpt lat="45.94721" lon="4.85265">
        <ele>269</ele>
        <time>2018-04-14T09:21:23Z</time>
      </trkpt>
      <trkpt lat="45.94721" lon="4.85272">
        <ele>269</ele>
        <time>2018-04-14T09:21:24Z</time>
      </trkpt>
      <trkpt lat="45.94722" lon="4.85279">
        <ele>269</ele>
        <time>2018-04-14T09:21:25Z</time>
      </trkpt>
      <trkpt lat="45.94722" lon="4.85285">
        <ele>269</ele>
        <time>2018-04-14T09:21:26Z</time>
      </trkpt>
      <trkpt lat="45.94724" lon="4.85294">
        <ele>270</ele>
        <time>2018-04-14T09:21:27Z</time>
      </trkpt>
      <trkpt lat="45.94725" lon="4.85301">
        <ele>270</ele>
        <time>2018-04-14T09:21:28Z</time>
      </trkpt>
      <trkpt lat="45.94728" lon="4.85307">
        <ele>270</ele>
        <time>2018-04-14T09:21:29Z</time>
      </trkpt>
      <trkpt lat="45.94732" lon="4.85314">
        <ele>270</ele>
        <time>2018-04-14T09:21:30Z</time>
      </trkpt>
      <trkpt lat="45.94733" lon="4.85325">
        <ele>270</ele>
        <time>2018-04-14T09:21:32Z</time>
      </trkpt>
      <trkpt lat="45.94733" lon="4.85331">
        <ele>270</ele>
        <time>2018-04-14T09:21:33Z</time>
      </trkpt>
      <trkpt lat="45.94734" lon="4.85343">
        <ele>271</ele>
        <time>2018-04-14T09:21:35Z</time>
      </trkpt>
      <trkpt lat="45.94735" lon="4.8535">
        <ele>271</ele>
        <time>2018-04-14T09:21:36Z</time>
      </trkpt>
      <trkpt lat="45.94734" lon="4.85356">
        <ele>271</ele>
        <time>2018-04-14T09:21:37Z</time>
      </trkpt>
      <trkpt lat="45.94734" lon="4.85363">
        <ele>271</ele>
        <time>2018-04-14T09:21:38Z</time>
      </trkpt>
      <trkpt lat="45.94729" lon="4.85374">
        <ele>271</ele>
        <time>2018-04-14T09:21:40Z</time>
      </trkpt>
      <trkpt lat="45.94731" lon="4.85383">
        <ele>271</ele>
        <time>2018-04-14T09:21:41Z</time>
      </trkpt>
      <trkpt lat="45.94732" lon="4.8539">
        <ele>272</ele>
        <time>2018-04-14T09:21:42Z</time>
      </trkpt>
      <trkpt lat="45.94733" lon="4.85397">
        <ele>272</ele>
        <time>2018-04-14T09:21:43Z</time>
      </trkpt>
      <trkpt lat="45.94733" lon="4.85404">
        <ele>272</ele>
        <time>2018-04-14T09:21:44Z</time>
      </trkpt>
      <trkpt lat="45.94734" lon="4.85411">
        <ele>272</ele>
        <time>2018-04-14T09:21:45Z</time>
      </trkpt>
      <trkpt lat="45.94735" lon="4.85417">
        <ele>273</ele>
        <time>2018-04-14T09:21:46Z</time>
      </trkpt>
      <trkpt lat="45.94735" lon="4.85424">
        <ele>273</ele>
        <time>2018-04-14T09:21:47Z</time>
      </trkpt>
      <trkpt lat="45.94736" lon="4.85436">
        <ele>274</ele>
        <time>2018-04-14T09:21:49Z</time>
      </trkpt>
      <trkpt lat="45.94737" lon="4.85442">
        <ele>274</ele>
        <time>2018-04-14T09:21:50Z</time>
      </trkpt>
      <trkpt lat="45.94737" lon="4.85448">
        <ele>274</ele>
        <time>2018-04-14T09:21:51Z</time>
      </trkpt>
      <trkpt lat="45.94738" lon="4.85455">
        <ele>274</ele>
        <time>2018-04-14T09:21:52Z</time>
      </trkpt>
      <trkpt lat="45.94739" lon="4.85466">
        <ele>274</ele>
        <time>2018-04-14T09:21:54Z</time>
      </trkpt>
      <trkpt lat="45.94739" lon="4.85472">
        <ele>274</ele>
        <time>2018-04-14T09:21:55Z</time>
      </trkpt>
      <trkpt lat="45.9474" lon="4.85484">
        <ele>275</ele>
        <time>2018-04-14T09:21:57Z</time>
      </trkpt>
      <trkpt lat="45.94742" lon="4.8549">
        <ele>275</ele>
        <time>2018-04-14T09:21:58Z</time>
      </trkpt>
      <trkpt lat="45.94745" lon="4.855">
        <ele>276</ele>
        <time>2018-04-14T09:22:00Z</time>
      </trkpt>
      <trkpt lat="45.94746" lon="4.85507">
        <ele>276</ele>
        <time>2018-04-14T09:22:01Z</time>
      </trkpt>
      <trkpt lat="45.94747" lon="4.85517">
        <ele>276</ele>
        <time>2018-04-14T09:22:03Z</time>
      </trkpt>
      <trkpt lat="45.94747" lon="4.85522">
        <ele>276</ele>
        <time>2018-04-14T09:22:04Z</time>
      </trkpt>
      <trkpt lat="45.94749" lon="4.85535">
        <ele>277</ele>
        <time>2018-04-14T09:22:08Z</time>
      </trkpt>
      <trkpt lat="45.9475" lon="4.85538">
        <ele>277</ele>
        <time>2018-04-14T09:22:09Z</time>
      </trkpt>
      <trkpt lat="45.94752" lon="4.8555">
        <ele>278</ele>
        <time>2018-04-14T09:22:12Z</time>
      </trkpt>
      <trkpt lat="45.94752" lon="4.85555">
        <ele>278</ele>
        <time>2018-04-14T09:22:13Z</time>
      </trkpt>
      <trkpt lat="45.94754" lon="4.85563">
        <ele>279</ele>
        <time>2018-04-14T09:22:15Z</time>
      </trkpt>
      <trkpt lat="45.94755" lon="4.85568">
        <ele>279</ele>
        <time>2018-04-14T09:22:16Z</time>
      </trkpt>
      <trkpt lat="45.94756" lon="4.85577">
        <ele>279</ele>
        <time>2018-04-14T09:22:18Z</time>
      </trkpt>
      <trkpt lat="45.94758" lon="4.85581">
        <ele>279</ele>
        <time>2018-04-14T09:22:19Z</time>
      </trkpt>
      <trkpt lat="45.9476" lon="4.8559">
        <ele>280</ele>
        <time>2018-04-14T09:22:21Z</time>
      </trkpt>
      <trkpt lat="45.94761" lon="4.85594">
        <ele>280</ele>
        <time>2018-04-14T09:22:22Z</time>
      </trkpt>
      <trkpt lat="45.94762" lon="4.85603">
        <ele>280</ele>
        <time>2018-04-14T09:22:24Z</time>
      </trkpt>
      <trkpt lat="45.94763" lon="4.85607">
        <ele>280</ele>
        <time>2018-04-14T09:22:25Z</time>
      </trkpt>
      <trkpt lat="45.94766" lon="4.85619">
        <ele>280</ele>
        <time>2018-04-14T09:22:28Z</time>
      </trkpt>
      <trkpt lat="45.94767" lon="4.85623">
        <ele>280</ele>
        <time>2018-04-14T09:22:29Z</time>
      </trkpt>
      <trkpt lat="45.9477" lon="4.85635">
        <ele>280</ele>
        <time>2018-04-14T09:22:32Z</time>
      </trkpt>
      <trkpt lat="45.94771" lon="4.85639">
        <ele>281</ele>
        <time>2018-04-14T09:22:33Z</time>
      </trkpt>
      <trkpt lat="45.94775" lon="4.8565">
        <ele>281</ele>
        <time>2018-04-14T09:22:36Z</time>
      </trkpt>
      <trkpt lat="45.94776" lon="4.85653">
        <ele>281</ele>
        <time>2018-04-14T09:22:37Z</time>
      </trkpt>
      <trkpt lat="45.94778" lon="4.85661">
        <ele>281</ele>
        <time>2018-04-14T09:22:39Z</time>
      </trkpt>
      <trkpt lat="45.9478" lon="4.85665">
        <ele>281</ele>
        <time>2018-04-14T09:22:40Z</time>
      </trkpt>
      <trkpt lat="45.94782" lon="4.85673">
        <ele>280</ele>
        <time>2018-04-14T09:22:42Z</time>
      </trkpt>
      <trkpt lat="45.94784" lon="4.85678">
        <ele>280</ele>
        <time>2018-04-14T09:22:43Z</time>
      </trkpt>
      <trkpt lat="45.94787" lon="4.85691">
        <ele>280</ele>
        <time>2018-04-14T09:22:44Z</time>
      </trkpt>
      <trkpt lat="45.94789" lon="4.85701">
        <ele>280</ele>
        <time>2018-04-14T09:22:46Z</time>
      </trkpt>
      <trkpt lat="45.9479" lon="4.85706">
        <ele>280</ele>
        <time>2018-04-14T09:22:47Z</time>
      </trkpt>
      <trkpt lat="45.94793" lon="4.85718">
        <ele>280</ele>
        <time>2018-04-14T09:22:49Z</time>
      </trkpt>
      <trkpt lat="45.94795" lon="4.85724">
        <ele>280</ele>
        <time>2018-04-14T09:22:50Z</time>
      </trkpt>
      <trkpt lat="45.94797" lon="4.8573">
        <ele>280</ele>
        <time>2018-04-14T09:22:51Z</time>
      </trkpt>
      <trkpt lat="45.948" lon="4.85737">
        <ele>280</ele>
        <time>2018-04-14T09:22:52Z</time>
      </trkpt>
      <trkpt lat="45.94801" lon="4.85742">
        <ele>279</ele>
        <time>2018-04-14T09:22:53Z</time>
      </trkpt>
      <trkpt lat="45.94803" lon="4.85749">
        <ele>279</ele>
        <time>2018-04-14T09:22:54Z</time>
      </trkpt>
      <trkpt lat="45.94805" lon="4.85756">
        <ele>278</ele>
        <time>2018-04-14T09:22:55Z</time>
      </trkpt>
      <trkpt lat="45.94806" lon="4.85763">
        <ele>278</ele>
        <time>2018-04-14T09:22:56Z</time>
      </trkpt>
      <trkpt lat="45.94808" lon="4.85768">
        <ele>278</ele>
        <time>2018-04-14T09:22:57Z</time>
      </trkpt>
      <trkpt lat="45.9481" lon="4.85775">
        <ele>278</ele>
        <time>2018-04-14T09:22:58Z</time>
      </trkpt>
      <trkpt lat="45.94812" lon="4.85782">
        <ele>278</ele>
        <time>2018-04-14T09:22:59Z</time>
      </trkpt>
      <trkpt lat="45.94814" lon="4.85789">
        <ele>278</ele>
        <time>2018-04-14T09:23:00Z</time>
      </trkpt>
      <trkpt lat="45.94814" lon="4.85796">
        <ele>278</ele>
        <time>2018-04-14T09:23:01Z</time>
      </trkpt>
      <trkpt lat="45.94816" lon="4.85803">
        <ele>278</ele>
        <time>2018-04-14T09:23:02Z</time>
      </trkpt>
      <trkpt lat="45.94818" lon="4.8581">
        <ele>278</ele>
        <time>2018-04-14T09:23:03Z</time>
      </trkpt>
      <trkpt lat="45.9482" lon="4.85817">
        <ele>278</ele>
        <time>2018-04-14T09:23:04Z</time>
      </trkpt>
      <trkpt lat="45.94822" lon="4.85825">
        <ele>278</ele>
        <time>2018-04-14T09:23:05Z</time>
      </trkpt>
      <trkpt lat="45.94824" lon="4.85832">
        <ele>277</ele>
        <time>2018-04-14T09:23:06Z</time>
      </trkpt>
      <trkpt lat="45.94826" lon="4.85839">
        <ele>277</ele>
        <time>2018-04-14T09:23:07Z</time>
      </trkpt>
      <trkpt lat="45.94827" lon="4.85845">
        <ele>277</ele>
        <time>2018-04-14T09:23:08Z</time>
      </trkpt>
      <trkpt lat="45.94829" lon="4.85851">
        <ele>277</ele>
        <time>2018-04-14T09:23:09Z</time>
      </trkpt>
      <trkpt lat="45.94831" lon="4.85858">
        <ele>277</ele>
        <time>2018-04-14T09:23:10Z</time>
      </trkpt>
      <trkpt lat="45.94833" lon="4.85864">
        <ele>276</ele>
        <time>2018-04-14T09:23:11Z</time>
      </trkpt>
      <trkpt lat="45.94836" lon="4.85871">
        <ele>276</ele>
        <time>2018-04-14T09:23:12Z</time>
      </trkpt>
      <trkpt lat="45.94838" lon="4.85878">
        <ele>276</ele>
        <time>2018-04-14T09:23:13Z</time>
      </trkpt>
      <trkpt lat="45.94839" lon="4.85884">
        <ele>276</ele>
        <time>2018-04-14T09:23:14Z</time>
      </trkpt>
      <trkpt lat="45.94841" lon="4.8589">
        <ele>276</ele>
        <time>2018-04-14T09:23:15Z</time>
      </trkpt>
      <trkpt lat="45.94842" lon="4.85897">
        <ele>276</ele>
        <time>2018-04-14T09:23:16Z</time>
      </trkpt>
      <trkpt lat="45.94843" lon="4.85905">
        <ele>275</ele>
        <time>2018-04-14T09:23:17Z</time>
      </trkpt>
      <trkpt lat="45.94844" lon="4.85911">
        <ele>275</ele>
        <time>2018-04-14T09:23:18Z</time>
      </trkpt>
      <trkpt lat="45.94847" lon="4.85919">
        <ele>275</ele>
        <time>2018-04-14T09:23:19Z</time>
      </trkpt>
      <trkpt lat="45.94848" lon="4.85927">
        <ele>275</ele>
        <time>2018-04-14T09:23:20Z</time>
      </trkpt>
      <trkpt lat="45.9485" lon="4.85934">
        <ele>275</ele>
        <time>2018-04-14T09:23:21Z</time>
      </trkpt>
      <trkpt lat="45.94852" lon="4.85942">
        <ele>275</ele>
        <time>2018-04-14T09:23:22Z</time>
      </trkpt>
      <trkpt lat="45.94854" lon="4.85949">
        <ele>275</ele>
        <time>2018-04-14T09:23:23Z</time>
      </trkpt>
      <trkpt lat="45.94855" lon="4.85956">
        <ele>275</ele>
        <time>2018-04-14T09:23:24Z</time>
      </trkpt>
      <trkpt lat="45.94858" lon="4.85964">
        <ele>275</ele>
        <time>2018-04-14T09:23:25Z</time>
      </trkpt>
      <trkpt lat="45.94859" lon="4.85971">
        <ele>275</ele>
        <time>2018-04-14T09:23:26Z</time>
      </trkpt>
      <trkpt lat="45.94862" lon="4.85978">
        <ele>275</ele>
        <time>2018-04-14T09:23:27Z</time>
      </trkpt>
      <trkpt lat="45.94863" lon="4.85984">
        <ele>275</ele>
        <time>2018-04-14T09:23:28Z</time>
      </trkpt>
      <trkpt lat="45.94866" lon="4.85991">
        <ele>275</ele>
        <time>2018-04-14T09:23:29Z</time>
      </trkpt>
      <trkpt lat="45.94868" lon="4.85997">
        <ele>275</ele>
        <time>2018-04-14T09:23:30Z</time>
      </trkpt>
      <trkpt lat="45.94869" lon="4.86003">
        <ele>274</ele>
        <time>2018-04-14T09:23:31Z</time>
      </trkpt>
      <trkpt lat="45.94871" lon="4.86009">
        <ele>274</ele>
        <time>2018-04-14T09:23:32Z</time>
      </trkpt>
      <trkpt lat="45.94872" lon="4.86017">
        <ele>274</ele>
        <time>2018-04-14T09:23:33Z</time>
      </trkpt>
      <trkpt lat="45.94874" lon="4.86023">
        <ele>274</ele>
        <time>2018-04-14T09:23:34Z</time>
      </trkpt>
      <trkpt lat="45.94876" lon="4.86029">
        <ele>274</ele>
        <time>2018-04-14T09:23:35Z</time>
      </trkpt>
      <trkpt lat="45.94878" lon="4.86036">
        <ele>274</ele>
        <time>2018-04-14T09:23:36Z</time>
      </trkpt>
      <trkpt lat="45.9488" lon="4.86048">
        <ele>274</ele>
        <time>2018-04-14T09:23:38Z</time>
      </trkpt>
      <trkpt lat="45.94882" lon="4.86054">
        <ele>274</ele>
        <time>2018-04-14T09:23:39Z</time>
      </trkpt>
      <trkpt lat="45.94884" lon="4.8606">
        <ele>274</ele>
        <time>2018-04-14T09:23:40Z</time>
      </trkpt>
      <trkpt lat="45.94887" lon="4.86066">
        <ele>274</ele>
        <time>2018-04-14T09:23:41Z</time>
      </trkpt>
      <trkpt lat="45.94888" lon="4.86072">
        <ele>274</ele>
        <time>2018-04-14T09:23:42Z</time>
      </trkpt>
      <trkpt lat="45.9489" lon="4.86079">
        <ele>274</ele>
        <time>2018-04-14T09:23:43Z</time>
      </trkpt>
      <trkpt lat="45.94892" lon="4.86085">
        <ele>274</ele>
        <time>2018-04-14T09:23:44Z</time>
      </trkpt>
      <trkpt lat="45.94894" lon="4.86092">
        <ele>274</ele>
        <time>2018-04-14T09:23:45Z</time>
      </trkpt>
      <trkpt lat="45.94896" lon="4.86099">
        <ele>274</ele>
        <time>2018-04-14T09:23:46Z</time>
      </trkpt>
      <trkpt lat="45.94899" lon="4.86106">
        <ele>274</ele>
        <time>2018-04-14T09:23:47Z</time>
      </trkpt>
      <trkpt lat="45.94902" lon="4.86113">
        <ele>274</ele>
        <time>2018-04-14T09:23:48Z</time>
      </trkpt>
      <trkpt lat="45.94906" lon="4.8612">
        <ele>274</ele>
        <time>2018-04-14T09:23:49Z</time>
      </trkpt>
      <trkpt lat="45.94909" lon="4.86126">
        <ele>274</ele>
        <time>2018-04-14T09:23:50Z</time>
      </trkpt>
      <trkpt lat="45.94913" lon="4.86133">
        <ele>274</ele>
        <time>2018-04-14T09:23:51Z</time>
      </trkpt>
      <trkpt lat="45.94917" lon="4.8614">
        <ele>273</ele>
        <time>2018-04-14T09:23:52Z</time>
      </trkpt>
      <trkpt lat="45.94922" lon="4.86146">
        <ele>273</ele>
        <time>2018-04-14T09:23:53Z</time>
      </trkpt>
      <trkpt lat="45.94926" lon="4.86153">
        <ele>273</ele>
        <time>2018-04-14T09:23:54Z</time>
      </trkpt>
      <trkpt lat="45.94929" lon="4.86159">
        <ele>273</ele>
        <time>2018-04-14T09:23:55Z</time>
      </trkpt>
      <trkpt lat="45.94933" lon="4.86164">
        <ele>273</ele>
        <time>2018-04-14T09:23:56Z</time>
      </trkpt>
      <trkpt lat="45.94937" lon="4.8617">
        <ele>273</ele>
        <time>2018-04-14T09:23:57Z</time>
      </trkpt>
      <trkpt lat="45.94941" lon="4.86175">
        <ele>273</ele>
        <time>2018-04-14T09:23:58Z</time>
      </trkpt>
      <trkpt lat="45.94946" lon="4.8618">
        <ele>273</ele>
        <time>2018-04-14T09:23:59Z</time>
      </trkpt>
      <trkpt lat="45.9495" lon="4.86186">
        <ele>273</ele>
        <time>2018-04-14T09:24:00Z</time>
      </trkpt>
      <trkpt lat="45.94955" lon="4.8619">
        <ele>273</ele>
        <time>2018-04-14T09:24:01Z</time>
      </trkpt>
      <trkpt lat="45.94959" lon="4.86196">
        <ele>272</ele>
        <time>2018-04-14T09:24:02Z</time>
      </trkpt>
      <trkpt lat="45.94964" lon="4.86201">
        <ele>272</ele>
        <time>2018-04-14T09:24:03Z</time>
      </trkpt>
      <trkpt lat="45.94968" lon="4.86207">
        <ele>272</ele>
        <time>2018-04-14T09:24:04Z</time>
      </trkpt>
      <trkpt lat="45.94972" lon="4.86212">
        <ele>272</ele>
        <time>2018-04-14T09:24:05Z</time>
      </trkpt>
      <trkpt lat="45.94977" lon="4.86218">
        <ele>272</ele>
        <time>2018-04-14T09:24:06Z</time>
      </trkpt>
      <trkpt lat="45.94982" lon="4.86223">
        <ele>272</ele>
        <time>2018-04-14T09:24:07Z</time>
      </trkpt>
      <trkpt lat="45.94987" lon="4.86228">
        <ele>272</ele>
        <time>2018-04-14T09:24:08Z</time>
      </trkpt>
      <trkpt lat="45.94991" lon="4.86233">
        <ele>272</ele>
        <time>2018-04-14T09:24:09Z</time>
      </trkpt>
      <trkpt lat="45.94995" lon="4.86239">
        <ele>272</ele>
        <time>2018-04-14T09:24:10Z</time>
      </trkpt>
      <trkpt lat="45.95" lon="4.86245">
        <ele>272</ele>
        <time>2018-04-14T09:24:11Z</time>
      </trkpt>
      <trkpt lat="45.95005" lon="4.86251">
        <ele>272</ele>
        <time>2018-04-14T09:24:12Z</time>
      </trkpt>
      <trkpt lat="45.95009" lon="4.86257">
        <ele>272</ele>
        <time>2018-04-14T09:24:13Z</time>
      </trkpt>
      <trkpt lat="45.95014" lon="4.86263">
        <ele>272</ele>
        <time>2018-04-14T09:24:14Z</time>
      </trkpt>
      <trkpt lat="45.95019" lon="4.86269">
        <ele>271</ele>
        <time>2018-04-14T09:24:15Z</time>
      </trkpt>
      <trkpt lat="45.95023" lon="4.86275">
        <ele>271</ele>
        <time>2018-04-14T09:24:16Z</time>
      </trkpt>
      <trkpt lat="45.95029" lon="4.86281">
        <ele>271</ele>
        <time>2018-04-14T09:24:17Z</time>
      </trkpt>
      <trkpt lat="45.95034" lon="4.86287">
        <ele>271</ele>
        <time>2018-04-14T09:24:18Z</time>
      </trkpt>
      <trkpt lat="45.95039" lon="4.86293">
        <ele>271</ele>
        <time>2018-04-14T09:24:19Z</time>
      </trkpt>
      <trkpt lat="45.95044" lon="4.86299">
        <ele>271</ele>
        <time>2018-04-14T09:24:20Z</time>
      </trkpt>
      <trkpt lat="45.95049" lon="4.86305">
        <ele>271</ele>
        <time>2018-04-14T09:24:21Z</time>
      </trkpt>
      <trkpt lat="45.95055" lon="4.86311">
        <ele>271</ele>
        <time>2018-04-14T09:24:22Z</time>
      </trkpt>
      <trkpt lat="45.95059" lon="4.86319">
        <ele>270</ele>
        <time>2018-04-14T09:24:23Z</time>
      </trkpt>
      <trkpt lat="45.95065" lon="4.86326">
        <ele>270</ele>
        <time>2018-04-14T09:24:24Z</time>
      </trkpt>
      <trkpt lat="45.9507" lon="4.86331">
        <ele>270</ele>
        <time>2018-04-14T09:24:25Z</time>
      </trkpt>
      <trkpt lat="45.95074" lon="4.86337">
        <ele>270</ele>
        <time>2018-04-14T09:24:26Z</time>
      </trkpt>
      <trkpt lat="45.95079" lon="4.86343">
        <ele>270</ele>
        <time>2018-04-14T09:24:27Z</time>
      </trkpt>
      <trkpt lat="45.95083" lon="4.86349">
        <ele>270</ele>
        <time>2018-04-14T09:24:28Z</time>
      </trkpt>
      <trkpt lat="45.95088" lon="4.86354">
        <ele>269</ele>
        <time>2018-04-14T09:24:29Z</time>
      </trkpt>
      <trkpt lat="45.95092" lon="4.8636">
        <ele>269</ele>
        <time>2018-04-14T09:24:30Z</time>
      </trkpt>
      <trkpt lat="45.95097" lon="4.86366">
        <ele>269</ele>
        <time>2018-04-14T09:24:31Z</time>
      </trkpt>
      <trkpt lat="45.95101" lon="4.86371">
        <ele>269</ele>
        <time>2018-04-14T09:24:32Z</time>
      </trkpt>
      <trkpt lat="45.95106" lon="4.86376">
        <ele>269</ele>
        <time>2018-04-14T09:24:33Z</time>
      </trkpt>
      <trkpt lat="45.95111" lon="4.86382">
        <ele>269</ele>
        <time>2018-04-14T09:24:34Z</time>
      </trkpt>
      <trkpt lat="45.95115" lon="4.86388">
        <ele>269</ele>
        <time>2018-04-14T09:24:35Z</time>
      </trkpt>
      <trkpt lat="45.9512" lon="4.86394">
        <ele>269</ele>
        <time>2018-04-14T09:24:36Z</time>
      </trkpt>
      <trkpt lat="45.95125" lon="4.864">
        <ele>269</ele>
        <time>2018-04-14T09:24:37Z</time>
      </trkpt>
      <trkpt lat="45.95129" lon="4.86405">
        <ele>268</ele>
        <time>2018-04-14T09:24:38Z</time>
      </trkpt>
      <trkpt lat="45.95134" lon="4.8641">
        <ele>268</ele>
        <time>2018-04-14T09:24:39Z</time>
      </trkpt>
      <trkpt lat="45.95139" lon="4.86415">
        <ele>268</ele>
        <time>2018-04-14T09:24:40Z</time>
      </trkpt>
      <trkpt lat="45.95143" lon="4.86421">
        <ele>268</ele>
        <time>2018-04-14T09:24:41Z</time>
      </trkpt>
      <trkpt lat="45.95147" lon="4.86425">
        <ele>268</ele>
        <time>2018-04-14T09:24:42Z</time>
      </trkpt>
      <trkpt lat="45.95151" lon="4.86429">
        <ele>268</ele>
        <time>2018-04-14T09:24:43Z</time>
      </trkpt>
      <trkpt lat="45.95155" lon="4.86433">
        <ele>268</ele>
        <time>2018-04-14T09:24:44Z</time>
      </trkpt>
      <trkpt lat="45.9516" lon="4.86441">
        <ele>268</ele>
        <time>2018-04-14T09:24:45Z</time>
      </trkpt>
      <trkpt lat="45.95165" lon="4.86446">
        <ele>269</ele>
        <time>2018-04-14T09:24:46Z</time>
      </trkpt>
      <trkpt lat="45.95169" lon="4.86451">
        <ele>268</ele>
        <time>2018-04-14T09:24:47Z</time>
      </trkpt>
      <trkpt lat="45.95173" lon="4.86457">
        <ele>268</ele>
        <time>2018-04-14T09:24:48Z</time>
      </trkpt>
      <trkpt lat="45.95179" lon="4.86464">
        <ele>268</ele>
        <time>2018-04-14T09:24:49Z</time>
      </trkpt>
      <trkpt lat="45.95183" lon="4.86469">
        <ele>268</ele>
        <time>2018-04-14T09:24:50Z</time>
      </trkpt>
      <trkpt lat="45.95188" lon="4.86475">
        <ele>268</ele>
        <time>2018-04-14T09:24:51Z</time>
      </trkpt>
      <trkpt lat="45.95193" lon="4.86481">
        <ele>268</ele>
        <time>2018-04-14T09:24:52Z</time>
      </trkpt>
      <trkpt lat="45.95198" lon="4.86488">
        <ele>268</ele>
        <time>2018-04-14T09:24:53Z</time>
      </trkpt>
      <trkpt lat="45.95204" lon="4.86494">
        <ele>268</ele>
        <time>2018-04-14T09:24:54Z</time>
      </trkpt>
      <trkpt lat="45.95209" lon="4.865">
        <ele>268</ele>
        <time>2018-04-14T09:24:55Z</time>
      </trkpt>
      <trkpt lat="45.95215" lon="4.86508">
        <ele>268</ele>
        <time>2018-04-14T09:24:56Z</time>
      </trkpt>
      <trkpt lat="45.9522" lon="4.86514">
        <ele>268</ele>
        <time>2018-04-14T09:24:57Z</time>
      </trkpt>
      <trkpt lat="45.95226" lon="4.86521">
        <ele>268</ele>
        <time>2018-04-14T09:24:58Z</time>
      </trkpt>
      <trkpt lat="45.95231" lon="4.86527">
        <ele>268</ele>
        <time>2018-04-14T09:24:59Z</time>
      </trkpt>
      <trkpt lat="45.95236" lon="4.86534">
        <ele>268</ele>
        <time>2018-04-14T09:25:00Z</time>
      </trkpt>
      <trkpt lat="45.95241" lon="4.8654">
        <ele>268</ele>
        <time>2018-04-14T09:25:01Z</time>
      </trkpt>
      <trkpt lat="45.95246" lon="4.86545">
        <ele>268</ele>
        <time>2018-04-14T09:25:02Z</time>
      </trkpt>
      <trkpt lat="45.95253" lon="4.86547">
        <ele>267</ele>
        <time>2018-04-14T09:25:03Z</time>
      </trkpt>
      <trkpt lat="45.95256" lon="4.86555">
        <ele>267</ele>
        <time>2018-04-14T09:25:04Z</time>
      </trkpt>
      <trkpt lat="45.95259" lon="4.86564">
        <ele>267</ele>
        <time>2018-04-14T09:25:05Z</time>
      </trkpt>
      <trkpt lat="45.95258" lon="4.86574">
        <ele>267</ele>
        <time>2018-04-14T09:25:07Z</time>
      </trkpt>
      <trkpt lat="45.95257" lon="4.86577">
        <ele>268</ele>
        <time>2018-04-14T09:25:08Z</time>
      </trkpt>
      <trkpt lat="45.95252" lon="4.86584">
        <ele>268</ele>
        <time>2018-04-14T09:25:09Z</time>
      </trkpt>
      <trkpt lat="45.95247" lon="4.86584">
        <ele>268</ele>
        <time>2018-04-14T09:25:10Z</time>
      </trkpt>
      <trkpt lat="45.95242" lon="4.86586">
        <ele>268</ele>
        <time>2018-04-14T09:25:11Z</time>
      </trkpt>
      <trkpt lat="45.95238" lon="4.86585">
        <ele>268</ele>
        <time>2018-04-14T09:25:12Z</time>
      </trkpt>
      <trkpt lat="45.95231" lon="4.86585">
        <ele>269</ele>
        <time>2018-04-14T09:25:13Z</time>
      </trkpt>
      <trkpt lat="45.95227" lon="4.86584">
        <ele>269</ele>
        <time>2018-04-14T09:25:14Z</time>
      </trkpt>
      <trkpt lat="45.95218" lon="4.86583">
        <ele>268</ele>
        <time>2018-04-14T09:25:16Z</time>
      </trkpt>
      <trkpt lat="45.95215" lon="4.86582">
        <ele>268</ele>
        <time>2018-04-14T09:25:17Z</time>
      </trkpt>
      <trkpt lat="45.95207" lon="4.86582">
        <ele>268</ele>
        <time>2018-04-14T09:25:20Z</time>
      </trkpt>
      <trkpt lat="45.95204" lon="4.86582">
        <ele>268</ele>
        <time>2018-04-14T09:25:21Z</time>
      </trkpt>
      <trkpt lat="45.95196" lon="4.86582">
        <ele>268</ele>
        <time>2018-04-14T09:25:24Z</time>
      </trkpt>
      <trkpt lat="45.95193" lon="4.86582">
        <ele>269</ele>
        <time>2018-04-14T09:25:25Z</time>
      </trkpt>
      <trkpt lat="45.95186" lon="4.86583">
        <ele>269</ele>
        <time>2018-04-14T09:25:27Z</time>
      </trkpt>
      <trkpt lat="45.95183" lon="4.86583">
        <ele>269</ele>
        <time>2018-04-14T09:25:28Z</time>
      </trkpt>
      <trkpt lat="45.95175" lon="4.86584">
        <ele>269</ele>
        <time>2018-04-14T09:25:31Z</time>
      </trkpt>
      <trkpt lat="45.95172" lon="4.86584">
        <ele>269</ele>
        <time>2018-04-14T09:25:32Z</time>
      </trkpt>
      <trkpt lat="45.95163" lon="4.86583">
        <ele>269</ele>
        <time>2018-04-14T09:25:35Z</time>
      </trkpt>
      <trkpt lat="45.9516" lon="4.86583">
        <ele>269</ele>
        <time>2018-04-14T09:25:36Z</time>
      </trkpt>
      <trkpt lat="45.95154" lon="4.86583">
        <ele>270</ele>
        <time>2018-04-14T09:25:38Z</time>
      </trkpt>
      <trkpt lat="45.9515" lon="4.86584">
        <ele>270</ele>
        <time>2018-04-14T09:25:39Z</time>
      </trkpt>
      <trkpt lat="45.95144" lon="4.86585">
        <ele>270</ele>
        <time>2018-04-14T09:25:41Z</time>
      </trkpt>
      <trkpt lat="45.95141" lon="4.86585">
        <ele>270</ele>
        <time>2018-04-14T09:25:42Z</time>
      </trkpt>
      <trkpt lat="45.95135" lon="4.86586">
        <ele>270</ele>
        <time>2018-04-14T09:25:44Z</time>
      </trkpt>
      <trkpt lat="45.95132" lon="4.86586">
        <ele>270</ele>
        <time>2018-04-14T09:25:45Z</time>
      </trkpt>
      <trkpt lat="45.95126" lon="4.86587">
        <ele>270</ele>
        <time>2018-04-14T09:25:47Z</time>
      </trkpt>
      <trkpt lat="45.95123" lon="4.86587">
        <ele>270</ele>
        <time>2018-04-14T09:25:48Z</time>
      </trkpt>
      <trkpt lat="45.95116" lon="4.86588">
        <ele>270</ele>
        <time>2018-04-14T09:25:50Z</time>
      </trkpt>
      <trkpt lat="45.95113" lon="4.86589">
        <ele>271</ele>
        <time>2018-04-14T09:25:51Z</time>
      </trkpt>
      <trkpt lat="45.95106" lon="4.8659">
        <ele>271</ele>
        <time>2018-04-14T09:25:53Z</time>
      </trkpt>
      <trkpt lat="45.95102" lon="4.8659">
        <ele>271</ele>
        <time>2018-04-14T09:25:54Z</time>
      </trkpt>
      <trkpt lat="45.95096" lon="4.86591">
        <ele>271</ele>
        <time>2018-04-14T09:25:56Z</time>
      </trkpt>
      <trkpt lat="45.95093" lon="4.86591">
        <ele>271</ele>
        <time>2018-04-14T09:25:57Z</time>
      </trkpt>
      <trkpt lat="45.95087" lon="4.86593">
        <ele>271</ele>
        <time>2018-04-14T09:25:59Z</time>
      </trkpt>
      <trkpt lat="45.95084" lon="4.86594">
        <ele>271</ele>
        <time>2018-04-14T09:26:00Z</time>
      </trkpt>
      <trkpt lat="45.95078" lon="4.86596">
        <ele>272</ele>
        <time>2018-04-14T09:26:02Z</time>
      </trkpt>
      <trkpt lat="45.95075" lon="4.86597">
        <ele>272</ele>
        <time>2018-04-14T09:26:03Z</time>
      </trkpt>
      <trkpt lat="45.95069" lon="4.86599">
        <ele>272</ele>
        <time>2018-04-14T09:26:05Z</time>
      </trkpt>
      <trkpt lat="45.95061" lon="4.86602">
        <ele>272</ele>
        <time>2018-04-14T09:26:06Z</time>
      </trkpt>
      <trkpt lat="45.95052" lon="4.86604">
        <ele>272</ele>
        <time>2018-04-14T09:26:10Z</time>
      </trkpt>
      <trkpt lat="45.95045" lon="4.86606">
        <ele>272</ele>
        <time>2018-04-14T09:26:11Z</time>
      </trkpt>
      <trkpt lat="45.95037" lon="4.86609">
        <ele>273</ele>
        <time>2018-04-14T09:26:15Z</time>
      </trkpt>
      <trkpt lat="45.95035" lon="4.8661">
        <ele>273</ele>
        <time>2018-04-14T09:26:16Z</time>
      </trkpt>
      <trkpt lat="45.95027" lon="4.86612">
        <ele>273</ele>
        <time>2018-04-14T09:26:19Z</time>
      </trkpt>
      <trkpt lat="45.95024" lon="4.86613">
        <ele>273</ele>
        <time>2018-04-14T09:26:20Z</time>
      </trkpt>
      <trkpt lat="45.95018" lon="4.86613">
        <ele>273</ele>
        <time>2018-04-14T09:26:22Z</time>
      </trkpt>
      <trkpt lat="45.95015" lon="4.86614">
        <ele>273</ele>
        <time>2018-04-14T09:26:23Z</time>
      </trkpt>
      <trkpt lat="45.95008" lon="4.86615">
        <ele>273</ele>
        <time>2018-04-14T09:26:25Z</time>
      </trkpt>
      <trkpt lat="45.95006" lon="4.86615">
        <ele>273</ele>
        <time>2018-04-14T09:26:26Z</time>
      </trkpt>
      <trkpt lat="45.94997" lon="4.86615">
        <ele>275</ele>
        <time>2018-04-14T09:26:29Z</time>
      </trkpt>
      <trkpt lat="45.94994" lon="4.86616">
        <ele>275</ele>
        <time>2018-04-14T09:26:30Z</time>
      </trkpt>
      <trkpt lat="45.94988" lon="4.86618">
        <ele>275</ele>
        <time>2018-04-14T09:26:32Z</time>
      </trkpt>
      <trkpt lat="45.94985" lon="4.86619">
        <ele>275</ele>
        <time>2018-04-14T09:26:33Z</time>
      </trkpt>
      <trkpt lat="45.94979" lon="4.8662">
        <ele>275</ele>
        <time>2018-04-14T09:26:35Z</time>
      </trkpt>
      <trkpt lat="45.94976" lon="4.86621">
        <ele>275</ele>
        <time>2018-04-14T09:26:36Z</time>
      </trkpt>
      <trkpt lat="45.9497" lon="4.86623">
        <ele>275</ele>
        <time>2018-04-14T09:26:38Z</time>
      </trkpt>
      <trkpt lat="45.94967" lon="4.86625">
        <ele>275</ele>
        <time>2018-04-14T09:26:39Z</time>
      </trkpt>
      <trkpt lat="45.9496" lon="4.86629">
        <ele>275</ele>
        <time>2018-04-14T09:26:41Z</time>
      </trkpt>
      <trkpt lat="45.94952" lon="4.86637">
        <ele>276</ele>
        <time>2018-04-14T09:26:42Z</time>
      </trkpt>
      <trkpt lat="45.94947" lon="4.86647">
        <ele>276</ele>
        <time>2018-04-14T09:26:44Z</time>
      </trkpt>
      <trkpt lat="45.94945" lon="4.86652">
        <ele>276</ele>
        <time>2018-04-14T09:26:45Z</time>
      </trkpt>
      <trkpt lat="45.94942" lon="4.86662">
        <ele>276</ele>
        <time>2018-04-14T09:26:47Z</time>
      </trkpt>
      <trkpt lat="45.94942" lon="4.86668">
        <ele>276</ele>
        <time>2018-04-14T09:26:48Z</time>
      </trkpt>
      <trkpt lat="45.94941" lon="4.8668">
        <ele>276</ele>
        <time>2018-04-14T09:26:50Z</time>
      </trkpt>
      <trkpt lat="45.94941" lon="4.86686">
        <ele>276</ele>
        <time>2018-04-14T09:26:51Z</time>
      </trkpt>
      <trkpt lat="45.94942" lon="4.86693">
        <ele>276</ele>
        <time>2018-04-14T09:26:52Z</time>
      </trkpt>
      <trkpt lat="45.94943" lon="4.86699">
        <ele>276</ele>
        <time>2018-04-14T09:26:53Z</time>
      </trkpt>
      <trkpt lat="45.94944" lon="4.86711">
        <ele>275</ele>
        <time>2018-04-14T09:26:55Z</time>
      </trkpt>
      <trkpt lat="45.94946" lon="4.86717">
        <ele>275</ele>
        <time>2018-04-14T09:26:56Z</time>
      </trkpt>
      <trkpt lat="45.94949" lon="4.86728">
        <ele>275</ele>
        <time>2018-04-14T09:26:58Z</time>
      </trkpt>
      <trkpt lat="45.9495" lon="4.86733">
        <ele>275</ele>
        <time>2018-04-14T09:26:59Z</time>
      </trkpt>
      <trkpt lat="45.94955" lon="4.86742">
        <ele>275</ele>
        <time>2018-04-14T09:27:01Z</time>
      </trkpt>
      <trkpt lat="45.94957" lon="4.86746">
        <ele>275</ele>
        <time>2018-04-14T09:27:02Z</time>
      </trkpt>
      <trkpt lat="45.94962" lon="4.86755">
        <ele>275</ele>
        <time>2018-04-14T09:27:04Z</time>
      </trkpt>
      <trkpt lat="45.94965" lon="4.8676">
        <ele>275</ele>
        <time>2018-04-14T09:27:05Z</time>
      </trkpt>
      <trkpt lat="45.9497" lon="4.8677">
        <ele>275</ele>
        <time>2018-04-14T09:27:07Z</time>
      </trkpt>
      <trkpt lat="45.94973" lon="4.86774">
        <ele>275</ele>
        <time>2018-04-14T09:27:08Z</time>
      </trkpt>
      <trkpt lat="45.94976" lon="4.86779">
        <ele>275</ele>
        <time>2018-04-14T09:27:09Z</time>
      </trkpt>
      <trkpt lat="45.94979" lon="4.86785">
        <ele>275</ele>
        <time>2018-04-14T09:27:10Z</time>
      </trkpt>
      <trkpt lat="45.94982" lon="4.8679">
        <ele>276</ele>
        <time>2018-04-14T09:27:11Z</time>
      </trkpt>
      <trkpt lat="45.94985" lon="4.86795">
        <ele>276</ele>
        <time>2018-04-14T09:27:12Z</time>
      </trkpt>
      <trkpt lat="45.94988" lon="4.868">
        <ele>276</ele>
        <time>2018-04-14T09:27:13Z</time>
      </trkpt>
      <trkpt lat="45.9499" lon="4.86805">
        <ele>276</ele>
        <time>2018-04-14T09:27:14Z</time>
      </trkpt>
      <trkpt lat="45.94995" lon="4.86816">
        <ele>276</ele>
        <time>2018-04-14T09:27:16Z</time>
      </trkpt>
      <trkpt lat="45.94997" lon="4.86822">
        <ele>276</ele>
        <time>2018-04-14T09:27:17Z</time>
      </trkpt>
      <trkpt lat="45.95" lon="4.86828">
        <ele>276</ele>
        <time>2018-04-14T09:27:18Z</time>
      </trkpt>
      <trkpt lat="45.95003" lon="4.86835">
        <ele>276</ele>
        <time>2018-04-14T09:27:19Z</time>
      </trkpt>
      <trkpt lat="45.95005" lon="4.86842">
        <ele>276</ele>
        <time>2018-04-14T09:27:20Z</time>
      </trkpt>
      <trkpt lat="45.95008" lon="4.86849">
        <ele>275</ele>
        <time>2018-04-14T09:27:21Z</time>
      </trkpt>
      <trkpt lat="45.9501" lon="4.86855">
        <ele>275</ele>
        <time>2018-04-14T09:27:22Z</time>
      </trkpt>
      <trkpt lat="45.95012" lon="4.86862">
        <ele>275</ele>
        <time>2018-04-14T09:27:23Z</time>
      </trkpt>
      <trkpt lat="45.95014" lon="4.86868">
        <ele>275</ele>
        <time>2018-04-14T09:27:24Z</time>
      </trkpt>
      <trkpt lat="45.95017" lon="4.86874">
        <ele>275</ele>
        <time>2018-04-14T09:27:25Z</time>
      </trkpt>
      <trkpt lat="45.95018" lon="4.8688">
        <ele>275</ele>
        <time>2018-04-14T09:27:26Z</time>
      </trkpt>
      <trkpt lat="45.9502" lon="4.86887">
        <ele>275</ele>
        <time>2018-04-14T09:27:27Z</time>
      </trkpt>
      <trkpt lat="45.95023" lon="4.86898">
        <ele>275</ele>
        <time>2018-04-14T09:27:29Z</time>
      </trkpt>
      <trkpt lat="45.95025" lon="4.86905">
        <ele>275</ele>
        <time>2018-04-14T09:27:30Z</time>
      </trkpt>
      <trkpt lat="45.95027" lon="4.86911">
        <ele>275</ele>
        <time>2018-04-14T09:27:31Z</time>
      </trkpt>
      <trkpt lat="45.95028" lon="4.86917">
        <ele>276</ele>
        <time>2018-04-14T09:27:32Z</time>
      </trkpt>
      <trkpt lat="45.9503" lon="4.86923">
        <ele>276</ele>
        <time>2018-04-14T09:27:33Z</time>
      </trkpt>
      <trkpt lat="45.95032" lon="4.86929">
        <ele>276</ele>
        <time>2018-04-14T09:27:34Z</time>
      </trkpt>
      <trkpt lat="45.95034" lon="4.86941">
        <ele>276</ele>
        <time>2018-04-14T09:27:36Z</time>
      </trkpt>
      <trkpt lat="45.95036" lon="4.86946">
        <ele>276</ele>
        <time>2018-04-14T09:27:37Z</time>
      </trkpt>
      <trkpt lat="45.95038" lon="4.86953">
        <ele>276</ele>
        <time>2018-04-14T09:27:38Z</time>
      </trkpt>
      <trkpt lat="45.9504" lon="4.8696">
        <ele>276</ele>
        <time>2018-04-14T09:27:39Z</time>
      </trkpt>
      <trkpt lat="45.95043" lon="4.86966">
        <ele>276</ele>
        <time>2018-04-14T09:27:40Z</time>
      </trkpt>
      <trkpt lat="45.95044" lon="4.86971">
        <ele>276</ele>
        <time>2018-04-14T09:27:41Z</time>
      </trkpt>
      <trkpt lat="45.95046" lon="4.86978">
        <ele>276</ele>
        <time>2018-04-14T09:27:42Z</time>
      </trkpt>
      <trkpt lat="45.95049" lon="4.86984">
        <ele>276</ele>
        <time>2018-04-14T09:27:43Z</time>
      </trkpt>
      <trkpt lat="45.95053" lon="4.86993">
        <ele>276</ele>
        <time>2018-04-14T09:27:45Z</time>
      </trkpt>
      <trkpt lat="45.95055" lon="4.86997">
        <ele>276</ele>
        <time>2018-04-14T09:27:46Z</time>
      </trkpt>
      <trkpt lat="45.95059" lon="4.87006">
        <ele>277</ele>
        <time>2018-04-14T09:27:48Z</time>
      </trkpt>
      <trkpt lat="45.95062" lon="4.87011">
        <ele>277</ele>
        <time>2018-04-14T09:27:49Z</time>
      </trkpt>
      <trkpt lat="45.95065" lon="4.87015">
        <ele>277</ele>
        <time>2018-04-14T09:27:50Z</time>
      </trkpt>
      <trkpt lat="45.95068" lon="4.87021">
        <ele>277</ele>
        <time>2018-04-14T09:27:51Z</time>
      </trkpt>
      <trkpt lat="45.95072" lon="4.87025">
        <ele>277</ele>
        <time>2018-04-14T09:27:52Z</time>
      </trkpt>
      <trkpt lat="45.95076" lon="4.8703">
        <ele>277</ele>
        <time>2018-04-14T09:27:53Z</time>
      </trkpt>
      <trkpt lat="45.9508" lon="4.87038">
        <ele>277</ele>
        <time>2018-04-14T09:27:55Z</time>
      </trkpt>
      <trkpt lat="45.95082" lon="4.87042">
        <ele>277</ele>
        <time>2018-04-14T09:27:56Z</time>
      </trkpt>
      <trkpt lat="45.95085" lon="4.87051">
        <ele>277</ele>
        <time>2018-04-14T09:27:58Z</time>
      </trkpt>
      <trkpt lat="45.95086" lon="4.87055">
        <ele>277</ele>
        <time>2018-04-14T09:27:59Z</time>
      </trkpt>
      <trkpt lat="45.9509" lon="4.87065">
        <ele>277</ele>
        <time>2018-04-14T09:28:01Z</time>
      </trkpt>
      <trkpt lat="45.95092" lon="4.8707">
        <ele>277</ele>
        <time>2018-04-14T09:28:02Z</time>
      </trkpt>
      <trkpt lat="45.95094" lon="4.87081">
        <ele>277</ele>
        <time>2018-04-14T09:28:04Z</time>
      </trkpt>
      <trkpt lat="45.95094" lon="4.87085">
        <ele>277</ele>
        <time>2018-04-14T09:28:05Z</time>
      </trkpt>
      <trkpt lat="45.95095" lon="4.87097">
        <ele>277</ele>
        <time>2018-04-14T09:28:07Z</time>
      </trkpt>
      <trkpt lat="45.95097" lon="4.87103">
        <ele>277</ele>
        <time>2018-04-14T09:28:08Z</time>
      </trkpt>
      <trkpt lat="45.95099" lon="4.87115">
        <ele>277</ele>
        <time>2018-04-14T09:28:10Z</time>
      </trkpt>
      <trkpt lat="45.95102" lon="4.87122">
        <ele>277</ele>
        <time>2018-04-14T09:28:11Z</time>
      </trkpt>
      <trkpt lat="45.95103" lon="4.87128">
        <ele>277</ele>
        <time>2018-04-14T09:28:12Z</time>
      </trkpt>
      <trkpt lat="45.95105" lon="4.87134">
        <ele>277</ele>
        <time>2018-04-14T09:28:13Z</time>
      </trkpt>
      <trkpt lat="45.95115" lon="4.87145">
        <ele>277</ele>
        <time>2018-04-14T09:28:14Z</time>
      </trkpt>
      <trkpt lat="45.95117" lon="4.87152">
        <ele>277</ele>
        <time>2018-04-14T09:28:15Z</time>
      </trkpt>
      <trkpt lat="45.95122" lon="4.87161">
        <ele>276</ele>
        <time>2018-04-14T09:28:16Z</time>
      </trkpt>
      <trkpt lat="45.95126" lon="4.87172">
        <ele>276</ele>
        <time>2018-04-14T09:28:18Z</time>
      </trkpt>
      <trkpt lat="45.95127" lon="4.87179">
        <ele>276</ele>
        <time>2018-04-14T09:28:19Z</time>
      </trkpt>
      <trkpt lat="45.95132" lon="4.8719">
        <ele>276</ele>
        <time>2018-04-14T09:28:21Z</time>
      </trkpt>
      <trkpt lat="45.9513" lon="4.87196">
        <ele>276</ele>
        <time>2018-04-14T09:28:22Z</time>
      </trkpt>
      <trkpt lat="45.95131" lon="4.87204">
        <ele>276</ele>
        <time>2018-04-14T09:28:23Z</time>
      </trkpt>
      <trkpt lat="45.95126" lon="4.87218">
        <ele>276</ele>
        <time>2018-04-14T09:28:24Z</time>
      </trkpt>
      <trkpt lat="45.95128" lon="4.87226">
        <ele>276</ele>
        <time>2018-04-14T09:28:25Z</time>
      </trkpt>
      <trkpt lat="45.9513" lon="4.87235">
        <ele>276</ele>
        <time>2018-04-14T09:28:26Z</time>
      </trkpt>
      <trkpt lat="45.95133" lon="4.87244">
        <ele>276</ele>
        <time>2018-04-14T09:28:27Z</time>
      </trkpt>
      <trkpt lat="45.95133" lon="4.87254">
        <ele>275</ele>
        <time>2018-04-14T09:28:28Z</time>
      </trkpt>
      <trkpt lat="45.95135" lon="4.87263">
        <ele>275</ele>
        <time>2018-04-14T09:28:29Z</time>
      </trkpt>
      <trkpt lat="45.95137" lon="4.87271">
        <ele>275</ele>
        <time>2018-04-14T09:28:30Z</time>
      </trkpt>
      <trkpt lat="45.9514" lon="4.8728">
        <ele>274</ele>
        <time>2018-04-14T09:28:31Z</time>
      </trkpt>
      <trkpt lat="45.95142" lon="4.87289">
        <ele>274</ele>
        <time>2018-04-14T09:28:32Z</time>
      </trkpt>
      <trkpt lat="45.95144" lon="4.873">
        <ele>274</ele>
        <time>2018-04-14T09:28:33Z</time>
      </trkpt>
      <trkpt lat="45.95146" lon="4.87309">
        <ele>274</ele>
        <time>2018-04-14T09:28:34Z</time>
      </trkpt>
      <trkpt lat="45.95155" lon="4.87323">
        <ele>273</ele>
        <time>2018-04-14T09:28:35Z</time>
      </trkpt>
      <trkpt lat="45.95157" lon="4.87332">
        <ele>272</ele>
        <time>2018-04-14T09:28:36Z</time>
      </trkpt>
      <trkpt lat="45.9516" lon="4.87341">
        <ele>272</ele>
        <time>2018-04-14T09:28:37Z</time>
      </trkpt>
      <trkpt lat="45.95161" lon="4.8735">
        <ele>272</ele>
        <time>2018-04-14T09:28:38Z</time>
      </trkpt>
      <trkpt lat="45.95164" lon="4.87358">
        <ele>272</ele>
        <time>2018-04-14T09:28:39Z</time>
      </trkpt>
      <trkpt lat="45.95166" lon="4.87367">
        <ele>272</ele>
        <time>2018-04-14T09:28:40Z</time>
      </trkpt>
      <trkpt lat="45.95166" lon="4.87373">
        <ele>272</ele>
        <time>2018-04-14T09:28:41Z</time>
      </trkpt>
      <trkpt lat="45.95168" lon="4.87381">
        <ele>271</ele>
        <time>2018-04-14T09:28:42Z</time>
      </trkpt>
      <trkpt lat="45.95169" lon="4.87389">
        <ele>271</ele>
        <time>2018-04-14T09:28:43Z</time>
      </trkpt>
      <trkpt lat="45.95169" lon="4.87395">
        <ele>271</ele>
        <time>2018-04-14T09:28:44Z</time>
      </trkpt>
      <trkpt lat="45.9517" lon="4.87402">
        <ele>271</ele>
        <time>2018-04-14T09:28:45Z</time>
      </trkpt>
      <trkpt lat="45.95171" lon="4.87407">
        <ele>271</ele>
        <time>2018-04-14T09:28:46Z</time>
      </trkpt>
      <trkpt lat="45.95173" lon="4.87414">
        <ele>271</ele>
        <time>2018-04-14T09:28:47Z</time>
      </trkpt>
      <trkpt lat="45.95173" lon="4.87423">
        <ele>271</ele>
        <time>2018-04-14T09:28:48Z</time>
      </trkpt>
      <trkpt lat="45.95175" lon="4.87431">
        <ele>271</ele>
        <time>2018-04-14T09:28:49Z</time>
      </trkpt>
      <trkpt lat="45.95176" lon="4.87438">
        <ele>272</ele>
        <time>2018-04-14T09:28:50Z</time>
      </trkpt>
      <trkpt lat="45.95178" lon="4.87446">
        <ele>272</ele>
        <time>2018-04-14T09:28:51Z</time>
      </trkpt>
      <trkpt lat="45.95181" lon="4.87453">
        <ele>272</ele>
        <time>2018-04-14T09:28:52Z</time>
      </trkpt>
      <trkpt lat="45.95184" lon="4.8746">
        <ele>272</ele>
        <time>2018-04-14T09:28:53Z</time>
      </trkpt>
      <trkpt lat="45.95187" lon="4.87467">
        <ele>272</ele>
        <time>2018-04-14T09:28:54Z</time>
      </trkpt>
      <trkpt lat="45.95188" lon="4.87473">
        <ele>272</ele>
        <time>2018-04-14T09:28:55Z</time>
      </trkpt>
      <trkpt lat="45.95189" lon="4.8748">
        <ele>272</ele>
        <time>2018-04-14T09:28:56Z</time>
      </trkpt>
      <trkpt lat="45.95189" lon="4.87487">
        <ele>272</ele>
        <time>2018-04-14T09:28:57Z</time>
      </trkpt>
      <trkpt lat="45.95192" lon="4.87498">
        <ele>272</ele>
        <time>2018-04-14T09:28:59Z</time>
      </trkpt>
      <trkpt lat="45.95193" lon="4.87505">
        <ele>273</ele>
        <time>2018-04-14T09:29:00Z</time>
      </trkpt>
      <trkpt lat="45.95195" lon="4.87511">
        <ele>273</ele>
        <time>2018-04-14T09:29:01Z</time>
      </trkpt>
      <trkpt lat="45.95197" lon="4.87517">
        <ele>273</ele>
        <time>2018-04-14T09:29:02Z</time>
      </trkpt>
      <trkpt lat="45.95197" lon="4.87525">
        <ele>274</ele>
        <time>2018-04-14T09:29:03Z</time>
      </trkpt>
      <trkpt lat="45.95198" lon="4.87531">
        <ele>274</ele>
        <time>2018-04-14T09:29:04Z</time>
      </trkpt>
      <trkpt lat="45.95199" lon="4.8754">
        <ele>274</ele>
        <time>2018-04-14T09:29:05Z</time>
      </trkpt>
      <trkpt lat="45.95201" lon="4.87547">
        <ele>274</ele>
        <time>2018-04-14T09:29:06Z</time>
      </trkpt>
      <trkpt lat="45.95201" lon="4.87554">
        <ele>274</ele>
        <time>2018-04-14T09:29:07Z</time>
      </trkpt>
      <trkpt lat="45.95202" lon="4.87561">
        <ele>274</ele>
        <time>2018-04-14T09:29:08Z</time>
      </trkpt>
      <trkpt lat="45.95203" lon="4.87567">
        <ele>274</ele>
        <time>2018-04-14T09:29:09Z</time>
      </trkpt>
      <trkpt lat="45.95204" lon="4.87574">
        <ele>274</ele>
        <time>2018-04-14T09:29:10Z</time>
      </trkpt>
      <trkpt lat="45.95205" lon="4.87586">
        <ele>276</ele>
        <time>2018-04-14T09:29:12Z</time>
      </trkpt>
      <trkpt lat="45.95204" lon="4.87592">
        <ele>276</ele>
        <time>2018-04-14T09:29:13Z</time>
      </trkpt>
      <trkpt lat="45.95206" lon="4.876">
        <ele>276</ele>
        <time>2018-04-14T09:29:15Z</time>
      </trkpt>
      <trkpt lat="45.95208" lon="4.87607">
        <ele>276</ele>
        <time>2018-04-14T09:29:16Z</time>
      </trkpt>
      <trkpt lat="45.95208" lon="4.87619">
        <ele>276</ele>
        <time>2018-04-14T09:29:19Z</time>
      </trkpt>
      <trkpt lat="45.95208" lon="4.87622">
        <ele>276</ele>
        <time>2018-04-14T09:29:20Z</time>
      </trkpt>
      <trkpt lat="45.95209" lon="4.87633">
        <ele>276</ele>
        <time>2018-04-14T09:29:23Z</time>
      </trkpt>
      <trkpt lat="45.9521" lon="4.87638">
        <ele>276</ele>
        <time>2018-04-14T09:29:24Z</time>
      </trkpt>
      <trkpt lat="45.95211" lon="4.87646">
        <ele>276</ele>
        <time>2018-04-14T09:29:26Z</time>
      </trkpt>
      <trkpt lat="45.95212" lon="4.87651">
        <ele>277</ele>
        <time>2018-04-14T09:29:27Z</time>
      </trkpt>
      <trkpt lat="45.95214" lon="4.8766">
        <ele>277</ele>
        <time>2018-04-14T09:29:29Z</time>
      </trkpt>
      <trkpt lat="45.95214" lon="4.87664">
        <ele>277</ele>
        <time>2018-04-14T09:29:30Z</time>
      </trkpt>
      <trkpt lat="45.95216" lon="4.87676">
        <ele>279</ele>
        <time>2018-04-14T09:29:33Z</time>
      </trkpt>
      <trkpt lat="45.95216" lon="4.8768">
        <ele>279</ele>
        <time>2018-04-14T09:29:34Z</time>
      </trkpt>
      <trkpt lat="45.95218" lon="4.87691">
        <ele>279</ele>
        <time>2018-04-14T09:29:37Z</time>
      </trkpt>
      <trkpt lat="45.95218" lon="4.87694">
        <ele>279</ele>
        <time>2018-04-14T09:29:38Z</time>
      </trkpt>
      <trkpt lat="45.9522" lon="4.87705">
        <ele>279</ele>
        <time>2018-04-14T09:29:41Z</time>
      </trkpt>
      <trkpt lat="45.95221" lon="4.87708">
        <ele>279</ele>
        <time>2018-04-14T09:29:42Z</time>
      </trkpt>
      <trkpt lat="45.95225" lon="4.87718">
        <ele>279</ele>
        <time>2018-04-14T09:29:45Z</time>
      </trkpt>
      <trkpt lat="45.95226" lon="4.87721">
        <ele>280</ele>
        <time>2018-04-14T09:29:46Z</time>
      </trkpt>
      <trkpt lat="45.95228" lon="4.8773">
        <ele>280</ele>
        <time>2018-04-14T09:29:49Z</time>
      </trkpt>
      <trkpt lat="45.9523" lon="4.87742">
        <ele>280</ele>
        <time>2018-04-14T09:29:50Z</time>
      </trkpt>
      <trkpt lat="45.95231" lon="4.87751">
        <ele>281</ele>
        <time>2018-04-14T09:29:53Z</time>
      </trkpt>
      <trkpt lat="45.95233" lon="4.87761">
        <ele>282</ele>
        <time>2018-04-14T09:29:54Z</time>
      </trkpt>
      <trkpt lat="45.95236" lon="4.87772">
        <ele>282</ele>
        <time>2018-04-14T09:29:56Z</time>
      </trkpt>
      <trkpt lat="45.95237" lon="4.87778">
        <ele>282</ele>
        <time>2018-04-14T09:29:57Z</time>
      </trkpt>
      <trkpt lat="45.9524" lon="4.87789">
        <ele>282</ele>
        <time>2018-04-14T09:30:00Z</time>
      </trkpt>
      <trkpt lat="45.95241" lon="4.87793">
        <ele>282</ele>
        <time>2018-04-14T09:30:01Z</time>
      </trkpt>
      <trkpt lat="45.95243" lon="4.87805">
        <ele>282</ele>
        <time>2018-04-14T09:30:04Z</time>
      </trkpt>
      <trkpt lat="45.95243" lon="4.8781">
        <ele>282</ele>
        <time>2018-04-14T09:30:05Z</time>
      </trkpt>
      <trkpt lat="45.95245" lon="4.8782">
        <ele>282</ele>
        <time>2018-04-14T09:30:07Z</time>
      </trkpt>
      <trkpt lat="45.95246" lon="4.87825">
        <ele>282</ele>
        <time>2018-04-14T09:30:08Z</time>
      </trkpt>
      <trkpt lat="45.95247" lon="4.87836">
        <ele>282</ele>
        <time>2018-04-14T09:30:10Z</time>
      </trkpt>
      <trkpt lat="45.95249" lon="4.8785">
        <ele>283</ele>
        <time>2018-04-14T09:30:11Z</time>
      </trkpt>
      <trkpt lat="45.95251" lon="4.87861">
        <ele>281</ele>
        <time>2018-04-14T09:30:13Z</time>
      </trkpt>
      <trkpt lat="45.95253" lon="4.87866">
        <ele>281</ele>
        <time>2018-04-14T09:30:14Z</time>
      </trkpt>
      <trkpt lat="45.95255" lon="4.87877">
        <ele>281</ele>
        <time>2018-04-14T09:30:16Z</time>
      </trkpt>
      <trkpt lat="45.95256" lon="4.87883">
        <ele>281</ele>
        <time>2018-04-14T09:30:17Z</time>
      </trkpt>
      <trkpt lat="45.95258" lon="4.87895">
        <ele>281</ele>
        <time>2018-04-14T09:30:19Z</time>
      </trkpt>
      <trkpt lat="45.95258" lon="4.879">
        <ele>281</ele>
        <time>2018-04-14T09:30:20Z</time>
      </trkpt>
      <trkpt lat="45.95259" lon="4.87911">
        <ele>282</ele>
        <time>2018-04-14T09:30:22Z</time>
      </trkpt>
      <trkpt lat="45.95258" lon="4.87917">
        <ele>282</ele>
        <time>2018-04-14T09:30:23Z</time>
      </trkpt>
      <trkpt lat="45.95258" lon="4.87926">
        <ele>281</ele>
        <time>2018-04-14T09:30:26Z</time>
      </trkpt>
      <trkpt lat="45.95258" lon="4.8793">
        <ele>281</ele>
        <time>2018-04-14T09:30:27Z</time>
      </trkpt>
      <trkpt lat="45.95257" lon="4.87934">
        <ele>281</ele>
        <time>2018-04-14T09:30:28Z</time>
      </trkpt>
      <trkpt lat="45.95255" lon="4.87946">
        <ele>280</ele>
        <time>2018-04-14T09:30:29Z</time>
      </trkpt>
      <trkpt lat="45.95252" lon="4.87956">
        <ele>280</ele>
        <time>2018-04-14T09:30:31Z</time>
      </trkpt>
      <trkpt lat="45.9525" lon="4.87961">
        <ele>280</ele>
        <time>2018-04-14T09:30:32Z</time>
      </trkpt>
      <trkpt lat="45.95244" lon="4.8797">
        <ele>282</ele>
        <time>2018-04-14T09:30:35Z</time>
      </trkpt>
      <trkpt lat="45.95243" lon="4.87972">
        <ele>282</ele>
        <time>2018-04-14T09:30:36Z</time>
      </trkpt>
      <trkpt lat="45.95241" lon="4.87975">
        <ele>282</ele>
        <time>2018-04-14T09:30:37Z</time>
      </trkpt>
      <trkpt lat="45.95236" lon="4.87985">
        <ele>281</ele>
        <time>2018-04-14T09:30:38Z</time>
      </trkpt>
      <trkpt lat="45.9523" lon="4.87994">
        <ele>281</ele>
        <time>2018-04-14T09:30:40Z</time>
      </trkpt>
      <trkpt lat="45.95227" lon="4.87999">
        <ele>281</ele>
        <time>2018-04-14T09:30:41Z</time>
      </trkpt>
      <trkpt lat="45.9522" lon="4.88008">
        <ele>281</ele>
        <time>2018-04-14T09:30:43Z</time>
      </trkpt>
      <trkpt lat="45.95217" lon="4.88012">
        <ele>281</ele>
        <time>2018-04-14T09:30:44Z</time>
      </trkpt>
      <trkpt lat="45.95211" lon="4.88019">
        <ele>281</ele>
        <time>2018-04-14T09:30:46Z</time>
      </trkpt>
      <trkpt lat="45.95207" lon="4.88023">
        <ele>281</ele>
        <time>2018-04-14T09:30:47Z</time>
      </trkpt>
      <trkpt lat="45.952" lon="4.88031">
        <ele>281</ele>
        <time>2018-04-14T09:30:49Z</time>
      </trkpt>
      <trkpt lat="45.95197" lon="4.88036">
        <ele>281</ele>
        <time>2018-04-14T09:30:50Z</time>
      </trkpt>
      <trkpt lat="45.95192" lon="4.88045">
        <ele>281</ele>
        <time>2018-04-14T09:30:52Z</time>
      </trkpt>
      <trkpt lat="45.95191" lon="4.88052">
        <ele>281</ele>
        <time>2018-04-14T09:30:53Z</time>
      </trkpt>
      <trkpt lat="45.95188" lon="4.8806">
        <ele>281</ele>
        <time>2018-04-14T09:30:55Z</time>
      </trkpt>
      <trkpt lat="45.95189" lon="4.88065">
        <ele>281</ele>
        <time>2018-04-14T09:30:56Z</time>
      </trkpt>
      <trkpt lat="45.95183" lon="4.88076">
        <ele>281</ele>
        <time>2018-04-14T09:30:58Z</time>
      </trkpt>
      <trkpt lat="45.95184" lon="4.88077">
        <ele>281</ele>
        <time>2018-04-14T09:30:59Z</time>
      </trkpt>
      <trkpt lat="45.95181" lon="4.88085">
        <ele>282</ele>
        <time>2018-04-14T09:31:00Z</time>
      </trkpt>
      <trkpt lat="45.95178" lon="4.8809">
        <ele>282</ele>
        <time>2018-04-14T09:31:01Z</time>
      </trkpt>
      <trkpt lat="45.95176" lon="4.88102">
        <ele>282</ele>
        <time>2018-04-14T09:31:03Z</time>
      </trkpt>
      <trkpt lat="45.95175" lon="4.88107">
        <ele>282</ele>
        <time>2018-04-14T09:31:04Z</time>
      </trkpt>
      <trkpt lat="45.95173" lon="4.88113">
        <ele>282</ele>
        <time>2018-04-14T09:31:05Z</time>
      </trkpt>
      <trkpt lat="45.95171" lon="4.88119">
        <ele>282</ele>
        <time>2018-04-14T09:31:06Z</time>
      </trkpt>
      <trkpt lat="45.9517" lon="4.88131">
        <ele>283</ele>
        <time>2018-04-14T09:31:08Z</time>
      </trkpt>
      <trkpt lat="45.95168" lon="4.88136">
        <ele>283</ele>
        <time>2018-04-14T09:31:09Z</time>
      </trkpt>
      <trkpt lat="45.95164" lon="4.88146">
        <ele>284</ele>
        <time>2018-04-14T09:31:11Z</time>
      </trkpt>
      <trkpt lat="45.95163" lon="4.88151">
        <ele>285</ele>
        <time>2018-04-14T09:31:12Z</time>
      </trkpt>
      <trkpt lat="45.95162" lon="4.8816">
        <ele>285</ele>
        <time>2018-04-14T09:31:15Z</time>
      </trkpt>
      <trkpt lat="45.95162" lon="4.88164">
        <ele>285</ele>
        <time>2018-04-14T09:31:16Z</time>
      </trkpt>
      <trkpt lat="45.95164" lon="4.88172">
        <ele>285</ele>
        <time>2018-04-14T09:31:18Z</time>
      </trkpt>
      <trkpt lat="45.95171" lon="4.8818">
        <ele>285</ele>
        <time>2018-04-14T09:31:19Z</time>
      </trkpt>
      <trkpt lat="45.95175" lon="4.8818">
        <ele>285</ele>
        <time>2018-04-14T09:31:20Z</time>
      </trkpt>
      <trkpt lat="45.9518" lon="4.88178">
        <ele>285</ele>
        <time>2018-04-14T09:31:21Z</time>
      </trkpt>
      <trkpt lat="45.95185" lon="4.88177">
        <ele>285</ele>
        <time>2018-04-14T09:31:22Z</time>
      </trkpt>
      <trkpt lat="45.95192" lon="4.88172">
        <ele>285</ele>
        <time>2018-04-14T09:31:23Z</time>
      </trkpt>
      <trkpt lat="45.95198" lon="4.88171">
        <ele>285</ele>
        <time>2018-04-14T09:31:24Z</time>
      </trkpt>
      <trkpt lat="45.95204" lon="4.88171">
        <ele>285</ele>
        <time>2018-04-14T09:31:25Z</time>
      </trkpt>
      <trkpt lat="45.9521" lon="4.8817">
        <ele>284</ele>
        <time>2018-04-14T09:31:26Z</time>
      </trkpt>
      <trkpt lat="45.95215" lon="4.88168">
        <ele>284</ele>
        <time>2018-04-14T09:31:27Z</time>
      </trkpt>
      <trkpt lat="45.95221" lon="4.88168">
        <ele>284</ele>
        <time>2018-04-14T09:31:28Z</time>
      </trkpt>
      <trkpt lat="45.95228" lon="4.88168">
        <ele>283</ele>
        <time>2018-04-14T09:31:29Z</time>
      </trkpt>
      <trkpt lat="45.95236" lon="4.88168">
        <ele>283</ele>
        <time>2018-04-14T09:31:30Z</time>
      </trkpt>
      <trkpt lat="45.95242" lon="4.88167">
        <ele>282</ele>
        <time>2018-04-14T09:31:31Z</time>
      </trkpt>
      <trkpt lat="45.95248" lon="4.88168">
        <ele>281</ele>
        <time>2018-04-14T09:31:32Z</time>
      </trkpt>
      <trkpt lat="45.95254" lon="4.88168">
        <ele>281</ele>
        <time>2018-04-14T09:31:33Z</time>
      </trkpt>
      <trkpt lat="45.95261" lon="4.88169">
        <ele>281</ele>
        <time>2018-04-14T09:31:34Z</time>
      </trkpt>
      <trkpt lat="45.95269" lon="4.8817">
        <ele>281</ele>
        <time>2018-04-14T09:31:35Z</time>
      </trkpt>
      <trkpt lat="45.95276" lon="4.8817">
        <ele>281</ele>
        <time>2018-04-14T09:31:36Z</time>
      </trkpt>
      <trkpt lat="45.95284" lon="4.88171">
        <ele>281</ele>
        <time>2018-04-14T09:31:37Z</time>
      </trkpt>
      <trkpt lat="45.95292" lon="4.88172">
        <ele>281</ele>
        <time>2018-04-14T09:31:38Z</time>
      </trkpt>
      <trkpt lat="45.953" lon="4.88173">
        <ele>281</ele>
        <time>2018-04-14T09:31:39Z</time>
      </trkpt>
      <trkpt lat="45.95308" lon="4.88173">
        <ele>280</ele>
        <time>2018-04-14T09:31:40Z</time>
      </trkpt>
      <trkpt lat="45.95316" lon="4.88174">
        <ele>280</ele>
        <time>2018-04-14T09:31:41Z</time>
      </trkpt>
      <trkpt lat="45.95324" lon="4.88174">
        <ele>279</ele>
        <time>2018-04-14T09:31:42Z</time>
      </trkpt>
      <trkpt lat="45.95332" lon="4.88173">
        <ele>279</ele>
        <time>2018-04-14T09:31:43Z</time>
      </trkpt>
      <trkpt lat="45.9534" lon="4.88173">
        <ele>278</ele>
        <time>2018-04-14T09:31:44Z</time>
      </trkpt>
      <trkpt lat="45.95348" lon="4.88173">
        <ele>278</ele>
        <time>2018-04-14T09:31:45Z</time>
      </trkpt>
      <trkpt lat="45.95356" lon="4.88173">
        <ele>278</ele>
        <time>2018-04-14T09:31:46Z</time>
      </trkpt>
      <trkpt lat="45.95364" lon="4.88171">
        <ele>278</ele>
        <time>2018-04-14T09:31:47Z</time>
      </trkpt>
      <trkpt lat="45.95372" lon="4.88169">
        <ele>278</ele>
        <time>2018-04-14T09:31:48Z</time>
      </trkpt>
      <trkpt lat="45.9538" lon="4.88167">
        <ele>278</ele>
        <time>2018-04-14T09:31:49Z</time>
      </trkpt>
      <trkpt lat="45.95387" lon="4.88165">
        <ele>276</ele>
        <time>2018-04-14T09:31:50Z</time>
      </trkpt>
      <trkpt lat="45.95395" lon="4.88162">
        <ele>276</ele>
        <time>2018-04-14T09:31:51Z</time>
      </trkpt>
      <trkpt lat="45.95403" lon="4.8816">
        <ele>276</ele>
        <time>2018-04-14T09:31:52Z</time>
      </trkpt>
      <trkpt lat="45.95409" lon="4.88157">
        <ele>276</ele>
        <time>2018-04-14T09:31:53Z</time>
      </trkpt>
      <trkpt lat="45.95415" lon="4.88154">
        <ele>276</ele>
        <time>2018-04-14T09:31:54Z</time>
      </trkpt>
      <trkpt lat="45.9542" lon="4.8815">
        <ele>276</ele>
        <time>2018-04-14T09:31:55Z</time>
      </trkpt>
      <trkpt lat="45.95427" lon="4.88149">
        <ele>276</ele>
        <time>2018-04-14T09:31:56Z</time>
      </trkpt>
      <trkpt lat="45.95433" lon="4.88146">
        <ele>276</ele>
        <time>2018-04-14T09:31:57Z</time>
      </trkpt>
      <trkpt lat="45.95439" lon="4.88143">
        <ele>276</ele>
        <time>2018-04-14T09:31:58Z</time>
      </trkpt>
      <trkpt lat="45.95444" lon="4.8814">
        <ele>276</ele>
        <time>2018-04-14T09:31:59Z</time>
      </trkpt>
      <trkpt lat="45.95449" lon="4.88138">
        <ele>276</ele>
        <time>2018-04-14T09:32:00Z</time>
      </trkpt>
      <trkpt lat="45.95455" lon="4.88135">
        <ele>276</ele>
        <time>2018-04-14T09:32:01Z</time>
      </trkpt>
      <trkpt lat="45.95461" lon="4.88133">
        <ele>276</ele>
        <time>2018-04-14T09:32:02Z</time>
      </trkpt>
      <trkpt lat="45.95466" lon="4.88131">
        <ele>276</ele>
        <time>2018-04-14T09:32:03Z</time>
      </trkpt>
      <trkpt lat="45.95471" lon="4.88128">
        <ele>276</ele>
        <time>2018-04-14T09:32:04Z</time>
      </trkpt>
      <trkpt lat="45.95476" lon="4.88126">
        <ele>276</ele>
        <time>2018-04-14T09:32:05Z</time>
      </trkpt>
      <trkpt lat="45.95482" lon="4.88124">
        <ele>276</ele>
        <time>2018-04-14T09:32:06Z</time>
      </trkpt>
      <trkpt lat="45.95486" lon="4.88122">
        <ele>276</ele>
        <time>2018-04-14T09:32:07Z</time>
      </trkpt>
      <trkpt lat="45.95491" lon="4.88121">
        <ele>276</ele>
        <time>2018-04-14T09:32:08Z</time>
      </trkpt>
      <trkpt lat="45.95497" lon="4.88118">
        <ele>276</ele>
        <time>2018-04-14T09:32:09Z</time>
      </trkpt>
      <trkpt lat="45.95502" lon="4.88114">
        <ele>276</ele>
        <time>2018-04-14T09:32:10Z</time>
      </trkpt>
      <trkpt lat="45.95507" lon="4.88112">
        <ele>276</ele>
        <time>2018-04-14T09:32:11Z</time>
      </trkpt>
      <trkpt lat="45.95513" lon="4.8811">
        <ele>276</ele>
        <time>2018-04-14T09:32:12Z</time>
      </trkpt>
      <trkpt lat="45.95517" lon="4.88108">
        <ele>276</ele>
        <time>2018-04-14T09:32:13Z</time>
      </trkpt>
      <trkpt lat="45.95523" lon="4.88107">
        <ele>277</ele>
        <time>2018-04-14T09:32:14Z</time>
      </trkpt>
      <trkpt lat="45.95527" lon="4.88106">
        <ele>277</ele>
        <time>2018-04-14T09:32:15Z</time>
      </trkpt>
      <trkpt lat="45.95532" lon="4.88104">
        <ele>277</ele>
        <time>2018-04-14T09:32:16Z</time>
      </trkpt>
      <trkpt lat="45.95536" lon="4.88101">
        <ele>277</ele>
        <time>2018-04-14T09:32:17Z</time>
      </trkpt>
      <trkpt lat="45.95541" lon="4.88099">
        <ele>277</ele>
        <time>2018-04-14T09:32:18Z</time>
      </trkpt>
      <trkpt lat="45.95546" lon="4.88097">
        <ele>277</ele>
        <time>2018-04-14T09:32:19Z</time>
      </trkpt>
      <trkpt lat="45.9555" lon="4.88094">
        <ele>277</ele>
        <time>2018-04-14T09:32:20Z</time>
      </trkpt>
      <trkpt lat="45.95555" lon="4.88091">
        <ele>277</ele>
        <time>2018-04-14T09:32:21Z</time>
      </trkpt>
      <trkpt lat="45.95559" lon="4.88088">
        <ele>277</ele>
        <time>2018-04-14T09:32:22Z</time>
      </trkpt>
      <trkpt lat="45.95564" lon="4.88086">
        <ele>277</ele>
        <time>2018-04-14T09:32:23Z</time>
      </trkpt>
      <trkpt lat="45.95568" lon="4.88083">
        <ele>276</ele>
        <time>2018-04-14T09:32:24Z</time>
      </trkpt>
      <trkpt lat="45.95572" lon="4.88081">
        <ele>277</ele>
        <time>2018-04-14T09:32:25Z</time>
      </trkpt>
      <trkpt lat="45.95576" lon="4.88077">
        <ele>277</ele>
        <time>2018-04-14T09:32:26Z</time>
      </trkpt>
      <trkpt lat="45.9558" lon="4.88074">
        <ele>277</ele>
        <time>2018-04-14T09:32:27Z</time>
      </trkpt>
      <trkpt lat="45.95587" lon="4.88066">
        <ele>278</ele>
        <time>2018-04-14T09:32:29Z</time>
      </trkpt>
      <trkpt lat="45.95591" lon="4.88063">
        <ele>278</ele>
        <time>2018-04-14T09:32:30Z</time>
      </trkpt>
      <trkpt lat="45.95595" lon="4.88059">
        <ele>278</ele>
        <time>2018-04-14T09:32:31Z</time>
      </trkpt>
      <trkpt lat="45.95599" lon="4.88056">
        <ele>278</ele>
        <time>2018-04-14T09:32:32Z</time>
      </trkpt>
      <trkpt lat="45.95603" lon="4.88052">
        <ele>278</ele>
        <time>2018-04-14T09:32:33Z</time>
      </trkpt>
      <trkpt lat="45.95606" lon="4.88048">
        <ele>278</ele>
        <time>2018-04-14T09:32:34Z</time>
      </trkpt>
      <trkpt lat="45.95613" lon="4.88043">
        <ele>278</ele>
        <time>2018-04-14T09:32:36Z</time>
      </trkpt>
      <trkpt lat="45.95617" lon="4.8804">
        <ele>278</ele>
        <time>2018-04-14T09:32:37Z</time>
      </trkpt>
      <trkpt lat="45.95622" lon="4.88037">
        <ele>278</ele>
        <time>2018-04-14T09:32:38Z</time>
      </trkpt>
      <trkpt lat="45.95625" lon="4.88033">
        <ele>279</ele>
        <time>2018-04-14T09:32:39Z</time>
      </trkpt>
      <trkpt lat="45.95633" lon="4.88028">
        <ele>279</ele>
        <time>2018-04-14T09:32:41Z</time>
      </trkpt>
      <trkpt lat="45.95636" lon="4.88024">
        <ele>279</ele>
        <time>2018-04-14T09:32:42Z</time>
      </trkpt>
      <trkpt lat="45.95643" lon="4.88017">
        <ele>279</ele>
        <time>2018-04-14T09:32:44Z</time>
      </trkpt>
      <trkpt lat="45.95647" lon="4.88014">
        <ele>279</ele>
        <time>2018-04-14T09:32:45Z</time>
      </trkpt>
      <trkpt lat="45.95653" lon="4.88007">
        <ele>280</ele>
        <time>2018-04-14T09:32:47Z</time>
      </trkpt>
      <trkpt lat="45.95657" lon="4.88004">
        <ele>280</ele>
        <time>2018-04-14T09:32:48Z</time>
      </trkpt>
      <trkpt lat="45.95663" lon="4.87998">
        <ele>280</ele>
        <time>2018-04-14T09:32:50Z</time>
      </trkpt>
      <trkpt lat="45.95666" lon="4.87995">
        <ele>280</ele>
        <time>2018-04-14T09:32:51Z</time>
      </trkpt>
      <trkpt lat="45.95671" lon="4.87991">
        <ele>282</ele>
        <time>2018-04-14T09:32:53Z</time>
      </trkpt>
      <trkpt lat="45.95676" lon="4.87988">
        <ele>282</ele>
        <time>2018-04-14T09:32:54Z</time>
      </trkpt>
      <trkpt lat="45.95681" lon="4.87982">
        <ele>282</ele>
        <time>2018-04-14T09:32:57Z</time>
      </trkpt>
      <trkpt lat="45.95684" lon="4.8798">
        <ele>282</ele>
        <time>2018-04-14T09:32:58Z</time>
      </trkpt>
      <trkpt lat="45.95691" lon="4.87974">
        <ele>282</ele>
        <time>2018-04-14T09:33:01Z</time>
      </trkpt>
      <trkpt lat="45.95694" lon="4.87971">
        <ele>282</ele>
        <time>2018-04-14T09:33:02Z</time>
      </trkpt>
      <trkpt lat="45.95699" lon="4.87966">
        <ele>283</ele>
        <time>2018-04-14T09:33:04Z</time>
      </trkpt>
      <trkpt lat="45.95702" lon="4.87964">
        <ele>283</ele>
        <time>2018-04-14T09:33:05Z</time>
      </trkpt>
      <trkpt lat="45.95707" lon="4.87959">
        <ele>283</ele>
        <time>2018-04-14T09:33:07Z</time>
      </trkpt>
      <trkpt lat="45.9571" lon="4.87956">
        <ele>283</ele>
        <time>2018-04-14T09:33:08Z</time>
      </trkpt>
      <trkpt lat="45.95716" lon="4.87951">
        <ele>283</ele>
        <time>2018-04-14T09:33:10Z</time>
      </trkpt>
      <trkpt lat="45.95719" lon="4.87949">
        <ele>283</ele>
        <time>2018-04-14T09:33:11Z</time>
      </trkpt>
      <trkpt lat="45.95724" lon="4.87943">
        <ele>283</ele>
        <time>2018-04-14T09:33:13Z</time>
      </trkpt>
      <trkpt lat="45.95727" lon="4.87941">
        <ele>283</ele>
        <time>2018-04-14T09:33:14Z</time>
      </trkpt>
      <trkpt lat="45.95732" lon="4.87936">
        <ele>284</ele>
        <time>2018-04-14T09:33:16Z</time>
      </trkpt>
      <trkpt lat="45.95735" lon="4.87934">
        <ele>284</ele>
        <time>2018-04-14T09:33:17Z</time>
      </trkpt>
      <trkpt lat="45.9574" lon="4.87929">
        <ele>284</ele>
        <time>2018-04-14T09:33:19Z</time>
      </trkpt>
      <trkpt lat="45.95743" lon="4.87926">
        <ele>284</ele>
        <time>2018-04-14T09:33:20Z</time>
      </trkpt>
      <trkpt lat="45.95748" lon="4.87922">
        <ele>285</ele>
        <time>2018-04-14T09:33:22Z</time>
      </trkpt>
      <trkpt lat="45.95751" lon="4.8792">
        <ele>285</ele>
        <time>2018-04-14T09:33:23Z</time>
      </trkpt>
      <trkpt lat="45.95756" lon="4.87916">
        <ele>285</ele>
        <time>2018-04-14T09:33:25Z</time>
      </trkpt>
      <trkpt lat="45.95759" lon="4.87914">
        <ele>285</ele>
        <time>2018-04-14T09:33:26Z</time>
      </trkpt>
      <trkpt lat="45.95767" lon="4.87908">
        <ele>286</ele>
        <time>2018-04-14T09:33:29Z</time>
      </trkpt>
      <trkpt lat="45.9577" lon="4.87906">
        <ele>286</ele>
        <time>2018-04-14T09:33:30Z</time>
      </trkpt>
      <trkpt lat="45.95777" lon="4.879">
        <ele>286</ele>
        <time>2018-04-14T09:33:33Z</time>
      </trkpt>
      <trkpt lat="45.9578" lon="4.87898">
        <ele>286</ele>
        <time>2018-04-14T09:33:34Z</time>
      </trkpt>
      <trkpt lat="45.95788" lon="4.87893">
        <ele>286</ele>
        <time>2018-04-14T09:33:37Z</time>
      </trkpt>
      <trkpt lat="45.9579" lon="4.87891">
        <ele>286</ele>
        <time>2018-04-14T09:33:38Z</time>
      </trkpt>
      <trkpt lat="45.95798" lon="4.87886">
        <ele>287</ele>
        <time>2018-04-14T09:33:41Z</time>
      </trkpt>
      <trkpt lat="45.95801" lon="4.87884">
        <ele>287</ele>
        <time>2018-04-14T09:33:42Z</time>
      </trkpt>
      <trkpt lat="45.95807" lon="4.8788">
        <ele>287</ele>
        <time>2018-04-14T09:33:44Z</time>
      </trkpt>
      <trkpt lat="45.9581" lon="4.87879">
        <ele>287</ele>
        <time>2018-04-14T09:33:45Z</time>
      </trkpt>
      <trkpt lat="45.95816" lon="4.87877">
        <ele>287</ele>
        <time>2018-04-14T09:33:47Z</time>
      </trkpt>
      <trkpt lat="45.9582" lon="4.87877">
        <ele>287</ele>
        <time>2018-04-14T09:33:48Z</time>
      </trkpt>
      <trkpt lat="45.95826" lon="4.87875">
        <ele>287</ele>
        <time>2018-04-14T09:33:50Z</time>
      </trkpt>
      <trkpt lat="45.95829" lon="4.87875">
        <ele>287</ele>
        <time>2018-04-14T09:33:51Z</time>
      </trkpt>
      <trkpt lat="45.95838" lon="4.87873">
        <ele>289</ele>
        <time>2018-04-14T09:33:54Z</time>
      </trkpt>
      <trkpt lat="45.95846" lon="4.87869">
        <ele>289</ele>
        <time>2018-04-14T09:33:55Z</time>
      </trkpt>
      <trkpt lat="45.95852" lon="4.87861">
        <ele>289</ele>
        <time>2018-04-14T09:33:57Z</time>
      </trkpt>
      <trkpt lat="45.95855" lon="4.87857">
        <ele>289</ele>
        <time>2018-04-14T09:33:58Z</time>
      </trkpt>
      <trkpt lat="45.95862" lon="4.8785">
        <ele>289</ele>
        <time>2018-04-14T09:34:00Z</time>
      </trkpt>
      <trkpt lat="45.95866" lon="4.87847">
        <ele>289</ele>
        <time>2018-04-14T09:34:01Z</time>
      </trkpt>
      <trkpt lat="45.95869" lon="4.87844">
        <ele>289</ele>
        <time>2018-04-14T09:34:02Z</time>
      </trkpt>
      <trkpt lat="45.95873" lon="4.8784">
        <ele>289</ele>
        <time>2018-04-14T09:34:03Z</time>
      </trkpt>
      <trkpt lat="45.95878" lon="4.87835">
        <ele>289</ele>
        <time>2018-04-14T09:34:04Z</time>
      </trkpt>
      <trkpt lat="45.95882" lon="4.87831">
        <ele>288</ele>
        <time>2018-04-14T09:34:05Z</time>
      </trkpt>
      <trkpt lat="45.95886" lon="4.87826">
        <ele>288</ele>
        <time>2018-04-14T09:34:06Z</time>
      </trkpt>
      <trkpt lat="45.95891" lon="4.87821">
        <ele>288</ele>
        <time>2018-04-14T09:34:07Z</time>
      </trkpt>
      <trkpt lat="45.95895" lon="4.87816">
        <ele>288</ele>
        <time>2018-04-14T09:34:08Z</time>
      </trkpt>
      <trkpt lat="45.95899" lon="4.87811">
        <ele>288</ele>
        <time>2018-04-14T09:34:09Z</time>
      </trkpt>
      <trkpt lat="45.95905" lon="4.87803">
        <ele>288</ele>
        <time>2018-04-14T09:34:11Z</time>
      </trkpt>
      <trkpt lat="45.95907" lon="4.87799">
        <ele>288</ele>
        <time>2018-04-14T09:34:12Z</time>
      </trkpt>
      <trkpt lat="45.95913" lon="4.87791">
        <ele>288</ele>
        <time>2018-04-14T09:34:14Z</time>
      </trkpt>
      <trkpt lat="45.95916" lon="4.87787">
        <ele>288</ele>
        <time>2018-04-14T09:34:15Z</time>
      </trkpt>
      <trkpt lat="45.9592" lon="4.8778">
        <ele>289</ele>
        <time>2018-04-14T09:34:17Z</time>
      </trkpt>
      <trkpt lat="45.95923" lon="4.87775">
        <ele>289</ele>
        <time>2018-04-14T09:34:18Z</time>
      </trkpt>
      <trkpt lat="45.95927" lon="4.87766">
        <ele>289</ele>
        <time>2018-04-14T09:34:20Z</time>
      </trkpt>
      <trkpt lat="45.9593" lon="4.87763">
        <ele>289</ele>
        <time>2018-04-14T09:34:21Z</time>
      </trkpt>
      <trkpt lat="45.95935" lon="4.87755">
        <ele>289</ele>
        <time>2018-04-14T09:34:23Z</time>
      </trkpt>
      <trkpt lat="45.95938" lon="4.87751">
        <ele>289</ele>
        <time>2018-04-14T09:34:24Z</time>
      </trkpt>
      <trkpt lat="45.95942" lon="4.87743">
        <ele>288</ele>
        <time>2018-04-14T09:34:26Z</time>
      </trkpt>
      <trkpt lat="45.95945" lon="4.87738">
        <ele>289</ele>
        <time>2018-04-14T09:34:27Z</time>
      </trkpt>
      <trkpt lat="45.95951" lon="4.8773">
        <ele>289</ele>
        <time>2018-04-14T09:34:29Z</time>
      </trkpt>
      <trkpt lat="45.95955" lon="4.87726">
        <ele>289</ele>
        <time>2018-04-14T09:34:30Z</time>
      </trkpt>
      <trkpt lat="45.95959" lon="4.8772">
        <ele>289</ele>
        <time>2018-04-14T09:34:31Z</time>
      </trkpt>
      <trkpt lat="45.95962" lon="4.87715">
        <ele>289</ele>
        <time>2018-04-14T09:34:32Z</time>
      </trkpt>
      <trkpt lat="45.95966" lon="4.87711">
        <ele>289</ele>
        <time>2018-04-14T09:34:33Z</time>
      </trkpt>
      <trkpt lat="45.9597" lon="4.87706">
        <ele>289</ele>
        <time>2018-04-14T09:34:34Z</time>
      </trkpt>
      <trkpt lat="45.95974" lon="4.87701">
        <ele>289</ele>
        <time>2018-04-14T09:34:35Z</time>
      </trkpt>
      <trkpt lat="45.95977" lon="4.87695">
        <ele>289</ele>
        <time>2018-04-14T09:34:36Z</time>
      </trkpt>
      <trkpt lat="45.9598" lon="4.8769">
        <ele>289</ele>
        <time>2018-04-14T09:34:37Z</time>
      </trkpt>
      <trkpt lat="45.95984" lon="4.87686">
        <ele>289</ele>
        <time>2018-04-14T09:34:38Z</time>
      </trkpt>
      <trkpt lat="45.95987" lon="4.87681">
        <ele>289</ele>
        <time>2018-04-14T09:34:39Z</time>
      </trkpt>
      <trkpt lat="45.95992" lon="4.87676">
        <ele>289</ele>
        <time>2018-04-14T09:34:40Z</time>
      </trkpt>
      <trkpt lat="45.95996" lon="4.87672">
        <ele>290</ele>
        <time>2018-04-14T09:34:41Z</time>
      </trkpt>
      <trkpt lat="45.95999" lon="4.87667">
        <ele>290</ele>
        <time>2018-04-14T09:34:42Z</time>
      </trkpt>
      <trkpt lat="45.96005" lon="4.87661">
        <ele>290</ele>
        <time>2018-04-14T09:34:44Z</time>
      </trkpt>
      <trkpt lat="45.96009" lon="4.87656">
        <ele>289</ele>
        <time>2018-04-14T09:34:45Z</time>
      </trkpt>
      <trkpt lat="45.96015" lon="4.87648">
        <ele>289</ele>
        <time>2018-04-14T09:34:47Z</time>
      </trkpt>
      <trkpt lat="45.96019" lon="4.87644">
        <ele>289</ele>
        <time>2018-04-14T09:34:48Z</time>
      </trkpt>
      <trkpt lat="45.96024" lon="4.8764">
        <ele>289</ele>
        <time>2018-04-14T09:34:49Z</time>
      </trkpt>
      <trkpt lat="45.96027" lon="4.87636">
        <ele>289</ele>
        <time>2018-04-14T09:34:50Z</time>
      </trkpt>
      <trkpt lat="45.96031" lon="4.87633">
        <ele>289</ele>
        <time>2018-04-14T09:34:51Z</time>
      </trkpt>
      <trkpt lat="45.96035" lon="4.87628">
        <ele>289</ele>
        <time>2018-04-14T09:34:52Z</time>
      </trkpt>
      <trkpt lat="45.96039" lon="4.87625">
        <ele>289</ele>
        <time>2018-04-14T09:34:53Z</time>
      </trkpt>
      <trkpt lat="45.96042" lon="4.8762">
        <ele>289</ele>
        <time>2018-04-14T09:34:54Z</time>
      </trkpt>
      <trkpt lat="45.96047" lon="4.87616">
        <ele>289</ele>
        <time>2018-04-14T09:34:55Z</time>
      </trkpt>
      <trkpt lat="45.9605" lon="4.87611">
        <ele>289</ele>
        <time>2018-04-14T09:34:56Z</time>
      </trkpt>
      <trkpt lat="45.96053" lon="4.87606">
        <ele>289</ele>
        <time>2018-04-14T09:34:57Z</time>
      </trkpt>
      <trkpt lat="45.96057" lon="4.87602">
        <ele>289</ele>
        <time>2018-04-14T09:34:58Z</time>
      </trkpt>
      <trkpt lat="45.96062" lon="4.87592">
        <ele>288</ele>
        <time>2018-04-14T09:35:00Z</time>
      </trkpt>
      <trkpt lat="45.96066" lon="4.87588">
        <ele>288</ele>
        <time>2018-04-14T09:35:01Z</time>
      </trkpt>
      <trkpt lat="45.96069" lon="4.87584">
        <ele>288</ele>
        <time>2018-04-14T09:35:02Z</time>
      </trkpt>
      <trkpt lat="45.96073" lon="4.8758">
        <ele>288</ele>
        <time>2018-04-14T09:35:03Z</time>
      </trkpt>
      <trkpt lat="45.96077" lon="4.87576">
        <ele>288</ele>
        <time>2018-04-14T09:35:04Z</time>
      </trkpt>
      <trkpt lat="45.96081" lon="4.87572">
        <ele>288</ele>
        <time>2018-04-14T09:35:05Z</time>
      </trkpt>
      <trkpt lat="45.96086" lon="4.87567">
        <ele>287</ele>
        <time>2018-04-14T09:35:06Z</time>
      </trkpt>
      <trkpt lat="45.9609" lon="4.87563">
        <ele>287</ele>
        <time>2018-04-14T09:35:07Z</time>
      </trkpt>
      <trkpt lat="45.96094" lon="4.87558">
        <ele>287</ele>
        <time>2018-04-14T09:35:08Z</time>
      </trkpt>
      <trkpt lat="45.96098" lon="4.87554">
        <ele>287</ele>
        <time>2018-04-14T09:35:09Z</time>
      </trkpt>
      <trkpt lat="45.96103" lon="4.87549">
        <ele>287</ele>
        <time>2018-04-14T09:35:10Z</time>
      </trkpt>
      <trkpt lat="45.96107" lon="4.87543">
        <ele>287</ele>
        <time>2018-04-14T09:35:11Z</time>
      </trkpt>
      <trkpt lat="45.96112" lon="4.87538">
        <ele>287</ele>
        <time>2018-04-14T09:35:12Z</time>
      </trkpt>
      <trkpt lat="45.96116" lon="4.87535">
        <ele>287</ele>
        <time>2018-04-14T09:35:13Z</time>
      </trkpt>
      <trkpt lat="45.9612" lon="4.8753">
        <ele>287</ele>
        <time>2018-04-14T09:35:14Z</time>
      </trkpt>
      <trkpt lat="45.96128" lon="4.87523">
        <ele>286</ele>
        <time>2018-04-14T09:35:15Z</time>
      </trkpt>
      <trkpt lat="45.96135" lon="4.87515">
        <ele>286</ele>
        <time>2018-04-14T09:35:16Z</time>
      </trkpt>
      <trkpt lat="45.96137" lon="4.87511">
        <ele>286</ele>
        <time>2018-04-14T09:35:17Z</time>
      </trkpt>
      <trkpt lat="45.96142" lon="4.87506">
        <ele>286</ele>
        <time>2018-04-14T09:35:18Z</time>
      </trkpt>
      <trkpt lat="45.96146" lon="4.875">
        <ele>286</ele>
        <time>2018-04-14T09:35:19Z</time>
      </trkpt>
      <trkpt lat="45.9615" lon="4.87496">
        <ele>285</ele>
        <time>2018-04-14T09:35:20Z</time>
      </trkpt>
      <trkpt lat="45.96154" lon="4.87491">
        <ele>285</ele>
        <time>2018-04-14T09:35:21Z</time>
      </trkpt>
      <trkpt lat="45.96158" lon="4.87486">
        <ele>285</ele>
        <time>2018-04-14T09:35:22Z</time>
      </trkpt>
      <trkpt lat="45.96162" lon="4.87481">
        <ele>285</ele>
        <time>2018-04-14T09:35:23Z</time>
      </trkpt>
      <trkpt lat="45.96168" lon="4.87475">
        <ele>284</ele>
        <time>2018-04-14T09:35:24Z</time>
      </trkpt>
      <trkpt lat="45.96173" lon="4.87469">
        <ele>284</ele>
        <time>2018-04-14T09:35:25Z</time>
      </trkpt>
      <trkpt lat="45.96178" lon="4.87463">
        <ele>284</ele>
        <time>2018-04-14T09:35:26Z</time>
      </trkpt>
      <trkpt lat="45.96183" lon="4.87457">
        <ele>284</ele>
        <time>2018-04-14T09:35:27Z</time>
      </trkpt>
      <trkpt lat="45.96188" lon="4.87452">
        <ele>284</ele>
        <time>2018-04-14T09:35:28Z</time>
      </trkpt>
      <trkpt lat="45.96192" lon="4.87446">
        <ele>284</ele>
        <time>2018-04-14T09:35:29Z</time>
      </trkpt>
      <trkpt lat="45.96197" lon="4.87441">
        <ele>284</ele>
        <time>2018-04-14T09:35:30Z</time>
      </trkpt>
      <trkpt lat="45.96202" lon="4.87435">
        <ele>284</ele>
        <time>2018-04-14T09:35:31Z</time>
      </trkpt>
      <trkpt lat="45.96206" lon="4.87431">
        <ele>284</ele>
        <time>2018-04-14T09:35:32Z</time>
      </trkpt>
      <trkpt lat="45.96211" lon="4.87425">
        <ele>284</ele>
        <time>2018-04-14T09:35:33Z</time>
      </trkpt>
      <trkpt lat="45.96216" lon="4.87419">
        <ele>284</ele>
        <time>2018-04-14T09:35:34Z</time>
      </trkpt>
      <trkpt lat="45.9622" lon="4.87414">
        <ele>283</ele>
        <time>2018-04-14T09:35:35Z</time>
      </trkpt>
      <trkpt lat="45.96225" lon="4.87408">
        <ele>283</ele>
        <time>2018-04-14T09:35:36Z</time>
      </trkpt>
      <trkpt lat="45.9623" lon="4.87402">
        <ele>283</ele>
        <time>2018-04-14T09:35:37Z</time>
      </trkpt>
      <trkpt lat="45.96234" lon="4.87397">
        <ele>283</ele>
        <time>2018-04-14T09:35:38Z</time>
      </trkpt>
      <trkpt lat="45.96239" lon="4.87391">
        <ele>283</ele>
        <time>2018-04-14T09:35:39Z</time>
      </trkpt>
      <trkpt lat="45.96243" lon="4.87387">
        <ele>283</ele>
        <time>2018-04-14T09:35:40Z</time>
      </trkpt>
      <trkpt lat="45.96247" lon="4.87381">
        <ele>283</ele>
        <time>2018-04-14T09:35:41Z</time>
      </trkpt>
      <trkpt lat="45.96251" lon="4.87377">
        <ele>283</ele>
        <time>2018-04-14T09:35:42Z</time>
      </trkpt>
      <trkpt lat="45.96255" lon="4.87372">
        <ele>283</ele>
        <time>2018-04-14T09:35:43Z</time>
      </trkpt>
      <trkpt lat="45.9626" lon="4.87367">
        <ele>283</ele>
        <time>2018-04-14T09:35:44Z</time>
      </trkpt>
      <trkpt lat="45.96265" lon="4.87362">
        <ele>283</ele>
        <time>2018-04-14T09:35:45Z</time>
      </trkpt>
      <trkpt lat="45.96269" lon="4.87356">
        <ele>283</ele>
        <time>2018-04-14T09:35:46Z</time>
      </trkpt>
      <trkpt lat="45.96273" lon="4.8735">
        <ele>283</ele>
        <time>2018-04-14T09:35:47Z</time>
      </trkpt>
      <trkpt lat="45.96278" lon="4.87344">
        <ele>284</ele>
        <time>2018-04-14T09:35:48Z</time>
      </trkpt>
      <trkpt lat="45.96283" lon="4.87338">
        <ele>284</ele>
        <time>2018-04-14T09:35:49Z</time>
      </trkpt>
      <trkpt lat="45.96287" lon="4.87331">
        <ele>283</ele>
        <time>2018-04-14T09:35:50Z</time>
      </trkpt>
      <trkpt lat="45.96292" lon="4.87325">
        <ele>283</ele>
        <time>2018-04-14T09:35:51Z</time>
      </trkpt>
      <trkpt lat="45.96296" lon="4.87319">
        <ele>283</ele>
        <time>2018-04-14T09:35:52Z</time>
      </trkpt>
      <trkpt lat="45.963" lon="4.87314">
        <ele>283</ele>
        <time>2018-04-14T09:35:53Z</time>
      </trkpt>
      <trkpt lat="45.96304" lon="4.87309">
        <ele>283</ele>
        <time>2018-04-14T09:35:54Z</time>
      </trkpt>
      <trkpt lat="45.96308" lon="4.87304">
        <ele>283</ele>
        <time>2018-04-14T09:35:55Z</time>
      </trkpt>
      <trkpt lat="45.96312" lon="4.87299">
        <ele>283</ele>
        <time>2018-04-14T09:35:56Z</time>
      </trkpt>
      <trkpt lat="45.96317" lon="4.87293">
        <ele>283</ele>
        <time>2018-04-14T09:35:57Z</time>
      </trkpt>
      <trkpt lat="45.96321" lon="4.87288">
        <ele>283</ele>
        <time>2018-04-14T09:35:58Z</time>
      </trkpt>
      <trkpt lat="45.96325" lon="4.87283">
        <ele>283</ele>
        <time>2018-04-14T09:35:59Z</time>
      </trkpt>
      <trkpt lat="45.9633" lon="4.87276">
        <ele>283</ele>
        <time>2018-04-14T09:36:00Z</time>
      </trkpt>
      <trkpt lat="45.96335" lon="4.8727">
        <ele>283</ele>
        <time>2018-04-14T09:36:01Z</time>
      </trkpt>
      <trkpt lat="45.96339" lon="4.87264">
        <ele>283</ele>
        <time>2018-04-14T09:36:02Z</time>
      </trkpt>
      <trkpt lat="45.96344" lon="4.87259">
        <ele>283</ele>
        <time>2018-04-14T09:36:03Z</time>
      </trkpt>
      <trkpt lat="45.96348" lon="4.87254">
        <ele>283</ele>
        <time>2018-04-14T09:36:04Z</time>
      </trkpt>
      <trkpt lat="45.96352" lon="4.87248">
        <ele>282</ele>
        <time>2018-04-14T09:36:05Z</time>
      </trkpt>
      <trkpt lat="45.96356" lon="4.87243">
        <ele>282</ele>
        <time>2018-04-14T09:36:06Z</time>
      </trkpt>
      <trkpt lat="45.96361" lon="4.87237">
        <ele>282</ele>
        <time>2018-04-14T09:36:07Z</time>
      </trkpt>
      <trkpt lat="45.96365" lon="4.87232">
        <ele>282</ele>
        <time>2018-04-14T09:36:08Z</time>
      </trkpt>
      <trkpt lat="45.9637" lon="4.87226">
        <ele>282</ele>
        <time>2018-04-14T09:36:09Z</time>
      </trkpt>
      <trkpt lat="45.96374" lon="4.87219">
        <ele>282</ele>
        <time>2018-04-14T09:36:10Z</time>
      </trkpt>
      <trkpt lat="45.96378" lon="4.87213">
        <ele>282</ele>
        <time>2018-04-14T09:36:11Z</time>
      </trkpt>
      <trkpt lat="45.96382" lon="4.87208">
        <ele>282</ele>
        <time>2018-04-14T09:36:12Z</time>
      </trkpt>
      <trkpt lat="45.96386" lon="4.87201">
        <ele>282</ele>
        <time>2018-04-14T09:36:13Z</time>
      </trkpt>
      <trkpt lat="45.96391" lon="4.87196">
        <ele>282</ele>
        <time>2018-04-14T09:36:14Z</time>
      </trkpt>
      <trkpt lat="45.96395" lon="4.8719">
        <ele>282</ele>
        <time>2018-04-14T09:36:15Z</time>
      </trkpt>
      <trkpt lat="45.96399" lon="4.87185">
        <ele>282</ele>
        <time>2018-04-14T09:36:16Z</time>
      </trkpt>
      <trkpt lat="45.96403" lon="4.87179">
        <ele>282</ele>
        <time>2018-04-14T09:36:17Z</time>
      </trkpt>
      <trkpt lat="45.96407" lon="4.87174">
        <ele>281</ele>
        <time>2018-04-14T09:36:18Z</time>
      </trkpt>
      <trkpt lat="45.96412" lon="4.87168">
        <ele>281</ele>
        <time>2018-04-14T09:36:19Z</time>
      </trkpt>
      <trkpt lat="45.96416" lon="4.87161">
        <ele>281</ele>
        <time>2018-04-14T09:36:20Z</time>
      </trkpt>
      <trkpt lat="45.9642" lon="4.87157">
        <ele>281</ele>
        <time>2018-04-14T09:36:21Z</time>
      </trkpt>
      <trkpt lat="45.96424" lon="4.87151">
        <ele>281</ele>
        <time>2018-04-14T09:36:22Z</time>
      </trkpt>
      <trkpt lat="45.96427" lon="4.87146">
        <ele>281</ele>
        <time>2018-04-14T09:36:23Z</time>
      </trkpt>
      <trkpt lat="45.96432" lon="4.8714">
        <ele>281</ele>
        <time>2018-04-14T09:36:24Z</time>
      </trkpt>
      <trkpt lat="45.96436" lon="4.87135">
        <ele>281</ele>
        <time>2018-04-14T09:36:25Z</time>
      </trkpt>
      <trkpt lat="45.96439" lon="4.8713">
        <ele>281</ele>
        <time>2018-04-14T09:36:26Z</time>
      </trkpt>
      <trkpt lat="45.96442" lon="4.87125">
        <ele>281</ele>
        <time>2018-04-14T09:36:27Z</time>
      </trkpt>
      <trkpt lat="45.96446" lon="4.87121">
        <ele>281</ele>
        <time>2018-04-14T09:36:28Z</time>
      </trkpt>
      <trkpt lat="45.96449" lon="4.87116">
        <ele>281</ele>
        <time>2018-04-14T09:36:29Z</time>
      </trkpt>
      <trkpt lat="45.96453" lon="4.87111">
        <ele>281</ele>
        <time>2018-04-14T09:36:30Z</time>
      </trkpt>
      <trkpt lat="45.96456" lon="4.87106">
        <ele>281</ele>
        <time>2018-04-14T09:36:31Z</time>
      </trkpt>
      <trkpt lat="45.96463" lon="4.87097">
        <ele>282</ele>
        <time>2018-04-14T09:36:33Z</time>
      </trkpt>
      <trkpt lat="45.96465" lon="4.87092">
        <ele>282</ele>
        <time>2018-04-14T09:36:34Z</time>
      </trkpt>
      <trkpt lat="45.9647" lon="4.87088">
        <ele>282</ele>
        <time>2018-04-14T09:36:35Z</time>
      </trkpt>
      <trkpt lat="45.96473" lon="4.87084">
        <ele>282</ele>
        <time>2018-04-14T09:36:36Z</time>
      </trkpt>
      <trkpt lat="45.96476" lon="4.87079">
        <ele>282</ele>
        <time>2018-04-14T09:36:37Z</time>
      </trkpt>
      <trkpt lat="45.96481" lon="4.87075">
        <ele>282</ele>
        <time>2018-04-14T09:36:38Z</time>
      </trkpt>
      <trkpt lat="45.96484" lon="4.8707">
        <ele>282</ele>
        <time>2018-04-14T09:36:39Z</time>
      </trkpt>
      <trkpt lat="45.96488" lon="4.87064">
        <ele>282</ele>
        <time>2018-04-14T09:36:40Z</time>
      </trkpt>
      <trkpt lat="45.96492" lon="4.8706">
        <ele>282</ele>
        <time>2018-04-14T09:36:41Z</time>
      </trkpt>
      <trkpt lat="45.96496" lon="4.87055">
        <ele>281</ele>
        <time>2018-04-14T09:36:42Z</time>
      </trkpt>
      <trkpt lat="45.96499" lon="4.87049">
        <ele>281</ele>
        <time>2018-04-14T09:36:43Z</time>
      </trkpt>
      <trkpt lat="45.96502" lon="4.87045">
        <ele>282</ele>
        <time>2018-04-14T09:36:44Z</time>
      </trkpt>
      <trkpt lat="45.96511" lon="4.87042">
        <ele>283</ele>
        <time>2018-04-14T09:36:47Z</time>
      </trkpt>
      <trkpt lat="45.96513" lon="4.87043">
        <ele>283</ele>
        <time>2018-04-14T09:36:48Z</time>
      </trkpt>
      <trkpt lat="45.96516" lon="4.87051">
        <ele>283</ele>
        <time>2018-04-14T09:36:51Z</time>
      </trkpt>
      <trkpt lat="45.96518" lon="4.87055">
        <ele>283</ele>
        <time>2018-04-14T09:36:52Z</time>
      </trkpt>
      <trkpt lat="45.96523" lon="4.87062">
        <ele>283</ele>
        <time>2018-04-14T09:36:55Z</time>
      </trkpt>
      <trkpt lat="45.96525" lon="4.87063">
        <ele>283</ele>
        <time>2018-04-14T09:36:56Z</time>
      </trkpt>
      <trkpt lat="45.96533" lon="4.87062">
        <ele>283</ele>
        <time>2018-04-14T09:37:00Z</time>
      </trkpt>
      <trkpt lat="45.96534" lon="4.87061">
        <ele>283</ele>
        <time>2018-04-14T09:37:01Z</time>
      </trkpt>
      <trkpt lat="45.96541" lon="4.87067">
        <ele>283</ele>
        <time>2018-04-14T09:37:08Z</time>
      </trkpt>
      <trkpt lat="45.96542" lon="4.87069">
        <ele>283</ele>
        <time>2018-04-14T09:37:09Z</time>
      </trkpt>
      <trkpt lat="45.9655" lon="4.87072">
        <ele>283</ele>
        <time>2018-04-14T09:37:15Z</time>
      </trkpt>
      <trkpt lat="45.96552" lon="4.87071">
        <ele>283</ele>
        <time>2018-04-14T09:37:16Z</time>
      </trkpt>
      <trkpt lat="45.96557" lon="4.87065">
        <ele>283</ele>
        <time>2018-04-14T09:37:19Z</time>
      </trkpt>
      <trkpt lat="45.96558" lon="4.87062">
        <ele>283</ele>
        <time>2018-04-14T09:37:20Z</time>
      </trkpt>
      <trkpt lat="45.96559" lon="4.87053">
        <ele>283</ele>
        <time>2018-04-14T09:37:22Z</time>
      </trkpt>
      <trkpt lat="45.96559" lon="4.87049">
        <ele>283</ele>
        <time>2018-04-14T09:37:23Z</time>
      </trkpt>
      <trkpt lat="45.96557" lon="4.87038">
        <ele>283</ele>
        <time>2018-04-14T09:37:26Z</time>
      </trkpt>
      <trkpt lat="45.96556" lon="4.87034">
        <ele>283</ele>
        <time>2018-04-14T09:37:27Z</time>
      </trkpt>
      <trkpt lat="45.96547" lon="4.87033">
        <ele>283</ele>
        <time>2018-04-14T09:38:39Z</time>
      </trkpt>
      <trkpt lat="45.96547" lon="4.87033">
        <ele>283</ele>
        <time>2018-04-14T09:38:40Z</time>
      </trkpt>
      <trkpt lat="45.96542" lon="4.87027">
        <ele>283</ele>
        <time>2018-04-14T09:39:00Z</time>
      </trkpt>
      <trkpt lat="45.9654" lon="4.87024">
        <ele>283</ele>
        <time>2018-04-14T09:39:01Z</time>
      </trkpt>
      <trkpt lat="45.96533" lon="4.87018">
        <ele>283</ele>
        <time>2018-04-14T09:39:06Z</time>
      </trkpt>
      <trkpt lat="45.96532" lon="4.87017">
        <ele>283</ele>
        <time>2018-04-14T09:39:07Z</time>
      </trkpt>
      <trkpt lat="45.96536" lon="4.87025">
        <ele>283</ele>
        <time>2018-04-14T09:42:52Z</time>
      </trkpt>
      <trkpt lat="45.96538" lon="4.87028">
        <ele>283</ele>
        <time>2018-04-14T09:42:53Z</time>
      </trkpt>
      <trkpt lat="45.96536" lon="4.87029">
        <ele>283</ele>
        <time>2018-04-14T09:44:32Z</time>
      </trkpt>
      <trkpt lat="45.96536" lon="4.87029">
        <ele>283</ele>
        <time>2018-04-14T09:44:33Z</time>
      </trkpt>
      <trkpt lat="45.96539" lon="4.87028">
        <ele>283</ele>
        <time>2018-04-14T09:46:18Z</time>
      </trkpt>
      <trkpt lat="45.96539" lon="4.87028">
        <ele>283</ele>
        <time>2018-04-14T09:46:19Z</time>
      </trkpt>
      <trkpt lat="45.9654" lon="4.87036">
        <ele>283</ele>
        <time>2018-04-14T09:46:45Z</time>
      </trkpt>
      <trkpt lat="45.9654" lon="4.87036">
        <ele>283</ele>
        <time>2018-04-14T09:46:46Z</time>
      </trkpt>
      <trkpt lat="45.96546" lon="4.87045">
        <ele>283</ele>
        <time>2018-04-14T09:51:14.014Z</time>
      </trkpt>
      <trkpt lat="45.96546" lon="4.87045">
        <ele>283</ele>
        <time>2018-04-14T09:51:14.969Z</time>
      </trkpt>
      <trkpt lat="45.96544" lon="4.8704">
        <ele>283</ele>
        <time>2018-04-14T09:51:18.855Z</time>
      </trkpt>
      <trkpt lat="45.96544" lon="4.8704">
        <ele>283</ele>
        <time>2018-04-14T09:51:19.862Z</time>
      </trkpt>
      <trkpt lat="45.96542" lon="4.87039">
        <ele>283</ele>
        <time>2018-04-14T09:56:33Z</time>
      </trkpt>
      <trkpt lat="45.96542" lon="4.87039">
        <ele>283</ele>
        <time>2018-04-14T09:56:34Z</time>
      </trkpt>
      <trkpt lat="45.96542" lon="4.87038">
        <ele>283</ele>
        <time>2018-04-14T09:56:35Z</time>
      </trkpt>
      <trkpt lat="45.96543" lon="4.87026">
        <ele>283</ele>
        <time>2018-04-14T09:57:06Z</time>
      </trkpt>
      <trkpt lat="45.96542" lon="4.87025">
        <ele>283</ele>
        <time>2018-04-14T09:57:07Z</time>
      </trkpt>
      <trkpt lat="45.96543" lon="4.87014">
        <ele>283</ele>
        <time>2018-04-14T09:57:11Z</time>
      </trkpt>
      <trkpt lat="45.96543" lon="4.87011">
        <ele>283</ele>
        <time>2018-04-14T09:57:12Z</time>
      </trkpt>
      <trkpt lat="45.96544" lon="4.87">
        <ele>283</ele>
        <time>2018-04-14T09:57:16Z</time>
      </trkpt>
      <trkpt lat="45.96545" lon="4.86997">
        <ele>283</ele>
        <time>2018-04-14T09:57:17Z</time>
      </trkpt>
      <trkpt lat="45.96549" lon="4.86989">
        <ele>283</ele>
        <time>2018-04-14T09:57:20Z</time>
      </trkpt>
      <trkpt lat="45.96551" lon="4.86987">
        <ele>283</ele>
        <time>2018-04-14T09:57:21Z</time>
      </trkpt>
      <trkpt lat="45.96558" lon="4.86979">
        <ele>283</ele>
        <time>2018-04-14T09:57:24Z</time>
      </trkpt>
      <trkpt lat="45.9656" lon="4.86976">
        <ele>284</ele>
        <time>2018-04-14T09:57:25Z</time>
      </trkpt>
      <trkpt lat="45.96562" lon="4.86973">
        <ele>284</ele>
        <time>2018-04-14T09:57:26Z</time>
      </trkpt>
      <trkpt lat="45.96568" lon="4.86963">
        <ele>284</ele>
        <time>2018-04-14T09:57:27Z</time>
      </trkpt>
      <trkpt lat="45.96572" lon="4.86954">
        <ele>284</ele>
        <time>2018-04-14T09:57:30Z</time>
      </trkpt>
      <trkpt lat="45.96573" lon="4.86951">
        <ele>284</ele>
        <time>2018-04-14T09:57:31Z</time>
      </trkpt>
      <trkpt lat="45.96579" lon="4.86941">
        <ele>284</ele>
        <time>2018-04-14T09:57:34Z</time>
      </trkpt>
      <trkpt lat="45.96585" lon="4.86929">
        <ele>285</ele>
        <time>2018-04-14T09:57:35Z</time>
      </trkpt>
      <trkpt lat="45.96589" lon="4.86923">
        <ele>285</ele>
        <time>2018-04-14T09:57:37Z</time>
      </trkpt>
      <trkpt lat="45.96593" lon="4.86917">
        <ele>286</ele>
        <time>2018-04-14T09:57:38Z</time>
      </trkpt>
      <trkpt lat="45.96597" lon="4.8691">
        <ele>286</ele>
        <time>2018-04-14T09:57:40Z</time>
      </trkpt>
      <trkpt lat="45.966" lon="4.86904">
        <ele>286</ele>
        <time>2018-04-14T09:57:41Z</time>
      </trkpt>
      <trkpt lat="45.96605" lon="4.86896">
        <ele>286</ele>
        <time>2018-04-14T09:57:45Z</time>
      </trkpt>
      <trkpt lat="45.96606" lon="4.86893">
        <ele>287</ele>
        <time>2018-04-14T09:57:46Z</time>
      </trkpt>
      <trkpt lat="45.96612" lon="4.86885">
        <ele>287</ele>
        <time>2018-04-14T09:57:50Z</time>
      </trkpt>
      <trkpt lat="45.96619" lon="4.86875">
        <ele>287</ele>
        <time>2018-04-14T09:57:51Z</time>
      </trkpt>
      <trkpt lat="45.96623" lon="4.86868">
        <ele>287</ele>
        <time>2018-04-14T09:57:53Z</time>
      </trkpt>
      <trkpt lat="45.96626" lon="4.86863">
        <ele>287</ele>
        <time>2018-04-14T09:57:54Z</time>
      </trkpt>
      <trkpt lat="45.96631" lon="4.86852">
        <ele>287</ele>
        <time>2018-04-14T09:57:56Z</time>
      </trkpt>
      <trkpt lat="45.96632" lon="4.8685">
        <ele>287</ele>
        <time>2018-04-14T09:57:57Z</time>
      </trkpt>
      <trkpt lat="45.96635" lon="4.86844">
        <ele>287</ele>
        <time>2018-04-14T09:57:58Z</time>
      </trkpt>
      <trkpt lat="45.96639" lon="4.86838">
        <ele>287</ele>
        <time>2018-04-14T09:57:59Z</time>
      </trkpt>
      <trkpt lat="45.96642" lon="4.86833">
        <ele>288</ele>
        <time>2018-04-14T09:58:00Z</time>
      </trkpt>
      <trkpt lat="45.96645" lon="4.86828">
        <ele>288</ele>
        <time>2018-04-14T09:58:01Z</time>
      </trkpt>
      <trkpt lat="45.96651" lon="4.86819">
        <ele>288</ele>
        <time>2018-04-14T09:58:03Z</time>
      </trkpt>
      <trkpt lat="45.96654" lon="4.86814">
        <ele>288</ele>
        <time>2018-04-14T09:58:04Z</time>
      </trkpt>
      <trkpt lat="45.9666" lon="4.86804">
        <ele>288</ele>
        <time>2018-04-14T09:58:06Z</time>
      </trkpt>
      <trkpt lat="45.96662" lon="4.86799">
        <ele>288</ele>
        <time>2018-04-14T09:58:07Z</time>
      </trkpt>
      <trkpt lat="45.96668" lon="4.8679">
        <ele>289</ele>
        <time>2018-04-14T09:58:09Z</time>
      </trkpt>
      <trkpt lat="45.96673" lon="4.86783">
        <ele>289</ele>
        <time>2018-04-14T09:58:10Z</time>
      </trkpt>
      <trkpt lat="45.96677" lon="4.86778">
        <ele>289</ele>
        <time>2018-04-14T09:58:11Z</time>
      </trkpt>
      <trkpt lat="45.9668" lon="4.86773">
        <ele>289</ele>
        <time>2018-04-14T09:58:12Z</time>
      </trkpt>
      <trkpt lat="45.96684" lon="4.86767">
        <ele>289</ele>
        <time>2018-04-14T09:58:13Z</time>
      </trkpt>
      <trkpt lat="45.96686" lon="4.86763">
        <ele>289</ele>
        <time>2018-04-14T09:58:14Z</time>
      </trkpt>
      <trkpt lat="45.96689" lon="4.86757">
        <ele>289</ele>
        <time>2018-04-14T09:58:15Z</time>
      </trkpt>
      <trkpt lat="45.96693" lon="4.86752">
        <ele>289</ele>
        <time>2018-04-14T09:58:16Z</time>
      </trkpt>
      <trkpt lat="45.96696" lon="4.86747">
        <ele>289</ele>
        <time>2018-04-14T09:58:17Z</time>
      </trkpt>
      <trkpt lat="45.96699" lon="4.86742">
        <ele>289</ele>
        <time>2018-04-14T09:58:18Z</time>
      </trkpt>
      <trkpt lat="45.96704" lon="4.86733">
        <ele>289</ele>
        <time>2018-04-14T09:58:20Z</time>
      </trkpt>
      <trkpt lat="45.96707" lon="4.86728">
        <ele>289</ele>
        <time>2018-04-14T09:58:21Z</time>
      </trkpt>
      <trkpt lat="45.96712" lon="4.8672">
        <ele>289</ele>
        <time>2018-04-14T09:58:23Z</time>
      </trkpt>
      <trkpt lat="45.96714" lon="4.86715">
        <ele>289</ele>
        <time>2018-04-14T09:58:24Z</time>
      </trkpt>
      <trkpt lat="45.96718" lon="4.86704">
        <ele>289</ele>
        <time>2018-04-14T09:58:26Z</time>
      </trkpt>
      <trkpt lat="45.96721" lon="4.86701">
        <ele>289</ele>
        <time>2018-04-14T09:58:27Z</time>
      </trkpt>
      <trkpt lat="45.96727" lon="4.86692">
        <ele>289</ele>
        <time>2018-04-14T09:58:29Z</time>
      </trkpt>
      <trkpt lat="45.9673" lon="4.86688">
        <ele>289</ele>
        <time>2018-04-14T09:58:30Z</time>
      </trkpt>
      <trkpt lat="45.96735" lon="4.8668">
        <ele>290</ele>
        <time>2018-04-14T09:58:32Z</time>
      </trkpt>
      <trkpt lat="45.96737" lon="4.86675">
        <ele>290</ele>
        <time>2018-04-14T09:58:33Z</time>
      </trkpt>
      <trkpt lat="45.96742" lon="4.86666">
        <ele>290</ele>
        <time>2018-04-14T09:58:35Z</time>
      </trkpt>
      <trkpt lat="45.96744" lon="4.86662">
        <ele>290</ele>
        <time>2018-04-14T09:58:36Z</time>
      </trkpt>
      <trkpt lat="45.96749" lon="4.86653">
        <ele>290</ele>
        <time>2018-04-14T09:58:38Z</time>
      </trkpt>
      <trkpt lat="45.96752" lon="4.86648">
        <ele>290</ele>
        <time>2018-04-14T09:58:39Z</time>
      </trkpt>
      <trkpt lat="45.96758" lon="4.86639">
        <ele>290</ele>
        <time>2018-04-14T09:58:41Z</time>
      </trkpt>
      <trkpt lat="45.96761" lon="4.86633">
        <ele>289</ele>
        <time>2018-04-14T09:58:42Z</time>
      </trkpt>
      <trkpt lat="45.96765" lon="4.86623">
        <ele>289</ele>
        <time>2018-04-14T09:58:44Z</time>
      </trkpt>
      <trkpt lat="45.96768" lon="4.86617">
        <ele>289</ele>
        <time>2018-04-14T09:58:45Z</time>
      </trkpt>
      <trkpt lat="45.96772" lon="4.86611">
        <ele>289</ele>
        <time>2018-04-14T09:58:46Z</time>
      </trkpt>
      <trkpt lat="45.96775" lon="4.86606">
        <ele>289</ele>
        <time>2018-04-14T09:58:47Z</time>
      </trkpt>
      <trkpt lat="45.96779" lon="4.86602">
        <ele>289</ele>
        <time>2018-04-14T09:58:48Z</time>
      </trkpt>
      <trkpt lat="45.96782" lon="4.86596">
        <ele>289</ele>
        <time>2018-04-14T09:58:49Z</time>
      </trkpt>
      <trkpt lat="45.96785" lon="4.86591">
        <ele>289</ele>
        <time>2018-04-14T09:58:50Z</time>
      </trkpt>
      <trkpt lat="45.96788" lon="4.86585">
        <ele>289</ele>
        <time>2018-04-14T09:58:51Z</time>
      </trkpt>
      <trkpt lat="45.96791" lon="4.86581">
        <ele>290</ele>
        <time>2018-04-14T09:58:52Z</time>
      </trkpt>
      <trkpt lat="45.96794" lon="4.86575">
        <ele>290</ele>
        <time>2018-04-14T09:58:53Z</time>
      </trkpt>
      <trkpt lat="45.96796" lon="4.8657">
        <ele>290</ele>
        <time>2018-04-14T09:58:54Z</time>
      </trkpt>
      <trkpt lat="45.96801" lon="4.86563">
        <ele>290</ele>
        <time>2018-04-14T09:58:55Z</time>
      </trkpt>
      <trkpt lat="45.96804" lon="4.86557">
        <ele>290</ele>
        <time>2018-04-14T09:58:56Z</time>
      </trkpt>
      <trkpt lat="45.96807" lon="4.8655">
        <ele>290</ele>
        <time>2018-04-14T09:58:57Z</time>
      </trkpt>
      <trkpt lat="45.96811" lon="4.86544">
        <ele>290</ele>
        <time>2018-04-14T09:58:58Z</time>
      </trkpt>
      <trkpt lat="45.96814" lon="4.86539">
        <ele>290</ele>
        <time>2018-04-14T09:58:59Z</time>
      </trkpt>
      <trkpt lat="45.96818" lon="4.8653">
        <ele>290</ele>
        <time>2018-04-14T09:59:00Z</time>
      </trkpt>
      <trkpt lat="45.96821" lon="4.86524">
        <ele>289</ele>
        <time>2018-04-14T09:59:01Z</time>
      </trkpt>
      <trkpt lat="45.96824" lon="4.86518">
        <ele>289</ele>
        <time>2018-04-14T09:59:02Z</time>
      </trkpt>
      <trkpt lat="45.96827" lon="4.86513">
        <ele>289</ele>
        <time>2018-04-14T09:59:03Z</time>
      </trkpt>
      <trkpt lat="45.9683" lon="4.86507">
        <ele>289</ele>
        <time>2018-04-14T09:59:04Z</time>
      </trkpt>
      <trkpt lat="45.96833" lon="4.865">
        <ele>289</ele>
        <time>2018-04-14T09:59:05Z</time>
      </trkpt>
      <trkpt lat="45.96837" lon="4.8649">
        <ele>289</ele>
        <time>2018-04-14T09:59:07Z</time>
      </trkpt>
      <trkpt lat="45.96839" lon="4.86483">
        <ele>289</ele>
        <time>2018-04-14T09:59:08Z</time>
      </trkpt>
      <trkpt lat="45.96842" lon="4.86476">
        <ele>289</ele>
        <time>2018-04-14T09:59:09Z</time>
      </trkpt>
      <trkpt lat="45.96844" lon="4.86469">
        <ele>289</ele>
        <time>2018-04-14T09:59:10Z</time>
      </trkpt>
      <trkpt lat="45.96846" lon="4.86462">
        <ele>289</ele>
        <time>2018-04-14T09:59:11Z</time>
      </trkpt>
      <trkpt lat="45.96848" lon="4.86454">
        <ele>289</ele>
        <time>2018-04-14T09:59:12Z</time>
      </trkpt>
      <trkpt lat="45.9685" lon="4.86448">
        <ele>289</ele>
        <time>2018-04-14T09:59:13Z</time>
      </trkpt>
      <trkpt lat="45.96851" lon="4.86441">
        <ele>290</ele>
        <time>2018-04-14T09:59:14Z</time>
      </trkpt>
      <trkpt lat="45.96853" lon="4.86434">
        <ele>290</ele>
        <time>2018-04-14T09:59:15Z</time>
      </trkpt>
      <trkpt lat="45.96855" lon="4.86426">
        <ele>290</ele>
        <time>2018-04-14T09:59:16Z</time>
      </trkpt>
      <trkpt lat="45.96856" lon="4.86419">
        <ele>290</ele>
        <time>2018-04-14T09:59:17Z</time>
      </trkpt>
      <trkpt lat="45.96857" lon="4.8641">
        <ele>290</ele>
        <time>2018-04-14T09:59:18Z</time>
      </trkpt>
      <trkpt lat="45.96858" lon="4.86404">
        <ele>290</ele>
        <time>2018-04-14T09:59:19Z</time>
      </trkpt>
      <trkpt lat="45.96859" lon="4.86396">
        <ele>290</ele>
        <time>2018-04-14T09:59:20Z</time>
      </trkpt>
      <trkpt lat="45.9686" lon="4.86389">
        <ele>290</ele>
        <time>2018-04-14T09:59:21Z</time>
      </trkpt>
      <trkpt lat="45.96862" lon="4.86381">
        <ele>290</ele>
        <time>2018-04-14T09:59:22Z</time>
      </trkpt>
      <trkpt lat="45.96863" lon="4.86374">
        <ele>290</ele>
        <time>2018-04-14T09:59:23Z</time>
      </trkpt>
      <trkpt lat="45.96864" lon="4.86367">
        <ele>290</ele>
        <time>2018-04-14T09:59:24Z</time>
      </trkpt>
      <trkpt lat="45.96866" lon="4.86359">
        <ele>290</ele>
        <time>2018-04-14T09:59:25Z</time>
      </trkpt>
      <trkpt lat="45.96867" lon="4.86352">
        <ele>290</ele>
        <time>2018-04-14T09:59:26Z</time>
      </trkpt>
      <trkpt lat="45.96868" lon="4.8634">
        <ele>290</ele>
        <time>2018-04-14T09:59:28Z</time>
      </trkpt>
      <trkpt lat="45.9687" lon="4.86333">
        <ele>289</ele>
        <time>2018-04-14T09:59:29Z</time>
      </trkpt>
      <trkpt lat="45.96871" lon="4.86327">
        <ele>289</ele>
        <time>2018-04-14T09:59:30Z</time>
      </trkpt>
      <trkpt lat="45.96872" lon="4.8632">
        <ele>289</ele>
        <time>2018-04-14T09:59:31Z</time>
      </trkpt>
      <trkpt lat="45.96873" lon="4.86313">
        <ele>289</ele>
        <time>2018-04-14T09:59:32Z</time>
      </trkpt>
      <trkpt lat="45.96873" lon="4.86306">
        <ele>289</ele>
        <time>2018-04-14T09:59:33Z</time>
      </trkpt>
      <trkpt lat="45.96874" lon="4.86298">
        <ele>289</ele>
        <time>2018-04-14T09:59:34Z</time>
      </trkpt>
      <trkpt lat="45.96872" lon="4.86291">
        <ele>289</ele>
        <time>2018-04-14T09:59:35Z</time>
      </trkpt>
      <trkpt lat="45.96872" lon="4.86279">
        <ele>289</ele>
        <time>2018-04-14T09:59:37Z</time>
      </trkpt>
      <trkpt lat="45.96874" lon="4.86272">
        <ele>289</ele>
        <time>2018-04-14T09:59:38Z</time>
      </trkpt>
      <trkpt lat="45.96875" lon="4.86267">
        <ele>289</ele>
        <time>2018-04-14T09:59:39Z</time>
      </trkpt>
      <trkpt lat="45.96875" lon="4.86259">
        <ele>288</ele>
        <time>2018-04-14T09:59:40Z</time>
      </trkpt>
      <trkpt lat="45.96876" lon="4.86253">
        <ele>288</ele>
        <time>2018-04-14T09:59:41Z</time>
      </trkpt>
      <trkpt lat="45.96877" lon="4.86246">
        <ele>289</ele>
        <time>2018-04-14T09:59:42Z</time>
      </trkpt>
      <trkpt lat="45.96879" lon="4.86238">
        <ele>289</ele>
        <time>2018-04-14T09:59:43Z</time>
      </trkpt>
      <trkpt lat="45.9688" lon="4.86233">
        <ele>289</ele>
        <time>2018-04-14T09:59:44Z</time>
      </trkpt>
      <trkpt lat="45.96881" lon="4.86224">
        <ele>289</ele>
        <time>2018-04-14T09:59:45Z</time>
      </trkpt>
      <trkpt lat="45.96883" lon="4.86217">
        <ele>289</ele>
        <time>2018-04-14T09:59:46Z</time>
      </trkpt>
      <trkpt lat="45.96884" lon="4.86205">
        <ele>289</ele>
        <time>2018-04-14T09:59:48Z</time>
      </trkpt>
      <trkpt lat="45.96885" lon="4.86196">
        <ele>289</ele>
        <time>2018-04-14T09:59:49Z</time>
      </trkpt>
      <trkpt lat="45.96885" lon="4.86189">
        <ele>289</ele>
        <time>2018-04-14T09:59:50Z</time>
      </trkpt>
      <trkpt lat="45.96886" lon="4.86181">
        <ele>289</ele>
        <time>2018-04-14T09:59:51Z</time>
      </trkpt>
      <trkpt lat="45.96888" lon="4.86174">
        <ele>289</ele>
        <time>2018-04-14T09:59:52Z</time>
      </trkpt>
      <trkpt lat="45.96889" lon="4.86166">
        <ele>289</ele>
        <time>2018-04-14T09:59:53Z</time>
      </trkpt>
      <trkpt lat="45.9689" lon="4.86158">
        <ele>289</ele>
        <time>2018-04-14T09:59:54Z</time>
      </trkpt>
      <trkpt lat="45.96891" lon="4.86149">
        <ele>289</ele>
        <time>2018-04-14T09:59:55Z</time>
      </trkpt>
      <trkpt lat="45.96893" lon="4.8614">
        <ele>289</ele>
        <time>2018-04-14T09:59:56Z</time>
      </trkpt>
      <trkpt lat="45.96894" lon="4.86131">
        <ele>289</ele>
        <time>2018-04-14T09:59:57Z</time>
      </trkpt>
      <trkpt lat="45.96895" lon="4.86121">
        <ele>289</ele>
        <time>2018-04-14T09:59:58Z</time>
      </trkpt>
      <trkpt lat="45.96896" lon="4.86112">
        <ele>289</ele>
        <time>2018-04-14T09:59:59Z</time>
      </trkpt>
      <trkpt lat="45.96897" lon="4.86104">
        <ele>289</ele>
        <time>2018-04-14T10:00:00Z</time>
      </trkpt>
      <trkpt lat="45.96898" lon="4.86095">
        <ele>288</ele>
        <time>2018-04-14T10:00:01Z</time>
      </trkpt>
      <trkpt lat="45.96899" lon="4.86087">
        <ele>288</ele>
        <time>2018-04-14T10:00:02Z</time>
      </trkpt>
      <trkpt lat="45.969" lon="4.86079">
        <ele>288</ele>
        <time>2018-04-14T10:00:03Z</time>
      </trkpt>
      <trkpt lat="45.96901" lon="4.86071">
        <ele>288</ele>
        <time>2018-04-14T10:00:04Z</time>
      </trkpt>
      <trkpt lat="45.96901" lon="4.86062">
        <ele>288</ele>
        <time>2018-04-14T10:00:05Z</time>
      </trkpt>
      <trkpt lat="45.96902" lon="4.86054">
        <ele>289</ele>
        <time>2018-04-14T10:00:06Z</time>
      </trkpt>
      <trkpt lat="45.96903" lon="4.86046">
        <ele>289</ele>
        <time>2018-04-14T10:00:07Z</time>
      </trkpt>
      <trkpt lat="45.96906" lon="4.86037">
        <ele>289</ele>
        <time>2018-04-14T10:00:08Z</time>
      </trkpt>
      <trkpt lat="45.96907" lon="4.86028">
        <ele>289</ele>
        <time>2018-04-14T10:00:09Z</time>
      </trkpt>
      <trkpt lat="45.96908" lon="4.8602">
        <ele>289</ele>
        <time>2018-04-14T10:00:10Z</time>
      </trkpt>
      <trkpt lat="45.96909" lon="4.86012">
        <ele>289</ele>
        <time>2018-04-14T10:00:11Z</time>
      </trkpt>
      <trkpt lat="45.9691" lon="4.86002">
        <ele>288</ele>
        <time>2018-04-14T10:00:12Z</time>
      </trkpt>
      <trkpt lat="45.96911" lon="4.85993">
        <ele>288</ele>
        <time>2018-04-14T10:00:13Z</time>
      </trkpt>
      <trkpt lat="45.96915" lon="4.85984">
        <ele>288</ele>
        <time>2018-04-14T10:00:14Z</time>
      </trkpt>
      <trkpt lat="45.96918" lon="4.85974">
        <ele>287</ele>
        <time>2018-04-14T10:00:15Z</time>
      </trkpt>
      <trkpt lat="45.96919" lon="4.85966">
        <ele>287</ele>
        <time>2018-04-14T10:00:16Z</time>
      </trkpt>
      <trkpt lat="45.9692" lon="4.85957">
        <ele>287</ele>
        <time>2018-04-14T10:00:17Z</time>
      </trkpt>
      <trkpt lat="45.96922" lon="4.85947">
        <ele>286</ele>
        <time>2018-04-14T10:00:18Z</time>
      </trkpt>
      <trkpt lat="45.96924" lon="4.85939">
        <ele>286</ele>
        <time>2018-04-14T10:00:19Z</time>
      </trkpt>
      <trkpt lat="45.96926" lon="4.8593">
        <ele>286</ele>
        <time>2018-04-14T10:00:20Z</time>
      </trkpt>
      <trkpt lat="45.9693" lon="4.85923">
        <ele>286</ele>
        <time>2018-04-14T10:00:21Z</time>
      </trkpt>
      <trkpt lat="45.96933" lon="4.85915">
        <ele>286</ele>
        <time>2018-04-14T10:00:22Z</time>
      </trkpt>
      <trkpt lat="45.96935" lon="4.85907">
        <ele>286</ele>
        <time>2018-04-14T10:00:23Z</time>
      </trkpt>
      <trkpt lat="45.96937" lon="4.85898">
        <ele>285</ele>
        <time>2018-04-14T10:00:24Z</time>
      </trkpt>
      <trkpt lat="45.96938" lon="4.85888">
        <ele>285</ele>
        <time>2018-04-14T10:00:25Z</time>
      </trkpt>
      <trkpt lat="45.9694" lon="4.8588">
        <ele>285</ele>
        <time>2018-04-14T10:00:26Z</time>
      </trkpt>
      <trkpt lat="45.96943" lon="4.85871">
        <ele>285</ele>
        <time>2018-04-14T10:00:27Z</time>
      </trkpt>
      <trkpt lat="45.96945" lon="4.85863">
        <ele>285</ele>
        <time>2018-04-14T10:00:28Z</time>
      </trkpt>
      <trkpt lat="45.96948" lon="4.85854">
        <ele>285</ele>
        <time>2018-04-14T10:00:29Z</time>
      </trkpt>
      <trkpt lat="45.9695" lon="4.85844">
        <ele>285</ele>
        <time>2018-04-14T10:00:30Z</time>
      </trkpt>
      <trkpt lat="45.96953" lon="4.85834">
        <ele>285</ele>
        <time>2018-04-14T10:00:31Z</time>
      </trkpt>
      <trkpt lat="45.96956" lon="4.85825">
        <ele>285</ele>
        <time>2018-04-14T10:00:32Z</time>
      </trkpt>
      <trkpt lat="45.96959" lon="4.85817">
        <ele>285</ele>
        <time>2018-04-14T10:00:33Z</time>
      </trkpt>
      <trkpt lat="45.96961" lon="4.85808">
        <ele>285</ele>
        <time>2018-04-14T10:00:34Z</time>
      </trkpt>
      <trkpt lat="45.96964" lon="4.858">
        <ele>285</ele>
        <time>2018-04-14T10:00:35Z</time>
      </trkpt>
      <trkpt lat="45.96966" lon="4.85791">
        <ele>285</ele>
        <time>2018-04-14T10:00:36Z</time>
      </trkpt>
      <trkpt lat="45.96967" lon="4.85784">
        <ele>285</ele>
        <time>2018-04-14T10:00:37Z</time>
      </trkpt>
      <trkpt lat="45.9697" lon="4.85777">
        <ele>285</ele>
        <time>2018-04-14T10:00:38Z</time>
      </trkpt>
      <trkpt lat="45.96972" lon="4.85768">
        <ele>285</ele>
        <time>2018-04-14T10:00:39Z</time>
      </trkpt>
      <trkpt lat="45.96975" lon="4.8576">
        <ele>285</ele>
        <time>2018-04-14T10:00:40Z</time>
      </trkpt>
      <trkpt lat="45.96977" lon="4.85751">
        <ele>285</ele>
        <time>2018-04-14T10:00:41Z</time>
      </trkpt>
      <trkpt lat="45.9698" lon="4.85742">
        <ele>285</ele>
        <time>2018-04-14T10:00:42Z</time>
      </trkpt>
      <trkpt lat="45.96982" lon="4.85733">
        <ele>285</ele>
        <time>2018-04-14T10:00:43Z</time>
      </trkpt>
      <trkpt lat="45.96985" lon="4.85721">
        <ele>285</ele>
        <time>2018-04-14T10:00:44Z</time>
      </trkpt>
      <trkpt lat="45.96988" lon="4.85713">
        <ele>285</ele>
        <time>2018-04-14T10:00:45Z</time>
      </trkpt>
      <trkpt lat="45.96991" lon="4.85704">
        <ele>285</ele>
        <time>2018-04-14T10:00:46Z</time>
      </trkpt>
      <trkpt lat="45.96993" lon="4.85696">
        <ele>285</ele>
        <time>2018-04-14T10:00:47Z</time>
      </trkpt>
      <trkpt lat="45.96993" lon="4.85688">
        <ele>285</ele>
        <time>2018-04-14T10:00:48Z</time>
      </trkpt>
      <trkpt lat="45.96995" lon="4.85679">
        <ele>286</ele>
        <time>2018-04-14T10:00:49Z</time>
      </trkpt>
      <trkpt lat="45.96997" lon="4.85671">
        <ele>286</ele>
        <time>2018-04-14T10:00:50Z</time>
      </trkpt>
      <trkpt lat="45.96999" lon="4.85662">
        <ele>286</ele>
        <time>2018-04-14T10:00:51Z</time>
      </trkpt>
      <trkpt lat="45.97001" lon="4.85654">
        <ele>285</ele>
        <time>2018-04-14T10:00:52Z</time>
      </trkpt>
      <trkpt lat="45.97004" lon="4.85643">
        <ele>284</ele>
        <time>2018-04-14T10:00:53Z</time>
      </trkpt>
      <trkpt lat="45.97006" lon="4.85635">
        <ele>284</ele>
        <time>2018-04-14T10:00:54Z</time>
      </trkpt>
      <trkpt lat="45.97008" lon="4.85628">
        <ele>284</ele>
        <time>2018-04-14T10:00:55Z</time>
      </trkpt>
      <trkpt lat="45.9701" lon="4.8562">
        <ele>284</ele>
        <time>2018-04-14T10:00:56Z</time>
      </trkpt>
      <trkpt lat="45.97011" lon="4.85614">
        <ele>284</ele>
        <time>2018-04-14T10:00:57Z</time>
      </trkpt>
      <trkpt lat="45.97015" lon="4.85604">
        <ele>284</ele>
        <time>2018-04-14T10:00:58Z</time>
      </trkpt>
      <trkpt lat="45.97018" lon="4.85595">
        <ele>284</ele>
        <time>2018-04-14T10:00:59Z</time>
      </trkpt>
      <trkpt lat="45.97022" lon="4.85586">
        <ele>284</ele>
        <time>2018-04-14T10:01:00Z</time>
      </trkpt>
      <trkpt lat="45.97024" lon="4.85575">
        <ele>283</ele>
        <time>2018-04-14T10:01:01Z</time>
      </trkpt>
      <trkpt lat="45.97027" lon="4.85565">
        <ele>283</ele>
        <time>2018-04-14T10:01:02Z</time>
      </trkpt>
      <trkpt lat="45.97029" lon="4.85556">
        <ele>283</ele>
        <time>2018-04-14T10:01:03Z</time>
      </trkpt>
      <trkpt lat="45.97033" lon="4.85548">
        <ele>283</ele>
        <time>2018-04-14T10:01:04Z</time>
      </trkpt>
      <trkpt lat="45.97035" lon="4.85538">
        <ele>282</ele>
        <time>2018-04-14T10:01:05Z</time>
      </trkpt>
      <trkpt lat="45.97038" lon="4.85529">
        <ele>282</ele>
        <time>2018-04-14T10:01:06Z</time>
      </trkpt>
      <trkpt lat="45.97041" lon="4.8552">
        <ele>282</ele>
        <time>2018-04-14T10:01:07Z</time>
      </trkpt>
      <trkpt lat="45.97044" lon="4.85512">
        <ele>282</ele>
        <time>2018-04-14T10:01:08Z</time>
      </trkpt>
      <trkpt lat="45.97047" lon="4.85503">
        <ele>282</ele>
        <time>2018-04-14T10:01:09Z</time>
      </trkpt>
      <trkpt lat="45.97051" lon="4.85494">
        <ele>281</ele>
        <time>2018-04-14T10:01:10Z</time>
      </trkpt>
      <trkpt lat="45.97053" lon="4.85485">
        <ele>281</ele>
        <time>2018-04-14T10:01:11Z</time>
      </trkpt>
      <trkpt lat="45.97057" lon="4.85476">
        <ele>281</ele>
        <time>2018-04-14T10:01:12Z</time>
      </trkpt>
      <trkpt lat="45.9706" lon="4.85466">
        <ele>281</ele>
        <time>2018-04-14T10:01:13Z</time>
      </trkpt>
      <trkpt lat="45.97063" lon="4.85457">
        <ele>281</ele>
        <time>2018-04-14T10:01:14Z</time>
      </trkpt>
      <trkpt lat="45.97066" lon="4.85448">
        <ele>281</ele>
        <time>2018-04-14T10:01:15Z</time>
      </trkpt>
      <trkpt lat="45.9707" lon="4.85439">
        <ele>281</ele>
        <time>2018-04-14T10:01:16Z</time>
      </trkpt>
      <trkpt lat="45.97072" lon="4.85429">
        <ele>281</ele>
        <time>2018-04-14T10:01:17Z</time>
      </trkpt>
      <trkpt lat="45.97076" lon="4.85421">
        <ele>280</ele>
        <time>2018-04-14T10:01:18Z</time>
      </trkpt>
      <trkpt lat="45.97076" lon="4.85412">
        <ele>280</ele>
        <time>2018-04-14T10:01:19Z</time>
      </trkpt>
      <trkpt lat="45.9708" lon="4.85404">
        <ele>281</ele>
        <time>2018-04-14T10:01:20Z</time>
      </trkpt>
      <trkpt lat="45.97082" lon="4.85396">
        <ele>281</ele>
        <time>2018-04-14T10:01:21Z</time>
      </trkpt>
      <trkpt lat="45.97085" lon="4.85387">
        <ele>280</ele>
        <time>2018-04-14T10:01:22Z</time>
      </trkpt>
      <trkpt lat="45.97088" lon="4.8538">
        <ele>280</ele>
        <time>2018-04-14T10:01:23Z</time>
      </trkpt>
      <trkpt lat="45.97091" lon="4.8537">
        <ele>280</ele>
        <time>2018-04-14T10:01:24Z</time>
      </trkpt>
      <trkpt lat="45.97093" lon="4.85361">
        <ele>280</ele>
        <time>2018-04-14T10:01:25Z</time>
      </trkpt>
      <trkpt lat="45.97096" lon="4.85353">
        <ele>280</ele>
        <time>2018-04-14T10:01:26Z</time>
      </trkpt>
      <trkpt lat="45.971" lon="4.85343">
        <ele>280</ele>
        <time>2018-04-14T10:01:27Z</time>
      </trkpt>
      <trkpt lat="45.97102" lon="4.85334">
        <ele>280</ele>
        <time>2018-04-14T10:01:28Z</time>
      </trkpt>
      <trkpt lat="45.97105" lon="4.85326">
        <ele>280</ele>
        <time>2018-04-14T10:01:29Z</time>
      </trkpt>
      <trkpt lat="45.97108" lon="4.85317">
        <ele>280</ele>
        <time>2018-04-14T10:01:30Z</time>
      </trkpt>
      <trkpt lat="45.97111" lon="4.8531">
        <ele>280</ele>
        <time>2018-04-14T10:01:31Z</time>
      </trkpt>
      <trkpt lat="45.97114" lon="4.85303">
        <ele>280</ele>
        <time>2018-04-14T10:01:32Z</time>
      </trkpt>
      <trkpt lat="45.97117" lon="4.85294">
        <ele>280</ele>
        <time>2018-04-14T10:01:33Z</time>
      </trkpt>
      <trkpt lat="45.97121" lon="4.85287">
        <ele>280</ele>
        <time>2018-04-14T10:01:34Z</time>
      </trkpt>
      <trkpt lat="45.97125" lon="4.85282">
        <ele>279</ele>
        <time>2018-04-14T10:01:35Z</time>
      </trkpt>
      <trkpt lat="45.97128" lon="4.85275">
        <ele>279</ele>
        <time>2018-04-14T10:01:36Z</time>
      </trkpt>
      <trkpt lat="45.97131" lon="4.85268">
        <ele>279</ele>
        <time>2018-04-14T10:01:37Z</time>
      </trkpt>
      <trkpt lat="45.97135" lon="4.85262">
        <ele>279</ele>
        <time>2018-04-14T10:01:38Z</time>
      </trkpt>
      <trkpt lat="45.97139" lon="4.85254">
        <ele>279</ele>
        <time>2018-04-14T10:01:39Z</time>
      </trkpt>
      <trkpt lat="45.97142" lon="4.85246">
        <ele>279</ele>
        <time>2018-04-14T10:01:40Z</time>
      </trkpt>
      <trkpt lat="45.97145" lon="4.85237">
        <ele>279</ele>
        <time>2018-04-14T10:01:41Z</time>
      </trkpt>
      <trkpt lat="45.97149" lon="4.85229">
        <ele>279</ele>
        <time>2018-04-14T10:01:42Z</time>
      </trkpt>
      <trkpt lat="45.97153" lon="4.85219">
        <ele>279</ele>
        <time>2018-04-14T10:01:43Z</time>
      </trkpt>
      <trkpt lat="45.97158" lon="4.8521">
        <ele>279</ele>
        <time>2018-04-14T10:01:44Z</time>
      </trkpt>
      <trkpt lat="45.97163" lon="4.85202">
        <ele>279</ele>
        <time>2018-04-14T10:01:45Z</time>
      </trkpt>
      <trkpt lat="45.97166" lon="4.85195">
        <ele>279</ele>
        <time>2018-04-14T10:01:46Z</time>
      </trkpt>
      <trkpt lat="45.9717" lon="4.85183">
        <ele>278</ele>
        <time>2018-04-14T10:01:47Z</time>
      </trkpt>
      <trkpt lat="45.97174" lon="4.85175">
        <ele>278</ele>
        <time>2018-04-14T10:01:48Z</time>
      </trkpt>
      <trkpt lat="45.97178" lon="4.85167">
        <ele>278</ele>
        <time>2018-04-14T10:01:49Z</time>
      </trkpt>
      <trkpt lat="45.97181" lon="4.8516">
        <ele>278</ele>
        <time>2018-04-14T10:01:50Z</time>
      </trkpt>
      <trkpt lat="45.97185" lon="4.85149">
        <ele>278</ele>
        <time>2018-04-14T10:01:51Z</time>
      </trkpt>
      <trkpt lat="45.97188" lon="4.8514">
        <ele>278</ele>
        <time>2018-04-14T10:01:52Z</time>
      </trkpt>
      <trkpt lat="45.97193" lon="4.85136">
        <ele>278</ele>
        <time>2018-04-14T10:01:53Z</time>
      </trkpt>
      <trkpt lat="45.97196" lon="4.85129">
        <ele>278</ele>
        <time>2018-04-14T10:01:54Z</time>
      </trkpt>
      <trkpt lat="45.97199" lon="4.8512">
        <ele>278</ele>
        <time>2018-04-14T10:01:55Z</time>
      </trkpt>
      <trkpt lat="45.97202" lon="4.85113">
        <ele>278</ele>
        <time>2018-04-14T10:01:56Z</time>
      </trkpt>
      <trkpt lat="45.97204" lon="4.85104">
        <ele>278</ele>
        <time>2018-04-14T10:01:57Z</time>
      </trkpt>
      <trkpt lat="45.97208" lon="4.85096">
        <ele>278</ele>
        <time>2018-04-14T10:01:58Z</time>
      </trkpt>
      <trkpt lat="45.97211" lon="4.85089">
        <ele>278</ele>
        <time>2018-04-14T10:01:59Z</time>
      </trkpt>
      <trkpt lat="45.97215" lon="4.8508">
        <ele>278</ele>
        <time>2018-04-14T10:02:00Z</time>
      </trkpt>
      <trkpt lat="45.97219" lon="4.85074">
        <ele>278</ele>
        <time>2018-04-14T10:02:01Z</time>
      </trkpt>
      <trkpt lat="45.97222" lon="4.85067">
        <ele>279</ele>
        <time>2018-04-14T10:02:02Z</time>
      </trkpt>
      <trkpt lat="45.97226" lon="4.85059">
        <ele>279</ele>
        <time>2018-04-14T10:02:03Z</time>
      </trkpt>
      <trkpt lat="45.97231" lon="4.85052">
        <ele>279</ele>
        <time>2018-04-14T10:02:04Z</time>
      </trkpt>
      <trkpt lat="45.97235" lon="4.85044">
        <ele>279</ele>
        <time>2018-04-14T10:02:05Z</time>
      </trkpt>
      <trkpt lat="45.97239" lon="4.85035">
        <ele>279</ele>
        <time>2018-04-14T10:02:06Z</time>
      </trkpt>
      <trkpt lat="45.97243" lon="4.85026">
        <ele>279</ele>
        <time>2018-04-14T10:02:07Z</time>
      </trkpt>
      <trkpt lat="45.97246" lon="4.8502">
        <ele>279</ele>
        <time>2018-04-14T10:02:08Z</time>
      </trkpt>
      <trkpt lat="45.97249" lon="4.85012">
        <ele>279</ele>
        <time>2018-04-14T10:02:09Z</time>
      </trkpt>
      <trkpt lat="45.97254" lon="4.85005">
        <ele>279</ele>
        <time>2018-04-14T10:02:10Z</time>
      </trkpt>
      <trkpt lat="45.97258" lon="4.84997">
        <ele>279</ele>
        <time>2018-04-14T10:02:11Z</time>
      </trkpt>
      <trkpt lat="45.97261" lon="4.8499">
        <ele>279</ele>
        <time>2018-04-14T10:02:12Z</time>
      </trkpt>
      <trkpt lat="45.97265" lon="4.84983">
        <ele>279</ele>
        <time>2018-04-14T10:02:13Z</time>
      </trkpt>
      <trkpt lat="45.97268" lon="4.84974">
        <ele>279</ele>
        <time>2018-04-14T10:02:14Z</time>
      </trkpt>
      <trkpt lat="45.9727" lon="4.84966">
        <ele>279</ele>
        <time>2018-04-14T10:02:15Z</time>
      </trkpt>
      <trkpt lat="45.97273" lon="4.84959">
        <ele>279</ele>
        <time>2018-04-14T10:02:16Z</time>
      </trkpt>
      <trkpt lat="45.97277" lon="4.84952">
        <ele>279</ele>
        <time>2018-04-14T10:02:17Z</time>
      </trkpt>
      <trkpt lat="45.9728" lon="4.84945">
        <ele>278</ele>
        <time>2018-04-14T10:02:18Z</time>
      </trkpt>
      <trkpt lat="45.97285" lon="4.84938">
        <ele>278</ele>
        <time>2018-04-14T10:02:19Z</time>
      </trkpt>
      <trkpt lat="45.97291" lon="4.84929">
        <ele>278</ele>
        <time>2018-04-14T10:02:20Z</time>
      </trkpt>
      <trkpt lat="45.97296" lon="4.84921">
        <ele>278</ele>
        <time>2018-04-14T10:02:21Z</time>
      </trkpt>
      <trkpt lat="45.973" lon="4.84916">
        <ele>278</ele>
        <time>2018-04-14T10:02:22Z</time>
      </trkpt>
      <trkpt lat="45.97303" lon="4.84906">
        <ele>278</ele>
        <time>2018-04-14T10:02:23Z</time>
      </trkpt>
      <trkpt lat="45.97307" lon="4.849">
        <ele>278</ele>
        <time>2018-04-14T10:02:24Z</time>
      </trkpt>
      <trkpt lat="45.97312" lon="4.84893">
        <ele>278</ele>
        <time>2018-04-14T10:02:25Z</time>
      </trkpt>
      <trkpt lat="45.97317" lon="4.84888">
        <ele>278</ele>
        <time>2018-04-14T10:02:26Z</time>
      </trkpt>
      <trkpt lat="45.97319" lon="4.84881">
        <ele>278</ele>
        <time>2018-04-14T10:02:27Z</time>
      </trkpt>
      <trkpt lat="45.97324" lon="4.84874">
        <ele>278</ele>
        <time>2018-04-14T10:02:28Z</time>
      </trkpt>
      <trkpt lat="45.97327" lon="4.84867">
        <ele>278</ele>
        <time>2018-04-14T10:02:29Z</time>
      </trkpt>
      <trkpt lat="45.9733" lon="4.84861">
        <ele>278</ele>
        <time>2018-04-14T10:02:30Z</time>
      </trkpt>
      <trkpt lat="45.97335" lon="4.84854">
        <ele>277</ele>
        <time>2018-04-14T10:02:31Z</time>
      </trkpt>
      <trkpt lat="45.97338" lon="4.84846">
        <ele>277</ele>
        <time>2018-04-14T10:02:32Z</time>
      </trkpt>
      <trkpt lat="45.97341" lon="4.84838">
        <ele>278</ele>
        <time>2018-04-14T10:02:33Z</time>
      </trkpt>
      <trkpt lat="45.97344" lon="4.8483">
        <ele>278</ele>
        <time>2018-04-14T10:02:34Z</time>
      </trkpt>
      <trkpt lat="45.97347" lon="4.84822">
        <ele>278</ele>
        <time>2018-04-14T10:02:35Z</time>
      </trkpt>
      <trkpt lat="45.97351" lon="4.84815">
        <ele>278</ele>
        <time>2018-04-14T10:02:36Z</time>
      </trkpt>
      <trkpt lat="45.97355" lon="4.84808">
        <ele>278</ele>
        <time>2018-04-14T10:02:37Z</time>
      </trkpt>
      <trkpt lat="45.97357" lon="4.84801">
        <ele>278</ele>
        <time>2018-04-14T10:02:38Z</time>
      </trkpt>
      <trkpt lat="45.97361" lon="4.84793">
        <ele>278</ele>
        <time>2018-04-14T10:02:39Z</time>
      </trkpt>
      <trkpt lat="45.97365" lon="4.84785">
        <ele>278</ele>
        <time>2018-04-14T10:02:40Z</time>
      </trkpt>
      <trkpt lat="45.97369" lon="4.84777">
        <ele>278</ele>
        <time>2018-04-14T10:02:41Z</time>
      </trkpt>
      <trkpt lat="45.97372" lon="4.8477">
        <ele>278</ele>
        <time>2018-04-14T10:02:42Z</time>
      </trkpt>
      <trkpt lat="45.97375" lon="4.84762">
        <ele>278</ele>
        <time>2018-04-14T10:02:43Z</time>
      </trkpt>
      <trkpt lat="45.97377" lon="4.84754">
        <ele>278</ele>
        <time>2018-04-14T10:02:44Z</time>
      </trkpt>
      <trkpt lat="45.97381" lon="4.84747">
        <ele>278</ele>
        <time>2018-04-14T10:02:45Z</time>
      </trkpt>
      <trkpt lat="45.97384" lon="4.84739">
        <ele>278</ele>
        <time>2018-04-14T10:02:46Z</time>
      </trkpt>
      <trkpt lat="45.97387" lon="4.84731">
        <ele>278</ele>
        <time>2018-04-14T10:02:47Z</time>
      </trkpt>
      <trkpt lat="45.97392" lon="4.84726">
        <ele>278</ele>
        <time>2018-04-14T10:02:48Z</time>
      </trkpt>
      <trkpt lat="45.97397" lon="4.8472">
        <ele>278</ele>
        <time>2018-04-14T10:02:49Z</time>
      </trkpt>
      <trkpt lat="45.97402" lon="4.84715">
        <ele>278</ele>
        <time>2018-04-14T10:02:50Z</time>
      </trkpt>
      <trkpt lat="45.97408" lon="4.84711">
        <ele>278</ele>
        <time>2018-04-14T10:02:51Z</time>
      </trkpt>
      <trkpt lat="45.97415" lon="4.84707">
        <ele>278</ele>
        <time>2018-04-14T10:02:52Z</time>
      </trkpt>
      <trkpt lat="45.97421" lon="4.84704">
        <ele>276</ele>
        <time>2018-04-14T10:02:53Z</time>
      </trkpt>
      <trkpt lat="45.97427" lon="4.847">
        <ele>276</ele>
        <time>2018-04-14T10:02:54Z</time>
      </trkpt>
      <trkpt lat="45.97433" lon="4.84698">
        <ele>276</ele>
        <time>2018-04-14T10:02:55Z</time>
      </trkpt>
      <trkpt lat="45.97438" lon="4.84694">
        <ele>276</ele>
        <time>2018-04-14T10:02:56Z</time>
      </trkpt>
      <trkpt lat="45.97444" lon="4.84691">
        <ele>276</ele>
        <time>2018-04-14T10:02:57Z</time>
      </trkpt>
      <trkpt lat="45.97449" lon="4.84687">
        <ele>276</ele>
        <time>2018-04-14T10:02:58Z</time>
      </trkpt>
      <trkpt lat="45.97455" lon="4.84683">
        <ele>276</ele>
        <time>2018-04-14T10:02:59Z</time>
      </trkpt>
      <trkpt lat="45.9746" lon="4.8468">
        <ele>276</ele>
        <time>2018-04-14T10:03:00Z</time>
      </trkpt>
      <trkpt lat="45.97467" lon="4.84675">
        <ele>276</ele>
        <time>2018-04-14T10:03:01Z</time>
      </trkpt>
      <trkpt lat="45.97473" lon="4.8467">
        <ele>276</ele>
        <time>2018-04-14T10:03:02Z</time>
      </trkpt>
      <trkpt lat="45.97479" lon="4.84666">
        <ele>276</ele>
        <time>2018-04-14T10:03:03Z</time>
      </trkpt>
      <trkpt lat="45.97484" lon="4.84662">
        <ele>276</ele>
        <time>2018-04-14T10:03:04Z</time>
      </trkpt>
      <trkpt lat="45.9749" lon="4.84658">
        <ele>275</ele>
        <time>2018-04-14T10:03:05Z</time>
      </trkpt>
      <trkpt lat="45.97495" lon="4.84653">
        <ele>275</ele>
        <time>2018-04-14T10:03:06Z</time>
      </trkpt>
      <trkpt lat="45.97501" lon="4.8465">
        <ele>275</ele>
        <time>2018-04-14T10:03:07Z</time>
      </trkpt>
      <trkpt lat="45.97507" lon="4.84645">
        <ele>275</ele>
        <time>2018-04-14T10:03:08Z</time>
      </trkpt>
      <trkpt lat="45.97512" lon="4.84641">
        <ele>275</ele>
        <time>2018-04-14T10:03:09Z</time>
      </trkpt>
      <trkpt lat="45.97517" lon="4.84637">
        <ele>275</ele>
        <time>2018-04-14T10:03:10Z</time>
      </trkpt>
      <trkpt lat="45.97522" lon="4.84634">
        <ele>275</ele>
        <time>2018-04-14T10:03:11Z</time>
      </trkpt>
      <trkpt lat="45.97528" lon="4.84629">
        <ele>275</ele>
        <time>2018-04-14T10:03:12Z</time>
      </trkpt>
      <trkpt lat="45.97533" lon="4.84623">
        <ele>275</ele>
        <time>2018-04-14T10:03:13Z</time>
      </trkpt>
      <trkpt lat="45.97539" lon="4.8462">
        <ele>275</ele>
        <time>2018-04-14T10:03:14Z</time>
      </trkpt>
      <trkpt lat="45.97544" lon="4.84616">
        <ele>274</ele>
        <time>2018-04-14T10:03:15Z</time>
      </trkpt>
      <trkpt lat="45.97551" lon="4.8461">
        <ele>274</ele>
        <time>2018-04-14T10:03:16Z</time>
      </trkpt>
      <trkpt lat="45.97556" lon="4.84604">
        <ele>274</ele>
        <time>2018-04-14T10:03:17Z</time>
      </trkpt>
      <trkpt lat="45.97561" lon="4.84599">
        <ele>274</ele>
        <time>2018-04-14T10:03:18Z</time>
      </trkpt>
      <trkpt lat="45.97567" lon="4.84594">
        <ele>274</ele>
        <time>2018-04-14T10:03:19Z</time>
      </trkpt>
      <trkpt lat="45.97572" lon="4.84588">
        <ele>274</ele>
        <time>2018-04-14T10:03:20Z</time>
      </trkpt>
      <trkpt lat="45.97577" lon="4.84583">
        <ele>274</ele>
        <time>2018-04-14T10:03:21Z</time>
      </trkpt>
      <trkpt lat="45.97582" lon="4.84578">
        <ele>274</ele>
        <time>2018-04-14T10:03:22Z</time>
      </trkpt>
      <trkpt lat="45.97586" lon="4.84571">
        <ele>274</ele>
        <time>2018-04-14T10:03:23Z</time>
      </trkpt>
      <trkpt lat="45.9759" lon="4.84567">
        <ele>274</ele>
        <time>2018-04-14T10:03:24Z</time>
      </trkpt>
      <trkpt lat="45.97594" lon="4.8456">
        <ele>275</ele>
        <time>2018-04-14T10:03:25Z</time>
      </trkpt>
      <trkpt lat="45.97598" lon="4.84555">
        <ele>275</ele>
        <time>2018-04-14T10:03:26Z</time>
      </trkpt>
      <trkpt lat="45.97603" lon="4.84549">
        <ele>275</ele>
        <time>2018-04-14T10:03:27Z</time>
      </trkpt>
      <trkpt lat="45.97608" lon="4.84543">
        <ele>275</ele>
        <time>2018-04-14T10:03:28Z</time>
      </trkpt>
      <trkpt lat="45.97612" lon="4.84539">
        <ele>275</ele>
        <time>2018-04-14T10:03:29Z</time>
      </trkpt>
      <trkpt lat="45.97616" lon="4.84534">
        <ele>275</ele>
        <time>2018-04-14T10:03:30Z</time>
      </trkpt>
      <trkpt lat="45.97621" lon="4.84528">
        <ele>275</ele>
        <time>2018-04-14T10:03:31Z</time>
      </trkpt>
      <trkpt lat="45.97625" lon="4.84522">
        <ele>275</ele>
        <time>2018-04-14T10:03:32Z</time>
      </trkpt>
      <trkpt lat="45.9763" lon="4.84516">
        <ele>275</ele>
        <time>2018-04-14T10:03:33Z</time>
      </trkpt>
      <trkpt lat="45.97634" lon="4.84511">
        <ele>275</ele>
        <time>2018-04-14T10:03:34Z</time>
      </trkpt>
      <trkpt lat="45.97639" lon="4.84507">
        <ele>275</ele>
        <time>2018-04-14T10:03:35Z</time>
      </trkpt>
      <trkpt lat="45.97643" lon="4.84502">
        <ele>275</ele>
        <time>2018-04-14T10:03:36Z</time>
      </trkpt>
      <trkpt lat="45.97647" lon="4.84497">
        <ele>275</ele>
        <time>2018-04-14T10:03:37Z</time>
      </trkpt>
      <trkpt lat="45.97652" lon="4.84492">
        <ele>275</ele>
        <time>2018-04-14T10:03:38Z</time>
      </trkpt>
      <trkpt lat="45.97656" lon="4.84488">
        <ele>275</ele>
        <time>2018-04-14T10:03:39Z</time>
      </trkpt>
      <trkpt lat="45.9766" lon="4.8448">
        <ele>276</ele>
        <time>2018-04-14T10:03:40Z</time>
      </trkpt>
      <trkpt lat="45.97663" lon="4.84476">
        <ele>276</ele>
        <time>2018-04-14T10:03:41Z</time>
      </trkpt>
      <trkpt lat="45.97669" lon="4.84471">
        <ele>276</ele>
        <time>2018-04-14T10:03:42Z</time>
      </trkpt>
      <trkpt lat="45.97674" lon="4.84469">
        <ele>277</ele>
        <time>2018-04-14T10:03:43Z</time>
      </trkpt>
      <trkpt lat="45.97679" lon="4.84465">
        <ele>277</ele>
        <time>2018-04-14T10:03:44Z</time>
      </trkpt>
      <trkpt lat="45.97684" lon="4.84462">
        <ele>277</ele>
        <time>2018-04-14T10:03:45Z</time>
      </trkpt>
      <trkpt lat="45.97691" lon="4.84455">
        <ele>277</ele>
        <time>2018-04-14T10:03:46Z</time>
      </trkpt>
      <trkpt lat="45.97698" lon="4.84452">
        <ele>277</ele>
        <time>2018-04-14T10:03:47Z</time>
      </trkpt>
      <trkpt lat="45.97704" lon="4.84448">
        <ele>277</ele>
        <time>2018-04-14T10:03:48Z</time>
      </trkpt>
      <trkpt lat="45.9771" lon="4.84445">
        <ele>277</ele>
        <time>2018-04-14T10:03:49Z</time>
      </trkpt>
      <trkpt lat="45.97716" lon="4.84442">
        <ele>277</ele>
        <time>2018-04-14T10:03:50Z</time>
      </trkpt>
      <trkpt lat="45.97722" lon="4.8444">
        <ele>277</ele>
        <time>2018-04-14T10:03:51Z</time>
      </trkpt>
      <trkpt lat="45.97728" lon="4.84438">
        <ele>277</ele>
        <time>2018-04-14T10:03:52Z</time>
      </trkpt>
      <trkpt lat="45.97735" lon="4.84436">
        <ele>277</ele>
        <time>2018-04-14T10:03:53Z</time>
      </trkpt>
      <trkpt lat="45.97741" lon="4.84435">
        <ele>277</ele>
        <time>2018-04-14T10:03:54Z</time>
      </trkpt>
      <trkpt lat="45.97747" lon="4.84433">
        <ele>278</ele>
        <time>2018-04-14T10:03:55Z</time>
      </trkpt>
      <trkpt lat="45.97753" lon="4.84431">
        <ele>277</ele>
        <time>2018-04-14T10:03:56Z</time>
      </trkpt>
      <trkpt lat="45.9776" lon="4.84429">
        <ele>277</ele>
        <time>2018-04-14T10:03:57Z</time>
      </trkpt>
      <trkpt lat="45.97766" lon="4.84427">
        <ele>277</ele>
        <time>2018-04-14T10:03:58Z</time>
      </trkpt>
      <trkpt lat="45.97773" lon="4.84425">
        <ele>277</ele>
        <time>2018-04-14T10:03:59Z</time>
      </trkpt>
      <trkpt lat="45.97779" lon="4.84422">
        <ele>277</ele>
        <time>2018-04-14T10:04:00Z</time>
      </trkpt>
      <trkpt lat="45.97785" lon="4.8442">
        <ele>277</ele>
        <time>2018-04-14T10:04:01Z</time>
      </trkpt>
      <trkpt lat="45.97791" lon="4.84417">
        <ele>277</ele>
        <time>2018-04-14T10:04:02Z</time>
      </trkpt>
      <trkpt lat="45.97797" lon="4.84415">
        <ele>277</ele>
        <time>2018-04-14T10:04:03Z</time>
      </trkpt>
      <trkpt lat="45.97802" lon="4.84411">
        <ele>277</ele>
        <time>2018-04-14T10:04:04Z</time>
      </trkpt>
      <trkpt lat="45.97807" lon="4.84408">
        <ele>277</ele>
        <time>2018-04-14T10:04:05Z</time>
      </trkpt>
      <trkpt lat="45.97812" lon="4.84405">
        <ele>277</ele>
        <time>2018-04-14T10:04:06Z</time>
      </trkpt>
      <trkpt lat="45.97817" lon="4.84403">
        <ele>276</ele>
        <time>2018-04-14T10:04:07Z</time>
      </trkpt>
      <trkpt lat="45.97822" lon="4.84399">
        <ele>276</ele>
        <time>2018-04-14T10:04:08Z</time>
      </trkpt>
      <trkpt lat="45.97827" lon="4.84396">
        <ele>276</ele>
        <time>2018-04-14T10:04:09Z</time>
      </trkpt>
      <trkpt lat="45.97832" lon="4.84392">
        <ele>276</ele>
        <time>2018-04-14T10:04:10Z</time>
      </trkpt>
      <trkpt lat="45.97837" lon="4.84388">
        <ele>276</ele>
        <time>2018-04-14T10:04:11Z</time>
      </trkpt>
      <trkpt lat="45.97842" lon="4.84383">
        <ele>276</ele>
        <time>2018-04-14T10:04:12Z</time>
      </trkpt>
      <trkpt lat="45.97847" lon="4.84377">
        <ele>276</ele>
        <time>2018-04-14T10:04:13Z</time>
      </trkpt>
      <trkpt lat="45.97851" lon="4.84373">
        <ele>276</ele>
        <time>2018-04-14T10:04:14Z</time>
      </trkpt>
      <trkpt lat="45.97855" lon="4.84367">
        <ele>276</ele>
        <time>2018-04-14T10:04:15Z</time>
      </trkpt>
      <trkpt lat="45.9786" lon="4.84359">
        <ele>276</ele>
        <time>2018-04-14T10:04:16Z</time>
      </trkpt>
      <trkpt lat="45.97864" lon="4.84354">
        <ele>276</ele>
        <time>2018-04-14T10:04:17Z</time>
      </trkpt>
      <trkpt lat="45.97869" lon="4.84349">
        <ele>276</ele>
        <time>2018-04-14T10:04:18Z</time>
      </trkpt>
      <trkpt lat="45.97874" lon="4.84343">
        <ele>276</ele>
        <time>2018-04-14T10:04:19Z</time>
      </trkpt>
      <trkpt lat="45.97877" lon="4.84338">
        <ele>275</ele>
        <time>2018-04-14T10:04:20Z</time>
      </trkpt>
      <trkpt lat="45.97881" lon="4.84331">
        <ele>275</ele>
        <time>2018-04-14T10:04:21Z</time>
      </trkpt>
      <trkpt lat="45.97886" lon="4.84324">
        <ele>275</ele>
        <time>2018-04-14T10:04:22Z</time>
      </trkpt>
      <trkpt lat="45.9789" lon="4.84318">
        <ele>275</ele>
        <time>2018-04-14T10:04:23Z</time>
      </trkpt>
      <trkpt lat="45.97893" lon="4.84311">
        <ele>275</ele>
        <time>2018-04-14T10:04:24Z</time>
      </trkpt>
      <trkpt lat="45.97896" lon="4.84305">
        <ele>275</ele>
        <time>2018-04-14T10:04:25Z</time>
      </trkpt>
      <trkpt lat="45.979" lon="4.84297">
        <ele>275</ele>
        <time>2018-04-14T10:04:26Z</time>
      </trkpt>
      <trkpt lat="45.97904" lon="4.84291">
        <ele>275</ele>
        <time>2018-04-14T10:04:27Z</time>
      </trkpt>
      <trkpt lat="45.97908" lon="4.84286">
        <ele>275</ele>
        <time>2018-04-14T10:04:28Z</time>
      </trkpt>
      <trkpt lat="45.97911" lon="4.8428">
        <ele>275</ele>
        <time>2018-04-14T10:04:29Z</time>
      </trkpt>
      <trkpt lat="45.97915" lon="4.84276">
        <ele>275</ele>
        <time>2018-04-14T10:04:30Z</time>
      </trkpt>
      <trkpt lat="45.97917" lon="4.84269">
        <ele>275</ele>
        <time>2018-04-14T10:04:31Z</time>
      </trkpt>
      <trkpt lat="45.97922" lon="4.84265">
        <ele>275</ele>
        <time>2018-04-14T10:04:32Z</time>
      </trkpt>
      <trkpt lat="45.97926" lon="4.8426">
        <ele>275</ele>
        <time>2018-04-14T10:04:33Z</time>
      </trkpt>
      <trkpt lat="45.97931" lon="4.84256">
        <ele>275</ele>
        <time>2018-04-14T10:04:34Z</time>
      </trkpt>
      <trkpt lat="45.97935" lon="4.84252">
        <ele>275</ele>
        <time>2018-04-14T10:04:35Z</time>
      </trkpt>
      <trkpt lat="45.97939" lon="4.84247">
        <ele>275</ele>
        <time>2018-04-14T10:04:36Z</time>
      </trkpt>
      <trkpt lat="45.97944" lon="4.84243">
        <ele>275</ele>
        <time>2018-04-14T10:04:37Z</time>
      </trkpt>
      <trkpt lat="45.97948" lon="4.84237">
        <ele>275</ele>
        <time>2018-04-14T10:04:38Z</time>
      </trkpt>
      <trkpt lat="45.97953" lon="4.84233">
        <ele>275</ele>
        <time>2018-04-14T10:04:39Z</time>
      </trkpt>
      <trkpt lat="45.97958" lon="4.84228">
        <ele>275</ele>
        <time>2018-04-14T10:04:40Z</time>
      </trkpt>
      <trkpt lat="45.97963" lon="4.84224">
        <ele>274</ele>
        <time>2018-04-14T10:04:41Z</time>
      </trkpt>
      <trkpt lat="45.97968" lon="4.84219">
        <ele>274</ele>
        <time>2018-04-14T10:04:42Z</time>
      </trkpt>
      <trkpt lat="45.97974" lon="4.84215">
        <ele>274</ele>
        <time>2018-04-14T10:04:43Z</time>
      </trkpt>
      <trkpt lat="45.97978" lon="4.8421">
        <ele>274</ele>
        <time>2018-04-14T10:04:44Z</time>
      </trkpt>
      <trkpt lat="45.97983" lon="4.84205">
        <ele>274</ele>
        <time>2018-04-14T10:04:45Z</time>
      </trkpt>
      <trkpt lat="45.97988" lon="4.842">
        <ele>274</ele>
        <time>2018-04-14T10:04:46Z</time>
      </trkpt>
      <trkpt lat="45.97992" lon="4.84196">
        <ele>274</ele>
        <time>2018-04-14T10:04:47Z</time>
      </trkpt>
      <trkpt lat="45.97998" lon="4.84191">
        <ele>274</ele>
        <time>2018-04-14T10:04:48Z</time>
      </trkpt>
      <trkpt lat="45.98004" lon="4.84187">
        <ele>274</ele>
        <time>2018-04-14T10:04:49Z</time>
      </trkpt>
      <trkpt lat="45.98009" lon="4.84182">
        <ele>274</ele>
        <time>2018-04-14T10:04:50Z</time>
      </trkpt>
      <trkpt lat="45.98014" lon="4.84176">
        <ele>274</ele>
        <time>2018-04-14T10:04:51Z</time>
      </trkpt>
      <trkpt lat="45.9802" lon="4.84172">
        <ele>274</ele>
        <time>2018-04-14T10:04:52Z</time>
      </trkpt>
      <trkpt lat="45.98025" lon="4.84167">
        <ele>274</ele>
        <time>2018-04-14T10:04:53Z</time>
      </trkpt>
      <trkpt lat="45.9803" lon="4.84162">
        <ele>273</ele>
        <time>2018-04-14T10:04:54Z</time>
      </trkpt>
      <trkpt lat="45.98036" lon="4.84157">
        <ele>273</ele>
        <time>2018-04-14T10:04:55Z</time>
      </trkpt>
      <trkpt lat="45.98042" lon="4.84152">
        <ele>273</ele>
        <time>2018-04-14T10:04:56Z</time>
      </trkpt>
      <trkpt lat="45.98047" lon="4.84148">
        <ele>273</ele>
        <time>2018-04-14T10:04:57Z</time>
      </trkpt>
      <trkpt lat="45.98051" lon="4.84144">
        <ele>273</ele>
        <time>2018-04-14T10:04:58Z</time>
      </trkpt>
      <trkpt lat="45.98056" lon="4.84139">
        <ele>273</ele>
        <time>2018-04-14T10:04:59Z</time>
      </trkpt>
      <trkpt lat="45.98061" lon="4.84134">
        <ele>273</ele>
        <time>2018-04-14T10:05:00Z</time>
      </trkpt>
      <trkpt lat="45.98066" lon="4.84129">
        <ele>273</ele>
        <time>2018-04-14T10:05:01Z</time>
      </trkpt>
      <trkpt lat="45.98072" lon="4.84125">
        <ele>273</ele>
        <time>2018-04-14T10:05:02Z</time>
      </trkpt>
      <trkpt lat="45.98076" lon="4.84119">
        <ele>273</ele>
        <time>2018-04-14T10:05:03Z</time>
      </trkpt>
      <trkpt lat="45.98082" lon="4.84114">
        <ele>273</ele>
        <time>2018-04-14T10:05:04Z</time>
      </trkpt>
      <trkpt lat="45.98087" lon="4.8411">
        <ele>273</ele>
        <time>2018-04-14T10:05:05Z</time>
      </trkpt>
      <trkpt lat="45.98092" lon="4.84105">
        <ele>273</ele>
        <time>2018-04-14T10:05:06Z</time>
      </trkpt>
      <trkpt lat="45.98097" lon="4.841">
        <ele>273</ele>
        <time>2018-04-14T10:05:07Z</time>
      </trkpt>
      <trkpt lat="45.98102" lon="4.84094">
        <ele>273</ele>
        <time>2018-04-14T10:05:08Z</time>
      </trkpt>
      <trkpt lat="45.98107" lon="4.84089">
        <ele>273</ele>
        <time>2018-04-14T10:05:09Z</time>
      </trkpt>
      <trkpt lat="45.98112" lon="4.84085">
        <ele>273</ele>
        <time>2018-04-14T10:05:10Z</time>
      </trkpt>
      <trkpt lat="45.98117" lon="4.84079">
        <ele>273</ele>
        <time>2018-04-14T10:05:11Z</time>
      </trkpt>
      <trkpt lat="45.98123" lon="4.84072">
        <ele>273</ele>
        <time>2018-04-14T10:05:12Z</time>
      </trkpt>
      <trkpt lat="45.98128" lon="4.84063">
        <ele>273</ele>
        <time>2018-04-14T10:05:13Z</time>
      </trkpt>
      <trkpt lat="45.98134" lon="4.84058">
        <ele>273</ele>
        <time>2018-04-14T10:05:14Z</time>
      </trkpt>
      <trkpt lat="45.9814" lon="4.84052">
        <ele>273</ele>
        <time>2018-04-14T10:05:15Z</time>
      </trkpt>
      <trkpt lat="45.98144" lon="4.84047">
        <ele>273</ele>
        <time>2018-04-14T10:05:16Z</time>
      </trkpt>
      <trkpt lat="45.98148" lon="4.84041">
        <ele>273</ele>
        <time>2018-04-14T10:05:17Z</time>
      </trkpt>
      <trkpt lat="45.98153" lon="4.84032">
        <ele>273</ele>
        <time>2018-04-14T10:05:18Z</time>
      </trkpt>
      <trkpt lat="45.98158" lon="4.84026">
        <ele>273</ele>
        <time>2018-04-14T10:05:19Z</time>
      </trkpt>
      <trkpt lat="45.98161" lon="4.84019">
        <ele>273</ele>
        <time>2018-04-14T10:05:20Z</time>
      </trkpt>
      <trkpt lat="45.98166" lon="4.84012">
        <ele>273</ele>
        <time>2018-04-14T10:05:21Z</time>
      </trkpt>
      <trkpt lat="45.98169" lon="4.84006">
        <ele>273</ele>
        <time>2018-04-14T10:05:22Z</time>
      </trkpt>
      <trkpt lat="45.98172" lon="4.83999">
        <ele>273</ele>
        <time>2018-04-14T10:05:23Z</time>
      </trkpt>
      <trkpt lat="45.98175" lon="4.83992">
        <ele>273</ele>
        <time>2018-04-14T10:05:24Z</time>
      </trkpt>
      <trkpt lat="45.98178" lon="4.83984">
        <ele>273</ele>
        <time>2018-04-14T10:05:25Z</time>
      </trkpt>
      <trkpt lat="45.9818" lon="4.83978">
        <ele>273</ele>
        <time>2018-04-14T10:05:26Z</time>
      </trkpt>
      <trkpt lat="45.98183" lon="4.83971">
        <ele>273</ele>
        <time>2018-04-14T10:05:27Z</time>
      </trkpt>
      <trkpt lat="45.98186" lon="4.83963">
        <ele>273</ele>
        <time>2018-04-14T10:05:28Z</time>
      </trkpt>
      <trkpt lat="45.98189" lon="4.83955">
        <ele>273</ele>
        <time>2018-04-14T10:05:29Z</time>
      </trkpt>
      <trkpt lat="45.98192" lon="4.83947">
        <ele>273</ele>
        <time>2018-04-14T10:05:30Z</time>
      </trkpt>
      <trkpt lat="45.98193" lon="4.83939">
        <ele>273</ele>
        <time>2018-04-14T10:05:31Z</time>
      </trkpt>
      <trkpt lat="45.98196" lon="4.83931">
        <ele>273</ele>
        <time>2018-04-14T10:05:32Z</time>
      </trkpt>
      <trkpt lat="45.98197" lon="4.83923">
        <ele>273</ele>
        <time>2018-04-14T10:05:33Z</time>
      </trkpt>
      <trkpt lat="45.98201" lon="4.83915">
        <ele>273</ele>
        <time>2018-04-14T10:05:34Z</time>
      </trkpt>
      <trkpt lat="45.98204" lon="4.83908">
        <ele>273</ele>
        <time>2018-04-14T10:05:35Z</time>
      </trkpt>
      <trkpt lat="45.98205" lon="4.83898">
        <ele>273</ele>
        <time>2018-04-14T10:05:36Z</time>
      </trkpt>
      <trkpt lat="45.98208" lon="4.8389">
        <ele>273</ele>
        <time>2018-04-14T10:05:37Z</time>
      </trkpt>
      <trkpt lat="45.98212" lon="4.83881">
        <ele>273</ele>
        <time>2018-04-14T10:05:38Z</time>
      </trkpt>
      <trkpt lat="45.98214" lon="4.83873">
        <ele>272</ele>
        <time>2018-04-14T10:05:39Z</time>
      </trkpt>
      <trkpt lat="45.98218" lon="4.83864">
        <ele>272</ele>
        <time>2018-04-14T10:05:40Z</time>
      </trkpt>
      <trkpt lat="45.9822" lon="4.83856">
        <ele>272</ele>
        <time>2018-04-14T10:05:41Z</time>
      </trkpt>
      <trkpt lat="45.98223" lon="4.83847">
        <ele>272</ele>
        <time>2018-04-14T10:05:42Z</time>
      </trkpt>
      <trkpt lat="45.98226" lon="4.83839">
        <ele>272</ele>
        <time>2018-04-14T10:05:43Z</time>
      </trkpt>
      <trkpt lat="45.98229" lon="4.83831">
        <ele>272</ele>
        <time>2018-04-14T10:05:44Z</time>
      </trkpt>
      <trkpt lat="45.98232" lon="4.83823">
        <ele>272</ele>
        <time>2018-04-14T10:05:45Z</time>
      </trkpt>
      <trkpt lat="45.98235" lon="4.83815">
        <ele>272</ele>
        <time>2018-04-14T10:05:46Z</time>
      </trkpt>
      <trkpt lat="45.98238" lon="4.83807">
        <ele>272</ele>
        <time>2018-04-14T10:05:47Z</time>
      </trkpt>
      <trkpt lat="45.98241" lon="4.83799">
        <ele>272</ele>
        <time>2018-04-14T10:05:48Z</time>
      </trkpt>
      <trkpt lat="45.98244" lon="4.83791">
        <ele>272</ele>
        <time>2018-04-14T10:05:49Z</time>
      </trkpt>
      <trkpt lat="45.98246" lon="4.83783">
        <ele>272</ele>
        <time>2018-04-14T10:05:50Z</time>
      </trkpt>
      <trkpt lat="45.9825" lon="4.83774">
        <ele>272</ele>
        <time>2018-04-14T10:05:51Z</time>
      </trkpt>
      <trkpt lat="45.98253" lon="4.83769">
        <ele>272</ele>
        <time>2018-04-14T10:05:52Z</time>
      </trkpt>
      <trkpt lat="45.98255" lon="4.83763">
        <ele>272</ele>
        <time>2018-04-14T10:05:53Z</time>
      </trkpt>
      <trkpt lat="45.98258" lon="4.83755">
        <ele>272</ele>
        <time>2018-04-14T10:05:54Z</time>
      </trkpt>
      <trkpt lat="45.98262" lon="4.83746">
        <ele>272</ele>
        <time>2018-04-14T10:05:55Z</time>
      </trkpt>
      <trkpt lat="45.98265" lon="4.83739">
        <ele>272</ele>
        <time>2018-04-14T10:05:56Z</time>
      </trkpt>
      <trkpt lat="45.98267" lon="4.83731">
        <ele>272</ele>
        <time>2018-04-14T10:05:57Z</time>
      </trkpt>
      <trkpt lat="45.98269" lon="4.8372">
        <ele>272</ele>
        <time>2018-04-14T10:05:58Z</time>
      </trkpt>
      <trkpt lat="45.98273" lon="4.83713">
        <ele>272</ele>
        <time>2018-04-14T10:05:59Z</time>
      </trkpt>
      <trkpt lat="45.98277" lon="4.83705">
        <ele>272</ele>
        <time>2018-04-14T10:06:00Z</time>
      </trkpt>
      <trkpt lat="45.98281" lon="4.83696">
        <ele>272</ele>
        <time>2018-04-14T10:06:01Z</time>
      </trkpt>
      <trkpt lat="45.98284" lon="4.83688">
        <ele>272</ele>
        <time>2018-04-14T10:06:02Z</time>
      </trkpt>
      <trkpt lat="45.98287" lon="4.83679">
        <ele>272</ele>
        <time>2018-04-14T10:06:03Z</time>
      </trkpt>
      <trkpt lat="45.9829" lon="4.83671">
        <ele>272</ele>
        <time>2018-04-14T10:06:04Z</time>
      </trkpt>
      <trkpt lat="45.98294" lon="4.83663">
        <ele>271</ele>
        <time>2018-04-14T10:06:05Z</time>
      </trkpt>
      <trkpt lat="45.98297" lon="4.83656">
        <ele>271</ele>
        <time>2018-04-14T10:06:06Z</time>
      </trkpt>
      <trkpt lat="45.983" lon="4.8365">
        <ele>271</ele>
        <time>2018-04-14T10:06:07Z</time>
      </trkpt>
      <trkpt lat="45.98302" lon="4.83643">
        <ele>271</ele>
        <time>2018-04-14T10:06:08Z</time>
      </trkpt>
      <trkpt lat="45.98306" lon="4.83636">
        <ele>271</ele>
        <time>2018-04-14T10:06:09Z</time>
      </trkpt>
      <trkpt lat="45.9831" lon="4.83629">
        <ele>271</ele>
        <time>2018-04-14T10:06:10Z</time>
      </trkpt>
      <trkpt lat="45.98313" lon="4.83621">
        <ele>271</ele>
        <time>2018-04-14T10:06:11Z</time>
      </trkpt>
      <trkpt lat="45.98317" lon="4.83614">
        <ele>271</ele>
        <time>2018-04-14T10:06:12Z</time>
      </trkpt>
      <trkpt lat="45.98321" lon="4.83608">
        <ele>271</ele>
        <time>2018-04-14T10:06:13Z</time>
      </trkpt>
      <trkpt lat="45.98325" lon="4.83602">
        <ele>271</ele>
        <time>2018-04-14T10:06:14Z</time>
      </trkpt>
      <trkpt lat="45.98329" lon="4.83596">
        <ele>270</ele>
        <time>2018-04-14T10:06:15Z</time>
      </trkpt>
      <trkpt lat="45.98334" lon="4.83591">
        <ele>270</ele>
        <time>2018-04-14T10:06:16Z</time>
      </trkpt>
      <trkpt lat="45.98338" lon="4.83585">
        <ele>270</ele>
        <time>2018-04-14T10:06:17Z</time>
      </trkpt>
      <trkpt lat="45.98343" lon="4.83578">
        <ele>270</ele>
        <time>2018-04-14T10:06:18Z</time>
      </trkpt>
      <trkpt lat="45.98348" lon="4.83572">
        <ele>269</ele>
        <time>2018-04-14T10:06:19Z</time>
      </trkpt>
      <trkpt lat="45.98352" lon="4.83566">
        <ele>269</ele>
        <time>2018-04-14T10:06:20Z</time>
      </trkpt>
      <trkpt lat="45.98356" lon="4.83559">
        <ele>269</ele>
        <time>2018-04-14T10:06:21Z</time>
      </trkpt>
      <trkpt lat="45.98362" lon="4.83553">
        <ele>269</ele>
        <time>2018-04-14T10:06:22Z</time>
      </trkpt>
      <trkpt lat="45.98366" lon="4.83546">
        <ele>269</ele>
        <time>2018-04-14T10:06:23Z</time>
      </trkpt>
      <trkpt lat="45.98372" lon="4.8354">
        <ele>269</ele>
        <time>2018-04-14T10:06:24Z</time>
      </trkpt>
      <trkpt lat="45.98377" lon="4.83533">
        <ele>269</ele>
        <time>2018-04-14T10:06:25Z</time>
      </trkpt>
      <trkpt lat="45.98381" lon="4.83527">
        <ele>269</ele>
        <time>2018-04-14T10:06:26Z</time>
      </trkpt>
      <trkpt lat="45.98386" lon="4.83521">
        <ele>269</ele>
        <time>2018-04-14T10:06:27Z</time>
      </trkpt>
      <trkpt lat="45.9839" lon="4.83515">
        <ele>269</ele>
        <time>2018-04-14T10:06:28Z</time>
      </trkpt>
      <trkpt lat="45.98394" lon="4.83509">
        <ele>269</ele>
        <time>2018-04-14T10:06:29Z</time>
      </trkpt>
      <trkpt lat="45.98399" lon="4.83503">
        <ele>269</ele>
        <time>2018-04-14T10:06:30Z</time>
      </trkpt>
      <trkpt lat="45.98404" lon="4.83497">
        <ele>269</ele>
        <time>2018-04-14T10:06:31Z</time>
      </trkpt>
      <trkpt lat="45.98407" lon="4.8349">
        <ele>269</ele>
        <time>2018-04-14T10:06:32Z</time>
      </trkpt>
      <trkpt lat="45.98412" lon="4.83485">
        <ele>269</ele>
        <time>2018-04-14T10:06:33Z</time>
      </trkpt>
      <trkpt lat="45.98416" lon="4.83479">
        <ele>269</ele>
        <time>2018-04-14T10:06:34Z</time>
      </trkpt>
      <trkpt lat="45.98422" lon="4.83473">
        <ele>268</ele>
        <time>2018-04-14T10:06:35Z</time>
      </trkpt>
      <trkpt lat="45.98426" lon="4.83467">
        <ele>268</ele>
        <time>2018-04-14T10:06:36Z</time>
      </trkpt>
      <trkpt lat="45.98431" lon="4.83461">
        <ele>268</ele>
        <time>2018-04-14T10:06:37Z</time>
      </trkpt>
      <trkpt lat="45.98435" lon="4.83456">
        <ele>268</ele>
        <time>2018-04-14T10:06:38Z</time>
      </trkpt>
      <trkpt lat="45.98439" lon="4.83451">
        <ele>268</ele>
        <time>2018-04-14T10:06:39Z</time>
      </trkpt>
      <trkpt lat="45.98443" lon="4.83445">
        <ele>268</ele>
        <time>2018-04-14T10:06:40Z</time>
      </trkpt>
      <trkpt lat="45.98447" lon="4.83439">
        <ele>268</ele>
        <time>2018-04-14T10:06:41Z</time>
      </trkpt>
      <trkpt lat="45.98451" lon="4.83433">
        <ele>268</ele>
        <time>2018-04-14T10:06:42Z</time>
      </trkpt>
      <trkpt lat="45.98455" lon="4.83427">
        <ele>268</ele>
        <time>2018-04-14T10:06:43Z</time>
      </trkpt>
      <trkpt lat="45.9846" lon="4.83421">
        <ele>269</ele>
        <time>2018-04-14T10:06:44Z</time>
      </trkpt>
      <trkpt lat="45.98464" lon="4.83414">
        <ele>269</ele>
        <time>2018-04-14T10:06:45Z</time>
      </trkpt>
      <trkpt lat="45.98469" lon="4.83407">
        <ele>269</ele>
        <time>2018-04-14T10:06:46Z</time>
      </trkpt>
      <trkpt lat="45.98474" lon="4.83401">
        <ele>269</ele>
        <time>2018-04-14T10:06:47Z</time>
      </trkpt>
      <trkpt lat="45.98478" lon="4.83395">
        <ele>269</ele>
        <time>2018-04-14T10:06:48Z</time>
      </trkpt>
      <trkpt lat="45.98482" lon="4.83389">
        <ele>269</ele>
        <time>2018-04-14T10:06:49Z</time>
      </trkpt>
      <trkpt lat="45.98487" lon="4.83383">
        <ele>269</ele>
        <time>2018-04-14T10:06:50Z</time>
      </trkpt>
      <trkpt lat="45.98491" lon="4.83377">
        <ele>269</ele>
        <time>2018-04-14T10:06:51Z</time>
      </trkpt>
      <trkpt lat="45.98495" lon="4.83371">
        <ele>270</ele>
        <time>2018-04-14T10:06:52Z</time>
      </trkpt>
      <trkpt lat="45.985" lon="4.83363">
        <ele>270</ele>
        <time>2018-04-14T10:06:53Z</time>
      </trkpt>
      <trkpt lat="45.98504" lon="4.83358">
        <ele>270</ele>
        <time>2018-04-14T10:06:54Z</time>
      </trkpt>
      <trkpt lat="45.98509" lon="4.83353">
        <ele>270</ele>
        <time>2018-04-14T10:06:55Z</time>
      </trkpt>
      <trkpt lat="45.98514" lon="4.83348">
        <ele>270</ele>
        <time>2018-04-14T10:06:56Z</time>
      </trkpt>
      <trkpt lat="45.98518" lon="4.83343">
        <ele>270</ele>
        <time>2018-04-14T10:06:57Z</time>
      </trkpt>
      <trkpt lat="45.98522" lon="4.83337">
        <ele>270</ele>
        <time>2018-04-14T10:06:58Z</time>
      </trkpt>
      <trkpt lat="45.98526" lon="4.83334">
        <ele>269</ele>
        <time>2018-04-14T10:06:59Z</time>
      </trkpt>
      <trkpt lat="45.9853" lon="4.83328">
        <ele>269</ele>
        <time>2018-04-14T10:07:00Z</time>
      </trkpt>
      <trkpt lat="45.98534" lon="4.83323">
        <ele>269</ele>
        <time>2018-04-14T10:07:01Z</time>
      </trkpt>
      <trkpt lat="45.98539" lon="4.83318">
        <ele>269</ele>
        <time>2018-04-14T10:07:02Z</time>
      </trkpt>
      <trkpt lat="45.98543" lon="4.83312">
        <ele>269</ele>
        <time>2018-04-14T10:07:03Z</time>
      </trkpt>
      <trkpt lat="45.98547" lon="4.83307">
        <ele>269</ele>
        <time>2018-04-14T10:07:04Z</time>
      </trkpt>
      <trkpt lat="45.98551" lon="4.83301">
        <ele>269</ele>
        <time>2018-04-14T10:07:05Z</time>
      </trkpt>
      <trkpt lat="45.98554" lon="4.83293">
        <ele>269</ele>
        <time>2018-04-14T10:07:06Z</time>
      </trkpt>
      <trkpt lat="45.98558" lon="4.83288">
        <ele>269</ele>
        <time>2018-04-14T10:07:07Z</time>
      </trkpt>
      <trkpt lat="45.98562" lon="4.83283">
        <ele>269</ele>
        <time>2018-04-14T10:07:08Z</time>
      </trkpt>
      <trkpt lat="45.98566" lon="4.83278">
        <ele>269</ele>
        <time>2018-04-14T10:07:09Z</time>
      </trkpt>
      <trkpt lat="45.9857" lon="4.83272">
        <ele>269</ele>
        <time>2018-04-14T10:07:10Z</time>
      </trkpt>
      <trkpt lat="45.98574" lon="4.83267">
        <ele>269</ele>
        <time>2018-04-14T10:07:11Z</time>
      </trkpt>
      <trkpt lat="45.98578" lon="4.8326">
        <ele>268</ele>
        <time>2018-04-14T10:07:12Z</time>
      </trkpt>
      <trkpt lat="45.98582" lon="4.83255">
        <ele>268</ele>
        <time>2018-04-14T10:07:13Z</time>
      </trkpt>
      <trkpt lat="45.98586" lon="4.83249">
        <ele>268</ele>
        <time>2018-04-14T10:07:14Z</time>
      </trkpt>
      <trkpt lat="45.9859" lon="4.83243">
        <ele>268</ele>
        <time>2018-04-14T10:07:15Z</time>
      </trkpt>
      <trkpt lat="45.98595" lon="4.83237">
        <ele>268</ele>
        <time>2018-04-14T10:07:16Z</time>
      </trkpt>
      <trkpt lat="45.986" lon="4.83232">
        <ele>268</ele>
        <time>2018-04-14T10:07:17Z</time>
      </trkpt>
      <trkpt lat="45.98604" lon="4.83227">
        <ele>267</ele>
        <time>2018-04-14T10:07:18Z</time>
      </trkpt>
      <trkpt lat="45.98607" lon="4.83218">
        <ele>267</ele>
        <time>2018-04-14T10:07:19Z</time>
      </trkpt>
      <trkpt lat="45.98612" lon="4.83212">
        <ele>267</ele>
        <time>2018-04-14T10:07:20Z</time>
      </trkpt>
      <trkpt lat="45.98617" lon="4.83206">
        <ele>267</ele>
        <time>2018-04-14T10:07:21Z</time>
      </trkpt>
      <trkpt lat="45.98622" lon="4.83201">
        <ele>267</ele>
        <time>2018-04-14T10:07:22Z</time>
      </trkpt>
      <trkpt lat="45.98626" lon="4.83196">
        <ele>267</ele>
        <time>2018-04-14T10:07:23Z</time>
      </trkpt>
      <trkpt lat="45.9863" lon="4.8319">
        <ele>267</ele>
        <time>2018-04-14T10:07:24Z</time>
      </trkpt>
      <trkpt lat="45.98635" lon="4.83185">
        <ele>267</ele>
        <time>2018-04-14T10:07:25Z</time>
      </trkpt>
      <trkpt lat="45.98641" lon="4.8318">
        <ele>267</ele>
        <time>2018-04-14T10:07:26Z</time>
      </trkpt>
      <trkpt lat="45.98646" lon="4.83175">
        <ele>267</ele>
        <time>2018-04-14T10:07:27Z</time>
      </trkpt>
      <trkpt lat="45.98651" lon="4.83171">
        <ele>267</ele>
        <time>2018-04-14T10:07:28Z</time>
      </trkpt>
      <trkpt lat="45.98657" lon="4.83167">
        <ele>267</ele>
        <time>2018-04-14T10:07:29Z</time>
      </trkpt>
      <trkpt lat="45.98662" lon="4.83161">
        <ele>266</ele>
        <time>2018-04-14T10:07:30Z</time>
      </trkpt>
      <trkpt lat="45.98668" lon="4.83159">
        <ele>266</ele>
        <time>2018-04-14T10:07:31Z</time>
      </trkpt>
      <trkpt lat="45.98674" lon="4.83154">
        <ele>266</ele>
        <time>2018-04-14T10:07:32Z</time>
      </trkpt>
      <trkpt lat="45.98679" lon="4.83149">
        <ele>266</ele>
        <time>2018-04-14T10:07:33Z</time>
      </trkpt>
      <trkpt lat="45.98685" lon="4.83144">
        <ele>266</ele>
        <time>2018-04-14T10:07:34Z</time>
      </trkpt>
      <trkpt lat="45.98691" lon="4.8314">
        <ele>266</ele>
        <time>2018-04-14T10:07:35Z</time>
      </trkpt>
      <trkpt lat="45.98696" lon="4.83136">
        <ele>266</ele>
        <time>2018-04-14T10:07:36Z</time>
      </trkpt>
      <trkpt lat="45.98701" lon="4.83132">
        <ele>266</ele>
        <time>2018-04-14T10:07:37Z</time>
      </trkpt>
      <trkpt lat="45.98704" lon="4.83125">
        <ele>267</ele>
        <time>2018-04-14T10:07:38Z</time>
      </trkpt>
      <trkpt lat="45.9871" lon="4.83121">
        <ele>267</ele>
        <time>2018-04-14T10:07:39Z</time>
      </trkpt>
      <trkpt lat="45.98715" lon="4.83117">
        <ele>267</ele>
        <time>2018-04-14T10:07:40Z</time>
      </trkpt>
      <trkpt lat="45.98719" lon="4.83113">
        <ele>267</ele>
        <time>2018-04-14T10:07:41Z</time>
      </trkpt>
      <trkpt lat="45.98724" lon="4.83108">
        <ele>267</ele>
        <time>2018-04-14T10:07:42Z</time>
      </trkpt>
      <trkpt lat="45.98729" lon="4.83104">
        <ele>267</ele>
        <time>2018-04-14T10:07:43Z</time>
      </trkpt>
      <trkpt lat="45.98734" lon="4.83101">
        <ele>267</ele>
        <time>2018-04-14T10:07:44Z</time>
      </trkpt>
      <trkpt lat="45.98739" lon="4.83097">
        <ele>267</ele>
        <time>2018-04-14T10:07:45Z</time>
      </trkpt>
      <trkpt lat="45.98745" lon="4.83092">
        <ele>267</ele>
        <time>2018-04-14T10:07:46Z</time>
      </trkpt>
      <trkpt lat="45.9875" lon="4.83087">
        <ele>267</ele>
        <time>2018-04-14T10:07:47Z</time>
      </trkpt>
      <trkpt lat="45.98756" lon="4.83082">
        <ele>267</ele>
        <time>2018-04-14T10:07:48Z</time>
      </trkpt>
      <trkpt lat="45.98761" lon="4.83078">
        <ele>266</ele>
        <time>2018-04-14T10:07:49Z</time>
      </trkpt>
      <trkpt lat="45.98767" lon="4.83072">
        <ele>266</ele>
        <time>2018-04-14T10:07:50Z</time>
      </trkpt>
      <trkpt lat="45.98773" lon="4.83066">
        <ele>265</ele>
        <time>2018-04-14T10:07:51Z</time>
      </trkpt>
      <trkpt lat="45.98779" lon="4.83061">
        <ele>265</ele>
        <time>2018-04-14T10:07:52Z</time>
      </trkpt>
      <trkpt lat="45.98786" lon="4.83056">
        <ele>265</ele>
        <time>2018-04-14T10:07:53Z</time>
      </trkpt>
      <trkpt lat="45.98792" lon="4.83051">
        <ele>265</ele>
        <time>2018-04-14T10:07:54Z</time>
      </trkpt>
      <trkpt lat="45.98798" lon="4.83046">
        <ele>264</ele>
        <time>2018-04-14T10:07:55Z</time>
      </trkpt>
      <trkpt lat="45.98804" lon="4.83041">
        <ele>264</ele>
        <time>2018-04-14T10:07:56Z</time>
      </trkpt>
      <trkpt lat="45.98811" lon="4.83035">
        <ele>264</ele>
        <time>2018-04-14T10:07:57Z</time>
      </trkpt>
      <trkpt lat="45.98818" lon="4.83029">
        <ele>264</ele>
        <time>2018-04-14T10:07:58Z</time>
      </trkpt>
      <trkpt lat="45.98824" lon="4.83021">
        <ele>264</ele>
        <time>2018-04-14T10:07:59Z</time>
      </trkpt>
      <trkpt lat="45.98832" lon="4.83016">
        <ele>264</ele>
        <time>2018-04-14T10:08:00Z</time>
      </trkpt>
      <trkpt lat="45.9884" lon="4.83011">
        <ele>262</ele>
        <time>2018-04-14T10:08:01Z</time>
      </trkpt>
      <trkpt lat="45.98847" lon="4.83005">
        <ele>261</ele>
        <time>2018-04-14T10:08:02Z</time>
      </trkpt>
      <trkpt lat="45.98856" lon="4.82999">
        <ele>261</ele>
        <time>2018-04-14T10:08:03Z</time>
      </trkpt>
      <trkpt lat="45.98864" lon="4.82994">
        <ele>260</ele>
        <time>2018-04-14T10:08:04Z</time>
      </trkpt>
      <trkpt lat="45.98873" lon="4.82987">
        <ele>260</ele>
        <time>2018-04-14T10:08:05Z</time>
      </trkpt>
      <trkpt lat="45.98882" lon="4.82981">
        <ele>259</ele>
        <time>2018-04-14T10:08:06Z</time>
      </trkpt>
      <trkpt lat="45.98892" lon="4.82974">
        <ele>259</ele>
        <time>2018-04-14T10:08:07Z</time>
      </trkpt>
      <trkpt lat="45.989" lon="4.82965">
        <ele>259</ele>
        <time>2018-04-14T10:08:08Z</time>
      </trkpt>
      <trkpt lat="45.98909" lon="4.82955">
        <ele>258</ele>
        <time>2018-04-14T10:08:09Z</time>
      </trkpt>
      <trkpt lat="45.98916" lon="4.82943">
        <ele>258</ele>
        <time>2018-04-14T10:08:10Z</time>
      </trkpt>
      <trkpt lat="45.98923" lon="4.82932">
        <ele>255</ele>
        <time>2018-04-14T10:08:11Z</time>
      </trkpt>
      <trkpt lat="45.98929" lon="4.82923">
        <ele>255</ele>
        <time>2018-04-14T10:08:12Z</time>
      </trkpt>
      <trkpt lat="45.98936" lon="4.82908">
        <ele>254</ele>
        <time>2018-04-14T10:08:13Z</time>
      </trkpt>
      <trkpt lat="45.98942" lon="4.82895">
        <ele>253</ele>
        <time>2018-04-14T10:08:14Z</time>
      </trkpt>
      <trkpt lat="45.98948" lon="4.8288">
        <ele>253</ele>
        <time>2018-04-14T10:08:15Z</time>
      </trkpt>
      <trkpt lat="45.98954" lon="4.82867">
        <ele>252</ele>
        <time>2018-04-14T10:08:16Z</time>
      </trkpt>
      <trkpt lat="45.98961" lon="4.82853">
        <ele>252</ele>
        <time>2018-04-14T10:08:17Z</time>
      </trkpt>
      <trkpt lat="45.98968" lon="4.82838">
        <ele>251</ele>
        <time>2018-04-14T10:08:18Z</time>
      </trkpt>
      <trkpt lat="45.98974" lon="4.82821">
        <ele>249</ele>
        <time>2018-04-14T10:08:19Z</time>
      </trkpt>
      <trkpt lat="45.9898" lon="4.82805">
        <ele>248</ele>
        <time>2018-04-14T10:08:20Z</time>
      </trkpt>
      <trkpt lat="45.98985" lon="4.82789">
        <ele>247</ele>
        <time>2018-04-14T10:08:21Z</time>
      </trkpt>
      <trkpt lat="45.98991" lon="4.82773">
        <ele>246</ele>
        <time>2018-04-14T10:08:22Z</time>
      </trkpt>
      <trkpt lat="45.98998" lon="4.82758">
        <ele>243</ele>
        <time>2018-04-14T10:08:23Z</time>
      </trkpt>
      <trkpt lat="45.99005" lon="4.82744">
        <ele>240</ele>
        <time>2018-04-14T10:08:24Z</time>
      </trkpt>
      <trkpt lat="45.99012" lon="4.82728">
        <ele>239</ele>
        <time>2018-04-14T10:08:25Z</time>
      </trkpt>
      <trkpt lat="45.99019" lon="4.82714">
        <ele>239</ele>
        <time>2018-04-14T10:08:26Z</time>
      </trkpt>
      <trkpt lat="45.99025" lon="4.82702">
        <ele>238</ele>
        <time>2018-04-14T10:08:27Z</time>
      </trkpt>
      <trkpt lat="45.99029" lon="4.8269">
        <ele>238</ele>
        <time>2018-04-14T10:08:28Z</time>
      </trkpt>
      <trkpt lat="45.99035" lon="4.82679">
        <ele>238</ele>
        <time>2018-04-14T10:08:29Z</time>
      </trkpt>
      <trkpt lat="45.9904" lon="4.82668">
        <ele>238</ele>
        <time>2018-04-14T10:08:30Z</time>
      </trkpt>
      <trkpt lat="45.99044" lon="4.82659">
        <ele>236</ele>
        <time>2018-04-14T10:08:31Z</time>
      </trkpt>
      <trkpt lat="45.99049" lon="4.8265">
        <ele>236</ele>
        <time>2018-04-14T10:08:32Z</time>
      </trkpt>
      <trkpt lat="45.99051" lon="4.82639">
        <ele>236</ele>
        <time>2018-04-14T10:08:33Z</time>
      </trkpt>
      <trkpt lat="45.99054" lon="4.8263">
        <ele>236</ele>
        <time>2018-04-14T10:08:34Z</time>
      </trkpt>
      <trkpt lat="45.99057" lon="4.82622">
        <ele>236</ele>
        <time>2018-04-14T10:08:35Z</time>
      </trkpt>
      <trkpt lat="45.99059" lon="4.82614">
        <ele>236</ele>
        <time>2018-04-14T10:08:36Z</time>
      </trkpt>
      <trkpt lat="45.99063" lon="4.82607">
        <ele>236</ele>
        <time>2018-04-14T10:08:37Z</time>
      </trkpt>
      <trkpt lat="45.99065" lon="4.82599">
        <ele>236</ele>
        <time>2018-04-14T10:08:38Z</time>
      </trkpt>
      <trkpt lat="45.99068" lon="4.82592">
        <ele>235</ele>
        <time>2018-04-14T10:08:39Z</time>
      </trkpt>
      <trkpt lat="45.9907" lon="4.82586">
        <ele>235</ele>
        <time>2018-04-14T10:08:40Z</time>
      </trkpt>
      <trkpt lat="45.99068" lon="4.82575">
        <ele>235</ele>
        <time>2018-04-14T10:08:42Z</time>
      </trkpt>
      <trkpt lat="45.99066" lon="4.82572">
        <ele>235</ele>
        <time>2018-04-14T10:08:43Z</time>
      </trkpt>
      <trkpt lat="45.99061" lon="4.82569">
        <ele>235</ele>
        <time>2018-04-14T10:08:44Z</time>
      </trkpt>
      <trkpt lat="45.99055" lon="4.82567">
        <ele>235</ele>
        <time>2018-04-14T10:08:45Z</time>
      </trkpt>
      <trkpt lat="45.9905" lon="4.82566">
        <ele>235</ele>
        <time>2018-04-14T10:08:46Z</time>
      </trkpt>
      <trkpt lat="45.99045" lon="4.82564">
        <ele>235</ele>
        <time>2018-04-14T10:08:47Z</time>
      </trkpt>
      <trkpt lat="45.9904" lon="4.82562">
        <ele>235</ele>
        <time>2018-04-14T10:08:48Z</time>
      </trkpt>
      <trkpt lat="45.99036" lon="4.82559">
        <ele>235</ele>
        <time>2018-04-14T10:08:49Z</time>
      </trkpt>
      <trkpt lat="45.99032" lon="4.82556">
        <ele>235</ele>
        <time>2018-04-14T10:08:50Z</time>
      </trkpt>
      <trkpt lat="45.99027" lon="4.82551">
        <ele>235</ele>
        <time>2018-04-14T10:08:51Z</time>
      </trkpt>
      <trkpt lat="45.9902" lon="4.82545">
        <ele>235</ele>
        <time>2018-04-14T10:08:53Z</time>
      </trkpt>
      <trkpt lat="45.99017" lon="4.8254">
        <ele>235</ele>
        <time>2018-04-14T10:08:54Z</time>
      </trkpt>
      <trkpt lat="45.99012" lon="4.82532">
        <ele>235</ele>
        <time>2018-04-14T10:08:56Z</time>
      </trkpt>
      <trkpt lat="45.99009" lon="4.82527">
        <ele>235</ele>
        <time>2018-04-14T10:08:57Z</time>
      </trkpt>
      <trkpt lat="45.99002" lon="4.82519">
        <ele>235</ele>
        <time>2018-04-14T10:08:59Z</time>
      </trkpt>
      <trkpt lat="45.99001" lon="4.82511">
        <ele>235</ele>
        <time>2018-04-14T10:09:00Z</time>
      </trkpt>
      <trkpt lat="45.99" lon="4.82504">
        <ele>235</ele>
        <time>2018-04-14T10:09:01Z</time>
      </trkpt>
      <trkpt lat="45.98998" lon="4.82498">
        <ele>235</ele>
        <time>2018-04-14T10:09:02Z</time>
      </trkpt>
      <trkpt lat="45.98996" lon="4.82492">
        <ele>236</ele>
        <time>2018-04-14T10:09:03Z</time>
      </trkpt>
      <trkpt lat="45.98993" lon="4.82485">
        <ele>236</ele>
        <time>2018-04-14T10:09:04Z</time>
      </trkpt>
      <trkpt lat="45.9899" lon="4.82479">
        <ele>236</ele>
        <time>2018-04-14T10:09:05Z</time>
      </trkpt>
      <trkpt lat="45.98988" lon="4.82473">
        <ele>236</ele>
        <time>2018-04-14T10:09:06Z</time>
      </trkpt>
      <trkpt lat="45.98984" lon="4.82461">
        <ele>236</ele>
        <time>2018-04-14T10:09:08Z</time>
      </trkpt>
      <trkpt lat="45.98982" lon="4.82454">
        <ele>236</ele>
        <time>2018-04-14T10:09:09Z</time>
      </trkpt>
      <trkpt lat="45.98981" lon="4.82448">
        <ele>236</ele>
        <time>2018-04-14T10:09:10Z</time>
      </trkpt>
      <trkpt lat="45.98979" lon="4.8244">
        <ele>236</ele>
        <time>2018-04-14T10:09:11Z</time>
      </trkpt>
      <trkpt lat="45.98976" lon="4.82433">
        <ele>236</ele>
        <time>2018-04-14T10:09:12Z</time>
      </trkpt>
      <trkpt lat="45.98976" lon="4.82426">
        <ele>236</ele>
        <time>2018-04-14T10:09:13Z</time>
      </trkpt>
      <trkpt lat="45.98974" lon="4.82419">
        <ele>236</ele>
        <time>2018-04-14T10:09:14Z</time>
      </trkpt>
      <trkpt lat="45.98972" lon="4.82411">
        <ele>235</ele>
        <time>2018-04-14T10:09:15Z</time>
      </trkpt>
      <trkpt lat="45.98971" lon="4.82404">
        <ele>235</ele>
        <time>2018-04-14T10:09:16Z</time>
      </trkpt>
      <trkpt lat="45.98969" lon="4.82397">
        <ele>235</ele>
        <time>2018-04-14T10:09:17Z</time>
      </trkpt>
      <trkpt lat="45.98967" lon="4.82391">
        <ele>235</ele>
        <time>2018-04-14T10:09:18Z</time>
      </trkpt>
      <trkpt lat="45.98965" lon="4.82384">
        <ele>235</ele>
        <time>2018-04-14T10:09:19Z</time>
      </trkpt>
      <trkpt lat="45.98963" lon="4.82377">
        <ele>235</ele>
        <time>2018-04-14T10:09:20Z</time>
      </trkpt>
      <trkpt lat="45.98961" lon="4.8237">
        <ele>235</ele>
        <time>2018-04-14T10:09:21Z</time>
      </trkpt>
      <trkpt lat="45.9896" lon="4.82365">
        <ele>235</ele>
        <time>2018-04-14T10:09:22Z</time>
      </trkpt>
      <trkpt lat="45.98958" lon="4.82358">
        <ele>235</ele>
        <time>2018-04-14T10:09:23Z</time>
      </trkpt>
      <trkpt lat="45.98956" lon="4.82353">
        <ele>235</ele>
        <time>2018-04-14T10:09:24Z</time>
      </trkpt>
      <trkpt lat="45.98952" lon="4.82347">
        <ele>235</ele>
        <time>2018-04-14T10:09:25Z</time>
      </trkpt>
      <trkpt lat="45.98948" lon="4.82337">
        <ele>235</ele>
        <time>2018-04-14T10:09:27Z</time>
      </trkpt>
      <trkpt lat="45.98945" lon="4.82329">
        <ele>234</ele>
        <time>2018-04-14T10:09:28Z</time>
      </trkpt>
      <trkpt lat="45.98941" lon="4.82323">
        <ele>234</ele>
        <time>2018-04-14T10:09:29Z</time>
      </trkpt>
      <trkpt lat="45.98936" lon="4.8232">
        <ele>235</ele>
        <time>2018-04-14T10:09:30Z</time>
      </trkpt>
      <trkpt lat="45.98931" lon="4.82314">
        <ele>235</ele>
        <time>2018-04-14T10:09:31Z</time>
      </trkpt>
      <trkpt lat="45.98926" lon="4.82308">
        <ele>234</ele>
        <time>2018-04-14T10:09:32Z</time>
      </trkpt>
      <trkpt lat="45.98922" lon="4.82303">
        <ele>234</ele>
        <time>2018-04-14T10:09:33Z</time>
      </trkpt>
      <trkpt lat="45.98917" lon="4.82299">
        <ele>234</ele>
        <time>2018-04-14T10:09:34Z</time>
      </trkpt>
      <trkpt lat="45.98912" lon="4.82297">
        <ele>237</ele>
        <time>2018-04-14T10:09:35Z</time>
      </trkpt>
      <trkpt lat="45.98907" lon="4.82292">
        <ele>237</ele>
        <time>2018-04-14T10:09:36Z</time>
      </trkpt>
      <trkpt lat="45.98903" lon="4.82287">
        <ele>236</ele>
        <time>2018-04-14T10:09:37Z</time>
      </trkpt>
      <trkpt lat="45.98898" lon="4.8228">
        <ele>236</ele>
        <time>2018-04-14T10:09:38Z</time>
      </trkpt>
      <trkpt lat="45.98894" lon="4.82274">
        <ele>236</ele>
        <time>2018-04-14T10:09:39Z</time>
      </trkpt>
      <trkpt lat="45.98891" lon="4.82268">
        <ele>236</ele>
        <time>2018-04-14T10:09:40Z</time>
      </trkpt>
      <trkpt lat="45.98887" lon="4.82262">
        <ele>236</ele>
        <time>2018-04-14T10:09:41Z</time>
      </trkpt>
      <trkpt lat="45.98884" lon="4.82256">
        <ele>236</ele>
        <time>2018-04-14T10:09:42Z</time>
      </trkpt>
      <trkpt lat="45.98881" lon="4.8225">
        <ele>236</ele>
        <time>2018-04-14T10:09:43Z</time>
      </trkpt>
      <trkpt lat="45.98878" lon="4.82243">
        <ele>236</ele>
        <time>2018-04-14T10:09:44Z</time>
      </trkpt>
      <trkpt lat="45.98875" lon="4.82236">
        <ele>236</ele>
        <time>2018-04-14T10:09:45Z</time>
      </trkpt>
      <trkpt lat="45.98872" lon="4.8223">
        <ele>236</ele>
        <time>2018-04-14T10:09:46Z</time>
      </trkpt>
      <trkpt lat="45.98868" lon="4.82223">
        <ele>236</ele>
        <time>2018-04-14T10:09:47Z</time>
      </trkpt>
      <trkpt lat="45.98865" lon="4.82216">
        <ele>236</ele>
        <time>2018-04-14T10:09:48Z</time>
      </trkpt>
      <trkpt lat="45.98862" lon="4.82209">
        <ele>236</ele>
        <time>2018-04-14T10:09:49Z</time>
      </trkpt>
      <trkpt lat="45.9886" lon="4.82204">
        <ele>236</ele>
        <time>2018-04-14T10:09:50Z</time>
      </trkpt>
      <trkpt lat="45.98858" lon="4.82197">
        <ele>236</ele>
        <time>2018-04-14T10:09:51Z</time>
      </trkpt>
      <trkpt lat="45.98856" lon="4.8219">
        <ele>236</ele>
        <time>2018-04-14T10:09:52Z</time>
      </trkpt>
      <trkpt lat="45.98855" lon="4.82183">
        <ele>236</ele>
        <time>2018-04-14T10:09:53Z</time>
      </trkpt>
      <trkpt lat="45.98854" lon="4.82177">
        <ele>236</ele>
        <time>2018-04-14T10:09:54Z</time>
      </trkpt>
      <trkpt lat="45.98852" lon="4.8217">
        <ele>236</ele>
        <time>2018-04-14T10:09:55Z</time>
      </trkpt>
      <trkpt lat="45.98849" lon="4.82163">
        <ele>236</ele>
        <time>2018-04-14T10:09:56Z</time>
      </trkpt>
      <trkpt lat="45.98847" lon="4.82151">
        <ele>236</ele>
        <time>2018-04-14T10:09:58Z</time>
      </trkpt>
      <trkpt lat="45.98845" lon="4.82143">
        <ele>236</ele>
        <time>2018-04-14T10:09:59Z</time>
      </trkpt>
      <trkpt lat="45.98844" lon="4.82137">
        <ele>236</ele>
        <time>2018-04-14T10:10:00Z</time>
      </trkpt>
      <trkpt lat="45.98842" lon="4.82129">
        <ele>236</ele>
        <time>2018-04-14T10:10:01Z</time>
      </trkpt>
      <trkpt lat="45.98841" lon="4.82122">
        <ele>235</ele>
        <time>2018-04-14T10:10:02Z</time>
      </trkpt>
      <trkpt lat="45.98841" lon="4.82116">
        <ele>235</ele>
        <time>2018-04-14T10:10:03Z</time>
      </trkpt>
      <trkpt lat="45.9884" lon="4.82109">
        <ele>235</ele>
        <time>2018-04-14T10:10:04Z</time>
      </trkpt>
      <trkpt lat="45.98838" lon="4.82103">
        <ele>236</ele>
        <time>2018-04-14T10:10:05Z</time>
      </trkpt>
      <trkpt lat="45.98836" lon="4.82096">
        <ele>236</ele>
        <time>2018-04-14T10:10:06Z</time>
      </trkpt>
      <trkpt lat="45.98833" lon="4.8209">
        <ele>236</ele>
        <time>2018-04-14T10:10:07Z</time>
      </trkpt>
      <trkpt lat="45.98831" lon="4.82078">
        <ele>236</ele>
        <time>2018-04-14T10:10:09Z</time>
      </trkpt>
      <trkpt lat="45.98829" lon="4.82073">
        <ele>237</ele>
        <time>2018-04-14T10:10:10Z</time>
      </trkpt>
      <trkpt lat="45.98828" lon="4.82066">
        <ele>237</ele>
        <time>2018-04-14T10:10:11Z</time>
      </trkpt>
      <trkpt lat="45.98827" lon="4.82059">
        <ele>237</ele>
        <time>2018-04-14T10:10:12Z</time>
      </trkpt>
      <trkpt lat="45.98826" lon="4.82052">
        <ele>237</ele>
        <time>2018-04-14T10:10:13Z</time>
      </trkpt>
      <trkpt lat="45.98825" lon="4.82046">
        <ele>238</ele>
        <time>2018-04-14T10:10:14Z</time>
      </trkpt>
      <trkpt lat="45.98825" lon="4.82038">
        <ele>238</ele>
        <time>2018-04-14T10:10:15Z</time>
      </trkpt>
      <trkpt lat="45.98825" lon="4.82031">
        <ele>238</ele>
        <time>2018-04-14T10:10:16Z</time>
      </trkpt>
      <trkpt lat="45.98824" lon="4.82023">
        <ele>238</ele>
        <time>2018-04-14T10:10:17Z</time>
      </trkpt>
      <trkpt lat="45.98824" lon="4.82016">
        <ele>238</ele>
        <time>2018-04-14T10:10:18Z</time>
      </trkpt>
      <trkpt lat="45.98823" lon="4.82007">
        <ele>238</ele>
        <time>2018-04-14T10:10:19Z</time>
      </trkpt>
      <trkpt lat="45.98822" lon="4.81998">
        <ele>238</ele>
        <time>2018-04-14T10:10:20Z</time>
      </trkpt>
      <trkpt lat="45.9882" lon="4.81991">
        <ele>238</ele>
        <time>2018-04-14T10:10:21Z</time>
      </trkpt>
      <trkpt lat="45.98819" lon="4.81984">
        <ele>238</ele>
        <time>2018-04-14T10:10:22Z</time>
      </trkpt>
      <trkpt lat="45.98817" lon="4.81978">
        <ele>239</ele>
        <time>2018-04-14T10:10:23Z</time>
      </trkpt>
      <trkpt lat="45.98816" lon="4.8197">
        <ele>239</ele>
        <time>2018-04-14T10:10:24Z</time>
      </trkpt>
      <trkpt lat="45.98815" lon="4.81961">
        <ele>239</ele>
        <time>2018-04-14T10:10:25Z</time>
      </trkpt>
      <trkpt lat="45.98815" lon="4.81953">
        <ele>239</ele>
        <time>2018-04-14T10:10:26Z</time>
      </trkpt>
      <trkpt lat="45.98814" lon="4.81946">
        <ele>239</ele>
        <time>2018-04-14T10:10:27Z</time>
      </trkpt>
      <trkpt lat="45.98814" lon="4.81939">
        <ele>239</ele>
        <time>2018-04-14T10:10:28Z</time>
      </trkpt>
      <trkpt lat="45.98813" lon="4.81931">
        <ele>239</ele>
        <time>2018-04-14T10:10:29Z</time>
      </trkpt>
      <trkpt lat="45.98812" lon="4.81923">
        <ele>239</ele>
        <time>2018-04-14T10:10:30Z</time>
      </trkpt>
      <trkpt lat="45.9881" lon="4.81915">
        <ele>239</ele>
        <time>2018-04-14T10:10:31Z</time>
      </trkpt>
      <trkpt lat="45.98809" lon="4.81907">
        <ele>239</ele>
        <time>2018-04-14T10:10:32Z</time>
      </trkpt>
      <trkpt lat="45.98808" lon="4.81901">
        <ele>239</ele>
        <time>2018-04-14T10:10:33Z</time>
      </trkpt>
      <trkpt lat="45.98806" lon="4.81894">
        <ele>239</ele>
        <time>2018-04-14T10:10:34Z</time>
      </trkpt>
      <trkpt lat="45.98804" lon="4.81887">
        <ele>239</ele>
        <time>2018-04-14T10:10:35Z</time>
      </trkpt>
      <trkpt lat="45.98802" lon="4.81882">
        <ele>239</ele>
        <time>2018-04-14T10:10:36Z</time>
      </trkpt>
      <trkpt lat="45.98799" lon="4.81875">
        <ele>239</ele>
        <time>2018-04-14T10:10:37Z</time>
      </trkpt>
      <trkpt lat="45.98796" lon="4.81871">
        <ele>239</ele>
        <time>2018-04-14T10:10:38Z</time>
      </trkpt>
      <trkpt lat="45.98792" lon="4.81862">
        <ele>239</ele>
        <time>2018-04-14T10:10:40Z</time>
      </trkpt>
      <trkpt lat="45.9879" lon="4.81858">
        <ele>239</ele>
        <time>2018-04-14T10:10:41Z</time>
      </trkpt>
      <trkpt lat="45.98787" lon="4.81853">
        <ele>239</ele>
        <time>2018-04-14T10:10:42Z</time>
      </trkpt>
      <trkpt lat="45.98786" lon="4.81844">
        <ele>239</ele>
        <time>2018-04-14T10:10:43Z</time>
      </trkpt>
      <trkpt lat="45.98783" lon="4.81839">
        <ele>239</ele>
        <time>2018-04-14T10:10:44Z</time>
      </trkpt>
      <trkpt lat="45.98779" lon="4.81832">
        <ele>240</ele>
        <time>2018-04-14T10:10:45Z</time>
      </trkpt>
      <trkpt lat="45.98775" lon="4.81822">
        <ele>240</ele>
        <time>2018-04-14T10:10:47Z</time>
      </trkpt>
      <trkpt lat="45.98773" lon="4.81816">
        <ele>240</ele>
        <time>2018-04-14T10:10:48Z</time>
      </trkpt>
      <trkpt lat="45.98769" lon="4.81806">
        <ele>240</ele>
        <time>2018-04-14T10:10:50Z</time>
      </trkpt>
      <trkpt lat="45.98767" lon="4.81801">
        <ele>240</ele>
        <time>2018-04-14T10:10:51Z</time>
      </trkpt>
      <trkpt lat="45.98765" lon="4.81793">
        <ele>241</ele>
        <time>2018-04-14T10:10:53Z</time>
      </trkpt>
      <trkpt lat="45.98762" lon="4.81789">
        <ele>241</ele>
        <time>2018-04-14T10:10:54Z</time>
      </trkpt>
      <trkpt lat="45.98759" lon="4.81779">
        <ele>241</ele>
        <time>2018-04-14T10:10:57Z</time>
      </trkpt>
      <trkpt lat="45.98757" lon="4.81776">
        <ele>241</ele>
        <time>2018-04-14T10:10:58Z</time>
      </trkpt>
      <trkpt lat="45.98754" lon="4.81766">
        <ele>241</ele>
        <time>2018-04-14T10:11:01Z</time>
      </trkpt>
      <trkpt lat="45.98752" lon="4.81763">
        <ele>241</ele>
        <time>2018-04-14T10:11:02Z</time>
      </trkpt>
      <trkpt lat="45.98748" lon="4.81752">
        <ele>241</ele>
        <time>2018-04-14T10:11:03Z</time>
      </trkpt>
      <trkpt lat="45.98747" lon="4.8175">
        <ele>241</ele>
        <time>2018-04-14T10:11:04Z</time>
      </trkpt>
      <trkpt lat="45.98741" lon="4.81741">
        <ele>240</ele>
        <time>2018-04-14T10:11:06Z</time>
      </trkpt>
      <trkpt lat="45.98735" lon="4.81737">
        <ele>240</ele>
        <time>2018-04-14T10:11:07Z</time>
      </trkpt>
      <trkpt lat="45.9873" lon="4.81732">
        <ele>239</ele>
        <time>2018-04-14T10:11:08Z</time>
      </trkpt>
      <trkpt lat="45.98725" lon="4.8173">
        <ele>239</ele>
        <time>2018-04-14T10:11:09Z</time>
      </trkpt>
      <trkpt lat="45.98719" lon="4.81728">
        <ele>239</ele>
        <time>2018-04-14T10:11:10Z</time>
      </trkpt>
      <trkpt lat="45.98714" lon="4.81728">
        <ele>239</ele>
        <time>2018-04-14T10:11:11Z</time>
      </trkpt>
      <trkpt lat="45.98709" lon="4.81729">
        <ele>239</ele>
        <time>2018-04-14T10:11:12Z</time>
      </trkpt>
      <trkpt lat="45.98705" lon="4.81733">
        <ele>239</ele>
        <time>2018-04-14T10:11:13Z</time>
      </trkpt>
      <trkpt lat="45.98696" lon="4.81733">
        <ele>239</ele>
        <time>2018-04-14T10:11:15Z</time>
      </trkpt>
      <trkpt lat="45.98692" lon="4.81734">
        <ele>238</ele>
        <time>2018-04-14T10:11:16Z</time>
      </trkpt>
      <trkpt lat="45.98685" lon="4.81734">
        <ele>238</ele>
        <time>2018-04-14T10:11:18Z</time>
      </trkpt>
      <trkpt lat="45.98682" lon="4.81735">
        <ele>238</ele>
        <time>2018-04-14T10:11:19Z</time>
      </trkpt>
      <trkpt lat="45.98676" lon="4.81738">
        <ele>238</ele>
        <time>2018-04-14T10:11:20Z</time>
      </trkpt>
      <trkpt lat="45.98672" lon="4.81739">
        <ele>238</ele>
        <time>2018-04-14T10:11:21Z</time>
      </trkpt>
      <trkpt lat="45.98664" lon="4.81742">
        <ele>238</ele>
        <time>2018-04-14T10:11:23Z</time>
      </trkpt>
      <trkpt lat="45.9866" lon="4.81744">
        <ele>238</ele>
        <time>2018-04-14T10:11:24Z</time>
      </trkpt>
      <trkpt lat="45.98653" lon="4.81748">
        <ele>237</ele>
        <time>2018-04-14T10:11:25Z</time>
      </trkpt>
      <trkpt lat="45.98649" lon="4.81748">
        <ele>237</ele>
        <time>2018-04-14T10:11:26Z</time>
      </trkpt>
      <trkpt lat="45.98645" lon="4.8175">
        <ele>237</ele>
        <time>2018-04-14T10:11:27Z</time>
      </trkpt>
      <trkpt lat="45.9864" lon="4.81752">
        <ele>238</ele>
        <time>2018-04-14T10:11:28Z</time>
      </trkpt>
      <trkpt lat="45.98634" lon="4.81753">
        <ele>238</ele>
        <time>2018-04-14T10:11:29Z</time>
      </trkpt>
      <trkpt lat="45.98628" lon="4.81756">
        <ele>238</ele>
        <time>2018-04-14T10:11:30Z</time>
      </trkpt>
      <trkpt lat="45.98623" lon="4.81757">
        <ele>238</ele>
        <time>2018-04-14T10:11:31Z</time>
      </trkpt>
      <trkpt lat="45.98617" lon="4.81758">
        <ele>238</ele>
        <time>2018-04-14T10:11:32Z</time>
      </trkpt>
      <trkpt lat="45.98611" lon="4.8176">
        <ele>238</ele>
        <time>2018-04-14T10:11:33Z</time>
      </trkpt>
      <trkpt lat="45.98606" lon="4.81761">
        <ele>238</ele>
        <time>2018-04-14T10:11:34Z</time>
      </trkpt>
      <trkpt lat="45.98601" lon="4.81763">
        <ele>238</ele>
        <time>2018-04-14T10:11:35Z</time>
      </trkpt>
      <trkpt lat="45.98597" lon="4.81767">
        <ele>238</ele>
        <time>2018-04-14T10:11:36Z</time>
      </trkpt>
      <trkpt lat="45.98592" lon="4.81769">
        <ele>238</ele>
        <time>2018-04-14T10:11:37Z</time>
      </trkpt>
      <trkpt lat="45.98588" lon="4.81772">
        <ele>238</ele>
        <time>2018-04-14T10:11:38Z</time>
      </trkpt>
      <trkpt lat="45.98584" lon="4.81776">
        <ele>238</ele>
        <time>2018-04-14T10:11:39Z</time>
      </trkpt>
      <trkpt lat="45.98579" lon="4.8178">
        <ele>238</ele>
        <time>2018-04-14T10:11:40Z</time>
      </trkpt>
      <trkpt lat="45.98575" lon="4.81784">
        <ele>238</ele>
        <time>2018-04-14T10:11:41Z</time>
      </trkpt>
      <trkpt lat="45.98571" lon="4.81789">
        <ele>238</ele>
        <time>2018-04-14T10:11:42Z</time>
      </trkpt>
      <trkpt lat="45.98567" lon="4.81795">
        <ele>238</ele>
        <time>2018-04-14T10:11:43Z</time>
      </trkpt>
      <trkpt lat="45.98562" lon="4.81801">
        <ele>238</ele>
        <time>2018-04-14T10:11:44Z</time>
      </trkpt>
      <trkpt lat="45.98559" lon="4.81805">
        <ele>238</ele>
        <time>2018-04-14T10:11:45Z</time>
      </trkpt>
      <trkpt lat="45.98554" lon="4.81808">
        <ele>238</ele>
        <time>2018-04-14T10:11:46Z</time>
      </trkpt>
      <trkpt lat="45.98548" lon="4.81812">
        <ele>238</ele>
        <time>2018-04-14T10:11:48Z</time>
      </trkpt>
      <trkpt lat="45.98542" lon="4.8181">
        <ele>238</ele>
        <time>2018-04-14T10:11:49Z</time>
      </trkpt>
      <trkpt lat="45.98534" lon="4.81805">
        <ele>238</ele>
        <time>2018-04-14T10:11:51Z</time>
      </trkpt>
      <trkpt lat="45.98532" lon="4.81802">
        <ele>238</ele>
        <time>2018-04-14T10:11:52Z</time>
      </trkpt>
      <trkpt lat="45.98527" lon="4.81793">
        <ele>238</ele>
        <time>2018-04-14T10:11:54Z</time>
      </trkpt>
      <trkpt lat="45.98523" lon="4.81786">
        <ele>238</ele>
        <time>2018-04-14T10:11:55Z</time>
      </trkpt>
      <trkpt lat="45.9852" lon="4.81781">
        <ele>238</ele>
        <time>2018-04-14T10:11:56Z</time>
      </trkpt>
      <trkpt lat="45.98516" lon="4.81776">
        <ele>238</ele>
        <time>2018-04-14T10:11:57Z</time>
      </trkpt>
      <trkpt lat="45.9851" lon="4.81769">
        <ele>237</ele>
        <time>2018-04-14T10:11:59Z</time>
      </trkpt>
      <trkpt lat="45.98508" lon="4.81767">
        <ele>237</ele>
        <time>2018-04-14T10:12:00Z</time>
      </trkpt>
      <trkpt lat="45.98504" lon="4.8176">
        <ele>237</ele>
        <time>2018-04-14T10:12:03Z</time>
      </trkpt>
      <trkpt lat="45.98501" lon="4.81758">
        <ele>237</ele>
        <time>2018-04-14T10:12:04Z</time>
      </trkpt>
      <trkpt lat="45.98496" lon="4.81754">
        <ele>238</ele>
        <time>2018-04-14T10:12:06Z</time>
      </trkpt>
      <trkpt lat="45.98493" lon="4.81751">
        <ele>238</ele>
        <time>2018-04-14T10:12:07Z</time>
      </trkpt>
      <trkpt lat="45.98488" lon="4.81746">
        <ele>238</ele>
        <time>2018-04-14T10:12:09Z</time>
      </trkpt>
      <trkpt lat="45.98485" lon="4.81744">
        <ele>238</ele>
        <time>2018-04-14T10:12:10Z</time>
      </trkpt>
      <trkpt lat="45.98479" lon="4.81737">
        <ele>238</ele>
        <time>2018-04-14T10:12:12Z</time>
      </trkpt>
      <trkpt lat="45.98476" lon="4.81734">
        <ele>238</ele>
        <time>2018-04-14T10:12:13Z</time>
      </trkpt>
      <trkpt lat="45.98471" lon="4.81728">
        <ele>239</ele>
        <time>2018-04-14T10:12:15Z</time>
      </trkpt>
      <trkpt lat="45.98468" lon="4.81726">
        <ele>239</ele>
        <time>2018-04-14T10:12:16Z</time>
      </trkpt>
      <trkpt lat="45.98461" lon="4.81719">
        <ele>239</ele>
        <time>2018-04-14T10:12:19Z</time>
      </trkpt>
      <trkpt lat="45.98459" lon="4.81716">
        <ele>239</ele>
        <time>2018-04-14T10:12:20Z</time>
      </trkpt>
      <trkpt lat="45.98454" lon="4.81706">
        <ele>239</ele>
        <time>2018-04-14T10:12:23Z</time>
      </trkpt>
      <trkpt lat="45.98452" lon="4.81702">
        <ele>239</ele>
        <time>2018-04-14T10:12:24Z</time>
      </trkpt>
      <trkpt lat="45.98446" lon="4.81692">
        <ele>239</ele>
        <time>2018-04-14T10:12:27Z</time>
      </trkpt>
      <trkpt lat="45.98444" lon="4.81689">
        <ele>239</ele>
        <time>2018-04-14T10:12:28Z</time>
      </trkpt>
      <trkpt lat="45.98438" lon="4.81678">
        <ele>240</ele>
        <time>2018-04-14T10:12:29Z</time>
      </trkpt>
      <trkpt lat="45.98433" lon="4.81672">
        <ele>240</ele>
        <time>2018-04-14T10:12:31Z</time>
      </trkpt>
      <trkpt lat="45.98431" lon="4.81669">
        <ele>240</ele>
        <time>2018-04-14T10:12:32Z</time>
      </trkpt>
      <trkpt lat="45.98424" lon="4.81665">
        <ele>240</ele>
        <time>2018-04-14T10:12:34Z</time>
      </trkpt>
      <trkpt lat="45.9842" lon="4.81663">
        <ele>240</ele>
        <time>2018-04-14T10:12:35Z</time>
      </trkpt>
      <trkpt lat="45.98412" lon="4.81663">
        <ele>241</ele>
        <time>2018-04-14T10:12:37Z</time>
      </trkpt>
      <trkpt lat="45.98408" lon="4.81664">
        <ele>241</ele>
        <time>2018-04-14T10:12:38Z</time>
      </trkpt>
      <trkpt lat="45.984" lon="4.81666">
        <ele>242</ele>
        <time>2018-04-14T10:12:40Z</time>
      </trkpt>
      <trkpt lat="45.98396" lon="4.81668">
        <ele>243</ele>
        <time>2018-04-14T10:12:41Z</time>
      </trkpt>
      <trkpt lat="45.98388" lon="4.8167">
        <ele>243</ele>
        <time>2018-04-14T10:12:43Z</time>
      </trkpt>
      <trkpt lat="45.98384" lon="4.81671">
        <ele>243</ele>
        <time>2018-04-14T10:12:44Z</time>
      </trkpt>
      <trkpt lat="45.98376" lon="4.81672">
        <ele>244</ele>
        <time>2018-04-14T10:12:46Z</time>
      </trkpt>
      <trkpt lat="45.98372" lon="4.81673">
        <ele>244</ele>
        <time>2018-04-14T10:12:47Z</time>
      </trkpt>
      <trkpt lat="45.98364" lon="4.81675">
        <ele>244</ele>
        <time>2018-04-14T10:12:49Z</time>
      </trkpt>
      <trkpt lat="45.9836" lon="4.81676">
        <ele>244</ele>
        <time>2018-04-14T10:12:50Z</time>
      </trkpt>
      <trkpt lat="45.98353" lon="4.81677">
        <ele>245</ele>
        <time>2018-04-14T10:12:52Z</time>
      </trkpt>
      <trkpt lat="45.98349" lon="4.81677">
        <ele>245</ele>
        <time>2018-04-14T10:12:53Z</time>
      </trkpt>
      <trkpt lat="45.98341" lon="4.81674">
        <ele>245</ele>
        <time>2018-04-14T10:12:55Z</time>
      </trkpt>
      <trkpt lat="45.98338" lon="4.81673">
        <ele>245</ele>
        <time>2018-04-14T10:12:56Z</time>
      </trkpt>
      <trkpt lat="45.98331" lon="4.8167">
        <ele>246</ele>
        <time>2018-04-14T10:12:58Z</time>
      </trkpt>
      <trkpt lat="45.98327" lon="4.81668">
        <ele>246</ele>
        <time>2018-04-14T10:12:59Z</time>
      </trkpt>
      <trkpt lat="45.9832" lon="4.81663">
        <ele>246</ele>
        <time>2018-04-14T10:13:01Z</time>
      </trkpt>
      <trkpt lat="45.98317" lon="4.8166">
        <ele>246</ele>
        <time>2018-04-14T10:13:02Z</time>
      </trkpt>
      <trkpt lat="45.98309" lon="4.81654">
        <ele>246</ele>
        <time>2018-04-14T10:13:04Z</time>
      </trkpt>
      <trkpt lat="45.98306" lon="4.81651">
        <ele>246</ele>
        <time>2018-04-14T10:13:05Z</time>
      </trkpt>
      <trkpt lat="45.98299" lon="4.81644">
        <ele>247</ele>
        <time>2018-04-14T10:13:07Z</time>
      </trkpt>
      <trkpt lat="45.98296" lon="4.8164">
        <ele>247</ele>
        <time>2018-04-14T10:13:08Z</time>
      </trkpt>
      <trkpt lat="45.9829" lon="4.81633">
        <ele>247</ele>
        <time>2018-04-14T10:13:10Z</time>
      </trkpt>
      <trkpt lat="45.98287" lon="4.81628">
        <ele>247</ele>
        <time>2018-04-14T10:13:11Z</time>
      </trkpt>
      <trkpt lat="45.98281" lon="4.8162">
        <ele>247</ele>
        <time>2018-04-14T10:13:13Z</time>
      </trkpt>
      <trkpt lat="45.98279" lon="4.81615">
        <ele>247</ele>
        <time>2018-04-14T10:13:14Z</time>
      </trkpt>
      <trkpt lat="45.98276" lon="4.81611">
        <ele>247</ele>
        <time>2018-04-14T10:13:15Z</time>
      </trkpt>
      <trkpt lat="45.98274" lon="4.81604">
        <ele>247</ele>
        <time>2018-04-14T10:13:16Z</time>
      </trkpt>
      <trkpt lat="45.9827" lon="4.81597">
        <ele>247</ele>
        <time>2018-04-14T10:13:17Z</time>
      </trkpt>
      <trkpt lat="45.98268" lon="4.81591">
        <ele>247</ele>
        <time>2018-04-14T10:13:18Z</time>
      </trkpt>
      <trkpt lat="45.98265" lon="4.81582">
        <ele>247</ele>
        <time>2018-04-14T10:13:20Z</time>
      </trkpt>
      <trkpt lat="45.98263" lon="4.81576">
        <ele>247</ele>
        <time>2018-04-14T10:13:21Z</time>
      </trkpt>
      <trkpt lat="45.9826" lon="4.81566">
        <ele>247</ele>
        <time>2018-04-14T10:13:23Z</time>
      </trkpt>
      <trkpt lat="45.98258" lon="4.8156">
        <ele>247</ele>
        <time>2018-04-14T10:13:24Z</time>
      </trkpt>
      <trkpt lat="45.98254" lon="4.81549">
        <ele>247</ele>
        <time>2018-04-14T10:13:26Z</time>
      </trkpt>
      <trkpt lat="45.98252" lon="4.81543">
        <ele>247</ele>
        <time>2018-04-14T10:13:27Z</time>
      </trkpt>
      <trkpt lat="45.98248" lon="4.81532">
        <ele>249</ele>
        <time>2018-04-14T10:13:29Z</time>
      </trkpt>
      <trkpt lat="45.98246" lon="4.81526">
        <ele>249</ele>
        <time>2018-04-14T10:13:30Z</time>
      </trkpt>
      <trkpt lat="45.98242" lon="4.81515">
        <ele>249</ele>
        <time>2018-04-14T10:13:32Z</time>
      </trkpt>
      <trkpt lat="45.98241" lon="4.8151">
        <ele>249</ele>
        <time>2018-04-14T10:13:33Z</time>
      </trkpt>
      <trkpt lat="45.98237" lon="4.815">
        <ele>249</ele>
        <time>2018-04-14T10:13:35Z</time>
      </trkpt>
      <trkpt lat="45.98236" lon="4.81494">
        <ele>249</ele>
        <time>2018-04-14T10:13:36Z</time>
      </trkpt>
      <trkpt lat="45.98233" lon="4.81483">
        <ele>249</ele>
        <time>2018-04-14T10:13:38Z</time>
      </trkpt>
      <trkpt lat="45.98232" lon="4.81477">
        <ele>249</ele>
        <time>2018-04-14T10:13:39Z</time>
      </trkpt>
      <trkpt lat="45.98228" lon="4.81467">
        <ele>249</ele>
        <time>2018-04-14T10:13:41Z</time>
      </trkpt>
      <trkpt lat="45.98226" lon="4.81461">
        <ele>249</ele>
        <time>2018-04-14T10:13:42Z</time>
      </trkpt>
      <trkpt lat="45.98222" lon="4.8145">
        <ele>249</ele>
        <time>2018-04-14T10:13:44Z</time>
      </trkpt>
      <trkpt lat="45.9822" lon="4.81445">
        <ele>249</ele>
        <time>2018-04-14T10:13:45Z</time>
      </trkpt>
      <trkpt lat="45.98217" lon="4.81434">
        <ele>249</ele>
        <time>2018-04-14T10:13:47Z</time>
      </trkpt>
      <trkpt lat="45.98215" lon="4.81428">
        <ele>249</ele>
        <time>2018-04-14T10:13:48Z</time>
      </trkpt>
      <trkpt lat="45.98211" lon="4.81417">
        <ele>249</ele>
        <time>2018-04-14T10:13:50Z</time>
      </trkpt>
      <trkpt lat="45.9821" lon="4.81411">
        <ele>248</ele>
        <time>2018-04-14T10:13:51Z</time>
      </trkpt>
      <trkpt lat="45.98207" lon="4.81401">
        <ele>248</ele>
        <time>2018-04-14T10:13:53Z</time>
      </trkpt>
      <trkpt lat="45.98206" lon="4.81396">
        <ele>248</ele>
        <time>2018-04-14T10:13:54Z</time>
      </trkpt>
      <trkpt lat="45.98202" lon="4.81385">
        <ele>248</ele>
        <time>2018-04-14T10:13:56Z</time>
      </trkpt>
      <trkpt lat="45.98204" lon="4.81378">
        <ele>248</ele>
        <time>2018-04-14T10:13:57Z</time>
      </trkpt>
      <trkpt lat="45.98202" lon="4.81371">
        <ele>248</ele>
        <time>2018-04-14T10:13:58Z</time>
      </trkpt>
      <trkpt lat="45.982" lon="4.81365">
        <ele>248</ele>
        <time>2018-04-14T10:13:59Z</time>
      </trkpt>
      <trkpt lat="45.98199" lon="4.81357">
        <ele>248</ele>
        <time>2018-04-14T10:14:00Z</time>
      </trkpt>
      <trkpt lat="45.98197" lon="4.8135">
        <ele>248</ele>
        <time>2018-04-14T10:14:01Z</time>
      </trkpt>
      <trkpt lat="45.98194" lon="4.81344">
        <ele>248</ele>
        <time>2018-04-14T10:14:02Z</time>
      </trkpt>
      <trkpt lat="45.98192" lon="4.81337">
        <ele>248</ele>
        <time>2018-04-14T10:14:03Z</time>
      </trkpt>
      <trkpt lat="45.98192" lon="4.81332">
        <ele>247</ele>
        <time>2018-04-14T10:14:04Z</time>
      </trkpt>
      <trkpt lat="45.98191" lon="4.81323">
        <ele>247</ele>
        <time>2018-04-14T10:14:05Z</time>
      </trkpt>
      <trkpt lat="45.98189" lon="4.81316">
        <ele>247</ele>
        <time>2018-04-14T10:14:06Z</time>
      </trkpt>
      <trkpt lat="45.98186" lon="4.81305">
        <ele>247</ele>
        <time>2018-04-14T10:14:07Z</time>
      </trkpt>
      <trkpt lat="45.98184" lon="4.81297">
        <ele>247</ele>
        <time>2018-04-14T10:14:08Z</time>
      </trkpt>
      <trkpt lat="45.98182" lon="4.81289">
        <ele>247</ele>
        <time>2018-04-14T10:14:09Z</time>
      </trkpt>
      <trkpt lat="45.98181" lon="4.81281">
        <ele>247</ele>
        <time>2018-04-14T10:14:10Z</time>
      </trkpt>
      <trkpt lat="45.98177" lon="4.81274">
        <ele>247</ele>
        <time>2018-04-14T10:14:11Z</time>
      </trkpt>
      <trkpt lat="45.98175" lon="4.81267">
        <ele>247</ele>
        <time>2018-04-14T10:14:12Z</time>
      </trkpt>
      <trkpt lat="45.98174" lon="4.8126">
        <ele>247</ele>
        <time>2018-04-14T10:14:13Z</time>
      </trkpt>
      <trkpt lat="45.98173" lon="4.81254">
        <ele>248</ele>
        <time>2018-04-14T10:14:14Z</time>
      </trkpt>
      <trkpt lat="45.98171" lon="4.81246">
        <ele>247</ele>
        <time>2018-04-14T10:14:15Z</time>
      </trkpt>
      <trkpt lat="45.98172" lon="4.81237">
        <ele>247</ele>
        <time>2018-04-14T10:14:16Z</time>
      </trkpt>
      <trkpt lat="45.98171" lon="4.81229">
        <ele>246</ele>
        <time>2018-04-14T10:14:17Z</time>
      </trkpt>
      <trkpt lat="45.9817" lon="4.81221">
        <ele>246</ele>
        <time>2018-04-14T10:14:18Z</time>
      </trkpt>
      <trkpt lat="45.98171" lon="4.81213">
        <ele>246</ele>
        <time>2018-04-14T10:14:19Z</time>
      </trkpt>
      <trkpt lat="45.9817" lon="4.81205">
        <ele>245</ele>
        <time>2018-04-14T10:14:20Z</time>
      </trkpt>
      <trkpt lat="45.9817" lon="4.81198">
        <ele>245</ele>
        <time>2018-04-14T10:14:21Z</time>
      </trkpt>
      <trkpt lat="45.98169" lon="4.8119">
        <ele>245</ele>
        <time>2018-04-14T10:14:22Z</time>
      </trkpt>
      <trkpt lat="45.98169" lon="4.81183">
        <ele>245</ele>
        <time>2018-04-14T10:14:23Z</time>
      </trkpt>
      <trkpt lat="45.98167" lon="4.81176">
        <ele>245</ele>
        <time>2018-04-14T10:14:24Z</time>
      </trkpt>
      <trkpt lat="45.98165" lon="4.81168">
        <ele>245</ele>
        <time>2018-04-14T10:14:25Z</time>
      </trkpt>
      <trkpt lat="45.98162" lon="4.8116">
        <ele>245</ele>
        <time>2018-04-14T10:14:26Z</time>
      </trkpt>
      <trkpt lat="45.98159" lon="4.81152">
        <ele>245</ele>
        <time>2018-04-14T10:14:27Z</time>
      </trkpt>
      <trkpt lat="45.98156" lon="4.81145">
        <ele>245</ele>
        <time>2018-04-14T10:14:28Z</time>
      </trkpt>
      <trkpt lat="45.98152" lon="4.81137">
        <ele>245</ele>
        <time>2018-04-14T10:14:29Z</time>
      </trkpt>
      <trkpt lat="45.98149" lon="4.81129">
        <ele>245</ele>
        <time>2018-04-14T10:14:30Z</time>
      </trkpt>
      <trkpt lat="45.98147" lon="4.81122">
        <ele>245</ele>
        <time>2018-04-14T10:14:31Z</time>
      </trkpt>
      <trkpt lat="45.98145" lon="4.81114">
        <ele>245</ele>
        <time>2018-04-14T10:14:32Z</time>
      </trkpt>
      <trkpt lat="45.98141" lon="4.81107">
        <ele>245</ele>
        <time>2018-04-14T10:14:33Z</time>
      </trkpt>
      <trkpt lat="45.98139" lon="4.81099">
        <ele>245</ele>
        <time>2018-04-14T10:14:34Z</time>
      </trkpt>
      <trkpt lat="45.98137" lon="4.81092">
        <ele>245</ele>
        <time>2018-04-14T10:14:35Z</time>
      </trkpt>
      <trkpt lat="45.98134" lon="4.81086">
        <ele>245</ele>
        <time>2018-04-14T10:14:36Z</time>
      </trkpt>
      <trkpt lat="45.98132" lon="4.81078">
        <ele>243</ele>
        <time>2018-04-14T10:14:37Z</time>
      </trkpt>
      <trkpt lat="45.98129" lon="4.81071">
        <ele>243</ele>
        <time>2018-04-14T10:14:38Z</time>
      </trkpt>
      <trkpt lat="45.98125" lon="4.81061">
        <ele>243</ele>
        <time>2018-04-14T10:14:39Z</time>
      </trkpt>
      <trkpt lat="45.98121" lon="4.81055">
        <ele>243</ele>
        <time>2018-04-14T10:14:40Z</time>
      </trkpt>
      <trkpt lat="45.98118" lon="4.81047">
        <ele>242</ele>
        <time>2018-04-14T10:14:41Z</time>
      </trkpt>
      <trkpt lat="45.98116" lon="4.81038">
        <ele>242</ele>
        <time>2018-04-14T10:14:42Z</time>
      </trkpt>
      <trkpt lat="45.98115" lon="4.81033">
        <ele>242</ele>
        <time>2018-04-14T10:14:43Z</time>
      </trkpt>
      <trkpt lat="45.98112" lon="4.81025">
        <ele>242</ele>
        <time>2018-04-14T10:14:44Z</time>
      </trkpt>
      <trkpt lat="45.9811" lon="4.81018">
        <ele>242</ele>
        <time>2018-04-14T10:14:45Z</time>
      </trkpt>
      <trkpt lat="45.98107" lon="4.81011">
        <ele>242</ele>
        <time>2018-04-14T10:14:46Z</time>
      </trkpt>
      <trkpt lat="45.98105" lon="4.81006">
        <ele>242</ele>
        <time>2018-04-14T10:14:47Z</time>
      </trkpt>
      <trkpt lat="45.98103" lon="4.81">
        <ele>240</ele>
        <time>2018-04-14T10:14:48Z</time>
      </trkpt>
      <trkpt lat="45.981" lon="4.80991">
        <ele>240</ele>
        <time>2018-04-14T10:14:49Z</time>
      </trkpt>
      <trkpt lat="45.98098" lon="4.80978">
        <ele>239</ele>
        <time>2018-04-14T10:14:51Z</time>
      </trkpt>
      <trkpt lat="45.98096" lon="4.80973">
        <ele>239</ele>
        <time>2018-04-14T10:14:52Z</time>
      </trkpt>
      <trkpt lat="45.98095" lon="4.80967">
        <ele>239</ele>
        <time>2018-04-14T10:14:53Z</time>
      </trkpt>
      <trkpt lat="45.98093" lon="4.80959">
        <ele>239</ele>
        <time>2018-04-14T10:14:54Z</time>
      </trkpt>
      <trkpt lat="45.9809" lon="4.80953">
        <ele>238</ele>
        <time>2018-04-14T10:14:55Z</time>
      </trkpt>
      <trkpt lat="45.98087" lon="4.80945">
        <ele>238</ele>
        <time>2018-04-14T10:14:56Z</time>
      </trkpt>
      <trkpt lat="45.98085" lon="4.8093">
        <ele>238</ele>
        <time>2018-04-14T10:14:57Z</time>
      </trkpt>
      <trkpt lat="45.98082" lon="4.80919">
        <ele>239</ele>
        <time>2018-04-14T10:14:58Z</time>
      </trkpt>
      <trkpt lat="45.98081" lon="4.80908">
        <ele>238</ele>
        <time>2018-04-14T10:14:59Z</time>
      </trkpt>
      <trkpt lat="45.98079" lon="4.80899">
        <ele>238</ele>
        <time>2018-04-14T10:15:00Z</time>
      </trkpt>
      <trkpt lat="45.98076" lon="4.8089">
        <ele>238</ele>
        <time>2018-04-14T10:15:01Z</time>
      </trkpt>
      <trkpt lat="45.98071" lon="4.80876">
        <ele>237</ele>
        <time>2018-04-14T10:15:02Z</time>
      </trkpt>
      <trkpt lat="45.98063" lon="4.80868">
        <ele>237</ele>
        <time>2018-04-14T10:15:03Z</time>
      </trkpt>
      <trkpt lat="45.9806" lon="4.80856">
        <ele>236</ele>
        <time>2018-04-14T10:15:04Z</time>
      </trkpt>
      <trkpt lat="45.98056" lon="4.80846">
        <ele>236</ele>
        <time>2018-04-14T10:15:05Z</time>
      </trkpt>
      <trkpt lat="45.98053" lon="4.80835">
        <ele>236</ele>
        <time>2018-04-14T10:15:06Z</time>
      </trkpt>
      <trkpt lat="45.98051" lon="4.80825">
        <ele>234</ele>
        <time>2018-04-14T10:15:07Z</time>
      </trkpt>
      <trkpt lat="45.98049" lon="4.80815">
        <ele>234</ele>
        <time>2018-04-14T10:15:08Z</time>
      </trkpt>
      <trkpt lat="45.98047" lon="4.80804">
        <ele>234</ele>
        <time>2018-04-14T10:15:09Z</time>
      </trkpt>
      <trkpt lat="45.98045" lon="4.80796">
        <ele>234</ele>
        <time>2018-04-14T10:15:10Z</time>
      </trkpt>
      <trkpt lat="45.98042" lon="4.80786">
        <ele>233</ele>
        <time>2018-04-14T10:15:11Z</time>
      </trkpt>
      <trkpt lat="45.9804" lon="4.80777">
        <ele>233</ele>
        <time>2018-04-14T10:15:12Z</time>
      </trkpt>
      <trkpt lat="45.98037" lon="4.80768">
        <ele>233</ele>
        <time>2018-04-14T10:15:13Z</time>
      </trkpt>
      <trkpt lat="45.98035" lon="4.80759">
        <ele>233</ele>
        <time>2018-04-14T10:15:14Z</time>
      </trkpt>
      <trkpt lat="45.98033" lon="4.80752">
        <ele>233</ele>
        <time>2018-04-14T10:15:15Z</time>
      </trkpt>
      <trkpt lat="45.98031" lon="4.80745">
        <ele>231</ele>
        <time>2018-04-14T10:15:16Z</time>
      </trkpt>
      <trkpt lat="45.98031" lon="4.80738">
        <ele>231</ele>
        <time>2018-04-14T10:15:17Z</time>
      </trkpt>
      <trkpt lat="45.98029" lon="4.80727">
        <ele>231</ele>
        <time>2018-04-14T10:15:19Z</time>
      </trkpt>
      <trkpt lat="45.98029" lon="4.80721">
        <ele>231</ele>
        <time>2018-04-14T10:15:20Z</time>
      </trkpt>
      <trkpt lat="45.98029" lon="4.80719">
        <ele>231</ele>
        <time>2018-04-14T10:15:21Z</time>
      </trkpt>
      <trkpt lat="45.98035" lon="4.80711">
        <ele>231</ele>
        <time>2018-04-14T10:15:22Z</time>
      </trkpt>
      <trkpt lat="45.98039" lon="4.80705">
        <ele>230</ele>
        <time>2018-04-14T10:15:23Z</time>
      </trkpt>
      <trkpt lat="45.98043" lon="4.80702">
        <ele>230</ele>
        <time>2018-04-14T10:15:24Z</time>
      </trkpt>
      <trkpt lat="45.98051" lon="4.80699">
        <ele>230</ele>
        <time>2018-04-14T10:15:25Z</time>
      </trkpt>
      <trkpt lat="45.98056" lon="4.80699">
        <ele>230</ele>
        <time>2018-04-14T10:15:26Z</time>
      </trkpt>
      <trkpt lat="45.98065" lon="4.80696">
        <ele>230</ele>
        <time>2018-04-14T10:15:28Z</time>
      </trkpt>
      <trkpt lat="45.98071" lon="4.80696">
        <ele>230</ele>
        <time>2018-04-14T10:15:29Z</time>
      </trkpt>
      <trkpt lat="45.98077" lon="4.80695">
        <ele>230</ele>
        <time>2018-04-14T10:15:30Z</time>
      </trkpt>
      <trkpt lat="45.9808" lon="4.80694">
        <ele>230</ele>
        <time>2018-04-14T10:15:31Z</time>
      </trkpt>
      <trkpt lat="45.98086" lon="4.80693">
        <ele>228</ele>
        <time>2018-04-14T10:15:32Z</time>
      </trkpt>
      <trkpt lat="45.98093" lon="4.80693">
        <ele>228</ele>
        <time>2018-04-14T10:15:33Z</time>
      </trkpt>
      <trkpt lat="45.981" lon="4.80692">
        <ele>228</ele>
        <time>2018-04-14T10:15:34Z</time>
      </trkpt>
      <trkpt lat="45.98108" lon="4.80691">
        <ele>228</ele>
        <time>2018-04-14T10:15:35Z</time>
      </trkpt>
      <trkpt lat="45.98115" lon="4.80691">
        <ele>228</ele>
        <time>2018-04-14T10:15:36Z</time>
      </trkpt>
      <trkpt lat="45.98122" lon="4.80691">
        <ele>228</ele>
        <time>2018-04-14T10:15:37Z</time>
      </trkpt>
      <trkpt lat="45.98129" lon="4.80691">
        <ele>228</ele>
        <time>2018-04-14T10:15:38Z</time>
      </trkpt>
      <trkpt lat="45.98136" lon="4.80691">
        <ele>228</ele>
        <time>2018-04-14T10:15:39Z</time>
      </trkpt>
      <trkpt lat="45.98143" lon="4.80691">
        <ele>228</ele>
        <time>2018-04-14T10:15:40Z</time>
      </trkpt>
      <trkpt lat="45.98151" lon="4.8069">
        <ele>227</ele>
        <time>2018-04-14T10:15:41Z</time>
      </trkpt>
      <trkpt lat="45.98159" lon="4.80688">
        <ele>227</ele>
        <time>2018-04-14T10:15:42Z</time>
      </trkpt>
      <trkpt lat="45.98167" lon="4.80688">
        <ele>225</ele>
        <time>2018-04-14T10:15:43Z</time>
      </trkpt>
      <trkpt lat="45.98174" lon="4.80687">
        <ele>225</ele>
        <time>2018-04-14T10:15:44Z</time>
      </trkpt>
      <trkpt lat="45.98182" lon="4.80686">
        <ele>225</ele>
        <time>2018-04-14T10:15:45Z</time>
      </trkpt>
      <trkpt lat="45.98189" lon="4.80685">
        <ele>225</ele>
        <time>2018-04-14T10:15:46Z</time>
      </trkpt>
      <trkpt lat="45.98196" lon="4.80683">
        <ele>225</ele>
        <time>2018-04-14T10:15:47Z</time>
      </trkpt>
      <trkpt lat="45.98202" lon="4.8068">
        <ele>225</ele>
        <time>2018-04-14T10:15:48Z</time>
      </trkpt>
      <trkpt lat="45.98209" lon="4.80677">
        <ele>224</ele>
        <time>2018-04-14T10:15:49Z</time>
      </trkpt>
      <trkpt lat="45.98215" lon="4.80671">
        <ele>224</ele>
        <time>2018-04-14T10:15:50Z</time>
      </trkpt>
      <trkpt lat="45.9822" lon="4.80665">
        <ele>224</ele>
        <time>2018-04-14T10:15:51Z</time>
      </trkpt>
      <trkpt lat="45.98224" lon="4.80655">
        <ele>224</ele>
        <time>2018-04-14T10:15:52Z</time>
      </trkpt>
      <trkpt lat="45.98228" lon="4.80647">
        <ele>224</ele>
        <time>2018-04-14T10:15:53Z</time>
      </trkpt>
      <trkpt lat="45.98231" lon="4.80637">
        <ele>224</ele>
        <time>2018-04-14T10:15:54Z</time>
      </trkpt>
      <trkpt lat="45.98235" lon="4.80627">
        <ele>224</ele>
        <time>2018-04-14T10:15:55Z</time>
      </trkpt>
      <trkpt lat="45.98239" lon="4.80617">
        <ele>224</ele>
        <time>2018-04-14T10:15:56Z</time>
      </trkpt>
      <trkpt lat="45.98242" lon="4.80607">
        <ele>224</ele>
        <time>2018-04-14T10:15:57Z</time>
      </trkpt>
      <trkpt lat="45.98246" lon="4.80599">
        <ele>224</ele>
        <time>2018-04-14T10:15:58Z</time>
      </trkpt>
      <trkpt lat="45.98249" lon="4.8059">
        <ele>224</ele>
        <time>2018-04-14T10:15:59Z</time>
      </trkpt>
      <trkpt lat="45.98251" lon="4.80582">
        <ele>224</ele>
        <time>2018-04-14T10:16:00Z</time>
      </trkpt>
      <trkpt lat="45.98253" lon="4.80572">
        <ele>224</ele>
        <time>2018-04-14T10:16:01Z</time>
      </trkpt>
      <trkpt lat="45.98256" lon="4.80564">
        <ele>224</ele>
        <time>2018-04-14T10:16:02Z</time>
      </trkpt>
      <trkpt lat="45.98258" lon="4.80555">
        <ele>224</ele>
        <time>2018-04-14T10:16:03Z</time>
      </trkpt>
      <trkpt lat="45.9826" lon="4.80548">
        <ele>224</ele>
        <time>2018-04-14T10:16:04Z</time>
      </trkpt>
      <trkpt lat="45.98262" lon="4.8054">
        <ele>224</ele>
        <time>2018-04-14T10:16:05Z</time>
      </trkpt>
      <trkpt lat="45.98264" lon="4.80533">
        <ele>224</ele>
        <time>2018-04-14T10:16:06Z</time>
      </trkpt>
      <trkpt lat="45.98266" lon="4.80525">
        <ele>224</ele>
        <time>2018-04-14T10:16:07Z</time>
      </trkpt>
      <trkpt lat="45.9827" lon="4.80519">
        <ele>224</ele>
        <time>2018-04-14T10:16:08Z</time>
      </trkpt>
      <trkpt lat="45.98273" lon="4.80513">
        <ele>224</ele>
        <time>2018-04-14T10:16:09Z</time>
      </trkpt>
      <trkpt lat="45.98274" lon="4.80505">
        <ele>223</ele>
        <time>2018-04-14T10:16:10Z</time>
      </trkpt>
      <trkpt lat="45.98277" lon="4.80498">
        <ele>223</ele>
        <time>2018-04-14T10:16:11Z</time>
      </trkpt>
      <trkpt lat="45.98278" lon="4.8049">
        <ele>223</ele>
        <time>2018-04-14T10:16:12Z</time>
      </trkpt>
      <trkpt lat="45.9828" lon="4.80484">
        <ele>223</ele>
        <time>2018-04-14T10:16:13Z</time>
      </trkpt>
      <trkpt lat="45.9828" lon="4.80481">
        <ele>223</ele>
        <time>2018-04-14T10:16:14Z</time>
      </trkpt>
      <trkpt lat="45.98284" lon="4.80467">
        <ele>224</ele>
        <time>2018-04-14T10:16:15Z</time>
      </trkpt>
      <trkpt lat="45.98286" lon="4.80462">
        <ele>224</ele>
        <time>2018-04-14T10:16:16Z</time>
      </trkpt>
      <trkpt lat="45.98287" lon="4.80454">
        <ele>224</ele>
        <time>2018-04-14T10:16:17Z</time>
      </trkpt>
      <trkpt lat="45.98289" lon="4.80447">
        <ele>224</ele>
        <time>2018-04-14T10:16:18Z</time>
      </trkpt>
      <trkpt lat="45.98293" lon="4.80441">
        <ele>224</ele>
        <time>2018-04-14T10:16:19Z</time>
      </trkpt>
      <trkpt lat="45.98294" lon="4.80433">
        <ele>224</ele>
        <time>2018-04-14T10:16:20Z</time>
      </trkpt>
      <trkpt lat="45.98296" lon="4.80426">
        <ele>224</ele>
        <time>2018-04-14T10:16:21Z</time>
      </trkpt>
      <trkpt lat="45.98297" lon="4.8042">
        <ele>224</ele>
        <time>2018-04-14T10:16:22Z</time>
      </trkpt>
      <trkpt lat="45.98298" lon="4.80413">
        <ele>225</ele>
        <time>2018-04-14T10:16:23Z</time>
      </trkpt>
      <trkpt lat="45.98298" lon="4.80406">
        <ele>225</ele>
        <time>2018-04-14T10:16:24Z</time>
      </trkpt>
      <trkpt lat="45.983" lon="4.80399">
        <ele>225</ele>
        <time>2018-04-14T10:16:25Z</time>
      </trkpt>
      <trkpt lat="45.98301" lon="4.80392">
        <ele>225</ele>
        <time>2018-04-14T10:16:26Z</time>
      </trkpt>
      <trkpt lat="45.98302" lon="4.80385">
        <ele>225</ele>
        <time>2018-04-14T10:16:27Z</time>
      </trkpt>
      <trkpt lat="45.98304" lon="4.80378">
        <ele>225</ele>
        <time>2018-04-14T10:16:28Z</time>
      </trkpt>
      <trkpt lat="45.98305" lon="4.80372">
        <ele>225</ele>
        <time>2018-04-14T10:16:29Z</time>
      </trkpt>
      <trkpt lat="45.98305" lon="4.80367">
        <ele>225</ele>
        <time>2018-04-14T10:16:30Z</time>
      </trkpt>
      <trkpt lat="45.98308" lon="4.8036">
        <ele>225</ele>
        <time>2018-04-14T10:16:31Z</time>
      </trkpt>
      <trkpt lat="45.9831" lon="4.80349">
        <ele>226</ele>
        <time>2018-04-14T10:16:33Z</time>
      </trkpt>
      <trkpt lat="45.9831" lon="4.80342">
        <ele>226</ele>
        <time>2018-04-14T10:16:34Z</time>
      </trkpt>
      <trkpt lat="45.98314" lon="4.80332">
        <ele>227</ele>
        <time>2018-04-14T10:16:36Z</time>
      </trkpt>
      <trkpt lat="45.98315" lon="4.80325">
        <ele>227</ele>
        <time>2018-04-14T10:16:37Z</time>
      </trkpt>
      <trkpt lat="45.98319" lon="4.80314">
        <ele>227</ele>
        <time>2018-04-14T10:16:39Z</time>
      </trkpt>
      <trkpt lat="45.98321" lon="4.80309">
        <ele>227</ele>
        <time>2018-04-14T10:16:40Z</time>
      </trkpt>
      <trkpt lat="45.98323" lon="4.80305">
        <ele>227</ele>
        <time>2018-04-14T10:16:42Z</time>
      </trkpt>
      <trkpt lat="45.98327" lon="4.80296">
        <ele>227</ele>
        <time>2018-04-14T10:16:43Z</time>
      </trkpt>
      <trkpt lat="45.98327" lon="4.80285">
        <ele>227</ele>
        <time>2018-04-14T10:16:45Z</time>
      </trkpt>
      <trkpt lat="45.98328" lon="4.80279">
        <ele>227</ele>
        <time>2018-04-14T10:16:46Z</time>
      </trkpt>
      <trkpt lat="45.9833" lon="4.8027">
        <ele>228</ele>
        <time>2018-04-14T10:16:48Z</time>
      </trkpt>
      <trkpt lat="45.98331" lon="4.80263">
        <ele>228</ele>
        <time>2018-04-14T10:16:49Z</time>
      </trkpt>
      <trkpt lat="45.98334" lon="4.80252">
        <ele>230</ele>
        <time>2018-04-14T10:16:51Z</time>
      </trkpt>
      <trkpt lat="45.98335" lon="4.80249">
        <ele>230</ele>
        <time>2018-04-14T10:16:52Z</time>
      </trkpt>
      <trkpt lat="45.98337" lon="4.80244">
        <ele>230</ele>
        <time>2018-04-14T10:16:54Z</time>
      </trkpt>
      <trkpt lat="45.9834" lon="4.80234">
        <ele>230</ele>
        <time>2018-04-14T10:16:55Z</time>
      </trkpt>
      <trkpt lat="45.98341" lon="4.80224">
        <ele>230</ele>
        <time>2018-04-14T10:16:57Z</time>
      </trkpt>
      <trkpt lat="45.9834" lon="4.80217">
        <ele>230</ele>
        <time>2018-04-14T10:16:58Z</time>
      </trkpt>
      <trkpt lat="45.98336" lon="4.80208">
        <ele>230</ele>
        <time>2018-04-14T10:17:01Z</time>
      </trkpt>
      <trkpt lat="45.98331" lon="4.80198">
        <ele>227</ele>
        <time>2018-04-14T10:17:02Z</time>
      </trkpt>
      <trkpt lat="45.98329" lon="4.80192">
        <ele>227</ele>
        <time>2018-04-14T10:17:03Z</time>
      </trkpt>
      <trkpt lat="45.98325" lon="4.80182">
        <ele>227</ele>
        <time>2018-04-14T10:17:04Z</time>
      </trkpt>
      <trkpt lat="45.98321" lon="4.8017">
        <ele>227</ele>
        <time>2018-04-14T10:17:06Z</time>
      </trkpt>
      <trkpt lat="45.98318" lon="4.80163">
        <ele>228</ele>
        <time>2018-04-14T10:17:07Z</time>
      </trkpt>
      <trkpt lat="45.98316" lon="4.80157">
        <ele>228</ele>
        <time>2018-04-14T10:17:08Z</time>
      </trkpt>
      <trkpt lat="45.98313" lon="4.80151">
        <ele>228</ele>
        <time>2018-04-14T10:17:09Z</time>
      </trkpt>
      <trkpt lat="45.98309" lon="4.80145">
        <ele>228</ele>
        <time>2018-04-14T10:17:10Z</time>
      </trkpt>
      <trkpt lat="45.98308" lon="4.80138">
        <ele>228</ele>
        <time>2018-04-14T10:17:11Z</time>
      </trkpt>
      <trkpt lat="45.98304" lon="4.80127">
        <ele>228</ele>
        <time>2018-04-14T10:17:13Z</time>
      </trkpt>
      <trkpt lat="45.98302" lon="4.80118">
        <ele>228</ele>
        <time>2018-04-14T10:17:14Z</time>
      </trkpt>
      <trkpt lat="45.98301" lon="4.80112">
        <ele>228</ele>
        <time>2018-04-14T10:17:15Z</time>
      </trkpt>
      <trkpt lat="45.98299" lon="4.80106">
        <ele>228</ele>
        <time>2018-04-14T10:17:16Z</time>
      </trkpt>
      <trkpt lat="45.98297" lon="4.801">
        <ele>228</ele>
        <time>2018-04-14T10:17:17Z</time>
      </trkpt>
      <trkpt lat="45.98294" lon="4.80093">
        <ele>228</ele>
        <time>2018-04-14T10:17:18Z</time>
      </trkpt>
      <trkpt lat="45.98292" lon="4.80087">
        <ele>228</ele>
        <time>2018-04-14T10:17:19Z</time>
      </trkpt>
      <trkpt lat="45.9829" lon="4.80082">
        <ele>229</ele>
        <time>2018-04-14T10:17:20Z</time>
      </trkpt>
      <trkpt lat="45.98288" lon="4.80076">
        <ele>229</ele>
        <time>2018-04-14T10:17:21Z</time>
      </trkpt>
      <trkpt lat="45.98286" lon="4.80069">
        <ele>229</ele>
        <time>2018-04-14T10:17:22Z</time>
      </trkpt>
      <trkpt lat="45.98283" lon="4.80063">
        <ele>229</ele>
        <time>2018-04-14T10:17:23Z</time>
      </trkpt>
      <trkpt lat="45.98281" lon="4.80056">
        <ele>229</ele>
        <time>2018-04-14T10:17:24Z</time>
      </trkpt>
      <trkpt lat="45.98278" lon="4.8005">
        <ele>229</ele>
        <time>2018-04-14T10:17:25Z</time>
      </trkpt>
      <trkpt lat="45.98275" lon="4.80043">
        <ele>229</ele>
        <time>2018-04-14T10:17:26Z</time>
      </trkpt>
      <trkpt lat="45.9827" lon="4.80033">
        <ele>229</ele>
        <time>2018-04-14T10:17:27Z</time>
      </trkpt>
      <trkpt lat="45.98266" lon="4.80026">
        <ele>228</ele>
        <time>2018-04-14T10:17:28Z</time>
      </trkpt>
      <trkpt lat="45.98263" lon="4.8002">
        <ele>228</ele>
        <time>2018-04-14T10:17:29Z</time>
      </trkpt>
      <trkpt lat="45.98259" lon="4.80013">
        <ele>228</ele>
        <time>2018-04-14T10:17:30Z</time>
      </trkpt>
      <trkpt lat="45.98257" lon="4.80007">
        <ele>227</ele>
        <time>2018-04-14T10:17:31Z</time>
      </trkpt>
      <trkpt lat="45.98255" lon="4.8">
        <ele>227</ele>
        <time>2018-04-14T10:17:32Z</time>
      </trkpt>
      <trkpt lat="45.98253" lon="4.79993">
        <ele>227</ele>
        <time>2018-04-14T10:17:33Z</time>
      </trkpt>
      <trkpt lat="45.98251" lon="4.79986">
        <ele>228</ele>
        <time>2018-04-14T10:17:34Z</time>
      </trkpt>
      <trkpt lat="45.98249" lon="4.79979">
        <ele>225</ele>
        <time>2018-04-14T10:17:35Z</time>
      </trkpt>
      <trkpt lat="45.98247" lon="4.79973">
        <ele>225</ele>
        <time>2018-04-14T10:17:36Z</time>
      </trkpt>
      <trkpt lat="45.98243" lon="4.79968">
        <ele>225</ele>
        <time>2018-04-14T10:17:37Z</time>
      </trkpt>
      <trkpt lat="45.98241" lon="4.79962">
        <ele>225</ele>
        <time>2018-04-14T10:17:38Z</time>
      </trkpt>
      <trkpt lat="45.9824" lon="4.79956">
        <ele>225</ele>
        <time>2018-04-14T10:17:39Z</time>
      </trkpt>
      <trkpt lat="45.98237" lon="4.79949">
        <ele>225</ele>
        <time>2018-04-14T10:17:40Z</time>
      </trkpt>
      <trkpt lat="45.98234" lon="4.79943">
        <ele>225</ele>
        <time>2018-04-14T10:17:41Z</time>
      </trkpt>
      <trkpt lat="45.98232" lon="4.79937">
        <ele>225</ele>
        <time>2018-04-14T10:17:42Z</time>
      </trkpt>
      <trkpt lat="45.98229" lon="4.79926">
        <ele>225</ele>
        <time>2018-04-14T10:17:44Z</time>
      </trkpt>
      <trkpt lat="45.98225" lon="4.79916">
        <ele>225</ele>
        <time>2018-04-14T10:17:45Z</time>
      </trkpt>
      <trkpt lat="45.98221" lon="4.7991">
        <ele>225</ele>
        <time>2018-04-14T10:17:46Z</time>
      </trkpt>
      <trkpt lat="45.9822" lon="4.79904">
        <ele>225</ele>
        <time>2018-04-14T10:17:47Z</time>
      </trkpt>
      <trkpt lat="45.98216" lon="4.79896">
        <ele>225</ele>
        <time>2018-04-14T10:17:48Z</time>
      </trkpt>
      <trkpt lat="45.98214" lon="4.7989">
        <ele>225</ele>
        <time>2018-04-14T10:17:49Z</time>
      </trkpt>
      <trkpt lat="45.98212" lon="4.79884">
        <ele>225</ele>
        <time>2018-04-14T10:17:50Z</time>
      </trkpt>
      <trkpt lat="45.9821" lon="4.79878">
        <ele>225</ele>
        <time>2018-04-14T10:17:51Z</time>
      </trkpt>
      <trkpt lat="45.98209" lon="4.79869">
        <ele>225</ele>
        <time>2018-04-14T10:17:53Z</time>
      </trkpt>
      <trkpt lat="45.98205" lon="4.79862">
        <ele>225</ele>
        <time>2018-04-14T10:17:54Z</time>
      </trkpt>
      <trkpt lat="45.98203" lon="4.79856">
        <ele>225</ele>
        <time>2018-04-14T10:17:55Z</time>
      </trkpt>
      <trkpt lat="45.982" lon="4.79849">
        <ele>225</ele>
        <time>2018-04-14T10:17:56Z</time>
      </trkpt>
      <trkpt lat="45.98198" lon="4.79838">
        <ele>225</ele>
        <time>2018-04-14T10:17:58Z</time>
      </trkpt>
      <trkpt lat="45.98197" lon="4.79834">
        <ele>225</ele>
        <time>2018-04-14T10:17:59Z</time>
      </trkpt>
      <trkpt lat="45.98194" lon="4.79824">
        <ele>225</ele>
        <time>2018-04-14T10:18:01Z</time>
      </trkpt>
      <trkpt lat="45.98192" lon="4.79819">
        <ele>225</ele>
        <time>2018-04-14T10:18:02Z</time>
      </trkpt>
      <trkpt lat="45.98189" lon="4.79809">
        <ele>225</ele>
        <time>2018-04-14T10:18:04Z</time>
      </trkpt>
      <trkpt lat="45.98187" lon="4.79805">
        <ele>226</ele>
        <time>2018-04-14T10:18:05Z</time>
      </trkpt>
      <trkpt lat="45.98185" lon="4.79793">
        <ele>226</ele>
        <time>2018-04-14T10:18:08Z</time>
      </trkpt>
      <trkpt lat="45.98184" lon="4.79789">
        <ele>226</ele>
        <time>2018-04-14T10:18:09Z</time>
      </trkpt>
      <trkpt lat="45.98185" lon="4.79778">
        <ele>226</ele>
        <time>2018-04-14T10:18:12Z</time>
      </trkpt>
      <trkpt lat="45.98189" lon="4.79768">
        <ele>226</ele>
        <time>2018-04-14T10:18:13Z</time>
      </trkpt>
      <trkpt lat="45.98196" lon="4.79763">
        <ele>226</ele>
        <time>2018-04-14T10:18:15Z</time>
      </trkpt>
      <trkpt lat="45.982" lon="4.79761">
        <ele>226</ele>
        <time>2018-04-14T10:18:16Z</time>
      </trkpt>
      <trkpt lat="45.98207" lon="4.7976">
        <ele>226</ele>
        <time>2018-04-14T10:18:19Z</time>
      </trkpt>
      <trkpt lat="45.9821" lon="4.79759">
        <ele>226</ele>
        <time>2018-04-14T10:18:20Z</time>
      </trkpt>
      <trkpt lat="45.98216" lon="4.79758">
        <ele>226</ele>
        <time>2018-04-14T10:18:22Z</time>
      </trkpt>
      <trkpt lat="45.98219" lon="4.79757">
        <ele>227</ele>
        <time>2018-04-14T10:18:23Z</time>
      </trkpt>
      <trkpt lat="45.98226" lon="4.79755">
        <ele>227</ele>
        <time>2018-04-14T10:18:25Z</time>
      </trkpt>
      <trkpt lat="45.98229" lon="4.79754">
        <ele>227</ele>
        <time>2018-04-14T10:18:26Z</time>
      </trkpt>
      <trkpt lat="45.98236" lon="4.79753">
        <ele>227</ele>
        <time>2018-04-14T10:18:28Z</time>
      </trkpt>
      <trkpt lat="45.98239" lon="4.79752">
        <ele>227</ele>
        <time>2018-04-14T10:18:29Z</time>
      </trkpt>
      <trkpt lat="45.98249" lon="4.7975">
        <ele>228</ele>
        <time>2018-04-14T10:18:30Z</time>
      </trkpt>
      <trkpt lat="45.98256" lon="4.79749">
        <ele>229</ele>
        <time>2018-04-14T10:18:33Z</time>
      </trkpt>
      <trkpt lat="45.98258" lon="4.79749">
        <ele>230</ele>
        <time>2018-04-14T10:18:34Z</time>
      </trkpt>
      <trkpt lat="45.98265" lon="4.79748">
        <ele>231</ele>
        <time>2018-04-14T10:18:36Z</time>
      </trkpt>
      <trkpt lat="45.98268" lon="4.79747">
        <ele>232</ele>
        <time>2018-04-14T10:18:37Z</time>
      </trkpt>
      <trkpt lat="45.98274" lon="4.79745">
        <ele>233</ele>
        <time>2018-04-14T10:18:39Z</time>
      </trkpt>
      <trkpt lat="45.98278" lon="4.79744">
        <ele>233</ele>
        <time>2018-04-14T10:18:40Z</time>
      </trkpt>
      <trkpt lat="45.98289" lon="4.79742">
        <ele>234</ele>
        <time>2018-04-14T10:18:41Z</time>
      </trkpt>
      <trkpt lat="45.98295" lon="4.7974">
        <ele>235</ele>
        <time>2018-04-14T10:18:44Z</time>
      </trkpt>
      <trkpt lat="45.98298" lon="4.7974">
        <ele>235</ele>
        <time>2018-04-14T10:18:45Z</time>
      </trkpt>
      <trkpt lat="45.98304" lon="4.79738">
        <ele>235</ele>
        <time>2018-04-14T10:18:47Z</time>
      </trkpt>
      <trkpt lat="45.98307" lon="4.79738">
        <ele>235</ele>
        <time>2018-04-14T10:18:48Z</time>
      </trkpt>
      <trkpt lat="45.98313" lon="4.79737">
        <ele>236</ele>
        <time>2018-04-14T10:18:50Z</time>
      </trkpt>
      <trkpt lat="45.98317" lon="4.79736">
        <ele>236</ele>
        <time>2018-04-14T10:18:51Z</time>
      </trkpt>
      <trkpt lat="45.98323" lon="4.79735">
        <ele>236</ele>
        <time>2018-04-14T10:18:53Z</time>
      </trkpt>
      <trkpt lat="45.98327" lon="4.79735">
        <ele>236</ele>
        <time>2018-04-14T10:18:54Z</time>
      </trkpt>
      <trkpt lat="45.98337" lon="4.79734">
        <ele>239</ele>
        <time>2018-04-14T10:18:55Z</time>
      </trkpt>
      <trkpt lat="45.98345" lon="4.79733">
        <ele>239</ele>
        <time>2018-04-14T10:18:58Z</time>
      </trkpt>
      <trkpt lat="45.98347" lon="4.79732">
        <ele>239</ele>
        <time>2018-04-14T10:18:59Z</time>
      </trkpt>
      <trkpt lat="45.98355" lon="4.79731">
        <ele>240</ele>
        <time>2018-04-14T10:19:02Z</time>
      </trkpt>
      <trkpt lat="45.98364" lon="4.79728">
        <ele>240</ele>
        <time>2018-04-14T10:19:03Z</time>
      </trkpt>
      <trkpt lat="45.9837" lon="4.79727">
        <ele>240</ele>
        <time>2018-04-14T10:19:06Z</time>
      </trkpt>
      <trkpt lat="45.98373" lon="4.79727">
        <ele>241</ele>
        <time>2018-04-14T10:19:07Z</time>
      </trkpt>
      <trkpt lat="45.98382" lon="4.79725">
        <ele>241</ele>
        <time>2018-04-14T10:19:10Z</time>
      </trkpt>
      <trkpt lat="45.98385" lon="4.79724">
        <ele>241</ele>
        <time>2018-04-14T10:19:11Z</time>
      </trkpt>
      <trkpt lat="45.98388" lon="4.79724">
        <ele>241</ele>
        <time>2018-04-14T10:19:12Z</time>
      </trkpt>
      <trkpt lat="45.98398" lon="4.79722">
        <ele>241</ele>
        <time>2018-04-14T10:19:13Z</time>
      </trkpt>
      <trkpt lat="45.98405" lon="4.79721">
        <ele>241</ele>
        <time>2018-04-14T10:19:16Z</time>
      </trkpt>
      <trkpt lat="45.98407" lon="4.79721">
        <ele>241</ele>
        <time>2018-04-14T10:19:17Z</time>
      </trkpt>
      <trkpt lat="45.98416" lon="4.79721">
        <ele>241</ele>
        <time>2018-04-14T10:19:20Z</time>
      </trkpt>
      <trkpt lat="45.98419" lon="4.79721">
        <ele>242</ele>
        <time>2018-04-14T10:19:21Z</time>
      </trkpt>
      <trkpt lat="45.98422" lon="4.79721">
        <ele>242</ele>
        <time>2018-04-14T10:19:22Z</time>
      </trkpt>
      <trkpt lat="45.98432" lon="4.79721">
        <ele>242</ele>
        <time>2018-04-14T10:19:23Z</time>
      </trkpt>
      <trkpt lat="45.98439" lon="4.79722">
        <ele>242</ele>
        <time>2018-04-14T10:19:25Z</time>
      </trkpt>
      <trkpt lat="45.98441" lon="4.79722">
        <ele>242</ele>
        <time>2018-04-14T10:19:26Z</time>
      </trkpt>
      <trkpt lat="45.98446" lon="4.79722">
        <ele>242</ele>
        <time>2018-04-14T10:19:27Z</time>
      </trkpt>
      <trkpt lat="45.9845" lon="4.79722">
        <ele>243</ele>
        <time>2018-04-14T10:19:28Z</time>
      </trkpt>
      <trkpt lat="45.98457" lon="4.79722">
        <ele>243</ele>
        <time>2018-04-14T10:19:30Z</time>
      </trkpt>
      <trkpt lat="45.98461" lon="4.79722">
        <ele>243</ele>
        <time>2018-04-14T10:19:31Z</time>
      </trkpt>
      <trkpt lat="45.98469" lon="4.79723">
        <ele>243</ele>
        <time>2018-04-14T10:19:33Z</time>
      </trkpt>
      <trkpt lat="45.98472" lon="4.79723">
        <ele>243</ele>
        <time>2018-04-14T10:19:34Z</time>
      </trkpt>
      <trkpt lat="45.98479" lon="4.79723">
        <ele>243</ele>
        <time>2018-04-14T10:19:37Z</time>
      </trkpt>
      <trkpt lat="45.98481" lon="4.79723">
        <ele>243</ele>
        <time>2018-04-14T10:19:38Z</time>
      </trkpt>
      <trkpt lat="45.98489" lon="4.79723">
        <ele>243</ele>
        <time>2018-04-14T10:19:39Z</time>
      </trkpt>
      <trkpt lat="45.98493" lon="4.79723">
        <ele>243</ele>
        <time>2018-04-14T10:19:40Z</time>
      </trkpt>
      <trkpt lat="45.985" lon="4.79724">
        <ele>244</ele>
        <time>2018-04-14T10:19:42Z</time>
      </trkpt>
      <trkpt lat="45.98502" lon="4.79724">
        <ele>244</ele>
        <time>2018-04-14T10:19:43Z</time>
      </trkpt>
      <trkpt lat="45.9851" lon="4.79723">
        <ele>244</ele>
        <time>2018-04-14T10:19:46Z</time>
      </trkpt>
      <trkpt lat="45.98513" lon="4.79723">
        <ele>244</ele>
        <time>2018-04-14T10:19:47Z</time>
      </trkpt>
      <trkpt lat="45.98521" lon="4.79722">
        <ele>244</ele>
        <time>2018-04-14T10:19:50Z</time>
      </trkpt>
      <trkpt lat="45.9853" lon="4.7972">
        <ele>244</ele>
        <time>2018-04-14T10:19:51Z</time>
      </trkpt>
      <trkpt lat="45.98537" lon="4.79716">
        <ele>244</ele>
        <time>2018-04-14T10:19:54Z</time>
      </trkpt>
      <trkpt lat="45.98539" lon="4.79714">
        <ele>244</ele>
        <time>2018-04-14T10:19:55Z</time>
      </trkpt>
      <trkpt lat="45.98545" lon="4.7971">
        <ele>244</ele>
        <time>2018-04-14T10:19:57Z</time>
      </trkpt>
      <trkpt lat="45.98547" lon="4.79708">
        <ele>244</ele>
        <time>2018-04-14T10:19:58Z</time>
      </trkpt>
      <trkpt lat="45.98553" lon="4.79702">
        <ele>244</ele>
        <time>2018-04-14T10:20:00Z</time>
      </trkpt>
      <trkpt lat="45.98555" lon="4.79699">
        <ele>244</ele>
        <time>2018-04-14T10:20:01Z</time>
      </trkpt>
      <trkpt lat="45.98561" lon="4.79693">
        <ele>244</ele>
        <time>2018-04-14T10:20:03Z</time>
      </trkpt>
      <trkpt lat="45.98569" lon="4.79684">
        <ele>244</ele>
        <time>2018-04-14T10:20:04Z</time>
      </trkpt>
      <trkpt lat="45.98575" lon="4.79675">
        <ele>245</ele>
        <time>2018-04-14T10:20:06Z</time>
      </trkpt>
      <trkpt lat="45.98577" lon="4.79671">
        <ele>245</ele>
        <time>2018-04-14T10:20:07Z</time>
      </trkpt>
      <trkpt lat="45.98581" lon="4.79661">
        <ele>245</ele>
        <time>2018-04-14T10:20:09Z</time>
      </trkpt>
      <trkpt lat="45.98583" lon="4.79657">
        <ele>245</ele>
        <time>2018-04-14T10:20:10Z</time>
      </trkpt>
      <trkpt lat="45.98588" lon="4.79648">
        <ele>245</ele>
        <time>2018-04-14T10:20:12Z</time>
      </trkpt>
      <trkpt lat="45.98591" lon="4.79644">
        <ele>245</ele>
        <time>2018-04-14T10:20:13Z</time>
      </trkpt>
      <trkpt lat="45.98596" lon="4.79636">
        <ele>245</ele>
        <time>2018-04-14T10:20:15Z</time>
      </trkpt>
      <trkpt lat="45.98599" lon="4.79632">
        <ele>245</ele>
        <time>2018-04-14T10:20:16Z</time>
      </trkpt>
      <trkpt lat="45.98605" lon="4.79626">
        <ele>245</ele>
        <time>2018-04-14T10:20:18Z</time>
      </trkpt>
      <trkpt lat="45.98609" lon="4.79625">
        <ele>245</ele>
        <time>2018-04-14T10:20:19Z</time>
      </trkpt>
      <trkpt lat="45.98617" lon="4.79622">
        <ele>245</ele>
        <time>2018-04-14T10:20:21Z</time>
      </trkpt>
      <trkpt lat="45.98621" lon="4.7962">
        <ele>245</ele>
        <time>2018-04-14T10:20:22Z</time>
      </trkpt>
      <trkpt lat="45.98626" lon="4.79612">
        <ele>245</ele>
        <time>2018-04-14T10:20:24Z</time>
      </trkpt>
      <trkpt lat="45.98627" lon="4.79606">
        <ele>245</ele>
        <time>2018-04-14T10:20:25Z</time>
      </trkpt>
      <trkpt lat="45.98623" lon="4.79597">
        <ele>245</ele>
        <time>2018-04-14T10:20:27Z</time>
      </trkpt>
      <trkpt lat="45.98621" lon="4.79591">
        <ele>245</ele>
        <time>2018-04-14T10:20:28Z</time>
      </trkpt>
      <trkpt lat="45.98617" lon="4.79587">
        <ele>245</ele>
        <time>2018-04-14T10:20:29Z</time>
      </trkpt>
      <trkpt lat="45.98612" lon="4.79586">
        <ele>245</ele>
        <time>2018-04-14T10:20:30Z</time>
      </trkpt>
      <trkpt lat="45.98607" lon="4.79585">
        <ele>245</ele>
        <time>2018-04-14T10:20:31Z</time>
      </trkpt>
      <trkpt lat="45.98602" lon="4.79587">
        <ele>245</ele>
        <time>2018-04-14T10:20:32Z</time>
      </trkpt>
      <trkpt lat="45.98597" lon="4.79587">
        <ele>245</ele>
        <time>2018-04-14T10:20:33Z</time>
      </trkpt>
      <trkpt lat="45.98592" lon="4.79589">
        <ele>245</ele>
        <time>2018-04-14T10:20:34Z</time>
      </trkpt>
      <trkpt lat="45.98587" lon="4.79589">
        <ele>245</ele>
        <time>2018-04-14T10:20:35Z</time>
      </trkpt>
      <trkpt lat="45.98581" lon="4.79587">
        <ele>245</ele>
        <time>2018-04-14T10:20:36Z</time>
      </trkpt>
      <trkpt lat="45.98577" lon="4.79586">
        <ele>245</ele>
        <time>2018-04-14T10:20:37Z</time>
      </trkpt>
      <trkpt lat="45.98573" lon="4.79583">
        <ele>245</ele>
        <time>2018-04-14T10:20:38Z</time>
      </trkpt>
      <trkpt lat="45.98568" lon="4.79581">
        <ele>245</ele>
        <time>2018-04-14T10:20:39Z</time>
      </trkpt>
      <trkpt lat="45.98562" lon="4.79576">
        <ele>244</ele>
        <time>2018-04-14T10:20:40Z</time>
      </trkpt>
      <trkpt lat="45.98558" lon="4.79572">
        <ele>244</ele>
        <time>2018-04-14T10:20:41Z</time>
      </trkpt>
      <trkpt lat="45.98554" lon="4.79568">
        <ele>244</ele>
        <time>2018-04-14T10:20:42Z</time>
      </trkpt>
      <trkpt lat="45.9855" lon="4.79563">
        <ele>244</ele>
        <time>2018-04-14T10:20:43Z</time>
      </trkpt>
      <trkpt lat="45.98547" lon="4.79559">
        <ele>244</ele>
        <time>2018-04-14T10:20:44Z</time>
      </trkpt>
      <trkpt lat="45.98544" lon="4.79553">
        <ele>244</ele>
        <time>2018-04-14T10:20:45Z</time>
      </trkpt>
      <trkpt lat="45.9854" lon="4.79548">
        <ele>244</ele>
        <time>2018-04-14T10:20:46Z</time>
      </trkpt>
      <trkpt lat="45.98538" lon="4.79542">
        <ele>244</ele>
        <time>2018-04-14T10:20:47Z</time>
      </trkpt>
      <trkpt lat="45.98535" lon="4.79533">
        <ele>244</ele>
        <time>2018-04-14T10:20:48Z</time>
      </trkpt>
      <trkpt lat="45.98532" lon="4.79526">
        <ele>244</ele>
        <time>2018-04-14T10:20:49Z</time>
      </trkpt>
      <trkpt lat="45.9853" lon="4.79521">
        <ele>244</ele>
        <time>2018-04-14T10:20:50Z</time>
      </trkpt>
      <trkpt lat="45.98527" lon="4.79508">
        <ele>244</ele>
        <time>2018-04-14T10:20:52Z</time>
      </trkpt>
      <trkpt lat="45.98526" lon="4.795">
        <ele>244</ele>
        <time>2018-04-14T10:20:53Z</time>
      </trkpt>
      <trkpt lat="45.98526" lon="4.79493">
        <ele>244</ele>
        <time>2018-04-14T10:20:54Z</time>
      </trkpt>
      <trkpt lat="45.98525" lon="4.79486">
        <ele>244</ele>
        <time>2018-04-14T10:20:55Z</time>
      </trkpt>
      <trkpt lat="45.98524" lon="4.79476">
        <ele>244</ele>
        <time>2018-04-14T10:20:56Z</time>
      </trkpt>
      <trkpt lat="45.98523" lon="4.79469">
        <ele>244</ele>
        <time>2018-04-14T10:20:57Z</time>
      </trkpt>
      <trkpt lat="45.98521" lon="4.79461">
        <ele>244</ele>
        <time>2018-04-14T10:20:58Z</time>
      </trkpt>
      <trkpt lat="45.98521" lon="4.79454">
        <ele>244</ele>
        <time>2018-04-14T10:20:59Z</time>
      </trkpt>
      <trkpt lat="45.98522" lon="4.79445">
        <ele>244</ele>
        <time>2018-04-14T10:21:00Z</time>
      </trkpt>
      <trkpt lat="45.98522" lon="4.79437">
        <ele>244</ele>
        <time>2018-04-14T10:21:01Z</time>
      </trkpt>
      <trkpt lat="45.98522" lon="4.79429">
        <ele>244</ele>
        <time>2018-04-14T10:21:02Z</time>
      </trkpt>
      <trkpt lat="45.98521" lon="4.79421">
        <ele>244</ele>
        <time>2018-04-14T10:21:03Z</time>
      </trkpt>
      <trkpt lat="45.98521" lon="4.79415">
        <ele>244</ele>
        <time>2018-04-14T10:21:04Z</time>
      </trkpt>
      <trkpt lat="45.98519" lon="4.79407">
        <ele>244</ele>
        <time>2018-04-14T10:21:05Z</time>
      </trkpt>
      <trkpt lat="45.98518" lon="4.79399">
        <ele>244</ele>
        <time>2018-04-14T10:21:06Z</time>
      </trkpt>
      <trkpt lat="45.98517" lon="4.79391">
        <ele>244</ele>
        <time>2018-04-14T10:21:07Z</time>
      </trkpt>
      <trkpt lat="45.98516" lon="4.79385">
        <ele>244</ele>
        <time>2018-04-14T10:21:08Z</time>
      </trkpt>
      <trkpt lat="45.98515" lon="4.79378">
        <ele>244</ele>
        <time>2018-04-14T10:21:09Z</time>
      </trkpt>
      <trkpt lat="45.98515" lon="4.7937">
        <ele>243</ele>
        <time>2018-04-14T10:21:10Z</time>
      </trkpt>
      <trkpt lat="45.98513" lon="4.79362">
        <ele>243</ele>
        <time>2018-04-14T10:21:11Z</time>
      </trkpt>
      <trkpt lat="45.98513" lon="4.79356">
        <ele>243</ele>
        <time>2018-04-14T10:21:12Z</time>
      </trkpt>
      <trkpt lat="45.98511" lon="4.79348">
        <ele>243</ele>
        <time>2018-04-14T10:21:13Z</time>
      </trkpt>
      <trkpt lat="45.98509" lon="4.79342">
        <ele>243</ele>
        <time>2018-04-14T10:21:14Z</time>
      </trkpt>
      <trkpt lat="45.98508" lon="4.79335">
        <ele>243</ele>
        <time>2018-04-14T10:21:15Z</time>
      </trkpt>
      <trkpt lat="45.98505" lon="4.79325">
        <ele>243</ele>
        <time>2018-04-14T10:21:17Z</time>
      </trkpt>
      <trkpt lat="45.98503" lon="4.79317">
        <ele>243</ele>
        <time>2018-04-14T10:21:18Z</time>
      </trkpt>
      <trkpt lat="45.98501" lon="4.7931">
        <ele>243</ele>
        <time>2018-04-14T10:21:19Z</time>
      </trkpt>
      <trkpt lat="45.98499" lon="4.79304">
        <ele>243</ele>
        <time>2018-04-14T10:21:20Z</time>
      </trkpt>
      <trkpt lat="45.98496" lon="4.79296">
        <ele>243</ele>
        <time>2018-04-14T10:21:21Z</time>
      </trkpt>
      <trkpt lat="45.98493" lon="4.7929">
        <ele>243</ele>
        <time>2018-04-14T10:21:22Z</time>
      </trkpt>
      <trkpt lat="45.9849" lon="4.79283">
        <ele>243</ele>
        <time>2018-04-14T10:21:23Z</time>
      </trkpt>
      <trkpt lat="45.98487" lon="4.79278">
        <ele>243</ele>
        <time>2018-04-14T10:21:24Z</time>
      </trkpt>
      <trkpt lat="45.98483" lon="4.79271">
        <ele>243</ele>
        <time>2018-04-14T10:21:25Z</time>
      </trkpt>
      <trkpt lat="45.9848" lon="4.79265">
        <ele>243</ele>
        <time>2018-04-14T10:21:26Z</time>
      </trkpt>
      <trkpt lat="45.98476" lon="4.79258">
        <ele>243</ele>
        <time>2018-04-14T10:21:27Z</time>
      </trkpt>
      <trkpt lat="45.98473" lon="4.79251">
        <ele>243</ele>
        <time>2018-04-14T10:21:28Z</time>
      </trkpt>
      <trkpt lat="45.9847" lon="4.79244">
        <ele>243</ele>
        <time>2018-04-14T10:21:29Z</time>
      </trkpt>
      <trkpt lat="45.98466" lon="4.79237">
        <ele>243</ele>
        <time>2018-04-14T10:21:30Z</time>
      </trkpt>
      <trkpt lat="45.98463" lon="4.79231">
        <ele>243</ele>
        <time>2018-04-14T10:21:31Z</time>
      </trkpt>
      <trkpt lat="45.98457" lon="4.79222">
        <ele>243</ele>
        <time>2018-04-14T10:21:32Z</time>
      </trkpt>
      <trkpt lat="45.98453" lon="4.79214">
        <ele>242</ele>
        <time>2018-04-14T10:21:33Z</time>
      </trkpt>
      <trkpt lat="45.98449" lon="4.79207">
        <ele>242</ele>
        <time>2018-04-14T10:21:34Z</time>
      </trkpt>
      <trkpt lat="45.98446" lon="4.79199">
        <ele>242</ele>
        <time>2018-04-14T10:21:35Z</time>
      </trkpt>
      <trkpt lat="45.98442" lon="4.79195">
        <ele>242</ele>
        <time>2018-04-14T10:21:36Z</time>
      </trkpt>
      <trkpt lat="45.98438" lon="4.79189">
        <ele>242</ele>
        <time>2018-04-14T10:21:37Z</time>
      </trkpt>
      <trkpt lat="45.98435" lon="4.79183">
        <ele>242</ele>
        <time>2018-04-14T10:21:38Z</time>
      </trkpt>
      <trkpt lat="45.9843" lon="4.79178">
        <ele>242</ele>
        <time>2018-04-14T10:21:39Z</time>
      </trkpt>
      <trkpt lat="45.98427" lon="4.79172">
        <ele>242</ele>
        <time>2018-04-14T10:21:40Z</time>
      </trkpt>
      <trkpt lat="45.98423" lon="4.79164">
        <ele>242</ele>
        <time>2018-04-14T10:21:42Z</time>
      </trkpt>
      <trkpt lat="45.98419" lon="4.79159">
        <ele>242</ele>
        <time>2018-04-14T10:21:43Z</time>
      </trkpt>
      <trkpt lat="45.98415" lon="4.7915">
        <ele>242</ele>
        <time>2018-04-14T10:21:45Z</time>
      </trkpt>
      <trkpt lat="45.98412" lon="4.79144">
        <ele>242</ele>
        <time>2018-04-14T10:21:46Z</time>
      </trkpt>
      <trkpt lat="45.98408" lon="4.79133">
        <ele>242</ele>
        <time>2018-04-14T10:21:47Z</time>
      </trkpt>
      <trkpt lat="45.98404" lon="4.79128">
        <ele>242</ele>
        <time>2018-04-14T10:21:48Z</time>
      </trkpt>
      <trkpt lat="45.98401" lon="4.79122">
        <ele>242</ele>
        <time>2018-04-14T10:21:49Z</time>
      </trkpt>
      <trkpt lat="45.98398" lon="4.79115">
        <ele>242</ele>
        <time>2018-04-14T10:21:50Z</time>
      </trkpt>
      <trkpt lat="45.98394" lon="4.79108">
        <ele>242</ele>
        <time>2018-04-14T10:21:51Z</time>
      </trkpt>
      <trkpt lat="45.98391" lon="4.79101">
        <ele>242</ele>
        <time>2018-04-14T10:21:52Z</time>
      </trkpt>
      <trkpt lat="45.98387" lon="4.79095">
        <ele>242</ele>
        <time>2018-04-14T10:21:53Z</time>
      </trkpt>
      <trkpt lat="45.98384" lon="4.79086">
        <ele>242</ele>
        <time>2018-04-14T10:21:54Z</time>
      </trkpt>
      <trkpt lat="45.98381" lon="4.79082">
        <ele>242</ele>
        <time>2018-04-14T10:21:55Z</time>
      </trkpt>
      <trkpt lat="45.98379" lon="4.79075">
        <ele>242</ele>
        <time>2018-04-14T10:21:56Z</time>
      </trkpt>
      <trkpt lat="45.98376" lon="4.79068">
        <ele>242</ele>
        <time>2018-04-14T10:21:57Z</time>
      </trkpt>
      <trkpt lat="45.98372" lon="4.79061">
        <ele>242</ele>
        <time>2018-04-14T10:21:58Z</time>
      </trkpt>
      <trkpt lat="45.98368" lon="4.79056">
        <ele>242</ele>
        <time>2018-04-14T10:21:59Z</time>
      </trkpt>
      <trkpt lat="45.98364" lon="4.79049">
        <ele>242</ele>
        <time>2018-04-14T10:22:00Z</time>
      </trkpt>
      <trkpt lat="45.98361" lon="4.79043">
        <ele>242</ele>
        <time>2018-04-14T10:22:01Z</time>
      </trkpt>
      <trkpt lat="45.98357" lon="4.79037">
        <ele>242</ele>
        <time>2018-04-14T10:22:02Z</time>
      </trkpt>
      <trkpt lat="45.98353" lon="4.79031">
        <ele>242</ele>
        <time>2018-04-14T10:22:03Z</time>
      </trkpt>
      <trkpt lat="45.98348" lon="4.79025">
        <ele>242</ele>
        <time>2018-04-14T10:22:04Z</time>
      </trkpt>
      <trkpt lat="45.98343" lon="4.7902">
        <ele>242</ele>
        <time>2018-04-14T10:22:05Z</time>
      </trkpt>
      <trkpt lat="45.98338" lon="4.79015">
        <ele>242</ele>
        <time>2018-04-14T10:22:06Z</time>
      </trkpt>
      <trkpt lat="45.98332" lon="4.79011">
        <ele>242</ele>
        <time>2018-04-14T10:22:07Z</time>
      </trkpt>
      <trkpt lat="45.98326" lon="4.79007">
        <ele>242</ele>
        <time>2018-04-14T10:22:08Z</time>
      </trkpt>
      <trkpt lat="45.9832" lon="4.79003">
        <ele>242</ele>
        <time>2018-04-14T10:22:09Z</time>
      </trkpt>
      <trkpt lat="45.98313" lon="4.78996">
        <ele>241</ele>
        <time>2018-04-14T10:22:10Z</time>
      </trkpt>
      <trkpt lat="45.98308" lon="4.78995">
        <ele>241</ele>
        <time>2018-04-14T10:22:11Z</time>
      </trkpt>
      <trkpt lat="45.98303" lon="4.78994">
        <ele>241</ele>
        <time>2018-04-14T10:22:12Z</time>
      </trkpt>
      <trkpt lat="45.98297" lon="4.78991">
        <ele>241</ele>
        <time>2018-04-14T10:22:13Z</time>
      </trkpt>
      <trkpt lat="45.98292" lon="4.78988">
        <ele>241</ele>
        <time>2018-04-14T10:22:14Z</time>
      </trkpt>
      <trkpt lat="45.98286" lon="4.78985">
        <ele>241</ele>
        <time>2018-04-14T10:22:15Z</time>
      </trkpt>
      <trkpt lat="45.9828" lon="4.78982">
        <ele>241</ele>
        <time>2018-04-14T10:22:16Z</time>
      </trkpt>
      <trkpt lat="45.98275" lon="4.7898">
        <ele>241</ele>
        <time>2018-04-14T10:22:17Z</time>
      </trkpt>
      <trkpt lat="45.9827" lon="4.78977">
        <ele>241</ele>
        <time>2018-04-14T10:22:18Z</time>
      </trkpt>
      <trkpt lat="45.98265" lon="4.78975">
        <ele>241</ele>
        <time>2018-04-14T10:22:19Z</time>
      </trkpt>
      <trkpt lat="45.9826" lon="4.78972">
        <ele>241</ele>
        <time>2018-04-14T10:22:20Z</time>
      </trkpt>
      <trkpt lat="45.98255" lon="4.78966">
        <ele>241</ele>
        <time>2018-04-14T10:22:21Z</time>
      </trkpt>
      <trkpt lat="45.9825" lon="4.78962">
        <ele>241</ele>
        <time>2018-04-14T10:22:22Z</time>
      </trkpt>
      <trkpt lat="45.98244" lon="4.78958">
        <ele>241</ele>
        <time>2018-04-14T10:22:23Z</time>
      </trkpt>
      <trkpt lat="45.98238" lon="4.78956">
        <ele>241</ele>
        <time>2018-04-14T10:22:24Z</time>
      </trkpt>
      <trkpt lat="45.98234" lon="4.78957">
        <ele>241</ele>
        <time>2018-04-14T10:22:25Z</time>
      </trkpt>
      <trkpt lat="45.98229" lon="4.78954">
        <ele>241</ele>
        <time>2018-04-14T10:22:26Z</time>
      </trkpt>
      <trkpt lat="45.98223" lon="4.78949">
        <ele>241</ele>
        <time>2018-04-14T10:22:27Z</time>
      </trkpt>
      <trkpt lat="45.98218" lon="4.78945">
        <ele>241</ele>
        <time>2018-04-14T10:22:28Z</time>
      </trkpt>
      <trkpt lat="45.98213" lon="4.78944">
        <ele>241</ele>
        <time>2018-04-14T10:22:29Z</time>
      </trkpt>
      <trkpt lat="45.98207" lon="4.7894">
        <ele>241</ele>
        <time>2018-04-14T10:22:30Z</time>
      </trkpt>
      <trkpt lat="45.98201" lon="4.78936">
        <ele>241</ele>
        <time>2018-04-14T10:22:31Z</time>
      </trkpt>
      <trkpt lat="45.98195" lon="4.78931">
        <ele>241</ele>
        <time>2018-04-14T10:22:32Z</time>
      </trkpt>
      <trkpt lat="45.98189" lon="4.78927">
        <ele>241</ele>
        <time>2018-04-14T10:22:33Z</time>
      </trkpt>
      <trkpt lat="45.98183" lon="4.78924">
        <ele>240</ele>
        <time>2018-04-14T10:22:34Z</time>
      </trkpt>
      <trkpt lat="45.98176" lon="4.78919">
        <ele>240</ele>
        <time>2018-04-14T10:22:35Z</time>
      </trkpt>
      <trkpt lat="45.98169" lon="4.78913">
        <ele>240</ele>
        <time>2018-04-14T10:22:36Z</time>
      </trkpt>
      <trkpt lat="45.98162" lon="4.7891">
        <ele>240</ele>
        <time>2018-04-14T10:22:37Z</time>
      </trkpt>
      <trkpt lat="45.98156" lon="4.78905">
        <ele>240</ele>
        <time>2018-04-14T10:22:38Z</time>
      </trkpt>
      <trkpt lat="45.9815" lon="4.78901">
        <ele>240</ele>
        <time>2018-04-14T10:22:39Z</time>
      </trkpt>
      <trkpt lat="45.98145" lon="4.78899">
        <ele>240</ele>
        <time>2018-04-14T10:22:40Z</time>
      </trkpt>
      <trkpt lat="45.9814" lon="4.78894">
        <ele>240</ele>
        <time>2018-04-14T10:22:41Z</time>
      </trkpt>
      <trkpt lat="45.98134" lon="4.78893">
        <ele>240</ele>
        <time>2018-04-14T10:22:42Z</time>
      </trkpt>
      <trkpt lat="45.98129" lon="4.78889">
        <ele>240</ele>
        <time>2018-04-14T10:22:43Z</time>
      </trkpt>
      <trkpt lat="45.98123" lon="4.78886">
        <ele>240</ele>
        <time>2018-04-14T10:22:44Z</time>
      </trkpt>
      <trkpt lat="45.98114" lon="4.78886">
        <ele>240</ele>
        <time>2018-04-14T10:22:46Z</time>
      </trkpt>
      <trkpt lat="45.98109" lon="4.78884">
        <ele>240</ele>
        <time>2018-04-14T10:22:47Z</time>
      </trkpt>
      <trkpt lat="45.98104" lon="4.78881">
        <ele>240</ele>
        <time>2018-04-14T10:22:48Z</time>
      </trkpt>
      <trkpt lat="45.98099" lon="4.78878">
        <ele>240</ele>
        <time>2018-04-14T10:22:49Z</time>
      </trkpt>
      <trkpt lat="45.98093" lon="4.78875">
        <ele>240</ele>
        <time>2018-04-14T10:22:50Z</time>
      </trkpt>
      <trkpt lat="45.98089" lon="4.78877">
        <ele>240</ele>
        <time>2018-04-14T10:22:51Z</time>
      </trkpt>
      <trkpt lat="45.98084" lon="4.78879">
        <ele>240</ele>
        <time>2018-04-14T10:22:52Z</time>
      </trkpt>
      <trkpt lat="45.98079" lon="4.78875">
        <ele>239</ele>
        <time>2018-04-14T10:22:53Z</time>
      </trkpt>
      <trkpt lat="45.98074" lon="4.78872">
        <ele>239</ele>
        <time>2018-04-14T10:22:54Z</time>
      </trkpt>
      <trkpt lat="45.98068" lon="4.78867">
        <ele>239</ele>
        <time>2018-04-14T10:22:55Z</time>
      </trkpt>
      <trkpt lat="45.98064" lon="4.78867">
        <ele>239</ele>
        <time>2018-04-14T10:22:56Z</time>
      </trkpt>
      <trkpt lat="45.98059" lon="4.78863">
        <ele>239</ele>
        <time>2018-04-14T10:22:57Z</time>
      </trkpt>
      <trkpt lat="45.98053" lon="4.78859">
        <ele>239</ele>
        <time>2018-04-14T10:22:58Z</time>
      </trkpt>
      <trkpt lat="45.98049" lon="4.78856">
        <ele>239</ele>
        <time>2018-04-14T10:22:59Z</time>
      </trkpt>
      <trkpt lat="45.98044" lon="4.78852">
        <ele>239</ele>
        <time>2018-04-14T10:23:00Z</time>
      </trkpt>
      <trkpt lat="45.9804" lon="4.78849">
        <ele>239</ele>
        <time>2018-04-14T10:23:01Z</time>
      </trkpt>
      <trkpt lat="45.98035" lon="4.78845">
        <ele>238</ele>
        <time>2018-04-14T10:23:02Z</time>
      </trkpt>
      <trkpt lat="45.98031" lon="4.78842">
        <ele>238</ele>
        <time>2018-04-14T10:23:03Z</time>
      </trkpt>
      <trkpt lat="45.98026" lon="4.78838">
        <ele>238</ele>
        <time>2018-04-14T10:23:04Z</time>
      </trkpt>
      <trkpt lat="45.98021" lon="4.78836">
        <ele>238</ele>
        <time>2018-04-14T10:23:05Z</time>
      </trkpt>
      <trkpt lat="45.98016" lon="4.78832">
        <ele>238</ele>
        <time>2018-04-14T10:23:06Z</time>
      </trkpt>
      <trkpt lat="45.98012" lon="4.78829">
        <ele>238</ele>
        <time>2018-04-14T10:23:07Z</time>
      </trkpt>
      <trkpt lat="45.98007" lon="4.78825">
        <ele>238</ele>
        <time>2018-04-14T10:23:08Z</time>
      </trkpt>
      <trkpt lat="45.98003" lon="4.78822">
        <ele>238</ele>
        <time>2018-04-14T10:23:09Z</time>
      </trkpt>
      <trkpt lat="45.97994" lon="4.78811">
        <ele>238</ele>
        <time>2018-04-14T10:23:10Z</time>
      </trkpt>
      <trkpt lat="45.9799" lon="4.78808">
        <ele>238</ele>
        <time>2018-04-14T10:23:11Z</time>
      </trkpt>
      <trkpt lat="45.97983" lon="4.78802">
        <ele>238</ele>
        <time>2018-04-14T10:23:12Z</time>
      </trkpt>
      <trkpt lat="45.97978" lon="4.78799">
        <ele>238</ele>
        <time>2018-04-14T10:23:13Z</time>
      </trkpt>
      <trkpt lat="45.97973" lon="4.7879">
        <ele>238</ele>
        <time>2018-04-14T10:23:14Z</time>
      </trkpt>
      <trkpt lat="45.97967" lon="4.78784">
        <ele>238</ele>
        <time>2018-04-14T10:23:15Z</time>
      </trkpt>
      <trkpt lat="45.97963" lon="4.78783">
        <ele>238</ele>
        <time>2018-04-14T10:23:16Z</time>
      </trkpt>
      <trkpt lat="45.97958" lon="4.78779">
        <ele>238</ele>
        <time>2018-04-14T10:23:17Z</time>
      </trkpt>
      <trkpt lat="45.97954" lon="4.78776">
        <ele>238</ele>
        <time>2018-04-14T10:23:18Z</time>
      </trkpt>
      <trkpt lat="45.97946" lon="4.78772">
        <ele>238</ele>
        <time>2018-04-14T10:23:20Z</time>
      </trkpt>
      <trkpt lat="45.97942" lon="4.78768">
        <ele>238</ele>
        <time>2018-04-14T10:23:21Z</time>
      </trkpt>
      <trkpt lat="45.97938" lon="4.78763">
        <ele>238</ele>
        <time>2018-04-14T10:23:22Z</time>
      </trkpt>
      <trkpt lat="45.97933" lon="4.7876">
        <ele>238</ele>
        <time>2018-04-14T10:23:23Z</time>
      </trkpt>
      <trkpt lat="45.97928" lon="4.78756">
        <ele>237</ele>
        <time>2018-04-14T10:23:24Z</time>
      </trkpt>
      <trkpt lat="45.97922" lon="4.78753">
        <ele>237</ele>
        <time>2018-04-14T10:23:25Z</time>
      </trkpt>
      <trkpt lat="45.97917" lon="4.78756">
        <ele>237</ele>
        <time>2018-04-14T10:23:26Z</time>
      </trkpt>
      <trkpt lat="45.97912" lon="4.7875">
        <ele>237</ele>
        <time>2018-04-14T10:23:27Z</time>
      </trkpt>
      <trkpt lat="45.97907" lon="4.78747">
        <ele>237</ele>
        <time>2018-04-14T10:23:28Z</time>
      </trkpt>
      <trkpt lat="45.97903" lon="4.78743">
        <ele>237</ele>
        <time>2018-04-14T10:23:29Z</time>
      </trkpt>
      <trkpt lat="45.97899" lon="4.7874">
        <ele>237</ele>
        <time>2018-04-14T10:23:30Z</time>
      </trkpt>
      <trkpt lat="45.97893" lon="4.78736">
        <ele>237</ele>
        <time>2018-04-14T10:23:31Z</time>
      </trkpt>
      <trkpt lat="45.97888" lon="4.78734">
        <ele>236</ele>
        <time>2018-04-14T10:23:32Z</time>
      </trkpt>
      <trkpt lat="45.97883" lon="4.7873">
        <ele>236</ele>
        <time>2018-04-14T10:23:33Z</time>
      </trkpt>
      <trkpt lat="45.97878" lon="4.78727">
        <ele>236</ele>
        <time>2018-04-14T10:23:34Z</time>
      </trkpt>
      <trkpt lat="45.97873" lon="4.78723">
        <ele>236</ele>
        <time>2018-04-14T10:23:35Z</time>
      </trkpt>
      <trkpt lat="45.97867" lon="4.78717">
        <ele>236</ele>
        <time>2018-04-14T10:23:36Z</time>
      </trkpt>
      <trkpt lat="45.97863" lon="4.78715">
        <ele>236</ele>
        <time>2018-04-14T10:23:37Z</time>
      </trkpt>
      <trkpt lat="45.97855" lon="4.7871">
        <ele>236</ele>
        <time>2018-04-14T10:23:39Z</time>
      </trkpt>
      <trkpt lat="45.9785" lon="4.78706">
        <ele>236</ele>
        <time>2018-04-14T10:23:40Z</time>
      </trkpt>
      <trkpt lat="45.97845" lon="4.78703">
        <ele>236</ele>
        <time>2018-04-14T10:23:41Z</time>
      </trkpt>
      <trkpt lat="45.9784" lon="4.78702">
        <ele>236</ele>
        <time>2018-04-14T10:23:42Z</time>
      </trkpt>
      <trkpt lat="45.97834" lon="4.78699">
        <ele>236</ele>
        <time>2018-04-14T10:23:43Z</time>
      </trkpt>
      <trkpt lat="45.97829" lon="4.78696">
        <ele>235</ele>
        <time>2018-04-14T10:23:44Z</time>
      </trkpt>
      <trkpt lat="45.97823" lon="4.78694">
        <ele>235</ele>
        <time>2018-04-14T10:23:45Z</time>
      </trkpt>
      <trkpt lat="45.97819" lon="4.78691">
        <ele>235</ele>
        <time>2018-04-14T10:23:46Z</time>
      </trkpt>
      <trkpt lat="45.97813" lon="4.78688">
        <ele>235</ele>
        <time>2018-04-14T10:23:47Z</time>
      </trkpt>
      <trkpt lat="45.97808" lon="4.78685">
        <ele>235</ele>
        <time>2018-04-14T10:23:48Z</time>
      </trkpt>
      <trkpt lat="45.97803" lon="4.78682">
        <ele>235</ele>
        <time>2018-04-14T10:23:49Z</time>
      </trkpt>
      <trkpt lat="45.97797" lon="4.78678">
        <ele>235</ele>
        <time>2018-04-14T10:23:50Z</time>
      </trkpt>
      <trkpt lat="45.97791" lon="4.78676">
        <ele>235</ele>
        <time>2018-04-14T10:23:51Z</time>
      </trkpt>
      <trkpt lat="45.97787" lon="4.78672">
        <ele>235</ele>
        <time>2018-04-14T10:23:52Z</time>
      </trkpt>
      <trkpt lat="45.97783" lon="4.78667">
        <ele>235</ele>
        <time>2018-04-14T10:23:53Z</time>
      </trkpt>
      <trkpt lat="45.97778" lon="4.78665">
        <ele>235</ele>
        <time>2018-04-14T10:23:54Z</time>
      </trkpt>
      <trkpt lat="45.97772" lon="4.78661">
        <ele>235</ele>
        <time>2018-04-14T10:23:55Z</time>
      </trkpt>
      <trkpt lat="45.97767" lon="4.78659">
        <ele>235</ele>
        <time>2018-04-14T10:23:56Z</time>
      </trkpt>
      <trkpt lat="45.97761" lon="4.78657">
        <ele>235</ele>
        <time>2018-04-14T10:23:57Z</time>
      </trkpt>
      <trkpt lat="45.97755" lon="4.78656">
        <ele>235</ele>
        <time>2018-04-14T10:23:58Z</time>
      </trkpt>
      <trkpt lat="45.9775" lon="4.78654">
        <ele>234</ele>
        <time>2018-04-14T10:23:59Z</time>
      </trkpt>
      <trkpt lat="45.97744" lon="4.78651">
        <ele>234</ele>
        <time>2018-04-14T10:24:00Z</time>
      </trkpt>
      <trkpt lat="45.97739" lon="4.78649">
        <ele>234</ele>
        <time>2018-04-14T10:24:01Z</time>
      </trkpt>
      <trkpt lat="45.97734" lon="4.78646">
        <ele>234</ele>
        <time>2018-04-14T10:24:02Z</time>
      </trkpt>
      <trkpt lat="45.97729" lon="4.78644">
        <ele>234</ele>
        <time>2018-04-14T10:24:03Z</time>
      </trkpt>
      <trkpt lat="45.97723" lon="4.78644">
        <ele>234</ele>
        <time>2018-04-14T10:24:04Z</time>
      </trkpt>
      <trkpt lat="45.97718" lon="4.78641">
        <ele>234</ele>
        <time>2018-04-14T10:24:05Z</time>
      </trkpt>
      <trkpt lat="45.97712" lon="4.78639">
        <ele>234</ele>
        <time>2018-04-14T10:24:06Z</time>
      </trkpt>
      <trkpt lat="45.97707" lon="4.78637">
        <ele>234</ele>
        <time>2018-04-14T10:24:07Z</time>
      </trkpt>
      <trkpt lat="45.97701" lon="4.78634">
        <ele>234</ele>
        <time>2018-04-14T10:24:08Z</time>
      </trkpt>
      <trkpt lat="45.97695" lon="4.78632">
        <ele>234</ele>
        <time>2018-04-14T10:24:09Z</time>
      </trkpt>
      <trkpt lat="45.97689" lon="4.78629">
        <ele>234</ele>
        <time>2018-04-14T10:24:10Z</time>
      </trkpt>
      <trkpt lat="45.97683" lon="4.78626">
        <ele>234</ele>
        <time>2018-04-14T10:24:11Z</time>
      </trkpt>
      <trkpt lat="45.97677" lon="4.78624">
        <ele>234</ele>
        <time>2018-04-14T10:24:12Z</time>
      </trkpt>
      <trkpt lat="45.97672" lon="4.78621">
        <ele>234</ele>
        <time>2018-04-14T10:24:13Z</time>
      </trkpt>
      <trkpt lat="45.97666" lon="4.78619">
        <ele>233</ele>
        <time>2018-04-14T10:24:14Z</time>
      </trkpt>
      <trkpt lat="45.9766" lon="4.78615">
        <ele>233</ele>
        <time>2018-04-14T10:24:15Z</time>
      </trkpt>
      <trkpt lat="45.97654" lon="4.78612">
        <ele>233</ele>
        <time>2018-04-14T10:24:16Z</time>
      </trkpt>
      <trkpt lat="45.97647" lon="4.78608">
        <ele>233</ele>
        <time>2018-04-14T10:24:17Z</time>
      </trkpt>
      <trkpt lat="45.97641" lon="4.78607">
        <ele>233</ele>
        <time>2018-04-14T10:24:18Z</time>
      </trkpt>
      <trkpt lat="45.97637" lon="4.78613">
        <ele>233</ele>
        <time>2018-04-14T10:24:19Z</time>
      </trkpt>
      <trkpt lat="45.97631" lon="4.78609">
        <ele>233</ele>
        <time>2018-04-14T10:24:20Z</time>
      </trkpt>
      <trkpt lat="45.97624" lon="4.78606">
        <ele>233</ele>
        <time>2018-04-14T10:24:21Z</time>
      </trkpt>
      <trkpt lat="45.97618" lon="4.78604">
        <ele>233</ele>
        <time>2018-04-14T10:24:22Z</time>
      </trkpt>
      <trkpt lat="45.97613" lon="4.78604">
        <ele>233</ele>
        <time>2018-04-14T10:24:23Z</time>
      </trkpt>
      <trkpt lat="45.97607" lon="4.78601">
        <ele>233</ele>
        <time>2018-04-14T10:24:24Z</time>
      </trkpt>
      <trkpt lat="45.97602" lon="4.78602">
        <ele>233</ele>
        <time>2018-04-14T10:24:25Z</time>
      </trkpt>
      <trkpt lat="45.97596" lon="4.786">
        <ele>233</ele>
        <time>2018-04-14T10:24:26Z</time>
      </trkpt>
      <trkpt lat="45.97591" lon="4.78597">
        <ele>233</ele>
        <time>2018-04-14T10:24:27Z</time>
      </trkpt>
      <trkpt lat="45.97586" lon="4.78595">
        <ele>233</ele>
        <time>2018-04-14T10:24:28Z</time>
      </trkpt>
      <trkpt lat="45.97581" lon="4.78592">
        <ele>233</ele>
        <time>2018-04-14T10:24:29Z</time>
      </trkpt>
      <trkpt lat="45.97575" lon="4.78589">
        <ele>233</ele>
        <time>2018-04-14T10:24:30Z</time>
      </trkpt>
      <trkpt lat="45.97569" lon="4.78589">
        <ele>233</ele>
        <time>2018-04-14T10:24:31Z</time>
      </trkpt>
      <trkpt lat="45.97564" lon="4.78587">
        <ele>233</ele>
        <time>2018-04-14T10:24:32Z</time>
      </trkpt>
      <trkpt lat="45.97559" lon="4.78584">
        <ele>233</ele>
        <time>2018-04-14T10:24:33Z</time>
      </trkpt>
      <trkpt lat="45.97554" lon="4.78583">
        <ele>233</ele>
        <time>2018-04-14T10:24:34Z</time>
      </trkpt>
      <trkpt lat="45.97548" lon="4.7858">
        <ele>233</ele>
        <time>2018-04-14T10:24:35Z</time>
      </trkpt>
      <trkpt lat="45.97542" lon="4.78576">
        <ele>233</ele>
        <time>2018-04-14T10:24:36Z</time>
      </trkpt>
      <trkpt lat="45.97537" lon="4.78573">
        <ele>233</ele>
        <time>2018-04-14T10:24:37Z</time>
      </trkpt>
      <trkpt lat="45.97532" lon="4.7857">
        <ele>233</ele>
        <time>2018-04-14T10:24:38Z</time>
      </trkpt>
      <trkpt lat="45.97527" lon="4.78568">
        <ele>233</ele>
        <time>2018-04-14T10:24:39Z</time>
      </trkpt>
      <trkpt lat="45.97522" lon="4.78563">
        <ele>234</ele>
        <time>2018-04-14T10:24:40Z</time>
      </trkpt>
      <trkpt lat="45.97517" lon="4.78561">
        <ele>233</ele>
        <time>2018-04-14T10:24:41Z</time>
      </trkpt>
      <trkpt lat="45.97512" lon="4.78558">
        <ele>234</ele>
        <time>2018-04-14T10:24:42Z</time>
      </trkpt>
      <trkpt lat="45.97508" lon="4.78555">
        <ele>234</ele>
        <time>2018-04-14T10:24:43Z</time>
      </trkpt>
      <trkpt lat="45.97503" lon="4.78552">
        <ele>234</ele>
        <time>2018-04-14T10:24:44Z</time>
      </trkpt>
      <trkpt lat="45.97498" lon="4.78548">
        <ele>233</ele>
        <time>2018-04-14T10:24:45Z</time>
      </trkpt>
      <trkpt lat="45.97494" lon="4.78543">
        <ele>233</ele>
        <time>2018-04-14T10:24:46Z</time>
      </trkpt>
      <trkpt lat="45.9749" lon="4.7854">
        <ele>233</ele>
        <time>2018-04-14T10:24:47Z</time>
      </trkpt>
      <trkpt lat="45.97486" lon="4.78538">
        <ele>233</ele>
        <time>2018-04-14T10:24:48Z</time>
      </trkpt>
      <trkpt lat="45.97481" lon="4.78534">
        <ele>233</ele>
        <time>2018-04-14T10:24:49Z</time>
      </trkpt>
      <trkpt lat="45.97476" lon="4.78528">
        <ele>233</ele>
        <time>2018-04-14T10:24:50Z</time>
      </trkpt>
      <trkpt lat="45.9747" lon="4.78524">
        <ele>233</ele>
        <time>2018-04-14T10:24:51Z</time>
      </trkpt>
      <trkpt lat="45.97466" lon="4.78519">
        <ele>233</ele>
        <time>2018-04-14T10:24:52Z</time>
      </trkpt>
      <trkpt lat="45.9746" lon="4.78514">
        <ele>233</ele>
        <time>2018-04-14T10:24:53Z</time>
      </trkpt>
      <trkpt lat="45.97455" lon="4.78509">
        <ele>233</ele>
        <time>2018-04-14T10:24:54Z</time>
      </trkpt>
      <trkpt lat="45.9745" lon="4.78506">
        <ele>234</ele>
        <time>2018-04-14T10:24:55Z</time>
      </trkpt>
      <trkpt lat="45.97444" lon="4.785">
        <ele>234</ele>
        <time>2018-04-14T10:24:56Z</time>
      </trkpt>
      <trkpt lat="45.97438" lon="4.78496">
        <ele>234</ele>
        <time>2018-04-14T10:24:57Z</time>
      </trkpt>
      <trkpt lat="45.97433" lon="4.78492">
        <ele>234</ele>
        <time>2018-04-14T10:24:58Z</time>
      </trkpt>
      <trkpt lat="45.97428" lon="4.78488">
        <ele>234</ele>
        <time>2018-04-14T10:24:59Z</time>
      </trkpt>
      <trkpt lat="45.97422" lon="4.78483">
        <ele>234</ele>
        <time>2018-04-14T10:25:00Z</time>
      </trkpt>
      <trkpt lat="45.97417" lon="4.78478">
        <ele>234</ele>
        <time>2018-04-14T10:25:01Z</time>
      </trkpt>
      <trkpt lat="45.97411" lon="4.78472">
        <ele>233</ele>
        <time>2018-04-14T10:25:02Z</time>
      </trkpt>
      <trkpt lat="45.97406" lon="4.78468">
        <ele>233</ele>
        <time>2018-04-14T10:25:03Z</time>
      </trkpt>
      <trkpt lat="45.97401" lon="4.78462">
        <ele>233</ele>
        <time>2018-04-14T10:25:04Z</time>
      </trkpt>
      <trkpt lat="45.97396" lon="4.78458">
        <ele>233</ele>
        <time>2018-04-14T10:25:05Z</time>
      </trkpt>
      <trkpt lat="45.97392" lon="4.78452">
        <ele>233</ele>
        <time>2018-04-14T10:25:06Z</time>
      </trkpt>
      <trkpt lat="45.97388" lon="4.78449">
        <ele>233</ele>
        <time>2018-04-14T10:25:07Z</time>
      </trkpt>
      <trkpt lat="45.97383" lon="4.78445">
        <ele>233</ele>
        <time>2018-04-14T10:25:08Z</time>
      </trkpt>
      <trkpt lat="45.97379" lon="4.7844">
        <ele>233</ele>
        <time>2018-04-14T10:25:09Z</time>
      </trkpt>
      <trkpt lat="45.97374" lon="4.78436">
        <ele>233</ele>
        <time>2018-04-14T10:25:10Z</time>
      </trkpt>
      <trkpt lat="45.9737" lon="4.78432">
        <ele>233</ele>
        <time>2018-04-14T10:25:11Z</time>
      </trkpt>
      <trkpt lat="45.97366" lon="4.78428">
        <ele>233</ele>
        <time>2018-04-14T10:25:12Z</time>
      </trkpt>
      <trkpt lat="45.97359" lon="4.78422">
        <ele>233</ele>
        <time>2018-04-14T10:25:14Z</time>
      </trkpt>
      <trkpt lat="45.97355" lon="4.78417">
        <ele>233</ele>
        <time>2018-04-14T10:25:15Z</time>
      </trkpt>
      <trkpt lat="45.97351" lon="4.78413">
        <ele>232</ele>
        <time>2018-04-14T10:25:16Z</time>
      </trkpt>
      <trkpt lat="45.97347" lon="4.78409">
        <ele>232</ele>
        <time>2018-04-14T10:25:17Z</time>
      </trkpt>
      <trkpt lat="45.97343" lon="4.78407">
        <ele>232</ele>
        <time>2018-04-14T10:25:18Z</time>
      </trkpt>
      <trkpt lat="45.97339" lon="4.78403">
        <ele>232</ele>
        <time>2018-04-14T10:25:19Z</time>
      </trkpt>
      <trkpt lat="45.97333" lon="4.78397">
        <ele>232</ele>
        <time>2018-04-14T10:25:20Z</time>
      </trkpt>
      <trkpt lat="45.97328" lon="4.7839">
        <ele>232</ele>
        <time>2018-04-14T10:25:21Z</time>
      </trkpt>
      <trkpt lat="45.97324" lon="4.78385">
        <ele>232</ele>
        <time>2018-04-14T10:25:22Z</time>
      </trkpt>
      <trkpt lat="45.97321" lon="4.7838">
        <ele>232</ele>
        <time>2018-04-14T10:25:23Z</time>
      </trkpt>
      <trkpt lat="45.97316" lon="4.78372">
        <ele>232</ele>
        <time>2018-04-14T10:25:24Z</time>
      </trkpt>
      <trkpt lat="45.97312" lon="4.78367">
        <ele>232</ele>
        <time>2018-04-14T10:25:25Z</time>
      </trkpt>
      <trkpt lat="45.97305" lon="4.78358">
        <ele>232</ele>
        <time>2018-04-14T10:25:26Z</time>
      </trkpt>
      <trkpt lat="45.97302" lon="4.78352">
        <ele>232</ele>
        <time>2018-04-14T10:25:27Z</time>
      </trkpt>
      <trkpt lat="45.97298" lon="4.78346">
        <ele>232</ele>
        <time>2018-04-14T10:25:28Z</time>
      </trkpt>
      <trkpt lat="45.97294" lon="4.78342">
        <ele>232</ele>
        <time>2018-04-14T10:25:29Z</time>
      </trkpt>
      <trkpt lat="45.9729" lon="4.78337">
        <ele>232</ele>
        <time>2018-04-14T10:25:30Z</time>
      </trkpt>
      <trkpt lat="45.97286" lon="4.78332">
        <ele>232</ele>
        <time>2018-04-14T10:25:31Z</time>
      </trkpt>
      <trkpt lat="45.97282" lon="4.78326">
        <ele>232</ele>
        <time>2018-04-14T10:25:32Z</time>
      </trkpt>
      <trkpt lat="45.97277" lon="4.78321">
        <ele>232</ele>
        <time>2018-04-14T10:25:33Z</time>
      </trkpt>
      <trkpt lat="45.97273" lon="4.78315">
        <ele>232</ele>
        <time>2018-04-14T10:25:34Z</time>
      </trkpt>
      <trkpt lat="45.97269" lon="4.7831">
        <ele>232</ele>
        <time>2018-04-14T10:25:35Z</time>
      </trkpt>
      <trkpt lat="45.97263" lon="4.78301">
        <ele>232</ele>
        <time>2018-04-14T10:25:37Z</time>
      </trkpt>
      <trkpt lat="45.97258" lon="4.78294">
        <ele>232</ele>
        <time>2018-04-14T10:25:38Z</time>
      </trkpt>
      <trkpt lat="45.97253" lon="4.78288">
        <ele>232</ele>
        <time>2018-04-14T10:25:39Z</time>
      </trkpt>
      <trkpt lat="45.9725" lon="4.78282">
        <ele>231</ele>
        <time>2018-04-14T10:25:40Z</time>
      </trkpt>
      <trkpt lat="45.97247" lon="4.78277">
        <ele>231</ele>
        <time>2018-04-14T10:25:41Z</time>
      </trkpt>
      <trkpt lat="45.97244" lon="4.7827">
        <ele>231</ele>
        <time>2018-04-14T10:25:42Z</time>
      </trkpt>
      <trkpt lat="45.97241" lon="4.78264">
        <ele>231</ele>
        <time>2018-04-14T10:25:43Z</time>
      </trkpt>
      <trkpt lat="45.97237" lon="4.78258">
        <ele>231</ele>
        <time>2018-04-14T10:25:44Z</time>
      </trkpt>
      <trkpt lat="45.97233" lon="4.78253">
        <ele>231</ele>
        <time>2018-04-14T10:25:45Z</time>
      </trkpt>
      <trkpt lat="45.97229" lon="4.78249">
        <ele>231</ele>
        <time>2018-04-14T10:25:46Z</time>
      </trkpt>
      <trkpt lat="45.97226" lon="4.78243">
        <ele>231</ele>
        <time>2018-04-14T10:25:47Z</time>
      </trkpt>
      <trkpt lat="45.97222" lon="4.78237">
        <ele>231</ele>
        <time>2018-04-14T10:25:48Z</time>
      </trkpt>
      <trkpt lat="45.97219" lon="4.78232">
        <ele>231</ele>
        <time>2018-04-14T10:25:49Z</time>
      </trkpt>
      <trkpt lat="45.97215" lon="4.78227">
        <ele>231</ele>
        <time>2018-04-14T10:25:50Z</time>
      </trkpt>
      <trkpt lat="45.97212" lon="4.7822">
        <ele>231</ele>
        <time>2018-04-14T10:25:51Z</time>
      </trkpt>
      <trkpt lat="45.97208" lon="4.78215">
        <ele>231</ele>
        <time>2018-04-14T10:25:52Z</time>
      </trkpt>
      <trkpt lat="45.97203" lon="4.78209">
        <ele>231</ele>
        <time>2018-04-14T10:25:53Z</time>
      </trkpt>
      <trkpt lat="45.972" lon="4.78205">
        <ele>231</ele>
        <time>2018-04-14T10:25:54Z</time>
      </trkpt>
      <trkpt lat="45.97197" lon="4.78198">
        <ele>231</ele>
        <time>2018-04-14T10:25:55Z</time>
      </trkpt>
      <trkpt lat="45.97194" lon="4.78192">
        <ele>231</ele>
        <time>2018-04-14T10:25:56Z</time>
      </trkpt>
      <trkpt lat="45.97192" lon="4.78185">
        <ele>231</ele>
        <time>2018-04-14T10:25:57Z</time>
      </trkpt>
      <trkpt lat="45.97188" lon="4.78177">
        <ele>231</ele>
        <time>2018-04-14T10:25:58Z</time>
      </trkpt>
      <trkpt lat="45.97184" lon="4.78169">
        <ele>231</ele>
        <time>2018-04-14T10:25:59Z</time>
      </trkpt>
      <trkpt lat="45.9718" lon="4.78162">
        <ele>231</ele>
        <time>2018-04-14T10:26:00Z</time>
      </trkpt>
      <trkpt lat="45.97177" lon="4.78155">
        <ele>231</ele>
        <time>2018-04-14T10:26:01Z</time>
      </trkpt>
      <trkpt lat="45.97173" lon="4.78148">
        <ele>231</ele>
        <time>2018-04-14T10:26:02Z</time>
      </trkpt>
      <trkpt lat="45.97169" lon="4.78141">
        <ele>231</ele>
        <time>2018-04-14T10:26:03Z</time>
      </trkpt>
      <trkpt lat="45.97166" lon="4.78134">
        <ele>230</ele>
        <time>2018-04-14T10:26:04Z</time>
      </trkpt>
      <trkpt lat="45.97162" lon="4.78127">
        <ele>230</ele>
        <time>2018-04-14T10:26:05Z</time>
      </trkpt>
      <trkpt lat="45.97158" lon="4.7812">
        <ele>230</ele>
        <time>2018-04-14T10:26:06Z</time>
      </trkpt>
      <trkpt lat="45.97153" lon="4.78114">
        <ele>230</ele>
        <time>2018-04-14T10:26:07Z</time>
      </trkpt>
      <trkpt lat="45.97149" lon="4.78106">
        <ele>230</ele>
        <time>2018-04-14T10:26:08Z</time>
      </trkpt>
      <trkpt lat="45.97145" lon="4.78099">
        <ele>230</ele>
        <time>2018-04-14T10:26:09Z</time>
      </trkpt>
      <trkpt lat="45.97142" lon="4.78093">
        <ele>230</ele>
        <time>2018-04-14T10:26:10Z</time>
      </trkpt>
      <trkpt lat="45.97138" lon="4.78086">
        <ele>230</ele>
        <time>2018-04-14T10:26:11Z</time>
      </trkpt>
      <trkpt lat="45.97134" lon="4.7808">
        <ele>230</ele>
        <time>2018-04-14T10:26:12Z</time>
      </trkpt>
      <trkpt lat="45.9713" lon="4.78074">
        <ele>230</ele>
        <time>2018-04-14T10:26:13Z</time>
      </trkpt>
      <trkpt lat="45.97126" lon="4.78069">
        <ele>230</ele>
        <time>2018-04-14T10:26:14Z</time>
      </trkpt>
      <trkpt lat="45.97121" lon="4.78062">
        <ele>229</ele>
        <time>2018-04-14T10:26:15Z</time>
      </trkpt>
      <trkpt lat="45.97118" lon="4.78057">
        <ele>229</ele>
        <time>2018-04-14T10:26:16Z</time>
      </trkpt>
      <trkpt lat="45.97113" lon="4.78054">
        <ele>229</ele>
        <time>2018-04-14T10:26:17Z</time>
      </trkpt>
      <trkpt lat="45.97108" lon="4.78049">
        <ele>229</ele>
        <time>2018-04-14T10:26:18Z</time>
      </trkpt>
      <trkpt lat="45.97104" lon="4.78048">
        <ele>229</ele>
        <time>2018-04-14T10:26:19Z</time>
      </trkpt>
      <trkpt lat="45.97099" lon="4.78046">
        <ele>229</ele>
        <time>2018-04-14T10:26:20Z</time>
      </trkpt>
      <trkpt lat="45.97094" lon="4.78042">
        <ele>229</ele>
        <time>2018-04-14T10:26:21Z</time>
      </trkpt>
      <trkpt lat="45.97089" lon="4.78038">
        <ele>229</ele>
        <time>2018-04-14T10:26:22Z</time>
      </trkpt>
      <trkpt lat="45.97084" lon="4.78031">
        <ele>229</ele>
        <time>2018-04-14T10:26:24Z</time>
      </trkpt>
      <trkpt lat="45.9708" lon="4.78027">
        <ele>229</ele>
        <time>2018-04-14T10:26:25Z</time>
      </trkpt>
      <trkpt lat="45.97076" lon="4.78023">
        <ele>229</ele>
        <time>2018-04-14T10:26:26Z</time>
      </trkpt>
      <trkpt lat="45.97071" lon="4.78019">
        <ele>229</ele>
        <time>2018-04-14T10:26:27Z</time>
      </trkpt>
      <trkpt lat="45.97067" lon="4.78015">
        <ele>229</ele>
        <time>2018-04-14T10:26:28Z</time>
      </trkpt>
      <trkpt lat="45.97061" lon="4.78012">
        <ele>229</ele>
        <time>2018-04-14T10:26:29Z</time>
      </trkpt>
      <trkpt lat="45.97056" lon="4.78008">
        <ele>229</ele>
        <time>2018-04-14T10:26:30Z</time>
      </trkpt>
      <trkpt lat="45.97051" lon="4.78">
        <ele>229</ele>
        <time>2018-04-14T10:26:31Z</time>
      </trkpt>
      <trkpt lat="45.97046" lon="4.77994">
        <ele>229</ele>
        <time>2018-04-14T10:26:32Z</time>
      </trkpt>
      <trkpt lat="45.97042" lon="4.77989">
        <ele>229</ele>
        <time>2018-04-14T10:26:33Z</time>
      </trkpt>
      <trkpt lat="45.97037" lon="4.77983">
        <ele>229</ele>
        <time>2018-04-14T10:26:34Z</time>
      </trkpt>
      <trkpt lat="45.97033" lon="4.77977">
        <ele>229</ele>
        <time>2018-04-14T10:26:35Z</time>
      </trkpt>
      <trkpt lat="45.97029" lon="4.77972">
        <ele>229</ele>
        <time>2018-04-14T10:26:36Z</time>
      </trkpt>
      <trkpt lat="45.97026" lon="4.77969">
        <ele>229</ele>
        <time>2018-04-14T10:26:37Z</time>
      </trkpt>
      <trkpt lat="45.97021" lon="4.77964">
        <ele>228</ele>
        <time>2018-04-14T10:26:38Z</time>
      </trkpt>
      <trkpt lat="45.97017" lon="4.77958">
        <ele>228</ele>
        <time>2018-04-14T10:26:39Z</time>
      </trkpt>
      <trkpt lat="45.97013" lon="4.77954">
        <ele>228</ele>
        <time>2018-04-14T10:26:40Z</time>
      </trkpt>
      <trkpt lat="45.97009" lon="4.77948">
        <ele>228</ele>
        <time>2018-04-14T10:26:41Z</time>
      </trkpt>
      <trkpt lat="45.97005" lon="4.77943">
        <ele>228</ele>
        <time>2018-04-14T10:26:42Z</time>
      </trkpt>
      <trkpt lat="45.97001" lon="4.77937">
        <ele>228</ele>
        <time>2018-04-14T10:26:43Z</time>
      </trkpt>
      <trkpt lat="45.96996" lon="4.77931">
        <ele>227</ele>
        <time>2018-04-14T10:26:44Z</time>
      </trkpt>
      <trkpt lat="45.96993" lon="4.77924">
        <ele>227</ele>
        <time>2018-04-14T10:26:45Z</time>
      </trkpt>
      <trkpt lat="45.96989" lon="4.7792">
        <ele>227</ele>
        <time>2018-04-14T10:26:46Z</time>
      </trkpt>
      <trkpt lat="45.96984" lon="4.77916">
        <ele>227</ele>
        <time>2018-04-14T10:26:47Z</time>
      </trkpt>
      <trkpt lat="45.96978" lon="4.7791">
        <ele>227</ele>
        <time>2018-04-14T10:26:48Z</time>
      </trkpt>
      <trkpt lat="45.96975" lon="4.77905">
        <ele>227</ele>
        <time>2018-04-14T10:26:49Z</time>
      </trkpt>
      <trkpt lat="45.96971" lon="4.77899">
        <ele>228</ele>
        <time>2018-04-14T10:26:50Z</time>
      </trkpt>
      <trkpt lat="45.96967" lon="4.77894">
        <ele>228</ele>
        <time>2018-04-14T10:26:51Z</time>
      </trkpt>
      <trkpt lat="45.96962" lon="4.77888">
        <ele>228</ele>
        <time>2018-04-14T10:26:52Z</time>
      </trkpt>
      <trkpt lat="45.96958" lon="4.77883">
        <ele>228</ele>
        <time>2018-04-14T10:26:53Z</time>
      </trkpt>
      <trkpt lat="45.96954" lon="4.77878">
        <ele>228</ele>
        <time>2018-04-14T10:26:54Z</time>
      </trkpt>
      <trkpt lat="45.96949" lon="4.77872">
        <ele>228</ele>
        <time>2018-04-14T10:26:55Z</time>
      </trkpt>
      <trkpt lat="45.96944" lon="4.77868">
        <ele>228</ele>
        <time>2018-04-14T10:26:56Z</time>
      </trkpt>
      <trkpt lat="45.96939" lon="4.77863">
        <ele>228</ele>
        <time>2018-04-14T10:26:57Z</time>
      </trkpt>
      <trkpt lat="45.96933" lon="4.77858">
        <ele>228</ele>
        <time>2018-04-14T10:26:58Z</time>
      </trkpt>
      <trkpt lat="45.96928" lon="4.77853">
        <ele>228</ele>
        <time>2018-04-14T10:26:59Z</time>
      </trkpt>
      <trkpt lat="45.96924" lon="4.77848">
        <ele>228</ele>
        <time>2018-04-14T10:27:00Z</time>
      </trkpt>
      <trkpt lat="45.9692" lon="4.77843">
        <ele>228</ele>
        <time>2018-04-14T10:27:01Z</time>
      </trkpt>
      <trkpt lat="45.96916" lon="4.77838">
        <ele>228</ele>
        <time>2018-04-14T10:27:02Z</time>
      </trkpt>
      <trkpt lat="45.96912" lon="4.77833">
        <ele>228</ele>
        <time>2018-04-14T10:27:03Z</time>
      </trkpt>
      <trkpt lat="45.96907" lon="4.77829">
        <ele>228</ele>
        <time>2018-04-14T10:27:04Z</time>
      </trkpt>
      <trkpt lat="45.96903" lon="4.77825">
        <ele>228</ele>
        <time>2018-04-14T10:27:05Z</time>
      </trkpt>
      <trkpt lat="45.96898" lon="4.77821">
        <ele>228</ele>
        <time>2018-04-14T10:27:06Z</time>
      </trkpt>
      <trkpt lat="45.96894" lon="4.77816">
        <ele>228</ele>
        <time>2018-04-14T10:27:07Z</time>
      </trkpt>
      <trkpt lat="45.96891" lon="4.77811">
        <ele>228</ele>
        <time>2018-04-14T10:27:08Z</time>
      </trkpt>
      <trkpt lat="45.96888" lon="4.77805">
        <ele>228</ele>
        <time>2018-04-14T10:27:09Z</time>
      </trkpt>
      <trkpt lat="45.96883" lon="4.77801">
        <ele>228</ele>
        <time>2018-04-14T10:27:10Z</time>
      </trkpt>
      <trkpt lat="45.96879" lon="4.77796">
        <ele>228</ele>
        <time>2018-04-14T10:27:11Z</time>
      </trkpt>
      <trkpt lat="45.96874" lon="4.77792">
        <ele>228</ele>
        <time>2018-04-14T10:27:12Z</time>
      </trkpt>
      <trkpt lat="45.9687" lon="4.77788">
        <ele>228</ele>
        <time>2018-04-14T10:27:13Z</time>
      </trkpt>
      <trkpt lat="45.96866" lon="4.77783">
        <ele>228</ele>
        <time>2018-04-14T10:27:14Z</time>
      </trkpt>
      <trkpt lat="45.96862" lon="4.7778">
        <ele>228</ele>
        <time>2018-04-14T10:27:15Z</time>
      </trkpt>
      <trkpt lat="45.96858" lon="4.77775">
        <ele>228</ele>
        <time>2018-04-14T10:27:16Z</time>
      </trkpt>
      <trkpt lat="45.96852" lon="4.7777">
        <ele>228</ele>
        <time>2018-04-14T10:27:17Z</time>
      </trkpt>
      <trkpt lat="45.96847" lon="4.77765">
        <ele>228</ele>
        <time>2018-04-14T10:27:18Z</time>
      </trkpt>
      <trkpt lat="45.96842" lon="4.7776">
        <ele>228</ele>
        <time>2018-04-14T10:27:19Z</time>
      </trkpt>
      <trkpt lat="45.96837" lon="4.77754">
        <ele>228</ele>
        <time>2018-04-14T10:27:20Z</time>
      </trkpt>
      <trkpt lat="45.96833" lon="4.7775">
        <ele>228</ele>
        <time>2018-04-14T10:27:21Z</time>
      </trkpt>
      <trkpt lat="45.96826" lon="4.77744">
        <ele>228</ele>
        <time>2018-04-14T10:27:23Z</time>
      </trkpt>
      <trkpt lat="45.96822" lon="4.77739">
        <ele>228</ele>
        <time>2018-04-14T10:27:24Z</time>
      </trkpt>
      <trkpt lat="45.96819" lon="4.77733">
        <ele>228</ele>
        <time>2018-04-14T10:27:25Z</time>
      </trkpt>
      <trkpt lat="45.96814" lon="4.7773">
        <ele>228</ele>
        <time>2018-04-14T10:27:26Z</time>
      </trkpt>
      <trkpt lat="45.9681" lon="4.77726">
        <ele>228</ele>
        <time>2018-04-14T10:27:27Z</time>
      </trkpt>
      <trkpt lat="45.96807" lon="4.77721">
        <ele>228</ele>
        <time>2018-04-14T10:27:28Z</time>
      </trkpt>
      <trkpt lat="45.96803" lon="4.77716">
        <ele>228</ele>
        <time>2018-04-14T10:27:29Z</time>
      </trkpt>
      <trkpt lat="45.96798" lon="4.77711">
        <ele>228</ele>
        <time>2018-04-14T10:27:30Z</time>
      </trkpt>
      <trkpt lat="45.96794" lon="4.77706">
        <ele>228</ele>
        <time>2018-04-14T10:27:31Z</time>
      </trkpt>
      <trkpt lat="45.96789" lon="4.777">
        <ele>227</ele>
        <time>2018-04-14T10:27:32Z</time>
      </trkpt>
      <trkpt lat="45.96785" lon="4.77695">
        <ele>227</ele>
        <time>2018-04-14T10:27:33Z</time>
      </trkpt>
      <trkpt lat="45.9678" lon="4.77688">
        <ele>227</ele>
        <time>2018-04-14T10:27:34Z</time>
      </trkpt>
      <trkpt lat="45.96774" lon="4.77683">
        <ele>227</ele>
        <time>2018-04-14T10:27:35Z</time>
      </trkpt>
      <trkpt lat="45.9677" lon="4.77678">
        <ele>227</ele>
        <time>2018-04-14T10:27:36Z</time>
      </trkpt>
      <trkpt lat="45.96765" lon="4.77674">
        <ele>227</ele>
        <time>2018-04-14T10:27:37Z</time>
      </trkpt>
      <trkpt lat="45.9676" lon="4.77668">
        <ele>227</ele>
        <time>2018-04-14T10:27:38Z</time>
      </trkpt>
      <trkpt lat="45.96755" lon="4.77665">
        <ele>227</ele>
        <time>2018-04-14T10:27:39Z</time>
      </trkpt>
      <trkpt lat="45.96751" lon="4.77659">
        <ele>227</ele>
        <time>2018-04-14T10:27:40Z</time>
      </trkpt>
      <trkpt lat="45.96748" lon="4.77654">
        <ele>227</ele>
        <time>2018-04-14T10:27:41Z</time>
      </trkpt>
      <trkpt lat="45.96744" lon="4.77649">
        <ele>227</ele>
        <time>2018-04-14T10:27:42Z</time>
      </trkpt>
      <trkpt lat="45.9674" lon="4.77644">
        <ele>227</ele>
        <time>2018-04-14T10:27:43Z</time>
      </trkpt>
      <trkpt lat="45.96737" lon="4.77639">
        <ele>227</ele>
        <time>2018-04-14T10:27:44Z</time>
      </trkpt>
      <trkpt lat="45.96732" lon="4.77632">
        <ele>226</ele>
        <time>2018-04-14T10:27:45Z</time>
      </trkpt>
      <trkpt lat="45.96727" lon="4.77628">
        <ele>226</ele>
        <time>2018-04-14T10:27:46Z</time>
      </trkpt>
      <trkpt lat="45.96723" lon="4.77623">
        <ele>226</ele>
        <time>2018-04-14T10:27:47Z</time>
      </trkpt>
      <trkpt lat="45.96719" lon="4.77619">
        <ele>226</ele>
        <time>2018-04-14T10:27:48Z</time>
      </trkpt>
      <trkpt lat="45.96713" lon="4.77613">
        <ele>226</ele>
        <time>2018-04-14T10:27:49Z</time>
      </trkpt>
      <trkpt lat="45.96709" lon="4.77607">
        <ele>226</ele>
        <time>2018-04-14T10:27:50Z</time>
      </trkpt>
      <trkpt lat="45.96704" lon="4.77602">
        <ele>226</ele>
        <time>2018-04-14T10:27:51Z</time>
      </trkpt>
      <trkpt lat="45.96698" lon="4.77596">
        <ele>226</ele>
        <time>2018-04-14T10:27:52Z</time>
      </trkpt>
      <trkpt lat="45.96694" lon="4.77591">
        <ele>226</ele>
        <time>2018-04-14T10:27:53Z</time>
      </trkpt>
      <trkpt lat="45.96689" lon="4.77586">
        <ele>226</ele>
        <time>2018-04-14T10:27:54Z</time>
      </trkpt>
      <trkpt lat="45.96684" lon="4.7758">
        <ele>225</ele>
        <time>2018-04-14T10:27:55Z</time>
      </trkpt>
      <trkpt lat="45.96678" lon="4.77576">
        <ele>225</ele>
        <time>2018-04-14T10:27:56Z</time>
      </trkpt>
      <trkpt lat="45.96673" lon="4.77571">
        <ele>225</ele>
        <time>2018-04-14T10:27:57Z</time>
      </trkpt>
      <trkpt lat="45.96666" lon="4.77568">
        <ele>225</ele>
        <time>2018-04-14T10:27:58Z</time>
      </trkpt>
      <trkpt lat="45.9666" lon="4.77563">
        <ele>225</ele>
        <time>2018-04-14T10:27:59Z</time>
      </trkpt>
      <trkpt lat="45.96654" lon="4.77559">
        <ele>224</ele>
        <time>2018-04-14T10:28:00Z</time>
      </trkpt>
      <trkpt lat="45.96648" lon="4.77555">
        <ele>224</ele>
        <time>2018-04-14T10:28:01Z</time>
      </trkpt>
      <trkpt lat="45.96642" lon="4.77548">
        <ele>224</ele>
        <time>2018-04-14T10:28:02Z</time>
      </trkpt>
      <trkpt lat="45.96636" lon="4.77545">
        <ele>224</ele>
        <time>2018-04-14T10:28:03Z</time>
      </trkpt>
      <trkpt lat="45.9663" lon="4.7754">
        <ele>224</ele>
        <time>2018-04-14T10:28:04Z</time>
      </trkpt>
      <trkpt lat="45.96624" lon="4.77535">
        <ele>224</ele>
        <time>2018-04-14T10:28:05Z</time>
      </trkpt>
      <trkpt lat="45.96618" lon="4.77529">
        <ele>224</ele>
        <time>2018-04-14T10:28:06Z</time>
      </trkpt>
      <trkpt lat="45.96612" lon="4.77524">
        <ele>224</ele>
        <time>2018-04-14T10:28:07Z</time>
      </trkpt>
      <trkpt lat="45.96607" lon="4.77522">
        <ele>224</ele>
        <time>2018-04-14T10:28:08Z</time>
      </trkpt>
      <trkpt lat="45.96601" lon="4.77519">
        <ele>224</ele>
        <time>2018-04-14T10:28:09Z</time>
      </trkpt>
      <trkpt lat="45.96596" lon="4.77515">
        <ele>224</ele>
        <time>2018-04-14T10:28:10Z</time>
      </trkpt>
      <trkpt lat="45.96591" lon="4.77514">
        <ele>224</ele>
        <time>2018-04-14T10:28:11Z</time>
      </trkpt>
      <trkpt lat="45.96585" lon="4.7751">
        <ele>224</ele>
        <time>2018-04-14T10:28:12Z</time>
      </trkpt>
      <trkpt lat="45.96577" lon="4.77508">
        <ele>224</ele>
        <time>2018-04-14T10:28:14Z</time>
      </trkpt>
      <trkpt lat="45.96572" lon="4.77505">
        <ele>224</ele>
        <time>2018-04-14T10:28:15Z</time>
      </trkpt>
      <trkpt lat="45.96566" lon="4.77502">
        <ele>223</ele>
        <time>2018-04-14T10:28:16Z</time>
      </trkpt>
      <trkpt lat="45.96561" lon="4.775">
        <ele>223</ele>
        <time>2018-04-14T10:28:17Z</time>
      </trkpt>
      <trkpt lat="45.96556" lon="4.77496">
        <ele>223</ele>
        <time>2018-04-14T10:28:18Z</time>
      </trkpt>
      <trkpt lat="45.96551" lon="4.77491">
        <ele>223</ele>
        <time>2018-04-14T10:28:19Z</time>
      </trkpt>
      <trkpt lat="45.96544" lon="4.77485">
        <ele>223</ele>
        <time>2018-04-14T10:28:20Z</time>
      </trkpt>
      <trkpt lat="45.96539" lon="4.77481">
        <ele>223</ele>
        <time>2018-04-14T10:28:21Z</time>
      </trkpt>
      <trkpt lat="45.96534" lon="4.77478">
        <ele>223</ele>
        <time>2018-04-14T10:28:22Z</time>
      </trkpt>
      <trkpt lat="45.96528" lon="4.77473">
        <ele>223</ele>
        <time>2018-04-14T10:28:23Z</time>
      </trkpt>
      <trkpt lat="45.96522" lon="4.77469">
        <ele>223</ele>
        <time>2018-04-14T10:28:24Z</time>
      </trkpt>
      <trkpt lat="45.96517" lon="4.77466">
        <ele>223</ele>
        <time>2018-04-14T10:28:25Z</time>
      </trkpt>
      <trkpt lat="45.96512" lon="4.77464">
        <ele>223</ele>
        <time>2018-04-14T10:28:26Z</time>
      </trkpt>
      <trkpt lat="45.96506" lon="4.77462">
        <ele>223</ele>
        <time>2018-04-14T10:28:27Z</time>
      </trkpt>
      <trkpt lat="45.965" lon="4.77457">
        <ele>223</ele>
        <time>2018-04-14T10:28:28Z</time>
      </trkpt>
      <trkpt lat="45.96495" lon="4.77453">
        <ele>221</ele>
        <time>2018-04-14T10:28:29Z</time>
      </trkpt>
      <trkpt lat="45.96488" lon="4.77449">
        <ele>221</ele>
        <time>2018-04-14T10:28:30Z</time>
      </trkpt>
      <trkpt lat="45.96482" lon="4.77444">
        <ele>221</ele>
        <time>2018-04-14T10:28:31Z</time>
      </trkpt>
      <trkpt lat="45.96475" lon="4.7744">
        <ele>221</ele>
        <time>2018-04-14T10:28:32Z</time>
      </trkpt>
      <trkpt lat="45.9647" lon="4.77437">
        <ele>221</ele>
        <time>2018-04-14T10:28:33Z</time>
      </trkpt>
      <trkpt lat="45.96464" lon="4.77434">
        <ele>221</ele>
        <time>2018-04-14T10:28:34Z</time>
      </trkpt>
      <trkpt lat="45.96459" lon="4.7743">
        <ele>221</ele>
        <time>2018-04-14T10:28:35Z</time>
      </trkpt>
      <trkpt lat="45.96453" lon="4.77426">
        <ele>221</ele>
        <time>2018-04-14T10:28:36Z</time>
      </trkpt>
      <trkpt lat="45.96447" lon="4.77423">
        <ele>221</ele>
        <time>2018-04-14T10:28:37Z</time>
      </trkpt>
      <trkpt lat="45.96442" lon="4.77419">
        <ele>221</ele>
        <time>2018-04-14T10:28:38Z</time>
      </trkpt>
      <trkpt lat="45.96436" lon="4.77415">
        <ele>222</ele>
        <time>2018-04-14T10:28:39Z</time>
      </trkpt>
      <trkpt lat="45.96429" lon="4.7741">
        <ele>222</ele>
        <time>2018-04-14T10:28:40Z</time>
      </trkpt>
      <trkpt lat="45.96423" lon="4.77406">
        <ele>222</ele>
        <time>2018-04-14T10:28:41Z</time>
      </trkpt>
      <trkpt lat="45.96417" lon="4.77397">
        <ele>222</ele>
        <time>2018-04-14T10:28:42Z</time>
      </trkpt>
      <trkpt lat="45.96411" lon="4.77394">
        <ele>220</ele>
        <time>2018-04-14T10:28:43Z</time>
      </trkpt>
      <trkpt lat="45.96405" lon="4.7739">
        <ele>220</ele>
        <time>2018-04-14T10:28:44Z</time>
      </trkpt>
      <trkpt lat="45.96399" lon="4.77387">
        <ele>220</ele>
        <time>2018-04-14T10:28:45Z</time>
      </trkpt>
      <trkpt lat="45.96393" lon="4.77384">
        <ele>220</ele>
        <time>2018-04-14T10:28:46Z</time>
      </trkpt>
      <trkpt lat="45.96388" lon="4.77383">
        <ele>220</ele>
        <time>2018-04-14T10:28:47Z</time>
      </trkpt>
      <trkpt lat="45.96382" lon="4.7738">
        <ele>220</ele>
        <time>2018-04-14T10:28:48Z</time>
      </trkpt>
      <trkpt lat="45.96376" lon="4.77377">
        <ele>219</ele>
        <time>2018-04-14T10:28:49Z</time>
      </trkpt>
      <trkpt lat="45.96371" lon="4.77374">
        <ele>219</ele>
        <time>2018-04-14T10:28:50Z</time>
      </trkpt>
      <trkpt lat="45.96364" lon="4.77369">
        <ele>219</ele>
        <time>2018-04-14T10:28:51Z</time>
      </trkpt>
      <trkpt lat="45.96358" lon="4.77366">
        <ele>219</ele>
        <time>2018-04-14T10:28:52Z</time>
      </trkpt>
      <trkpt lat="45.96352" lon="4.77362">
        <ele>219</ele>
        <time>2018-04-14T10:28:53Z</time>
      </trkpt>
      <trkpt lat="45.96347" lon="4.77359">
        <ele>219</ele>
        <time>2018-04-14T10:28:54Z</time>
      </trkpt>
      <trkpt lat="45.96342" lon="4.77355">
        <ele>219</ele>
        <time>2018-04-14T10:28:55Z</time>
      </trkpt>
      <trkpt lat="45.96336" lon="4.77351">
        <ele>220</ele>
        <time>2018-04-14T10:28:56Z</time>
      </trkpt>
      <trkpt lat="45.9633" lon="4.77346">
        <ele>218</ele>
        <time>2018-04-14T10:28:57Z</time>
      </trkpt>
      <trkpt lat="45.96324" lon="4.77342">
        <ele>218</ele>
        <time>2018-04-14T10:28:58Z</time>
      </trkpt>
      <trkpt lat="45.96318" lon="4.77338">
        <ele>218</ele>
        <time>2018-04-14T10:28:59Z</time>
      </trkpt>
      <trkpt lat="45.96311" lon="4.77334">
        <ele>218</ele>
        <time>2018-04-14T10:29:00Z</time>
      </trkpt>
      <trkpt lat="45.96305" lon="4.77332">
        <ele>219</ele>
        <time>2018-04-14T10:29:01Z</time>
      </trkpt>
      <trkpt lat="45.96299" lon="4.77329">
        <ele>219</ele>
        <time>2018-04-14T10:29:02Z</time>
      </trkpt>
      <trkpt lat="45.96293" lon="4.77326">
        <ele>219</ele>
        <time>2018-04-14T10:29:03Z</time>
      </trkpt>
      <trkpt lat="45.96287" lon="4.77323">
        <ele>219</ele>
        <time>2018-04-14T10:29:04Z</time>
      </trkpt>
      <trkpt lat="45.96282" lon="4.77319">
        <ele>219</ele>
        <time>2018-04-14T10:29:05Z</time>
      </trkpt>
      <trkpt lat="45.96276" lon="4.77316">
        <ele>219</ele>
        <time>2018-04-14T10:29:06Z</time>
      </trkpt>
      <trkpt lat="45.96271" lon="4.77313">
        <ele>219</ele>
        <time>2018-04-14T10:29:07Z</time>
      </trkpt>
      <trkpt lat="45.96265" lon="4.77311">
        <ele>218</ele>
        <time>2018-04-14T10:29:08Z</time>
      </trkpt>
      <trkpt lat="45.9626" lon="4.7731">
        <ele>218</ele>
        <time>2018-04-14T10:29:09Z</time>
      </trkpt>
      <trkpt lat="45.96254" lon="4.77307">
        <ele>218</ele>
        <time>2018-04-14T10:29:10Z</time>
      </trkpt>
      <trkpt lat="45.96249" lon="4.77305">
        <ele>217</ele>
        <time>2018-04-14T10:29:11Z</time>
      </trkpt>
      <trkpt lat="45.96243" lon="4.77304">
        <ele>217</ele>
        <time>2018-04-14T10:29:12Z</time>
      </trkpt>
      <trkpt lat="45.96237" lon="4.77301">
        <ele>217</ele>
        <time>2018-04-14T10:29:13Z</time>
      </trkpt>
      <trkpt lat="45.96231" lon="4.77298">
        <ele>217</ele>
        <time>2018-04-14T10:29:14Z</time>
      </trkpt>
      <trkpt lat="45.96225" lon="4.77295">
        <ele>217</ele>
        <time>2018-04-14T10:29:15Z</time>
      </trkpt>
      <trkpt lat="45.9622" lon="4.77291">
        <ele>217</ele>
        <time>2018-04-14T10:29:16Z</time>
      </trkpt>
      <trkpt lat="45.96214" lon="4.77288">
        <ele>216</ele>
        <time>2018-04-14T10:29:17Z</time>
      </trkpt>
      <trkpt lat="45.96209" lon="4.77284">
        <ele>216</ele>
        <time>2018-04-14T10:29:18Z</time>
      </trkpt>
      <trkpt lat="45.96204" lon="4.77281">
        <ele>216</ele>
        <time>2018-04-14T10:29:19Z</time>
      </trkpt>
      <trkpt lat="45.96197" lon="4.77276">
        <ele>216</ele>
        <time>2018-04-14T10:29:20Z</time>
      </trkpt>
      <trkpt lat="45.96191" lon="4.77273">
        <ele>216</ele>
        <time>2018-04-14T10:29:21Z</time>
      </trkpt>
      <trkpt lat="45.96185" lon="4.7727">
        <ele>216</ele>
        <time>2018-04-14T10:29:22Z</time>
      </trkpt>
      <trkpt lat="45.96179" lon="4.77267">
        <ele>216</ele>
        <time>2018-04-14T10:29:23Z</time>
      </trkpt>
      <trkpt lat="45.96173" lon="4.77264">
        <ele>216</ele>
        <time>2018-04-14T10:29:24Z</time>
      </trkpt>
      <trkpt lat="45.96167" lon="4.77262">
        <ele>216</ele>
        <time>2018-04-14T10:29:25Z</time>
      </trkpt>
      <trkpt lat="45.96163" lon="4.77259">
        <ele>214</ele>
        <time>2018-04-14T10:29:26Z</time>
      </trkpt>
      <trkpt lat="45.96157" lon="4.77257">
        <ele>214</ele>
        <time>2018-04-14T10:29:27Z</time>
      </trkpt>
      <trkpt lat="45.96151" lon="4.77252">
        <ele>214</ele>
        <time>2018-04-14T10:29:28Z</time>
      </trkpt>
      <trkpt lat="45.96145" lon="4.7725">
        <ele>215</ele>
        <time>2018-04-14T10:29:29Z</time>
      </trkpt>
      <trkpt lat="45.96138" lon="4.77248">
        <ele>215</ele>
        <time>2018-04-14T10:29:30Z</time>
      </trkpt>
      <trkpt lat="45.96133" lon="4.77245">
        <ele>215</ele>
        <time>2018-04-14T10:29:31Z</time>
      </trkpt>
      <trkpt lat="45.96126" lon="4.77244">
        <ele>214</ele>
        <time>2018-04-14T10:29:32Z</time>
      </trkpt>
      <trkpt lat="45.9612" lon="4.77243">
        <ele>214</ele>
        <time>2018-04-14T10:29:33Z</time>
      </trkpt>
      <trkpt lat="45.96114" lon="4.77244">
        <ele>214</ele>
        <time>2018-04-14T10:29:34Z</time>
      </trkpt>
      <trkpt lat="45.96107" lon="4.77243">
        <ele>213</ele>
        <time>2018-04-14T10:29:35Z</time>
      </trkpt>
      <trkpt lat="45.96102" lon="4.77242">
        <ele>213</ele>
        <time>2018-04-14T10:29:36Z</time>
      </trkpt>
      <trkpt lat="45.96096" lon="4.77242">
        <ele>212</ele>
        <time>2018-04-14T10:29:37Z</time>
      </trkpt>
      <trkpt lat="45.96089" lon="4.77243">
        <ele>212</ele>
        <time>2018-04-14T10:29:38Z</time>
      </trkpt>
      <trkpt lat="45.96082" lon="4.77242">
        <ele>210</ele>
        <time>2018-04-14T10:29:39Z</time>
      </trkpt>
      <trkpt lat="45.96075" lon="4.77242">
        <ele>210</ele>
        <time>2018-04-14T10:29:40Z</time>
      </trkpt>
      <trkpt lat="45.96069" lon="4.77242">
        <ele>210</ele>
        <time>2018-04-14T10:29:41Z</time>
      </trkpt>
      <trkpt lat="45.96061" lon="4.77241">
        <ele>209</ele>
        <time>2018-04-14T10:29:42Z</time>
      </trkpt>
      <trkpt lat="45.96055" lon="4.77243">
        <ele>209</ele>
        <time>2018-04-14T10:29:43Z</time>
      </trkpt>
      <trkpt lat="45.96047" lon="4.77243">
        <ele>209</ele>
        <time>2018-04-14T10:29:44Z</time>
      </trkpt>
      <trkpt lat="45.96039" lon="4.77244">
        <ele>208</ele>
        <time>2018-04-14T10:29:45Z</time>
      </trkpt>
      <trkpt lat="45.96032" lon="4.77244">
        <ele>208</ele>
        <time>2018-04-14T10:29:46Z</time>
      </trkpt>
      <trkpt lat="45.96024" lon="4.77244">
        <ele>207</ele>
        <time>2018-04-14T10:29:47Z</time>
      </trkpt>
      <trkpt lat="45.96018" lon="4.77244">
        <ele>206</ele>
        <time>2018-04-14T10:29:48Z</time>
      </trkpt>
      <trkpt lat="45.96011" lon="4.77244">
        <ele>205</ele>
        <time>2018-04-14T10:29:49Z</time>
      </trkpt>
      <trkpt lat="45.96003" lon="4.77243">
        <ele>205</ele>
        <time>2018-04-14T10:29:50Z</time>
      </trkpt>
      <trkpt lat="45.95995" lon="4.77241">
        <ele>203</ele>
        <time>2018-04-14T10:29:51Z</time>
      </trkpt>
      <trkpt lat="45.95988" lon="4.7724">
        <ele>202</ele>
        <time>2018-04-14T10:29:52Z</time>
      </trkpt>
      <trkpt lat="45.9598" lon="4.77235">
        <ele>202</ele>
        <time>2018-04-14T10:29:53Z</time>
      </trkpt>
      <trkpt lat="45.95974" lon="4.77231">
        <ele>202</ele>
        <time>2018-04-14T10:29:54Z</time>
      </trkpt>
      <trkpt lat="45.95968" lon="4.77226">
        <ele>201</ele>
        <time>2018-04-14T10:29:55Z</time>
      </trkpt>
      <trkpt lat="45.95962" lon="4.77221">
        <ele>201</ele>
        <time>2018-04-14T10:29:56Z</time>
      </trkpt>
      <trkpt lat="45.95956" lon="4.77213">
        <ele>201</ele>
        <time>2018-04-14T10:29:57Z</time>
      </trkpt>
      <trkpt lat="45.95951" lon="4.77203">
        <ele>201</ele>
        <time>2018-04-14T10:29:58Z</time>
      </trkpt>
      <trkpt lat="45.95946" lon="4.77191">
        <ele>201</ele>
        <time>2018-04-14T10:29:59Z</time>
      </trkpt>
      <trkpt lat="45.95943" lon="4.7718">
        <ele>200</ele>
        <time>2018-04-14T10:30:00Z</time>
      </trkpt>
      <trkpt lat="45.9594" lon="4.77168">
        <ele>200</ele>
        <time>2018-04-14T10:30:01Z</time>
      </trkpt>
      <trkpt lat="45.95939" lon="4.77158">
        <ele>200</ele>
        <time>2018-04-14T10:30:02Z</time>
      </trkpt>
      <trkpt lat="45.95938" lon="4.77146">
        <ele>201</ele>
        <time>2018-04-14T10:30:03Z</time>
      </trkpt>
      <trkpt lat="45.95937" lon="4.77134">
        <ele>201</ele>
        <time>2018-04-14T10:30:04Z</time>
      </trkpt>
      <trkpt lat="45.95937" lon="4.77123">
        <ele>201</ele>
        <time>2018-04-14T10:30:05Z</time>
      </trkpt>
      <trkpt lat="45.95937" lon="4.77112">
        <ele>201</ele>
        <time>2018-04-14T10:30:06Z</time>
      </trkpt>
      <trkpt lat="45.95938" lon="4.771">
        <ele>201</ele>
        <time>2018-04-14T10:30:07Z</time>
      </trkpt>
      <trkpt lat="45.95941" lon="4.7709">
        <ele>201</ele>
        <time>2018-04-14T10:30:08Z</time>
      </trkpt>
      <trkpt lat="45.95944" lon="4.77078">
        <ele>200</ele>
        <time>2018-04-14T10:30:09Z</time>
      </trkpt>
      <trkpt lat="45.95947" lon="4.77068">
        <ele>200</ele>
        <time>2018-04-14T10:30:10Z</time>
      </trkpt>
      <trkpt lat="45.95951" lon="4.77057">
        <ele>200</ele>
        <time>2018-04-14T10:30:11Z</time>
      </trkpt>
      <trkpt lat="45.95955" lon="4.77048">
        <ele>200</ele>
        <time>2018-04-14T10:30:12Z</time>
      </trkpt>
      <trkpt lat="45.95959" lon="4.77038">
        <ele>200</ele>
        <time>2018-04-14T10:30:13Z</time>
      </trkpt>
      <trkpt lat="45.95963" lon="4.7703">
        <ele>200</ele>
        <time>2018-04-14T10:30:14Z</time>
      </trkpt>
      <trkpt lat="45.95969" lon="4.77021">
        <ele>200</ele>
        <time>2018-04-14T10:30:15Z</time>
      </trkpt>
      <trkpt lat="45.95972" lon="4.7701">
        <ele>200</ele>
        <time>2018-04-14T10:30:16Z</time>
      </trkpt>
      <trkpt lat="45.95975" lon="4.77">
        <ele>200</ele>
        <time>2018-04-14T10:30:17Z</time>
      </trkpt>
      <trkpt lat="45.95976" lon="4.76991">
        <ele>197</ele>
        <time>2018-04-14T10:30:18Z</time>
      </trkpt>
      <trkpt lat="45.95977" lon="4.76979">
        <ele>197</ele>
        <time>2018-04-14T10:30:19Z</time>
      </trkpt>
      <trkpt lat="45.95976" lon="4.76967">
        <ele>196</ele>
        <time>2018-04-14T10:30:20Z</time>
      </trkpt>
      <trkpt lat="45.95977" lon="4.76956">
        <ele>196</ele>
        <time>2018-04-14T10:30:21Z</time>
      </trkpt>
      <trkpt lat="45.95973" lon="4.76945">
        <ele>196</ele>
        <time>2018-04-14T10:30:22Z</time>
      </trkpt>
      <trkpt lat="45.95968" lon="4.76936">
        <ele>195</ele>
        <time>2018-04-14T10:30:23Z</time>
      </trkpt>
      <trkpt lat="45.95962" lon="4.76929">
        <ele>195</ele>
        <time>2018-04-14T10:30:24Z</time>
      </trkpt>
      <trkpt lat="45.95956" lon="4.76921">
        <ele>195</ele>
        <time>2018-04-14T10:30:25Z</time>
      </trkpt>
      <trkpt lat="45.95949" lon="4.76913">
        <ele>193</ele>
        <time>2018-04-14T10:30:26Z</time>
      </trkpt>
      <trkpt lat="45.95941" lon="4.76905">
        <ele>192</ele>
        <time>2018-04-14T10:30:27Z</time>
      </trkpt>
      <trkpt lat="45.95934" lon="4.76898">
        <ele>192</ele>
        <time>2018-04-14T10:30:28Z</time>
      </trkpt>
      <trkpt lat="45.95926" lon="4.76888">
        <ele>192</ele>
        <time>2018-04-14T10:30:29Z</time>
      </trkpt>
      <trkpt lat="45.95919" lon="4.76881">
        <ele>192</ele>
        <time>2018-04-14T10:30:30Z</time>
      </trkpt>
      <trkpt lat="45.95912" lon="4.76873">
        <ele>191</ele>
        <time>2018-04-14T10:30:31Z</time>
      </trkpt>
      <trkpt lat="45.95905" lon="4.76865">
        <ele>191</ele>
        <time>2018-04-14T10:30:32Z</time>
      </trkpt>
      <trkpt lat="45.95897" lon="4.76858">
        <ele>191</ele>
        <time>2018-04-14T10:30:33Z</time>
      </trkpt>
      <trkpt lat="45.95891" lon="4.76856">
        <ele>191</ele>
        <time>2018-04-14T10:30:34Z</time>
      </trkpt>
      <trkpt lat="45.95884" lon="4.76848">
        <ele>191</ele>
        <time>2018-04-14T10:30:35Z</time>
      </trkpt>
      <trkpt lat="45.95878" lon="4.76841">
        <ele>191</ele>
        <time>2018-04-14T10:30:36Z</time>
      </trkpt>
      <trkpt lat="45.95872" lon="4.76836">
        <ele>190</ele>
        <time>2018-04-14T10:30:37Z</time>
      </trkpt>
      <trkpt lat="45.95865" lon="4.76831">
        <ele>191</ele>
        <time>2018-04-14T10:30:38Z</time>
      </trkpt>
      <trkpt lat="45.95859" lon="4.76824">
        <ele>191</ele>
        <time>2018-04-14T10:30:39Z</time>
      </trkpt>
      <trkpt lat="45.95853" lon="4.76818">
        <ele>191</ele>
        <time>2018-04-14T10:30:40Z</time>
      </trkpt>
      <trkpt lat="45.95848" lon="4.76811">
        <ele>191</ele>
        <time>2018-04-14T10:30:41Z</time>
      </trkpt>
      <trkpt lat="45.95842" lon="4.76804">
        <ele>191</ele>
        <time>2018-04-14T10:30:42Z</time>
      </trkpt>
      <trkpt lat="45.95837" lon="4.76797">
        <ele>191</ele>
        <time>2018-04-14T10:30:43Z</time>
      </trkpt>
      <trkpt lat="45.95833" lon="4.7679">
        <ele>190</ele>
        <time>2018-04-14T10:30:44Z</time>
      </trkpt>
      <trkpt lat="45.95829" lon="4.76782">
        <ele>190</ele>
        <time>2018-04-14T10:30:45Z</time>
      </trkpt>
      <trkpt lat="45.95828" lon="4.76773">
        <ele>190</ele>
        <time>2018-04-14T10:30:46Z</time>
      </trkpt>
      <trkpt lat="45.95827" lon="4.76763">
        <ele>190</ele>
        <time>2018-04-14T10:30:47Z</time>
      </trkpt>
      <trkpt lat="45.95825" lon="4.76753">
        <ele>191</ele>
        <time>2018-04-14T10:30:48Z</time>
      </trkpt>
      <trkpt lat="45.95823" lon="4.76744">
        <ele>190</ele>
        <time>2018-04-14T10:30:49Z</time>
      </trkpt>
      <trkpt lat="45.95822" lon="4.76733">
        <ele>190</ele>
        <time>2018-04-14T10:30:50Z</time>
      </trkpt>
      <trkpt lat="45.9582" lon="4.76723">
        <ele>189</ele>
        <time>2018-04-14T10:30:51Z</time>
      </trkpt>
      <trkpt lat="45.95819" lon="4.76714">
        <ele>189</ele>
        <time>2018-04-14T10:30:52Z</time>
      </trkpt>
      <trkpt lat="45.95818" lon="4.76705">
        <ele>189</ele>
        <time>2018-04-14T10:30:53Z</time>
      </trkpt>
      <trkpt lat="45.95817" lon="4.76696">
        <ele>189</ele>
        <time>2018-04-14T10:30:54Z</time>
      </trkpt>
      <trkpt lat="45.95816" lon="4.76686">
        <ele>189</ele>
        <time>2018-04-14T10:30:55Z</time>
      </trkpt>
      <trkpt lat="45.95815" lon="4.76677">
        <ele>189</ele>
        <time>2018-04-14T10:30:56Z</time>
      </trkpt>
      <trkpt lat="45.95814" lon="4.76669">
        <ele>189</ele>
        <time>2018-04-14T10:30:57Z</time>
      </trkpt>
      <trkpt lat="45.95812" lon="4.76661">
        <ele>188</ele>
        <time>2018-04-14T10:30:58Z</time>
      </trkpt>
      <trkpt lat="45.95812" lon="4.76652">
        <ele>188</ele>
        <time>2018-04-14T10:30:59Z</time>
      </trkpt>
      <trkpt lat="45.9581" lon="4.76643">
        <ele>188</ele>
        <time>2018-04-14T10:31:00Z</time>
      </trkpt>
      <trkpt lat="45.95809" lon="4.76635">
        <ele>188</ele>
        <time>2018-04-14T10:31:01Z</time>
      </trkpt>
      <trkpt lat="45.95808" lon="4.76628">
        <ele>188</ele>
        <time>2018-04-14T10:31:02Z</time>
      </trkpt>
      <trkpt lat="45.95807" lon="4.7662">
        <ele>188</ele>
        <time>2018-04-14T10:31:03Z</time>
      </trkpt>
      <trkpt lat="45.95805" lon="4.7661">
        <ele>188</ele>
        <time>2018-04-14T10:31:04Z</time>
      </trkpt>
      <trkpt lat="45.95804" lon="4.76602">
        <ele>188</ele>
        <time>2018-04-14T10:31:05Z</time>
      </trkpt>
      <trkpt lat="45.95802" lon="4.76595">
        <ele>187</ele>
        <time>2018-04-14T10:31:06Z</time>
      </trkpt>
      <trkpt lat="45.958" lon="4.76587">
        <ele>187</ele>
        <time>2018-04-14T10:31:07Z</time>
      </trkpt>
      <trkpt lat="45.95798" lon="4.76578">
        <ele>187</ele>
        <time>2018-04-14T10:31:08Z</time>
      </trkpt>
      <trkpt lat="45.95799" lon="4.76569">
        <ele>187</ele>
        <time>2018-04-14T10:31:09Z</time>
      </trkpt>
      <trkpt lat="45.95798" lon="4.76561">
        <ele>187</ele>
        <time>2018-04-14T10:31:10Z</time>
      </trkpt>
      <trkpt lat="45.95796" lon="4.76552">
        <ele>187</ele>
        <time>2018-04-14T10:31:11Z</time>
      </trkpt>
      <trkpt lat="45.95794" lon="4.76543">
        <ele>187</ele>
        <time>2018-04-14T10:31:12Z</time>
      </trkpt>
      <trkpt lat="45.95794" lon="4.76536">
        <ele>187</ele>
        <time>2018-04-14T10:31:13Z</time>
      </trkpt>
      <trkpt lat="45.95793" lon="4.76529">
        <ele>187</ele>
        <time>2018-04-14T10:31:14Z</time>
      </trkpt>
      <trkpt lat="45.95792" lon="4.76521">
        <ele>187</ele>
        <time>2018-04-14T10:31:15Z</time>
      </trkpt>
      <trkpt lat="45.9579" lon="4.76514">
        <ele>187</ele>
        <time>2018-04-14T10:31:16Z</time>
      </trkpt>
      <trkpt lat="45.95788" lon="4.76506">
        <ele>187</ele>
        <time>2018-04-14T10:31:17Z</time>
      </trkpt>
      <trkpt lat="45.95786" lon="4.76498">
        <ele>186</ele>
        <time>2018-04-14T10:31:18Z</time>
      </trkpt>
      <trkpt lat="45.95785" lon="4.7649">
        <ele>186</ele>
        <time>2018-04-14T10:31:19Z</time>
      </trkpt>
      <trkpt lat="45.95785" lon="4.76482">
        <ele>186</ele>
        <time>2018-04-14T10:31:20Z</time>
      </trkpt>
      <trkpt lat="45.95784" lon="4.76475">
        <ele>186</ele>
        <time>2018-04-14T10:31:21Z</time>
      </trkpt>
      <trkpt lat="45.95784" lon="4.76468">
        <ele>186</ele>
        <time>2018-04-14T10:31:22Z</time>
      </trkpt>
      <trkpt lat="45.95783" lon="4.7646">
        <ele>186</ele>
        <time>2018-04-14T10:31:23Z</time>
      </trkpt>
      <trkpt lat="45.95783" lon="4.76454">
        <ele>186</ele>
        <time>2018-04-14T10:31:24Z</time>
      </trkpt>
      <trkpt lat="45.95782" lon="4.76446">
        <ele>186</ele>
        <time>2018-04-14T10:31:25Z</time>
      </trkpt>
      <trkpt lat="45.95782" lon="4.76438">
        <ele>186</ele>
        <time>2018-04-14T10:31:26Z</time>
      </trkpt>
      <trkpt lat="45.95779" lon="4.76428">
        <ele>186</ele>
        <time>2018-04-14T10:31:27Z</time>
      </trkpt>
      <trkpt lat="45.95778" lon="4.76419">
        <ele>186</ele>
        <time>2018-04-14T10:31:28Z</time>
      </trkpt>
      <trkpt lat="45.95778" lon="4.76412">
        <ele>186</ele>
        <time>2018-04-14T10:31:29Z</time>
      </trkpt>
      <trkpt lat="45.95778" lon="4.76406">
        <ele>186</ele>
        <time>2018-04-14T10:31:30Z</time>
      </trkpt>
      <trkpt lat="45.95777" lon="4.76399">
        <ele>186</ele>
        <time>2018-04-14T10:31:31Z</time>
      </trkpt>
      <trkpt lat="45.95776" lon="4.7639">
        <ele>186</ele>
        <time>2018-04-14T10:31:32Z</time>
      </trkpt>
      <trkpt lat="45.95774" lon="4.76382">
        <ele>186</ele>
        <time>2018-04-14T10:31:33Z</time>
      </trkpt>
      <trkpt lat="45.95773" lon="4.76374">
        <ele>186</ele>
        <time>2018-04-14T10:31:34Z</time>
      </trkpt>
      <trkpt lat="45.95772" lon="4.76366">
        <ele>186</ele>
        <time>2018-04-14T10:31:35Z</time>
      </trkpt>
      <trkpt lat="45.95772" lon="4.76357">
        <ele>186</ele>
        <time>2018-04-14T10:31:36Z</time>
      </trkpt>
      <trkpt lat="45.95773" lon="4.7635">
        <ele>186</ele>
        <time>2018-04-14T10:31:37Z</time>
      </trkpt>
      <trkpt lat="45.95771" lon="4.76341">
        <ele>186</ele>
        <time>2018-04-14T10:31:38Z</time>
      </trkpt>
      <trkpt lat="45.9577" lon="4.76333">
        <ele>185</ele>
        <time>2018-04-14T10:31:39Z</time>
      </trkpt>
      <trkpt lat="45.95769" lon="4.76325">
        <ele>185</ele>
        <time>2018-04-14T10:31:40Z</time>
      </trkpt>
      <trkpt lat="45.95769" lon="4.76317">
        <ele>185</ele>
        <time>2018-04-14T10:31:41Z</time>
      </trkpt>
      <trkpt lat="45.95769" lon="4.76309">
        <ele>186</ele>
        <time>2018-04-14T10:31:42Z</time>
      </trkpt>
      <trkpt lat="45.95769" lon="4.76301">
        <ele>186</ele>
        <time>2018-04-14T10:31:43Z</time>
      </trkpt>
      <trkpt lat="45.95769" lon="4.76294">
        <ele>186</ele>
        <time>2018-04-14T10:31:44Z</time>
      </trkpt>
      <trkpt lat="45.95768" lon="4.76286">
        <ele>186</ele>
        <time>2018-04-14T10:31:45Z</time>
      </trkpt>
      <trkpt lat="45.95768" lon="4.76278">
        <ele>186</ele>
        <time>2018-04-14T10:31:46Z</time>
      </trkpt>
      <trkpt lat="45.95768" lon="4.76271">
        <ele>186</ele>
        <time>2018-04-14T10:31:47Z</time>
      </trkpt>
      <trkpt lat="45.95768" lon="4.76264">
        <ele>185</ele>
        <time>2018-04-14T10:31:48Z</time>
      </trkpt>
      <trkpt lat="45.95767" lon="4.76257">
        <ele>185</ele>
        <time>2018-04-14T10:31:49Z</time>
      </trkpt>
      <trkpt lat="45.95765" lon="4.76249">
        <ele>185</ele>
        <time>2018-04-14T10:31:50Z</time>
      </trkpt>
      <trkpt lat="45.95765" lon="4.76241">
        <ele>186</ele>
        <time>2018-04-14T10:31:51Z</time>
      </trkpt>
      <trkpt lat="45.95765" lon="4.76234">
        <ele>186</ele>
        <time>2018-04-14T10:31:52Z</time>
      </trkpt>
      <trkpt lat="45.95764" lon="4.76223">
        <ele>186</ele>
        <time>2018-04-14T10:31:54Z</time>
      </trkpt>
      <trkpt lat="45.95764" lon="4.76214">
        <ele>186</ele>
        <time>2018-04-14T10:31:55Z</time>
      </trkpt>
      <trkpt lat="45.95764" lon="4.76206">
        <ele>186</ele>
        <time>2018-04-14T10:31:56Z</time>
      </trkpt>
      <trkpt lat="45.95763" lon="4.76197">
        <ele>186</ele>
        <time>2018-04-14T10:31:57Z</time>
      </trkpt>
      <trkpt lat="45.95763" lon="4.76188">
        <ele>186</ele>
        <time>2018-04-14T10:31:58Z</time>
      </trkpt>
      <trkpt lat="45.95763" lon="4.7618">
        <ele>186</ele>
        <time>2018-04-14T10:31:59Z</time>
      </trkpt>
      <trkpt lat="45.95762" lon="4.76171">
        <ele>185</ele>
        <time>2018-04-14T10:32:00Z</time>
      </trkpt>
      <trkpt lat="45.95762" lon="4.76164">
        <ele>186</ele>
        <time>2018-04-14T10:32:01Z</time>
      </trkpt>
      <trkpt lat="45.95761" lon="4.76155">
        <ele>186</ele>
        <time>2018-04-14T10:32:02Z</time>
      </trkpt>
      <trkpt lat="45.95761" lon="4.76146">
        <ele>186</ele>
        <time>2018-04-14T10:32:03Z</time>
      </trkpt>
      <trkpt lat="45.9576" lon="4.76139">
        <ele>186</ele>
        <time>2018-04-14T10:32:04Z</time>
      </trkpt>
      <trkpt lat="45.95759" lon="4.76132">
        <ele>186</ele>
        <time>2018-04-14T10:32:05Z</time>
      </trkpt>
      <trkpt lat="45.95759" lon="4.76124">
        <ele>186</ele>
        <time>2018-04-14T10:32:06Z</time>
      </trkpt>
      <trkpt lat="45.95758" lon="4.76117">
        <ele>186</ele>
        <time>2018-04-14T10:32:07Z</time>
      </trkpt>
      <trkpt lat="45.95757" lon="4.76109">
        <ele>186</ele>
        <time>2018-04-14T10:32:08Z</time>
      </trkpt>
      <trkpt lat="45.95756" lon="4.76103">
        <ele>186</ele>
        <time>2018-04-14T10:32:09Z</time>
      </trkpt>
      <trkpt lat="45.95754" lon="4.76095">
        <ele>186</ele>
        <time>2018-04-14T10:32:10Z</time>
      </trkpt>
      <trkpt lat="45.95752" lon="4.76088">
        <ele>185</ele>
        <time>2018-04-14T10:32:11Z</time>
      </trkpt>
      <trkpt lat="45.9575" lon="4.76081">
        <ele>185</ele>
        <time>2018-04-14T10:32:12Z</time>
      </trkpt>
      <trkpt lat="45.95745" lon="4.76074">
        <ele>185</ele>
        <time>2018-04-14T10:32:13Z</time>
      </trkpt>
      <trkpt lat="45.95742" lon="4.76069">
        <ele>185</ele>
        <time>2018-04-14T10:32:14Z</time>
      </trkpt>
      <trkpt lat="45.95738" lon="4.76061">
        <ele>184</ele>
        <time>2018-04-14T10:32:15Z</time>
      </trkpt>
      <trkpt lat="45.95735" lon="4.76055">
        <ele>184</ele>
        <time>2018-04-14T10:32:16Z</time>
      </trkpt>
      <trkpt lat="45.95731" lon="4.76047">
        <ele>184</ele>
        <time>2018-04-14T10:32:17Z</time>
      </trkpt>
      <trkpt lat="45.95727" lon="4.76041">
        <ele>184</ele>
        <time>2018-04-14T10:32:18Z</time>
      </trkpt>
      <trkpt lat="45.95723" lon="4.76035">
        <ele>184</ele>
        <time>2018-04-14T10:32:19Z</time>
      </trkpt>
      <trkpt lat="45.95721" lon="4.76029">
        <ele>184</ele>
        <time>2018-04-14T10:32:20Z</time>
      </trkpt>
      <trkpt lat="45.95718" lon="4.7602">
        <ele>184</ele>
        <time>2018-04-14T10:32:21Z</time>
      </trkpt>
      <trkpt lat="45.95715" lon="4.76015">
        <ele>184</ele>
        <time>2018-04-14T10:32:22Z</time>
      </trkpt>
      <trkpt lat="45.95712" lon="4.76007">
        <ele>184</ele>
        <time>2018-04-14T10:32:23Z</time>
      </trkpt>
      <trkpt lat="45.95707" lon="4.75998">
        <ele>185</ele>
        <time>2018-04-14T10:32:24Z</time>
      </trkpt>
      <trkpt lat="45.95704" lon="4.7599">
        <ele>185</ele>
        <time>2018-04-14T10:32:25Z</time>
      </trkpt>
      <trkpt lat="45.957" lon="4.75983">
        <ele>185</ele>
        <time>2018-04-14T10:32:26Z</time>
      </trkpt>
      <trkpt lat="45.95696" lon="4.75975">
        <ele>185</ele>
        <time>2018-04-14T10:32:27Z</time>
      </trkpt>
      <trkpt lat="45.95693" lon="4.75966">
        <ele>185</ele>
        <time>2018-04-14T10:32:28Z</time>
      </trkpt>
      <trkpt lat="45.95688" lon="4.75958">
        <ele>185</ele>
        <time>2018-04-14T10:32:29Z</time>
      </trkpt>
      <trkpt lat="45.95685" lon="4.75949">
        <ele>185</ele>
        <time>2018-04-14T10:32:30Z</time>
      </trkpt>
      <trkpt lat="45.95682" lon="4.75942">
        <ele>185</ele>
        <time>2018-04-14T10:32:31Z</time>
      </trkpt>
      <trkpt lat="45.95678" lon="4.75933">
        <ele>185</ele>
        <time>2018-04-14T10:32:32Z</time>
      </trkpt>
      <trkpt lat="45.95675" lon="4.75925">
        <ele>184</ele>
        <time>2018-04-14T10:32:33Z</time>
      </trkpt>
      <trkpt lat="45.95672" lon="4.75918">
        <ele>184</ele>
        <time>2018-04-14T10:32:34Z</time>
      </trkpt>
      <trkpt lat="45.9567" lon="4.7591">
        <ele>185</ele>
        <time>2018-04-14T10:32:35Z</time>
      </trkpt>
      <trkpt lat="45.95667" lon="4.75903">
        <ele>185</ele>
        <time>2018-04-14T10:32:36Z</time>
      </trkpt>
      <trkpt lat="45.95664" lon="4.75895">
        <ele>184</ele>
        <time>2018-04-14T10:32:37Z</time>
      </trkpt>
      <trkpt lat="45.95662" lon="4.75887">
        <ele>184</ele>
        <time>2018-04-14T10:32:38Z</time>
      </trkpt>
      <trkpt lat="45.95659" lon="4.7588">
        <ele>184</ele>
        <time>2018-04-14T10:32:39Z</time>
      </trkpt>
      <trkpt lat="45.95655" lon="4.75873">
        <ele>184</ele>
        <time>2018-04-14T10:32:40Z</time>
      </trkpt>
      <trkpt lat="45.95653" lon="4.75867">
        <ele>184</ele>
        <time>2018-04-14T10:32:41Z</time>
      </trkpt>
      <trkpt lat="45.95652" lon="4.75858">
        <ele>184</ele>
        <time>2018-04-14T10:32:42Z</time>
      </trkpt>
      <trkpt lat="45.95652" lon="4.75851">
        <ele>184</ele>
        <time>2018-04-14T10:32:43Z</time>
      </trkpt>
      <trkpt lat="45.9565" lon="4.75839">
        <ele>185</ele>
        <time>2018-04-14T10:32:45Z</time>
      </trkpt>
      <trkpt lat="45.95649" lon="4.75832">
        <ele>185</ele>
        <time>2018-04-14T10:32:46Z</time>
      </trkpt>
      <trkpt lat="45.95646" lon="4.75826">
        <ele>185</ele>
        <time>2018-04-14T10:32:47Z</time>
      </trkpt>
      <trkpt lat="45.95641" lon="4.75819">
        <ele>185</ele>
        <time>2018-04-14T10:32:48Z</time>
      </trkpt>
      <trkpt lat="45.9564" lon="4.75812">
        <ele>185</ele>
        <time>2018-04-14T10:32:49Z</time>
      </trkpt>
      <trkpt lat="45.95639" lon="4.75804">
        <ele>185</ele>
        <time>2018-04-14T10:32:50Z</time>
      </trkpt>
      <trkpt lat="45.95638" lon="4.75796">
        <ele>185</ele>
        <time>2018-04-14T10:32:51Z</time>
      </trkpt>
      <trkpt lat="45.95636" lon="4.75788">
        <ele>185</ele>
        <time>2018-04-14T10:32:52Z</time>
      </trkpt>
      <trkpt lat="45.95636" lon="4.75782">
        <ele>185</ele>
        <time>2018-04-14T10:32:53Z</time>
      </trkpt>
      <trkpt lat="45.95636" lon="4.75774">
        <ele>186</ele>
        <time>2018-04-14T10:32:54Z</time>
      </trkpt>
      <trkpt lat="45.95635" lon="4.75767">
        <ele>186</ele>
        <time>2018-04-14T10:32:55Z</time>
      </trkpt>
      <trkpt lat="45.95635" lon="4.75757">
        <ele>186</ele>
        <time>2018-04-14T10:32:56Z</time>
      </trkpt>
      <trkpt lat="45.95634" lon="4.7575">
        <ele>187</ele>
        <time>2018-04-14T10:32:57Z</time>
      </trkpt>
      <trkpt lat="45.95631" lon="4.75743">
        <ele>187</ele>
        <time>2018-04-14T10:32:58Z</time>
      </trkpt>
      <trkpt lat="45.95631" lon="4.75735">
        <ele>187</ele>
        <time>2018-04-14T10:32:59Z</time>
      </trkpt>
      <trkpt lat="45.95631" lon="4.75727">
        <ele>187</ele>
        <time>2018-04-14T10:33:00Z</time>
      </trkpt>
      <trkpt lat="45.9563" lon="4.75719">
        <ele>187</ele>
        <time>2018-04-14T10:33:01Z</time>
      </trkpt>
      <trkpt lat="45.95629" lon="4.75713">
        <ele>187</ele>
        <time>2018-04-14T10:33:02Z</time>
      </trkpt>
      <trkpt lat="45.95628" lon="4.75705">
        <ele>187</ele>
        <time>2018-04-14T10:33:03Z</time>
      </trkpt>
      <trkpt lat="45.95627" lon="4.75696">
        <ele>187</ele>
        <time>2018-04-14T10:33:04Z</time>
      </trkpt>
      <trkpt lat="45.95625" lon="4.75689">
        <ele>187</ele>
        <time>2018-04-14T10:33:05Z</time>
      </trkpt>
      <trkpt lat="45.95624" lon="4.75682">
        <ele>187</ele>
        <time>2018-04-14T10:33:06Z</time>
      </trkpt>
      <trkpt lat="45.95624" lon="4.75674">
        <ele>187</ele>
        <time>2018-04-14T10:33:07Z</time>
      </trkpt>
      <trkpt lat="45.95622" lon="4.75667">
        <ele>187</ele>
        <time>2018-04-14T10:33:08Z</time>
      </trkpt>
      <trkpt lat="45.95621" lon="4.7566">
        <ele>188</ele>
        <time>2018-04-14T10:33:09Z</time>
      </trkpt>
      <trkpt lat="45.95619" lon="4.75652">
        <ele>188</ele>
        <time>2018-04-14T10:33:10Z</time>
      </trkpt>
      <trkpt lat="45.95617" lon="4.75645">
        <ele>188</ele>
        <time>2018-04-14T10:33:11Z</time>
      </trkpt>
      <trkpt lat="45.95615" lon="4.75638">
        <ele>188</ele>
        <time>2018-04-14T10:33:12Z</time>
      </trkpt>
      <trkpt lat="45.95613" lon="4.75629">
        <ele>188</ele>
        <time>2018-04-14T10:33:13Z</time>
      </trkpt>
      <trkpt lat="45.9561" lon="4.75622">
        <ele>188</ele>
        <time>2018-04-14T10:33:14Z</time>
      </trkpt>
      <trkpt lat="45.95608" lon="4.75617">
        <ele>188</ele>
        <time>2018-04-14T10:33:15Z</time>
      </trkpt>
      <trkpt lat="45.95606" lon="4.7561">
        <ele>188</ele>
        <time>2018-04-14T10:33:16Z</time>
      </trkpt>
      <trkpt lat="45.95604" lon="4.75603">
        <ele>187</ele>
        <time>2018-04-14T10:33:17Z</time>
      </trkpt>
      <trkpt lat="45.95602" lon="4.75597">
        <ele>187</ele>
        <time>2018-04-14T10:33:18Z</time>
      </trkpt>
      <trkpt lat="45.95599" lon="4.7559">
        <ele>187</ele>
        <time>2018-04-14T10:33:19Z</time>
      </trkpt>
      <trkpt lat="45.95595" lon="4.75585">
        <ele>187</ele>
        <time>2018-04-14T10:33:20Z</time>
      </trkpt>
      <trkpt lat="45.95592" lon="4.75578">
        <ele>187</ele>
        <time>2018-04-14T10:33:21Z</time>
      </trkpt>
      <trkpt lat="45.95588" lon="4.7557">
        <ele>188</ele>
        <time>2018-04-14T10:33:22Z</time>
      </trkpt>
      <trkpt lat="45.95586" lon="4.75563">
        <ele>188</ele>
        <time>2018-04-14T10:33:23Z</time>
      </trkpt>
      <trkpt lat="45.95583" lon="4.75557">
        <ele>186</ele>
        <time>2018-04-14T10:33:24Z</time>
      </trkpt>
      <trkpt lat="45.9558" lon="4.75552">
        <ele>186</ele>
        <time>2018-04-14T10:33:25Z</time>
      </trkpt>
      <trkpt lat="45.95576" lon="4.75547">
        <ele>186</ele>
        <time>2018-04-14T10:33:26Z</time>
      </trkpt>
      <trkpt lat="45.95571" lon="4.75542">
        <ele>186</ele>
        <time>2018-04-14T10:33:27Z</time>
      </trkpt>
      <trkpt lat="45.95566" lon="4.75538">
        <ele>186</ele>
        <time>2018-04-14T10:33:28Z</time>
      </trkpt>
      <trkpt lat="45.95561" lon="4.75532">
        <ele>186</ele>
        <time>2018-04-14T10:33:29Z</time>
      </trkpt>
      <trkpt lat="45.95556" lon="4.7553">
        <ele>186</ele>
        <time>2018-04-14T10:33:30Z</time>
      </trkpt>
      <trkpt lat="45.95551" lon="4.75524">
        <ele>186</ele>
        <time>2018-04-14T10:33:31Z</time>
      </trkpt>
      <trkpt lat="45.95546" lon="4.75517">
        <ele>186</ele>
        <time>2018-04-14T10:33:32Z</time>
      </trkpt>
      <trkpt lat="45.95542" lon="4.7551">
        <ele>186</ele>
        <time>2018-04-14T10:33:33Z</time>
      </trkpt>
      <trkpt lat="45.9554" lon="4.75503">
        <ele>186</ele>
        <time>2018-04-14T10:33:34Z</time>
      </trkpt>
      <trkpt lat="45.95538" lon="4.75497">
        <ele>187</ele>
        <time>2018-04-14T10:33:35Z</time>
      </trkpt>
      <trkpt lat="45.95537" lon="4.75489">
        <ele>187</ele>
        <time>2018-04-14T10:33:36Z</time>
      </trkpt>
      <trkpt lat="45.95537" lon="4.75481">
        <ele>187</ele>
        <time>2018-04-14T10:33:37Z</time>
      </trkpt>
      <trkpt lat="45.95536" lon="4.75473">
        <ele>187</ele>
        <time>2018-04-14T10:33:38Z</time>
      </trkpt>
      <trkpt lat="45.95534" lon="4.75465">
        <ele>187</ele>
        <time>2018-04-14T10:33:39Z</time>
      </trkpt>
      <trkpt lat="45.9553" lon="4.75458">
        <ele>187</ele>
        <time>2018-04-14T10:33:40Z</time>
      </trkpt>
      <trkpt lat="45.95526" lon="4.75452">
        <ele>187</ele>
        <time>2018-04-14T10:33:41Z</time>
      </trkpt>
      <trkpt lat="45.95522" lon="4.75446">
        <ele>187</ele>
        <time>2018-04-14T10:33:42Z</time>
      </trkpt>
      <trkpt lat="45.95518" lon="4.7544">
        <ele>187</ele>
        <time>2018-04-14T10:33:43Z</time>
      </trkpt>
      <trkpt lat="45.95514" lon="4.75432">
        <ele>186</ele>
        <time>2018-04-14T10:33:44Z</time>
      </trkpt>
      <trkpt lat="45.9551" lon="4.75424">
        <ele>186</ele>
        <time>2018-04-14T10:33:45Z</time>
      </trkpt>
      <trkpt lat="45.95507" lon="4.75417">
        <ele>186</ele>
        <time>2018-04-14T10:33:46Z</time>
      </trkpt>
      <trkpt lat="45.95509" lon="4.75411">
        <ele>187</ele>
        <time>2018-04-14T10:33:47Z</time>
      </trkpt>
      <trkpt lat="45.95509" lon="4.75402">
        <ele>187</ele>
        <time>2018-04-14T10:33:48Z</time>
      </trkpt>
      <trkpt lat="45.95505" lon="4.75397">
        <ele>188</ele>
        <time>2018-04-14T10:33:49Z</time>
      </trkpt>
      <trkpt lat="45.95502" lon="4.7539">
        <ele>188</ele>
        <time>2018-04-14T10:33:50Z</time>
      </trkpt>
      <trkpt lat="45.95499" lon="4.75385">
        <ele>185</ele>
        <time>2018-04-14T10:33:51Z</time>
      </trkpt>
      <trkpt lat="45.95496" lon="4.75378">
        <ele>185</ele>
        <time>2018-04-14T10:33:52Z</time>
      </trkpt>
      <trkpt lat="45.95493" lon="4.75372">
        <ele>185</ele>
        <time>2018-04-14T10:33:53Z</time>
      </trkpt>
      <trkpt lat="45.95489" lon="4.75365">
        <ele>186</ele>
        <time>2018-04-14T10:33:54Z</time>
      </trkpt>
      <trkpt lat="45.95487" lon="4.7536">
        <ele>186</ele>
        <time>2018-04-14T10:33:55Z</time>
      </trkpt>
      <trkpt lat="45.95482" lon="4.75355">
        <ele>186</ele>
        <time>2018-04-14T10:33:56Z</time>
      </trkpt>
      <trkpt lat="45.95479" lon="4.75349">
        <ele>186</ele>
        <time>2018-04-14T10:33:57Z</time>
      </trkpt>
      <trkpt lat="45.95476" lon="4.75344">
        <ele>186</ele>
        <time>2018-04-14T10:33:58Z</time>
      </trkpt>
      <trkpt lat="45.95473" lon="4.75338">
        <ele>186</ele>
        <time>2018-04-14T10:33:59Z</time>
      </trkpt>
      <trkpt lat="45.9547" lon="4.75332">
        <ele>188</ele>
        <time>2018-04-14T10:34:00Z</time>
      </trkpt>
      <trkpt lat="45.95468" lon="4.75328">
        <ele>188</ele>
        <time>2018-04-14T10:34:01Z</time>
      </trkpt>
      <trkpt lat="45.95466" lon="4.75318">
        <ele>188</ele>
        <time>2018-04-14T10:34:02Z</time>
      </trkpt>
      <trkpt lat="45.95464" lon="4.75313">
        <ele>188</ele>
        <time>2018-04-14T10:34:03Z</time>
      </trkpt>
      <trkpt lat="45.95461" lon="4.75307">
        <ele>188</ele>
        <time>2018-04-14T10:34:04Z</time>
      </trkpt>
      <trkpt lat="45.95457" lon="4.75303">
        <ele>188</ele>
        <time>2018-04-14T10:34:05Z</time>
      </trkpt>
      <trkpt lat="45.95454" lon="4.75298">
        <ele>188</ele>
        <time>2018-04-14T10:34:06Z</time>
      </trkpt>
      <trkpt lat="45.9545" lon="4.75294">
        <ele>188</ele>
        <time>2018-04-14T10:34:07Z</time>
      </trkpt>
      <trkpt lat="45.95447" lon="4.7529">
        <ele>188</ele>
        <time>2018-04-14T10:34:08Z</time>
      </trkpt>
      <trkpt lat="45.95443" lon="4.75285">
        <ele>188</ele>
        <time>2018-04-14T10:34:09Z</time>
      </trkpt>
      <trkpt lat="45.95442" lon="4.75278">
        <ele>188</ele>
        <time>2018-04-14T10:34:10Z</time>
      </trkpt>
      <trkpt lat="45.95438" lon="4.75274">
        <ele>189</ele>
        <time>2018-04-14T10:34:11Z</time>
      </trkpt>
      <trkpt lat="45.95435" lon="4.75268">
        <ele>189</ele>
        <time>2018-04-14T10:34:12Z</time>
      </trkpt>
      <trkpt lat="45.95431" lon="4.75263">
        <ele>189</ele>
        <time>2018-04-14T10:34:13Z</time>
      </trkpt>
      <trkpt lat="45.95428" lon="4.75258">
        <ele>189</ele>
        <time>2018-04-14T10:34:14Z</time>
      </trkpt>
      <trkpt lat="45.95426" lon="4.75251">
        <ele>189</ele>
        <time>2018-04-14T10:34:15Z</time>
      </trkpt>
      <trkpt lat="45.95423" lon="4.75245">
        <ele>190</ele>
        <time>2018-04-14T10:34:16Z</time>
      </trkpt>
      <trkpt lat="45.9542" lon="4.7524">
        <ele>190</ele>
        <time>2018-04-14T10:34:17Z</time>
      </trkpt>
      <trkpt lat="45.95417" lon="4.75235">
        <ele>190</ele>
        <time>2018-04-14T10:34:18Z</time>
      </trkpt>
      <trkpt lat="45.95414" lon="4.7523">
        <ele>189</ele>
        <time>2018-04-14T10:34:19Z</time>
      </trkpt>
      <trkpt lat="45.95412" lon="4.75224">
        <ele>189</ele>
        <time>2018-04-14T10:34:20Z</time>
      </trkpt>
      <trkpt lat="45.9541" lon="4.75219">
        <ele>189</ele>
        <time>2018-04-14T10:34:21Z</time>
      </trkpt>
      <trkpt lat="45.95406" lon="4.75212">
        <ele>189</ele>
        <time>2018-04-14T10:34:22Z</time>
      </trkpt>
      <trkpt lat="45.95404" lon="4.75207">
        <ele>189</ele>
        <time>2018-04-14T10:34:23Z</time>
      </trkpt>
      <trkpt lat="45.954" lon="4.75202">
        <ele>189</ele>
        <time>2018-04-14T10:34:24Z</time>
      </trkpt>
      <trkpt lat="45.95394" lon="4.75192">
        <ele>189</ele>
        <time>2018-04-14T10:34:26Z</time>
      </trkpt>
      <trkpt lat="45.9539" lon="4.75184">
        <ele>189</ele>
        <time>2018-04-14T10:34:27Z</time>
      </trkpt>
      <trkpt lat="45.95387" lon="4.75178">
        <ele>189</ele>
        <time>2018-04-14T10:34:28Z</time>
      </trkpt>
      <trkpt lat="45.95383" lon="4.75173">
        <ele>189</ele>
        <time>2018-04-14T10:34:29Z</time>
      </trkpt>
      <trkpt lat="45.95379" lon="4.7517">
        <ele>189</ele>
        <time>2018-04-14T10:34:30Z</time>
      </trkpt>
      <trkpt lat="45.95376" lon="4.75165">
        <ele>191</ele>
        <time>2018-04-14T10:34:31Z</time>
      </trkpt>
      <trkpt lat="45.95373" lon="4.7516">
        <ele>191</ele>
        <time>2018-04-14T10:34:32Z</time>
      </trkpt>
      <trkpt lat="45.95371" lon="4.75154">
        <ele>191</ele>
        <time>2018-04-14T10:34:33Z</time>
      </trkpt>
      <trkpt lat="45.95367" lon="4.75148">
        <ele>191</ele>
        <time>2018-04-14T10:34:34Z</time>
      </trkpt>
      <trkpt lat="45.95364" lon="4.75142">
        <ele>191</ele>
        <time>2018-04-14T10:34:35Z</time>
      </trkpt>
      <trkpt lat="45.95359" lon="4.75132">
        <ele>191</ele>
        <time>2018-04-14T10:34:37Z</time>
      </trkpt>
      <trkpt lat="45.95355" lon="4.75128">
        <ele>191</ele>
        <time>2018-04-14T10:34:38Z</time>
      </trkpt>
      <trkpt lat="45.95351" lon="4.75122">
        <ele>191</ele>
        <time>2018-04-14T10:34:39Z</time>
      </trkpt>
      <trkpt lat="45.95348" lon="4.75117">
        <ele>191</ele>
        <time>2018-04-14T10:34:40Z</time>
      </trkpt>
      <trkpt lat="45.95344" lon="4.75112">
        <ele>192</ele>
        <time>2018-04-14T10:34:41Z</time>
      </trkpt>
      <trkpt lat="45.95341" lon="4.75107">
        <ele>192</ele>
        <time>2018-04-14T10:34:42Z</time>
      </trkpt>
      <trkpt lat="45.95337" lon="4.75102">
        <ele>192</ele>
        <time>2018-04-14T10:34:43Z</time>
      </trkpt>
      <trkpt lat="45.95333" lon="4.75097">
        <ele>191</ele>
        <time>2018-04-14T10:34:44Z</time>
      </trkpt>
      <trkpt lat="45.95327" lon="4.75087">
        <ele>192</ele>
        <time>2018-04-14T10:34:46Z</time>
      </trkpt>
      <trkpt lat="45.95326" lon="4.75082">
        <ele>192</ele>
        <time>2018-04-14T10:34:47Z</time>
      </trkpt>
      <trkpt lat="45.95323" lon="4.75077">
        <ele>192</ele>
        <time>2018-04-14T10:34:48Z</time>
      </trkpt>
      <trkpt lat="45.9532" lon="4.75072">
        <ele>192</ele>
        <time>2018-04-14T10:34:49Z</time>
      </trkpt>
      <trkpt lat="45.95314" lon="4.75063">
        <ele>192</ele>
        <time>2018-04-14T10:34:51Z</time>
      </trkpt>
      <trkpt lat="45.9531" lon="4.75059">
        <ele>192</ele>
        <time>2018-04-14T10:34:52Z</time>
      </trkpt>
      <trkpt lat="45.95306" lon="4.75057">
        <ele>192</ele>
        <time>2018-04-14T10:34:53Z</time>
      </trkpt>
      <trkpt lat="45.95303" lon="4.75052">
        <ele>191</ele>
        <time>2018-04-14T10:34:54Z</time>
      </trkpt>
      <trkpt lat="45.953" lon="4.75046">
        <ele>191</ele>
        <time>2018-04-14T10:34:55Z</time>
      </trkpt>
      <trkpt lat="45.95297" lon="4.75041">
        <ele>191</ele>
        <time>2018-04-14T10:34:56Z</time>
      </trkpt>
      <trkpt lat="45.95294" lon="4.75036">
        <ele>191</ele>
        <time>2018-04-14T10:34:57Z</time>
      </trkpt>
      <trkpt lat="45.9529" lon="4.7503">
        <ele>191</ele>
        <time>2018-04-14T10:34:58Z</time>
      </trkpt>
      <trkpt lat="45.95287" lon="4.75025">
        <ele>191</ele>
        <time>2018-04-14T10:34:59Z</time>
      </trkpt>
      <trkpt lat="45.95284" lon="4.7502">
        <ele>191</ele>
        <time>2018-04-14T10:35:00Z</time>
      </trkpt>
      <trkpt lat="45.95279" lon="4.75012">
        <ele>191</ele>
        <time>2018-04-14T10:35:02Z</time>
      </trkpt>
      <trkpt lat="45.95276" lon="4.75007">
        <ele>191</ele>
        <time>2018-04-14T10:35:03Z</time>
      </trkpt>
      <trkpt lat="45.9527" lon="4.74997">
        <ele>192</ele>
        <time>2018-04-14T10:35:05Z</time>
      </trkpt>
      <trkpt lat="45.95269" lon="4.74993">
        <ele>192</ele>
        <time>2018-04-14T10:35:06Z</time>
      </trkpt>
      <trkpt lat="45.95265" lon="4.74985">
        <ele>192</ele>
        <time>2018-04-14T10:35:08Z</time>
      </trkpt>
      <trkpt lat="45.95262" lon="4.7498">
        <ele>192</ele>
        <time>2018-04-14T10:35:09Z</time>
      </trkpt>
      <trkpt lat="45.9526" lon="4.74973">
        <ele>192</ele>
        <time>2018-04-14T10:35:10Z</time>
      </trkpt>
      <trkpt lat="45.95255" lon="4.7497">
        <ele>192</ele>
        <time>2018-04-14T10:35:11Z</time>
      </trkpt>
      <trkpt lat="45.95252" lon="4.74965">
        <ele>192</ele>
        <time>2018-04-14T10:35:12Z</time>
      </trkpt>
      <trkpt lat="45.95248" lon="4.7496">
        <ele>191</ele>
        <time>2018-04-14T10:35:13Z</time>
      </trkpt>
      <trkpt lat="45.95245" lon="4.74956">
        <ele>192</ele>
        <time>2018-04-14T10:35:14Z</time>
      </trkpt>
      <trkpt lat="45.95241" lon="4.7495">
        <ele>192</ele>
        <time>2018-04-14T10:35:15Z</time>
      </trkpt>
      <trkpt lat="45.95237" lon="4.74944">
        <ele>192</ele>
        <time>2018-04-14T10:35:16Z</time>
      </trkpt>
      <trkpt lat="45.95234" lon="4.74938">
        <ele>192</ele>
        <time>2018-04-14T10:35:17Z</time>
      </trkpt>
      <trkpt lat="45.95229" lon="4.74935">
        <ele>192</ele>
        <time>2018-04-14T10:35:18Z</time>
      </trkpt>
      <trkpt lat="45.95226" lon="4.7493">
        <ele>192</ele>
        <time>2018-04-14T10:35:19Z</time>
      </trkpt>
      <trkpt lat="45.95222" lon="4.74924">
        <ele>192</ele>
        <time>2018-04-14T10:35:20Z</time>
      </trkpt>
      <trkpt lat="45.95219" lon="4.74918">
        <ele>192</ele>
        <time>2018-04-14T10:35:21Z</time>
      </trkpt>
      <trkpt lat="45.95217" lon="4.74912">
        <ele>193</ele>
        <time>2018-04-14T10:35:22Z</time>
      </trkpt>
      <trkpt lat="45.95213" lon="4.74907">
        <ele>193</ele>
        <time>2018-04-14T10:35:23Z</time>
      </trkpt>
      <trkpt lat="45.9521" lon="4.74901">
        <ele>193</ele>
        <time>2018-04-14T10:35:24Z</time>
      </trkpt>
      <trkpt lat="45.95206" lon="4.74896">
        <ele>194</ele>
        <time>2018-04-14T10:35:25Z</time>
      </trkpt>
      <trkpt lat="45.95202" lon="4.74891">
        <ele>194</ele>
        <time>2018-04-14T10:35:26Z</time>
      </trkpt>
      <trkpt lat="45.95199" lon="4.74885">
        <ele>194</ele>
        <time>2018-04-14T10:35:27Z</time>
      </trkpt>
      <trkpt lat="45.95195" lon="4.7488">
        <ele>194</ele>
        <time>2018-04-14T10:35:28Z</time>
      </trkpt>
      <trkpt lat="45.95192" lon="4.74875">
        <ele>194</ele>
        <time>2018-04-14T10:35:29Z</time>
      </trkpt>
      <trkpt lat="45.95188" lon="4.74869">
        <ele>194</ele>
        <time>2018-04-14T10:35:30Z</time>
      </trkpt>
      <trkpt lat="45.95185" lon="4.74864">
        <ele>194</ele>
        <time>2018-04-14T10:35:31Z</time>
      </trkpt>
      <trkpt lat="45.95182" lon="4.74859">
        <ele>194</ele>
        <time>2018-04-14T10:35:32Z</time>
      </trkpt>
      <trkpt lat="45.95179" lon="4.74853">
        <ele>194</ele>
        <time>2018-04-14T10:35:33Z</time>
      </trkpt>
      <trkpt lat="45.95175" lon="4.74847">
        <ele>194</ele>
        <time>2018-04-14T10:35:34Z</time>
      </trkpt>
      <trkpt lat="45.95172" lon="4.74842">
        <ele>194</ele>
        <time>2018-04-14T10:35:35Z</time>
      </trkpt>
      <trkpt lat="45.9517" lon="4.74835">
        <ele>194</ele>
        <time>2018-04-14T10:35:36Z</time>
      </trkpt>
      <trkpt lat="45.95167" lon="4.74829">
        <ele>194</ele>
        <time>2018-04-14T10:35:37Z</time>
      </trkpt>
      <trkpt lat="45.95163" lon="4.74823">
        <ele>194</ele>
        <time>2018-04-14T10:35:38Z</time>
      </trkpt>
      <trkpt lat="45.95159" lon="4.74816">
        <ele>194</ele>
        <time>2018-04-14T10:35:39Z</time>
      </trkpt>
      <trkpt lat="45.95156" lon="4.7481">
        <ele>194</ele>
        <time>2018-04-14T10:35:40Z</time>
      </trkpt>
      <trkpt lat="45.95153" lon="4.74804">
        <ele>194</ele>
        <time>2018-04-14T10:35:41Z</time>
      </trkpt>
      <trkpt lat="45.95147" lon="4.74793">
        <ele>194</ele>
        <time>2018-04-14T10:35:42Z</time>
      </trkpt>
      <trkpt lat="45.95143" lon="4.74788">
        <ele>194</ele>
        <time>2018-04-14T10:35:43Z</time>
      </trkpt>
      <trkpt lat="45.95139" lon="4.74782">
        <ele>194</ele>
        <time>2018-04-14T10:35:44Z</time>
      </trkpt>
      <trkpt lat="45.95137" lon="4.74777">
        <ele>194</ele>
        <time>2018-04-14T10:35:45Z</time>
      </trkpt>
      <trkpt lat="45.95133" lon="4.74772">
        <ele>194</ele>
        <time>2018-04-14T10:35:46Z</time>
      </trkpt>
      <trkpt lat="45.9513" lon="4.74767">
        <ele>194</ele>
        <time>2018-04-14T10:35:47Z</time>
      </trkpt>
      <trkpt lat="45.95126" lon="4.74762">
        <ele>194</ele>
        <time>2018-04-14T10:35:48Z</time>
      </trkpt>
      <trkpt lat="45.9512" lon="4.74755">
        <ele>194</ele>
        <time>2018-04-14T10:35:50Z</time>
      </trkpt>
      <trkpt lat="45.95117" lon="4.74749">
        <ele>194</ele>
        <time>2018-04-14T10:35:51Z</time>
      </trkpt>
      <trkpt lat="45.95114" lon="4.74742">
        <ele>194</ele>
        <time>2018-04-14T10:35:52Z</time>
      </trkpt>
      <trkpt lat="45.95111" lon="4.74739">
        <ele>194</ele>
        <time>2018-04-14T10:35:53Z</time>
      </trkpt>
      <trkpt lat="45.95108" lon="4.74733">
        <ele>194</ele>
        <time>2018-04-14T10:35:54Z</time>
      </trkpt>
      <trkpt lat="45.95103" lon="4.74725">
        <ele>194</ele>
        <time>2018-04-14T10:35:55Z</time>
      </trkpt>
      <trkpt lat="45.951" lon="4.74719">
        <ele>194</ele>
        <time>2018-04-14T10:35:56Z</time>
      </trkpt>
      <trkpt lat="45.95097" lon="4.74713">
        <ele>194</ele>
        <time>2018-04-14T10:35:57Z</time>
      </trkpt>
      <trkpt lat="45.95093" lon="4.74707">
        <ele>194</ele>
        <time>2018-04-14T10:35:58Z</time>
      </trkpt>
      <trkpt lat="45.95089" lon="4.74701">
        <ele>194</ele>
        <time>2018-04-14T10:35:59Z</time>
      </trkpt>
      <trkpt lat="45.95082" lon="4.74695">
        <ele>194</ele>
        <time>2018-04-14T10:36:01Z</time>
      </trkpt>
      <trkpt lat="45.95078" lon="4.74689">
        <ele>194</ele>
        <time>2018-04-14T10:36:02Z</time>
      </trkpt>
      <trkpt lat="45.95076" lon="4.74683">
        <ele>194</ele>
        <time>2018-04-14T10:36:03Z</time>
      </trkpt>
      <trkpt lat="45.95073" lon="4.74678">
        <ele>194</ele>
        <time>2018-04-14T10:36:04Z</time>
      </trkpt>
      <trkpt lat="45.9507" lon="4.74672">
        <ele>194</ele>
        <time>2018-04-14T10:36:05Z</time>
      </trkpt>
      <trkpt lat="45.95067" lon="4.74666">
        <ele>195</ele>
        <time>2018-04-14T10:36:06Z</time>
      </trkpt>
      <trkpt lat="45.95063" lon="4.7466">
        <ele>195</ele>
        <time>2018-04-14T10:36:07Z</time>
      </trkpt>
      <trkpt lat="45.9506" lon="4.74655">
        <ele>194</ele>
        <time>2018-04-14T10:36:08Z</time>
      </trkpt>
      <trkpt lat="45.95057" lon="4.74649">
        <ele>194</ele>
        <time>2018-04-14T10:36:09Z</time>
      </trkpt>
      <trkpt lat="45.95054" lon="4.74643">
        <ele>194</ele>
        <time>2018-04-14T10:36:10Z</time>
      </trkpt>
      <trkpt lat="45.9505" lon="4.74637">
        <ele>194</ele>
        <time>2018-04-14T10:36:11Z</time>
      </trkpt>
      <trkpt lat="45.95047" lon="4.74629">
        <ele>194</ele>
        <time>2018-04-14T10:36:12Z</time>
      </trkpt>
      <trkpt lat="45.95044" lon="4.74622">
        <ele>194</ele>
        <time>2018-04-14T10:36:13Z</time>
      </trkpt>
      <trkpt lat="45.95041" lon="4.74616">
        <ele>194</ele>
        <time>2018-04-14T10:36:14Z</time>
      </trkpt>
      <trkpt lat="45.95037" lon="4.74612">
        <ele>194</ele>
        <time>2018-04-14T10:36:15Z</time>
      </trkpt>
      <trkpt lat="45.95033" lon="4.74605">
        <ele>194</ele>
        <time>2018-04-14T10:36:16Z</time>
      </trkpt>
      <trkpt lat="45.9503" lon="4.746">
        <ele>194</ele>
        <time>2018-04-14T10:36:17Z</time>
      </trkpt>
      <trkpt lat="45.95026" lon="4.74594">
        <ele>194</ele>
        <time>2018-04-14T10:36:18Z</time>
      </trkpt>
      <trkpt lat="45.95022" lon="4.74587">
        <ele>194</ele>
        <time>2018-04-14T10:36:19Z</time>
      </trkpt>
      <trkpt lat="45.95018" lon="4.7458">
        <ele>194</ele>
        <time>2018-04-14T10:36:20Z</time>
      </trkpt>
      <trkpt lat="45.95015" lon="4.74574">
        <ele>194</ele>
        <time>2018-04-14T10:36:21Z</time>
      </trkpt>
      <trkpt lat="45.95011" lon="4.74566">
        <ele>194</ele>
        <time>2018-04-14T10:36:22Z</time>
      </trkpt>
      <trkpt lat="45.95008" lon="4.74559">
        <ele>194</ele>
        <time>2018-04-14T10:36:23Z</time>
      </trkpt>
      <trkpt lat="45.95004" lon="4.74552">
        <ele>194</ele>
        <time>2018-04-14T10:36:24Z</time>
      </trkpt>
      <trkpt lat="45.95001" lon="4.74546">
        <ele>194</ele>
        <time>2018-04-14T10:36:25Z</time>
      </trkpt>
      <trkpt lat="45.94996" lon="4.74538">
        <ele>193</ele>
        <time>2018-04-14T10:36:26Z</time>
      </trkpt>
      <trkpt lat="45.94992" lon="4.7453">
        <ele>193</ele>
        <time>2018-04-14T10:36:27Z</time>
      </trkpt>
      <trkpt lat="45.94989" lon="4.74522">
        <ele>193</ele>
        <time>2018-04-14T10:36:28Z</time>
      </trkpt>
      <trkpt lat="45.94986" lon="4.74513">
        <ele>193</ele>
        <time>2018-04-14T10:36:29Z</time>
      </trkpt>
      <trkpt lat="45.94982" lon="4.74506">
        <ele>193</ele>
        <time>2018-04-14T10:36:30Z</time>
      </trkpt>
      <trkpt lat="45.94979" lon="4.745">
        <ele>193</ele>
        <time>2018-04-14T10:36:31Z</time>
      </trkpt>
      <trkpt lat="45.94974" lon="4.74495">
        <ele>193</ele>
        <time>2018-04-14T10:36:32Z</time>
      </trkpt>
      <trkpt lat="45.9497" lon="4.74487">
        <ele>193</ele>
        <time>2018-04-14T10:36:33Z</time>
      </trkpt>
      <trkpt lat="45.94967" lon="4.7448">
        <ele>193</ele>
        <time>2018-04-14T10:36:34Z</time>
      </trkpt>
      <trkpt lat="45.94962" lon="4.74472">
        <ele>193</ele>
        <time>2018-04-14T10:36:35Z</time>
      </trkpt>
      <trkpt lat="45.94958" lon="4.74464">
        <ele>193</ele>
        <time>2018-04-14T10:36:36Z</time>
      </trkpt>
      <trkpt lat="45.94954" lon="4.74457">
        <ele>192</ele>
        <time>2018-04-14T10:36:37Z</time>
      </trkpt>
      <trkpt lat="45.94952" lon="4.74451">
        <ele>192</ele>
        <time>2018-04-14T10:36:38Z</time>
      </trkpt>
      <trkpt lat="45.94948" lon="4.74444">
        <ele>192</ele>
        <time>2018-04-14T10:36:39Z</time>
      </trkpt>
      <trkpt lat="45.94944" lon="4.74435">
        <ele>192</ele>
        <time>2018-04-14T10:36:40Z</time>
      </trkpt>
      <trkpt lat="45.9494" lon="4.74426">
        <ele>192</ele>
        <time>2018-04-14T10:36:41Z</time>
      </trkpt>
      <trkpt lat="45.94936" lon="4.74419">
        <ele>192</ele>
        <time>2018-04-14T10:36:42Z</time>
      </trkpt>
      <trkpt lat="45.94932" lon="4.7441">
        <ele>192</ele>
        <time>2018-04-14T10:36:43Z</time>
      </trkpt>
      <trkpt lat="45.94929" lon="4.74403">
        <ele>192</ele>
        <time>2018-04-14T10:36:44Z</time>
      </trkpt>
      <trkpt lat="45.94924" lon="4.74394">
        <ele>192</ele>
        <time>2018-04-14T10:36:45Z</time>
      </trkpt>
      <trkpt lat="45.9492" lon="4.74388">
        <ele>192</ele>
        <time>2018-04-14T10:36:46Z</time>
      </trkpt>
      <trkpt lat="45.94917" lon="4.74379">
        <ele>192</ele>
        <time>2018-04-14T10:36:47Z</time>
      </trkpt>
      <trkpt lat="45.94913" lon="4.74373">
        <ele>191</ele>
        <time>2018-04-14T10:36:48Z</time>
      </trkpt>
      <trkpt lat="45.94909" lon="4.74366">
        <ele>191</ele>
        <time>2018-04-14T10:36:49Z</time>
      </trkpt>
      <trkpt lat="45.94905" lon="4.74359">
        <ele>191</ele>
        <time>2018-04-14T10:36:50Z</time>
      </trkpt>
      <trkpt lat="45.94902" lon="4.74351">
        <ele>191</ele>
        <time>2018-04-14T10:36:51Z</time>
      </trkpt>
      <trkpt lat="45.94898" lon="4.74342">
        <ele>191</ele>
        <time>2018-04-14T10:36:52Z</time>
      </trkpt>
      <trkpt lat="45.94895" lon="4.74337">
        <ele>191</ele>
        <time>2018-04-14T10:36:53Z</time>
      </trkpt>
      <trkpt lat="45.94892" lon="4.7433">
        <ele>191</ele>
        <time>2018-04-14T10:36:54Z</time>
      </trkpt>
      <trkpt lat="45.9489" lon="4.74322">
        <ele>191</ele>
        <time>2018-04-14T10:36:55Z</time>
      </trkpt>
      <trkpt lat="45.94888" lon="4.74317">
        <ele>191</ele>
        <time>2018-04-14T10:36:56Z</time>
      </trkpt>
      <trkpt lat="45.94885" lon="4.74311">
        <ele>191</ele>
        <time>2018-04-14T10:36:57Z</time>
      </trkpt>
      <trkpt lat="45.94881" lon="4.74304">
        <ele>191</ele>
        <time>2018-04-14T10:36:58Z</time>
      </trkpt>
      <trkpt lat="45.94878" lon="4.74297">
        <ele>191</ele>
        <time>2018-04-14T10:36:59Z</time>
      </trkpt>
      <trkpt lat="45.94873" lon="4.74293">
        <ele>191</ele>
        <time>2018-04-14T10:37:00Z</time>
      </trkpt>
      <trkpt lat="45.94869" lon="4.74286">
        <ele>191</ele>
        <time>2018-04-14T10:37:01Z</time>
      </trkpt>
      <trkpt lat="45.94865" lon="4.74279">
        <ele>191</ele>
        <time>2018-04-14T10:37:02Z</time>
      </trkpt>
      <trkpt lat="45.94862" lon="4.74272">
        <ele>190</ele>
        <time>2018-04-14T10:37:03Z</time>
      </trkpt>
      <trkpt lat="45.94858" lon="4.74264">
        <ele>190</ele>
        <time>2018-04-14T10:37:04Z</time>
      </trkpt>
      <trkpt lat="45.94857" lon="4.74257">
        <ele>190</ele>
        <time>2018-04-14T10:37:05Z</time>
      </trkpt>
      <trkpt lat="45.94853" lon="4.74251">
        <ele>190</ele>
        <time>2018-04-14T10:37:06Z</time>
      </trkpt>
      <trkpt lat="45.94849" lon="4.74244">
        <ele>190</ele>
        <time>2018-04-14T10:37:07Z</time>
      </trkpt>
      <trkpt lat="45.94845" lon="4.74237">
        <ele>190</ele>
        <time>2018-04-14T10:37:08Z</time>
      </trkpt>
      <trkpt lat="45.94842" lon="4.74228">
        <ele>190</ele>
        <time>2018-04-14T10:37:09Z</time>
      </trkpt>
      <trkpt lat="45.94838" lon="4.74221">
        <ele>190</ele>
        <time>2018-04-14T10:37:10Z</time>
      </trkpt>
      <trkpt lat="45.94834" lon="4.74214">
        <ele>190</ele>
        <time>2018-04-14T10:37:11Z</time>
      </trkpt>
      <trkpt lat="45.9483" lon="4.74208">
        <ele>189</ele>
        <time>2018-04-14T10:37:12Z</time>
      </trkpt>
      <trkpt lat="45.94826" lon="4.74201">
        <ele>189</ele>
        <time>2018-04-14T10:37:13Z</time>
      </trkpt>
      <trkpt lat="45.94823" lon="4.74195">
        <ele>189</ele>
        <time>2018-04-14T10:37:14Z</time>
      </trkpt>
      <trkpt lat="45.9482" lon="4.74187">
        <ele>189</ele>
        <time>2018-04-14T10:37:15Z</time>
      </trkpt>
      <trkpt lat="45.94816" lon="4.74184">
        <ele>189</ele>
        <time>2018-04-14T10:37:16Z</time>
      </trkpt>
      <trkpt lat="45.94813" lon="4.74178">
        <ele>189</ele>
        <time>2018-04-14T10:37:17Z</time>
      </trkpt>
      <trkpt lat="45.94809" lon="4.74173">
        <ele>189</ele>
        <time>2018-04-14T10:37:18Z</time>
      </trkpt>
      <trkpt lat="45.94806" lon="4.74166">
        <ele>189</ele>
        <time>2018-04-14T10:37:19Z</time>
      </trkpt>
      <trkpt lat="45.94803" lon="4.7416">
        <ele>189</ele>
        <time>2018-04-14T10:37:20Z</time>
      </trkpt>
      <trkpt lat="45.94798" lon="4.74154">
        <ele>189</ele>
        <time>2018-04-14T10:37:21Z</time>
      </trkpt>
      <trkpt lat="45.94794" lon="4.74147">
        <ele>189</ele>
        <time>2018-04-14T10:37:22Z</time>
      </trkpt>
      <trkpt lat="45.9479" lon="4.74141">
        <ele>189</ele>
        <time>2018-04-14T10:37:23Z</time>
      </trkpt>
      <trkpt lat="45.94786" lon="4.74135">
        <ele>189</ele>
        <time>2018-04-14T10:37:24Z</time>
      </trkpt>
      <trkpt lat="45.94782" lon="4.74129">
        <ele>189</ele>
        <time>2018-04-14T10:37:25Z</time>
      </trkpt>
      <trkpt lat="45.94778" lon="4.74123">
        <ele>189</ele>
        <time>2018-04-14T10:37:26Z</time>
      </trkpt>
      <trkpt lat="45.94774" lon="4.74117">
        <ele>189</ele>
        <time>2018-04-14T10:37:27Z</time>
      </trkpt>
      <trkpt lat="45.94765" lon="4.74106">
        <ele>189</ele>
        <time>2018-04-14T10:37:28Z</time>
      </trkpt>
      <trkpt lat="45.9476" lon="4.741">
        <ele>189</ele>
        <time>2018-04-14T10:37:29Z</time>
      </trkpt>
      <trkpt lat="45.94756" lon="4.74093">
        <ele>189</ele>
        <time>2018-04-14T10:37:30Z</time>
      </trkpt>
      <trkpt lat="45.94751" lon="4.74086">
        <ele>189</ele>
        <time>2018-04-14T10:37:31Z</time>
      </trkpt>
      <trkpt lat="45.94746" lon="4.7408">
        <ele>189</ele>
        <time>2018-04-14T10:37:32Z</time>
      </trkpt>
      <trkpt lat="45.94742" lon="4.74074">
        <ele>188</ele>
        <time>2018-04-14T10:37:33Z</time>
      </trkpt>
      <trkpt lat="45.94737" lon="4.74067">
        <ele>188</ele>
        <time>2018-04-14T10:37:34Z</time>
      </trkpt>
      <trkpt lat="45.94734" lon="4.74063">
        <ele>188</ele>
        <time>2018-04-14T10:37:35Z</time>
      </trkpt>
      <trkpt lat="45.94729" lon="4.74056">
        <ele>188</ele>
        <time>2018-04-14T10:37:36Z</time>
      </trkpt>
      <trkpt lat="45.94725" lon="4.7405">
        <ele>188</ele>
        <time>2018-04-14T10:37:37Z</time>
      </trkpt>
      <trkpt lat="45.94721" lon="4.74044">
        <ele>187</ele>
        <time>2018-04-14T10:37:38Z</time>
      </trkpt>
      <trkpt lat="45.94717" lon="4.74038">
        <ele>187</ele>
        <time>2018-04-14T10:37:39Z</time>
      </trkpt>
      <trkpt lat="45.94713" lon="4.74033">
        <ele>187</ele>
        <time>2018-04-14T10:37:40Z</time>
      </trkpt>
      <trkpt lat="45.94709" lon="4.74029">
        <ele>187</ele>
        <time>2018-04-14T10:37:41Z</time>
      </trkpt>
      <trkpt lat="45.94705" lon="4.74025">
        <ele>187</ele>
        <time>2018-04-14T10:37:42Z</time>
      </trkpt>
      <trkpt lat="45.94702" lon="4.74019">
        <ele>187</ele>
        <time>2018-04-14T10:37:43Z</time>
      </trkpt>
      <trkpt lat="45.94697" lon="4.7401">
        <ele>187</ele>
        <time>2018-04-14T10:37:44Z</time>
      </trkpt>
      <trkpt lat="45.94695" lon="4.74005">
        <ele>187</ele>
        <time>2018-04-14T10:37:45Z</time>
      </trkpt>
      <trkpt lat="45.94692" lon="4.74">
        <ele>187</ele>
        <time>2018-04-14T10:37:46Z</time>
      </trkpt>
      <trkpt lat="45.94687" lon="4.73995">
        <ele>187</ele>
        <time>2018-04-14T10:37:47Z</time>
      </trkpt>
      <trkpt lat="45.94684" lon="4.73991">
        <ele>187</ele>
        <time>2018-04-14T10:37:48Z</time>
      </trkpt>
      <trkpt lat="45.9468" lon="4.73987">
        <ele>187</ele>
        <time>2018-04-14T10:37:49Z</time>
      </trkpt>
      <trkpt lat="45.94676" lon="4.73981">
        <ele>187</ele>
        <time>2018-04-14T10:37:50Z</time>
      </trkpt>
      <trkpt lat="45.94672" lon="4.73975">
        <ele>187</ele>
        <time>2018-04-14T10:37:51Z</time>
      </trkpt>
      <trkpt lat="45.94666" lon="4.73971">
        <ele>187</ele>
        <time>2018-04-14T10:37:52Z</time>
      </trkpt>
      <trkpt lat="45.94662" lon="4.73966">
        <ele>187</ele>
        <time>2018-04-14T10:37:53Z</time>
      </trkpt>
      <trkpt lat="45.94658" lon="4.73962">
        <ele>187</ele>
        <time>2018-04-14T10:37:54Z</time>
      </trkpt>
      <trkpt lat="45.94654" lon="4.73956">
        <ele>187</ele>
        <time>2018-04-14T10:37:55Z</time>
      </trkpt>
      <trkpt lat="45.94649" lon="4.73951">
        <ele>187</ele>
        <time>2018-04-14T10:37:56Z</time>
      </trkpt>
      <trkpt lat="45.94645" lon="4.73945">
        <ele>187</ele>
        <time>2018-04-14T10:37:57Z</time>
      </trkpt>
      <trkpt lat="45.94641" lon="4.73938">
        <ele>187</ele>
        <time>2018-04-14T10:37:58Z</time>
      </trkpt>
      <trkpt lat="45.94637" lon="4.73932">
        <ele>187</ele>
        <time>2018-04-14T10:37:59Z</time>
      </trkpt>
      <trkpt lat="45.94633" lon="4.73926">
        <ele>187</ele>
        <time>2018-04-14T10:38:00Z</time>
      </trkpt>
      <trkpt lat="45.94627" lon="4.73921">
        <ele>187</ele>
        <time>2018-04-14T10:38:01Z</time>
      </trkpt>
      <trkpt lat="45.94624" lon="4.73916">
        <ele>187</ele>
        <time>2018-04-14T10:38:02Z</time>
      </trkpt>
      <trkpt lat="45.9462" lon="4.7391">
        <ele>187</ele>
        <time>2018-04-14T10:38:03Z</time>
      </trkpt>
      <trkpt lat="45.94615" lon="4.73905">
        <ele>187</ele>
        <time>2018-04-14T10:38:04Z</time>
      </trkpt>
      <trkpt lat="45.94611" lon="4.73901">
        <ele>187</ele>
        <time>2018-04-14T10:38:05Z</time>
      </trkpt>
      <trkpt lat="45.94606" lon="4.73895">
        <ele>187</ele>
        <time>2018-04-14T10:38:06Z</time>
      </trkpt>
      <trkpt lat="45.94603" lon="4.73888">
        <ele>187</ele>
        <time>2018-04-14T10:38:07Z</time>
      </trkpt>
      <trkpt lat="45.94599" lon="4.73885">
        <ele>187</ele>
        <time>2018-04-14T10:38:08Z</time>
      </trkpt>
      <trkpt lat="45.94594" lon="4.7388">
        <ele>187</ele>
        <time>2018-04-14T10:38:09Z</time>
      </trkpt>
      <trkpt lat="45.9459" lon="4.73874">
        <ele>187</ele>
        <time>2018-04-14T10:38:10Z</time>
      </trkpt>
      <trkpt lat="45.94584" lon="4.73868">
        <ele>187</ele>
        <time>2018-04-14T10:38:11Z</time>
      </trkpt>
      <trkpt lat="45.94579" lon="4.73863">
        <ele>186</ele>
        <time>2018-04-14T10:38:12Z</time>
      </trkpt>
      <trkpt lat="45.94573" lon="4.73856">
        <ele>186</ele>
        <time>2018-04-14T10:38:13Z</time>
      </trkpt>
      <trkpt lat="45.94569" lon="4.73851">
        <ele>186</ele>
        <time>2018-04-14T10:38:14Z</time>
      </trkpt>
      <trkpt lat="45.94565" lon="4.73844">
        <ele>186</ele>
        <time>2018-04-14T10:38:15Z</time>
      </trkpt>
      <trkpt lat="45.94558" lon="4.73839">
        <ele>186</ele>
        <time>2018-04-14T10:38:16Z</time>
      </trkpt>
      <trkpt lat="45.94553" lon="4.73837">
        <ele>186</ele>
        <time>2018-04-14T10:38:17Z</time>
      </trkpt>
      <trkpt lat="45.94548" lon="4.73833">
        <ele>186</ele>
        <time>2018-04-14T10:38:18Z</time>
      </trkpt>
      <trkpt lat="45.94544" lon="4.73829">
        <ele>186</ele>
        <time>2018-04-14T10:38:19Z</time>
      </trkpt>
      <trkpt lat="45.94539" lon="4.73825">
        <ele>186</ele>
        <time>2018-04-14T10:38:20Z</time>
      </trkpt>
      <trkpt lat="45.94534" lon="4.7382">
        <ele>186</ele>
        <time>2018-04-14T10:38:21Z</time>
      </trkpt>
      <trkpt lat="45.9453" lon="4.73815">
        <ele>186</ele>
        <time>2018-04-14T10:38:22Z</time>
      </trkpt>
      <trkpt lat="45.94526" lon="4.73811">
        <ele>186</ele>
        <time>2018-04-14T10:38:23Z</time>
      </trkpt>
      <trkpt lat="45.94521" lon="4.73806">
        <ele>186</ele>
        <time>2018-04-14T10:38:24Z</time>
      </trkpt>
      <trkpt lat="45.94516" lon="4.73801">
        <ele>186</ele>
        <time>2018-04-14T10:38:25Z</time>
      </trkpt>
      <trkpt lat="45.94512" lon="4.73796">
        <ele>186</ele>
        <time>2018-04-14T10:38:26Z</time>
      </trkpt>
      <trkpt lat="45.94508" lon="4.73791">
        <ele>186</ele>
        <time>2018-04-14T10:38:27Z</time>
      </trkpt>
      <trkpt lat="45.94503" lon="4.73785">
        <ele>186</ele>
        <time>2018-04-14T10:38:28Z</time>
      </trkpt>
      <trkpt lat="45.94498" lon="4.7378">
        <ele>186</ele>
        <time>2018-04-14T10:38:29Z</time>
      </trkpt>
      <trkpt lat="45.94495" lon="4.73778">
        <ele>186</ele>
        <time>2018-04-14T10:38:30Z</time>
      </trkpt>
      <trkpt lat="45.94489" lon="4.7377">
        <ele>186</ele>
        <time>2018-04-14T10:38:32Z</time>
      </trkpt>
      <trkpt lat="45.94486" lon="4.73765">
        <ele>186</ele>
        <time>2018-04-14T10:38:33Z</time>
      </trkpt>
      <trkpt lat="45.94485" lon="4.73756">
        <ele>186</ele>
        <time>2018-04-14T10:38:35Z</time>
      </trkpt>
      <trkpt lat="45.94484" lon="4.73749">
        <ele>186</ele>
        <time>2018-04-14T10:38:36Z</time>
      </trkpt>
      <trkpt lat="45.94485" lon="4.7374">
        <ele>186</ele>
        <time>2018-04-14T10:38:37Z</time>
      </trkpt>
      <trkpt lat="45.94485" lon="4.73731">
        <ele>186</ele>
        <time>2018-04-14T10:38:38Z</time>
      </trkpt>
      <trkpt lat="45.94487" lon="4.73724">
        <ele>186</ele>
        <time>2018-04-14T10:38:39Z</time>
      </trkpt>
      <trkpt lat="45.94488" lon="4.73717">
        <ele>186</ele>
        <time>2018-04-14T10:38:40Z</time>
      </trkpt>
      <trkpt lat="45.94489" lon="4.73711">
        <ele>186</ele>
        <time>2018-04-14T10:38:41Z</time>
      </trkpt>
      <trkpt lat="45.9449" lon="4.73703">
        <ele>186</ele>
        <time>2018-04-14T10:38:42Z</time>
      </trkpt>
      <trkpt lat="45.9449" lon="4.73696">
        <ele>186</ele>
        <time>2018-04-14T10:38:43Z</time>
      </trkpt>
      <trkpt lat="45.94492" lon="4.73688">
        <ele>186</ele>
        <time>2018-04-14T10:38:44Z</time>
      </trkpt>
      <trkpt lat="45.94493" lon="4.7368">
        <ele>185</ele>
        <time>2018-04-14T10:38:45Z</time>
      </trkpt>
      <trkpt lat="45.94494" lon="4.73672">
        <ele>185</ele>
        <time>2018-04-14T10:38:46Z</time>
      </trkpt>
      <trkpt lat="45.94495" lon="4.73663">
        <ele>185</ele>
        <time>2018-04-14T10:38:47Z</time>
      </trkpt>
      <trkpt lat="45.94497" lon="4.73654">
        <ele>185</ele>
        <time>2018-04-14T10:38:48Z</time>
      </trkpt>
      <trkpt lat="45.94499" lon="4.73646">
        <ele>185</ele>
        <time>2018-04-14T10:38:49Z</time>
      </trkpt>
      <trkpt lat="45.94501" lon="4.73638">
        <ele>184</ele>
        <time>2018-04-14T10:38:50Z</time>
      </trkpt>
      <trkpt lat="45.94502" lon="4.73629">
        <ele>184</ele>
        <time>2018-04-14T10:38:51Z</time>
      </trkpt>
      <trkpt lat="45.94504" lon="4.73619">
        <ele>184</ele>
        <time>2018-04-14T10:38:52Z</time>
      </trkpt>
      <trkpt lat="45.94505" lon="4.7361">
        <ele>184</ele>
        <time>2018-04-14T10:38:53Z</time>
      </trkpt>
      <trkpt lat="45.94505" lon="4.73601">
        <ele>184</ele>
        <time>2018-04-14T10:38:54Z</time>
      </trkpt>
      <trkpt lat="45.94506" lon="4.73591">
        <ele>184</ele>
        <time>2018-04-14T10:38:55Z</time>
      </trkpt>
      <trkpt lat="45.94506" lon="4.73581">
        <ele>184</ele>
        <time>2018-04-14T10:38:56Z</time>
      </trkpt>
      <trkpt lat="45.94506" lon="4.73572">
        <ele>184</ele>
        <time>2018-04-14T10:38:57Z</time>
      </trkpt>
      <trkpt lat="45.94506" lon="4.73563">
        <ele>184</ele>
        <time>2018-04-14T10:38:58Z</time>
      </trkpt>
      <trkpt lat="45.94507" lon="4.73552">
        <ele>183</ele>
        <time>2018-04-14T10:38:59Z</time>
      </trkpt>
      <trkpt lat="45.94506" lon="4.73543">
        <ele>183</ele>
        <time>2018-04-14T10:39:00Z</time>
      </trkpt>
      <trkpt lat="45.94507" lon="4.73533">
        <ele>183</ele>
        <time>2018-04-14T10:39:01Z</time>
      </trkpt>
      <trkpt lat="45.94507" lon="4.73523">
        <ele>183</ele>
        <time>2018-04-14T10:39:02Z</time>
      </trkpt>
      <trkpt lat="45.94507" lon="4.73514">
        <ele>183</ele>
        <time>2018-04-14T10:39:03Z</time>
      </trkpt>
      <trkpt lat="45.94508" lon="4.73504">
        <ele>183</ele>
        <time>2018-04-14T10:39:04Z</time>
      </trkpt>
      <trkpt lat="45.94507" lon="4.73493">
        <ele>182</ele>
        <time>2018-04-14T10:39:05Z</time>
      </trkpt>
      <trkpt lat="45.94507" lon="4.73483">
        <ele>182</ele>
        <time>2018-04-14T10:39:06Z</time>
      </trkpt>
      <trkpt lat="45.94509" lon="4.73471">
        <ele>182</ele>
        <time>2018-04-14T10:39:07Z</time>
      </trkpt>
      <trkpt lat="45.94508" lon="4.7346">
        <ele>181</ele>
        <time>2018-04-14T10:39:08Z</time>
      </trkpt>
      <trkpt lat="45.94509" lon="4.73449">
        <ele>181</ele>
        <time>2018-04-14T10:39:09Z</time>
      </trkpt>
      <trkpt lat="45.94508" lon="4.73439">
        <ele>181</ele>
        <time>2018-04-14T10:39:10Z</time>
      </trkpt>
      <trkpt lat="45.94508" lon="4.73428">
        <ele>180</ele>
        <time>2018-04-14T10:39:11Z</time>
      </trkpt>
      <trkpt lat="45.94508" lon="4.73417">
        <ele>180</ele>
        <time>2018-04-14T10:39:12Z</time>
      </trkpt>
      <trkpt lat="45.94507" lon="4.73406">
        <ele>179</ele>
        <time>2018-04-14T10:39:13Z</time>
      </trkpt>
      <trkpt lat="45.94507" lon="4.73395">
        <ele>179</ele>
        <time>2018-04-14T10:39:14Z</time>
      </trkpt>
      <trkpt lat="45.94503" lon="4.73383">
        <ele>179</ele>
        <time>2018-04-14T10:39:15Z</time>
      </trkpt>
      <trkpt lat="45.94499" lon="4.73372">
        <ele>179</ele>
        <time>2018-04-14T10:39:16Z</time>
      </trkpt>
      <trkpt lat="45.94495" lon="4.7336">
        <ele>179</ele>
        <time>2018-04-14T10:39:17Z</time>
      </trkpt>
      <trkpt lat="45.94494" lon="4.73349">
        <ele>178</ele>
        <time>2018-04-14T10:39:18Z</time>
      </trkpt>
      <trkpt lat="45.94494" lon="4.73341">
        <ele>178</ele>
        <time>2018-04-14T10:39:19Z</time>
      </trkpt>
      <trkpt lat="45.94493" lon="4.7333">
        <ele>177</ele>
        <time>2018-04-14T10:39:20Z</time>
      </trkpt>
      <trkpt lat="45.94492" lon="4.7332">
        <ele>177</ele>
        <time>2018-04-14T10:39:21Z</time>
      </trkpt>
      <trkpt lat="45.94492" lon="4.73311">
        <ele>177</ele>
        <time>2018-04-14T10:39:22Z</time>
      </trkpt>
      <trkpt lat="45.94491" lon="4.733">
        <ele>177</ele>
        <time>2018-04-14T10:39:23Z</time>
      </trkpt>
      <trkpt lat="45.94489" lon="4.73288">
        <ele>177</ele>
        <time>2018-04-14T10:39:24Z</time>
      </trkpt>
      <trkpt lat="45.94488" lon="4.73276">
        <ele>177</ele>
        <time>2018-04-14T10:39:25Z</time>
      </trkpt>
      <trkpt lat="45.94488" lon="4.73266">
        <ele>177</ele>
        <time>2018-04-14T10:39:26Z</time>
      </trkpt>
      <trkpt lat="45.94487" lon="4.73255">
        <ele>176</ele>
        <time>2018-04-14T10:39:27Z</time>
      </trkpt>
      <trkpt lat="45.94484" lon="4.73242">
        <ele>175</ele>
        <time>2018-04-14T10:39:28Z</time>
      </trkpt>
      <trkpt lat="45.94484" lon="4.73232">
        <ele>175</ele>
        <time>2018-04-14T10:39:29Z</time>
      </trkpt>
      <trkpt lat="45.94482" lon="4.73221">
        <ele>175</ele>
        <time>2018-04-14T10:39:30Z</time>
      </trkpt>
      <trkpt lat="45.9448" lon="4.73209">
        <ele>175</ele>
        <time>2018-04-14T10:39:31Z</time>
      </trkpt>
      <trkpt lat="45.94479" lon="4.73197">
        <ele>174</ele>
        <time>2018-04-14T10:39:32Z</time>
      </trkpt>
      <trkpt lat="45.94478" lon="4.73185">
        <ele>174</ele>
        <time>2018-04-14T10:39:33Z</time>
      </trkpt>
      <trkpt lat="45.94478" lon="4.73175">
        <ele>174</ele>
        <time>2018-04-14T10:39:34Z</time>
      </trkpt>
      <trkpt lat="45.94474" lon="4.73165">
        <ele>173</ele>
        <time>2018-04-14T10:39:35Z</time>
      </trkpt>
      <trkpt lat="45.94472" lon="4.73154">
        <ele>172</ele>
        <time>2018-04-14T10:39:36Z</time>
      </trkpt>
      <trkpt lat="45.9447" lon="4.73143">
        <ele>172</ele>
        <time>2018-04-14T10:39:37Z</time>
      </trkpt>
      <trkpt lat="45.9447" lon="4.73133">
        <ele>172</ele>
        <time>2018-04-14T10:39:38Z</time>
      </trkpt>
      <trkpt lat="45.94469" lon="4.73124">
        <ele>172</ele>
        <time>2018-04-14T10:39:39Z</time>
      </trkpt>
      <trkpt lat="45.94468" lon="4.73115">
        <ele>172</ele>
        <time>2018-04-14T10:39:40Z</time>
      </trkpt>
      <trkpt lat="45.94467" lon="4.73106">
        <ele>172</ele>
        <time>2018-04-14T10:39:41Z</time>
      </trkpt>
      <trkpt lat="45.94466" lon="4.73097">
        <ele>172</ele>
        <time>2018-04-14T10:39:42Z</time>
      </trkpt>
      <trkpt lat="45.94466" lon="4.73087">
        <ele>171</ele>
        <time>2018-04-14T10:39:43Z</time>
      </trkpt>
      <trkpt lat="45.94462" lon="4.73078">
        <ele>170</ele>
        <time>2018-04-14T10:39:44Z</time>
      </trkpt>
      <trkpt lat="45.9446" lon="4.73068">
        <ele>170</ele>
        <time>2018-04-14T10:39:45Z</time>
      </trkpt>
      <trkpt lat="45.94458" lon="4.73059">
        <ele>170</ele>
        <time>2018-04-14T10:39:46Z</time>
      </trkpt>
      <trkpt lat="45.94457" lon="4.7305">
        <ele>170</ele>
        <time>2018-04-14T10:39:47Z</time>
      </trkpt>
      <trkpt lat="45.94453" lon="4.73041">
        <ele>169</ele>
        <time>2018-04-14T10:39:48Z</time>
      </trkpt>
      <trkpt lat="45.94453" lon="4.73033">
        <ele>169</ele>
        <time>2018-04-14T10:39:49Z</time>
      </trkpt>
      <trkpt lat="45.94451" lon="4.73024">
        <ele>169</ele>
        <time>2018-04-14T10:39:50Z</time>
      </trkpt>
      <trkpt lat="45.94447" lon="4.73016">
        <ele>169</ele>
        <time>2018-04-14T10:39:51Z</time>
      </trkpt>
      <trkpt lat="45.94447" lon="4.73009">
        <ele>169</ele>
        <time>2018-04-14T10:39:52Z</time>
      </trkpt>
      <trkpt lat="45.94445" lon="4.73002">
        <ele>168</ele>
        <time>2018-04-14T10:39:53Z</time>
      </trkpt>
      <trkpt lat="45.94444" lon="4.72996">
        <ele>167</ele>
        <time>2018-04-14T10:39:54Z</time>
      </trkpt>
      <trkpt lat="45.94443" lon="4.72987">
        <ele>167</ele>
        <time>2018-04-14T10:39:55Z</time>
      </trkpt>
      <trkpt lat="45.94443" lon="4.72981">
        <ele>167</ele>
        <time>2018-04-14T10:39:56Z</time>
      </trkpt>
      <trkpt lat="45.94442" lon="4.72969">
        <ele>167</ele>
        <time>2018-04-14T10:39:58Z</time>
      </trkpt>
      <trkpt lat="45.9444" lon="4.72962">
        <ele>167</ele>
        <time>2018-04-14T10:39:59Z</time>
      </trkpt>
      <trkpt lat="45.94439" lon="4.72951">
        <ele>167</ele>
        <time>2018-04-14T10:40:01Z</time>
      </trkpt>
      <trkpt lat="45.94437" lon="4.72945">
        <ele>167</ele>
        <time>2018-04-14T10:40:02Z</time>
      </trkpt>
      <trkpt lat="45.94437" lon="4.72933">
        <ele>167</ele>
        <time>2018-04-14T10:40:04Z</time>
      </trkpt>
      <trkpt lat="45.94437" lon="4.72928">
        <ele>167</ele>
        <time>2018-04-14T10:40:05Z</time>
      </trkpt>
      <trkpt lat="45.94436" lon="4.72917">
        <ele>167</ele>
        <time>2018-04-14T10:40:07Z</time>
      </trkpt>
      <trkpt lat="45.94435" lon="4.72911">
        <ele>166</ele>
        <time>2018-04-14T10:40:08Z</time>
      </trkpt>
      <trkpt lat="45.94434" lon="4.72899">
        <ele>166</ele>
        <time>2018-04-14T10:40:10Z</time>
      </trkpt>
      <trkpt lat="45.94434" lon="4.72892">
        <ele>166</ele>
        <time>2018-04-14T10:40:11Z</time>
      </trkpt>
      <trkpt lat="45.94432" lon="4.72885">
        <ele>166</ele>
        <time>2018-04-14T10:40:12Z</time>
      </trkpt>
      <trkpt lat="45.94431" lon="4.72879">
        <ele>166</ele>
        <time>2018-04-14T10:40:13Z</time>
      </trkpt>
      <trkpt lat="45.9443" lon="4.72872">
        <ele>166</ele>
        <time>2018-04-14T10:40:14Z</time>
      </trkpt>
      <trkpt lat="45.9443" lon="4.72864">
        <ele>166</ele>
        <time>2018-04-14T10:40:15Z</time>
      </trkpt>
      <trkpt lat="45.94429" lon="4.72856">
        <ele>166</ele>
        <time>2018-04-14T10:40:16Z</time>
      </trkpt>
      <trkpt lat="45.94428" lon="4.72848">
        <ele>166</ele>
        <time>2018-04-14T10:40:17Z</time>
      </trkpt>
      <trkpt lat="45.94428" lon="4.7284">
        <ele>166</ele>
        <time>2018-04-14T10:40:18Z</time>
      </trkpt>
      <trkpt lat="45.94427" lon="4.72832">
        <ele>166</ele>
        <time>2018-04-14T10:40:19Z</time>
      </trkpt>
      <trkpt lat="45.94426" lon="4.72823">
        <ele>167</ele>
        <time>2018-04-14T10:40:20Z</time>
      </trkpt>
      <trkpt lat="45.94424" lon="4.72813">
        <ele>167</ele>
        <time>2018-04-14T10:40:21Z</time>
      </trkpt>
      <trkpt lat="45.94423" lon="4.72804">
        <ele>167</ele>
        <time>2018-04-14T10:40:22Z</time>
      </trkpt>
      <trkpt lat="45.94422" lon="4.72794">
        <ele>168</ele>
        <time>2018-04-14T10:40:23Z</time>
      </trkpt>
      <trkpt lat="45.9442" lon="4.72784">
        <ele>168</ele>
        <time>2018-04-14T10:40:24Z</time>
      </trkpt>
      <trkpt lat="45.94418" lon="4.72773">
        <ele>169</ele>
        <time>2018-04-14T10:40:25Z</time>
      </trkpt>
      <trkpt lat="45.94417" lon="4.72764">
        <ele>169</ele>
        <time>2018-04-14T10:40:26Z</time>
      </trkpt>
      <trkpt lat="45.94417" lon="4.72754">
        <ele>170</ele>
        <time>2018-04-14T10:40:27Z</time>
      </trkpt>
      <trkpt lat="45.94416" lon="4.72743">
        <ele>171</ele>
        <time>2018-04-14T10:40:28Z</time>
      </trkpt>
      <trkpt lat="45.94412" lon="4.72731">
        <ele>172</ele>
        <time>2018-04-14T10:40:29Z</time>
      </trkpt>
      <trkpt lat="45.94411" lon="4.72722">
        <ele>172</ele>
        <time>2018-04-14T10:40:30Z</time>
      </trkpt>
      <trkpt lat="45.94413" lon="4.72712">
        <ele>172</ele>
        <time>2018-04-14T10:40:31Z</time>
      </trkpt>
      <trkpt lat="45.94414" lon="4.72704">
        <ele>172</ele>
        <time>2018-04-14T10:40:32Z</time>
      </trkpt>
      <trkpt lat="45.94411" lon="4.72694">
        <ele>173</ele>
        <time>2018-04-14T10:40:33Z</time>
      </trkpt>
      <trkpt lat="45.9441" lon="4.72684">
        <ele>173</ele>
        <time>2018-04-14T10:40:34Z</time>
      </trkpt>
      <trkpt lat="45.94409" lon="4.72675">
        <ele>173</ele>
        <time>2018-04-14T10:40:35Z</time>
      </trkpt>
      <trkpt lat="45.94408" lon="4.72664">
        <ele>174</ele>
        <time>2018-04-14T10:40:36Z</time>
      </trkpt>
      <trkpt lat="45.94407" lon="4.72656">
        <ele>174</ele>
        <time>2018-04-14T10:40:37Z</time>
      </trkpt>
      <trkpt lat="45.94407" lon="4.72646">
        <ele>174</ele>
        <time>2018-04-14T10:40:38Z</time>
      </trkpt>
      <trkpt lat="45.94406" lon="4.72638">
        <ele>174</ele>
        <time>2018-04-14T10:40:39Z</time>
      </trkpt>
      <trkpt lat="45.94405" lon="4.7263">
        <ele>174</ele>
        <time>2018-04-14T10:40:40Z</time>
      </trkpt>
      <trkpt lat="45.94404" lon="4.72621">
        <ele>173</ele>
        <time>2018-04-14T10:40:41Z</time>
      </trkpt>
      <trkpt lat="45.94402" lon="4.72612">
        <ele>173</ele>
        <time>2018-04-14T10:40:42Z</time>
      </trkpt>
      <trkpt lat="45.94401" lon="4.72605">
        <ele>173</ele>
        <time>2018-04-14T10:40:43Z</time>
      </trkpt>
      <trkpt lat="45.944" lon="4.72597">
        <ele>173</ele>
        <time>2018-04-14T10:40:44Z</time>
      </trkpt>
      <trkpt lat="45.94399" lon="4.72589">
        <ele>173</ele>
        <time>2018-04-14T10:40:45Z</time>
      </trkpt>
      <trkpt lat="45.94398" lon="4.7258">
        <ele>173</ele>
        <time>2018-04-14T10:40:46Z</time>
      </trkpt>
      <trkpt lat="45.94397" lon="4.72572">
        <ele>173</ele>
        <time>2018-04-14T10:40:47Z</time>
      </trkpt>
      <trkpt lat="45.94395" lon="4.72564">
        <ele>173</ele>
        <time>2018-04-14T10:40:48Z</time>
      </trkpt>
      <trkpt lat="45.94393" lon="4.72555">
        <ele>173</ele>
        <time>2018-04-14T10:40:49Z</time>
      </trkpt>
      <trkpt lat="45.94392" lon="4.72547">
        <ele>173</ele>
        <time>2018-04-14T10:40:50Z</time>
      </trkpt>
      <trkpt lat="45.9439" lon="4.72538">
        <ele>174</ele>
        <time>2018-04-14T10:40:51Z</time>
      </trkpt>
      <trkpt lat="45.94391" lon="4.72531">
        <ele>174</ele>
        <time>2018-04-14T10:40:52Z</time>
      </trkpt>
      <trkpt lat="45.94388" lon="4.72523">
        <ele>174</ele>
        <time>2018-04-14T10:40:53Z</time>
      </trkpt>
      <trkpt lat="45.94386" lon="4.72517">
        <ele>174</ele>
        <time>2018-04-14T10:40:54Z</time>
      </trkpt>
      <trkpt lat="45.94385" lon="4.7251">
        <ele>174</ele>
        <time>2018-04-14T10:40:55Z</time>
      </trkpt>
      <trkpt lat="45.94382" lon="4.72503">
        <ele>174</ele>
        <time>2018-04-14T10:40:56Z</time>
      </trkpt>
      <trkpt lat="45.9438" lon="4.72495">
        <ele>173</ele>
        <time>2018-04-14T10:40:57Z</time>
      </trkpt>
      <trkpt lat="45.94377" lon="4.72487">
        <ele>173</ele>
        <time>2018-04-14T10:40:58Z</time>
      </trkpt>
      <trkpt lat="45.94375" lon="4.7248">
        <ele>173</ele>
        <time>2018-04-14T10:40:59Z</time>
      </trkpt>
      <trkpt lat="45.94372" lon="4.72473">
        <ele>173</ele>
        <time>2018-04-14T10:41:00Z</time>
      </trkpt>
      <trkpt lat="45.94369" lon="4.72468">
        <ele>173</ele>
        <time>2018-04-14T10:41:01Z</time>
      </trkpt>
      <trkpt lat="45.94367" lon="4.72461">
        <ele>173</ele>
        <time>2018-04-14T10:41:02Z</time>
      </trkpt>
      <trkpt lat="45.94364" lon="4.72454">
        <ele>173</ele>
        <time>2018-04-14T10:41:03Z</time>
      </trkpt>
      <trkpt lat="45.94361" lon="4.72446">
        <ele>173</ele>
        <time>2018-04-14T10:41:04Z</time>
      </trkpt>
      <trkpt lat="45.94357" lon="4.72441">
        <ele>173</ele>
        <time>2018-04-14T10:41:05Z</time>
      </trkpt>
      <trkpt lat="45.94353" lon="4.72436">
        <ele>173</ele>
        <time>2018-04-14T10:41:06Z</time>
      </trkpt>
      <trkpt lat="45.94349" lon="4.72427">
        <ele>173</ele>
        <time>2018-04-14T10:41:07Z</time>
      </trkpt>
      <trkpt lat="45.94346" lon="4.72421">
        <ele>173</ele>
        <time>2018-04-14T10:41:08Z</time>
      </trkpt>
      <trkpt lat="45.94345" lon="4.72413">
        <ele>173</ele>
        <time>2018-04-14T10:41:09Z</time>
      </trkpt>
      <trkpt lat="45.9434" lon="4.72406">
        <ele>173</ele>
        <time>2018-04-14T10:41:10Z</time>
      </trkpt>
      <trkpt lat="45.94336" lon="4.724">
        <ele>173</ele>
        <time>2018-04-14T10:41:11Z</time>
      </trkpt>
      <trkpt lat="45.94335" lon="4.72394">
        <ele>172</ele>
        <time>2018-04-14T10:41:12Z</time>
      </trkpt>
      <trkpt lat="45.94333" lon="4.72388">
        <ele>172</ele>
        <time>2018-04-14T10:41:13Z</time>
      </trkpt>
      <trkpt lat="45.94329" lon="4.7238">
        <ele>172</ele>
        <time>2018-04-14T10:41:14Z</time>
      </trkpt>
      <trkpt lat="45.94326" lon="4.72373">
        <ele>172</ele>
        <time>2018-04-14T10:41:15Z</time>
      </trkpt>
      <trkpt lat="45.9432" lon="4.72362">
        <ele>172</ele>
        <time>2018-04-14T10:41:16Z</time>
      </trkpt>
      <trkpt lat="45.94318" lon="4.72357">
        <ele>172</ele>
        <time>2018-04-14T10:41:17Z</time>
      </trkpt>
      <trkpt lat="45.94315" lon="4.7235">
        <ele>172</ele>
        <time>2018-04-14T10:41:18Z</time>
      </trkpt>
      <trkpt lat="45.94312" lon="4.72342">
        <ele>172</ele>
        <time>2018-04-14T10:41:20Z</time>
      </trkpt>
      <trkpt lat="45.94309" lon="4.72333">
        <ele>172</ele>
        <time>2018-04-14T10:41:21Z</time>
      </trkpt>
      <trkpt lat="45.94306" lon="4.72328">
        <ele>171</ele>
        <time>2018-04-14T10:41:22Z</time>
      </trkpt>
      <trkpt lat="45.94303" lon="4.72323">
        <ele>171</ele>
        <time>2018-04-14T10:41:23Z</time>
      </trkpt>
      <trkpt lat="45.94302" lon="4.72316">
        <ele>171</ele>
        <time>2018-04-14T10:41:24Z</time>
      </trkpt>
      <trkpt lat="45.94298" lon="4.7231">
        <ele>171</ele>
        <time>2018-04-14T10:41:25Z</time>
      </trkpt>
      <trkpt lat="45.94294" lon="4.72304">
        <ele>171</ele>
        <time>2018-04-14T10:41:26Z</time>
      </trkpt>
      <trkpt lat="45.94291" lon="4.72295">
        <ele>171</ele>
        <time>2018-04-14T10:41:27Z</time>
      </trkpt>
      <trkpt lat="45.94289" lon="4.72289">
        <ele>171</ele>
        <time>2018-04-14T10:41:28Z</time>
      </trkpt>
      <trkpt lat="45.94286" lon="4.72282">
        <ele>171</ele>
        <time>2018-04-14T10:41:29Z</time>
      </trkpt>
      <trkpt lat="45.94282" lon="4.72277">
        <ele>171</ele>
        <time>2018-04-14T10:41:30Z</time>
      </trkpt>
      <trkpt lat="45.9428" lon="4.7227">
        <ele>171</ele>
        <time>2018-04-14T10:41:31Z</time>
      </trkpt>
      <trkpt lat="45.94275" lon="4.72266">
        <ele>171</ele>
        <time>2018-04-14T10:41:32Z</time>
      </trkpt>
      <trkpt lat="45.9427" lon="4.72265">
        <ele>171</ele>
        <time>2018-04-14T10:41:33Z</time>
      </trkpt>
      <trkpt lat="45.94265" lon="4.72267">
        <ele>171</ele>
        <time>2018-04-14T10:41:34Z</time>
      </trkpt>
      <trkpt lat="45.9426" lon="4.7227">
        <ele>171</ele>
        <time>2018-04-14T10:41:35Z</time>
      </trkpt>
      <trkpt lat="45.94256" lon="4.72274">
        <ele>171</ele>
        <time>2018-04-14T10:41:36Z</time>
      </trkpt>
      <trkpt lat="45.94251" lon="4.72277">
        <ele>171</ele>
        <time>2018-04-14T10:41:37Z</time>
      </trkpt>
      <trkpt lat="45.94245" lon="4.7228">
        <ele>171</ele>
        <time>2018-04-14T10:41:38Z</time>
      </trkpt>
      <trkpt lat="45.9424" lon="4.72282">
        <ele>171</ele>
        <time>2018-04-14T10:41:39Z</time>
      </trkpt>
      <trkpt lat="45.94235" lon="4.72284">
        <ele>171</ele>
        <time>2018-04-14T10:41:40Z</time>
      </trkpt>
      <trkpt lat="45.94229" lon="4.72284">
        <ele>171</ele>
        <time>2018-04-14T10:41:41Z</time>
      </trkpt>
      <trkpt lat="45.94224" lon="4.72284">
        <ele>171</ele>
        <time>2018-04-14T10:41:42Z</time>
      </trkpt>
      <trkpt lat="45.94219" lon="4.72284">
        <ele>171</ele>
        <time>2018-04-14T10:41:43Z</time>
      </trkpt>
      <trkpt lat="45.94214" lon="4.72285">
        <ele>171</ele>
        <time>2018-04-14T10:41:44Z</time>
      </trkpt>
      <trkpt lat="45.94209" lon="4.72286">
        <ele>171</ele>
        <time>2018-04-14T10:41:45Z</time>
      </trkpt>
      <trkpt lat="45.94205" lon="4.72287">
        <ele>171</ele>
        <time>2018-04-14T10:41:46Z</time>
      </trkpt>
      <trkpt lat="45.942" lon="4.72288">
        <ele>171</ele>
        <time>2018-04-14T10:41:47Z</time>
      </trkpt>
      <trkpt lat="45.94194" lon="4.72289">
        <ele>171</ele>
        <time>2018-04-14T10:41:48Z</time>
      </trkpt>
      <trkpt lat="45.94189" lon="4.72289">
        <ele>171</ele>
        <time>2018-04-14T10:41:49Z</time>
      </trkpt>
      <trkpt lat="45.94184" lon="4.72288">
        <ele>171</ele>
        <time>2018-04-14T10:41:50Z</time>
      </trkpt>
      <trkpt lat="45.94179" lon="4.72287">
        <ele>171</ele>
        <time>2018-04-14T10:41:51Z</time>
      </trkpt>
      <trkpt lat="45.94173" lon="4.7229">
        <ele>171</ele>
        <time>2018-04-14T10:41:52Z</time>
      </trkpt>
      <trkpt lat="45.94168" lon="4.7229">
        <ele>171</ele>
        <time>2018-04-14T10:41:53Z</time>
      </trkpt>
      <trkpt lat="45.94163" lon="4.72289">
        <ele>171</ele>
        <time>2018-04-14T10:41:54Z</time>
      </trkpt>
      <trkpt lat="45.94158" lon="4.72288">
        <ele>171</ele>
        <time>2018-04-14T10:41:55Z</time>
      </trkpt>
      <trkpt lat="45.94153" lon="4.72288">
        <ele>171</ele>
        <time>2018-04-14T10:41:56Z</time>
      </trkpt>
      <trkpt lat="45.94147" lon="4.72286">
        <ele>171</ele>
        <time>2018-04-14T10:41:57Z</time>
      </trkpt>
      <trkpt lat="45.94143" lon="4.72283">
        <ele>171</ele>
        <time>2018-04-14T10:41:58Z</time>
      </trkpt>
      <trkpt lat="45.94137" lon="4.72285">
        <ele>171</ele>
        <time>2018-04-14T10:41:59Z</time>
      </trkpt>
      <trkpt lat="45.94132" lon="4.72283">
        <ele>171</ele>
        <time>2018-04-14T10:42:00Z</time>
      </trkpt>
      <trkpt lat="45.94127" lon="4.72278">
        <ele>171</ele>
        <time>2018-04-14T10:42:01Z</time>
      </trkpt>
      <trkpt lat="45.94122" lon="4.72275">
        <ele>171</ele>
        <time>2018-04-14T10:42:02Z</time>
      </trkpt>
      <trkpt lat="45.94117" lon="4.72273">
        <ele>171</ele>
        <time>2018-04-14T10:42:03Z</time>
      </trkpt>
      <trkpt lat="45.94112" lon="4.72271">
        <ele>171</ele>
        <time>2018-04-14T10:42:04Z</time>
      </trkpt>
      <trkpt lat="45.94107" lon="4.72269">
        <ele>171</ele>
        <time>2018-04-14T10:42:05Z</time>
      </trkpt>
      <trkpt lat="45.94102" lon="4.72268">
        <ele>171</ele>
        <time>2018-04-14T10:42:06Z</time>
      </trkpt>
      <trkpt lat="45.94097" lon="4.72269">
        <ele>171</ele>
        <time>2018-04-14T10:42:07Z</time>
      </trkpt>
      <trkpt lat="45.94091" lon="4.72269">
        <ele>171</ele>
        <time>2018-04-14T10:42:08Z</time>
      </trkpt>
      <trkpt lat="45.94086" lon="4.72271">
        <ele>171</ele>
        <time>2018-04-14T10:42:09Z</time>
      </trkpt>
      <trkpt lat="45.94081" lon="4.72273">
        <ele>171</ele>
        <time>2018-04-14T10:42:10Z</time>
      </trkpt>
      <trkpt lat="45.94075" lon="4.72276">
        <ele>171</ele>
        <time>2018-04-14T10:42:11Z</time>
      </trkpt>
      <trkpt lat="45.9407" lon="4.7228">
        <ele>171</ele>
        <time>2018-04-14T10:42:12Z</time>
      </trkpt>
      <trkpt lat="45.94065" lon="4.72284">
        <ele>171</ele>
        <time>2018-04-14T10:42:13Z</time>
      </trkpt>
      <trkpt lat="45.9406" lon="4.72289">
        <ele>171</ele>
        <time>2018-04-14T10:42:14Z</time>
      </trkpt>
      <trkpt lat="45.94056" lon="4.72294">
        <ele>171</ele>
        <time>2018-04-14T10:42:15Z</time>
      </trkpt>
      <trkpt lat="45.9405" lon="4.72299">
        <ele>171</ele>
        <time>2018-04-14T10:42:16Z</time>
      </trkpt>
      <trkpt lat="45.94047" lon="4.72304">
        <ele>171</ele>
        <time>2018-04-14T10:42:17Z</time>
      </trkpt>
      <trkpt lat="45.94042" lon="4.7231">
        <ele>171</ele>
        <time>2018-04-14T10:42:18Z</time>
      </trkpt>
      <trkpt lat="45.94038" lon="4.72316">
        <ele>171</ele>
        <time>2018-04-14T10:42:19Z</time>
      </trkpt>
      <trkpt lat="45.94033" lon="4.72323">
        <ele>171</ele>
        <time>2018-04-14T10:42:20Z</time>
      </trkpt>
      <trkpt lat="45.94029" lon="4.7233">
        <ele>171</ele>
        <time>2018-04-14T10:42:21Z</time>
      </trkpt>
      <trkpt lat="45.94024" lon="4.72336">
        <ele>171</ele>
        <time>2018-04-14T10:42:22Z</time>
      </trkpt>
      <trkpt lat="45.94019" lon="4.72343">
        <ele>171</ele>
        <time>2018-04-14T10:42:23Z</time>
      </trkpt>
      <trkpt lat="45.94015" lon="4.72349">
        <ele>171</ele>
        <time>2018-04-14T10:42:24Z</time>
      </trkpt>
      <trkpt lat="45.9401" lon="4.72355">
        <ele>171</ele>
        <time>2018-04-14T10:42:25Z</time>
      </trkpt>
      <trkpt lat="45.94005" lon="4.72361">
        <ele>171</ele>
        <time>2018-04-14T10:42:26Z</time>
      </trkpt>
      <trkpt lat="45.94001" lon="4.72367">
        <ele>171</ele>
        <time>2018-04-14T10:42:27Z</time>
      </trkpt>
      <trkpt lat="45.93996" lon="4.72373">
        <ele>171</ele>
        <time>2018-04-14T10:42:28Z</time>
      </trkpt>
      <trkpt lat="45.93991" lon="4.7238">
        <ele>171</ele>
        <time>2018-04-14T10:42:29Z</time>
      </trkpt>
      <trkpt lat="45.93987" lon="4.72384">
        <ele>171</ele>
        <time>2018-04-14T10:42:30Z</time>
      </trkpt>
      <trkpt lat="45.93983" lon="4.7239">
        <ele>171</ele>
        <time>2018-04-14T10:42:31Z</time>
      </trkpt>
      <trkpt lat="45.93978" lon="4.72394">
        <ele>171</ele>
        <time>2018-04-14T10:42:32Z</time>
      </trkpt>
      <trkpt lat="45.93974" lon="4.72399">
        <ele>171</ele>
        <time>2018-04-14T10:42:33Z</time>
      </trkpt>
      <trkpt lat="45.9397" lon="4.72404">
        <ele>171</ele>
        <time>2018-04-14T10:42:34Z</time>
      </trkpt>
      <trkpt lat="45.93967" lon="4.7241">
        <ele>171</ele>
        <time>2018-04-14T10:42:35Z</time>
      </trkpt>
      <trkpt lat="45.93959" lon="4.72416">
        <ele>171</ele>
        <time>2018-04-14T10:42:37Z</time>
      </trkpt>
      <trkpt lat="45.93955" lon="4.72421">
        <ele>171</ele>
        <time>2018-04-14T10:42:38Z</time>
      </trkpt>
      <trkpt lat="45.93951" lon="4.72425">
        <ele>171</ele>
        <time>2018-04-14T10:42:39Z</time>
      </trkpt>
      <trkpt lat="45.93947" lon="4.72429">
        <ele>171</ele>
        <time>2018-04-14T10:42:40Z</time>
      </trkpt>
      <trkpt lat="45.93943" lon="4.72434">
        <ele>171</ele>
        <time>2018-04-14T10:42:41Z</time>
      </trkpt>
      <trkpt lat="45.93939" lon="4.72439">
        <ele>171</ele>
        <time>2018-04-14T10:42:42Z</time>
      </trkpt>
      <trkpt lat="45.93933" lon="4.72447">
        <ele>171</ele>
        <time>2018-04-14T10:42:44Z</time>
      </trkpt>
      <trkpt lat="45.93929" lon="4.72451">
        <ele>171</ele>
        <time>2018-04-14T10:42:45Z</time>
      </trkpt>
      <trkpt lat="45.93926" lon="4.72456">
        <ele>171</ele>
        <time>2018-04-14T10:42:46Z</time>
      </trkpt>
      <trkpt lat="45.93923" lon="4.72465">
        <ele>171</ele>
        <time>2018-04-14T10:42:47Z</time>
      </trkpt>
      <trkpt lat="45.93921" lon="4.72469">
        <ele>171</ele>
        <time>2018-04-14T10:42:48Z</time>
      </trkpt>
      <trkpt lat="45.93917" lon="4.72475">
        <ele>171</ele>
        <time>2018-04-14T10:42:49Z</time>
      </trkpt>
      <trkpt lat="45.93914" lon="4.72478">
        <ele>172</ele>
        <time>2018-04-14T10:42:50Z</time>
      </trkpt>
      <trkpt lat="45.9391" lon="4.72483">
        <ele>172</ele>
        <time>2018-04-14T10:42:51Z</time>
      </trkpt>
      <trkpt lat="45.93906" lon="4.72487">
        <ele>172</ele>
        <time>2018-04-14T10:42:52Z</time>
      </trkpt>
      <trkpt lat="45.93902" lon="4.72494">
        <ele>172</ele>
        <time>2018-04-14T10:42:53Z</time>
      </trkpt>
      <trkpt lat="45.93898" lon="4.725">
        <ele>172</ele>
        <time>2018-04-14T10:42:54Z</time>
      </trkpt>
      <trkpt lat="45.93895" lon="4.72504">
        <ele>172</ele>
        <time>2018-04-14T10:42:55Z</time>
      </trkpt>
      <trkpt lat="45.93891" lon="4.72509">
        <ele>173</ele>
        <time>2018-04-14T10:42:56Z</time>
      </trkpt>
      <trkpt lat="45.93887" lon="4.72513">
        <ele>173</ele>
        <time>2018-04-14T10:42:57Z</time>
      </trkpt>
      <trkpt lat="45.93881" lon="4.72521">
        <ele>173</ele>
        <time>2018-04-14T10:42:59Z</time>
      </trkpt>
      <trkpt lat="45.93877" lon="4.72525">
        <ele>173</ele>
        <time>2018-04-14T10:43:00Z</time>
      </trkpt>
      <trkpt lat="45.93872" lon="4.72527">
        <ele>173</ele>
        <time>2018-04-14T10:43:01Z</time>
      </trkpt>
      <trkpt lat="45.93867" lon="4.72527">
        <ele>173</ele>
        <time>2018-04-14T10:43:02Z</time>
      </trkpt>
      <trkpt lat="45.93862" lon="4.72524">
        <ele>173</ele>
        <time>2018-04-14T10:43:03Z</time>
      </trkpt>
      <trkpt lat="45.93857" lon="4.72522">
        <ele>173</ele>
        <time>2018-04-14T10:43:04Z</time>
      </trkpt>
      <trkpt lat="45.93855" lon="4.72521">
        <ele>173</ele>
        <time>2018-04-14T10:43:05Z</time>
      </trkpt>
      <trkpt lat="45.93829" lon="4.72498">
        <ele>174</ele>
        <time>2018-04-14T10:43:11Z</time>
      </trkpt>
      <trkpt lat="45.93819" lon="4.72479">
        <ele>173</ele>
        <time>2018-04-14T10:43:12Z</time>
      </trkpt>
      <trkpt lat="45.93816" lon="4.72473">
        <ele>172</ele>
        <time>2018-04-14T10:43:13Z</time>
      </trkpt>
      <trkpt lat="45.93813" lon="4.72469">
        <ele>172</ele>
        <time>2018-04-14T10:43:14Z</time>
      </trkpt>
      <trkpt lat="45.9381" lon="4.72462">
        <ele>172</ele>
        <time>2018-04-14T10:43:16Z</time>
      </trkpt>
      <trkpt lat="45.93805" lon="4.72457">
        <ele>172</ele>
        <time>2018-04-14T10:43:17Z</time>
      </trkpt>
      <trkpt lat="45.93798" lon="4.72453">
        <ele>172</ele>
        <time>2018-04-14T10:43:18Z</time>
      </trkpt>
      <trkpt lat="45.93793" lon="4.7245">
        <ele>172</ele>
        <time>2018-04-14T10:43:19Z</time>
      </trkpt>
      <trkpt lat="45.93785" lon="4.72443">
        <ele>172</ele>
        <time>2018-04-14T10:43:22Z</time>
      </trkpt>
      <trkpt lat="45.93781" lon="4.72437">
        <ele>172</ele>
        <time>2018-04-14T10:43:23Z</time>
      </trkpt>
      <trkpt lat="45.93773" lon="4.7243">
        <ele>171</ele>
        <time>2018-04-14T10:43:25Z</time>
      </trkpt>
      <trkpt lat="45.9377" lon="4.72427">
        <ele>171</ele>
        <time>2018-04-14T10:43:26Z</time>
      </trkpt>
      <trkpt lat="45.93763" lon="4.72421">
        <ele>171</ele>
        <time>2018-04-14T10:43:28Z</time>
      </trkpt>
      <trkpt lat="45.9376" lon="4.72419">
        <ele>171</ele>
        <time>2018-04-14T10:43:29Z</time>
      </trkpt>
      <trkpt lat="45.93755" lon="4.72414">
        <ele>171</ele>
        <time>2018-04-14T10:43:30Z</time>
      </trkpt>
      <trkpt lat="45.93751" lon="4.7241">
        <ele>171</ele>
        <time>2018-04-14T10:43:31Z</time>
      </trkpt>
      <trkpt lat="45.93747" lon="4.72404">
        <ele>171</ele>
        <time>2018-04-14T10:43:32Z</time>
      </trkpt>
      <trkpt lat="45.93744" lon="4.72398">
        <ele>171</ele>
        <time>2018-04-14T10:43:33Z</time>
      </trkpt>
      <trkpt lat="45.93737" lon="4.72397">
        <ele>171</ele>
        <time>2018-04-14T10:43:35Z</time>
      </trkpt>
      <trkpt lat="45.93734" lon="4.72395">
        <ele>171</ele>
        <time>2018-04-14T10:43:36Z</time>
      </trkpt>
      <trkpt lat="45.9373" lon="4.72392">
        <ele>171</ele>
        <time>2018-04-14T10:43:37Z</time>
      </trkpt>
      <trkpt lat="45.93726" lon="4.72386">
        <ele>171</ele>
        <time>2018-04-14T10:43:38Z</time>
      </trkpt>
      <trkpt lat="45.93721" lon="4.72382">
        <ele>171</ele>
        <time>2018-04-14T10:43:39Z</time>
      </trkpt>
      <trkpt lat="45.93716" lon="4.72378">
        <ele>171</ele>
        <time>2018-04-14T10:43:40Z</time>
      </trkpt>
      <trkpt lat="45.93711" lon="4.72373">
        <ele>172</ele>
        <time>2018-04-14T10:43:41Z</time>
      </trkpt>
      <trkpt lat="45.93707" lon="4.72368">
        <ele>171</ele>
        <time>2018-04-14T10:43:42Z</time>
      </trkpt>
      <trkpt lat="45.93699" lon="4.7237">
        <ele>171</ele>
        <time>2018-04-14T10:43:44Z</time>
      </trkpt>
      <trkpt lat="45.93691" lon="4.72362">
        <ele>171</ele>
        <time>2018-04-14T10:43:46Z</time>
      </trkpt>
      <trkpt lat="45.93673" lon="4.72342">
        <ele>171</ele>
        <time>2018-04-14T10:43:50Z</time>
      </trkpt>
      <trkpt lat="45.93668" lon="4.72332">
        <ele>171</ele>
        <time>2018-04-14T10:43:51Z</time>
      </trkpt>
      <trkpt lat="45.93663" lon="4.72326">
        <ele>171</ele>
        <time>2018-04-14T10:43:52Z</time>
      </trkpt>
      <trkpt lat="45.93659" lon="4.72324">
        <ele>172</ele>
        <time>2018-04-14T10:43:53Z</time>
      </trkpt>
      <trkpt lat="45.93655" lon="4.72319">
        <ele>172</ele>
        <time>2018-04-14T10:43:54Z</time>
      </trkpt>
      <trkpt lat="45.93651" lon="4.72313">
        <ele>172</ele>
        <time>2018-04-14T10:43:55Z</time>
      </trkpt>
      <trkpt lat="45.93647" lon="4.72309">
        <ele>172</ele>
        <time>2018-04-14T10:43:56Z</time>
      </trkpt>
      <trkpt lat="45.93643" lon="4.72305">
        <ele>172</ele>
        <time>2018-04-14T10:43:57Z</time>
      </trkpt>
      <trkpt lat="45.93639" lon="4.72302">
        <ele>172</ele>
        <time>2018-04-14T10:43:58Z</time>
      </trkpt>
      <trkpt lat="45.93633" lon="4.72295">
        <ele>172</ele>
        <time>2018-04-14T10:44:00Z</time>
      </trkpt>
      <trkpt lat="45.9363" lon="4.72291">
        <ele>172</ele>
        <time>2018-04-14T10:44:01Z</time>
      </trkpt>
      <trkpt lat="45.93627" lon="4.72288">
        <ele>172</ele>
        <time>2018-04-14T10:44:02Z</time>
      </trkpt>
      <trkpt lat="45.93623" lon="4.72283">
        <ele>172</ele>
        <time>2018-04-14T10:44:03Z</time>
      </trkpt>
      <trkpt lat="45.93619" lon="4.72279">
        <ele>172</ele>
        <time>2018-04-14T10:44:04Z</time>
      </trkpt>
      <trkpt lat="45.93615" lon="4.72275">
        <ele>172</ele>
        <time>2018-04-14T10:44:05Z</time>
      </trkpt>
      <trkpt lat="45.93611" lon="4.7227">
        <ele>172</ele>
        <time>2018-04-14T10:44:06Z</time>
      </trkpt>
      <trkpt lat="45.93608" lon="4.72267">
        <ele>172</ele>
        <time>2018-04-14T10:44:07Z</time>
      </trkpt>
      <trkpt lat="45.93602" lon="4.72259">
        <ele>173</ele>
        <time>2018-04-14T10:44:09Z</time>
      </trkpt>
      <trkpt lat="45.93599" lon="4.72255">
        <ele>173</ele>
        <time>2018-04-14T10:44:10Z</time>
      </trkpt>
      <trkpt lat="45.93594" lon="4.72251">
        <ele>173</ele>
        <time>2018-04-14T10:44:11Z</time>
      </trkpt>
      <trkpt lat="45.93591" lon="4.72248">
        <ele>173</ele>
        <time>2018-04-14T10:44:12Z</time>
      </trkpt>
      <trkpt lat="45.93585" lon="4.7224">
        <ele>173</ele>
        <time>2018-04-14T10:44:14Z</time>
      </trkpt>
      <trkpt lat="45.9358" lon="4.72235">
        <ele>173</ele>
        <time>2018-04-14T10:44:15Z</time>
      </trkpt>
      <trkpt lat="45.93574" lon="4.72228">
        <ele>173</ele>
        <time>2018-04-14T10:44:17Z</time>
      </trkpt>
      <trkpt lat="45.9357" lon="4.72225">
        <ele>173</ele>
        <time>2018-04-14T10:44:18Z</time>
      </trkpt>
      <trkpt lat="45.93563" lon="4.72218">
        <ele>173</ele>
        <time>2018-04-14T10:44:21Z</time>
      </trkpt>
      <trkpt lat="45.93561" lon="4.72217">
        <ele>173</ele>
        <time>2018-04-14T10:44:22Z</time>
      </trkpt>
      <trkpt lat="45.93555" lon="4.72219">
        <ele>173</ele>
        <time>2018-04-14T10:44:25Z</time>
      </trkpt>
      <trkpt lat="45.93552" lon="4.72221">
        <ele>173</ele>
        <time>2018-04-14T10:44:26Z</time>
      </trkpt>
      <trkpt lat="45.93546" lon="4.7223">
        <ele>172</ele>
        <time>2018-04-14T10:44:29Z</time>
      </trkpt>
      <trkpt lat="45.93543" lon="4.72234">
        <ele>172</ele>
        <time>2018-04-14T10:44:30Z</time>
      </trkpt>
      <trkpt lat="45.93538" lon="4.72244">
        <ele>172</ele>
        <time>2018-04-14T10:44:31Z</time>
      </trkpt>
      <trkpt lat="45.93534" lon="4.72254">
        <ele>172</ele>
        <time>2018-04-14T10:44:33Z</time>
      </trkpt>
      <trkpt lat="45.93531" lon="4.72259">
        <ele>172</ele>
        <time>2018-04-14T10:44:34Z</time>
      </trkpt>
      <trkpt lat="45.93527" lon="4.72269">
        <ele>172</ele>
        <time>2018-04-14T10:44:36Z</time>
      </trkpt>
      <trkpt lat="45.93524" lon="4.72275">
        <ele>172</ele>
        <time>2018-04-14T10:44:37Z</time>
      </trkpt>
      <trkpt lat="45.93522" lon="4.7228">
        <ele>172</ele>
        <time>2018-04-14T10:44:38Z</time>
      </trkpt>
      <trkpt lat="45.9352" lon="4.72286">
        <ele>172</ele>
        <time>2018-04-14T10:44:39Z</time>
      </trkpt>
      <trkpt lat="45.93517" lon="4.72292">
        <ele>172</ele>
        <time>2018-04-14T10:44:40Z</time>
      </trkpt>
      <trkpt lat="45.93515" lon="4.72298">
        <ele>172</ele>
        <time>2018-04-14T10:44:41Z</time>
      </trkpt>
      <trkpt lat="45.93512" lon="4.72304">
        <ele>173</ele>
        <time>2018-04-14T10:44:42Z</time>
      </trkpt>
      <trkpt lat="45.93508" lon="4.7231">
        <ele>173</ele>
        <time>2018-04-14T10:44:43Z</time>
      </trkpt>
      <trkpt lat="45.93504" lon="4.72315">
        <ele>173</ele>
        <time>2018-04-14T10:44:44Z</time>
      </trkpt>
      <trkpt lat="45.93499" lon="4.7232">
        <ele>173</ele>
        <time>2018-04-14T10:44:45Z</time>
      </trkpt>
      <trkpt lat="45.93495" lon="4.72325">
        <ele>173</ele>
        <time>2018-04-14T10:44:46Z</time>
      </trkpt>
      <trkpt lat="45.93491" lon="4.72331">
        <ele>173</ele>
        <time>2018-04-14T10:44:47Z</time>
      </trkpt>
      <trkpt lat="45.93486" lon="4.72336">
        <ele>173</ele>
        <time>2018-04-14T10:44:48Z</time>
      </trkpt>
      <trkpt lat="45.93482" lon="4.72343">
        <ele>173</ele>
        <time>2018-04-14T10:44:49Z</time>
      </trkpt>
      <trkpt lat="45.93478" lon="4.72348">
        <ele>173</ele>
        <time>2018-04-14T10:44:50Z</time>
      </trkpt>
      <trkpt lat="45.93474" lon="4.72352">
        <ele>173</ele>
        <time>2018-04-14T10:44:51Z</time>
      </trkpt>
      <trkpt lat="45.93471" lon="4.7236">
        <ele>173</ele>
        <time>2018-04-14T10:44:52Z</time>
      </trkpt>
      <trkpt lat="45.93466" lon="4.72364">
        <ele>173</ele>
        <time>2018-04-14T10:44:53Z</time>
      </trkpt>
      <trkpt lat="45.93463" lon="4.7237">
        <ele>173</ele>
        <time>2018-04-14T10:44:54Z</time>
      </trkpt>
      <trkpt lat="45.93459" lon="4.72375">
        <ele>173</ele>
        <time>2018-04-14T10:44:55Z</time>
      </trkpt>
      <trkpt lat="45.93455" lon="4.7238">
        <ele>173</ele>
        <time>2018-04-14T10:44:56Z</time>
      </trkpt>
      <trkpt lat="45.93451" lon="4.72385">
        <ele>173</ele>
        <time>2018-04-14T10:44:57Z</time>
      </trkpt>
      <trkpt lat="45.93446" lon="4.72392">
        <ele>173</ele>
        <time>2018-04-14T10:44:58Z</time>
      </trkpt>
      <trkpt lat="45.93441" lon="4.72396">
        <ele>173</ele>
        <time>2018-04-14T10:44:59Z</time>
      </trkpt>
      <trkpt lat="45.93436" lon="4.724">
        <ele>173</ele>
        <time>2018-04-14T10:45:00Z</time>
      </trkpt>
      <trkpt lat="45.93431" lon="4.72404">
        <ele>174</ele>
        <time>2018-04-14T10:45:01Z</time>
      </trkpt>
      <trkpt lat="45.93426" lon="4.72405">
        <ele>174</ele>
        <time>2018-04-14T10:45:02Z</time>
      </trkpt>
      <trkpt lat="45.9342" lon="4.72406">
        <ele>174</ele>
        <time>2018-04-14T10:45:03Z</time>
      </trkpt>
      <trkpt lat="45.93416" lon="4.72409">
        <ele>174</ele>
        <time>2018-04-14T10:45:04Z</time>
      </trkpt>
      <trkpt lat="45.93411" lon="4.72411">
        <ele>174</ele>
        <time>2018-04-14T10:45:05Z</time>
      </trkpt>
      <trkpt lat="45.93405" lon="4.72411">
        <ele>174</ele>
        <time>2018-04-14T10:45:06Z</time>
      </trkpt>
      <trkpt lat="45.934" lon="4.72411">
        <ele>174</ele>
        <time>2018-04-14T10:45:07Z</time>
      </trkpt>
      <trkpt lat="45.93395" lon="4.72409">
        <ele>174</ele>
        <time>2018-04-14T10:45:08Z</time>
      </trkpt>
      <trkpt lat="45.9339" lon="4.7241">
        <ele>174</ele>
        <time>2018-04-14T10:45:09Z</time>
      </trkpt>
      <trkpt lat="45.93385" lon="4.7241">
        <ele>174</ele>
        <time>2018-04-14T10:45:10Z</time>
      </trkpt>
      <trkpt lat="45.93382" lon="4.72416">
        <ele>174</ele>
        <time>2018-04-14T10:45:11Z</time>
      </trkpt>
      <trkpt lat="45.93379" lon="4.72426">
        <ele>173</ele>
        <time>2018-04-14T10:45:13Z</time>
      </trkpt>
      <trkpt lat="45.93382" lon="4.72435">
        <ele>173</ele>
        <time>2018-04-14T10:45:14Z</time>
      </trkpt>
      <trkpt lat="45.93385" lon="4.72446">
        <ele>173</ele>
        <time>2018-04-14T10:45:16Z</time>
      </trkpt>
      <trkpt lat="45.93386" lon="4.72454">
        <ele>173</ele>
        <time>2018-04-14T10:45:17Z</time>
      </trkpt>
      <trkpt lat="45.93386" lon="4.72462">
        <ele>173</ele>
        <time>2018-04-14T10:45:18Z</time>
      </trkpt>
      <trkpt lat="45.93383" lon="4.72469">
        <ele>173</ele>
        <time>2018-04-14T10:45:19Z</time>
      </trkpt>
      <trkpt lat="45.93379" lon="4.72474">
        <ele>173</ele>
        <time>2018-04-14T10:45:20Z</time>
      </trkpt>
      <trkpt lat="45.93376" lon="4.72479">
        <ele>173</ele>
        <time>2018-04-14T10:45:21Z</time>
      </trkpt>
      <trkpt lat="45.93372" lon="4.72484">
        <ele>173</ele>
        <time>2018-04-14T10:45:22Z</time>
      </trkpt>
      <trkpt lat="45.93368" lon="4.72488">
        <ele>173</ele>
        <time>2018-04-14T10:45:23Z</time>
      </trkpt>
      <trkpt lat="45.93364" lon="4.72494">
        <ele>173</ele>
        <time>2018-04-14T10:45:24Z</time>
      </trkpt>
      <trkpt lat="45.93359" lon="4.72498">
        <ele>173</ele>
        <time>2018-04-14T10:45:25Z</time>
      </trkpt>
      <trkpt lat="45.93355" lon="4.72503">
        <ele>172</ele>
        <time>2018-04-14T10:45:26Z</time>
      </trkpt>
      <trkpt lat="45.93352" lon="4.72507">
        <ele>172</ele>
        <time>2018-04-14T10:45:27Z</time>
      </trkpt>
      <trkpt lat="45.9335" lon="4.72511">
        <ele>172</ele>
        <time>2018-04-14T10:45:28Z</time>
      </trkpt>
      <trkpt lat="45.93346" lon="4.72516">
        <ele>172</ele>
        <time>2018-04-14T10:45:29Z</time>
      </trkpt>
      <trkpt lat="45.93342" lon="4.7252">
        <ele>172</ele>
        <time>2018-04-14T10:45:30Z</time>
      </trkpt>
      <trkpt lat="45.93337" lon="4.72523">
        <ele>172</ele>
        <time>2018-04-14T10:45:31Z</time>
      </trkpt>
      <trkpt lat="45.93333" lon="4.72527">
        <ele>172</ele>
        <time>2018-04-14T10:45:32Z</time>
      </trkpt>
      <trkpt lat="45.93329" lon="4.72532">
        <ele>172</ele>
        <time>2018-04-14T10:45:33Z</time>
      </trkpt>
      <trkpt lat="45.93325" lon="4.72536">
        <ele>172</ele>
        <time>2018-04-14T10:45:34Z</time>
      </trkpt>
      <trkpt lat="45.93321" lon="4.7254">
        <ele>172</ele>
        <time>2018-04-14T10:45:35Z</time>
      </trkpt>
      <trkpt lat="45.93318" lon="4.72546">
        <ele>172</ele>
        <time>2018-04-14T10:45:36Z</time>
      </trkpt>
      <trkpt lat="45.93314" lon="4.72549">
        <ele>172</ele>
        <time>2018-04-14T10:45:37Z</time>
      </trkpt>
      <trkpt lat="45.93307" lon="4.72557">
        <ele>172</ele>
        <time>2018-04-14T10:45:39Z</time>
      </trkpt>
      <trkpt lat="45.93303" lon="4.72561">
        <ele>172</ele>
        <time>2018-04-14T10:45:40Z</time>
      </trkpt>
      <trkpt lat="45.93299" lon="4.72565">
        <ele>172</ele>
        <time>2018-04-14T10:45:41Z</time>
      </trkpt>
      <trkpt lat="45.93296" lon="4.72574">
        <ele>171</ele>
        <time>2018-04-14T10:45:42Z</time>
      </trkpt>
      <trkpt lat="45.93294" lon="4.72581">
        <ele>171</ele>
        <time>2018-04-14T10:45:43Z</time>
      </trkpt>
      <trkpt lat="45.9329" lon="4.72587">
        <ele>170</ele>
        <time>2018-04-14T10:45:44Z</time>
      </trkpt>
      <trkpt lat="45.93286" lon="4.72591">
        <ele>170</ele>
        <time>2018-04-14T10:45:45Z</time>
      </trkpt>
      <trkpt lat="45.93281" lon="4.72595">
        <ele>170</ele>
        <time>2018-04-14T10:45:46Z</time>
      </trkpt>
      <trkpt lat="45.93278" lon="4.72599">
        <ele>170</ele>
        <time>2018-04-14T10:45:47Z</time>
      </trkpt>
      <trkpt lat="45.93274" lon="4.72605">
        <ele>170</ele>
        <time>2018-04-14T10:45:48Z</time>
      </trkpt>
      <trkpt lat="45.9327" lon="4.7261">
        <ele>170</ele>
        <time>2018-04-14T10:45:49Z</time>
      </trkpt>
      <trkpt lat="45.93266" lon="4.72615">
        <ele>170</ele>
        <time>2018-04-14T10:45:50Z</time>
      </trkpt>
      <trkpt lat="45.93262" lon="4.72619">
        <ele>170</ele>
        <time>2018-04-14T10:45:51Z</time>
      </trkpt>
      <trkpt lat="45.93259" lon="4.72625">
        <ele>170</ele>
        <time>2018-04-14T10:45:52Z</time>
      </trkpt>
      <trkpt lat="45.93255" lon="4.72629">
        <ele>170</ele>
        <time>2018-04-14T10:45:53Z</time>
      </trkpt>
      <trkpt lat="45.93251" lon="4.72634">
        <ele>170</ele>
        <time>2018-04-14T10:45:54Z</time>
      </trkpt>
      <trkpt lat="45.93246" lon="4.72638">
        <ele>170</ele>
        <time>2018-04-14T10:45:55Z</time>
      </trkpt>
      <trkpt lat="45.93242" lon="4.72642">
        <ele>170</ele>
        <time>2018-04-14T10:45:56Z</time>
      </trkpt>
      <trkpt lat="45.93233" lon="4.72646">
        <ele>170</ele>
        <time>2018-04-14T10:45:58Z</time>
      </trkpt>
      <trkpt lat="45.9323" lon="4.72651">
        <ele>170</ele>
        <time>2018-04-14T10:45:59Z</time>
      </trkpt>
      <trkpt lat="45.93223" lon="4.72659">
        <ele>170</ele>
        <time>2018-04-14T10:46:01Z</time>
      </trkpt>
      <trkpt lat="45.93219" lon="4.72663">
        <ele>170</ele>
        <time>2018-04-14T10:46:02Z</time>
      </trkpt>
      <trkpt lat="45.93214" lon="4.72671">
        <ele>169</ele>
        <time>2018-04-14T10:46:03Z</time>
      </trkpt>
      <trkpt lat="45.9321" lon="4.72674">
        <ele>169</ele>
        <time>2018-04-14T10:46:04Z</time>
      </trkpt>
      <trkpt lat="45.93206" lon="4.72677">
        <ele>169</ele>
        <time>2018-04-14T10:46:05Z</time>
      </trkpt>
      <trkpt lat="45.93202" lon="4.72681">
        <ele>169</ele>
        <time>2018-04-14T10:46:06Z</time>
      </trkpt>
      <trkpt lat="45.93198" lon="4.72686">
        <ele>169</ele>
        <time>2018-04-14T10:46:07Z</time>
      </trkpt>
      <trkpt lat="45.93194" lon="4.72689">
        <ele>169</ele>
        <time>2018-04-14T10:46:08Z</time>
      </trkpt>
      <trkpt lat="45.93187" lon="4.72698">
        <ele>169</ele>
        <time>2018-04-14T10:46:10Z</time>
      </trkpt>
      <trkpt lat="45.93183" lon="4.72702">
        <ele>169</ele>
        <time>2018-04-14T10:46:11Z</time>
      </trkpt>
      <trkpt lat="45.9318" lon="4.72706">
        <ele>169</ele>
        <time>2018-04-14T10:46:12Z</time>
      </trkpt>
      <trkpt lat="45.93176" lon="4.72711">
        <ele>169</ele>
        <time>2018-04-14T10:46:13Z</time>
      </trkpt>
      <trkpt lat="45.93172" lon="4.72716">
        <ele>170</ele>
        <time>2018-04-14T10:46:14Z</time>
      </trkpt>
      <trkpt lat="45.93169" lon="4.7272">
        <ele>170</ele>
        <time>2018-04-14T10:46:15Z</time>
      </trkpt>
      <trkpt lat="45.93165" lon="4.72724">
        <ele>170</ele>
        <time>2018-04-14T10:46:16Z</time>
      </trkpt>
      <trkpt lat="45.93161" lon="4.72729">
        <ele>170</ele>
        <time>2018-04-14T10:46:17Z</time>
      </trkpt>
      <trkpt lat="45.93156" lon="4.72734">
        <ele>170</ele>
        <time>2018-04-14T10:46:18Z</time>
      </trkpt>
      <trkpt lat="45.93151" lon="4.72739">
        <ele>170</ele>
        <time>2018-04-14T10:46:19Z</time>
      </trkpt>
      <trkpt lat="45.93147" lon="4.72742">
        <ele>170</ele>
        <time>2018-04-14T10:46:20Z</time>
      </trkpt>
      <trkpt lat="45.93143" lon="4.72747">
        <ele>170</ele>
        <time>2018-04-14T10:46:21Z</time>
      </trkpt>
      <trkpt lat="45.93139" lon="4.72751">
        <ele>171</ele>
        <time>2018-04-14T10:46:22Z</time>
      </trkpt>
      <trkpt lat="45.93134" lon="4.72756">
        <ele>171</ele>
        <time>2018-04-14T10:46:23Z</time>
      </trkpt>
      <trkpt lat="45.9313" lon="4.72762">
        <ele>171</ele>
        <time>2018-04-14T10:46:24Z</time>
      </trkpt>
      <trkpt lat="45.93126" lon="4.72765">
        <ele>171</ele>
        <time>2018-04-14T10:46:25Z</time>
      </trkpt>
      <trkpt lat="45.93122" lon="4.7277">
        <ele>171</ele>
        <time>2018-04-14T10:46:26Z</time>
      </trkpt>
      <trkpt lat="45.93118" lon="4.72775">
        <ele>171</ele>
        <time>2018-04-14T10:46:27Z</time>
      </trkpt>
      <trkpt lat="45.93114" lon="4.72781">
        <ele>171</ele>
        <time>2018-04-14T10:46:28Z</time>
      </trkpt>
      <trkpt lat="45.9311" lon="4.72785">
        <ele>171</ele>
        <time>2018-04-14T10:46:29Z</time>
      </trkpt>
      <trkpt lat="45.93106" lon="4.7279">
        <ele>171</ele>
        <time>2018-04-14T10:46:30Z</time>
      </trkpt>
      <trkpt lat="45.93103" lon="4.72795">
        <ele>171</ele>
        <time>2018-04-14T10:46:31Z</time>
      </trkpt>
      <trkpt lat="45.93099" lon="4.728">
        <ele>171</ele>
        <time>2018-04-14T10:46:32Z</time>
      </trkpt>
      <trkpt lat="45.93096" lon="4.72805">
        <ele>171</ele>
        <time>2018-04-14T10:46:33Z</time>
      </trkpt>
      <trkpt lat="45.93091" lon="4.72809">
        <ele>172</ele>
        <time>2018-04-14T10:46:34Z</time>
      </trkpt>
      <trkpt lat="45.93087" lon="4.72814">
        <ele>172</ele>
        <time>2018-04-14T10:46:35Z</time>
      </trkpt>
      <trkpt lat="45.93083" lon="4.72816">
        <ele>172</ele>
        <time>2018-04-14T10:46:36Z</time>
      </trkpt>
      <trkpt lat="45.93079" lon="4.7282">
        <ele>173</ele>
        <time>2018-04-14T10:46:37Z</time>
      </trkpt>
      <trkpt lat="45.93047" lon="4.72845">
        <ele>172</ele>
        <time>2018-04-14T10:46:46Z</time>
      </trkpt>
      <trkpt lat="45.93042" lon="4.72859">
        <ele>172</ele>
        <time>2018-04-14T10:46:47Z</time>
      </trkpt>
      <trkpt lat="45.93037" lon="4.72865">
        <ele>172</ele>
        <time>2018-04-14T10:46:48Z</time>
      </trkpt>
      <trkpt lat="45.93033" lon="4.72871">
        <ele>172</ele>
        <time>2018-04-14T10:46:49Z</time>
      </trkpt>
      <trkpt lat="45.93026" lon="4.7288">
        <ele>172</ele>
        <time>2018-04-14T10:46:51Z</time>
      </trkpt>
      <trkpt lat="45.93024" lon="4.72886">
        <ele>172</ele>
        <time>2018-04-14T10:46:52Z</time>
      </trkpt>
      <trkpt lat="45.9302" lon="4.7289">
        <ele>172</ele>
        <time>2018-04-14T10:46:53Z</time>
      </trkpt>
      <trkpt lat="45.93016" lon="4.72895">
        <ele>172</ele>
        <time>2018-04-14T10:46:54Z</time>
      </trkpt>
      <trkpt lat="45.93012" lon="4.729">
        <ele>172</ele>
        <time>2018-04-14T10:46:55Z</time>
      </trkpt>
      <trkpt lat="45.93009" lon="4.72905">
        <ele>171</ele>
        <time>2018-04-14T10:46:56Z</time>
      </trkpt>
      <trkpt lat="45.93005" lon="4.72909">
        <ele>171</ele>
        <time>2018-04-14T10:46:57Z</time>
      </trkpt>
      <trkpt lat="45.93002" lon="4.72914">
        <ele>171</ele>
        <time>2018-04-14T10:46:58Z</time>
      </trkpt>
      <trkpt lat="45.92998" lon="4.72918">
        <ele>171</ele>
        <time>2018-04-14T10:46:59Z</time>
      </trkpt>
      <trkpt lat="45.92995" lon="4.72923">
        <ele>171</ele>
        <time>2018-04-14T10:47:00Z</time>
      </trkpt>
      <trkpt lat="45.92991" lon="4.72928">
        <ele>171</ele>
        <time>2018-04-14T10:47:01Z</time>
      </trkpt>
      <trkpt lat="45.92987" lon="4.72932">
        <ele>171</ele>
        <time>2018-04-14T10:47:02Z</time>
      </trkpt>
      <trkpt lat="45.92983" lon="4.72937">
        <ele>171</ele>
        <time>2018-04-14T10:47:03Z</time>
      </trkpt>
      <trkpt lat="45.9298" lon="4.72941">
        <ele>171</ele>
        <time>2018-04-14T10:47:04Z</time>
      </trkpt>
      <trkpt lat="45.92976" lon="4.72946">
        <ele>171</ele>
        <time>2018-04-14T10:47:05Z</time>
      </trkpt>
      <trkpt lat="45.92972" lon="4.72951">
        <ele>171</ele>
        <time>2018-04-14T10:47:06Z</time>
      </trkpt>
      <trkpt lat="45.92968" lon="4.72955">
        <ele>171</ele>
        <time>2018-04-14T10:47:07Z</time>
      </trkpt>
      <trkpt lat="45.92965" lon="4.72958">
        <ele>171</ele>
        <time>2018-04-14T10:47:08Z</time>
      </trkpt>
      <trkpt lat="45.92961" lon="4.72964">
        <ele>171</ele>
        <time>2018-04-14T10:47:09Z</time>
      </trkpt>
      <trkpt lat="45.92956" lon="4.72968">
        <ele>171</ele>
        <time>2018-04-14T10:47:10Z</time>
      </trkpt>
      <trkpt lat="45.92952" lon="4.72974">
        <ele>171</ele>
        <time>2018-04-14T10:47:11Z</time>
      </trkpt>
      <trkpt lat="45.92947" lon="4.72979">
        <ele>171</ele>
        <time>2018-04-14T10:47:12Z</time>
      </trkpt>
      <trkpt lat="45.92942" lon="4.72984">
        <ele>171</ele>
        <time>2018-04-14T10:47:13Z</time>
      </trkpt>
      <trkpt lat="45.92938" lon="4.72988">
        <ele>171</ele>
        <time>2018-04-14T10:47:14Z</time>
      </trkpt>
      <trkpt lat="45.92934" lon="4.72994">
        <ele>172</ele>
        <time>2018-04-14T10:47:15Z</time>
      </trkpt>
      <trkpt lat="45.92931" lon="4.73001">
        <ele>172</ele>
        <time>2018-04-14T10:47:16Z</time>
      </trkpt>
      <trkpt lat="45.92926" lon="4.73006">
        <ele>172</ele>
        <time>2018-04-14T10:47:17Z</time>
      </trkpt>
      <trkpt lat="45.92921" lon="4.73011">
        <ele>172</ele>
        <time>2018-04-14T10:47:18Z</time>
      </trkpt>
      <trkpt lat="45.92917" lon="4.73016">
        <ele>172</ele>
        <time>2018-04-14T10:47:19Z</time>
      </trkpt>
      <trkpt lat="45.92913" lon="4.73021">
        <ele>172</ele>
        <time>2018-04-14T10:47:20Z</time>
      </trkpt>
      <trkpt lat="45.92909" lon="4.73027">
        <ele>172</ele>
        <time>2018-04-14T10:47:21Z</time>
      </trkpt>
      <trkpt lat="45.92905" lon="4.73032">
        <ele>172</ele>
        <time>2018-04-14T10:47:22Z</time>
      </trkpt>
      <trkpt lat="45.92901" lon="4.73038">
        <ele>172</ele>
        <time>2018-04-14T10:47:23Z</time>
      </trkpt>
      <trkpt lat="45.92897" lon="4.73042">
        <ele>172</ele>
        <time>2018-04-14T10:47:24Z</time>
      </trkpt>
      <trkpt lat="45.92893" lon="4.73048">
        <ele>172</ele>
        <time>2018-04-14T10:47:25Z</time>
      </trkpt>
      <trkpt lat="45.92889" lon="4.73055">
        <ele>172</ele>
        <time>2018-04-14T10:47:26Z</time>
      </trkpt>
      <trkpt lat="45.92886" lon="4.73061">
        <ele>172</ele>
        <time>2018-04-14T10:47:27Z</time>
      </trkpt>
      <trkpt lat="45.92882" lon="4.73067">
        <ele>172</ele>
        <time>2018-04-14T10:47:28Z</time>
      </trkpt>
      <trkpt lat="45.92878" lon="4.73072">
        <ele>172</ele>
        <time>2018-04-14T10:47:29Z</time>
      </trkpt>
      <trkpt lat="45.92874" lon="4.73076">
        <ele>172</ele>
        <time>2018-04-14T10:47:30Z</time>
      </trkpt>
      <trkpt lat="45.92871" lon="4.73081">
        <ele>172</ele>
        <time>2018-04-14T10:47:31Z</time>
      </trkpt>
      <trkpt lat="45.92867" lon="4.73085">
        <ele>172</ele>
        <time>2018-04-14T10:47:32Z</time>
      </trkpt>
      <trkpt lat="45.92863" lon="4.7309">
        <ele>171</ele>
        <time>2018-04-14T10:47:33Z</time>
      </trkpt>
      <trkpt lat="45.9286" lon="4.73095">
        <ele>171</ele>
        <time>2018-04-14T10:47:34Z</time>
      </trkpt>
      <trkpt lat="45.92857" lon="4.731">
        <ele>171</ele>
        <time>2018-04-14T10:47:35Z</time>
      </trkpt>
      <trkpt lat="45.92853" lon="4.73104">
        <ele>171</ele>
        <time>2018-04-14T10:47:36Z</time>
      </trkpt>
      <trkpt lat="45.92846" lon="4.73096">
        <ele>171</ele>
        <time>2018-04-14T10:47:39Z</time>
      </trkpt>
      <trkpt lat="45.92844" lon="4.7309">
        <ele>171</ele>
        <time>2018-04-14T10:47:40Z</time>
      </trkpt>
      <trkpt lat="45.92844" lon="4.73084">
        <ele>171</ele>
        <time>2018-04-14T10:47:41Z</time>
      </trkpt>
      <trkpt lat="45.92845" lon="4.73077">
        <ele>171</ele>
        <time>2018-04-14T10:47:42Z</time>
      </trkpt>
      <trkpt lat="45.92844" lon="4.73065">
        <ele>171</ele>
        <time>2018-04-14T10:47:44Z</time>
      </trkpt>
      <trkpt lat="45.92844" lon="4.73058">
        <ele>171</ele>
        <time>2018-04-14T10:47:45Z</time>
      </trkpt>
      <trkpt lat="45.92843" lon="4.73052">
        <ele>171</ele>
        <time>2018-04-14T10:47:46Z</time>
      </trkpt>
      <trkpt lat="45.92842" lon="4.73045">
        <ele>171</ele>
        <time>2018-04-14T10:47:47Z</time>
      </trkpt>
      <trkpt lat="45.92843" lon="4.73038">
        <ele>171</ele>
        <time>2018-04-14T10:47:48Z</time>
      </trkpt>
      <trkpt lat="45.9284" lon="4.73031">
        <ele>171</ele>
        <time>2018-04-14T10:47:49Z</time>
      </trkpt>
      <trkpt lat="45.9284" lon="4.73024">
        <ele>171</ele>
        <time>2018-04-14T10:47:50Z</time>
      </trkpt>
      <trkpt lat="45.92837" lon="4.73018">
        <ele>171</ele>
        <time>2018-04-14T10:47:51Z</time>
      </trkpt>
      <trkpt lat="45.92836" lon="4.73011">
        <ele>171</ele>
        <time>2018-04-14T10:47:52Z</time>
      </trkpt>
      <trkpt lat="45.92836" lon="4.73005">
        <ele>170</ele>
        <time>2018-04-14T10:47:53Z</time>
      </trkpt>
      <trkpt lat="45.92832" lon="4.72997">
        <ele>170</ele>
        <time>2018-04-14T10:47:54Z</time>
      </trkpt>
      <trkpt lat="45.92829" lon="4.72991">
        <ele>170</ele>
        <time>2018-04-14T10:47:55Z</time>
      </trkpt>
      <trkpt lat="45.92828" lon="4.72979">
        <ele>170</ele>
        <time>2018-04-14T10:47:57Z</time>
      </trkpt>
      <trkpt lat="45.9283" lon="4.72973">
        <ele>170</ele>
        <time>2018-04-14T10:47:58Z</time>
      </trkpt>
      <trkpt lat="45.92829" lon="4.72966">
        <ele>170</ele>
        <time>2018-04-14T10:47:59Z</time>
      </trkpt>
      <trkpt lat="45.92829" lon="4.72959">
        <ele>170</ele>
        <time>2018-04-14T10:48:00Z</time>
      </trkpt>
      <trkpt lat="45.92829" lon="4.72953">
        <ele>170</ele>
        <time>2018-04-14T10:48:01Z</time>
      </trkpt>
      <trkpt lat="45.9283" lon="4.72946">
        <ele>170</ele>
        <time>2018-04-14T10:48:02Z</time>
      </trkpt>
      <trkpt lat="45.92829" lon="4.72939">
        <ele>170</ele>
        <time>2018-04-14T10:48:03Z</time>
      </trkpt>
      <trkpt lat="45.92828" lon="4.72931">
        <ele>170</ele>
        <time>2018-04-14T10:48:04Z</time>
      </trkpt>
      <trkpt lat="45.92827" lon="4.72919">
        <ele>170</ele>
        <time>2018-04-14T10:48:06Z</time>
      </trkpt>
      <trkpt lat="45.92825" lon="4.72913">
        <ele>170</ele>
        <time>2018-04-14T10:48:07Z</time>
      </trkpt>
      <trkpt lat="45.92823" lon="4.72906">
        <ele>170</ele>
        <time>2018-04-14T10:48:08Z</time>
      </trkpt>
      <trkpt lat="45.92823" lon="4.729">
        <ele>170</ele>
        <time>2018-04-14T10:48:09Z</time>
      </trkpt>
      <trkpt lat="45.92821" lon="4.72887">
        <ele>170</ele>
        <time>2018-04-14T10:48:11Z</time>
      </trkpt>
      <trkpt lat="45.9282" lon="4.72881">
        <ele>170</ele>
        <time>2018-04-14T10:48:12Z</time>
      </trkpt>
      <trkpt lat="45.92819" lon="4.72873">
        <ele>170</ele>
        <time>2018-04-14T10:48:13Z</time>
      </trkpt>
      <trkpt lat="45.92818" lon="4.72866">
        <ele>170</ele>
        <time>2018-04-14T10:48:14Z</time>
      </trkpt>
      <trkpt lat="45.92815" lon="4.7286">
        <ele>170</ele>
        <time>2018-04-14T10:48:15Z</time>
      </trkpt>
      <trkpt lat="45.92813" lon="4.72855">
        <ele>170</ele>
        <time>2018-04-14T10:48:16Z</time>
      </trkpt>
      <trkpt lat="45.92813" lon="4.72848">
        <ele>170</ele>
        <time>2018-04-14T10:48:17Z</time>
      </trkpt>
      <trkpt lat="45.92814" lon="4.72841">
        <ele>170</ele>
        <time>2018-04-14T10:48:18Z</time>
      </trkpt>
      <trkpt lat="45.92813" lon="4.72835">
        <ele>170</ele>
        <time>2018-04-14T10:48:19Z</time>
      </trkpt>
      <trkpt lat="45.92811" lon="4.72828">
        <ele>171</ele>
        <time>2018-04-14T10:48:20Z</time>
      </trkpt>
      <trkpt lat="45.92814" lon="4.72822">
        <ele>171</ele>
        <time>2018-04-14T10:48:21Z</time>
      </trkpt>
      <trkpt lat="45.92813" lon="4.72815">
        <ele>171</ele>
        <time>2018-04-14T10:48:22Z</time>
      </trkpt>
      <trkpt lat="45.92811" lon="4.72803">
        <ele>171</ele>
        <time>2018-04-14T10:48:24Z</time>
      </trkpt>
      <trkpt lat="45.9281" lon="4.72797">
        <ele>171</ele>
        <time>2018-04-14T10:48:25Z</time>
      </trkpt>
      <trkpt lat="45.92806" lon="4.7279">
        <ele>171</ele>
        <time>2018-04-14T10:48:26Z</time>
      </trkpt>
      <trkpt lat="45.928" lon="4.72787">
        <ele>171</ele>
        <time>2018-04-14T10:48:27Z</time>
      </trkpt>
      <trkpt lat="45.92792" lon="4.72788">
        <ele>171</ele>
        <time>2018-04-14T10:48:29Z</time>
      </trkpt>
      <trkpt lat="45.92788" lon="4.7279">
        <ele>170</ele>
        <time>2018-04-14T10:48:30Z</time>
      </trkpt>
      <trkpt lat="45.92784" lon="4.72793">
        <ele>170</ele>
        <time>2018-04-14T10:48:31Z</time>
      </trkpt>
      <trkpt lat="45.92777" lon="4.72794">
        <ele>170</ele>
        <time>2018-04-14T10:48:32Z</time>
      </trkpt>
      <trkpt lat="45.92772" lon="4.72798">
        <ele>170</ele>
        <time>2018-04-14T10:48:33Z</time>
      </trkpt>
      <trkpt lat="45.92768" lon="4.72801">
        <ele>170</ele>
        <time>2018-04-14T10:48:34Z</time>
      </trkpt>
      <trkpt lat="45.92767" lon="4.72809">
        <ele>170</ele>
        <time>2018-04-14T10:48:35Z</time>
      </trkpt>
      <trkpt lat="45.92765" lon="4.72813">
        <ele>170</ele>
        <time>2018-04-14T10:48:36Z</time>
      </trkpt>
      <trkpt lat="45.92759" lon="4.72818">
        <ele>170</ele>
        <time>2018-04-14T10:48:37Z</time>
      </trkpt>
      <trkpt lat="45.92754" lon="4.72822">
        <ele>170</ele>
        <time>2018-04-14T10:48:38Z</time>
      </trkpt>
      <trkpt lat="45.9275" lon="4.72826">
        <ele>169</ele>
        <time>2018-04-14T10:48:39Z</time>
      </trkpt>
      <trkpt lat="45.92745" lon="4.72829">
        <ele>169</ele>
        <time>2018-04-14T10:48:40Z</time>
      </trkpt>
      <trkpt lat="45.92741" lon="4.72832">
        <ele>169</ele>
        <time>2018-04-14T10:48:41Z</time>
      </trkpt>
      <trkpt lat="45.92736" lon="4.72836">
        <ele>169</ele>
        <time>2018-04-14T10:48:42Z</time>
      </trkpt>
      <trkpt lat="45.92731" lon="4.72835">
        <ele>169</ele>
        <time>2018-04-14T10:48:43Z</time>
      </trkpt>
      <trkpt lat="45.92727" lon="4.72838">
        <ele>169</ele>
        <time>2018-04-14T10:48:44Z</time>
      </trkpt>
      <trkpt lat="45.92722" lon="4.72842">
        <ele>169</ele>
        <time>2018-04-14T10:48:45Z</time>
      </trkpt>
      <trkpt lat="45.92718" lon="4.72846">
        <ele>169</ele>
        <time>2018-04-14T10:48:46Z</time>
      </trkpt>
      <trkpt lat="45.92713" lon="4.72848">
        <ele>169</ele>
        <time>2018-04-14T10:48:47Z</time>
      </trkpt>
      <trkpt lat="45.92709" lon="4.72852">
        <ele>169</ele>
        <time>2018-04-14T10:48:48Z</time>
      </trkpt>
      <trkpt lat="45.92704" lon="4.72855">
        <ele>169</ele>
        <time>2018-04-14T10:48:49Z</time>
      </trkpt>
      <trkpt lat="45.92699" lon="4.72858">
        <ele>169</ele>
        <time>2018-04-14T10:48:50Z</time>
      </trkpt>
      <trkpt lat="45.92695" lon="4.72862">
        <ele>169</ele>
        <time>2018-04-14T10:48:51Z</time>
      </trkpt>
      <trkpt lat="45.92689" lon="4.72865">
        <ele>169</ele>
        <time>2018-04-14T10:48:52Z</time>
      </trkpt>
      <trkpt lat="45.92685" lon="4.72869">
        <ele>169</ele>
        <time>2018-04-14T10:48:53Z</time>
      </trkpt>
      <trkpt lat="45.9268" lon="4.72872">
        <ele>169</ele>
        <time>2018-04-14T10:48:54Z</time>
      </trkpt>
      <trkpt lat="45.92677" lon="4.72875">
        <ele>170</ele>
        <time>2018-04-14T10:48:55Z</time>
      </trkpt>
      <trkpt lat="45.92672" lon="4.7288">
        <ele>170</ele>
        <time>2018-04-14T10:48:56Z</time>
      </trkpt>
      <trkpt lat="45.92667" lon="4.72884">
        <ele>170</ele>
        <time>2018-04-14T10:48:57Z</time>
      </trkpt>
      <trkpt lat="45.92662" lon="4.72888">
        <ele>169</ele>
        <time>2018-04-14T10:48:58Z</time>
      </trkpt>
      <trkpt lat="45.92658" lon="4.72891">
        <ele>169</ele>
        <time>2018-04-14T10:48:59Z</time>
      </trkpt>
      <trkpt lat="45.92653" lon="4.72896">
        <ele>169</ele>
        <time>2018-04-14T10:49:00Z</time>
      </trkpt>
      <trkpt lat="45.92648" lon="4.729">
        <ele>169</ele>
        <time>2018-04-14T10:49:01Z</time>
      </trkpt>
      <trkpt lat="45.92643" lon="4.72903">
        <ele>169</ele>
        <time>2018-04-14T10:49:02Z</time>
      </trkpt>
      <trkpt lat="45.92639" lon="4.72906">
        <ele>169</ele>
        <time>2018-04-14T10:49:03Z</time>
      </trkpt>
      <trkpt lat="45.92634" lon="4.7291">
        <ele>169</ele>
        <time>2018-04-14T10:49:04Z</time>
      </trkpt>
      <trkpt lat="45.9263" lon="4.72915">
        <ele>169</ele>
        <time>2018-04-14T10:49:05Z</time>
      </trkpt>
      <trkpt lat="45.92625" lon="4.72918">
        <ele>169</ele>
        <time>2018-04-14T10:49:06Z</time>
      </trkpt>
      <trkpt lat="45.92621" lon="4.72922">
        <ele>169</ele>
        <time>2018-04-14T10:49:07Z</time>
      </trkpt>
      <trkpt lat="45.92616" lon="4.72925">
        <ele>169</ele>
        <time>2018-04-14T10:49:08Z</time>
      </trkpt>
      <trkpt lat="45.92611" lon="4.72929">
        <ele>169</ele>
        <time>2018-04-14T10:49:09Z</time>
      </trkpt>
      <trkpt lat="45.92606" lon="4.72932">
        <ele>169</ele>
        <time>2018-04-14T10:49:10Z</time>
      </trkpt>
      <trkpt lat="45.92602" lon="4.72936">
        <ele>169</ele>
        <time>2018-04-14T10:49:11Z</time>
      </trkpt>
      <trkpt lat="45.92597" lon="4.72941">
        <ele>169</ele>
        <time>2018-04-14T10:49:12Z</time>
      </trkpt>
      <trkpt lat="45.92593" lon="4.72946">
        <ele>169</ele>
        <time>2018-04-14T10:49:13Z</time>
      </trkpt>
      <trkpt lat="45.92589" lon="4.72952">
        <ele>169</ele>
        <time>2018-04-14T10:49:14Z</time>
      </trkpt>
      <trkpt lat="45.92585" lon="4.72957">
        <ele>169</ele>
        <time>2018-04-14T10:49:15Z</time>
      </trkpt>
      <trkpt lat="45.92581" lon="4.72961">
        <ele>169</ele>
        <time>2018-04-14T10:49:16Z</time>
      </trkpt>
      <trkpt lat="45.92577" lon="4.72967">
        <ele>169</ele>
        <time>2018-04-14T10:49:17Z</time>
      </trkpt>
      <trkpt lat="45.92573" lon="4.72972">
        <ele>169</ele>
        <time>2018-04-14T10:49:18Z</time>
      </trkpt>
      <trkpt lat="45.92565" lon="4.72975">
        <ele>169</ele>
        <time>2018-04-14T10:49:20Z</time>
      </trkpt>
      <trkpt lat="45.92562" lon="4.72979">
        <ele>169</ele>
        <time>2018-04-14T10:49:21Z</time>
      </trkpt>
      <trkpt lat="45.92558" lon="4.72985">
        <ele>169</ele>
        <time>2018-04-14T10:49:22Z</time>
      </trkpt>
      <trkpt lat="45.92554" lon="4.7299">
        <ele>169</ele>
        <time>2018-04-14T10:49:23Z</time>
      </trkpt>
      <trkpt lat="45.92549" lon="4.72994">
        <ele>169</ele>
        <time>2018-04-14T10:49:24Z</time>
      </trkpt>
      <trkpt lat="45.92545" lon="4.72998">
        <ele>169</ele>
        <time>2018-04-14T10:49:25Z</time>
      </trkpt>
      <trkpt lat="45.92541" lon="4.73003">
        <ele>169</ele>
        <time>2018-04-14T10:49:26Z</time>
      </trkpt>
      <trkpt lat="45.92536" lon="4.73006">
        <ele>169</ele>
        <time>2018-04-14T10:49:27Z</time>
      </trkpt>
      <trkpt lat="45.92531" lon="4.7301">
        <ele>169</ele>
        <time>2018-04-14T10:49:28Z</time>
      </trkpt>
      <trkpt lat="45.92527" lon="4.73014">
        <ele>169</ele>
        <time>2018-04-14T10:49:29Z</time>
      </trkpt>
      <trkpt lat="45.92523" lon="4.73017">
        <ele>169</ele>
        <time>2018-04-14T10:49:30Z</time>
      </trkpt>
      <trkpt lat="45.92518" lon="4.73022">
        <ele>169</ele>
        <time>2018-04-14T10:49:31Z</time>
      </trkpt>
      <trkpt lat="45.92514" lon="4.73026">
        <ele>169</ele>
        <time>2018-04-14T10:49:32Z</time>
      </trkpt>
      <trkpt lat="45.9251" lon="4.7303">
        <ele>169</ele>
        <time>2018-04-14T10:49:33Z</time>
      </trkpt>
      <trkpt lat="45.92504" lon="4.73033">
        <ele>169</ele>
        <time>2018-04-14T10:49:34Z</time>
      </trkpt>
      <trkpt lat="45.925" lon="4.73035">
        <ele>170</ele>
        <time>2018-04-14T10:49:35Z</time>
      </trkpt>
      <trkpt lat="45.92496" lon="4.73039">
        <ele>170</ele>
        <time>2018-04-14T10:49:36Z</time>
      </trkpt>
      <trkpt lat="45.92491" lon="4.73043">
        <ele>170</ele>
        <time>2018-04-14T10:49:37Z</time>
      </trkpt>
      <trkpt lat="45.92486" lon="4.73048">
        <ele>170</ele>
        <time>2018-04-14T10:49:38Z</time>
      </trkpt>
      <trkpt lat="45.92482" lon="4.73052">
        <ele>170</ele>
        <time>2018-04-14T10:49:39Z</time>
      </trkpt>
      <trkpt lat="45.92478" lon="4.73057">
        <ele>170</ele>
        <time>2018-04-14T10:49:40Z</time>
      </trkpt>
      <trkpt lat="45.92473" lon="4.73061">
        <ele>170</ele>
        <time>2018-04-14T10:49:41Z</time>
      </trkpt>
      <trkpt lat="45.92469" lon="4.73065">
        <ele>170</ele>
        <time>2018-04-14T10:49:42Z</time>
      </trkpt>
      <trkpt lat="45.92464" lon="4.73068">
        <ele>170</ele>
        <time>2018-04-14T10:49:43Z</time>
      </trkpt>
      <trkpt lat="45.9246" lon="4.73071">
        <ele>170</ele>
        <time>2018-04-14T10:49:44Z</time>
      </trkpt>
      <trkpt lat="45.92455" lon="4.73075">
        <ele>170</ele>
        <time>2018-04-14T10:49:45Z</time>
      </trkpt>
      <trkpt lat="45.92451" lon="4.73079">
        <ele>170</ele>
        <time>2018-04-14T10:49:46Z</time>
      </trkpt>
      <trkpt lat="45.92447" lon="4.73083">
        <ele>170</ele>
        <time>2018-04-14T10:49:47Z</time>
      </trkpt>
      <trkpt lat="45.92442" lon="4.73086">
        <ele>170</ele>
        <time>2018-04-14T10:49:48Z</time>
      </trkpt>
      <trkpt lat="45.92438" lon="4.73089">
        <ele>171</ele>
        <time>2018-04-14T10:49:49Z</time>
      </trkpt>
      <trkpt lat="45.92434" lon="4.73092">
        <ele>171</ele>
        <time>2018-04-14T10:49:50Z</time>
      </trkpt>
      <trkpt lat="45.92429" lon="4.73097">
        <ele>171</ele>
        <time>2018-04-14T10:49:51Z</time>
      </trkpt>
      <trkpt lat="45.92424" lon="4.73098">
        <ele>171</ele>
        <time>2018-04-14T10:49:52Z</time>
      </trkpt>
      <trkpt lat="45.9242" lon="4.73103">
        <ele>171</ele>
        <time>2018-04-14T10:49:53Z</time>
      </trkpt>
      <trkpt lat="45.92415" lon="4.73107">
        <ele>171</ele>
        <time>2018-04-14T10:49:54Z</time>
      </trkpt>
      <trkpt lat="45.92411" lon="4.73114">
        <ele>171</ele>
        <time>2018-04-14T10:49:55Z</time>
      </trkpt>
      <trkpt lat="45.92408" lon="4.73121">
        <ele>171</ele>
        <time>2018-04-14T10:49:56Z</time>
      </trkpt>
      <trkpt lat="45.92406" lon="4.7313">
        <ele>171</ele>
        <time>2018-04-14T10:49:57Z</time>
      </trkpt>
      <trkpt lat="45.92405" lon="4.73138">
        <ele>171</ele>
        <time>2018-04-14T10:49:58Z</time>
      </trkpt>
      <trkpt lat="45.92405" lon="4.73144">
        <ele>171</ele>
        <time>2018-04-14T10:49:59Z</time>
      </trkpt>
      <trkpt lat="45.92404" lon="4.73153">
        <ele>171</ele>
        <time>2018-04-14T10:50:00Z</time>
      </trkpt>
      <trkpt lat="45.92404" lon="4.73163">
        <ele>170</ele>
        <time>2018-04-14T10:50:01Z</time>
      </trkpt>
      <trkpt lat="45.92405" lon="4.73171">
        <ele>171</ele>
        <time>2018-04-14T10:50:02Z</time>
      </trkpt>
      <trkpt lat="45.92405" lon="4.73179">
        <ele>171</ele>
        <time>2018-04-14T10:50:03Z</time>
      </trkpt>
      <trkpt lat="45.92406" lon="4.73186">
        <ele>171</ele>
        <time>2018-04-14T10:50:04Z</time>
      </trkpt>
      <trkpt lat="45.92405" lon="4.73193">
        <ele>171</ele>
        <time>2018-04-14T10:50:05Z</time>
      </trkpt>
      <trkpt lat="45.92406" lon="4.73201">
        <ele>171</ele>
        <time>2018-04-14T10:50:06Z</time>
      </trkpt>
      <trkpt lat="45.92406" lon="4.73209">
        <ele>171</ele>
        <time>2018-04-14T10:50:07Z</time>
      </trkpt>
      <trkpt lat="45.92405" lon="4.73217">
        <ele>171</ele>
        <time>2018-04-14T10:50:08Z</time>
      </trkpt>
      <trkpt lat="45.92406" lon="4.73224">
        <ele>171</ele>
        <time>2018-04-14T10:50:09Z</time>
      </trkpt>
      <trkpt lat="45.92406" lon="4.73232">
        <ele>171</ele>
        <time>2018-04-14T10:50:10Z</time>
      </trkpt>
      <trkpt lat="45.92407" lon="4.73239">
        <ele>171</ele>
        <time>2018-04-14T10:50:11Z</time>
      </trkpt>
      <trkpt lat="45.92407" lon="4.73246">
        <ele>171</ele>
        <time>2018-04-14T10:50:12Z</time>
      </trkpt>
      <trkpt lat="45.92408" lon="4.73254">
        <ele>171</ele>
        <time>2018-04-14T10:50:13Z</time>
      </trkpt>
      <trkpt lat="45.92408" lon="4.73261">
        <ele>171</ele>
        <time>2018-04-14T10:50:14Z</time>
      </trkpt>
      <trkpt lat="45.92408" lon="4.73267">
        <ele>171</ele>
        <time>2018-04-14T10:50:15Z</time>
      </trkpt>
      <trkpt lat="45.9241" lon="4.73274">
        <ele>171</ele>
        <time>2018-04-14T10:50:16Z</time>
      </trkpt>
      <trkpt lat="45.9241" lon="4.73282">
        <ele>171</ele>
        <time>2018-04-14T10:50:17Z</time>
      </trkpt>
      <trkpt lat="45.9241" lon="4.73288">
        <ele>171</ele>
        <time>2018-04-14T10:50:18Z</time>
      </trkpt>
      <trkpt lat="45.92411" lon="4.73295">
        <ele>171</ele>
        <time>2018-04-14T10:50:19Z</time>
      </trkpt>
      <trkpt lat="45.9241" lon="4.73301">
        <ele>171</ele>
        <time>2018-04-14T10:50:20Z</time>
      </trkpt>
      <trkpt lat="45.92411" lon="4.73309">
        <ele>171</ele>
        <time>2018-04-14T10:50:21Z</time>
      </trkpt>
      <trkpt lat="45.92411" lon="4.73316">
        <ele>171</ele>
        <time>2018-04-14T10:50:22Z</time>
      </trkpt>
      <trkpt lat="45.92413" lon="4.73323">
        <ele>171</ele>
        <time>2018-04-14T10:50:23Z</time>
      </trkpt>
      <trkpt lat="45.92414" lon="4.7333">
        <ele>171</ele>
        <time>2018-04-14T10:50:24Z</time>
      </trkpt>
      <trkpt lat="45.92415" lon="4.73337">
        <ele>171</ele>
        <time>2018-04-14T10:50:25Z</time>
      </trkpt>
      <trkpt lat="45.92416" lon="4.73349">
        <ele>171</ele>
        <time>2018-04-14T10:50:27Z</time>
      </trkpt>
      <trkpt lat="45.92417" lon="4.73357">
        <ele>171</ele>
        <time>2018-04-14T10:50:28Z</time>
      </trkpt>
      <trkpt lat="45.92419" lon="4.73366">
        <ele>172</ele>
        <time>2018-04-14T10:50:29Z</time>
      </trkpt>
      <trkpt lat="45.9242" lon="4.73373">
        <ele>172</ele>
        <time>2018-04-14T10:50:30Z</time>
      </trkpt>
      <trkpt lat="45.92421" lon="4.7338">
        <ele>172</ele>
        <time>2018-04-14T10:50:31Z</time>
      </trkpt>
      <trkpt lat="45.92421" lon="4.73388">
        <ele>172</ele>
        <time>2018-04-14T10:50:32Z</time>
      </trkpt>
      <trkpt lat="45.92423" lon="4.73395">
        <ele>172</ele>
        <time>2018-04-14T10:50:33Z</time>
      </trkpt>
      <trkpt lat="45.92425" lon="4.734">
        <ele>172</ele>
        <time>2018-04-14T10:50:34Z</time>
      </trkpt>
      <trkpt lat="45.92428" lon="4.73406">
        <ele>172</ele>
        <time>2018-04-14T10:50:35Z</time>
      </trkpt>
      <trkpt lat="45.92432" lon="4.7341">
        <ele>172</ele>
        <time>2018-04-14T10:50:36Z</time>
      </trkpt>
      <trkpt lat="45.92435" lon="4.73414">
        <ele>172</ele>
        <time>2018-04-14T10:50:37Z</time>
      </trkpt>
      <trkpt lat="45.9244" lon="4.73417">
        <ele>173</ele>
        <time>2018-04-14T10:50:38Z</time>
      </trkpt>
      <trkpt lat="45.92444" lon="4.7342">
        <ele>173</ele>
        <time>2018-04-14T10:50:39Z</time>
      </trkpt>
      <trkpt lat="45.92448" lon="4.73423">
        <ele>173</ele>
        <time>2018-04-14T10:50:40Z</time>
      </trkpt>
      <trkpt lat="45.92452" lon="4.73427">
        <ele>173</ele>
        <time>2018-04-14T10:50:41Z</time>
      </trkpt>
      <trkpt lat="45.92456" lon="4.73434">
        <ele>173</ele>
        <time>2018-04-14T10:50:42Z</time>
      </trkpt>
      <trkpt lat="45.92459" lon="4.7344">
        <ele>173</ele>
        <time>2018-04-14T10:50:43Z</time>
      </trkpt>
      <trkpt lat="45.92462" lon="4.73447">
        <ele>173</ele>
        <time>2018-04-14T10:50:44Z</time>
      </trkpt>
      <trkpt lat="45.92463" lon="4.73454">
        <ele>173</ele>
        <time>2018-04-14T10:50:45Z</time>
      </trkpt>
      <trkpt lat="45.92464" lon="4.73461">
        <ele>173</ele>
        <time>2018-04-14T10:50:46Z</time>
      </trkpt>
      <trkpt lat="45.92464" lon="4.73468">
        <ele>173</ele>
        <time>2018-04-14T10:50:47Z</time>
      </trkpt>
      <trkpt lat="45.92464" lon="4.73476">
        <ele>173</ele>
        <time>2018-04-14T10:50:48Z</time>
      </trkpt>
      <trkpt lat="45.92464" lon="4.73483">
        <ele>173</ele>
        <time>2018-04-14T10:50:49Z</time>
      </trkpt>
      <trkpt lat="45.92465" lon="4.7349">
        <ele>173</ele>
        <time>2018-04-14T10:50:50Z</time>
      </trkpt>
      <trkpt lat="45.92464" lon="4.73497">
        <ele>173</ele>
        <time>2018-04-14T10:50:51Z</time>
      </trkpt>
      <trkpt lat="45.92465" lon="4.73505">
        <ele>174</ele>
        <time>2018-04-14T10:50:52Z</time>
      </trkpt>
      <trkpt lat="45.92465" lon="4.73512">
        <ele>174</ele>
        <time>2018-04-14T10:50:53Z</time>
      </trkpt>
      <trkpt lat="45.92465" lon="4.73519">
        <ele>174</ele>
        <time>2018-04-14T10:50:54Z</time>
      </trkpt>
      <trkpt lat="45.92467" lon="4.73531">
        <ele>174</ele>
        <time>2018-04-14T10:50:56Z</time>
      </trkpt>
      <trkpt lat="45.92465" lon="4.73537">
        <ele>174</ele>
        <time>2018-04-14T10:50:57Z</time>
      </trkpt>
      <trkpt lat="45.92465" lon="4.73546">
        <ele>173</ele>
        <time>2018-04-14T10:50:59Z</time>
      </trkpt>
      <trkpt lat="45.92466" lon="4.73553">
        <ele>173</ele>
        <time>2018-04-14T10:51:00Z</time>
      </trkpt>
      <trkpt lat="45.92465" lon="4.73563">
        <ele>173</ele>
        <time>2018-04-14T10:51:02Z</time>
      </trkpt>
      <trkpt lat="45.92466" lon="4.7357">
        <ele>173</ele>
        <time>2018-04-14T10:51:03Z</time>
      </trkpt>
      <trkpt lat="45.92466" lon="4.73576">
        <ele>173</ele>
        <time>2018-04-14T10:51:04Z</time>
      </trkpt>
      <trkpt lat="45.92466" lon="4.73582">
        <ele>173</ele>
        <time>2018-04-14T10:51:05Z</time>
      </trkpt>
      <trkpt lat="45.92466" lon="4.7359">
        <ele>174</ele>
        <time>2018-04-14T10:51:06Z</time>
      </trkpt>
      <trkpt lat="45.92467" lon="4.73598">
        <ele>174</ele>
        <time>2018-04-14T10:51:07Z</time>
      </trkpt>
      <trkpt lat="45.92467" lon="4.73605">
        <ele>174</ele>
        <time>2018-04-14T10:51:08Z</time>
      </trkpt>
      <trkpt lat="45.92468" lon="4.73612">
        <ele>174</ele>
        <time>2018-04-14T10:51:09Z</time>
      </trkpt>
      <trkpt lat="45.92468" lon="4.73619">
        <ele>174</ele>
        <time>2018-04-14T10:51:10Z</time>
      </trkpt>
      <trkpt lat="45.92468" lon="4.73626">
        <ele>174</ele>
        <time>2018-04-14T10:51:11Z</time>
      </trkpt>
      <trkpt lat="45.92468" lon="4.73638">
        <ele>174</ele>
        <time>2018-04-14T10:51:13Z</time>
      </trkpt>
      <trkpt lat="45.92468" lon="4.73644">
        <ele>174</ele>
        <time>2018-04-14T10:51:14Z</time>
      </trkpt>
      <trkpt lat="45.92469" lon="4.73656">
        <ele>174</ele>
        <time>2018-04-14T10:51:16Z</time>
      </trkpt>
      <trkpt lat="45.92469" lon="4.73664">
        <ele>174</ele>
        <time>2018-04-14T10:51:17Z</time>
      </trkpt>
      <trkpt lat="45.92469" lon="4.73677">
        <ele>174</ele>
        <time>2018-04-14T10:51:19Z</time>
      </trkpt>
      <trkpt lat="45.92468" lon="4.73679">
        <ele>174</ele>
        <time>2018-04-14T10:51:20Z</time>
      </trkpt>
      <trkpt lat="45.92467" lon="4.73687">
        <ele>174</ele>
        <time>2018-04-14T10:51:21Z</time>
      </trkpt>
      <trkpt lat="45.92466" lon="4.73694">
        <ele>174</ele>
        <time>2018-04-14T10:51:22Z</time>
      </trkpt>
      <trkpt lat="45.92465" lon="4.73707">
        <ele>174</ele>
        <time>2018-04-14T10:51:26Z</time>
      </trkpt>
      <trkpt lat="45.92465" lon="4.73709">
        <ele>174</ele>
        <time>2018-04-14T10:51:27Z</time>
      </trkpt>
      <trkpt lat="45.92461" lon="4.73711">
        <ele>174</ele>
        <time>2018-04-14T10:52:16.838Z</time>
      </trkpt>
    </trkseg>
  </trk>
</gpx>